Year Month Day hour minute seconds FractionSecond  Uvelocity_cm/s Vvelocity_cm/s W_velocity_cm/s horizontalSpeedCareful_cm/s TotalSpeedCareful_cm/s HorizontalWindDirection_deg WindElevation_deg SpeedOfSound_cm/sec Temperature_Kelvin Pressure_mb
2015 04 09 13 37 31 .14      44     21     -1     49     50  64.6  -2.2  33976  286.47 0862.52
2015 04 09 13 37 31 .39      39     22     -1     45     46  60.2  -2.2  33978  286.51 0862.52
2015 04 09 13 37 31 .64      25     25     12     36     39  45.0  19.4  33980  286.54 0862.52
2015 04 09 13 37 31 .89      17     30     12     35     38  30.7  19.2  33980  286.54 0862.52
2015 04 09 13 37 32 .14      29     27     16     40     43  46.9  22.0  33978  286.49 0862.52
2015 04 09 13 37 32 .39      35     30     16     47     50  49.6  19.2  33980  286.54 0862.52
2015 04 09 13 37 32 .64      40     38      5     56     57  46.0   5.9  33978  286.49 0862.52
2015 04 09 13 37 32 .89      50     37      7     63     64  53.1   6.9  33978  286.51 0862.52
2015 04 09 13 37 33 .14      49     37     17     62     65  53.1  15.2  33976  286.47 0862.52
2015 04 09 13 37 33 .39      49     46      8     68     69  46.9   6.9  33976  286.46 0862.52
2015 04 09 13 37 33 .64      63     37      6     74     75  59.3   4.9  33978  286.51 0862.52
2015 04 09 13 37 33 .90      43     45     -1     63     64  43.3  -1.3  33976  286.46 0862.52
2015 04 09 13 37 34 .14      26     51    -16     58     61  27.2 -15.4  33978  286.51 0862.52
2015 04 09 13 37 34 .39      31     49     -4     59     60  32.5  -4.1  33976  286.46 0862.52
2015 04 09 13 37 34 .65      31     49      7     59     60  32.5   6.9  33976  286.46 0862.52
2015 04 09 13 37 34 .90      75     58    -15     95     97  52.2  -9.3  33978  286.51 0862.52
2015 04 09 13 37 35 .15      66     53    -23     85     89  51.4 -15.4  33976  286.47 0862.52
2015 04 09 13 37 35 .40      23     70    -22     74     77  18.7 -22.8  33980  286.52 0862.52
2015 04 09 13 37 35 .65      53     73    -19     91     93  36.1 -11.9  33976  286.47 0862.52
2015 04 09 13 37 35 .90      53     36    -23     65     70  55.8 -19.6  33980  286.54 0862.52
2015 04 09 13 37 36 .15      56     46    -32     73     79  50.5 -29.0  33980  286.52 0862.52
2015 04 09 13 37 36 .41      56     73    -33     93     99  37.8 -19.7  33976  286.47 0862.52
2015 04 09 13 37 36 .66      51     86    -35    100    107  30.7 -19.6  33976  286.47 0862.53
2015 04 09 13 37 36 .91      62     71    -23     95     98  41.0 -13.9  33976  286.47 0862.53
2015 04 09 13 37 37 .16      71     66     -1     98     99  46.9  -0.7  33978  286.49 0862.53
2015 04 09 13 37 37 .41      80     57      1     99    100  54.5   0.8  33976  286.46 0862.53
2015 04 09 13 37 37 .66      86     44    -27     97    101  62.9 -15.5  33982  286.56 0862.53
2015 04 09 13 37 37 .91      79     34    -11     87     88  66.5  -7.7  33978  286.51 0862.53
2015 04 09 13 37 38 .16      86     37    -18     94     96  66.5 -11.3  33978  286.49 0862.53
2015 04 09 13 37 38 .41      86     37    -18     94     96  66.5 -11.3  33978  286.49 0862.52
2015 04 09 13 37 38 .66      81     38     -8     90     91  64.7  -5.6  33976  286.47 0862.52
2015 04 09 13 37 38 .91      91     37     -5     99    100  67.8  -3.2  33974  286.44 0862.52
2015 04 09 13 37 39 .17     100     36     -4    107    108  70.0  -2.2  33980  286.52 0862.52
2015 04 09 13 37 39 .42     102     48     -4    113    114  64.6  -2.2  33982  286.56 0862.52
2015 04 09 13 37 39 .67      88     41     11     98     99  65.2   6.9  33982  286.57 0862.52
2015 04 09 13 37 39 .92      83     41      0     93     94  63.8  -0.3  33984  286.59 0862.52
2015 04 09 13 37 40 .17      83     39    -30     92     97  64.7 -18.1  33984  286.59 0862.52
2015 04 09 13 37 40 .42      88     29    -11     93     94  71.4  -7.3  33982  286.56 0862.53
2015 04 09 13 37 40 .67      77     22      0     81     82  73.6  -0.3  33980  286.54 0862.53
2015 04 09 13 37 40 .92      81     17      7     83     84  78.1   5.4  33986  286.64 0862.53
2015 04 09 13 37 41 .17      71     35    -11     80     81  63.4  -8.2  33984  286.61 0862.53
2015 04 09 13 37 41 .42      71     35    -11     80     81  63.4  -8.2  33984  286.61 0862.53
2015 04 09 13 37 41 .67      83     12     -1     84     85  81.2  -1.3  33982  286.56 0862.53
2015 04 09 13 37 41 .92      85      1    -22     86     89  89.2 -14.5  33978  286.51 0862.53
2015 04 09 13 37 42 .17      75      2    -15     76     78  88.3 -11.5  33978  286.51 0862.53
2015 04 09 13 37 42 .42      67     -4    -28     68     73  93.5 -27.4  33980  286.54 0862.53
2015 04 09 13 37 42 .67      67     -4    -18     68     71  93.5 -15.5  33980  286.54 0862.53
2015 04 09 13 37 42 .92      55     -6    -15     56     59  97.0 -15.5  33978  286.51 0862.53
2015 04 09 13 37 43 .19      45     -7    -22     46     51  98.8 -31.6  33982  286.56 0862.52
2015 04 09 13 37 43 .43      45     -7    -22     46     51  98.8 -31.6  33982  286.56 0862.52
2015 04 09 13 37 43 .69      51     10     -2     53     54  78.6  -2.2  33984  286.59 0862.52
2015 04 09 13 37 43 .94      73      5     -9     74     75  85.6  -7.3  33982  286.56 0862.52
2015 04 09 13 37 44 .19      73     -1     -2     74     75  90.8  -2.2  33980  286.54 0862.52
2015 04 09 13 37 44 .44      69      5     -2     70     71  85.6  -2.2  33984  286.61 0862.52
2015 04 09 13 37 44 .69      61      0     -2     62     63  89.1  -2.2  33984  286.61 0862.52
2015 04 09 13 37 44 .94      52     -4     -2     53     54  94.4  -2.2  33984  286.59 0862.52
2015 04 09 13 37 45 .19      62    -12     -8     64     65 101.5  -7.3  33980  286.54 0862.52
2015 04 09 13 37 45 .44      70    -14     -5     72     73 101.4  -4.1  33988  286.66 0862.52
2015 04 09 13 37 45 .69      80    -20    -12     83     84 104.6  -8.2  33988  286.66 0862.52
2015 04 09 13 37 45 .94      81    -17    -16     83     85 101.9 -11.3  33988  286.66 0862.52
2015 04 09 13 37 46 .19      83    -25    -16     87     89 106.8 -10.9  33984  286.61 0862.52
2015 04 09 13 37 46 .44      87    -13    -17     89     91  98.8 -10.9  33988  286.66 0862.52
2015 04 09 13 37 46 .69      88     -6    -21     89     92  94.4 -13.4  33986  286.64 0862.52
2015 04 09 13 37 46 .94      75     -3    -16     76     78  92.6 -12.4  33988  286.66 0862.52
2015 04 09 13 37 47 .19      70     -4     -5     71     72  93.5  -4.1  33990  286.71 0862.52
2015 04 09 13 37 47 .44      69      1    -12     70     72  89.1 -10.3  33988  286.67 0862.52
2015 04 09 13 37 47 .69      62      0     -5     63     64  90.0  -5.2  33990  286.71 0862.51
2015 04 09 13 37 47 .95      67     -5    -18     68     71  94.4 -15.5  33990  286.69 0862.51
2015 04 09 13 37 48 .20      67     -5    -18     68     71  94.4 -15.5  33990  286.69 0862.51
2015 04 09 13 37 48 .45      70    -22     -6     74     75 107.7  -5.2  33990  286.71 0862.51
2015 04 09 13 37 48 .70      73    -17     -9     75     76 103.3  -7.3  33990  286.71 0862.51
2015 04 09 13 37 48 .95      66    -13    -11     68     69 101.5  -9.3  33990  286.71 0862.51
2015 04 09 13 37 49 .20      56      2    -14     57     59  87.4 -14.5  33986  286.64 0862.51
2015 04 09 13 37 49 .45      62      0    -19     63     65  89.2 -22.8  33990  286.69 0862.51
2015 04 09 13 37 49 .70      50     -1    -16     51     53  91.7 -23.8  33994  286.78 0862.51
2015 04 09 13 37 49 .95      35      4    -23     36     42  82.1 -39.9  33996  286.79 0862.51
2015 04 09 13 37 50 .21      32     21    -27     39     47  55.8 -42.0  33998  286.84 0862.51
2015 04 09 13 37 50 .46      29     17    -23     34     41  59.3 -42.0  33998  286.84 0862.51
2015 04 09 13 37 50 .71      27     23    -25     36     43  48.7 -43.0  34000  286.88 0862.51
2015 04 09 13 37 50 .96      27     26    -21     38     43  46.7 -35.8  33998  286.83 0862.51
2015 04 09 13 37 51 .21      25     33    -27     42     49  37.0 -39.9  34000  286.86 0862.52
2015 04 09 13 37 51 .46      38     24    -21     46     50  57.5 -31.5  33998  286.83 0862.52
2015 04 09 13 37 51 .71      28     31    -11     43     45  42.3 -14.5  33996  286.79 0862.52
2015 04 09 13 37 51 .97      10     40    -10     42     44  15.1 -13.4  33998  286.83 0862.52
2015 04 09 13 37 52 .21       2     35    -23     36     42   4.5 -39.9  33998  286.84 0862.52
2015 04 09 13 37 52 .47      24     37    -23     45     50  32.5 -33.7  34000  286.86 0862.52
2015 04 09 13 37 52 .72      28     29    -19     41     45  44.1 -31.6  34000  286.86 0862.52
2015 04 09 13 37 52 .97      31     14    -14     35     37  64.8 -25.4  34000  286.86 0862.52
2015 04 09 13 37 53 .22      40     13    -19     43     47  72.3 -29.5  33996  286.79 0862.52
2015 04 09 13 37 53 .47      33      0    -12     34     36  89.2 -23.3  33994  286.78 0862.52
2015 04 09 13 37 53 .72      43      1    -16     44     46  87.4 -24.4  34000  286.88 0862.52
2015 04 09 13 37 53 .97      40      0     -1     41     42  90.0  -2.2  34014  287.10 0862.52
2015 04 09 13 37 54 .22      36     -8      8     37     39 103.3  13.2  34026  287.30 0862.52
2015 04 09 13 37 54 .47      27    -17      6     33     34 122.4  11.1  34028  287.33 0862.52
2015 04 09 13 37 54 .72      37    -22     20     44     48 120.7  25.1  34028  287.33 0862.52
2015 04 09 13 37 54 .97      45    -25     14     52     54 119.8  15.3  34028  287.35 0862.52
2015 04 09 13 37 55 .22      42    -15      5     45     46 110.0   6.9  34012  287.06 0862.52
2015 04 09 13 37 55 .47      41      0     21     42     46  90.0  28.2  34000  286.86 0862.52
2015 04 09 13 37 55 .73      45      4     -1     46     47  84.8  -2.2  34002  286.91 0862.51
2015 04 09 13 37 55 .97      33     11     -1     35     36  71.4  -2.2  34010  287.03 0862.51
2015 04 09 13 37 56 .23      25      4      9     26     28  80.3  19.4  34014  287.11 0862.51
2015 04 09 13 37 56 .48      10      9      4     14     15  46.9  19.2  34010  287.03 0862.51
2015 04 09 13 37 56 .72      15      8      9     18     20  61.1  29.3  34016  287.13 0862.51
2015 04 09 13 37 56 .98      16     15     12     22     25  46.9  33.5  34010  287.05 0862.51
2015 04 09 13 37 57 .24      11     17     18     21     27  34.3  45.8  34020  287.20 0862.51
2015 04 09 13 37 57 .49      16     26     10     31     33  32.5  19.4  34010  287.03 0862.51
2015 04 09 13 37 57 .74       9     33     14     35     37  15.1  21.0  34010  287.05 0862.50
2015 04 09 13 37 57 .99      -7     35     12     36     39 348.4  19.4  34008  287.01 0862.50
2015 04 09 13 37 58 .24      -1     56     15     57     60 358.2  15.3  34012  287.06 0862.50
2015 04 09 13 37 58 .49      -1     56     15     57     60 358.2  15.3  34012  287.06 0862.50
2015 04 09 13 37 58 .74       8     68      5     69     70   7.1   4.9  34008  287.00 0862.50
2015 04 09 13 37 58 .99       7     72      8     73     74   6.2   6.9  34008  287.01 0862.50
2015 04 09 13 37 59 .25      26     65      3     71     72  21.8   2.8  34020  287.20 0862.50
2015 04 09 13 37 59 .50      12     86     18     87     90   8.5  12.2  34066  287.99 0862.51
2015 04 09 13 37 59 .74      -3    101     30    102    107 358.2  16.8  34116  288.82 0862.51
2015 04 09 13 38 00 .00     -16    131     70    133    150 352.9  29.8  34116  288.82 0862.51
2015 04 09 13 38 00 .24     -47    166     53    173    181 344.0  17.1  34154  289.48 0862.51
2015 04 09 13 38 00 .49     -28    197     37    200    204 351.9  10.6  34110  288.72 0862.51
2015 04 09 13 38 00 .75     -14    181     13    182    183 355.3   4.4  34072  288.09 0862.51
2015 04 09 13 38 00 .99       4    150     38    151    156   1.8  14.3  34084  288.30 0862.51
2015 04 09 13 38 01 .25       8    184     17    185    186   2.5   5.4  34024  287.28 0862.51
2015 04 09 13 38 01 .51     -10    219     18    220    221 357.3   4.9  34016  287.15 0862.51
2015 04 09 13 38 01 .75      -7    224     27    225    227 358.0   6.9  34020  287.20 0862.51
2015 04 09 13 38 02 .00       4    215     -2    216    217   1.1  -0.7  33994  286.78 0862.51
2015 04 09 13 38 02 .25       3    196     -9    197    198   0.9  -2.8  33998  286.83 0862.51
2015 04 09 13 38 02 .50      -3    250      2    251    252 359.1   0.5  33992  286.74 0862.51
2015 04 09 13 38 02 .76       0    194      8    195    196   0.2   2.5  34004  286.93 0862.51
2015 04 09 13 38 03 .00       0    234     11    235    236 359.8   2.8  34016  287.14 0862.51
2015 04 09 13 38 03 .26      -8    231     19    232    233 358.0   4.9  34018  287.18 0862.51
2015 04 09 13 38 03 .50       2    200     24    201    203   0.7   6.9  33992  286.73 0862.51
2015 04 09 13 38 03 .75       0    246     25    247    249 359.8   6.0  34012  287.06 0862.51
2015 04 09 13 38 04 .00      32    228     11    231    232   8.0   2.8  33980  286.54 0862.51
2015 04 09 13 38 04 .27      17    217     10    218    219   4.5   2.8  33992  286.74 0862.51
2015 04 09 13 38 04 .51      24    219      3    221    222   6.5   0.8  34004  286.93 0862.51
2015 04 09 13 38 04 .77      21    204    -11    206    207   6.0  -3.2  33992  286.74 0862.52
2015 04 09 13 38 05 .02      27    194     14    196    197   8.1   4.2  33998  286.83 0862.52
2015 04 09 13 38 05 .27      27    214     19    216    217   7.3   5.2  34042  287.59 0862.52
2015 04 09 13 38 05 .52      37    202     32    206    209  10.5   8.8  34068  288.03 0862.52
2015 04 09 13 38 05 .78      37    218     14    222    223   9.8   3.6  34068  288.03 0862.52
2015 04 09 13 38 06 .02      56    209     -8    217    218  15.2  -2.1  33966  286.29 0862.52
2015 04 09 13 38 06 .27      39    193    -38    198    202  11.6 -10.9  33964  286.27 0862.52
2015 04 09 13 38 06 .52      41    180    -41    185    190  13.1 -12.6  33962  286.22 0862.52
2015 04 09 13 38 06 .77      37    181    -48    185    192  11.8 -14.5  33964  286.27 0862.52
2015 04 09 13 38 07 .02      36    179    -21    183    185  11.5  -6.7  33962  286.24 0862.52
2015 04 09 13 38 07 .27      20    174    -22    176    178   6.7  -7.3  33964  286.27 0862.52
2015 04 09 13 38 07 .53      24    173     -3    175    176   8.0  -1.3  34014  287.11 0862.52
2015 04 09 13 38 07 .78      27    161      7    164    165   9.8   2.5  34028  287.33 0862.52
2015 04 09 13 38 08 .02       6    135    -13    136    137   2.7  -5.6  33992  286.73 0862.52
2015 04 09 13 38 08 .28      11    138     -5    139    140   4.9  -2.2  33978  286.49 0862.52
2015 04 09 13 38 08 .53      29    152    -12    155    156  11.1  -4.6  34004  286.94 0862.52
2015 04 09 13 38 08 .77      20    151     22    153    155   7.6   8.5  34126  288.99 0862.52
2015 04 09 13 38 09 .02      -4    157      9    158    159 358.2   3.3  34020  287.20 0862.52
2015 04 09 13 38 09 .28      12    161     12    162    163   4.4   4.4  34030  287.38 0862.52
2015 04 09 13 38 09 .53      22    178    -11    180    181   7.1  -3.7  34008  287.01 0862.52
2015 04 09 13 38 09 .78      23    179     -7    181    182   7.6  -2.2  34022  287.25 0862.52
2015 04 09 13 38 10 .02       2    169      4    170    171   0.9   1.6  34050  287.72 0862.52
2015 04 09 13 38 10 .29       8    190    -21    191    193   2.5  -6.5  34006  286.98 0862.52
2015 04 09 13 38 10 .53      11    201     11    202    203   3.4   3.1  34070  288.06 0862.52
2015 04 09 13 38 10 .78     -15    192     64    193    204 355.5  18.6  34090  288.40 0862.52
2015 04 09 13 38 11 .04     -26    195     46    197    203 352.2  13.2  34106  288.67 0862.52
2015 04 09 13 38 11 .29     -39    195      2    199    200 348.7   0.8  34012  287.08 0862.52
2015 04 09 13 38 11 .55     -13    173     18    174    175 355.6   6.1  34028  287.35 0862.52
2015 04 09 13 38 11 .79      14    201     43    202    207   4.0  12.2  34054  287.79 0862.52
2015 04 09 13 38 12 .05      17    182     50    183    190   5.6  15.3  34064  287.94 0862.52
2015 04 09 13 38 12 .30       7    172     53    173    181   2.6  17.1  34096  288.50 0862.52
2015 04 09 13 38 12 .55       2    133     57    134    145   0.9  24.1  34138  289.21 0862.52
2015 04 09 13 38 12 .79      -2    154     71    155    170 359.1  26.4  34138  289.19 0862.52
2015 04 09 13 38 13 .04      15    143     82    144    165   6.2  32.4  34142  289.28 0862.52
2015 04 09 13 38 13 .29      25    123     63    126    140  11.6  28.2  34126  289.01 0862.52
2015 04 09 13 38 13 .55      31    142     71    146    162  12.5  27.8  34122  288.94 0862.52
2015 04 09 13 38 13 .79      44    131     43    139    146  18.5  17.3  34124  288.96 0862.52
2015 04 09 13 38 14 .04      32    151     21    155    157  12.0   8.0  34112  288.75 0862.52
2015 04 09 13 38 14 .30      25    148     29    151    154   9.8  11.0  34116  288.82 0862.52
2015 04 09 13 38 14 .56      24    133      2    136    137  10.2   1.2  34090  288.40 0862.52
2015 04 09 13 38 14 .80      24    140     39    143    149   9.8  15.2  34168  289.72 0862.52
2015 04 09 13 38 15 .05       6    136     41    137    144   2.7  16.8  34166  289.69 0862.52
2015 04 09 13 38 15 .30       8    183     -5    184    185   2.5  -1.8  34076  288.16 0862.52
2015 04 09 13 38 15 .55       5    166     15    167    168   1.8   5.2  34054  287.79 0862.52
2015 04 09 13 38 15 .80      84    255    -10    269    270  18.3  -2.2  34044  287.61 0862.52
2015 04 09 13 38 16 .06      67    243    -36    253    256  15.4  -8.2  34046  287.65 0862.52
2015 04 09 13 38 16 .30     114    207      3    237    238  29.0   0.8  34110  288.73 0862.52
2015 04 09 13 38 16 .56     126    213     10    248    249  30.7   2.3  34136  289.17 0862.52
2015 04 09 13 38 16 .81     149    204     26    253    255  36.1   5.9  34146  289.32 0862.52
2015 04 09 13 38 17 .06     152    189     12    243    244  38.7   2.9  34166  289.66 0862.52
2015 04 09 13 38 17 .31     129    153     38    201    205  40.1  10.8  34156  289.52 0862.52
2015 04 09 13 38 17 .55      99    160     15    189    190  31.6   4.6  34044  287.60 0862.52
2015 04 09 13 38 17 .81     113    134     22    176    178  40.3   7.1  34066  287.98 0862.52
2015 04 09 13 38 18 .07      96    136     -3    167    168  35.2  -1.3  34056  287.81 0862.52
2015 04 09 13 38 18 .32      99    140     44    172    178  35.2  14.5  34014  287.11 0862.52
2015 04 09 13 38 18 .57     117    180     14    215    216  33.0   3.8  34052  287.76 0862.52
2015 04 09 13 38 18 .82      72    171    -17    186    187  22.9  -5.4  33992  286.74 0862.52
2015 04 09 13 38 19 .07      52    174    -23    182    184  16.9  -7.3  33978  286.51 0862.52
2015 04 09 13 38 19 .32      51    156    -23    165    167  18.0  -8.0  33970  286.35 0862.52
2015 04 09 13 38 19 .57      46    156    -21    163    165  16.7  -7.3  33970  286.37 0862.52
2015 04 09 13 38 19 .82      55    171     -7    180    181  17.8  -2.2  33968  286.32 0862.52
2015 04 09 13 38 20 .07      42    201    -26    206    208  12.0  -7.3  33980  286.54 0862.52
2015 04 09 13 38 20 .32      57    207    -42    215    220  15.6 -11.1  33984  286.61 0862.52
2015 04 09 13 38 20 .58      69    181    -45    194    200  20.9 -13.3  33998  286.84 0862.52
2015 04 09 13 38 20 .82      65    149    -22    163    165  23.6  -8.0  34006  286.98 0862.52
2015 04 09 13 38 21 .08      49    146    -17    155    157  18.5  -6.5  33998  286.83 0862.52
2015 04 09 13 38 21 .33      62    151    -13    164    165  22.3  -4.9  34032  287.40 0862.52
2015 04 09 13 38 21 .57      42    157      7    163    164  15.1   2.8  34022  287.23 0862.52
2015 04 09 13 38 21 .82      64    137     23    152    154  24.9   8.9  34006  286.96 0862.52
2015 04 09 13 38 22 .08      47    135      7    144    145  19.2   2.9  34018  287.18 0862.52
2015 04 09 13 38 22 .32      89    139     27    166    169  32.5   9.3  34082  288.26 0862.52
2015 04 09 13 38 22 .58     104     97     85    143    166  46.9  33.5  34096  288.48 0862.52
2015 04 09 13 38 22 .83      63     76     89     99    133  39.6  46.9  34086  288.33 0862.52
2015 04 09 13 38 23 .08      81     97     71    127    145  39.6  31.4  34122  288.92 0862.52
2015 04 09 13 38 23 .32      88    118     65    148    161  36.5  25.1  34124  288.96 0862.52
2015 04 09 13 38 23 .59      96    145     60    175    186  33.6  18.9  34098  288.53 0862.52
2015 04 09 13 38 23 .83     110    161     40    196    201  34.5  11.6  34022  287.25 0862.52
2015 04 09 13 38 24 .08     113    172     15    207    208  33.4   4.2  33992  286.74 0862.53
2015 04 09 13 38 24 .33     123    133     40    182    187  42.8  12.4  34006  286.98 0862.53
2015 04 09 13 38 24 .58     101    139     33    173    177  36.1  10.8  34006  286.96 0862.53
2015 04 09 13 38 24 .83     137    150     15    204    205  42.5   4.4  33986  286.64 0862.53
2015 04 09 13 38 25 .09     131    139      9    192    193  43.2   2.9  33986  286.64 0862.53
2015 04 09 13 38 25 .34     114    157     -5    195    196  36.1  -1.6  33982  286.57 0862.53
2015 04 09 13 38 25 .59     101    185    -26    211    213  28.7  -7.2  33982  286.56 0862.53
2015 04 09 13 38 25 .84     112    170    -11    204    205  33.4  -3.2  33984  286.59 0862.53
2015 04 09 13 38 26 .09     111    156    -14    192    193  35.6  -4.4  33982  286.56 0862.53
2015 04 09 13 38 26 .35     102    156    -10    187    188  33.2  -3.1  33982  286.56 0862.53
2015 04 09 13 38 26 .60     107    149      1    184    185  35.6   0.5  33986  286.64 0862.53
2015 04 09 13 38 26 .85      78    156     -6    175    176  26.7  -2.2  33994  286.78 0862.53
2015 04 09 13 38 27 .10     115    136      1    179    180  40.1   0.5  34008  287.01 0862.53
2015 04 09 13 38 27 .35     111     83     15    139    140  53.1   6.5  34008  287.00 0862.53
2015 04 09 13 38 27 .60      97     71     18    121    123  54.0   8.5  34012  287.06 0862.53
2015 04 09 13 38 27 .85      92     92     54    131    141  45.1  23.1  34038  287.52 0862.53
2015 04 09 13 38 28 .10      91    152     27    178    181  31.0   8.8  34040  287.55 0862.53
2015 04 09 13 38 28 .35     116    125     19    171    173  43.0   6.5  34032  287.42 0862.53
2015 04 09 13 38 28 .60      92    146     12    173    174  32.1   4.2  34026  287.30 0862.53
2015 04 09 13 38 28 .85     109    141      8    179    180  37.8   2.8  34004  286.93 0862.53
2015 04 09 13 38 29 .11     114    127      8    172    173  41.9   2.9  34016  287.15 0862.53
2015 04 09 13 38 29 .35     124    145      9    192    193  40.5   2.9  34000  286.86 0862.53
2015 04 09 13 38 29 .61      88    134     12    161    162  33.4   4.6  34006  286.96 0862.53
2015 04 09 13 38 29 .85     117    134     19    179    181  41.2   6.1  34010  287.05 0862.53
2015 04 09 13 38 30 .11      71    129      8    148    149  29.0   3.3  34026  287.30 0862.53
2015 04 09 13 38 30 .35      89    143     21    169    171  31.9   7.2  34014  287.10 0862.53
2015 04 09 13 38 30 .61     110    143     23    181    183  37.6   7.5  33986  286.62 0862.53
2015 04 09 13 38 30 .85     120    128     29    176    179  43.2   9.5  33968  286.34 0862.53
2015 04 09 13 38 31 .10     124    127      3    178    179  44.3   1.0  33956  286.14 0862.53
2015 04 09 13 38 31 .36     121    131      1    179    180  42.5   0.5  33964  286.27 0862.52
2015 04 09 13 38 31 .60     131    130      5    185    186  45.2   1.6  33960  286.19 0862.52
2015 04 09 13 38 31 .87     132    135     -2    190    191  44.3  -0.7  33962  286.24 0862.52
2015 04 09 13 38 32 .12     116    140      3    182    183  39.6   1.2  33970  286.35 0862.52
2015 04 09 13 38 32 .37     109    143      3    181    182  37.4   1.0  33978  286.51 0862.52
2015 04 09 13 38 32 .62      97    141     12    172    173  34.7   4.2  33984  286.61 0862.52
2015 04 09 13 38 32 .87     105    126      9    165    166  39.7   3.1  33978  286.51 0862.52
2015 04 09 13 38 33 .12     124    125     13    177    178  44.9   4.2  33978  286.51 0862.52
2015 04 09 13 38 33 .37     141    121      9    186    187  49.3   2.8  33966  286.30 0862.52
2015 04 09 13 38 33 .62     129    116      3    174    175  48.0   1.2  33960  286.19 0862.52
2015 04 09 13 38 33 .87     122    107      6    163    164  48.7   2.1  33964  286.27 0862.52
2015 04 09 13 38 34 .12     125    116      6    171    172  47.1   2.1  33958  286.17 0862.52
2015 04 09 13 38 34 .38     125    125     -2    177    178  45.0  -0.7  33978  286.51 0862.52
2015 04 09 13 38 34 .63     117    113     13    163    164  46.0   4.6  33994  286.78 0862.52
2015 04 09 13 38 34 .87     109     97      7    147    148  48.2   2.9  33984  286.59 0862.52
2015 04 09 13 38 35 .13     123    102     11    160    161  50.4   4.2  34002  286.91 0862.52
2015 04 09 13 38 35 .38     120     99      8    156    157  50.5   3.3  34006  286.98 0862.52
2015 04 09 13 38 35 .62     111    109     21    156    158  45.6   8.0  34002  286.91 0862.52
2015 04 09 13 38 35 .87     109    101     -5    149    150  47.3  -2.2  33968  286.32 0862.52
2015 04 09 13 38 36 .13     107     95     -2    144    145  48.6  -1.2  33958  286.17 0862.52
2015 04 09 13 38 36 .37     105     92     -5    140    141  48.7  -2.2  33960  286.20 0862.52
2015 04 09 13 38 36 .63     105     92     -5    140    141  48.7  -2.2  33960  286.20 0862.52
2015 04 09 13 38 36 .88      94     94     -8    134    135  45.0  -3.7  33956  286.14 0862.52
2015 04 09 13 38 37 .13      94     94     -8    134    135  45.0  -3.7  33956  286.14 0862.52
2015 04 09 13 38 37 .38      91     91    -10    129    130  45.1  -4.6  33958  286.17 0862.52
2015 04 09 13 38 37 .63      85     88    -15    123    125  44.1  -7.3  33958  286.17 0862.52
2015 04 09 13 38 37 .88      82     82    -11    116    117  45.0  -5.6  33960  286.19 0862.52
2015 04 09 13 38 38 .13      88     77    -19    118    120  48.7  -9.4  33958  286.17 0862.52
2015 04 09 13 38 38 .38      85     76    -35    115    121  48.2 -17.0  33958  286.15 0862.52
2015 04 09 13 38 38 .64      74     79    -30    109    114  43.3 -15.5  33970  286.35 0862.52
2015 04 09 13 38 38 .90      73     75    -28    105    109  44.1 -15.0  33994  286.78 0862.52
2015 04 09 13 38 39 .14      85     65    -13    108    109  52.7  -7.3  33996  286.79 0862.52
2015 04 09 13 38 39 .40      84     63     -4    105    106  53.1  -2.2  33994  286.78 0862.52
2015 04 09 13 38 39 .64      81     75     15    111    113  47.3   8.0  34000  286.88 0862.51
2015 04 09 13 38 39 .89      96     85     30    129    133  48.7  13.2  33982  286.56 0862.51
2015 04 09 13 38 40 .15     105     89     32    138    142  49.6  13.1  33968  286.34 0862.51
2015 04 09 13 38 40 .39     117     60     45    132    140  62.9  18.9  33970  286.37 0862.51
2015 04 09 13 38 40 .65     122     61     46    137    145  63.4  18.9  33980  286.54 0862.51
2015 04 09 13 38 40 .91     122     53     46    134    142  66.5  18.9  34022  287.23 0862.51
2015 04 09 13 38 41 .15     118     42     48    126    134  70.1  21.0  34030  287.38 0862.51
2015 04 09 13 38 41 .40     110     30     41    115    122  74.9  20.4  34032  287.40 0862.51
2015 04 09 13 38 41 .65     116     40     17    123    125  70.9   8.0  33964  286.27 0862.51
2015 04 09 13 38 41 .90     114     44      6    123    124  68.7   2.9  33958  286.17 0862.51
2015 04 09 13 38 42 .15     121     39      1    128    129  71.8   0.7  33962  286.24 0862.51
2015 04 09 13 38 42 .41     110     30     -4    115    116  74.9  -2.2  33962  286.24 0862.51
2015 04 09 13 38 42 .65      96     20    -19     99    101  78.1 -10.9  33956  286.14 0862.51
2015 04 09 13 38 42 .90      92     21    -12     95     96  76.7  -7.7  33958  286.17 0862.51
2015 04 09 13 38 43 .15      86      9    -22     87     90  83.4 -14.5  33956  286.14 0862.51
2015 04 09 13 38 43 .40      84     17    -30     86     92  78.5 -19.1  33958  286.15 0862.51
2015 04 09 13 38 43 .65      82     17    -28     84     88  78.1 -23.6  33958  286.17 0862.51
2015 04 09 13 38 43 .90      81     17    -28     83     88  78.1 -18.7  33956  286.14 0862.51
2015 04 09 13 38 44 .15      73      5    -20     74     77  85.6 -15.4  33958  286.17 0862.51
2015 04 09 13 38 44 .40      69      5    -25     70     75  85.7 -19.6  33958  286.17 0862.51
2015 04 09 13 38 44 .65      73      5    -20     74     77  85.6 -15.4  33958  286.17 0862.51
2015 04 09 13 38 44 .90      75     10    -15     76     78  82.1 -11.5  33956  286.14 0862.51
2015 04 09 13 38 45 .16      74      5     -9     75     76  85.6  -7.3  33960  286.19 0862.51
2015 04 09 13 38 45 .40      70      3    -14     71     73  87.4 -11.3  33962  286.22 0862.51
2015 04 09 13 38 45 .65      69      6     -9     70     71  84.8  -7.3  33958  286.15 0862.51
2015 04 09 13 38 45 .91      70      3     -5     71     72  87.4  -4.1  33956  286.14 0862.51
2015 04 09 13 38 46 .17      73      0     -4     74     75  90.0  -3.1  33958  286.15 0862.51
2015 04 09 13 38 46 .42      67     -4    -11     68     69  93.5  -9.3  33960  286.19 0862.51
2015 04 09 13 38 46 .67      70    -14     -5     72     73 101.4  -4.1  33960  286.19 0862.51
2015 04 09 13 38 46 .92      60    -12    -17     62     65 101.5 -15.5  33960  286.19 0862.51
2015 04 09 13 38 47 .17      51    -24    -20     57     61 115.2 -19.7  33962  286.24 0862.51
2015 04 09 13 38 47 .42      51    -24    -20     57     61 115.3 -19.7  33966  286.29 0862.51
2015 04 09 13 38 47 .67      38    -38    -28     55     61 134.9 -32.6  33968  286.32 0862.51
2015 04 09 13 38 47 .92      33    -41    -27     53     59 141.3 -33.7  33968  286.32 0862.51
2015 04 09 13 38 48 .17      30    -44    -29     54     61 145.7 -35.7  33966  286.29 0862.51
2015 04 09 13 38 48 .42      44    -38    -30     59     66 130.4 -33.7  33970  286.35 0862.51
2015 04 09 13 38 48 .67      49    -35    -21     61     64 125.1 -23.3  33970  286.35 0862.50
2015 04 09 13 38 48 .93      40    -48    -16     63     66 140.3 -14.5  33966  286.30 0862.50
2015 04 09 13 38 49 .18      40    -53    -21     67     70 143.0 -23.8  33966  286.29 0862.50
2015 04 09 13 38 49 .43      37    -50    -23     63     67 143.0 -24.4  33968  286.32 0862.50
2015 04 09 13 38 49 .68      40    -53    -21     67     70 143.0 -23.8  33966  286.29 0862.50
2015 04 09 13 38 49 .93      52    -43    -30     68     74 129.5 -29.5  33976  286.46 0862.50
2015 04 09 13 38 50 .18      50    -47    -32     69     76 133.1 -31.5  33978  286.49 0862.50
2015 04 09 13 38 50 .43      40    -45    -34     61     69 138.6 -35.8  33972  286.41 0862.50
2015 04 09 13 38 50 .68      38    -40    -37     56     67 136.8 -40.0  33974  286.42 0862.50
2015 04 09 13 38 50 .93      35    -30    -39     47     61 130.4 -48.2  33978  286.51 0862.50
2015 04 09 13 38 51 .18      37    -32    -37     50     62 131.3 -44.1  33978  286.49 0862.50
2015 04 09 13 38 51 .43      41    -29    -34     51     61 125.1 -40.9  33976  286.46 0862.50
2015 04 09 13 38 51 .68      37    -34    -36     51     62 133.1 -43.9  33980  286.54 0862.50
2015 04 09 13 38 51 .93      31    -12    -37     34     50 111.7 -57.7  33980  286.52 0862.50
2015 04 09 13 38 52 .19      16    -20    -30     26     39 140.4 -58.7  33984  286.61 0862.49
2015 04 09 13 38 52 .43      18    -25    -28     31     41 143.9 -51.3  33992  286.74 0862.49
2015 04 09 13 38 52 .70      40    -44    -28     60     66 137.7 -31.5  34014  287.11 0862.49
2015 04 09 13 38 52 .94      50    -41    -14     65     67 129.5 -12.4  34020  287.21 0862.49
2015 04 09 13 38 53 .19      62    -34     -3     71     72 118.9  -3.1  33996  286.79 0862.49
2015 04 09 13 38 53 .45      75    -37      0     84     85 116.2   0.2  33992  286.74 0862.49
2015 04 09 13 38 53 .70      79    -32      5     86     87 112.2   3.8  33990  286.71 0862.49
2015 04 09 13 38 53 .95      86    -25     -4     90     91 106.4  -2.6  33984  286.59 0862.49
2015 04 09 13 38 54 .20      90    -29     18     95     97 108.2  11.1  33984  286.59 0862.50
2015 04 09 13 38 54 .45      84    -28     14     89     91 108.6   9.5  33986  286.64 0862.50
2015 04 09 13 38 54 .70      91    -14     14     93     95  99.2   8.5  33992  286.74 0862.50
2015 04 09 13 38 54 .95      92     -7      4     93     94  94.4   2.9  34004  286.93 0862.50
2015 04 09 13 38 55 .20      85      0     16     86     88  90.0  11.0  34010  287.05 0862.50
2015 04 09 13 38 55 .45      78      6     30     79     84  85.6  21.0  34012  287.06 0862.50
2015 04 09 13 38 55 .70      67      1     38     68     77  89.1  31.4  34026  287.32 0862.50
2015 04 09 13 38 55 .95      69      0     47     70     84  90.0  36.5  34020  287.21 0862.50
2015 04 09 13 38 56 .20      61     -4     33     62     70  94.4  30.3  33998  286.84 0862.50
2015 04 09 13 38 56 .46      71    -12     42     73     84  99.7  32.9  34006  286.96 0862.50
2015 04 09 13 38 56 .71      80    -37     47     89    100 114.8  30.3  34034  287.43 0862.50
2015 04 09 13 38 56 .96      76    -31     24     83     87 112.6  16.3  34030  287.38 0862.50
2015 04 09 13 38 57 .20      62    -39     29     74     79 122.4  22.0  34040  287.54 0862.50
2015 04 09 13 38 57 .45      69    -33     36     77     85 115.4  26.6  34038  287.52 0862.50
2015 04 09 13 38 57 .70      62    -39     56     74     92 122.4  41.7  34028  287.33 0862.50
2015 04 09 13 38 57 .96      43    -33     60     55     81 127.8  52.7  34030  287.38 0862.50
2015 04 09 13 38 58 .21      36    -36     60     51     78 135.0  54.8  34052  287.76 0862.50
2015 04 09 13 38 58 .46      28    -41     54     50     73 145.7  52.1  34060  287.89 0862.50
2015 04 09 13 38 58 .71      20    -21     48     30     56 136.6  64.7  34068  288.03 0862.49
2015 04 09 13 38 58 .96      64    -42     58     77     96 123.3  40.7  34020  287.20 0862.49
2015 04 09 13 38 59 .21      64    -42     58     77     96 123.3  40.7  34020  287.20 0862.49
2015 04 09 13 38 59 .46      51    -51     41     73     83 135.0  32.4  34016  287.13 0862.49
2015 04 09 13 38 59 .73      59    -62     36     86     93 136.3  24.1  34042  287.57 0862.49
2015 04 09 13 38 59 .97      52    -71     38     89     96 143.5  24.1  34124  288.97 0862.49
2015 04 09 13 39 00 .23      64    -98     27    118    122 147.0  13.1  34134  289.13 0862.49
2015 04 09 13 39 00 .47      53   -110     38    123    129 154.1  17.4  34104  288.64 0862.49
2015 04 09 13 39 00 .73      70   -112     15    133    134 147.9   6.5  34076  288.16 0862.49
2015 04 09 13 39 00 .97      59   -103     43    119    126 150.1  20.4  34084  288.30 0862.49
2015 04 09 13 39 01 .23      58   -107     10    122    123 151.5   4.9  34038  287.52 0862.49
2015 04 09 13 39 01 .48      44    -94      5    104    105 154.7   2.8  34032  287.40 0862.49
2015 04 09 13 39 01 .73      22    -87     34     90     96 165.7  21.0  34198  290.21 0862.49
2015 04 09 13 39 01 .97      47    -85     16     98    100 151.0   9.5  34072  288.09 0862.49
2015 04 09 13 39 02 .23      58    -91     19    108    110 147.5  10.1  34002  286.91 0862.49
2015 04 09 13 39 02 .48      63    -96      9    115    116 146.6   4.9  34028  287.35 0862.49
2015 04 09 13 39 02 .73      77    -89     -6    118    119 139.0  -3.1  34000  286.86 0862.49
2015 04 09 13 39 02 .98      68    -85     16    110    112 141.3   8.5  34060  287.89 0862.49
2015 04 09 13 39 03 .23      62    -75     25     98    102 140.3  14.7  34128  289.04 0862.49
2015 04 09 13 39 03 .48      68    -78      8    104    105 139.0   4.4  34140  289.24 0862.49
2015 04 09 13 39 03 .73      56    -88    -16    105    107 147.5  -8.8  34130  289.06 0862.49
2015 04 09 13 39 03 .99      47    -82      1     95     96 150.1   0.8  34110  288.74 0862.49
2015 04 09 13 39 04 .23      31    -82     -3     88     89 159.1  -2.2  34138  289.21 0862.49
2015 04 09 13 39 04 .49       7    -97     -1     98     99 175.5  -0.7  34126  288.99 0862.49
2015 04 09 13 39 04 .73      10   -100    -12    101    102 173.8  -7.3  34128  289.02 0862.49
2015 04 09 13 39 04 .99      36    -94    -29    101    106 158.6 -16.0  34096  288.50 0862.49
2015 04 09 13 39 05 .23      27   -104    -15    108    110 165.3  -8.2  34124  288.96 0862.49
2015 04 09 13 39 05 .48      26    -94    -23     98    101 164.4 -13.4  34008  287.00 0862.49
2015 04 09 13 39 05 .73      21    -90    -16     93     95 166.6  -9.8  33978  286.51 0862.49
2015 04 09 13 39 05 .98      31    -85    -26     91     95 159.5 -16.0  33978  286.51 0862.49
2015 04 09 13 39 06 .24      28    -92    -25     97    101 163.1 -14.5  33980  286.52 0862.49
2015 04 09 13 39 06 .48      22    -92    -29     95    100 166.2 -17.0  33976  286.47 0862.49
2015 04 09 13 39 06 .75      21    -98    -16    101    103 168.0  -9.3  33978  286.51 0862.49
2015 04 09 13 39 07 .00       8    -85    -22     86     89 174.2 -14.5  33978  286.51 0862.49
2015 04 09 13 39 07 .25       0    -82    -18     83     86 180.0 -12.4  33984  286.59 0862.49
2015 04 09 13 39 07 .50       0    -86     -8     87     88 180.4  -5.6  33978  286.49 0862.49
2015 04 09 13 39 07 .75       7    -92    -11     93     94 175.5  -7.2  33968  286.32 0862.49
2015 04 09 13 39 08 .00       7    -92    -11     93     94 175.5  -7.2  33968  286.32 0862.49
2015 04 09 13 39 08 .25       4    -87    -11     88     89 176.9  -7.3  33966  286.30 0862.49
2015 04 09 13 39 08 .50       8    -86    -13     87     89 174.7  -8.8  33968  286.32 0862.49
2015 04 09 13 39 08 .75      14    -78    -15     80     82 169.8 -10.9  33972  286.41 0862.49
2015 04 09 13 39 09 .01      15    -73    -25     75     79 168.4 -23.6  33978  286.51 0862.49
2015 04 09 13 39 09 .25      19    -89    -25     92     96 168.0 -15.4  33984  286.59 0862.49
2015 04 09 13 39 09 .50      13    -95    -17     96     98 172.0 -10.3  33972  286.41 0862.49
2015 04 09 13 39 09 .75      11    -91    -11     92     93 172.9  -7.2  33972  286.41 0862.49
2015 04 09 13 39 10 .00      16    -89    -11     91     92 169.3  -7.2  33972  286.39 0862.49
2015 04 09 13 39 10 .26      18    -88    -11     90     91 168.0  -7.3  33982  286.56 0862.49
2015 04 09 13 39 10 .50      41    -80     -9     91     92 152.8  -6.2  33986  286.64 0862.48
2015 04 09 13 39 10 .76      29    -66    -20     73     76 156.4 -15.5  33994  286.78 0862.48
2015 04 09 13 39 11 .01      51    -71    -23     88     92 143.9 -15.0  34036  287.47 0862.48
2015 04 09 13 39 11 .25      51    -78    -12     94     95 146.6  -7.3  34044  287.60 0862.48
2015 04 09 13 39 11 .50      44    -78     -4     90     91 150.6  -3.1  34038  287.50 0862.48
2015 04 09 13 39 11 .76      32    -89    -12     95     96 160.0  -7.3  33976  286.46 0862.48
2015 04 09 13 39 12 .01      27    -82    -21     87     90 161.3 -13.9  33980  286.54 0862.48
2015 04 09 13 39 12 .26      10    -67     -3     68     69 171.1  -3.1  33978  286.49 0862.48
2015 04 09 13 39 12 .51       8    -80     -1     81     82 173.8  -0.7  33970  286.37 0862.48
2015 04 09 13 39 12 .76       6    -76     -3     77     78 175.5  -2.2  33970  286.35 0862.48
2015 04 09 13 39 13 .01       6    -76     -3     77     78 175.5  -2.2  33972  286.41 0862.48
2015 04 09 13 39 13 .26       6    -83     -9     84     85 175.5  -6.2  33974  286.44 0862.49
2015 04 09 13 39 13 .51       1    -82    -12     83     84 179.1  -8.2  33974  286.42 0862.49
2015 04 09 13 39 13 .78      -1    -85    -14     86     88 180.9  -9.8  33982  286.56 0862.49
2015 04 09 13 39 14 .02      -2    -91      0     92     93 181.4   0.2  34004  286.93 0862.49
2015 04 09 13 39 14 .27      14    -88     -8     90     91 170.7  -5.6  33970  286.37 0862.49
2015 04 09 13 39 14 .53       0    -85    -16     86     88 180.4 -10.9  33976  286.46 0862.49
2015 04 09 13 39 14 .77       6    -81    -16     82     84 175.1 -11.3  33976  286.46 0862.49
2015 04 09 13 39 15 .03       5    -86    -11     87     88 176.4  -7.2  33976  286.46 0862.49
2015 04 09 13 39 15 .27      12    -87    -10     88     89 171.5  -6.7  33980  286.52 0862.49
2015 04 09 13 39 15 .52      12    -87    -10     88     89 171.5  -6.7  33980  286.52 0862.49
2015 04 09 13 39 15 .78       2    -83     -6     84     85 178.6  -4.6  33978  286.51 0862.49
2015 04 09 13 39 16 .03       1    -98     -2     99    100 179.1  -1.3  33992  286.74 0862.49
2015 04 09 13 39 16 .28       4    -87    -11     88     89 177.3  -7.3  34004  286.93 0862.49
2015 04 09 13 39 16 .53       5    -79     -3     80     81 176.4  -2.2  34002  286.91 0862.49
2015 04 09 13 39 16 .79      -3    -88     -1     89     90 182.2  -0.7  34040  287.54 0862.49
2015 04 09 13 39 17 .04      -2    -90    -20     91     94 181.4 -12.4  34072  288.08 0862.49
2015 04 09 13 39 17 .28      30    -85    -13     91     92 160.4  -8.2  34072  288.08 0862.49
2015 04 09 13 39 17 .53      11    -91      1     92     93 172.9   1.2  34064  287.94 0862.49
2015 04 09 13 39 17 .78       0    -81      9     82     83 180.5   6.5  34036  287.47 0862.49
2015 04 09 13 39 18 .04       3    -94     17     95     97 177.8  10.6  34032  287.42 0862.49
2015 04 09 13 39 18 .29      22    -87     12     90     91 165.3   8.0  34072  288.09 0862.49
2015 04 09 13 39 18 .53      15    -74     21     76     79 168.5  15.8  34074  288.13 0862.49
2015 04 09 13 39 18 .78       6    -72     -6     73     74 174.7  -5.2  34006  286.98 0862.49
2015 04 09 13 39 19 .03      15    -73     -9     75     76 168.4  -7.3  34010  287.03 0862.49
2015 04 09 13 39 19 .28       4    -72     -4     73     74 176.4  -3.1  34008  287.01 0862.49
2015 04 09 13 39 19 .53      13    -63     -2     65     66 168.4  -2.2  34010  287.05 0862.48
2015 04 09 13 39 19 .79      22    -65     -5     69     70 160.8  -4.1  34020  287.20 0862.48
2015 04 09 13 39 20 .04      26    -55    -17     61     64 154.5 -15.5  34032  287.40 0862.48
2015 04 09 13 39 20 .29      21    -54    -20     59     63 158.2 -18.7  34016  287.15 0862.48
2015 04 09 13 39 20 .55      27    -56     -8     63     64 154.6  -7.3  33996  286.79 0862.48
2015 04 09 13 39 20 .80      28    -48     -2     56     57 149.3  -2.2  34000  286.88 0862.48
2015 04 09 13 39 21 .05      27    -48     -1     56     57 151.0  -1.3  33988  286.66 0862.48
2015 04 09 13 39 21 .30      19    -52     -2     56     57 160.0  -2.2  33992  286.73 0862.48
2015 04 09 13 39 21 .55      23    -49      1     55     56 154.6   1.8  34006  286.96 0862.48
2015 04 09 13 39 21 .80       9    -41      9     42     43 167.5  12.2  34004  286.93 0862.48
2015 04 09 13 39 22 .05       1    -42      7     43     44 178.2  10.1  34000  286.88 0862.48
2015 04 09 13 39 22 .30      -4    -43     14     44     47 186.2  18.4  34006  286.98 0862.48
2015 04 09 13 39 22 .55       3    -51     -5     52     53 176.4  -6.2  34000  286.88 0862.48
2015 04 09 13 39 22 .80       2    -43     -5     44     45 177.3  -7.2  34000  286.88 0862.48
2015 04 09 13 39 23 .06       8    -40     -4     41     42 168.4  -6.2  34006  286.98 0862.48
2015 04 09 13 39 23 .31       3    -47      2     48     49 175.5   2.8  34028  287.35 0862.48
2015 04 09 13 39 23 .56       1    -59      7     60     61 178.2   7.1  34026  287.30 0862.48
2015 04 09 13 39 23 .81       6    -52     -2     53     54 172.9  -2.2  34036  287.47 0862.48
2015 04 09 13 39 24 .05       8    -47      8     48     49 169.3  10.1  34018  287.18 0862.48
2015 04 09 13 39 24 .30      -9    -42      0     44     45 192.5   0.8  34014  287.11 0862.48
2015 04 09 13 39 24 .56       2    -42      0     43     44 176.4   0.8  34012  287.06 0862.48
2015 04 09 13 39 24 .81       2    -38     -9     39     41 176.4 -13.4  34024  287.28 0862.48
2015 04 09 13 39 25 .06       2    -35      1     36     37 175.6   2.9  34024  287.27 0862.48
2015 04 09 13 39 25 .31      11    -35     13     37     40 161.3  19.4  34020  287.21 0862.48
2015 04 09 13 39 25 .56      14    -40     -1     43     44 160.8  -2.2  34028  287.35 0862.48
2015 04 09 13 39 25 .81      15    -35      0     39     40 156.4   0.8  34034  287.43 0862.48
2015 04 09 13 39 26 .06      20    -36     -6     42     43 150.1  -9.3  34024  287.28 0862.48
2015 04 09 13 39 26 .32      27    -31      7     42     43 138.6  10.1  34028  287.33 0862.48
2015 04 09 13 39 26 .56      20    -24      5     32     33 140.4   9.0  34022  287.25 0862.48
2015 04 09 13 39 26 .81      21    -16      9     27     29 127.8  18.9  34046  287.65 0862.48
2015 04 09 13 39 27 .07      26    -13     -1     30     31 117.1  -3.1  34058  287.86 0862.48
2015 04 09 13 39 27 .32      21    -10      8     24     26 117.1  19.4  34080  288.21 0862.48
2015 04 09 13 39 27 .57      23     -7     10     25     26 108.4  21.0  34086  288.31 0862.48
2015 04 09 13 39 27 .83      41    -36     19     55     59 131.3  19.4  34090  288.38 0862.48
2015 04 09 13 39 28 .07      41    -43     28     60     66 135.8  27.1  34086  288.31 0862.48
2015 04 09 13 39 28 .33      60    -38     30     72     78 122.5  23.1  34084  288.28 0862.48
2015 04 09 13 39 28 .58      59    -42     27     73     77 126.0  20.0  34076  288.16 0862.48
2015 04 09 13 39 28 .83      46    -30     49     56     74 123.3  45.8  34088  288.36 0862.48
2015 04 09 13 39 29 .08      46    -29     36     55     65 122.4  35.6  34080  288.21 0862.48
2015 04 09 13 39 29 .33      32    -20     36     39     53 122.5  47.9  34088  288.36 0862.48
2015 04 09 13 39 29 .58      30    -14     36     34     49 115.2  50.1  34096  288.48 0862.48
2015 04 09 13 39 29 .83      34    -12     33     37     49 110.0  46.9  34096  288.50 0862.48
2015 04 09 13 39 30 .08      36     -7     36     37     51 101.5  50.0  34098  288.52 0862.48
2015 04 09 13 39 30 .33      30      2     43     31     53  85.7  60.5  34110  288.72 0862.48
2015 04 09 13 39 30 .59      23      0     30     24     38  90.0  56.4  34118  288.87 0862.48
2015 04 09 13 39 30 .83      18     -7     38     20     42 111.7  69.8  34132  289.09 0862.48
2015 04 09 13 39 31 .08      11     -3     39     12     40 108.4  82.8  34148  289.36 0862.48
2015 04 09 13 39 31 .33      15      1     43     16     45  85.7  80.2  34160  289.57 0862.48
2015 04 09 13 39 31 .58      31     -3     36     32     48  96.1  52.2  34156  289.50 0862.48
2015 04 09 13 39 31 .83      45      2     30     46     54  87.4  35.6  34116  288.82 0862.48
2015 04 09 13 39 32 .08      53      9     31     54     62  80.3  31.4  34102  288.58 0862.48
2015 04 09 13 39 32 .33      43     13     58     45     73  73.2  57.5  34066  287.99 0862.48
2015 04 09 13 39 32 .59      47    -14     54     50     73 106.8  52.1  34076  288.14 0862.48
2015 04 09 13 39 32 .83      35    -11     27     37     45 108.2  39.7  34086  288.31 0862.48
2015 04 09 13 39 33 .08      35     -9     23     37     43 105.1  35.5  34086  288.31 0862.47
2015 04 09 13 39 33 .34      46     -1     25     47     53  91.7  30.3  34078  288.18 0862.47
2015 04 09 13 39 33 .60      39     -3     32     40     51  94.4  43.7  34072  288.09 0862.47
2015 04 09 13 39 33 .84      51     -7     18     52     56  97.9  18.9  34094  288.45 0862.47
2015 04 09 13 39 34 .11      54    -18     12     58     60 108.6  12.2  34072  288.09 0862.48
2015 04 09 13 39 34 .34      46     -3     14     47     50  94.4  16.3  34066  287.99 0862.48
2015 04 09 13 39 34 .60      42     -4     16     43     45  96.1  20.0  34046  287.65 0862.48
2015 04 09 13 39 34 .85      41      9     14     43     46  77.6  18.9  34040  287.54 0862.48
2015 04 09 13 39 35 .10      42      1     14     43     46  88.3  18.9  34030  287.38 0862.48
2015 04 09 13 39 35 .35      48      9     -1     49     50  79.4  -2.2  33998  286.83 0862.48
2015 04 09 13 39 35 .60      48      9     -1     49     50  78.5  -2.2  33984  286.61 0862.48
2015 04 09 13 39 35 .86      48      3     -4     49     50  85.6  -5.2  33990  286.71 0862.47
2015 04 09 13 39 36 .11      49     13      0     51     52  74.9  -0.3  34012  287.06 0862.47
2015 04 09 13 39 36 .36      44     14     19     47     50  71.4  23.0  34020  287.20 0862.47
2015 04 09 13 39 36 .60      41     21     20     47     51  62.9  24.1  34022  287.23 0862.47
2015 04 09 13 39 36 .85      37     18      4     42     43  63.8   5.9  34012  287.08 0862.47
2015 04 09 13 39 37 .11      25     32     -1     41     42  37.8  -2.2  34008  287.01 0862.47
2015 04 09 13 39 37 .35      20     24      7     32     33  39.7  13.2  34008  287.01 0862.47
2015 04 09 13 39 37 .61      22     41     -6     47     48  28.1  -7.3  34014  287.11 0862.47
2015 04 09 13 39 37 .86       2     34     -4     35     36   4.5  -7.2  34030  287.37 0862.47
2015 04 09 13 39 38 .10      15     21      9     26     28  36.1  19.4  34018  287.16 0862.47
2015 04 09 13 39 38 .36      15      9      9     18     20  57.6  29.3  34012  287.08 0862.47
2015 04 09 13 39 38 .61      38     -2      3     39     40  94.4   4.9  34042  287.57 0862.48
2015 04 09 13 39 38 .86      24      8     -2     26     27  71.8  -5.2  34038  287.50 0862.48
2015 04 09 13 39 39 .11      21     17    -12     28     30  50.5 -29.5  34020  287.20 0862.48
2015 04 09 13 39 39 .36      11     24     -1     27     28  25.4  -3.1  34018  287.16 0862.48
2015 04 09 13 39 39 .61      16     16      1     23     24  45.0   2.9  34020  287.21 0862.48
2015 04 09 13 39 39 .86      26     22     12     35     38  50.4  18.9  34016  287.15 0862.48
2015 04 09 13 39 40 .11      36     29      8     47     48  51.4  10.1  34004  286.93 0862.48
2015 04 09 13 39 40 .36      23     67     -2     71     72  19.2  -2.2  33998  286.84 0862.48
2015 04 09 13 39 40 .62      51     62    -12     81     82  39.6  -8.8  34008  287.01 0862.48
2015 04 09 13 39 40 .87      46     46    -23     66     71  45.0 -19.7  34012  287.06 0862.48
2015 04 09 13 39 41 .12      39     38    -17     55     58  45.9 -17.6  34030  287.38 0862.48
2015 04 09 13 39 41 .38      43     45     -2     63     64  43.3  -2.2  34034  287.45 0862.48
2015 04 09 13 39 41 .63      47     33     -2     58     59  54.9  -2.2  34082  288.26 0862.48
2015 04 09 13 39 41 .88      34     54      9     65     66  32.5   8.0  34134  289.14 0862.48
2015 04 09 13 39 42 .13      26     60     11     66     68  23.6  10.1  34126  288.99 0862.48
2015 04 09 13 39 42 .37      11     66     31     67     73   9.8  27.1  34116  288.84 0862.48
2015 04 09 13 39 42 .63      12     60     39     62     73  11.6  35.5  34110  288.72 0862.48
2015 04 09 13 39 42 .88       0     59     31     60     67   0.9  29.3  34098  288.53 0862.48
2015 04 09 13 39 43 .14      15     53     48     56     73  16.0  44.8  34126  288.99 0862.48
2015 04 09 13 39 43 .38      32     64     39     72     81  27.2  30.8  34090  288.40 0862.48
2015 04 09 13 39 43 .63      15     53     28     56     62  16.0  28.2  34102  288.58 0862.48
2015 04 09 13 39 43 .88      17     47     12     50     52  20.0  14.3  34106  288.65 0862.48
2015 04 09 13 39 44 .13      15     46     21     49     53  18.7  24.1  34106  288.67 0862.48
2015 04 09 13 39 44 .38      18     55     25     58     63  18.5  24.1  34090  288.40 0862.48
2015 04 09 13 39 44 .63      37     54     30     66     72  34.3  27.1  34080  288.23 0862.48
2015 04 09 13 39 44 .89      32     41     30     53     60  37.8  31.4  34086  288.33 0862.48
2015 04 09 13 39 45 .13      11     41     32     43     53  15.1  40.7  34102  288.58 0862.48
2015 04 09 13 39 45 .39      -4     62     35     63     72 355.5  31.4  34118  288.87 0862.48
2015 04 09 13 39 45 .63     -13     71     34     73     80 349.3  26.6  34134  289.14 0862.48
2015 04 09 13 39 45 .89      -3     74     43     75     86 357.3  32.9  34128  289.04 0862.49
2015 04 09 13 39 46 .14       0     49     48     50     69   0.9  50.0  34148  289.36 0862.49
2015 04 09 13 39 46 .38      -6     83     57     84    101 355.6  37.6  34130  289.08 0862.49
2015 04 09 13 39 46 .64      -7    104      5    105    106 356.0   2.8  34002  286.89 0862.49
2015 04 09 13 39 46 .89      -9    125      7    126    127 355.6   3.3  34028  287.33 0862.49
2015 04 09 13 39 47 .14       9    120     10    121    122   4.4   4.9  33982  286.56 0862.49
2015 04 09 13 39 47 .39      -2    118     13    119    120 358.6   6.5  33990  286.69 0862.49
2015 04 09 13 39 47 .65       0     99     19    100    102   0.5  11.1  34006  286.96 0862.49
2015 04 09 13 39 47 .90      -9    125     30    126    130 355.6  13.7  34066  287.99 0862.49
2015 04 09 13 39 48 .15      -3    126     49    127    136 358.2  22.0  34130  289.08 0862.49
2015 04 09 13 39 48 .40     -17    123     57    125    137 352.0  26.2  34158  289.53 0862.49
2015 04 09 13 39 48 .65     -10     99     54    100    113 353.8  31.3  34152  289.45 0862.48
2015 04 09 13 39 48 .90     -24     99     57    102    116 346.2  31.4  34176  289.84 0862.48
2015 04 09 13 39 49 .16     -40    124     57    131    142 342.2  25.1  34186  290.01 0862.48
2015 04 09 13 39 49 .41     -28     98     52    103    115 344.0  28.2  34186  290.01 0862.48
2015 04 09 13 39 49 .65     -57     83     29    101    106 325.3  16.3  34188  290.06 0862.48
2015 04 09 13 39 49 .91     -37    123     26    129    132 343.0  11.6  34142  289.26 0862.48
2015 04 09 13 39 50 .16     -28    104     23    108    111 344.8  12.2  34100  288.57 0862.48
2015 04 09 13 39 50 .41     -37     83     36     92     98 335.9  22.5  34120  288.91 0862.48
2015 04 09 13 39 50 .65     -32    119     34    124    129 344.9  15.3  33986  286.64 0862.48
2015 04 09 13 39 50 .91     -24    130     21    133    135 349.3   9.0  33984  286.61 0862.48
2015 04 09 13 39 51 .16     -28    146     29    149    152 348.9  11.1  33990  286.71 0862.48
2015 04 09 13 39 51 .41     -21    130     41    132    139 350.7  17.3  34000  286.86 0862.48
2015 04 09 13 39 51 .66     -11    132     34    133    138 355.1  14.3  33992  286.74 0862.48
2015 04 09 13 39 51 .92     -27    133     35    136    141 348.4  14.7  34020  287.21 0862.48
2015 04 09 13 39 52 .16     -15    143     39    144    150 353.8  15.2  34036  287.49 0862.48
2015 04 09 13 39 52 .41     -31    135     49    139    147 346.7  20.0  34004  286.93 0862.48
2015 04 09 13 39 52 .67     -26    130     23    133    136 348.4  10.1  34040  287.54 0862.48
2015 04 09 13 39 52 .91     -35    151     65    156    169 346.7  23.8  34040  287.54 0862.48
2015 04 09 13 39 53 .16     -24    142     39    145    151 350.2  15.3  34042  287.57 0862.48
2015 04 09 13 39 53 .41     -24    129     41    132    139 349.3  17.4  34006  286.96 0862.48
2015 04 09 13 39 53 .66     -30    126     44    130    138 346.6  18.9  34012  287.08 0862.48
2015 04 09 13 39 53 .91     -25    134     33    137    141 349.3  13.7  34002  286.91 0862.48
2015 04 09 13 39 54 .17     -33    141     28    145    148 346.6  11.1  34004  286.93 0862.48
2015 04 09 13 39 54 .42     -20    136     29    138    142 351.5  12.2  34010  287.03 0862.48
2015 04 09 13 39 54 .67     -20    150     26    152    155 352.4   9.9  34000  286.88 0862.48
2015 04 09 13 39 54 .92     -21    154     21    156    158 352.0   8.0  33996  286.79 0862.48
2015 04 09 13 39 55 .17     -25    151      7    154    155 350.3   2.9  33998  286.83 0862.48
2015 04 09 13 39 55 .43     -11    151      2    152    153 355.5   0.8  34002  286.91 0862.48
2015 04 09 13 39 55 .68     -11    151     -5    152    153 355.5  -2.2  34006  286.98 0862.48
2015 04 09 13 39 55 .93     -25    126     19    129    131 348.5   8.5  34014  287.11 0862.48
2015 04 09 13 39 56 .18     -17    122     50    124    133 352.0  23.0  34092  288.42 0862.48
2015 04 09 13 39 56 .44     -12    103     28    104    108 352.9  15.3  34032  287.40 0862.48
2015 04 09 13 39 56 .69     -21    105     54    108    120 348.5  28.7  34088  288.36 0862.48
2015 04 09 13 39 56 .93     -31    127     49    131    139 346.2  21.0  34020  287.20 0862.48
2015 04 09 13 39 57 .18      -8    126     25    127    130 356.0  11.1  34012  287.06 0862.48
2015 04 09 13 39 57 .43      21    112     17    115    117  10.7   8.5  34006  286.98 0862.48
2015 04 09 13 39 57 .69      15    106     21    108    111   8.0  11.0  34012  287.06 0862.48
2015 04 09 13 39 57 .93       6    108     -4    109    110   3.6  -2.2  34014  287.11 0862.48
2015 04 09 13 39 58 .18      -6     93    -32     94    100 356.0 -19.1  34016  287.15 0862.48
2015 04 09 13 39 58 .43       0     82    -16     83     85   0.0 -10.9  34020  287.20 0862.48
2015 04 09 13 39 58 .69       8    103    -10    104    105   4.5  -5.6  34028  287.33 0862.48
2015 04 09 13 39 58 .94     -14    104     13    106    107 351.9   7.1  34058  287.86 0862.48
2015 04 09 13 39 59 .19      -3     99    -14    100    102 358.2  -8.2  34018  287.16 0862.48
2015 04 09 13 39 59 .44       0     90    -32     91     97 359.6 -19.7  34016  287.15 0862.48
2015 04 09 13 39 59 .69      -5     85    -16     86     88 356.4 -10.9  34012  287.08 0862.47
2015 04 09 13 39 59 .94      -8    104    -13    105    106 355.5  -7.3  34012  287.06 0862.47
2015 04 09 13 40 00 .19      -5     94     -2     95     96 356.9  -1.8  34012  287.08 0862.47
2015 04 09 13 40 00 .44     -23     97      6    100    101 346.2   3.8  34012  287.08 0862.47
2015 04 09 13 40 00 .69     -24     98     -2    101    102 346.2  -1.2  34012  287.06 0862.47
2015 04 09 13 40 00 .94     -30    101     -5    106    107 343.5  -3.1  34006  286.98 0862.47
2015 04 09 13 40 01 .19     -44    111    -15    120    121 338.2  -7.2  34002  286.89 0862.47
2015 04 09 13 40 01 .44     -39    111     -9    118    119 340.4  -4.6  34002  286.89 0862.47
2015 04 09 13 40 01 .69     -31     92      0     98     99 341.3  -0.3  34002  286.89 0862.48
2015 04 09 13 40 01 .94     -40     85    -10     95     96 334.6  -6.2  34002  286.89 0862.48
2015 04 09 13 40 02 .19     -29     90    -12     95     96 342.2  -7.2  34004  286.93 0862.48
2015 04 09 13 40 02 .46     -10     96     -9     97     98 353.8  -5.6  34002  286.89 0862.48
2015 04 09 13 40 02 .70     -10    115    -10    116    117 354.7  -5.2  34002  286.91 0862.48
2015 04 09 13 40 02 .95     -13    108     -4    109    110 352.9  -2.2  34006  286.96 0862.48
2015 04 09 13 40 03 .21     -20     93    -12     96     97 347.5  -7.2  34006  286.98 0862.48
2015 04 09 13 40 03 .46      -6     95    -10     96     97 356.4  -6.2  34008  287.00 0862.47
2015 04 09 13 40 03 .71     -11     87    -17     88     90 352.4 -10.9  34010  287.03 0862.47
2015 04 09 13 40 03 .96      -1     83    -13     84     85 359.0  -8.8  34012  287.06 0862.47
2015 04 09 13 40 04 .21       0     86    -19     87     90 359.6 -12.4  34022  287.23 0862.47
2015 04 09 13 40 04 .46       8     78    -27     79     84   6.2 -19.1  34024  287.28 0862.47
2015 04 09 13 40 04 .71      -1     69    -10     70     71 359.1  -8.2  34014  287.10 0862.47
2015 04 09 13 40 04 .96     -22     76      2     80     81 344.0   1.8  34006  286.98 0862.47
2015 04 09 13 40 05 .21     -24     72      8     77     78 341.3   5.9  34006  286.98 0862.47
2015 04 09 13 40 05 .46     -30     77      0     83     84 338.2  -0.3  34012  287.06 0862.47
2015 04 09 13 40 05 .71      -6     81    -18     82     84 355.5 -12.4  34014  287.11 0862.47
2015 04 09 13 40 05 .96      -1     83     -5     84     85 359.0  -3.7  34012  287.08 0862.47
2015 04 09 13 40 06 .21       4     60    -20     61     65   4.4 -18.7  34018  287.18 0862.47
2015 04 09 13 40 06 .46      19     59    -24     63     67  18.5 -25.4  34018  287.18 0862.47
2015 04 09 13 40 06 .71       4     56    -27     57     63   4.5 -31.6  34018  287.16 0862.47
2015 04 09 13 40 06 .97     -32     58    -14     67     69 331.0 -12.4  34014  287.10 0862.47
2015 04 09 13 40 07 .21     -28     50    -20     58     61 330.1 -23.3  34010  287.03 0862.47
2015 04 09 13 40 07 .47     -51     25    -43     57     71 296.2 -46.1  34020  287.20 0862.47
2015 04 09 13 40 07 .72     -41     34    -48     54     72 309.5 -51.3  34020  287.20 0862.47
2015 04 09 13 40 07 .97     -60     33    -45     69     82 298.9 -40.9  34018  287.16 0862.47
2015 04 09 13 40 08 .22     -84     31    -54     90    104 290.4 -38.8  34020  287.21 0862.47
2015 04 09 13 40 08 .47     -79     32    -43     86     96 292.2 -32.6  34022  287.25 0862.47
2015 04 09 13 40 08 .72     -72     61    -30     95     99 310.0 -22.8  34010  287.03 0862.47
2015 04 09 13 40 08 .97     -65     41    -29     78     83 302.4 -25.4  34012  287.08 0862.47
2015 04 09 13 40 09 .23     -65     17    -36     68     76 285.1 -34.7  34014  287.11 0862.47
2015 04 09 13 40 09 .48     -54     18    -27     58     63 288.6 -30.6  34020  287.21 0862.47
2015 04 09 13 40 09 .73     -54     19    -20     58     62 290.0 -19.6  34018  287.18 0862.47
2015 04 09 13 40 09 .98     -47     32    -19     58     61 304.2 -23.8  34020  287.21 0862.47
2015 04 09 13 40 10 .23     -26     12     -5     29     30 295.3 -11.3  34014  287.11 0862.47
2015 04 09 13 40 10 .48      -9     32    -12     34     37 343.1 -19.7  34014  287.11 0862.47
2015 04 09 13 40 10 .73       0     40    -12     41     42   0.0 -20.7  34020  287.20 0862.47
2015 04 09 13 40 10 .99     -14     57      3     59     60 345.7   2.9  34014  287.10 0862.47
2015 04 09 13 40 11 .24     -18     49     20     53     56 340.0  20.0  34050  287.70 0862.47
2015 04 09 13 40 11 .48     -31     36     30     48     56 319.5  35.5  34066  287.98 0862.47
2015 04 09 13 40 11 .74     -30     49     32     58     66 328.4  31.4  34060  287.89 0862.47
2015 04 09 13 40 11 .99     -52     35      6     63     64 304.2   5.9  34068  288.03 0862.47
2015 04 09 13 40 12 .24     -32     59      4     68     69 331.0   3.8  34080  288.23 0862.47
2015 04 09 13 40 12 .49     -33     83     16     90     92 338.2  10.6  34074  288.11 0862.47
2015 04 09 13 40 12 .74     -35     78    -11     86     87 335.9  -7.3  34072  288.09 0862.47
2015 04 09 13 40 12 .99     -50     68      9     85     86 323.5   6.5  34074  288.11 0862.47
2015 04 09 13 40 13 .24     -37     65     14     75     77 330.1  11.1  34080  288.23 0862.47
2015 04 09 13 40 13 .49     -78     73     13    108    109 313.2   6.9  34066  287.98 0862.47
2015 04 09 13 40 13 .75     -47     56     -2     74     75 320.4  -2.2  34064  287.94 0862.47
2015 04 09 13 40 13 .99     -34     41     27     54     60 320.4  28.2  34096  288.48 0862.47
2015 04 09 13 40 14 .24     -26     40     16     48     51 326.6  18.9  34082  288.26 0862.47
2015 04 09 13 40 14 .50     -67     54     94     87    128 308.6  52.2  34058  287.84 0862.47
2015 04 09 13 40 14 .74     -76     62     92     99    135 309.5  47.9  34084  288.30 0862.47
2015 04 09 13 40 14 .99     -46     29     51     55     75 302.4  47.9  34086  288.31 0862.47
2015 04 09 13 40 15 .24     -43     56      3     71     72 322.2   2.8  34086  288.31 0862.47
2015 04 09 13 40 15 .50     -56     90     -4    107    108 327.9  -2.2  34062  287.91 0862.47
2015 04 09 13 40 15 .74     -62    102    -14    120    121 328.8  -6.7  34014  287.10 0862.47
2015 04 09 13 40 16 .00     -97    104    -38    143    149 316.8 -15.0  34000  286.86 0862.47
2015 04 09 13 40 16 .26    -111    117    -58    162    172 316.7 -24.6  34000  286.86 0862.47
2015 04 09 13 40 16 .51    -118    110    -60    162    172 313.1 -25.4  33998  286.83 0862.47
2015 04 09 13 40 16 .76    -115     95    -59    150    161 309.6 -26.9  34002  286.91 0862.47
2015 04 09 13 40 17 .01    -109     85    -65    139    153 307.8 -31.5  34004  286.93 0862.47
2015 04 09 13 40 17 .26     -95     93    -58    134    146 314.4 -29.5  34008  287.01 0862.47
2015 04 09 13 40 17 .51     -94     85    -65    128    143 312.2 -33.6  34006  286.98 0862.47
2015 04 09 13 40 17 .76     -86     97    -61    130    143 318.6 -31.5  34010  287.05 0862.47
2015 04 09 13 40 18 .01     -79    101    -40    129    135 322.2 -22.8  34012  287.06 0862.47
2015 04 09 13 40 18 .26     -86     98    -36    131    136 318.6 -15.5  34012  287.06 0862.47
2015 04 09 13 40 18 .51     -97     89    -41    132    138 312.7 -21.8  34014  287.11 0862.47
2015 04 09 13 40 18 .76     -83    120    -42    147    153 325.3 -16.0  34008  287.01 0862.47
2015 04 09 13 40 19 .01     -83    128    -42    153    159 327.0 -15.5  34012  287.06 0862.47
2015 04 09 13 40 19 .26     -80    123    -46    147    155 327.0 -17.6  34006  286.96 0862.47
2015 04 09 13 40 19 .51     -92    136    -37    165    170 325.7 -12.6  34012  287.06 0862.47
2015 04 09 13 40 19 .77     -92    143    -47    171    178 327.3 -15.4  34014  287.10 0862.47
2015 04 09 13 40 20 .02     -92    120    -42    152    158 322.6 -15.5  34012  287.08 0862.47
2015 04 09 13 40 20 .27    -115     95    -19    150    152 309.6  -7.3  34026  287.30 0862.47
2015 04 09 13 40 20 .52     -99     93    -32    136    140 313.2 -13.3  34016  287.13 0862.48
2015 04 09 13 40 20 .77    -108    122    -39    164    169 318.6 -13.7  34010  287.05 0862.48
2015 04 09 13 40 21 .02     -92    118    -47    150    157 322.2 -22.3  34014  287.10 0862.48
2015 04 09 13 40 21 .27    -103    115    -44    155    162 318.1 -15.8  34012  287.06 0862.48
2015 04 09 13 40 21 .52    -117     91    -43    149    156 307.8 -16.0  34010  287.03 0862.48
2015 04 09 13 40 21 .77    -104     61    -38    121    127 300.7 -17.6  34008  287.00 0862.48
2015 04 09 13 40 22 .02     -92     62    -20    112    114 304.2 -10.3  34050  287.72 0862.48
2015 04 09 13 40 22 .27     -48     48     48     69     84 315.0  38.0  34064  287.96 0862.48
2015 04 09 13 40 22 .52     -72     73     52    103    115 315.5  28.2  34072  288.08 0862.47
2015 04 09 13 40 22 .77    -118     99    -15    155    156 310.0  -5.6  34042  287.57 0862.47
2015 04 09 13 40 23 .02    -104     64    -43    123    130 301.5 -23.8  34006  286.98 0862.47
2015 04 09 13 40 23 .28    -118     57    -47    132    141 295.8 -19.7  34006  286.98 0862.47
2015 04 09 13 40 23 .53    -106     63    -34    124    129 300.6 -15.5  34008  287.01 0862.47
2015 04 09 13 40 23 .78    -113     47    -33    123    128 292.6 -15.4  34006  286.98 0862.47
2015 04 09 13 40 24 .03    -101     47    -31    112    117 295.2 -15.4  34014  287.11 0862.47
2015 04 09 13 40 24 .28     -89     36    -19     97     99 292.2 -11.3  34012  287.06 0862.47
2015 04 09 13 40 24 .54    -102     48    -12    113    114 295.4  -6.2  34018  287.16 0862.47
2015 04 09 13 40 24 .79    -108     48    -19    119    121 294.0  -9.4  34028  287.33 0862.47
2015 04 09 13 40 25 .04     -99     39      3    107    108 291.8   1.8  34056  287.82 0862.47
2015 04 09 13 40 25 .29     -82     49      3     96     97 301.1   2.3  34048  287.67 0862.47
2015 04 09 13 40 25 .54     -75     48     -7     90     91 302.9  -4.6  34046  287.64 0862.47
2015 04 09 13 40 25 .79     -21     38     26     44     51 330.1  34.4  34072  288.08 0862.47
2015 04 09 13 40 26 .04     -50     50     57     72     91 314.9  42.7  34068  288.03 0862.47
2015 04 09 13 40 26 .29     -38     38     48     55     73 314.9  45.8  34078  288.18 0862.47
2015 04 09 13 40 26 .54     -23     68      3     72     73 341.3   2.8  34052  287.74 0862.47
2015 04 09 13 40 26 .79     -57     74    -11     94     95 322.6  -7.2  34032  287.42 0862.47
2015 04 09 13 40 27 .04     -37     74    -21     83     86 333.3 -14.5  34034  287.45 0862.47
2015 04 09 13 40 27 .29     -41     83     -3     93     94 333.3  -2.2  34036  287.47 0862.47
2015 04 09 13 40 27 .54     -45     77    -31     90     96 329.7 -19.1  34030  287.38 0862.47
2015 04 09 13 40 27 .79     -58     56    -23     81     84 314.0 -21.2  34024  287.28 0862.47
2015 04 09 13 40 28 .04     -31     62    -12     70     72 332.8 -10.3  34024  287.27 0862.47
2015 04 09 13 40 28 .29      -1     56     -5     57     58 358.2  -5.2  34028  287.35 0862.47
2015 04 09 13 40 28 .55      -9     65      0     66     67 351.9   0.8  34026  287.32 0862.47
2015 04 09 13 40 28 .80       0     69     -9     70     71   0.0  -7.3  34028  287.33 0862.47
2015 04 09 13 40 29 .05      -3     39    -30     40     50 355.6 -46.1  34042  287.57 0862.47
2015 04 09 13 40 29 .29      25      8    -21     27     34  71.8 -48.1  34024  287.27 0862.47
2015 04 09 13 40 29 .55      25     12     -8     28     30  64.6 -15.5  34024  287.27 0862.47
2015 04 09 13 40 29 .80      41     50      9     65     66  39.6   8.0  34030  287.38 0862.47
2015 04 09 13 40 30 .06      30     65      0     72     73  25.4  -0.3  34024  287.27 0862.47
2015 04 09 13 40 30 .31      33     63    -15     72     74  28.1 -12.4  34022  287.25 0862.47
2015 04 09 13 40 30 .56      49     35    -21     61     65  54.0 -19.6  34028  287.35 0862.46
2015 04 09 13 40 30 .81      10     45      1     47     48  12.5   1.8  34028  287.33 0862.46
2015 04 09 13 40 31 .06       0     34     12     35     38 359.1  19.4  34028  287.33 0862.46
2015 04 09 13 40 31 .31     -20     24     14     32     34 320.4  27.1  34032  287.40 0862.46
2015 04 09 13 40 31 .56     -27      9      3     29     30 288.6   6.9  34032  287.42 0862.46
2015 04 09 13 40 31 .81     -24      5     -6     25     26 283.3 -13.4  34026  287.32 0862.46
2015 04 09 13 40 32 .06     -27     17     -1     32     33 302.4  -3.1  34034  287.43 0862.46
2015 04 09 13 40 32 .31      -8     25     -9     27     28 341.7 -23.6  34046  287.64 0862.46
2015 04 09 13 40 32 .57     -12     27     -7     30     31 336.4 -13.4  34058  287.86 0862.46
2015 04 09 13 40 32 .82     -16     17      0     24     25 316.6  -2.2  34072  288.09 0862.46
2015 04 09 13 40 33 .07     -40     25      3     48     49 302.4   3.8  34092  288.43 0862.46
2015 04 09 13 40 33 .32     -50    -24     18     56     60 244.6  18.4  34098  288.52 0862.46
2015 04 09 13 40 33 .56     -15     -1     43     16     45 265.7  80.2  34128  289.04 0862.46
2015 04 09 13 40 33 .82       0      0     27      1     27 189.7  90.0  34128  289.02 0862.46
2015 04 09 13 40 34 .06     -21      9     42     23     47 293.5  68.8  34104  288.64 0862.46
2015 04 09 13 40 34 .32     -28      0     32     29     43 270.8  52.2  34108  288.69 0862.45
2015 04 09 13 40 34 .56     -13     -4     18     14     22 251.4  56.4  34096  288.48 0862.45
2015 04 09 13 40 34 .82     -28    -13     -1     32     33 244.8  -3.1  34090  288.40 0862.45
2015 04 09 13 40 35 .07      -5     16     21     17     27 341.3  56.4  34094  288.45 0862.45
2015 04 09 13 40 35 .32     -10     30      7     32     33 341.7  13.2  34078  288.18 0862.45
2015 04 09 13 40 35 .57      -6     81     18     82     85 355.5  12.6  34060  287.89 0862.45
2015 04 09 13 40 35 .83      -8    103     35    104    110 355.5  18.9  34088  288.36 0862.45
2015 04 09 13 40 36 .07     -12     70     48     72     86 350.2  36.5  34122  288.92 0862.45
2015 04 09 13 40 36 .32     -29    107     52    111    122 344.8  26.6  34120  288.89 0862.45
2015 04 09 13 40 36 .57     -30    129     57    133    144 346.6  24.6  34116  288.82 0862.45
2015 04 09 13 40 36 .82     -18    108     74    110    132 350.2  37.0  34134  289.14 0862.45
2015 04 09 13 40 37 .09     -30     92     86     97    129 341.7  45.8  34108  288.69 0862.45
2015 04 09 13 40 37 .34     -12    107     88    108    139 353.3  43.7  34144  289.31 0862.45
2015 04 09 13 40 37 .58      -2    136     20    137    139 359.0   8.5  34102  288.58 0862.45
2015 04 09 13 40 37 .84      33     97     46    103    112  18.7  25.7  34118  288.86 0862.45
2015 04 09 13 40 38 .08      71    128     17    147    149  29.0   6.9  34116  288.82 0862.45
2015 04 09 13 40 38 .34      45     97    -26    108    112  24.9 -13.9  34086  288.31 0862.45
2015 04 09 13 40 38 .59      53     97     13    111    112  29.0   7.1  34080  288.23 0862.45
2015 04 09 13 40 38 .85      73    115     35    137    142  32.6  14.7  34126  288.99 0862.46
2015 04 09 13 40 39 .09      26    106     37    110    117  13.8  18.9  34156  289.50 0862.46
2015 04 09 13 40 39 .34       2     95     37     96    102   1.8  22.0  34136  289.18 0862.46
2015 04 09 13 40 39 .59     -18     91     20     93     96 348.4  12.2  34116  288.82 0862.46
2015 04 09 13 40 39 .84     -16    120     22    122    125 352.0  10.6  34120  288.91 0862.46
2015 04 09 13 40 40 .10     -24    139     18    142    144 350.2   7.5  34120  288.91 0862.46
2015 04 09 13 40 40 .34     -26    131     21    134    136 348.5   9.0  34132  289.11 0862.46
2015 04 09 13 40 40 .59     -33    146     32    150    154 347.1  12.2  34132  289.09 0862.46
2015 04 09 13 40 40 .84     -31    176     43    179    185 350.0  13.5  34150  289.41 0862.46
2015 04 09 13 40 41 .09     -29    166     34    169    173 349.8  11.4  34076  288.16 0862.46
2015 04 09 13 40 41 .35     -21    190     37    192    196 353.5  11.1  34098  288.52 0862.46
2015 04 09 13 40 41 .59     -23    155     51    157    166 351.5  17.9  34090  288.38 0862.46
2015 04 09 13 40 41 .85     -14    137     51    138    147 353.8  20.9  34122  288.94 0862.46
2015 04 09 13 40 42 .09      -8    127     46    128    136 356.0  20.4  34076  288.16 0862.46
2015 04 09 13 40 42 .34      -6    130     10    131    132 357.3   4.4  34020  287.20 0862.46
2015 04 09 13 40 42 .60       6    144      7    145    146   2.7   2.9  34006  286.96 0862.46
2015 04 09 13 40 42 .85      35    175      9    179    180  11.6   2.9  34044  287.62 0862.46
2015 04 09 13 40 43 .10      25    147     -3    150    151   9.8  -1.2  34044  287.60 0862.46
2015 04 09 13 40 43 .35       6    135      0    136    137   2.7   0.2  34064  287.94 0862.46
2015 04 09 13 40 43 .60       1    110      5    111    112   0.9   2.9  34050  287.72 0862.46
2015 04 09 13 40 43 .86       6    136     15    137    138   2.7   6.5  34072  288.09 0862.46
2015 04 09 13 40 44 .11       0    119     25    120    123   0.0  12.2  34098  288.52 0862.46
2015 04 09 13 40 44 .37      -3    123     25    124    127 358.2  11.6  34096  288.48 0862.46
2015 04 09 13 40 44 .62     -18    126     55    128    139 351.5  24.6  34142  289.28 0862.46
2015 04 09 13 40 44 .86     -21    135     62    137    150 351.1  26.2  34122  288.92 0862.46
2015 04 09 13 40 45 .11     -17    130     57    132    143 352.4  24.6  34088  288.35 0862.46
2015 04 09 13 40 45 .36       7    140     33    141    145   3.1  13.2  34046  287.65 0862.46
2015 04 09 13 40 45 .61       0    106     29    107    111   0.0  15.3  34056  287.82 0862.46
2015 04 09 13 40 45 .87      24    140     39    143    149   9.8  15.2  34114  288.80 0862.46
2015 04 09 13 40 46 .12      32    134     50    138    146  13.4  20.4  34222  290.62 0862.46
2015 04 09 13 40 46 .37      47    143     35    151    156  18.3  13.2  34206  290.36 0862.46
2015 04 09 13 40 46 .62      36    134     17    139    141  15.1   7.1  34150  289.41 0862.46
2015 04 09 13 40 46 .87      35    130     26    135    138  15.1  11.0  34118  288.87 0862.46
2015 04 09 13 40 47 .12      48    155     21    163    165  17.4   7.5  34104  288.62 0862.47
2015 04 09 13 40 47 .37      42    153      2    159    160  15.6   1.0  34100  288.55 0862.47
2015 04 09 13 40 47 .62      35    117     10    123    124  16.9   4.9  34110  288.74 0862.47
2015 04 09 13 40 47 .88      32    109     84    114    141  16.5  39.7  34266  291.37 0862.47
2015 04 09 13 40 48 .12      23    106     78    109    134  12.5  39.1  34278  291.59 0862.47
2015 04 09 13 40 48 .37      38    114     57    121    133  18.3  27.2  34220  290.60 0862.47
2015 04 09 13 40 48 .62      44    109     50    118    128  22.3  24.6  34258  291.23 0862.47
2015 04 09 13 40 48 .87      14    136     43    137    144   6.3  17.4  34168  289.70 0862.47
2015 04 09 13 40 49 .13      28    122     39    126    132  12.9  17.3  34100  288.55 0862.47
2015 04 09 13 40 49 .37      49    117     47    127    135  22.7  20.9  34204  290.31 0862.47
2015 04 09 13 40 49 .62      16    147     46    148    156   6.2  17.3  34160  289.58 0862.47
2015 04 09 13 40 49 .87      24    195     72    197    209   7.1  20.9  34194  290.16 0862.47
2015 04 09 13 40 50 .12      56    165     75    175    190  18.9  24.6  34214  290.50 0862.47
2015 04 09 13 40 50 .38      67    182     60    195    205  20.3  17.3  34014  287.10 0862.47
2015 04 09 13 40 50 .63      62    166     54    178    187  20.5  17.1  34126  288.99 0862.47
2015 04 09 13 40 50 .87      70    160     80    175    192  23.6  26.4  34164  289.63 0862.47
2015 04 09 13 40 51 .13      34    181     13    185    186  10.9   4.2  34010  287.05 0862.47
2015 04 09 13 40 51 .38      26    185     -2    187    188   8.2  -0.7  33994  286.78 0862.47
2015 04 09 13 40 51 .64      33    178     -7    182    183  10.7  -2.2  33992  286.74 0862.47
2015 04 09 13 40 51 .89      19    166    -14    168    169   6.7  -4.9  33994  286.78 0862.47
2015 04 09 13 40 52 .14      46    156     -3    163    164  16.5  -1.3  33992  286.74 0862.47
2015 04 09 13 40 52 .40      52    162     11    171    172  18.0   3.8  34052  287.76 0862.47
2015 04 09 13 40 52 .65      31    147     31    151    155  12.0  11.6  34132  289.11 0862.47
2015 04 09 13 40 52 .89      35    150     51    155    164  13.4  18.1  34084  288.28 0862.47
2015 04 09 13 40 53 .15      40    143     29    149    152  15.6  11.1  34048  287.69 0862.47
2015 04 09 13 40 53 .39      36    154    -25    159    161  13.4  -9.0  34052  287.76 0862.46
2015 04 09 13 40 53 .64      49    158    -43    166    172  17.4 -14.5  33996  286.79 0862.46
2015 04 09 13 40 53 .89      77    163    -39    181    186  25.5 -12.2  33994  286.78 0862.46
2015 04 09 13 40 54 .14      63    144    -32    158    162  23.7 -11.6  33996  286.81 0862.46
2015 04 09 13 40 54 .39      44    122    -41    130    137  20.1 -17.6  33994  286.78 0862.46
2015 04 09 13 40 54 .64      41    113    -39    121    128  20.0 -18.1  33996  286.79 0862.46
2015 04 09 13 40 54 .89      32    115    -33    120    125  15.6 -15.5  33998  286.84 0862.46
2015 04 09 13 40 55 .14      30    141    -34    145    150  12.0 -13.4  34002  286.89 0862.46
2015 04 09 13 40 55 .40      42    152    -10    158    159  15.6  -3.9  34000  286.86 0862.46
2015 04 09 13 40 55 .65      39    151      4    157    158  14.7   1.8  33996  286.81 0862.46
2015 04 09 13 40 55 .90      44    171     16    177    178  14.5   5.4  34002  286.91 0862.46
2015 04 09 13 40 56 .15      67    143     24    159    161  25.3   8.8  34000  286.88 0862.46
2015 04 09 13 40 56 .40      15    142     33    143    147   6.2  13.1  34006  286.96 0862.46
2015 04 09 13 40 56 .65      -7    162     22    163    165 357.3   8.0  34030  287.38 0862.46
2015 04 09 13 40 56 .90      -7    152     31    153    157 357.3  11.4  34022  287.25 0862.45
2015 04 09 13 40 57 .15       5    133     24    134    137   2.2  10.1  34012  287.06 0862.45
2015 04 09 13 40 57 .40      27    133      0    136    137  11.6  -0.3  34030  287.37 0862.45
2015 04 09 13 40 57 .65      19    124     15    126    127   8.9   7.1  34028  287.35 0862.45
2015 04 09 13 40 57 .91      20    144     34    146    150   8.1  13.1  34028  287.33 0862.45
2015 04 09 13 40 58 .16      19    141     22    143    145   8.0   9.0  34012  287.06 0862.45
2015 04 09 13 40 58 .41      39    144     19    150    152  15.2   7.5  33994  286.78 0862.45
2015 04 09 13 40 58 .67      49    140     29    149    152  19.6  11.1  34020  287.20 0862.45
2015 04 09 13 40 58 .91      49    127     35    137    142  21.4  14.3  34046  287.65 0862.45
2015 04 09 13 40 59 .17      50    135     49    145    154  20.5  18.9  34068  288.03 0862.45
2015 04 09 13 40 59 .42      70    150     31    166    170  25.3  10.8  34054  287.77 0862.45
2015 04 09 13 40 59 .67      43    139     61    146    158  17.4  23.8  34128  289.04 0862.45
2015 04 09 13 40 59 .92      42    158     73    164    179  15.1  25.7  34086  288.31 0862.45
2015 04 09 13 41 00 .17      91    163     42    187    192  29.2  12.9  34128  289.04 0862.45
2015 04 09 13 41 00 .42      72    164     10    180    181  23.8   3.3  34006  286.96 0862.45
2015 04 09 13 41 00 .67      74    164      9    181    182  24.3   3.1  33990  286.69 0862.45
2015 04 09 13 41 00 .92      69    173     -2    187    188  21.9  -0.7  33994  286.78 0862.45
2015 04 09 13 41 01 .17      69    173     -2    187    188  21.9  -0.7  33994  286.78 0862.45
2015 04 09 13 41 01 .42      68    164     -6    178    179  22.7  -2.2  33996  286.79 0862.46
2015 04 09 13 41 01 .67      58    163    -16    174    175  19.8  -5.4  33996  286.79 0862.46
2015 04 09 13 41 01 .92      55    155    -14    165    166  19.6  -4.9  33992  286.73 0862.46
2015 04 09 13 41 02 .17      50    170    -20    178    180  16.5  -6.5  33988  286.67 0862.46
2015 04 09 13 41 02 .42      52    165    -23    174    176  17.6  -7.7  33984  286.61 0862.46
2015 04 09 13 41 02 .67      48    174    -31    181    184  15.6  -9.8  33986  286.62 0862.46
2015 04 09 13 41 02 .92      44    167    -33    173    177  15.1 -10.9  33984  286.59 0862.46
2015 04 09 13 41 03 .17      38    174    -32    179    182  12.5 -10.3  33980  286.54 0862.46
2015 04 09 13 41 03 .42      51    181    -32    189    192  15.8  -9.6  33980  286.54 0862.45
2015 04 09 13 41 03 .67      43    177    -11    183    184  13.8  -3.7  33984  286.59 0862.45
2015 04 09 13 41 03 .92      45    163     -7    170    171  15.6  -2.6  33984  286.61 0862.45
2015 04 09 13 41 04 .18      31    165      5    169    170  10.9   1.8  33990  286.71 0862.45
2015 04 09 13 41 04 .43      35    156      9    161    162  12.9   3.3  34010  287.05 0862.45
2015 04 09 13 41 04 .67      18    153     -3    155    156   6.7  -1.3  33990  286.69 0862.45
2015 04 09 13 41 04 .94      21    152     -3    154    155   8.1  -1.3  33994  286.76 0862.45
2015 04 09 13 41 05 .19      25    150    -13    153    154   9.8  -5.2  33994  286.78 0862.46
2015 04 09 13 41 05 .44      15    131     -5    132    133   6.7  -2.2  33994  286.78 0862.46
2015 04 09 13 41 05 .69      20    130      1    132    133   8.9   0.7  33992  286.73 0862.46
2015 04 09 13 41 05 .94      26    123      0    126    127  12.0   0.2  33988  286.67 0862.46
2015 04 09 13 41 06 .19      49    132     -4    141    142  20.5  -1.8  33992  286.73 0862.46
2015 04 09 13 41 06 .44      47    120     21    129    131  21.4   9.5  34060  287.89 0862.46
2015 04 09 13 41 06 .70      59    130     27    143    146  24.5  11.0  34044  287.62 0862.46
2015 04 09 13 41 06 .95      58    123     37    137    143  25.4  15.2  34056  287.81 0862.46
2015 04 09 13 41 07 .19      42    105     41    114    121  21.9  20.9  34088  288.36 0862.46
2015 04 09 13 41 07 .45      70     85     33    111    116  39.7  16.8  34064  287.94 0862.46
2015 04 09 13 41 07 .69      36     97     51    104    115  20.5  27.3  34054  287.77 0862.46
2015 04 09 13 41 07 .95      31     92     50     98    110  18.7  28.7  34060  287.89 0862.46
2015 04 09 13 41 08 .20       8     69     54     70     88   7.1  42.2  34060  287.89 0862.46
2015 04 09 13 41 08 .45      -1     40     54     41     67 357.4  59.4  34094  288.47 0862.46
2015 04 09 13 41 08 .69      19     14     51     24     56  54.0  73.1  34052  287.76 0862.46
2015 04 09 13 41 08 .95       2     45     57     46     73   3.6  56.4  34056  287.81 0862.46
2015 04 09 13 41 09 .20       0     59     58     60     83   0.9  50.0  34044  287.62 0862.46
2015 04 09 13 41 09 .45      12     69     65     71     96   9.8  47.9  34052  287.76 0862.46
2015 04 09 13 41 09 .70      13     76     65     78    101   9.8  43.8  34056  287.81 0862.46
2015 04 09 13 41 09 .95      16     76     50     78     92  12.5  35.6  34052  287.74 0862.46
2015 04 09 13 41 10 .20      23     88     43     91    100  14.7  27.2  34066  287.98 0862.46
2015 04 09 13 41 10 .45      10    109     44    110    118   5.3  23.0  34080  288.23 0862.46
2015 04 09 13 41 10 .70      19     96     34     99    105  11.6  19.4  34064  287.94 0862.46
2015 04 09 13 41 10 .96      28     75     38     81     89  20.9  27.1  34076  288.14 0862.46
2015 04 09 13 41 11 .20      39     71     43     82     92  28.9  29.3  34074  288.13 0862.46
2015 04 09 13 41 11 .45      22     84     54     87    102  14.7  35.0  34102  288.58 0862.46
2015 04 09 13 41 11 .70      43     80     41     92    100  28.5  25.7  34092  288.43 0862.46
2015 04 09 13 41 11 .96      42     88     41     98    106  25.9  23.6  34074  288.11 0862.46
2015 04 09 13 41 12 .21      24    109     39    112    118  12.9  20.0  34096  288.50 0862.46
2015 04 09 13 41 12 .46      15    153     26    154    157   5.8   9.9  34042  287.57 0862.46
2015 04 09 13 41 12 .71      47    140     12    148    149  18.7   4.9  34002  286.89 0862.46
2015 04 09 13 41 12 .97      54    132      7    143    144  22.3   2.8  34008  287.01 0862.46
2015 04 09 13 41 13 .22      54    130     -7    142    143  22.7  -3.1  34012  287.06 0862.46
2015 04 09 13 41 13 .47      55    100    -24    115    118  29.0 -11.9  34018  287.16 0862.46
2015 04 09 13 41 13 .72      40     74    -34     85     91  28.1 -26.9  34034  287.45 0862.46
2015 04 09 13 41 13 .96      48     79    -34     93     99  31.6 -24.8  34032  287.40 0862.46
2015 04 09 13 41 14 .22      68     91    -34    114    118  37.0 -21.7  34020  287.20 0862.46
2015 04 09 13 41 14 .47      64     95    -34    115    121  34.3 -16.6  34034  287.43 0862.46
2015 04 09 13 41 14 .72      44     79    -26     91     94  29.0 -21.2  34026  287.30 0862.46
2015 04 09 13 41 14 .97      35     74     -3     82     83  25.4  -2.2  34028  287.35 0862.46
2015 04 09 13 41 15 .22      29     87     13     92     94  18.7   8.5  34038  287.52 0862.46
2015 04 09 13 41 15 .48      33    109     40    114    121  16.9  19.4  34038  287.52 0862.46
2015 04 09 13 41 15 .72      44    109     22    118    121  22.3  10.6  34010  287.03 0862.46
2015 04 09 13 41 15 .97      72    131     29    150    153  29.0  11.0  34040  287.55 0862.46
2015 04 09 13 41 16 .23      71    112     32    133    137  32.5  13.7  34060  287.89 0862.46
2015 04 09 13 41 16 .47      47    140     57    148    158  18.7  22.0  34062  287.92 0862.46
2015 04 09 13 41 16 .72      19    168     47    170    177   6.7  15.6  34048  287.69 0862.46
2015 04 09 13 41 16 .97      60    182     50    192    199  18.5  14.7  34052  287.76 0862.46
2015 04 09 13 41 17 .22      76    182     38    198    202  22.7  11.0  33984  286.59 0862.46
2015 04 09 13 41 17 .48      77    185     12    201    202  22.7   3.6  33978  286.51 0862.46
2015 04 09 13 41 17 .72      73    189     -4    203    204  21.2  -1.3  33978  286.49 0862.46
2015 04 09 13 41 17 .98      82    179     17    198    199  24.7   5.2  33978  286.51 0862.46
2015 04 09 13 41 18 .23      72    181      9    196    197  21.9   2.9  33980  286.54 0862.46
2015 04 09 13 41 18 .48      74    189      2    204    205  21.4   0.8  33982  286.56 0862.46
2015 04 09 13 41 18 .74      80    182     15    199    200  23.8   4.6  33976  286.47 0862.46
2015 04 09 13 41 18 .99      82    195     18    212    213  22.9   4.9  33976  286.46 0862.46
2015 04 09 13 41 19 .24      71    184      8    198    199  21.2   2.3  33976  286.46 0862.46
2015 04 09 13 41 19 .49      64    187     38    198    202  18.9  11.1  33976  286.46 0862.46
2015 04 09 13 41 19 .74      64    193     -4    204    205  18.3  -1.2  33980  286.52 0862.46
2015 04 09 13 41 19 .99      53    192     -9    200    201  15.4  -2.6  33984  286.61 0862.46
2015 04 09 13 41 20 .24      42    203    -13    208    209  11.8  -3.7  33980  286.54 0862.46
2015 04 09 13 41 20 .49      53    192    -10    200    201  15.4  -3.1  33978  286.51 0862.46
2015 04 09 13 41 20 .74      36    182    -10    186    187  11.3  -3.2  33976  286.47 0862.46
2015 04 09 13 41 20 .99      41    189      5    194    195  12.3   1.6  33980  286.54 0862.46
2015 04 09 13 41 21 .25      40    197     -7    202    203  11.6  -2.2  33976  286.47 0862.46
2015 04 09 13 41 21 .50      31    185     -9    188    189   9.6  -2.8  33984  286.61 0862.46
2015 04 09 13 41 21 .74      36    207     -8    211    212  10.0  -2.2  33972  286.41 0862.46
2015 04 09 13 41 21 .99      31    211      2    214    215   8.5   0.7  33994  286.78 0862.46
2015 04 09 13 41 22 .25      31    219    -12    222    223   8.2  -3.1  33976  286.46 0862.47
2015 04 09 13 41 22 .50      35    208    -13    212    213   9.7  -3.7  33976  286.47 0862.47
2015 04 09 13 41 22 .75      27    192    -22    194    196   8.0  -6.7  33984  286.59 0862.47
2015 04 09 13 41 23 .00      34    183    -29    187    190  10.7  -8.8  33966  286.29 0862.47
2015 04 09 13 41 23 .25      34    183    -29    187    190  10.7  -8.8  33966  286.29 0862.47
2015 04 09 13 41 23 .50      42    179    -34    185    189  13.4 -10.5  33966  286.29 0862.47
2015 04 09 13 41 23 .75      44    170    -31    176    179  14.7 -10.3  33964  286.27 0862.47
2015 04 09 13 41 24 .00      37    167    -31    172    175  12.7 -10.3  33964  286.27 0862.47
2015 04 09 13 41 24 .25      33    164    -44    168    174  11.3 -14.7  33966  286.30 0862.47
2015 04 09 13 41 24 .50      25    162    -37    165    170   8.9 -12.6  33968  286.32 0862.47
2015 04 09 13 41 24 .75      34    151    -41    155    161  12.9 -15.0  33964  286.27 0862.47
2015 04 09 13 41 25 .00      29    149    -40    152    158  11.1 -15.0  33964  286.25 0862.47
2015 04 09 13 41 25 .25      29    149    -40    152    158  11.1 -15.0  33964  286.25 0862.47
2015 04 09 13 41 25 .50      31    151    -46    155    162  11.6 -16.8  33968  286.32 0862.47
2015 04 09 13 41 25 .76      21    155    -41    157    163   8.0 -14.7  33968  286.32 0862.47
2015 04 09 13 41 26 .01      20    138    -39    140    146   8.5 -15.5  33968  286.32 0862.47
2015 04 09 13 41 26 .27      24    140    -45    143    151   9.7 -17.6  33974  286.42 0862.47
2015 04 09 13 41 26 .51      21    139    -39    141    147   8.9 -15.5  33986  286.64 0862.47
2015 04 09 13 41 26 .77      35    143    -40    148    154  13.8 -15.2  33968  286.32 0862.47
2015 04 09 13 41 27 .01      32    139    -37    143    148  13.3 -14.5  33968  286.32 0862.47
2015 04 09 13 41 27 .27      20    138    -39    140    146   8.5 -15.5  33968  286.32 0862.47
2015 04 09 13 41 27 .52      27    134    -32    137    141  11.6 -13.3  33970  286.35 0862.47
2015 04 09 13 41 27 .77      25    127    -36    130    135  11.1 -15.5  33968  286.32 0862.47
2015 04 09 13 41 28 .02      25    127    -36    130    135  11.1 -15.5  33968  286.32 0862.47
2015 04 09 13 41 28 .27      24    117    -29    120    124  11.6 -13.9  33970  286.37 0862.47
2015 04 09 13 41 28 .52      22    106    -30    109    114  12.0 -15.4  33974  286.42 0862.47
2015 04 09 13 41 28 .78      19    118    -28    120    124   9.3 -13.3  34006  286.98 0862.47
2015 04 09 13 41 29 .02      19    121    -17    123    125   8.9  -8.2  33992  286.74 0862.47
2015 04 09 13 41 29 .27      31    109    -36    114    120  16.0 -17.6  33988  286.66 0862.47
2015 04 09 13 41 29 .52      51     98    -32    111    115  27.6 -20.7  33976  286.47 0862.46
2015 04 09 13 41 29 .77      62     87    -16    108    110  35.6  -8.8  33972  286.41 0862.46
2015 04 09 13 41 30 .03      37    103     -1    110    111  20.0  -0.7  33974  286.42 0862.46
2015 04 09 13 41 30 .27      55    100    -17    115    117  29.0  -8.8  33976  286.46 0862.46
2015 04 09 13 41 30 .52      40     90      1     99    100  24.1   0.8  33976  286.46 0862.46
2015 04 09 13 41 30 .78      15     79    -29     81     87  11.1 -19.7  33976  286.47 0862.46
2015 04 09 13 41 31 .03      10     64    -36     65     74   8.9 -35.8  33976  286.47 0862.46
2015 04 09 13 41 31 .28      31     65    -43     73     84  25.4 -38.4  33990  286.71 0862.46
2015 04 09 13 41 31 .53      41     90    -23     99    102  24.5 -13.4  33992  286.74 0862.46
2015 04 09 13 41 31 .78      47    100    -18    111    113  25.3  -9.3  33992  286.74 0862.46
2015 04 09 13 41 32 .03      45     95    -21    106    109  25.3 -11.5  33994  286.78 0862.46
2015 04 09 13 41 32 .28      82    109    -17    137    139  37.0  -7.3  33990  286.71 0862.46
2015 04 09 13 41 32 .53      87     91    -21    127    129  43.7  -9.4  33996  286.81 0862.46
2015 04 09 13 41 32 .79      83     95    -19    127    129  41.0  -8.8  34002  286.89 0862.46
2015 04 09 13 41 33 .04      67     99    -10    120    121  34.3  -5.2  34000  286.88 0862.46
2015 04 09 13 41 33 .29      59    107    -27    123    126  28.9 -12.4  33988  286.67 0862.46
2015 04 09 13 41 33 .54      68    107    -13    127    128  32.5  -6.2  33998  286.83 0862.46
2015 04 09 13 41 33 .79      67    112    -19    131    133  30.8  -8.2  33986  286.64 0862.46
2015 04 09 13 41 34 .05      60    117    -19    132    134  27.2  -8.2  34000  286.86 0862.46
2015 04 09 13 41 34 .29      43    106    -14    115    116  22.3  -7.3  34008  287.01 0862.46
2015 04 09 13 41 34 .54      32     86    -11     92     93  20.5  -7.3  34004  286.93 0862.46
2015 04 09 13 41 34 .79      37    103     -7    110    111  20.0  -3.7  34006  286.98 0862.46
2015 04 09 13 41 35 .04      32     84    -19     91     93  20.9 -11.9  33990  286.69 0862.46
2015 04 09 13 41 35 .30      31     94    -29     99    104  18.3 -16.6  33980  286.54 0862.46
2015 04 09 13 41 35 .55      23     90    -29     94     99  14.7 -17.6  33980  286.52 0862.46
2015 04 09 13 41 35 .80      48     88    -36    101    108  28.9 -19.7  33982  286.56 0862.46
2015 04 09 13 41 36 .05      43    104    -40    113    121  22.7 -19.7  33984  286.61 0862.46
2015 04 09 13 41 36 .30      32     95    -28    101    104  18.7 -20.2  33982  286.57 0862.46
2015 04 09 13 41 36 .55      36     83    -32     91     96  23.6 -23.3  33984  286.59 0862.46
2015 04 09 13 41 36 .80      23     71    -26     75     80  18.3 -19.1  33982  286.56 0862.46
2015 04 09 13 41 37 .05      47     50    -23     69     72  43.2 -23.6  33982  286.57 0862.46
2015 04 09 13 41 37 .30      50     47    -29     69     74  46.9 -28.5  33982  286.56 0862.46
2015 04 09 13 41 37 .55      34     37    -28     51     58  43.2 -35.8  33990  286.69 0862.46
2015 04 09 13 41 37 .80      30     42    -56     52     76  36.1 -56.5  33994  286.78 0862.46
2015 04 09 13 41 38 .05      24     54    -23     60     64  23.6 -25.4  33990  286.69 0862.46
2015 04 09 13 41 38 .30      42     53    -16     68     70  38.7 -13.4  33984  286.61 0862.46
2015 04 09 13 41 38 .55      44     48      0     66     67  42.3   0.8  33980  286.52 0862.46
2015 04 09 13 41 38 .80      50     53    -13     74     76  43.3 -10.3  33980  286.54 0862.46
2015 04 09 13 41 39 .05      63     40     -9     75     76  57.5  -7.2  33980  286.54 0862.46
2015 04 09 13 41 39 .30      55     35     -8     66     67  57.5  -7.2  33980  286.54 0862.46
2015 04 09 13 41 39 .55      63     35    -10     73     74  61.1  -8.2  33978  286.49 0862.46
2015 04 09 13 41 39 .82      53     29    -21     61     65  61.2 -19.7  33980  286.54 0862.46
2015 04 09 13 41 40 .07      57     27    -17     64     67  64.6 -15.5  33978  286.49 0862.46
2015 04 09 13 41 40 .32      68     32    -21     76     79  64.8 -15.5  33978  286.51 0862.46
2015 04 09 13 41 40 .57      73     24    -15     77     79  71.8 -11.3  33982  286.56 0862.46
2015 04 09 13 41 40 .82      73     39    -16     83     85  61.6 -10.9  33988  286.66 0862.46
2015 04 09 13 41 41 .07      72     36     -3     81     82  63.4  -2.2  33990  286.69 0862.46
2015 04 09 13 41 41 .32      59     46     -4     75     76  52.2  -3.1  33990  286.69 0862.46
2015 04 09 13 41 41 .57      66     49      2     83     84  53.6   1.8  33992  286.73 0862.46
2015 04 09 13 41 41 .82      49     59      3     77     78  39.7   2.9  33990  286.69 0862.46
2015 04 09 13 41 42 .07      58     49     24     77     81  49.6  17.9  33992  286.73 0862.46
2015 04 09 13 41 42 .32      52     40     19     66     69  52.2  16.3  33992  286.73 0862.46
2015 04 09 13 41 42 .57      50     47     13     69     71  46.9  11.1  33990  286.69 0862.46
2015 04 09 13 41 42 .82      53     49     10     73     74  46.8   8.0  33986  286.64 0862.46
2015 04 09 13 41 43 .07      61     17      4     64     65  74.1   3.8  33986  286.64 0862.46
2015 04 09 13 41 43 .32      50     16    -18     53     57  71.6 -18.7  33986  286.62 0862.46
2015 04 09 13 41 43 .57      41     14    -19     44     47  71.4 -28.5  33986  286.64 0862.46
2015 04 09 13 41 43 .82      42     26    -13     50     52  58.5 -15.4  33990  286.69 0862.46
2015 04 09 13 41 44 .07      37     21    -14     43     46  60.2 -18.7  33990  286.71 0862.46
2015 04 09 13 41 44 .33      34     21    -13     41     44  58.5 -17.6  33990  286.69 0862.46
2015 04 09 13 41 44 .58      48      9     -1     49     50  78.5  -2.2  33988  286.67 0862.46
2015 04 09 13 41 44 .83      51     10    -10     53     55  78.6 -11.3  33984  286.61 0862.46
2015 04 09 13 41 45 .08      59     13     -3     61     62  77.6  -3.1  33986  286.64 0862.46
2015 04 09 13 41 45 .33      54     20    -16     58     61  69.2 -15.5  33990  286.71 0862.46
2015 04 09 13 41 45 .58      54     20    -16     58     61  69.2 -15.5  34000  286.88 0862.46
2015 04 09 13 41 45 .83      45     24     -6     52     53  62.0  -7.3  34002  286.91 0862.46
2015 04 09 13 41 46 .08      51     17     -2     54     55  71.6  -2.2  34002  286.91 0862.46
2015 04 09 13 41 46 .33      51     17     -2     54     55  71.6  -2.2  34002  286.91 0862.46
2015 04 09 13 41 46 .59      39     25     -2     47     48  57.5  -3.1  34002  286.91 0862.46
2015 04 09 13 41 46 .84      36     23     -9     43     45  57.6 -12.4  34006  286.98 0862.46
2015 04 09 13 41 47 .09      40     48    -10     63     64  39.6  -9.3  34010  287.03 0862.46
2015 04 09 13 41 47 .34      34     49     -8     60     61  35.2  -8.2  34002  286.89 0862.46
2015 04 09 13 41 47 .59      40     39     -2     57     58  45.9  -2.2  34006  286.96 0862.45
2015 04 09 13 41 47 .84      26     59     -3     65     66  23.6  -3.1  34002  286.89 0862.45
2015 04 09 13 41 48 .10      27     69    -15     75     77  21.8 -11.9  34016  287.15 0862.45
2015 04 09 13 41 48 .34      31     77    -11     84     85  22.3  -7.7  34016  287.13 0862.45
2015 04 09 13 41 48 .60      52     86    -12    101    102  31.6  -7.3  34028  287.33 0862.45
2015 04 09 13 41 48 .85      55     90     -4    106    107  31.6  -2.2  34034  287.43 0862.45
2015 04 09 13 41 49 .10      51     79     15     95     97  33.0   9.5  34024  287.27 0862.45
2015 04 09 13 41 49 .35      34     71     10     79     80  25.5   7.5  34024  287.28 0862.45
2015 04 09 13 41 49 .60       6     90     -3     91     92   4.0  -2.2  34052  287.76 0862.45
2015 04 09 13 41 49 .85       0     91    -14     92     94 359.6  -8.8  34044  287.62 0862.45
2015 04 09 13 41 50 .10      29     93     -9     98     99  17.4  -5.6  34044  287.60 0862.45
2015 04 09 13 41 50 .35      23     70     14     74     76  18.3  11.1  34036  287.49 0862.45
2015 04 09 13 41 50 .60      14     62      5     64     65  13.4   4.9  34040  287.54 0862.45
2015 04 09 13 41 50 .85      17     66     13     69     71  15.1  11.1  34038  287.50 0862.45
2015 04 09 13 41 51 .10      23     70     26     74     79  18.3  19.4  34038  287.52 0862.45
2015 04 09 13 41 51 .35      18     55     25     58     63  18.3  24.1  34034  287.43 0862.45
2015 04 09 13 41 51 .60      50     50     24     72     76  45.0  18.4  34034  287.43 0862.45
2015 04 09 13 41 51 .86      57     71     21     92     95  38.7  13.2  34036  287.47 0862.45
2015 04 09 13 41 52 .10      96     61     26    114    118  57.5  13.2  34038  287.52 0862.45
2015 04 09 13 41 52 .36      88     62      8    108    109  54.9   4.4  34036  287.49 0862.45
2015 04 09 13 41 52 .60      80     57     10     99    100  54.5   5.9  34042  287.59 0862.45
2015 04 09 13 41 52 .86      75     42     33     87     93  60.7  21.5  34042  287.59 0862.45
2015 04 09 13 41 53 .11      85     37     23     93     96  66.5  14.3  34046  287.64 0862.45
2015 04 09 13 41 53 .36      75     41     19     86     89  61.1  12.6  34050  287.70 0862.45
2015 04 09 13 41 53 .62      69     83      8    109    110  39.6   4.4  34064  287.96 0862.45
2015 04 09 13 41 53 .87      62     71      2     95     96  41.0   1.2  34060  287.89 0862.44
2015 04 09 13 41 54 .12      64     88      5    109    110  36.0   2.9  34040  287.55 0862.44
2015 04 09 13 41 54 .37      84     61    -32    105    109  54.0 -22.3  34028  287.33 0862.44
2015 04 09 13 41 54 .62      67     67    -23     96     99  45.0 -13.9  34028  287.33 0862.44
2015 04 09 13 41 54 .87      72     58    -13     93     94  50.9  -8.2  34036  287.49 0862.44
2015 04 09 13 41 55 .12      59     59     -6     84     85  45.0  -4.6  34044  287.62 0862.44
2015 04 09 13 41 55 .37      48     78     -3     92     93  31.6  -2.2  34048  287.69 0862.44
2015 04 09 13 41 55 .62      66     87     -7    110    111  37.0  -3.7  34044  287.62 0862.44
2015 04 09 13 41 55 .87      84     92      7    125    126  42.3   3.3  34044  287.60 0862.44
2015 04 09 13 41 56 .12      74    100     -2    125    126  36.5  -1.2  34046  287.65 0862.44
2015 04 09 13 41 56 .37      47    101    -14    112    113  24.9  -7.2  34042  287.57 0862.44
2015 04 09 13 41 56 .63      46     98     -2    109    110  25.3  -1.2  34046  287.65 0862.45
2015 04 09 13 41 56 .88      51     79     15     95     97  33.0   9.5  34056  287.81 0862.45
2015 04 09 13 41 57 .12      48     75      4     90     91  33.0   2.9  34066  287.98 0862.45
2015 04 09 13 41 57 .37      58     58      0     83     84  45.1  -0.3  34062  287.91 0862.45
2015 04 09 13 41 57 .63      30     75      0     81     82  21.9  -0.3  34078  288.18 0862.45
2015 04 09 13 41 57 .87      43     65     20     79     82  33.4  14.7  34078  288.18 0862.45
2015 04 09 13 41 58 .13      31     65      4     73     74  25.3   3.8  34066  287.99 0862.45
2015 04 09 13 41 58 .38      42     55      4     70     71  37.8   3.8  34078  288.18 0862.45
2015 04 09 13 41 58 .63      42     60     20     74     77  35.2  15.2  34108  288.69 0862.45
2015 04 09 13 41 58 .88      50     49     13     71     73  45.9  11.0  34096  288.48 0862.45
2015 04 09 13 41 59 .14      44     50      8     67     68  41.4   6.9  34092  288.43 0862.45
2015 04 09 13 41 59 .38      40     74      1     85     86  28.1   1.2  34098  288.53 0862.45
2015 04 09 13 41 59 .63      40     84      2     94     95  25.5   1.8  34110  288.74 0862.45
2015 04 09 13 41 59 .88      56     75      8     94     95  37.0   5.4  34116  288.82 0862.45
2015 04 09 13 42 00 .13      48     95     -4    107    108  26.7  -2.2  34066  287.98 0862.45
2015 04 09 13 42 00 .39      37     94    -28    102    106  21.9 -15.4  34064  287.94 0862.45
2015 04 09 13 42 00 .65      29    145      2    148    149  11.5   0.8  34058  287.86 0862.45
2015 04 09 13 42 00 .90      -9    147     28    148    151 356.4  11.0  34066  287.98 0862.45
2015 04 09 13 42 01 .15     -24    166     19    168    170 351.8   6.5  34120  288.91 0862.45
2015 04 09 13 42 01 .40     -14    134     47    135    144 353.8  19.2  34132  289.11 0862.45
2015 04 09 13 42 01 .64      -2    136     37    137    142 359.1  15.2  34102  288.58 0862.45
2015 04 09 13 42 01 .89      11    140     59    141    152   4.9  23.6  34098  288.53 0862.45
2015 04 09 13 42 02 .15       7    142     68    143    158   3.1  27.0  34102  288.58 0862.45
2015 04 09 13 42 02 .40       8    133     82    134    157   3.6  34.4  34124  288.96 0862.45
2015 04 09 13 42 02 .65      -4    106     73    107    129 357.8  37.6  34132  289.11 0862.45
2015 04 09 13 42 02 .90     -20     98     75    101    125 348.4  40.1  34164  289.63 0862.45
2015 04 09 13 42 03 .16      -2    142     60    143    155 359.0  23.6  34170  289.75 0862.45
2015 04 09 13 42 03 .40     -23    159     57    161    170 351.5  20.0  34186  290.01 0862.45
2015 04 09 13 42 03 .65      -2    155     64    156    168 359.0  23.6  34170  289.75 0862.45
2015 04 09 13 42 03 .91     -10    167     50    168    176 356.4  16.8  34202  290.30 0862.45
2015 04 09 13 42 04 .15     -18    191     82    192    208 354.4  24.6  34228  290.74 0862.45
2015 04 09 13 42 04 .41     -10    182     65    183    195 356.9  19.6  34194  290.14 0862.45
2015 04 09 13 42 04 .65     -33    232     46    235    240 351.9  11.1  34118  288.85 0862.45
2015 04 09 13 42 04 .90     -47    249     26    254    256 349.1   6.0  34024  287.28 0862.45
2015 04 09 13 42 05 .16     -43    246     25    250    252 350.0   5.9  34008  287.01 0862.45
2015 04 09 13 42 05 .41     -59    236     -2    244    245 346.0  -0.5  34076  288.15 0862.45
2015 04 09 13 42 05 .66     -48    219     21    225    227 347.5   5.4  34098  288.52 0862.45
2015 04 09 13 42 05 .91     -49    240     -3    246    247 348.4  -0.7  34036  287.46 0862.45
2015 04 09 13 42 06 .16     -47    234      3    239    240 348.4   0.8  34014  287.09 0862.45
2015 04 09 13 42 06 .41     -63    240     -3    249    250 345.3  -0.7  34018  287.16 0862.45
2015 04 09 13 42 06 .66     -69    235     -9    246    247 343.5  -2.2  34016  287.14 0862.46
2015 04 09 13 42 06 .91     -52    258    -30    264    266 348.4  -6.5  34006  286.97 0862.46
2015 04 09 13 42 07 .17     -35    263     -5    266    267 352.4  -1.2  34058  287.85 0862.46
2015 04 09 13 42 07 .41     -50    248    -17    254    255 348.4  -3.9  34046  287.65 0862.46
2015 04 09 13 42 07 .67     -69    220    -16    231    232 342.4  -4.1  34010  287.05 0862.46
2015 04 09 13 42 07 .92     -50    210    -33    217    220 346.4  -8.8  33970  286.37 0862.46
2015 04 09 13 42 08 .18     -52    216    -28    223    225 346.4  -7.3  33984  286.59 0862.46
2015 04 09 13 42 08 .43     -63    237    -13    246    247 345.1  -3.2  34056  287.82 0862.46
2015 04 09 13 42 08 .68     -67    220    -20    231    232 343.0  -5.1  34040  287.54 0862.46
2015 04 09 13 42 08 .92     -89    219     -1    237    238 337.9  -0.3  34084  288.29 0862.46
2015 04 09 13 42 09 .18     -54    232    -28    239    241 346.7  -6.9  34012  287.07 0862.46
2015 04 09 13 42 09 .43     -46    229     -9    234    235 348.4  -2.2  34040  287.53 0862.46
2015 04 09 13 42 09 .68     -40    235     -1    239    240 350.2  -0.3  34054  287.77 0862.46
2015 04 09 13 42 09 .92     -48    237     29    242    244 348.5   6.9  34086  288.31 0862.46
2015 04 09 13 42 10 .18     -48    238     -1    243    244 348.5  -0.3  34038  287.51 0862.46
2015 04 09 13 42 10 .43     -45    242     10    247    248 349.3   2.3  34048  287.66 0862.46
2015 04 09 13 42 10 .68     -59    240      7    248    249 346.2   1.8  34038  287.50 0862.46
2015 04 09 13 42 10 .93     -57    245      3    252    253 346.9   0.8  34044  287.61 0862.46
2015 04 09 13 42 11 .18     -69    241      0    251    252 344.0   0.0  34060  287.87 0862.46
2015 04 09 13 42 11 .43     -41    235     -9    239    240 350.0  -2.2  34046  287.65 0862.46
2015 04 09 13 42 11 .69     -53    208     -7    215    216 345.5  -2.1  34064  287.94 0862.46
2015 04 09 13 42 11 .93     -36    193     -3    197    198 349.3  -1.1  34092  288.42 0862.46
2015 04 09 13 42 12 .18     -40    176     23    181    183 347.1   7.5  34092  288.43 0862.46
2015 04 09 13 42 12 .44     -58    176     -8    186    187 341.5  -2.6  34082  288.26 0862.46
2015 04 09 13 42 12 .68     -38    171     20    176    178 347.3   6.7  34114  288.79 0862.46
2015 04 09 13 42 12 .94     -47    203     22    209    211 346.7   6.1  34098  288.53 0862.46
2015 04 09 13 42 13 .19     -42    197     20    202    203 348.0   5.7  34122  288.94 0862.46
2015 04 09 13 42 13 .43     -59    200     10    209    210 343.5   2.8  34050  287.70 0862.46
2015 04 09 13 42 13 .69     -49    183     -7    190    191 344.9  -2.2  34020  287.21 0862.46
2015 04 09 13 42 13 .94     -21    190      9    192    193 353.5   2.8  34106  288.67 0862.46
2015 04 09 13 42 14 .19     -16    200     39    201    205 355.3  11.0  34174  289.80 0862.46
2015 04 09 13 42 14 .45     -48    179     24    186    188 344.9   7.5  34134  289.13 0862.46
2015 04 09 13 42 14 .70     -47    171     16    178    179 344.4   5.4  34158  289.53 0862.46
2015 04 09 13 42 14 .95     -60    162      2    174    175 339.5   0.8  34106  288.67 0862.47
2015 04 09 13 42 15 .19     -75    179      0    195    196 337.3   0.2  34080  288.23 0862.47
2015 04 09 13 42 15 .45     -51    172    -16    180    181 343.3  -5.2  34024  287.28 0862.47
2015 04 09 13 42 15 .70     -68    184    -27    197    199 339.5  -8.0  34002  286.91 0862.47
2015 04 09 13 42 15 .95     -53    191    -19    199    200 344.4  -5.6  33994  286.78 0862.47
2015 04 09 13 42 16 .20     -49    182    -46    189    195 344.9 -13.9  33978  286.51 0862.47
2015 04 09 13 42 16 .45     -41    178    -37    183    187 346.9 -11.6  33970  286.37 0862.47
2015 04 09 13 42 16 .70     -37    178    -23    182    184 348.2  -7.3  33988  286.66 0862.46
2015 04 09 13 42 16 .96     -42    187      0    192    193 347.3  -0.3  34030  287.37 0862.46
2015 04 09 13 42 17 .20     -45    190     -3    196    197 346.6  -1.2  34038  287.50 0862.46
2015 04 09 13 42 17 .46     -25    211    -35    213    216 353.1  -9.3  34002  286.91 0862.46
2015 04 09 13 42 17 .71     -26    232    -12    234    235 353.5  -3.1  34104  288.63 0862.46
2015 04 09 13 42 17 .96     -30    217     18    220    221 352.0   4.9  34138  289.19 0862.46
2015 04 09 13 42 18 .20     -41    200     13    205    206 348.4   3.8  34130  289.08 0862.46
2015 04 09 13 42 18 .46     -42    220    -15    225    226 349.1  -3.9  33988  286.67 0862.46
2015 04 09 13 42 18 .71     -42    205      5    210    211 348.2   1.6  34134  289.14 0862.46
2015 04 09 13 42 18 .96     -26    196     55    198    206 352.4  15.6  34232  290.79 0862.46
2015 04 09 13 42 19 .20     -70    210     -8    222    223 341.5  -2.2  34008  287.01 0862.46
2015 04 09 13 42 19 .46     -51    219    -28    226    228 346.7  -7.2  33966  286.30 0862.46
2015 04 09 13 42 19 .71     -47    224    -46    230    235 348.0 -11.3  33980  286.52 0862.46
2015 04 09 13 42 19 .96     -76    237    -36    249    252 342.2  -8.3  34006  286.95 0862.46
2015 04 09 13 42 20 .21     -73    234    -35    246    249 342.6  -8.2  34022  287.24 0862.46
2015 04 09 13 42 20 .46     -53    216    -12    223    224 346.0  -3.3  34022  287.23 0862.46
2015 04 09 13 42 20 .72     -54    208    -11    215    216 345.3  -3.2  34024  287.28 0862.46
2015 04 09 13 42 20 .96     -64    204    -19    214    215 342.6  -5.2  34018  287.18 0862.46
2015 04 09 13 42 21 .21     -53    192    -44    200    205 344.4 -12.6  33996  286.79 0862.46
2015 04 09 13 42 21 .47     -49    183    -62    190    200 344.9 -18.1  33982  286.56 0862.46
2015 04 09 13 42 21 .72     -42    155    -45    161    168 344.8 -15.8  33994  286.78 0862.46
2015 04 09 13 42 21 .98     -24    191    -32    193    196 352.7  -9.6  33992  286.74 0862.46
2015 04 09 13 42 22 .23     -16    192    -47    193    199 355.1 -13.9  34036  287.49 0862.46
2015 04 09 13 42 22 .47     -12    172     -2    173    174 356.0  -0.7  34030  287.38 0862.46
2015 04 09 13 42 22 .73     -12    187      9    188    189 356.2   2.9  34036  287.47 0862.46
2015 04 09 13 42 22 .98     -16    166     12    167    168 354.2   4.2  34044  287.60 0862.46
2015 04 09 13 42 23 .23     -20    151     18    153    155 352.4   6.9  34058  287.86 0862.46
2015 04 09 13 42 23 .48     -26    148     29    151    154 349.8  11.1  34112  288.75 0862.46
2015 04 09 13 42 23 .73     -37    110     46    117    125 341.3  22.5  34146  289.35 0862.46
2015 04 09 13 42 23 .98     -31     79     57     85    102 338.6  37.0  34144  289.31 0862.46
2015 04 09 13 42 24 .23     -35     62     52     72     88 330.1  39.7  34140  289.24 0862.46
2015 04 09 13 42 24 .48     -46    147    -11    155    156 342.6  -4.1  34066  287.98 0862.46
2015 04 09 13 42 24 .73     -44    167    -56    173    183 345.1 -18.1  33976  286.46 0862.46
2015 04 09 13 42 24 .98     -33    162    -35    166    170 348.4 -11.9  33976  286.46 0862.46
2015 04 09 13 42 25 .23     -49    166    -28    174    177 343.3  -9.3  33968  286.34 0862.46
2015 04 09 13 42 25 .48     -42    163    -28    169    172 345.5  -9.6  33976  286.46 0862.46
2015 04 09 13 42 25 .73     -32    159    -29    163    166 348.4 -10.3  33972  286.41 0862.46
2015 04 09 13 42 25 .98     -52    171    -32    179    182 343.1 -10.3  33968  286.32 0862.46
2015 04 09 13 42 26 .23     -59    186    -27    196    198 342.2  -8.0  33978  286.49 0862.46
2015 04 09 13 42 26 .49     -47    178    -21    185    187 345.1  -6.7  33992  286.73 0862.46
2015 04 09 13 42 26 .73     -47    162    -26    169    172 343.7  -9.0  33978  286.49 0862.46
2015 04 09 13 42 26 .99     -47    171    -11    178    179 344.4  -3.7  34000  286.86 0862.46
2015 04 09 13 42 27 .23     -50    159    -14    167    168 342.4  -4.9  33970  286.35 0862.46
2015 04 09 13 42 27 .49     -35    168    -22    172    174 348.2  -7.3  33984  286.59 0862.46
2015 04 09 13 42 27 .74     -58    158    -23    169    171 339.7  -8.0  33978  286.51 0862.46
2015 04 09 13 42 27 .99     -41    154    -12    160    161 344.8  -4.6  33992  286.73 0862.46
2015 04 09 13 42 28 .24     -50    158      0    166    167 342.4  -0.3  33988  286.67 0862.46
2015 04 09 13 42 28 .49     -53    150     -5    160    161 340.4  -2.1  33978  286.51 0862.46
2015 04 09 13 42 28 .75     -52    144    -11    154    155 339.9  -4.1  33990  286.69 0862.46
2015 04 09 13 42 29 .00     -38    173     14    178    179 347.5   4.6  34012  287.06 0862.46
2015 04 09 13 42 29 .25     -56    179     -1    188    189 342.4  -0.5  34020  287.20 0862.45
2015 04 09 13 42 29 .50     -65    162    -10    175    176 338.2  -3.3  34010  287.03 0862.45
2015 04 09 13 42 29 .75     -70    163    -22    178    180 336.6  -7.3  33990  286.69 0862.45
2015 04 09 13 42 30 .01     -73    158    -23    175    177 335.3  -7.7  34012  287.08 0862.45
2015 04 09 13 42 30 .25     -94    111    -18    146    148 319.9  -7.3  34032  287.42 0862.45
2015 04 09 13 42 30 .51     -78    111    -12    136    137 324.8  -5.2  34058  287.84 0862.45
2015 04 09 13 42 30 .75     -53     80     25     97    101 326.2  14.7  34050  287.70 0862.45
2015 04 09 13 42 31 .01     -67    113     -1    132    133 329.3  -0.7  34042  287.59 0862.46
2015 04 09 13 42 31 .26     -59    159      4    170    171 339.5   1.6  34050  287.72 0862.46
2015 04 09 13 42 31 .51     -88    186    -33    206    209 334.6  -9.3  34062  287.92 0862.46
2015 04 09 13 42 31 .76     -71    176    -24    190    192 337.9  -7.3  34070  288.06 0862.46
2015 04 09 13 42 32 .01     -78    180    -10    197    198 336.6  -3.2  34090  288.38 0862.46
2015 04 09 13 42 32 .26     -81    188    -18    205    206 336.6  -5.1  34062  287.92 0862.46
2015 04 09 13 42 32 .57     -82    192    -13    209    210 336.8  -3.7  34024  287.28 0862.46
2015 04 09 13 42 32 .83     -60    179    -10    190    191 341.3  -3.3  34028  287.33 0862.45
2015 04 09 13 42 33 .01     -83    144    -19    167    169 329.9  -6.7  34050  287.72 0862.45
2015 04 09 13 42 33 .28    -116    159    -50    198    205 323.9 -14.3  34014  287.11 0862.45
2015 04 09 13 42 33 .51    -108    169    -23    201    203 327.4  -6.7  34004  286.94 0862.45
2015 04 09 13 42 33 .76     -94    228    -34    247    250 337.5  -8.0  33990  286.70 0862.45
2015 04 09 13 42 34 .02     -94    221    -34    241    244 336.8  -8.2  33978  286.50 0862.45
2015 04 09 13 42 34 .26    -105    207    -38    233    237 333.0  -9.4  33990  286.70 0862.45
2015 04 09 13 42 34 .51    -120    198    -45    232    237 328.8 -11.1  33978  286.50 0862.45
2015 04 09 13 42 34 .76    -114    180    -45    214    219 327.7 -11.9  33972  286.41 0862.45
2015 04 09 13 42 35 .01    -114    180    -45    214    219 327.7 -11.9  33972  286.41 0862.45
2015 04 09 13 42 35 .28     -99    180    -39    206    210 331.1 -10.9  33976  286.47 0862.45
2015 04 09 13 42 35 .53     -91    184    -37    206    210 333.7 -10.3  33994  286.76 0862.45
2015 04 09 13 42 35 .78    -100    173    -40    201    205 329.9 -11.3  33996  286.79 0862.45
2015 04 09 13 42 36 .02     -75    194    -27    209    211 338.8  -7.5  33990  286.69 0862.45
2015 04 09 13 42 36 .28     -75    188    -27    203    205 338.1  -7.7  34000  286.86 0862.45
2015 04 09 13 42 36 .52     -81    191    -21    208    210 337.1  -6.0  34014  287.10 0862.45
2015 04 09 13 42 36 .78     -97    181    -50    206    213 331.9 -13.7  33996  286.81 0862.45
2015 04 09 13 42 37 .03     -83    184    -36    202    206 335.7 -10.1  34008  287.00 0862.45
2015 04 09 13 42 37 .28     -91    184    -29    206    209 333.5  -8.2  34016  287.15 0862.45
2015 04 09 13 42 37 .53     -74    180    -34    195    199 337.7 -10.1  34002  286.89 0862.46
2015 04 09 13 42 37 .79     -82    185    -26    203    205 335.9  -7.3  34020  287.21 0862.46
2015 04 09 13 42 38 .03     -75    188    -19    203    204 338.1  -5.6  34028  287.35 0862.46
2015 04 09 13 42 38 .28     -85    180    -23    200    202 334.7  -6.7  34034  287.43 0862.46
2015 04 09 13 42 38 .53     -72    202    -19    215    216 340.2  -5.1  34040  287.54 0862.46
2015 04 09 13 42 38 .78     -73    176     -8    191    192 337.5  -2.6  34050  287.72 0862.46
2015 04 09 13 42 39 .03     -69    171      8    185    186 337.9   2.5  34056  287.82 0862.46
2015 04 09 13 42 39 .29     -45    183     25    189    191 346.2   7.8  34088  288.35 0862.46
2015 04 09 13 42 39 .53     -48    180      1    187    188 345.1   0.5  34090  288.40 0862.46
2015 04 09 13 42 39 .79      -6    219      9    220    221 358.4   2.5  34060  287.89 0862.46
2015 04 09 13 42 40 .04     -18    233     22    234    236 355.5   5.4  34068  288.00 0862.46
2015 04 09 13 42 40 .29      -2    241     71    242    253 359.5  16.4  34072  288.09 0862.46
2015 04 09 13 42 40 .54     -13    229     77    230    243 356.6  18.6  34086  288.31 0862.46
2015 04 09 13 42 40 .78     -29    240     73    242    253 352.9  16.8  34058  287.85 0862.46
2015 04 09 13 42 41 .04      -4    208     46    209    215 358.9  12.6  34024  287.28 0862.46
2015 04 09 13 42 41 .29      -1    201     20    202    204 359.5   5.9  34024  287.27 0862.46
2015 04 09 13 42 41 .54       0    184     36    185    189   0.0  11.1  34014  287.11 0862.46
2015 04 09 13 42 41 .80      17    227     34    228    231   4.5   8.5  34014  287.10 0862.46
2015 04 09 13 42 42 .04       4    179      6    180    181   1.4   2.1  33996  286.79 0862.46
2015 04 09 13 42 42 .30      29    245     77    247    259   6.9  17.3  33992  286.72 0862.46
2015 04 09 13 42 42 .55       3    213     97    214    234   0.9  26.2  34022  287.23 0862.46
2015 04 09 13 42 42 .81     -48    202     65    208    219 346.6  17.4  34034  287.45 0862.46
2015 04 09 13 42 43 .05     -42    184     44    189    195 347.1  13.2  34042  287.57 0862.46
2015 04 09 13 42 43 .30     -49    180     51    187    194 344.6  15.3  34066  287.98 0862.46
2015 04 09 13 42 43 .56     -36    170     44    174    180 348.0  14.3  34112  288.77 0862.46
2015 04 09 13 42 43 .81     -59    155     17    166    167 339.1   5.9  34166  289.69 0862.46
2015 04 09 13 42 44 .05     -99    172      5    199    200 329.9   1.6  34170  289.74 0862.46
2015 04 09 13 42 44 .30     -78    155     11    174    175 333.3   3.6  34132  289.09 0862.46
2015 04 09 13 42 44 .56     -88    167      4    189    190 332.1   1.2  34118  288.86 0862.46
2015 04 09 13 42 44 .80     -68    290     -3    298    299 346.7  -0.7  34126  289.00 0862.46
2015 04 09 13 42 45 .06     -71    281    -20    290    291 345.7  -4.1  34004  286.92 0862.46
2015 04 09 13 42 45 .31     -61    279    -22    286    287 347.6  -4.6  34008  287.01 0862.46
2015 04 09 13 42 45 .56     -22    296      3    297    298 355.6   0.7  34016  287.14 0862.46
2015 04 09 13 42 45 .81     -44    259     -7    263    264 350.2  -1.6  34016  287.12 0862.46
2015 04 09 13 42 46 .06     -45    242      2    247    248 349.3   0.5  34014  287.11 0862.46
2015 04 09 13 42 46 .31     -74    265    -12    276    277 344.4  -2.6  34026  287.31 0862.46
2015 04 09 13 42 46 .56    -105    273    -26    293    295 339.0  -5.1  34054  287.78 0862.45
2015 04 09 13 42 46 .81    -106    278    -43    298    302 339.0  -8.2  34030  287.38 0862.45
2015 04 09 13 42 47 .07     -93    277    -26    293    295 341.3  -5.2  34056  287.80 0862.45
2015 04 09 13 42 47 .31     -74    275     14    285    286 344.9   2.9  34112  288.76 0862.45
2015 04 09 13 42 47 .56     -77    285     26    296    298 344.9   5.2  34120  288.88 0862.45
2015 04 09 13 42 47 .81     -65    329      5    336    337 348.8   1.0  34130  289.06 0862.45
2015 04 09 13 42 48 .07     -89    376     18    387    388 346.6   2.8  34122  288.94 0862.45
2015 04 09 13 42 48 .32     -36    364     29    366    368 354.3   4.6  34128  289.03 0862.46
2015 04 09 13 42 48 .57     -46    295     37    299    302 351.1   7.1  34132  289.10 0862.46
2015 04 09 13 42 48 .82     -91    303     -3    317    318 343.3  -0.6  34108  288.68 0862.46
2015 04 09 13 42 49 .07     -41    332      2    335    336 352.9   0.5  34122  288.93 0862.46
2015 04 09 13 42 49 .33     -44    314     46    318    322 352.0   8.2  34166  289.68 0862.46
2015 04 09 13 42 49 .58     -12    317     61    318    324 357.8  11.0  34204  290.32 0862.46
2015 04 09 13 42 49 .83      20    295     80    296    307   4.0  15.3  34190  290.07 0862.46
2015 04 09 13 42 50 .09      22    291     93    292    307   4.5  17.7  34238  290.88 0862.46
2015 04 09 13 42 50 .33      18    290     70    291    300   3.6  13.7  34156  289.49 0862.46
2015 04 09 13 42 50 .58      -5    342     62    343    349 359.0  10.4  34162  289.60 0862.46
2015 04 09 13 42 50 .84     -14    362     62    363    369 357.7   9.7  34208  290.37 0862.46
2015 04 09 13 42 51 .08     -10    367     44    368    371 358.3   6.9  33994  286.76 0862.46
2015 04 09 13 42 51 .33     -53    298    -49    303    308 349.8  -9.3  33976  286.45 0862.46
2015 04 09 13 42 51 .59     -58    307    -68    313    321 349.3 -12.3  34042  287.56 0862.46
2015 04 09 13 42 51 .83      -9    305      8    306    307 358.2   1.6  34020  287.19 0862.46
2015 04 09 13 42 52 .08       0    238     -1    239    240   0.2  -0.3  34060  287.88 0862.46
2015 04 09 13 42 52 .33       7    242    -13    243    244   1.8  -3.3  34066  287.99 0862.46
2015 04 09 13 42 52 .59      34    313    -29    315    317   6.2  -5.4  34030  287.38 0862.46
2015 04 09 13 42 52 .83      50    316    -86    321    333   9.1 -15.0  34028  287.33 0862.46
2015 04 09 13 42 53 .09      81    251    -83    264    277  18.0 -17.6  34044  287.61 0862.46
2015 04 09 13 42 53 .34      63    235    -44    244    248  15.2 -10.3  34060  287.87 0862.46
2015 04 09 13 42 53 .59      61    186      5    196    197  18.3   1.6  34078  288.20 0862.46
2015 04 09 13 42 53 .84      38    187     48    191    198  11.6  14.3  34074  288.13 0862.46
2015 04 09 13 42 54 .09     -19    197     38    198    202 354.4  11.1  34076  288.16 0862.46
2015 04 09 13 42 54 .34     -77    282      9    293    294 344.6   1.8  34052  287.75 0862.46
2015 04 09 13 42 54 .59     -53    295     37    300    303 349.8   7.1  34042  287.56 0862.45
2015 04 09 13 42 54 .84       4    267     48    268    273   1.0  10.3  34058  287.83 0862.45
2015 04 09 13 42 55 .09     -20    270     33    271    274 355.6   7.1  34042  287.56 0862.45
2015 04 09 13 42 55 .34    -108    295    -20    315    316 339.9  -3.8  34110  288.73 0862.45
2015 04 09 13 42 55 .59    -118    304    -72    327    335 338.8 -12.5  34082  288.25 0862.45
2015 04 09 13 42 55 .84    -137    226    -24    265    267 328.8  -5.2  34070  288.04 0862.45
2015 04 09 13 42 56 .09     -85    117     34    145    149 323.9  13.2  34088  288.36 0862.45
2015 04 09 13 42 56 .35     -60    155     29    167    170 338.6  10.1  34098  288.53 0862.45
2015 04 09 13 42 56 .61     -83    225    -28    240    242 339.7  -6.9  34094  288.46 0862.45
2015 04 09 13 42 56 .86    -116    182    -32    217    220 327.5  -8.6  34108  288.69 0862.45
2015 04 09 13 42 57 .11     -65    277     30    285    287 346.7   6.1  34096  288.49 0862.45
2015 04 09 13 42 57 .36    -100    319    -18    335    336 342.6  -3.2  34082  288.25 0862.45
2015 04 09 13 42 57 .61     -85    293      3    306    307 343.7   0.7  34080  288.21 0862.45
2015 04 09 13 42 57 .86     -76    315     50    325    329 346.4   8.8  34094  288.44 0862.45
2015 04 09 13 42 58 .10     -86    304     17    316    317 344.2   3.1  34108  288.68 0862.45
2015 04 09 13 42 58 .36     -68    289      4    297    298 346.7   0.8  34024  287.28 0862.45
2015 04 09 13 42 58 .61     -63    240    -26    249    251 345.3  -6.0  33992  286.72 0862.45
2015 04 09 13 42 58 .86     -72    266    -59    276    283 344.8 -12.2  33970  286.36 0862.45
2015 04 09 13 42 59 .11     -60    293    -16    300    301 348.4  -3.1  33970  286.35 0862.45
2015 04 09 13 42 59 .36     -43    303     -1    307    308 351.8  -0.3  33974  286.42 0862.45
2015 04 09 13 42 59 .61     -54    317     -4    322    323 350.3  -0.7  33976  286.45 0862.45
2015 04 09 13 42 59 .86     -61    326     12    332    333 349.3   2.1  33978  286.51 0862.45
2015 04 09 13 43 00 .11     -57    308     15    314    315 349.5   2.9  33976  286.45 0862.45
2015 04 09 13 43 00 .36     -45    320      6    324    325 352.0   1.2  33966  286.30 0862.45
2015 04 09 13 43 00 .61     -39    282    -12    285    286 352.0  -2.6  33968  286.31 0862.45
2015 04 09 13 43 00 .86     -33    279    -20    282    283 353.1  -4.1  33964  286.26 0862.45
2015 04 09 13 43 01 .11     -32    298    -21    300    301 353.8  -4.1  33966  286.28 0862.45
2015 04 09 13 43 01 .37     -53    308     11    313    314 350.2   2.1  33972  286.40 0862.45
2015 04 09 13 43 01 .61     -43    306     -6    310    311 352.0  -1.2  33964  286.26 0862.45
2015 04 09 13 43 01 .86     -51    320     15    325    326 350.9   2.8  33964  286.26 0862.45
2015 04 09 13 43 02 .12     -51    344     22    348    349 351.5   3.7  33970  286.37 0862.45
2015 04 09 13 43 02 .37     -53    343     25    348    349 351.1   4.2  33982  286.56 0862.45
2015 04 09 13 43 02 .62     -54    344     32    349    351 351.0   5.3  34010  287.02 0862.45
2015 04 09 13 43 02 .87     -42    342      8    345    346 352.9   1.5  33964  286.27 0862.45
2015 04 09 13 43 03 .13     -61    353     32    359    361 350.1   5.2  33964  286.27 0862.45
2015 04 09 13 43 03 .38     -56    365     31    370    372 351.2   4.9  33968  286.31 0862.45
2015 04 09 13 43 03 .63     -22    377     15    378    379 356.6   2.4  33968  286.31 0862.45
2015 04 09 13 43 03 .88       0    307     -6    308    309   0.0  -1.2  33968  286.31 0862.45
2015 04 09 13 43 04 .13      -2    367     -7    368    369 359.7  -1.1  33968  286.32 0862.45
2015 04 09 13 43 04 .38       4    283     -6    284    285   0.9  -1.3  33962  286.23 0862.45
2015 04 09 13 43 04 .63       3    281     13    282    283   0.7   2.8  33966  286.28 0862.45
2015 04 09 13 43 04 .88      -5    340    -13    341    342 359.0  -2.2  33968  286.32 0862.45
2015 04 09 13 43 05 .13      -4    335    -44    336    339 359.3  -7.5  33964  286.26 0862.45
2015 04 09 13 43 05 .38      -7    323    -49    324    328 358.6  -8.7  33964  286.25 0862.45
2015 04 09 13 43 05 .64     -22    349    -13    350    351 356.3  -2.2  33978  286.51 0862.45
2015 04 09 13 43 05 .88     -41    351     17    354    355 353.3   2.9  34018  287.18 0862.45
2015 04 09 13 43 06 .13      -9    294    -37    295    298 358.2  -7.2  33972  286.38 0862.45
2015 04 09 13 43 06 .39     -22    305    -11    306    307 355.8  -2.2  33966  286.28 0862.45
2015 04 09 13 43 06 .64     -42    303    -16    307    308 352.0  -3.1  33970  286.35 0862.45
2015 04 09 13 43 06 .89     -24    313    -16    315    316 355.5  -3.0  33966  286.28 0862.45
2015 04 09 13 43 07 .14      -4    299    -37    300    303 359.1  -7.2  33968  286.33 0862.45
2015 04 09 13 43 07 .39     -18    287    -37    288    291 356.4  -7.3  33968  286.33 0862.46
2015 04 09 13 43 07 .64     -29    280    -35    282    285 354.0  -7.2  33968  286.31 0862.46
2015 04 09 13 43 07 .89     -25    275    -23    277    279 354.7  -4.9  33970  286.36 0862.46
2015 04 09 13 43 08 .14     -46    271     21    276    277 350.2   4.4  34030  287.36 0862.46
2015 04 09 13 43 08 .40     -56    277      4    283    284 348.5   0.8  34014  287.09 0862.46
2015 04 09 13 43 08 .64     -51    277     16    282    283 349.5   3.3  34082  288.26 0862.46
2015 04 09 13 43 08 .89     -42    274    -15    278    279 351.1  -3.2  34002  286.89 0862.46
2015 04 09 13 43 09 .14     -35    253    -24    256    258 352.0  -5.4  33966  286.28 0862.45
2015 04 09 13 43 09 .39     -20    257     -9    258    259 355.5  -2.1  33966  286.30 0862.45
2015 04 09 13 43 09 .64     -33    279    -20    282    283 353.1  -4.1  33964  286.26 0862.45
2015 04 09 13 43 09 .89     -29    269     13    271    272 353.8   2.8  33968  286.31 0862.45
2015 04 09 13 43 10 .15     -30    288     25    290    292 354.0   5.0  33966  286.30 0862.45
2015 04 09 13 43 10 .40     -15    268     -5    269    270 356.6  -1.3  33968  286.31 0862.45
2015 04 09 13 43 10 .65       1    228    -34    229    232   0.5  -8.6  33962  286.24 0862.45
2015 04 09 13 43 10 .91       6    219    -36    220    224   1.8  -9.4  33968  286.32 0862.45
2015 04 09 13 43 11 .16     -35    251     -9    254    255 352.0  -2.2  33968  286.31 0862.45
2015 04 09 13 43 11 .41     -38    264      0    267    268 351.8   0.0  33968  286.31 0862.45
2015 04 09 13 43 11 .66     -20    270     27    271    273 355.6   5.7  33970  286.36 0862.45
2015 04 09 13 43 11 .91      12    291      5    292    293   2.5   1.0  33972  286.40 0862.45
2015 04 09 13 43 12 .16      16    259    -10    260    261   3.6  -2.2  33966  286.28 0862.45
2015 04 09 13 43 12 .41       0    204     -1    205    206   0.0  -0.5  33966  286.30 0862.45
2015 04 09 13 43 12 .66      -6    240     25    241    243 358.4   6.1  33996  286.79 0862.45
2015 04 09 13 43 12 .91      -7    250     26    251    253 358.2   5.9  33980  286.52 0862.45
2015 04 09 13 43 13 .16      12    243      3    244    245   2.9   0.8  33970  286.35 0862.45
2015 04 09 13 43 13 .41      16    216     -2    217    218   4.2  -0.7  33966  286.30 0862.45
2015 04 09 13 43 13 .66      11    212      3    213    214   3.1   0.8  33964  286.25 0862.45
2015 04 09 13 43 13 .91      -3    214      3    215    216 359.1   0.8  33964  286.25 0862.45
2015 04 09 13 43 14 .16       3    167     -7    168    169   1.1  -2.6  33966  286.30 0862.45
2015 04 09 13 43 14 .41       8    199    -13    200    201   2.5  -3.7  33964  286.27 0862.45
2015 04 09 13 43 14 .66      25    213     -2    215    216   6.9  -0.7  33962  286.24 0862.45
2015 04 09 13 43 14 .92      22    210    -27    212    214   6.0  -7.3  33962  286.22 0862.45
2015 04 09 13 43 15 .16      15    204    -41    205    210   4.5 -11.3  33966  286.30 0862.45
2015 04 09 13 43 15 .42      13    197    -23    198    200   4.0  -6.7  33960  286.20 0862.45
2015 04 09 13 43 15 .67      26    197    -25    199    201   7.6  -7.3  33966  286.29 0862.45
2015 04 09 13 43 15 .92      23    214     -6    216    217   6.2  -1.8  34014  287.10 0862.45
2015 04 09 13 43 16 .17     -15    206     37    207    211 355.6  10.1  34042  287.59 0862.45
2015 04 09 13 43 16 .42     -36    204     33    208    211 349.8   9.0  34000  286.88 0862.45
2015 04 09 13 43 16 .68     -16    206     37    207    211 355.5  10.3  34056  287.81 0862.45
2015 04 09 13 43 16 .92      -1    228     58    229    237 359.5  14.3  34166  289.66 0862.45
2015 04 09 13 43 17 .18      -8    214     58    215    223 357.8  15.3  34130  289.06 0862.45
2015 04 09 13 43 17 .43      -9    219     48    220    226 357.5  12.4  34172  289.77 0862.45
2015 04 09 13 43 17 .68     -24    175     67    177    189 352.2  21.7  34208  290.38 0862.45
2015 04 09 13 43 17 .94     -26    182     68    184    196 351.8  21.3  34206  290.36 0862.45
2015 04 09 13 43 18 .18      -7    207     80    208    222 358.0  22.0  34144  289.31 0862.45
2015 04 09 13 43 18 .43       0    152      7    153    154   0.0   2.9  33970  286.37 0862.45
2015 04 09 13 43 18 .68      14    190     -7    191    192   4.4  -2.2  33964  286.27 0862.45
2015 04 09 13 43 18 .93      11    178    -16    179    180   3.6  -5.2  33964  286.27 0862.45
2015 04 09 13 43 19 .19      15    193     -7    194    195   4.5  -2.2  33962  286.24 0862.44
2015 04 09 13 43 19 .43       2    160      5    161    162   0.9   2.1  33970  286.35 0862.44
2015 04 09 13 43 19 .68       0    156     10    157    158   0.2   3.8  33972  286.41 0862.44
2015 04 09 13 43 19 .94      -8    186      7    187    188 357.5   2.3  33968  286.32 0862.44
2015 04 09 13 43 20 .19       0    192      0    193    194 359.8  -0.3  33966  286.29 0862.44
2015 04 09 13 43 20 .44      11    189    -10    190    191   3.4  -3.1  33992  286.73 0862.44
2015 04 09 13 43 20 .69      -1    215     -4    216    217 359.5  -1.3  34014  287.11 0862.44
2015 04 09 13 43 20 .94     -12    207     -4    208    209 356.6  -1.3  33998  286.84 0862.44
2015 04 09 13 43 21 .19     -18    204      0    205    206 354.7   0.2  33998  286.84 0862.44
2015 04 09 13 43 21 .44     -13    185      9    186    187 355.8   2.8  34016  287.15 0862.44
2015 04 09 13 43 21 .69     -30    211      1    214    215 351.9   0.5  33998  286.83 0862.44
2015 04 09 13 43 21 .94      -7    204     -8    205    206 357.8  -2.2  33978  286.49 0862.44
2015 04 09 13 43 22 .19     -14    189    -14    190    191 355.5  -4.4  33966  286.30 0862.44
2015 04 09 13 43 22 .44     -14    189    -14    190    191 355.5  -4.4  33966  286.30 0862.44
2015 04 09 13 43 22 .69      -8    186     -7    187    188 357.3  -2.2  33968  286.32 0862.44
2015 04 09 13 43 22 .95       0    183    -23    184    186 359.8  -7.2  33976  286.47 0862.44
2015 04 09 13 43 23 .19     -13    163      7    164    165 355.1   2.5  34058  287.86 0862.44
2015 04 09 13 43 23 .44      -9    147     -8    148    149 356.4  -3.2  34052  287.74 0862.44
2015 04 09 13 43 23 .69      -2    151    -22    152    154 359.1  -8.2  33966  286.29 0862.45
2015 04 09 13 43 23 .95      -7    150    -19    151    153 357.3  -7.3  33968  286.32 0862.45
2015 04 09 13 43 24 .20      -6    147    -19    148    150 357.4  -7.3  33966  286.30 0862.45
2015 04 09 13 43 24 .46       0    115    -11    116    117   0.0  -5.6  33966  286.30 0862.45
2015 04 09 13 43 24 .71       0    131     -5    132    133 359.6  -2.2  33964  286.27 0862.45
2015 04 09 13 43 24 .96       2    116     -2    117    118   1.4  -1.3  33964  286.27 0862.45
2015 04 09 13 43 25 .21      -2    135     -7    136    137 359.0  -3.1  33966  286.29 0862.45
2015 04 09 13 43 25 .46     -10    136     -7    137    138 355.6  -3.1  33966  286.30 0862.44
2015 04 09 13 43 25 .71     -11    142     -3    143    144 355.5  -1.3  33962  286.24 0862.44
2015 04 09 13 43 25 .96      -9    143      1    144    145 356.4   0.7  33966  286.29 0862.44
2015 04 09 13 43 26 .21     -11    142      4    143    144 355.5   1.8  33968  286.32 0862.44
2015 04 09 13 43 26 .46     -18    144      7    146    147 352.9   2.8  33962  286.24 0862.44
2015 04 09 13 43 26 .71      -9    155      4    156    157 356.4   1.8  33966  286.30 0862.44
2015 04 09 13 43 26 .96     -22    163      7    165    166 352.0   2.5  33964  286.27 0862.44
2015 04 09 13 43 27 .21     -12    177      1    178    179 356.0   0.5  33968  286.32 0862.44
2015 04 09 13 43 27 .46     -22    179     -2    181    182 352.9  -0.7  33968  286.34 0862.44
2015 04 09 13 43 27 .71     -22    179      7    181    182 352.9   2.3  33974  286.42 0862.44
2015 04 09 13 43 27 .96     -20    177     17    179    180 353.5   5.7  33976  286.47 0862.44
2015 04 09 13 43 28 .21     -36    179     18    183    184 348.4   5.7  33972  286.41 0862.44
2015 04 09 13 43 28 .47     -42    187     10    192    193 347.3   3.1  33972  286.41 0862.44
2015 04 09 13 43 28 .71     -62    193      9    203    204 342.0   2.8  33982  286.57 0862.44
2015 04 09 13 43 28 .97     -21    208     27    210    212 354.0   7.5  33986  286.62 0862.44
2015 04 09 13 43 29 .22       0    192      7    193    194 359.8   2.3  33980  286.54 0862.44
2015 04 09 13 43 29 .47     -13    195     -7    196    197 356.0  -2.2  33982  286.57 0862.44
2015 04 09 13 43 29 .72      -1    192     -7    193    194 359.5  -2.2  33980  286.52 0862.44
2015 04 09 13 43 29 .97      -2    179     -9    180    181 359.1  -3.1  33992  286.73 0862.43
2015 04 09 13 43 30 .22       9    183    -12    184    185   2.9  -3.9  33992  286.74 0862.43
2015 04 09 13 43 30 .47       2    161     -3    162    163   0.7  -1.1  33992  286.74 0862.43
2015 04 09 13 43 30 .72      11    178     -3    179    180   3.6  -1.3  33992  286.74 0862.43
2015 04 09 13 43 30 .98       0    146      7    147    148   0.0   2.9  33990  286.69 0862.43
2015 04 09 13 43 31 .23      10    186      2    187    188   3.1   0.8  33992  286.73 0862.43
2015 04 09 13 43 31 .48      14    199     28    200    203   4.2   8.0  33994  286.78 0862.43
2015 04 09 13 43 31 .73     -25    201     26    203    205 352.9   7.5  33996  286.81 0862.43
2015 04 09 13 43 31 .98     -51    153    -49    162    170 341.5 -16.8  33996  286.79 0862.43
2015 04 09 13 43 32 .24     -10    137     -2    138    139 355.6  -1.2  33998  286.84 0862.43
2015 04 09 13 43 32 .49     -30    156     34    160    164 348.9  12.0  34010  287.05 0862.43
2015 04 09 13 43 32 .74     -14    154      7    155    156 354.7   2.9  34012  287.06 0862.44
2015 04 09 13 43 32 .99     -31    152     40    156    162 348.4  14.5  34010  287.05 0862.44
2015 04 09 13 43 33 .24     -37    161     33    166    170 346.9  11.4  34042  287.57 0862.44
2015 04 09 13 43 33 .49       0    194     44    195    201 359.8  12.9  34022  287.25 0862.44
2015 04 09 13 43 33 .74     -19    196      1    197    198 354.4   0.5  34002  286.89 0862.44
2015 04 09 13 43 34 .00     -12    158     10    159    160 355.6   3.6  34020  287.20 0862.44
2015 04 09 13 43 34 .24     -12    158     49    159    167 355.6  17.1  34072  288.08 0862.44
2015 04 09 13 43 34 .49      23    154     41    156    162   8.5  15.0  34060  287.89 0862.44
2015 04 09 13 43 34 .74     -19    126     48    128    136 351.1  21.0  34052  287.76 0862.43
2015 04 09 13 43 34 .99     -13    145      7    146    147 354.7   2.9  34008  287.01 0862.43
2015 04 09 13 43 35 .24      -2    150     17    151    152 359.2   6.5  34036  287.47 0862.43
2015 04 09 13 43 35 .50     -10    140     49    141    150 355.5  19.4  34040  287.54 0862.43
2015 04 09 13 43 35 .75       9    140     54    141    150   4.0  22.0  34092  288.43 0862.43
2015 04 09 13 43 35 .99     -14    132     47    133    142 353.7  19.4  34052  287.74 0862.43
2015 04 09 13 43 36 .25      -7    144     59    145    156 356.9  23.6  34048  287.69 0862.43
2015 04 09 13 43 36 .49      44    146     61    153    164  16.9  22.5  34084  288.30 0862.44
2015 04 09 13 43 36 .74      39    146     53    152    162  15.2  19.2  34074  288.11 0862.44
2015 04 09 13 43 37 .00      23    167     59    169    180   8.1  19.2  34096  288.50 0862.44
2015 04 09 13 43 37 .24      50    188     -1    195    196  15.1  -0.5  34046  287.64 0862.44
2015 04 09 13 43 37 .50       2    188    -24    189    191   0.9  -7.3  34038  287.52 0862.44
2015 04 09 13 43 37 .74      -7    257    -10    258    259 358.4  -2.2  34026  287.29 0862.44
2015 04 09 13 43 38 .02       0    234    -30    235    237 359.8  -7.5  34032  287.41 0862.44
2015 04 09 13 43 38 .26     -24    194     17    196    197 352.7   5.2  34088  288.36 0862.43
2015 04 09 13 43 38 .51     -17    192     41    193    198 354.9  12.2  34106  288.67 0862.43
2015 04 09 13 43 38 .76     -17    244     18    245    246 356.0   4.4  34040  287.55 0862.43
2015 04 09 13 43 39 .01      10    231    -11    232    233   2.5  -2.8  33970  286.35 0862.43
2015 04 09 13 43 39 .27      31    232    -13    235    236   7.6  -3.2  33976  286.45 0862.43
2015 04 09 13 43 39 .51      14    244    -17    245    246   3.4  -4.1  34020  287.21 0862.43
2015 04 09 13 43 39 .77      16    247    -14    248    249   3.8  -3.3  34016  287.14 0862.43
2015 04 09 13 43 40 .01     -11    242    -20    243    244 357.3  -4.9  34038  287.50 0862.43
2015 04 09 13 43 40 .26     -18    213    -27    214    216 354.9  -7.3  34044  287.60 0862.43
2015 04 09 13 43 40 .52     -35    203    -15    207    208 350.0  -4.4  34050  287.72 0862.43
2015 04 09 13 43 40 .76     -20    183    -14    185    186 353.5  -4.4  34044  287.62 0862.43
2015 04 09 13 43 41 .01     -26    205     -7    207    208 352.7  -2.1  34026  287.30 0862.43
2015 04 09 13 43 41 .26     -14    201      2    202    203 355.8   0.8  34020  287.21 0862.43
2015 04 09 13 43 41 .52     -36    217      4    221    222 350.4   1.2  34030  287.38 0862.43
2015 04 09 13 43 41 .77     -26    213      0    215    216 352.9   0.2  34034  287.43 0862.43
2015 04 09 13 43 42 .02     -25    201      2    203    204 352.9   0.8  34032  287.42 0862.43
2015 04 09 13 43 42 .27      -3    201     31    202    205 359.0   8.9  34028  287.33 0862.43
2015 04 09 13 43 42 .52     -25    196     -7    198    199 352.7  -2.1  34028  287.35 0862.43
2015 04 09 13 43 42 .77     -17    220    -12    221    222 355.5  -3.1  34030  287.37 0862.43
2015 04 09 13 43 43 .02     -19    194      0    196    197 354.2   0.2  34018  287.18 0862.43
2015 04 09 13 43 43 .27     -16    183     -9    184    185 354.9  -2.8  34020  287.20 0862.43
2015 04 09 13 43 43 .53      -7    176    -22    177    179 357.5  -7.2  34020  287.21 0862.43
2015 04 09 13 43 43 .77     -24    209     10    211    212 353.3   2.8  34056  287.81 0862.43
2015 04 09 13 43 44 .02     -14    200     19    201    202 355.8   5.7  34056  287.81 0862.43
2015 04 09 13 43 44 .28     -21    174     21    176    178 353.1   6.9  34062  287.91 0862.43
2015 04 09 13 43 44 .52     -25    182     15    184    185 352.0   4.9  34066  287.98 0862.44
2015 04 09 13 43 44 .77     -45    199     10    205    206 347.1   2.9  34024  287.28 0862.44
2015 04 09 13 43 45 .04     -26    186    -20    188    190 351.8  -6.2  34032  287.40 0862.44
2015 04 09 13 43 45 .29      -5    183     -5    184    185 358.2  -1.8  34058  287.84 0862.44
2015 04 09 13 43 45 .55      -8    189      9    190    191 357.3   2.8  34062  287.92 0862.44
2015 04 09 13 43 45 .78     -17    164     71    165    179 353.8  24.9  34056  287.81 0862.44
2015 04 09 13 43 46 .04      38    155     45    160    167  13.8  15.8  34052  287.76 0862.44
2015 04 09 13 43 46 .28      33    155     14    159    160  12.0   5.2  34054  287.79 0862.44
2015 04 09 13 43 46 .54      69    166     -2    180    181  22.7  -0.7  34048  287.67 0862.44
2015 04 09 13 43 46 .79      65    167     -9    180    181  21.4  -3.1  34044  287.62 0862.44
2015 04 09 13 43 47 .04      17    172     20    173    175   5.8   6.9  34060  287.89 0862.44
2015 04 09 13 43 47 .29      43    211      0    216    217  11.6   0.0  34046  287.65 0862.44
2015 04 09 13 43 47 .54      74    218     26    231    233  18.9   6.5  34034  287.43 0862.44
2015 04 09 13 43 47 .79      45    223     39    228    232  11.5   9.9  34042  287.57 0862.44
2015 04 09 13 43 48 .04      11    234      2    235    236   2.9   0.7  34068  288.00 0862.44
2015 04 09 13 43 48 .30      49    246     -2    251    252  11.5  -0.5  34020  287.21 0862.44
2015 04 09 13 43 48 .55      44    259      1    263    264   9.7   0.2  34020  287.19 0862.44
2015 04 09 13 43 48 .80      89    254     39    270    273  19.4   8.2  34072  288.09 0862.44
2015 04 09 13 43 49 .05     106    223     67    248    257  25.5  15.2  34110  288.71 0862.44
2015 04 09 13 43 49 .30     113    202     49    232    238  29.4  12.0  34118  288.87 0862.44
2015 04 09 13 43 49 .55      77    243     49    255    260  17.6  11.0  34140  289.24 0862.44
2015 04 09 13 43 49 .80      63    250     60    259    266  14.3  13.1  34160  289.56 0862.44
2015 04 09 13 43 50 .04      83    266     78    279    290  17.4  15.8  34186  290.02 0862.44
2015 04 09 13 43 50 .29     112    300     69    321    329  20.5  12.1  34028  287.34 0862.44
2015 04 09 13 43 50 .55      94    298     57    313    319  17.6  10.3  34028  287.33 0862.44
2015 04 09 13 43 50 .80     113    283     61    305    312  21.8  11.4  34012  287.06 0862.44
2015 04 09 13 43 51 .05      17    295     82    296    308   3.4  15.6  34128  289.03 0862.44
2015 04 09 13 43 51 .30      43    308     32    312    314   8.0   6.0  34108  288.68 0862.44
2015 04 09 13 43 51 .55      45    315     22    319    320   8.2   4.0  34080  288.21 0862.44
2015 04 09 13 43 51 .81      64    272     49    280    285  13.3  10.0  34058  287.83 0862.44
2015 04 09 13 43 52 .06      41    291     41    295    298   8.1   8.0  34106  288.66 0862.44
2015 04 09 13 43 52 .31      35    321     58    323    329   6.3  10.2  34080  288.21 0862.44
2015 04 09 13 43 52 .57       0    323     29    324    326 359.9   5.2  34138  289.19 0862.44
2015 04 09 13 43 52 .82       4    245     10    246    247   1.0   2.5  34128  289.02 0862.44
2015 04 09 13 43 53 .06      41    336     -7    339    340   7.1  -1.3  33978  286.51 0862.44
2015 04 09 13 43 53 .31      61    325     14    331    332  10.7   2.5  33958  286.17 0862.44
2015 04 09 13 43 53 .56      47    303    -22    307    308   8.9  -4.1  33964  286.25 0862.44
2015 04 09 13 43 53 .81      52    308    -23    313    314   9.6  -4.4  33962  286.21 0862.44
2015 04 09 13 43 54 .06      53    312    -28    317    319   9.8  -5.2  33960  286.20 0862.44
2015 04 09 13 43 54 .31      55    307    -26    312    314  10.2  -4.8  33960  286.18 0862.44
2015 04 09 13 43 54 .56      63    305    -29    312    314  11.8  -5.5  33960  286.18 0862.44
2015 04 09 13 43 54 .82      80    280    -28    292    294  16.1  -5.6  33968  286.31 0862.44
2015 04 09 13 43 55 .07      75    263    -33    274    276  16.0  -6.9  33964  286.26 0862.44
2015 04 09 13 43 55 .32      68    256    -28    265    267  14.9  -6.1  33968  286.31 0862.45
2015 04 09 13 43 55 .57      71    247    -22    258    260  16.1  -4.9  33976  286.47 0862.45
2015 04 09 13 43 55 .82      57    260    -14    267    268  12.5  -3.1  33962  286.23 0862.45
2015 04 09 13 43 56 .07      47    253     12    258    259  10.7   2.8  33992  286.72 0862.45
2015 04 09 13 43 56 .32      58    234     -1    242    243  14.0  -0.3  33972  286.38 0862.45
2015 04 09 13 43 56 .57      62    226      4    235    236  15.4   1.0  33966  286.28 0862.45
2015 04 09 13 43 56 .82      70    231     12    242    243  17.0   2.9  33974  286.42 0862.45
2015 04 09 13 43 57 .07      66    241     -7    251    252  15.4  -1.6  33962  286.23 0862.45
2015 04 09 13 43 57 .32      72    250     -1    261    262  16.0  -0.3  33962  286.23 0862.45
2015 04 09 13 43 57 .57      68    241     10    251    252  15.8   2.3  33962  286.23 0862.45
2015 04 09 13 43 57 .82      64    245      7    254    255  14.7   1.7  33962  286.21 0862.45
2015 04 09 13 43 58 .07      69    254     -5    264    265  15.2  -1.2  33962  286.21 0862.45
2015 04 09 13 43 58 .32      69    254     -5    264    265  15.2  -1.2  33962  286.21 0862.45
2015 04 09 13 43 58 .57      69    254     -5    264    265  15.2  -1.2  33962  286.21 0862.45
2015 04 09 13 43 58 .83      69    233      0    244    245  16.5   0.2  33962  286.21 0862.45
2015 04 09 13 43 59 .08      61    242     -4    250    251  14.3  -1.1  33962  286.21 0862.45
2015 04 09 13 43 59 .33      47    248      0    253    254  10.7   0.0  33962  286.21 0862.45
2015 04 09 13 43 59 .58      61    244     -5    252    253  14.0  -1.3  33960  286.18 0862.45
2015 04 09 13 43 59 .84      65    244     -9    253    254  15.1  -2.1  33962  286.21 0862.45
2015 04 09 13 44 00 .09      66    241     -7    251    252  15.4  -1.6  33962  286.23 0862.45
2015 04 09 13 44 00 .34      64    230     -9    239    240  15.6  -2.2  33960  286.20 0862.45
2015 04 09 13 44 00 .59      69    233      0    244    245  16.5   0.2  33962  286.21 0862.45
2015 04 09 13 44 00 .84      64    238      7    247    248  15.2   1.7  33964  286.26 0862.45
2015 04 09 13 44 01 .09      73    238      2    250    251  17.2   0.5  33998  286.84 0862.45
2015 04 09 13 44 01 .34      63    235      3    244    245  15.1   0.8  33972  286.38 0862.45
2015 04 09 13 44 01 .59      69    229     -2    240    241  16.9  -0.5  33964  286.25 0862.45
2015 04 09 13 44 01 .84      69    243     26    253    255  16.0   5.9  34062  287.90 0862.45
2015 04 09 13 44 02 .09      88    244      5    260    261  20.0   1.2  34040  287.55 0862.45
2015 04 09 13 44 02 .34      88    240     -5    256    257  20.3  -1.3  33978  286.50 0862.45
2015 04 09 13 44 02 .59      82    242      0    256    257  18.7   0.0  33996  286.79 0862.45
2015 04 09 13 44 02 .85      66    222      0    232    233  16.7   0.0  34014  287.11 0862.45
2015 04 09 13 44 03 .10      91    229     18    247    248  21.8   4.4  34060  287.87 0862.45
2015 04 09 13 44 03 .35     115    204     45    235    240  29.4  10.8  34110  288.71 0862.45
2015 04 09 13 44 03 .59      88    198     47    217    223  24.1  12.4  34088  288.35 0862.45
2015 04 09 13 44 03 .85     116    189     52    222    229  31.6  13.2  34042  287.59 0862.45
2015 04 09 13 44 04 .10      53    206     48    213    219  14.5  12.9  34092  288.42 0862.45
2015 04 09 13 44 04 .36      59    188     31    198    201  17.6   9.0  34098  288.52 0862.45
2015 04 09 13 44 04 .60      83    185     69    203    215  24.3  18.9  34082  288.26 0862.45
2015 04 09 13 44 04 .85      85    225     20    241    242  20.7   4.9  33998  286.82 0862.45
2015 04 09 13 44 05 .10      85    225     -1    241    242  20.7  -0.3  33962  286.23 0862.45
2015 04 09 13 44 05 .35      86    218     -1    235    236  21.6  -0.3  33962  286.23 0862.45
2015 04 09 13 44 05 .60      91    221     -1    240    241  22.5  -0.3  33960  286.18 0862.44
2015 04 09 13 44 05 .86      88    225     -4    242    243  21.6  -1.1  33962  286.21 0862.44
2015 04 09 13 44 06 .11     102    213    -13    237    238  25.5  -3.1  33960  286.20 0862.44
2015 04 09 13 44 06 .36     114    210    -15    239    240  28.5  -3.7  33962  286.23 0862.44
2015 04 09 13 44 06 .62     102    204    -12    229    230  26.5  -3.1  33964  286.25 0862.44
2015 04 09 13 44 06 .87     121    204    -13    238    239  30.7  -3.2  33988  286.65 0862.44
2015 04 09 13 44 07 .12     122    193     -4    229    230  32.3  -1.2  34010  287.05 0862.44
2015 04 09 13 44 07 .37     103    217     17    241    242  25.5   4.2  34008  287.01 0862.45
2015 04 09 13 44 07 .62     122    191     28    227    229  32.6   7.1  34048  287.69 0862.45
2015 04 09 13 44 07 .86     114    204     36    234    237  29.2   8.9  34034  287.44 0862.45
2015 04 09 13 44 08 .12     104    187     12    215    216  29.0   3.3  33988  286.67 0862.45
2015 04 09 13 44 08 .37     101    182     25    209    211  29.0   6.9  34066  287.99 0862.45
2015 04 09 13 44 08 .61      97    172     25    198    200  29.4   7.2  34042  287.59 0862.45
2015 04 09 13 44 08 .87      93    166      9    191    192  29.4   2.8  33966  286.29 0862.45
2015 04 09 13 44 09 .12      90    161     -7    185    186  29.4  -2.2  33962  286.22 0862.44
2015 04 09 13 44 09 .38      97    184    -20    209    211  27.9  -5.6  34034  287.45 0862.44
2015 04 09 13 44 09 .62      73    143     28    161    164  27.2  10.1  34066  287.98 0862.44
2015 04 09 13 44 09 .87      70    137     39    155    160  27.2  14.3  34100  288.55 0862.44
2015 04 09 13 44 10 .12      54    139     38    150    155  21.4  14.3  34072  288.09 0862.44
2015 04 09 13 44 10 .37      78    149     47    169    176  27.6  15.6  34052  287.74 0862.44
2015 04 09 13 44 10 .62      69    143     31    160    164  25.9  11.1  34072  288.09 0862.44
2015 04 09 13 44 10 .87      69    139     29    156    159  26.3  10.6  34080  288.23 0862.44
2015 04 09 13 44 11 .13      59    115     45    130    138  27.1  19.4  34114  288.80 0862.44
2015 04 09 13 44 11 .37      87    138     26    164    167  32.1   9.0  34110  288.72 0862.44
2015 04 09 13 44 11 .62      77    161     35    179    183  25.6  11.1  34076  288.16 0862.44
2015 04 09 13 44 11 .88      66    128     34    145    149  27.2  13.2  34084  288.30 0862.44
2015 04 09 13 44 12 .12      75    135     19    155    157  29.0   7.1  34050  287.72 0862.44
2015 04 09 13 44 12 .37      92    140     -6    168    169  33.4  -2.1  33964  286.25 0862.44
2015 04 09 13 44 12 .63      85    133      3    159    160  32.6   1.2  33962  286.24 0862.44
2015 04 09 13 44 12 .90      91    133     10    162    163  34.3   3.8  34028  287.35 0862.44
2015 04 09 13 44 13 .15      82    129      7    153    154  32.5   2.8  34032  287.42 0862.44
2015 04 09 13 44 13 .39      60    126     50    140    148  25.5  20.4  34136  289.18 0862.44
2015 04 09 13 44 13 .64      53    114     70    126    144  24.9  31.4  34160  289.58 0862.43
2015 04 09 13 44 13 .89      42    108     72    117    137  21.4  35.0  34140  289.23 0862.43
2015 04 09 13 44 14 .14      54    110     73    123    143  26.3  33.5  34130  289.08 0862.43
2015 04 09 13 44 14 .39      38     88     57     97    112  23.6  33.5  34046  287.65 0862.43
2015 04 09 13 44 14 .65      71    104     62    127    141  34.3  27.3  34078  288.18 0862.43
2015 04 09 13 44 14 .89      87     96     48    130    138  42.3  21.0  34084  288.30 0862.43
2015 04 09 13 44 15 .15     101     95     49    139    148  46.9  19.4  34038  287.52 0862.43
2015 04 09 13 44 15 .39      97    117     30    153    156  39.6  11.1  34078  288.20 0862.43
2015 04 09 13 44 15 .65      90    108     48    141    150  39.7  18.9  34104  288.62 0862.43
2015 04 09 13 44 15 .89      97    121     21    156    158  38.7   7.8  34070  288.04 0862.43
2015 04 09 13 44 16 .14      93    113     23    147    149  39.6   9.0  34046  287.64 0862.43
2015 04 09 13 44 16 .40     100    144     38    176    181  35.0  12.4  34030  287.38 0862.43
2015 04 09 13 44 16 .65     110    144     -3    182    183  37.2  -1.2  33990  286.69 0862.43
2015 04 09 13 44 16 .90     105    165    -11    196    197  32.6  -3.3  33986  286.64 0862.43
2015 04 09 13 44 17 .15     113    166    -39    202    206  34.3 -11.1  33988  286.66 0862.43
2015 04 09 13 44 17 .40     110    156    -34    191    195  35.2 -10.1  33986  286.62 0862.43
2015 04 09 13 44 17 .65     105    155    -22    188    190  34.3  -6.7  33994  286.78 0862.43
2015 04 09 13 44 17 .90     112    149     -2    187    188  37.0  -0.7  33998  286.83 0862.43
2015 04 09 13 44 18 .15     102    141      3    175    176  35.8   1.0  33992  286.73 0862.43
2015 04 09 13 44 18 .40      88    156      3    180    181  29.4   1.2  33994  286.78 0862.43
2015 04 09 13 44 18 .65      60    127    -12    141    142  25.5  -5.2  33998  286.83 0862.43
2015 04 09 13 44 18 .90      88    125    -20    153    155  35.2  -7.5  33996  286.79 0862.43
2015 04 09 13 44 19 .15      85    127     -6    154    155  33.8  -2.2  33996  286.81 0862.43
2015 04 09 13 44 19 .40      71    112     -4    133    134  32.5  -1.8  34004  286.93 0862.43
2015 04 09 13 44 19 .66     106    123    -39    163    168  40.8 -13.7  34000  286.88 0862.43
2015 04 09 13 44 19 .91      97    134    -54    166    175  35.8 -18.1  33998  286.83 0862.43
2015 04 09 13 44 20 .16     112    165     -7    200    201  34.3  -2.2  33996  286.81 0862.43
2015 04 09 13 44 20 .41     105    166     -3    197    198  32.3  -1.2  33998  286.84 0862.43
2015 04 09 13 44 20 .66     126    141    -22    190    192  41.9  -6.7  34000  286.88 0862.43
2015 04 09 13 44 20 .92     105    154    -25    187    189  34.3  -7.7  34006  286.96 0862.43
2015 04 09 13 44 21 .17      90    154      7    179    180  30.5   2.3  34008  287.01 0862.43
2015 04 09 13 44 21 .42      99    135    -11    168    169  36.1  -3.9  34008  287.01 0862.43
2015 04 09 13 44 21 .67      86    135    -20    161    163  32.6  -7.3  34008  287.00 0862.43
2015 04 09 13 44 21 .92      88    106      5    138    139  39.6   2.3  34006  286.98 0862.43
2015 04 09 13 44 22 .17      76    138     14    158    159  29.0   5.2  34032  287.42 0862.43
2015 04 09 13 44 22 .42      98    140      0    172    173  35.0  -0.3  34006  286.98 0862.43
2015 04 09 13 44 22 .67     112    142    -20    181    183  38.3  -6.5  34004  286.93 0862.43
2015 04 09 13 44 22 .92      95    158      9    185    186  31.0   2.8  34010  287.05 0862.43
2015 04 09 13 44 23 .18      88    138      7    165    166  32.6   2.5  34014  287.11 0862.43
2015 04 09 13 44 23 .43      68    170     16    184    185  21.8   5.2  34106  288.65 0862.43
2015 04 09 13 44 23 .67      63    161     27    174    177  21.4   8.8  34122  288.92 0862.43
2015 04 09 13 44 23 .92      56    169      1    179    180  18.5   0.5  34024  287.28 0862.43
2015 04 09 13 44 24 .18      76    170    -20    187    189  24.1  -6.2  34006  286.98 0862.43
2015 04 09 13 44 24 .42      83    166    -24    186    188  26.7  -7.5  34012  287.06 0862.43
2015 04 09 13 44 24 .68      67    153     12    168    169  23.6   4.2  34018  287.16 0862.43
2015 04 09 13 44 24 .92      60    167     11    178    179  19.8   3.6  34014  287.11 0862.43
2015 04 09 13 44 25 .17      55    158     15    168    169  19.2   5.2  34020  287.20 0862.43
2015 04 09 13 44 25 .44      65    141     -6    156    157  24.9  -2.2  34032  287.42 0862.43
2015 04 09 13 44 25 .68      67    143    -15    159    160  25.3  -5.6  34064  287.96 0862.43
2015 04 09 13 44 25 .93      84    164    -14    185    186  27.2  -4.6  34072  288.09 0862.43
2015 04 09 13 44 26 .17      75    144    -33    163    167  27.6 -11.6  34038  287.52 0862.43
2015 04 09 13 44 26 .43      55    139    -33    150    154  21.8 -12.6  34014  287.10 0862.43
2015 04 09 13 44 26 .69      65    134    -17    149    151  25.9  -6.7  34022  287.23 0862.43
2015 04 09 13 44 26 .94      52    137    -18    147    149  20.9  -7.3  34012  287.06 0862.43
2015 04 09 13 44 27 .20      54     94     17    109    111  29.9   9.0  34092  288.42 0862.43
2015 04 09 13 44 27 .44      59    115     26    130    133  27.2  11.6  34142  289.28 0862.43
2015 04 09 13 44 27 .70      63    114     25    131    134  29.0  11.0  34144  289.30 0862.43
2015 04 09 13 44 27 .94      69    105     63    126    140  33.4  28.2  34156  289.52 0862.43
2015 04 09 13 44 28 .19      65    118     48    135    143  29.0  20.0  34112  288.77 0862.43
2015 04 09 13 44 28 .44      66    136      6    152    153  25.9   2.3  34092  288.42 0862.43
2015 04 09 13 44 28 .70      45    135     -3    143    144  18.7  -1.3  34066  287.99 0862.43
2015 04 09 13 44 28 .95      46    159      0    166    167  16.3  -0.3  34132  289.11 0862.43
2015 04 09 13 44 29 .20      43    160     -6    166    167  15.1  -2.2  34096  288.48 0862.43
2015 04 09 13 44 29 .44      57    121      4    134    135  25.4   1.8  34162  289.62 0862.43
2015 04 09 13 44 29 .69      46    101     13    112    113  24.5   6.9  34166  289.69 0862.43
2015 04 09 13 44 29 .95      60    119     39    134    140  26.7  16.3  34132  289.11 0862.43
2015 04 09 13 44 30 .20      55    154     30    164    167  20.0  10.6  34146  289.35 0862.44
2015 04 09 13 44 30 .45      65    118    -17    136    138  29.0  -7.2  34094  288.45 0862.44
2015 04 09 13 44 30 .70      55    108    -15    122    124  27.2  -7.3  34080  288.21 0862.44
2015 04 09 13 44 30 .95      44     91     -5    102    103  25.9  -3.1  34142  289.28 0862.44
2015 04 09 13 44 31 .21      90     53    -29    105    110  59.3 -15.5  34156  289.52 0862.44
2015 04 09 13 44 31 .45      24     62      8     67     68  21.8   6.9  34180  289.92 0862.44
2015 04 09 13 44 31 .70      14     72     34     74     81  11.6  26.2  34160  289.58 0862.44
2015 04 09 13 44 31 .95      42     65     55     78     95  33.4  38.0  34168  289.70 0862.44
2015 04 09 13 44 32 .20      86     42     85     96    128  63.8  45.9  34224  290.65 0862.44
2015 04 09 13 44 32 .45      50    100     55    113    125  26.7  27.8  34210  290.41 0862.44
2015 04 09 13 44 32 .70      36    107     33    113    118  18.7  16.3  34168  289.72 0862.43
2015 04 09 13 44 32 .96      57     85      0    103    104  34.3   0.2  34106  288.65 0862.43
2015 04 09 13 44 33 .20      86     74    -43    114    121  49.1 -25.4  33990  286.71 0862.43
2015 04 09 13 44 33 .45      80     73    -19    109    111  47.3 -10.3  33986  286.64 0862.43
2015 04 09 13 44 33 .71      80     74      0    110    111  47.3  -0.3  33990  286.71 0862.43
2015 04 09 13 44 33 .96      65     78      5    102    103  40.1   2.9  33988  286.67 0862.43
2015 04 09 13 44 34 .22      72     63      3     96     97  48.7   2.3  33990  286.71 0862.43
2015 04 09 13 44 34 .47      76     60     -3     97     98  51.8  -2.2  33988  286.66 0862.43
2015 04 09 13 44 34 .71      75     58      4     96     97  52.2   2.8  33984  286.59 0862.43
2015 04 09 13 44 34 .97      78     61    -14    100    102  51.8  -8.2  33992  286.74 0862.43
2015 04 09 13 44 35 .22      83     53     19     99    101  57.5  11.1  34050  287.70 0862.43
2015 04 09 13 44 35 .47      59     47     26     76     81  51.4  18.9  34062  287.91 0862.43
2015 04 09 13 44 35 .72      69     33     85     77    114  64.6  52.7  34134  289.13 0862.43
2015 04 09 13 44 35 .97      63     41     74     76    106  56.7  50.0  34068  288.03 0862.43
2015 04 09 13 44 36 .22      73     37     45     82     93  62.9  30.8  34064  287.94 0862.43
2015 04 09 13 44 36 .48      41     50     45     65     79  39.6  38.0  34110  288.74 0862.43
2015 04 09 13 44 36 .72      32     75     36     82     89  23.6  25.7  34114  288.80 0862.43
2015 04 09 13 44 36 .97      35     74     34     83     89  25.4  23.0  34058  287.86 0862.43
2015 04 09 13 44 37 .22      42     67     59     80     99  32.5  39.7  34086  288.31 0862.43
2015 04 09 13 44 37 .47      69     74     46    102    111  43.2  26.2  34054  287.79 0862.43
2015 04 09 13 44 37 .72      54     98     32    113    118  28.9  15.8  33996  286.79 0862.43
2015 04 09 13 44 37 .97      44    107     36    116    122  22.3  17.3  33990  286.69 0862.43
2015 04 09 13 44 38 .22      35    105     34    111    117  18.7  17.3  33998  286.83 0862.43
2015 04 09 13 44 38 .47      27    100     34    104    110  15.1  18.4  33994  286.78 0862.43
2015 04 09 13 44 38 .72      21    113     39    116    123  10.7  18.9  33992  286.74 0862.43
2015 04 09 13 44 38 .98      23    113     43    116    123  11.6  21.0  33998  286.84 0862.43
2015 04 09 13 44 39 .23       5    111     45    112    120   2.7  23.0  34066  287.99 0862.43
2015 04 09 13 44 39 .48       0     86     67     87    109   0.0  41.7  34120  288.91 0862.43
2015 04 09 13 44 39 .72      31     89     53     95    108  19.2  31.4  34062  287.91 0862.43
2015 04 09 13 44 39 .98      25     97     63    101    119  14.7  35.5  34060  287.89 0862.43
2015 04 09 13 44 40 .23     -18    109     74    111    133 350.7  36.5  34100  288.55 0862.43
2015 04 09 13 44 40 .49      -9    117     93    118    150 355.5  42.7  34108  288.70 0862.43
2015 04 09 13 44 40 .75      -8    105     83    106    134 355.5  41.7  34096  288.50 0862.43
2015 04 09 13 44 40 .99      -1    111     77    112    135 359.1  37.6  34156  289.50 0862.43
2015 04 09 13 44 41 .25      -1    102     63    103    120 359.1  34.4  34156  289.50 0862.43
2015 04 09 13 44 41 .49      19    124     52    126    136   8.9  23.6  34126  288.99 0862.43
2015 04 09 13 44 41 .75      30    112     48    116    125  15.1  23.6  34154  289.46 0862.43
2015 04 09 13 44 41 .99      15    108     48    110    120   8.1  25.1  34170  289.74 0862.43
2015 04 09 13 44 42 .25      29    111      5    115    116  14.7   2.8  34160  289.57 0862.43
2015 04 09 13 44 42 .49      31    110     13    115    116  16.0   6.9  34160  289.58 0862.43
2015 04 09 13 44 42 .75      30     96     48    101    111  17.8  27.2  34182  289.96 0862.43
2015 04 09 13 44 42 .99      32     80     39     87     95  21.8  26.2  34194  290.16 0862.43
2015 04 09 13 44 43 .24      10    108      5    109    110   5.3   2.9  34074  288.11 0862.43
2015 04 09 13 44 43 .50      19    106     16    108    110  10.2   8.5  34092  288.43 0862.43
2015 04 09 13 44 43 .74      -5    108     22    109    112 356.9  11.6  34082  288.25 0862.43
2015 04 09 13 44 44 .02      46    101     43    111    119  24.5  22.0  34180  289.91 0862.43
2015 04 09 13 44 44 .25      19    124     24    126    129   8.9  11.0  34030  287.38 0862.43
2015 04 09 13 44 44 .49       3    111     13    112    113   1.8   6.9  34008  287.01 0862.43
2015 04 09 13 44 44 .76       5    118      9    119    120   2.7   4.4  33984  286.59 0862.43
2015 04 09 13 44 45 .01      19    105     33    107    113  10.7  17.3  34074  288.11 0862.43
2015 04 09 13 44 45 .25       0    108     26    109    113 359.6  13.7  34026  287.30 0862.43
2015 04 09 13 44 45 .51      -8    108     25    109    112 355.5  13.2  34004  286.94 0862.42
2015 04 09 13 44 45 .75      38    117     46    124    132  18.3  21.0  34088  288.36 0862.42
2015 04 09 13 44 46 .01      47    114     33    124    129  22.7  15.2  34108  288.69 0862.42
2015 04 09 13 44 46 .25      64     93     41    114    121  34.7  20.9  34186  290.02 0862.42
2015 04 09 13 44 46 .50      56     91     37    107    114  31.6  19.4  34124  288.96 0862.42
2015 04 09 13 44 46 .75      35     95     27    102    106  20.5  15.3  34108  288.69 0862.42
2015 04 09 13 44 47 .01      22    111     35    114    120  11.6  17.3  34084  288.30 0862.42
2015 04 09 13 44 47 .25      16    102     21    104    107   9.3  11.6  34088  288.36 0862.42
2015 04 09 13 44 47 .52      31    101     22    106    109  17.4  12.2  34128  289.02 0862.42
2015 04 09 13 44 47 .77      34     72     39     80     89  25.4  27.3  34128  289.04 0862.42
2015 04 09 13 44 48 .02       8     92     36     93     99   5.3  22.0  34096  288.48 0862.42
2015 04 09 13 44 48 .27      34     83      4     90     91  22.7   2.9  34028  287.33 0862.42
2015 04 09 13 44 48 .52      54    105    -32    119    124  27.2 -15.4  34014  287.10 0862.42
2015 04 09 13 44 48 .77      66    134    -21    150    152  26.3  -8.2  34052  287.74 0862.42
2015 04 09 13 44 49 .02      45    104    -22    114    117  23.6 -11.3  34064  287.94 0862.43
2015 04 09 13 44 49 .28      54     73    -32     92     98  36.5 -19.1  34088  288.36 0862.43
2015 04 09 13 44 49 .52      40     82    -24     92     96  25.9 -15.0  34066  287.98 0862.43
2015 04 09 13 44 49 .77      48     95     -4    107    108  26.7  -2.2  34066  287.98 0862.43
2015 04 09 13 44 50 .02      38     78    -36     88     95  26.3 -28.0  34066  287.98 0862.43
2015 04 09 13 44 50 .27      32     95    -41    101    109  18.7 -27.4  34030  287.37 0862.43
2015 04 09 13 44 50 .52      28    107    -32    111    116  15.1 -16.0  34032  287.42 0862.43
2015 04 09 13 44 50 .77       7     93    -24     94     98   4.5 -14.5  34046  287.65 0862.43
2015 04 09 13 44 51 .03       0     60    -16     61     64   0.9 -15.4  34052  287.74 0862.43
2015 04 09 13 44 51 .28      -7     71     -2     72     73 353.8  -2.2  34062  287.92 0862.43
2015 04 09 13 44 51 .52      22     79      4     83     84  15.6   2.9  34058  287.84 0862.43
2015 04 09 13 44 51 .78      61     84     -6    104    105  36.0  -3.7  34058  287.84 0862.43
2015 04 09 13 44 52 .03      23     63     30     68     74  20.0  25.1  34164  289.63 0862.43
2015 04 09 13 44 52 .28       6     71     34     72     79   5.3  27.2  34196  290.18 0862.43
2015 04 09 13 44 52 .53      16     65      8     68     69  14.3   6.9  34114  288.79 0862.43
2015 04 09 13 44 52 .78      19     63     25     66     70  16.9  22.0  34142  289.26 0862.43
2015 04 09 13 44 53 .03      27     49     11     57     59  29.0  11.1  34132  289.09 0862.43
2015 04 09 13 44 53 .28      34     56     18     66     69  31.6  15.3  34164  289.65 0862.43
2015 04 09 13 44 53 .54      43     68     44     81     92  32.5  30.8  34176  289.84 0862.43
2015 04 09 13 44 53 .77      76     72     52    105    117  46.4  27.8  34226  290.70 0862.43
2015 04 09 13 44 54 .03      63     87     38    108    115  36.0  19.4  34158  289.55 0862.43
2015 04 09 13 44 54 .28      76     64     39    100    107  50.0  22.0  34278  291.57 0862.43
2015 04 09 13 44 54 .54      63     41     34     76     83  56.7  25.7  34250  291.09 0862.43
2015 04 09 13 44 54 .79      59     50      7     78     79  49.6   5.4  34162  289.60 0862.43
2015 04 09 13 44 55 .05      40     49      3     64     65  39.6   2.9  34206  290.35 0862.43
2015 04 09 13 44 55 .29      55     12     20     57     61  77.6  19.4  34216  290.52 0862.43
2015 04 09 13 44 55 .55      55     12     27     57     63  77.6  27.2  34194  290.14 0862.42
2015 04 09 13 44 55 .79      76     19     67     79    103  75.8  44.8  34158  289.55 0862.42
2015 04 09 13 44 56 .05      29      9     70     31     76  71.6  75.0  34148  289.36 0862.42
2015 04 09 13 44 56 .29      49     10     74     51     89  77.6  62.6  34158  289.53 0862.42
2015 04 09 13 44 56 .55      53      1     52     54     74  88.3  51.1  34148  289.36 0862.42
2015 04 09 13 44 56 .80      56     -6     55     57     79  97.0  49.4  34190  290.08 0862.42
2015 04 09 13 44 57 .05      37     -7     57     38     68 101.5  64.6  34192  290.11 0862.42
2015 04 09 13 44 57 .29      34     -5     54     35     64  99.7  64.6  34190  290.09 0862.42
2015 04 09 13 44 57 .55      24     47     50     53     72  27.2  48.0  34184  289.97 0862.42
2015 04 09 13 44 57 .80      19     30     45     36     57  32.5  56.4  34196  290.19 0862.42
2015 04 09 13 44 58 .05      38     46     50     61     78  39.6  43.7  34174  289.82 0862.42
2015 04 09 13 44 58 .30      43     56     47     71     85  37.8  36.5  34150  289.41 0862.42
2015 04 09 13 44 58 .55      30     47     48     56     73  32.5  44.8  34150  289.41 0862.42
2015 04 09 13 44 58 .80      31     31     52     45     68  45.1  55.4  34138  289.19 0862.42
2015 04 09 13 44 59 .06      25     51     59     57     82  26.3  50.7  34152  289.45 0862.42
2015 04 09 13 44 59 .30      22     84     62     87    106  14.7  39.1  34176  289.85 0862.41
2015 04 09 13 44 59 .55      53     99     39    113    120  28.1  19.2  33990  286.71 0862.41
2015 04 09 13 44 59 .81      61    101     19    119    121  31.2   9.5  34004  286.93 0862.41
2015 04 09 13 45 00 .05      53     97     21    111    114  28.9  11.1  34004  286.93 0862.41
2015 04 09 13 45 00 .30      52     94      5    108    109  28.9   2.9  33992  286.73 0862.41
2015 04 09 13 45 00 .55      46     95      2    106    107  26.3   1.2  33978  286.51 0862.41
2015 04 09 13 45 00 .80      30     90      0     96     97  18.7  -0.3  33970  286.37 0862.41
2015 04 09 13 45 01 .06      50     82      3     97     98  31.6   2.3  33968  286.32 0862.41
2015 04 09 13 45 01 .32      49     78      8     93     94  32.1   5.4  33964  286.27 0862.41
2015 04 09 13 45 01 .56      44     82      4     94     95  28.5   2.9  33966  286.29 0862.41
2015 04 09 13 45 01 .82      41     91      1    100    101  24.5   0.8  33966  286.29 0862.41
2015 04 09 13 45 02 .07      36    109     -3    115    116  18.5  -1.8  33968  286.34 0862.41
2015 04 09 13 45 02 .32      31    101     13    106    107  17.4   7.1  33968  286.32 0862.41
2015 04 09 13 45 02 .57      36     95      5    102    103  20.9   2.9  33970  286.35 0862.41
2015 04 09 13 45 02 .82      34     97      5    104    105  19.6   2.8  33970  286.37 0862.41
2015 04 09 13 45 03 .07      30     90      0     96     97  18.7  -0.3  33970  286.37 0862.41
2015 04 09 13 45 03 .32      29     93     -3     98     99  17.4  -2.2  33968  286.34 0862.41
2015 04 09 13 45 03 .57      41     91      1    100    101  24.5   0.8  33966  286.29 0862.41
2015 04 09 13 45 03 .82      50     82      3     97     98  31.6   2.3  33968  286.32 0862.41
2015 04 09 13 45 04 .07      45     75     -1     88     89  31.2  -1.3  33968  286.32 0862.41
2015 04 09 13 45 04 .32      46     78      3     91     92  30.7   2.3  33968  286.34 0862.41
2015 04 09 13 45 04 .57      49     82     -3     96     97  31.2  -2.2  33972  286.41 0862.41
2015 04 09 13 45 04 .82      53     80    -12     97     98  33.4  -7.3  33978  286.51 0862.41
2015 04 09 13 45 05 .07      62     83     -9    104    105  37.0  -5.2  33974  286.44 0862.41
2015 04 09 13 45 05 .32      53     83    -12     99    100  32.6  -7.2  33970  286.35 0862.41
2015 04 09 13 45 05 .58      52     73    -18     90     92  35.6 -11.3  33968  286.32 0862.41
2015 04 09 13 45 05 .83      66     79    -28    104    108  40.1 -15.4  33970  286.35 0862.41
2015 04 09 13 45 06 .08      58     79    -29     99    104  36.5 -16.6  33972  286.39 0862.41
2015 04 09 13 45 06 .33      54     88    -30    104    108  31.6 -20.7  33976  286.46 0862.41
2015 04 09 13 45 06 .58      48     78    -32     92     98  31.6 -19.1  33978  286.51 0862.41
2015 04 09 13 45 06 .83      58     71    -32     92     97  39.2 -23.3  33976  286.47 0862.41
2015 04 09 13 45 07 .08      57     67    -26     89     93  40.5 -16.6  33984  286.61 0862.41
2015 04 09 13 45 07 .34      73     62    -26     96    100  49.6 -15.5  34006  286.98 0862.41
2015 04 09 13 45 07 .58      51     80    -26     96    100  32.6 -15.5  34016  287.15 0862.41
2015 04 09 13 45 07 .83      65     64     -9     92     93  45.4  -5.6  34020  287.21 0862.41
2015 04 09 13 45 08 .08      67     66      2     95     96  45.6   1.2  34014  287.10 0862.41
2015 04 09 13 45 08 .35      97     46    -30    108    113  64.2 -15.5  34030  287.38 0862.41
2015 04 09 13 45 08 .60      61     70    -32     93     99  41.0 -19.1  34036  287.47 0862.41
2015 04 09 13 45 08 .85      64     43    -21     78     81  55.8 -15.5  34054  287.79 0862.41
2015 04 09 13 45 09 .09      67     36      3     77     78  62.0   2.9  34062  287.92 0862.41
2015 04 09 13 45 09 .40      94     35     16    101    103  69.6   9.0  34028  287.35 0862.41
2015 04 09 13 45 09 .60      72     28     10     78     79  68.3   7.5  34036  287.49 0862.41
2015 04 09 13 45 09 .84      64     36     14     74     76  60.2  11.1  34036  287.49 0862.41
2015 04 09 13 45 10 .09      78     46     22     91     94  59.3  13.7  34028  287.35 0862.40
2015 04 09 13 45 10 .35      82     29     28     87     92  70.5  17.9  34032  287.42 0862.40
2015 04 09 13 45 10 .60      81     56     25     99    103  55.4  14.3  34024  287.28 0862.40
2015 04 09 13 45 10 .85      80     71     43    108    116  48.2  23.0  34026  287.32 0862.40
2015 04 09 13 45 11 .11     106     74     48    130    138  54.9  21.0  34096  288.50 0862.40
2015 04 09 13 45 11 .35     104     67     36    125    131  57.1  16.3  34000  286.86 0862.40
2015 04 09 13 45 11 .60     108     63     34    126    131  59.8  15.2  34000  286.86 0862.40
2015 04 09 13 45 11 .86     123     53     46    135    143  66.5  18.9  34068  288.03 0862.40
2015 04 09 13 45 12 .10     119     39     30    126    130  71.8  13.7  33992  286.73 0862.40
2015 04 09 13 45 12 .36     113     62     30    130    134  61.2  13.2  33990  286.71 0862.40
2015 04 09 13 45 12 .60     104     53      5    117    118  62.9   2.8  33992  286.73 0862.40
2015 04 09 13 45 12 .85     110     44     10    119    120  68.2   4.9  33994  286.78 0862.40
2015 04 09 13 45 13 .10      95     52     -3    109    110  61.1  -1.8  33994  286.78 0862.40
2015 04 09 13 45 13 .35      94     41     -4    103    104  66.5  -2.2  33992  286.74 0862.40
2015 04 09 13 45 13 .60     115     45    -12    124    125  68.3  -5.6  33994  286.78 0862.40
2015 04 09 13 45 13 .85     113     41     -2    121    122  70.0  -1.2  33994  286.76 0862.40
2015 04 09 13 45 14 .11     109     41     -4    117    118  69.2  -2.2  33990  286.69 0862.40
2015 04 09 13 45 14 .36      88     48     -8    101    102  61.1  -4.6  33992  286.74 0862.40
2015 04 09 13 45 14 .61      82     44     -3     94     95  61.6  -2.2  33990  286.71 0862.40
2015 04 09 13 45 14 .86      56     41    -14     70     72  54.0 -11.3  33992  286.74 0862.40
2015 04 09 13 45 15 .11      57     41    -19     71     74  54.0 -15.5  33988  286.66 0862.40
2015 04 09 13 45 15 .37      78     40    -27     88     93  62.5 -17.0  33994  286.78 0862.40
2015 04 09 13 45 15 .62      69     41    -21     81     84  59.3 -14.5  33988  286.67 0862.40
2015 04 09 13 45 15 .87      79     40    -11     89     90  62.9  -7.3  33982  286.56 0862.40
2015 04 09 13 45 16 .12      87     29     17     92     94  71.4  10.6  34000  286.88 0862.40
2015 04 09 13 45 16 .38      83     40      4     93     94  64.2   2.9  33998  286.83 0862.40
2015 04 09 13 45 16 .62      95     38     20    103    106  68.3  11.1  34024  287.28 0862.40
2015 04 09 13 45 16 .88      80     33     17     87     89  67.4  11.1  34016  287.15 0862.40
2015 04 09 13 45 17 .12      79     26     25     84     88  71.8  16.8  34014  287.11 0862.40
2015 04 09 13 45 17 .37      74     24     27     78     83  71.8  19.2  34016  287.13 0862.40
2015 04 09 13 45 17 .62      68     37     26     78     83  61.1  18.9  33998  286.83 0862.40
2015 04 09 13 45 17 .88      54     50     32     74     80  46.9  25.1  34000  286.88 0862.40
2015 04 09 13 45 18 .13      92     55     50    108    119  59.3  27.1  33988  286.66 0862.40
2015 04 09 13 45 18 .38      81     27     18     86     88  71.6  12.2  33990  286.71 0862.40
2015 04 09 13 45 18 .63      82     36     -3     90     91  66.0  -2.2  33990  286.71 0862.40
2015 04 09 13 45 18 .88      83     55    -14    100    102  56.3  -8.2  33974  286.42 0862.40
2015 04 09 13 45 19 .13      84     68    -29    109    113  50.9 -15.0  33976  286.46 0862.40
2015 04 09 13 45 19 .38      83     65    -29    106    111  51.8 -15.5  33976  286.47 0862.40
2015 04 09 13 45 19 .63      90     53    -29    105    110  59.3 -15.5  33978  286.49 0862.40
2015 04 09 13 45 19 .88      72     49    -30     88     92  55.4 -23.3  33978  286.51 0862.40
2015 04 09 13 45 20 .13      56     46    -32     73     79  50.5 -29.0  33980  286.52 0862.40
2015 04 09 13 45 20 .38      46     46    -27     66     71  45.1 -27.4  33980  286.52 0862.40
2015 04 09 13 45 20 .63      55     56    -25     79     82  44.2 -22.8  33982  286.56 0862.40
2015 04 09 13 45 20 .88      53     50    -27     74     78  46.8 -23.3  33982  286.57 0862.40
2015 04 09 13 45 21 .13      46     46    -27     66     71  45.1 -27.4  33986  286.62 0862.40
2015 04 09 13 45 21 .38      43     46    -25     64     68  43.3 -25.4  33984  286.61 0862.40
2015 04 09 13 45 21 .63      50     49    -31     71     77  45.9 -29.5  33980  286.52 0862.40
2015 04 09 13 45 21 .88      43     54    -32     70     76  38.7 -31.5  33980  286.54 0862.40
2015 04 09 13 45 22 .13      37     59    -25     70     74  32.5 -23.3  33982  286.56 0862.40
2015 04 09 13 45 22 .39      30     47    -20     56     60  32.5 -19.7  33982  286.56 0862.40
2015 04 09 13 45 22 .65      22     46    -17     52     55  25.5 -18.7  33976  286.47 0862.40
2015 04 09 13 45 22 .89      21     44    -11     49     51  25.5 -13.4  33980  286.52 0862.40
2015 04 09 13 45 23 .14      27     43    -14     52     54  32.5 -15.4  33984  286.61 0862.40
2015 04 09 13 45 23 .40      34     55    -28     65     70  31.6 -29.5  33986  286.64 0862.40
2015 04 09 13 45 23 .65      30     75    -23     81     84  21.8 -21.2  33998  286.84 0862.40
2015 04 09 13 45 23 .90      43     47    -12     64     66  42.3 -11.3  34002  286.89 0862.40
2015 04 09 13 45 24 .15      50     47      0     69     70  46.9  -0.3  34000  286.86 0862.40
2015 04 09 13 45 24 .40      50     47     -5     69     70  46.9  -4.1  33994  286.78 0862.40
2015 04 09 13 45 24 .65      50     37     -5     63     64  53.1  -5.2  33988  286.66 0862.40
2015 04 09 13 45 24 .90      55     39    -16     68     70  54.9 -13.4  33990  286.71 0862.40
2015 04 09 13 45 25 .15      52     25      2     58     59  63.8   2.9  33988  286.66 0862.40
2015 04 09 13 45 25 .40      37     24     12     45     47  57.5  15.3  33990  286.69 0862.40
2015 04 09 13 45 25 .65      52     41     10     67     68  52.2   9.0  33986  286.64 0862.39
2015 04 09 13 45 25 .90      66     49    -11     83     84  53.6  -7.7  33984  286.61 0862.39
2015 04 09 13 45 26 .15      62     64    -15     90     92  44.1  -9.8  33978  286.51 0862.39
2015 04 09 13 45 26 .40      62     69    -11     93     94  41.9  -7.3  33984  286.61 0862.39
2015 04 09 13 45 26 .65      51     63    -18     82     84  38.7 -12.4  33982  286.57 0862.39
2015 04 09 13 45 26 .91      29     63    -19     70     73  25.3 -15.5  33988  286.67 0862.39
2015 04 09 13 45 27 .15      37     75    -32     84     89  26.3 -25.9  33984  286.59 0862.39
2015 04 09 13 45 27 .41      52     63    -23     82     85  39.6 -20.7  33986  286.64 0862.39
2015 04 09 13 45 27 .65      46     46    -27     66     71  45.1 -27.4  33990  286.69 0862.39
2015 04 09 13 45 27 .91      46     56    -27     73     77  39.7 -24.4  33986  286.62 0862.39
2015 04 09 13 45 28 .16      38     59    -14     71     73  32.5 -11.3  33986  286.64 0862.39
2015 04 09 13 45 28 .41      27     54      5     61     62  27.2   4.9  33984  286.59 0862.39
2015 04 09 13 45 28 .66      23     53      7     58     59  23.6   7.1  33988  286.67 0862.39
2015 04 09 13 45 28 .91      12     50     12     52     54  14.3  13.2  33990  286.69 0862.39
2015 04 09 13 45 29 .17      16     49     -3     52     53  18.5  -4.1  33988  286.67 0862.40
2015 04 09 13 45 29 .42      14     54     -7     56     57  15.1  -7.3  33986  286.64 0862.40
2015 04 09 13 45 29 .67      -3     57      0     58     59 356.4   0.8  33986  286.64 0862.40
2015 04 09 13 45 29 .92      -4     51     14     52     54 355.5  15.3  33990  286.71 0862.40
2015 04 09 13 45 30 .17       2     44      1     45     46   3.6   1.8  33992  286.74 0862.40
2015 04 09 13 45 30 .42       5     45    -11     46     48   7.1 -13.4  33988  286.66 0862.40
2015 04 09 13 45 30 .67       0     39     -7     40     41   0.0 -10.3  33990  286.69 0862.40
2015 04 09 13 45 30 .92       0     43     -1     44     45   0.0  -2.2  33992  286.74 0862.40
2015 04 09 13 45 31 .17       0     48     -6     49     50   0.9  -7.3  33990  286.69 0862.40
2015 04 09 13 45 31 .43       3     52      0     53     54   3.6   0.8  34058  287.86 0862.40
2015 04 09 13 45 31 .67      12     50     18     52     56  14.3  18.9  34052  287.74 0862.40
2015 04 09 13 45 31 .92      -8     54      2     55     56 351.1   2.9  34016  287.15 0862.40
2015 04 09 13 45 32 .18       0     57     -2     58     59 359.1  -2.2  34004  286.93 0862.40
2015 04 09 13 45 32 .43     -12     53     -7     55     56 346.6  -7.3  33990  286.69 0862.40
2015 04 09 13 45 32 .68       0     57    -15     58     60 359.1 -14.5  34000  286.88 0862.40
2015 04 09 13 45 32 .93       2     51    -13     52     54   2.7 -14.5  34008  287.01 0862.40
2015 04 09 13 45 33 .18      -3     54    -13     55     57 356.4 -13.4  34002  286.91 0862.40
2015 04 09 13 45 33 .43       4     58    -15     59     61   4.5 -14.5  34002  286.91 0862.40
2015 04 09 13 45 33 .68      -1     57    -16     58     61 358.2 -15.5  34012  287.08 0862.40
2015 04 09 13 45 33 .93      -1     57    -16     58     61 358.2 -15.5  34012  287.08 0862.40
2015 04 09 13 45 34 .18       4     56    -10     57     58   4.5 -10.3  34010  287.03 0862.40
2015 04 09 13 45 34 .43       4     56     -2     57     58   4.5  -2.2  34014  287.11 0862.40
2015 04 09 13 45 34 .68      14     62     -1     64     65  13.4  -1.3  34010  287.03 0862.40
2015 04 09 13 45 34 .94      23     70      6     74     75  18.3   4.9  34016  287.13 0862.40
2015 04 09 13 45 35 .18      32     58      8     67     68  29.0   6.9  34022  287.25 0862.40
2015 04 09 13 45 35 .43      25     51     11     57     59  26.3  11.0  34022  287.23 0862.40
2015 04 09 13 45 35 .68      19     37     18     42     45  27.2  24.1  34020  287.20 0862.40
2015 04 09 13 45 35 .93       3     48     18     49     52   4.5  20.0  34022  287.25 0862.40
2015 04 09 13 45 36 .20       6     49     13     50     52   8.0  15.3  34022  287.25 0862.40
2015 04 09 13 45 36 .45       8     62      7     63     64   8.1   6.9  34026  287.30 0862.40
2015 04 09 13 45 36 .70      23     45      0     51     52  27.2   0.8  34034  287.43 0862.40
2015 04 09 13 45 36 .95      26     42     11     50     52  32.5  13.2  34036  287.49 0862.40
2015 04 09 13 45 37 .19      19     37     19     42     46  28.1  25.1  34036  287.47 0862.40
2015 04 09 13 45 37 .45      -5     42      6     43     44 352.0   9.0  34030  287.38 0862.39
2015 04 09 13 45 37 .70      -7     36     -2     37     38 348.5  -3.1  34046  287.65 0862.39
2015 04 09 13 45 37 .95     -14     40      3     43     44 340.8   4.9  34034  287.45 0862.39
2015 04 09 13 45 38 .21     -17     40      6     44     45 336.4   8.0  34060  287.87 0862.39
2015 04 09 13 45 38 .45     -16     37      8     41     42 336.4  11.1  34088  288.36 0862.39
2015 04 09 13 45 38 .70      -2     33     12     34     37 355.5  19.2  34084  288.28 0862.39
2015 04 09 13 45 38 .95     -16     30     16     35     38 331.0  25.1  34094  288.45 0862.39
2015 04 09 13 45 39 .20     -25     42     24     49     54 329.3  27.2  34108  288.69 0862.40
2015 04 09 13 45 39 .45      -9     59     29     60     66 351.1  27.2  34068  288.03 0862.40
2015 04 09 13 45 39 .71      -9     64     32     65     72 352.0  27.3  34076  288.16 0862.40
2015 04 09 13 45 39 .95     -10     59     30     60     67 350.2  28.2  34082  288.25 0862.40
2015 04 09 13 45 40 .20      -8     55     39     56     68 351.1  38.6  34074  288.13 0862.40
2015 04 09 13 45 40 .45       0     44     25     45     51   0.0  31.4  34050  287.70 0862.40
2015 04 09 13 45 40 .71      -1     56     15     57     60 358.2  15.3  34052  287.76 0862.40
2015 04 09 13 45 40 .96      -7     64     10     65     66 353.8   9.0  34052  287.76 0862.40
2015 04 09 13 45 41 .21     -10     59     23     60     64 350.2  21.0  34082  288.26 0862.40
2015 04 09 13 45 41 .47     -16     59     21     62     66 344.9  18.9  34102  288.58 0862.40
2015 04 09 13 45 41 .71     -10     50     23     52     56 348.4  25.1  34120  288.91 0862.40
2015 04 09 13 45 41 .96     -24     64     42     69     80 339.1  34.0  34106  288.65 0862.40
2015 04 09 13 45 42 .21      -8     63     32     64     71 352.0  27.3  34108  288.69 0862.40
2015 04 09 13 45 42 .46      -9     41     30     43     52 347.5  38.6  34128  289.04 0862.40
2015 04 09 13 45 42 .71     -16     62     36     65     74 344.9  31.4  34124  288.96 0862.40
2015 04 09 13 45 42 .97     -21     52     17     57     60 338.2  17.3  34124  288.96 0862.40
2015 04 09 13 45 43 .22     -37     49     15     62     64 323.0  14.3  34126  288.99 0862.40
2015 04 09 13 45 43 .48     -18     41     20     45     49 336.4  24.1  34140  289.24 0862.40
2015 04 09 13 45 43 .72     -17     51     28     54     60 341.5  30.3  34122  288.92 0862.40
2015 04 09 13 45 43 .97      -6     54     10     55     57 352.9  11.1  34070  288.06 0862.40
2015 04 09 13 45 44 .24      13     75     10     77     78   9.8   7.5  34094  288.45 0862.40
2015 04 09 13 45 44 .48     -16     63     45     66     79 345.7  37.6  34160  289.58 0862.40
2015 04 09 13 45 44 .72      -9     68     43     69     81 352.0  35.0  34180  289.91 0862.40
2015 04 09 13 45 44 .97       4     58     26     59     64   4.5  24.1  34112  288.77 0862.40
2015 04 09 13 45 45 .23      18     53     11     57     59  19.2  11.1  34018  287.16 0862.40
2015 04 09 13 45 45 .47      13     50     25     52     57  15.1  27.2  34044  287.60 0862.40
2015 04 09 13 45 45 .73       6     51     14     52     54   7.1  15.3  34058  287.84 0862.40
2015 04 09 13 45 45 .98       2     52     17     53     56   2.7  18.4  34072  288.08 0862.40
2015 04 09 13 45 46 .23     -15     59     32     61     68 345.7  29.3  34088  288.36 0862.40
2015 04 09 13 45 46 .48      15     37     27     41     49  22.7  36.5  34042  287.57 0862.39
2015 04 09 13 45 46 .73      11     34     18     36     40  18.5  29.3  34028  287.35 0862.39
2015 04 09 13 45 46 .98      11     34     18     36     40  18.5  29.3  34022  287.25 0862.39
2015 04 09 13 45 47 .24       8     22     22     24     32  20.0  50.0  34038  287.52 0862.39
2015 04 09 13 45 47 .48      12     25     25     28     37  25.4  47.9  34042  287.59 0862.39
2015 04 09 13 45 47 .73       7     26     27     27     38  15.1  50.1  34050  287.72 0862.39
2015 04 09 13 45 47 .98       8     34     27     35     44  13.4  42.7  34058  287.84 0862.39
2015 04 09 13 45 48 .24      -7     38     25     39     46 348.4  35.6  34084  288.30 0862.40
2015 04 09 13 45 48 .48     -10     41     16     43     45 345.7  20.0  34074  288.13 0862.40
2015 04 09 13 45 48 .73       0     35     -3     36     37 359.1  -5.2  34056  287.81 0862.40
2015 04 09 13 45 48 .98      -6     33     -1     34     35 348.5  -2.2  34056  287.82 0862.40
2015 04 09 13 45 49 .24       0     17      0     18     19 357.3  -2.2  34052  287.76 0862.40
2015 04 09 13 45 49 .49      -5     23     -7     24     26 346.6 -17.6  34062  287.91 0862.40
2015 04 09 13 45 49 .74      -1     16      6     17     19 355.6  19.4  34066  287.99 0862.40
2015 04 09 13 45 49 .99       2     17     16     18     24   8.0  50.0  34068  288.01 0862.39
2015 04 09 13 45 50 .25      -1      8     26      9     27 348.4  81.0  34072  288.08 0862.39
2015 04 09 13 45 50 .50       0     14     27     15     30 357.3  68.8  34096  288.48 0862.39
2015 04 09 13 45 50 .75       0      5     27      6     27 357.3  89.0  34124  288.96 0862.39
2015 04 09 13 45 51 .00      -7      6     32     10     33 309.5  80.7  34124  288.96 0862.39
2015 04 09 13 45 51 .25      -5      9     27     11     29 327.5  79.2  34112  288.75 0862.39
2015 04 09 13 45 51 .51      -7      6     25     10     26 309.5  79.2  34112  288.77 0862.39
2015 04 09 13 45 51 .75      -7      0     18      8     19 270.0  77.1  34124  288.96 0862.39
2015 04 09 13 45 52 .01      -1     -4     12      5     13 191.6  81.2  34134  289.14 0862.39
2015 04 09 13 45 52 .25      -4    -12     14     13     19 198.3  48.2  34138  289.21 0862.39
2015 04 09 13 45 52 .50      -8      1     16      9     18 281.5  68.8  34106  288.67 0862.39
2015 04 09 13 45 52 .75     -15     17      4     23     24 318.6  11.1  34088  288.36 0862.39
2015 04 09 13 45 53 .00     -15     12     10     20     22 309.5  29.3  34082  288.26 0862.39
2015 04 09 13 45 53 .26      -3      4     16      6     17 320.4  81.2  34094  288.45 0862.39
2015 04 09 13 45 53 .51      -8     12     11     15     18 327.5  39.7  34110  288.72 0862.39
2015 04 09 13 45 53 .76     -21     20     18     30     35 313.3  35.5  34098  288.53 0862.39
2015 04 09 13 45 54 .01     -12     11     14     17     22 313.3  43.7  34098  288.53 0862.39
2015 04 09 13 45 54 .25     -10     16     23     20     30 327.5  56.3  34098  288.53 0862.39
2015 04 09 13 45 54 .50      -8     30     18     32     36 344.9  33.5  34072  288.09 0862.39
2015 04 09 13 45 54 .76      -7     21     32     23     39 341.5  60.5  34088  288.36 0862.39
2015 04 09 13 45 55 .02      -3     12     30     13     32 344.9  75.0  34134  289.14 0862.39
2015 04 09 13 45 55 .26      -2      0     23      3     23 251.6  90.0  34150  289.40 0862.39
2015 04 09 13 45 55 .51       0     -3     11      4     11 189.7  81.0  34144  289.31 0862.39
2015 04 09 13 45 55 .76       0     -3     11      4     11 189.7  81.0  34150  289.41 0862.39
2015 04 09 13 45 56 .01       0    -20     12     21     24 182.7  31.4  34134  289.14 0862.39
2015 04 09 13 45 56 .26       0    -23     15     24     28 180.9  35.5  34124  288.96 0862.39
2015 04 09 13 45 56 .51     -17    -17     23     25     33 225.0  50.0  34140  289.23 0862.38
2015 04 09 13 45 56 .76     -12    -16     28     21     35 216.1  60.5  34142  289.28 0862.38
2015 04 09 13 45 57 .02     -16    -16     30     24     38 225.1  56.4  34118  288.87 0862.38
2015 04 09 13 45 57 .27     -24    -25     21     35     40 223.4  34.4  34090  288.38 0862.38
2015 04 09 13 45 57 .52     -31    -26     23     41     47 230.4  32.4  34076  288.16 0862.38
2015 04 09 13 45 57 .77     -27    -21     18     35     39 232.2  27.3  34056  287.82 0862.38
2015 04 09 13 45 58 .03     -27    -18     20     33     38 235.8  35.5  34050  287.70 0862.38
2015 04 09 13 45 58 .27     -21    -23     17     32     36 221.4  29.3  34050  287.72 0862.39
2015 04 09 13 45 58 .53     -11    -36     16     38     41 196.9  24.1  34050  287.70 0862.39
2015 04 09 13 45 58 .79      -9    -27      9     29     31 198.7  17.3  34080  288.21 0862.39
2015 04 09 13 45 59 .04      -9    -12     16     16     22 216.1  50.1  34174  289.80 0862.39
2015 04 09 13 45 59 .28      -5     -4     21      7     22 226.7  81.0  34202  290.28 0862.39
2015 04 09 13 45 59 .53       0      0     25      1     25 350.3  90.0  34226  290.70 0862.39
2015 04 09 13 45 59 .78      -1     -4     32      5     32 191.6  90.0  34216  290.52 0862.39
2015 04 09 13 46 00 .03       0     -3     25      4     25 189.7  90.0  34228  290.72 0862.39
2015 04 09 13 46 00 .28     -16    -16     37     24     44 225.0  63.6  34188  290.04 0862.39
2015 04 09 13 46 00 .53      -6    -28     27     29     39 193.4  49.0  34108  288.69 0862.39
2015 04 09 13 46 00 .78       3    -21     23     22     31 172.0  50.1  34072  288.09 0862.39
2015 04 09 13 46 01 .03       0    -32     14     33     35 180.9  23.0  34034  287.45 0862.39
2015 04 09 13 46 01 .29     -17    -25     23     31     38 214.3  41.7  34064  287.94 0862.39
2015 04 09 13 46 01 .54      -2    -28     26     29     38 184.5  47.9  34076  288.16 0862.39
2015 04 09 13 46 01 .78       0    -28     11     29     31 180.9  21.0  34062  287.92 0862.39
2015 04 09 13 46 02 .04       2    -43    -13     44     46 177.3 -16.6  34024  287.28 0862.39
2015 04 09 13 46 02 .29      -8    -47    -10     48     50 189.8 -12.4  34032  287.42 0862.39
2015 04 09 13 46 02 .54     -14    -44    -11     47     49 198.5 -13.4  34042  287.57 0862.39
2015 04 09 13 46 02 .79      -6    -40    -14     41     43 188.9 -23.6  34042  287.59 0862.39
2015 04 09 13 46 03 .05     -12    -37     -8     39     40 198.3 -12.4  34056  287.82 0862.39
2015 04 09 13 46 03 .29     -12    -37      3     39     40 198.3   4.9  34080  288.21 0862.39
2015 04 09 13 46 03 .54      -9    -28     16     30     34 198.3  29.3  34096  288.50 0862.39
2015 04 09 13 46 03 .80       0    -43     31     44     53 179.1  38.6  34194  290.16 0862.39
2015 04 09 13 46 04 .05     -12    -41     55     43     69 196.9  57.5  34222  290.62 0862.39
2015 04 09 13 46 04 .30      -8    -36     50     38     62 193.4  58.5  34212  290.47 0862.39
2015 04 09 13 46 04 .55     -21    -33     39     40     55 212.6  51.1  34170  289.74 0862.39
2015 04 09 13 46 04 .80     -26    -41     27     49     55 212.5  32.4  34096  288.48 0862.39
2015 04 09 13 46 05 .05     -22    -50     32     55     63 203.6  32.4  34076  288.16 0862.39
2015 04 09 13 46 05 .30     -12    -41     35     43     55 196.9  43.7  34088  288.35 0862.39
2015 04 09 13 46 05 .56      -8    -40     31     41     51 191.6  41.7  34126  289.01 0862.39
2015 04 09 13 46 05 .80     -12    -41     33     43     54 196.9  41.7  34134  289.14 0862.39
2015 04 09 13 46 06 .05      -2    -32     23     33     40 184.5  38.6  34104  288.64 0862.39
2015 04 09 13 46 06 .30      10    -44     11     46     48 166.6  14.3  34040  287.55 0862.39
2015 04 09 13 46 06 .56      -2    -40     16     41     44 183.6  21.0  34036  287.49 0862.39
2015 04 09 13 46 06 .81      -1    -43     12     44     46 181.8  15.3  34036  287.47 0862.39
2015 04 09 13 46 07 .05      -7    -35     12     36     39 191.5  18.9  34050  287.72 0862.39
2015 04 09 13 46 07 .31     -10    -35     16     37     40 196.9  25.1  34044  287.60 0862.39
2015 04 09 13 46 07 .56     -15    -31     24     35     42 207.2  37.6  34054  287.77 0862.39
2015 04 09 13 46 07 .82      -7    -36     26     37     45 191.5  37.6  34078  288.20 0862.39
2015 04 09 13 46 08 .06     -10    -32     41     34     53 198.3  56.3  34104  288.64 0862.39
2015 04 09 13 46 08 .31     -35    -35     32     50     59 225.1  35.6  34104  288.64 0862.39
2015 04 09 13 46 08 .56     -24    -25     28     35     44 223.4  42.7  34098  288.53 0862.39
2015 04 09 13 46 08 .81     -26    -41     27     49     55 212.6  32.4  34080  288.21 0862.39
2015 04 09 13 46 09 .06     -16    -42     30     45     54 200.9  36.5  34100  288.55 0862.39
2015 04 09 13 46 09 .32     -10    -45     30     47     55 192.5  35.5  34116  288.82 0862.39
2015 04 09 13 46 09 .57      -9    -28     29     30     41 198.7  50.0  34138  289.19 0862.39
2015 04 09 13 46 09 .81     -10    -30     41     32     52 198.3  57.5  34136  289.16 0862.39
2015 04 09 13 46 10 .06     -15    -32     36     36     50 205.5  50.1  34114  288.80 0862.38
2015 04 09 13 46 10 .31       0    -36     32     37     48 180.9  46.9  34104  288.64 0862.38
2015 04 09 13 46 10 .57      -4    -27     33     28     43 189.8  54.3  34132  289.09 0862.38
2015 04 09 13 46 10 .83      -8    -20     36     22     42 203.6  65.7  34136  289.18 0862.38
2015 04 09 13 46 11 .07      -1    -12     18     13     22 186.2  60.5  34126  289.01 0862.38
2015 04 09 13 46 11 .33       2    -28     16     29     33 175.5  31.4  34124  288.97 0862.38
2015 04 09 13 46 11 .58     -10    -35     36     37     51 196.9  50.0  34136  289.16 0862.38
2015 04 09 13 46 11 .83       7    -45     27     46     53 170.2  33.5  34134  289.13 0862.38
2015 04 09 13 46 12 .08       0    -32     34     33     47 180.9  49.1  34162  289.62 0862.38
2015 04 09 13 46 12 .33     -11    -17     27     21     34 214.3  56.4  34164  289.65 0862.38
2015 04 09 13 46 12 .58     -22    -25     45     34     56 221.4  59.4  34150  289.40 0862.38
2015 04 09 13 46 12 .83     -28    -26     45     39     59 226.7  54.3  34118  288.86 0862.38
2015 04 09 13 46 13 .08     -28    -60     38     67     77 205.3  32.4  34086  288.33 0862.38
2015 04 09 13 46 13 .33     -29    -61     32     68     75 205.4  27.2  34066  287.99 0862.38
2015 04 09 13 46 13 .58     -42    -60     38     74     83 215.2  29.3  34046  287.65 0862.38
2015 04 09 13 46 13 .83     -42    -60     45     74     86 215.2  34.4  34042  287.57 0862.38
2015 04 09 13 46 14 .08     -41    -64     40     77     86 212.6  29.8  34050  287.72 0862.38
2015 04 09 13 46 14 .34     -43    -68     39     81     89 212.5  27.3  34040  287.54 0862.38
2015 04 09 13 46 14 .58     -38    -69     36     79     86 209.0  25.7  34042  287.57 0862.38
2015 04 09 13 46 14 .84     -17    -64     30     67     73 195.1  26.2  34074  288.13 0862.38
2015 04 09 13 46 15 .08      -2    -86     30     87     93 181.4  19.4  34096  288.50 0862.38
2015 04 09 13 46 15 .33      -5    -76     34     77     84 184.4  24.6  34120  288.89 0862.38
2015 04 09 13 46 15 .59      -9    -67     50     68     84 188.1  40.1  34104  288.64 0862.38
2015 04 09 13 46 15 .84      -4    -72     36     73     81 183.6  28.2  34108  288.69 0862.38
2015 04 09 13 46 16 .09      11    -85     26     86     90 172.4  16.8  34132  289.09 0862.38
2015 04 09 13 46 16 .34      21    -69     20     73     76 163.1  15.3  34138  289.19 0862.38
2015 04 09 13 46 16 .59      31    -65      8     73     74 154.5   6.9  34106  288.65 0862.38
2015 04 09 13 46 16 .84      13    -82     20     84     87 170.7  13.7  34106  288.67 0862.38
2015 04 09 13 46 17 .09      27    -64     -2     70     71 157.3  -2.2  34096  288.48 0862.38
2015 04 09 13 46 17 .34      19    -66      3     69     70 164.0   2.8  34108  288.69 0862.37
2015 04 09 13 46 17 .59      22    -87      4     90     91 165.7   2.9  34112  288.77 0862.37
2015 04 09 13 46 17 .85      17    -64     23     67     71 164.9  18.9  34086  288.31 0862.37
2015 04 09 13 46 18 .10     -13    -60     12     62     64 192.5  11.0  34084  288.30 0862.37
2015 04 09 13 46 18 .36      -8    -76     23     77     81 186.2  16.8  34096  288.48 0862.37
2015 04 09 13 46 18 .60     -17    -65     30     68     74 195.1  25.1  34116  288.84 0862.37
2015 04 09 13 46 18 .85     -26    -80      4     85     86 197.8   3.3  34110  288.72 0862.37
2015 04 09 13 46 19 .10     -19    -98     26    100    104 191.1  14.7  34058  287.84 0862.38
2015 04 09 13 46 19 .36       3   -111     31    112    117 178.2  15.8  34058  287.84 0862.38
2015 04 09 13 46 19 .60      45    -86     34     98    104 152.4  19.4  34058  287.86 0862.38
2015 04 09 13 46 19 .86      12    -96     33     97    103 172.4  18.9  34072  288.08 0862.38
2015 04 09 13 46 20 .11      34    -83     24     90     94 157.7  15.3  34086  288.31 0862.38
2015 04 09 13 46 20 .37     -10    -83     29     84     89 187.1  19.2  34120  288.89 0862.38
2015 04 09 13 46 20 .61      -2    -88     57     89    105 181.8  35.6  34170  289.74 0862.38
2015 04 09 13 46 20 .87      17    -91     32     93     99 168.9  18.9  34066  287.99 0862.38
2015 04 09 13 46 21 .11      -1   -107     31    108    113 180.9  16.3  34076  288.14 0862.38
2015 04 09 13 46 21 .36      -3    -94     21     95     98 182.2  12.6  34038  287.52 0862.38
2015 04 09 13 46 21 .61      -7   -101     33    102    108 184.5  17.9  34038  287.52 0862.38
2015 04 09 13 46 21 .87      -6    -91     40     92    100 184.0  25.1  34054  287.79 0862.38
2015 04 09 13 46 22 .11     -16    -84     52     86    100 191.1  34.4  34090  288.38 0862.38
2015 04 09 13 46 22 .37     -19   -100     48    102    112 191.1  27.1  34068  288.03 0862.38
2015 04 09 13 46 22 .61     -28   -105     54    109    121 195.1  28.2  34058  287.84 0862.38
2015 04 09 13 46 22 .87     -30   -101     58    106    120 196.9  31.3  34058  287.84 0862.38
2015 04 09 13 46 23 .12     -21   -123     71    125    143 189.8  32.4  34138  289.21 0862.38
2015 04 09 13 46 23 .37     -37   -139     72    144    160 195.1  28.5  34144  289.30 0862.38
2015 04 09 13 46 23 .62     -36   -121     92    127    156 196.5  39.3  34148  289.36 0862.37
2015 04 09 13 46 23 .87     -24   -118     83    121    146 191.5  38.0  34156  289.52 0862.37
2015 04 09 13 46 24 .12      -4    -84     95     85    127 183.1  53.7  34170  289.75 0862.37
2015 04 09 13 46 24 .37      -3    -48     77     49     91 183.6  64.7  34178  289.87 0862.37
2015 04 09 13 46 24 .62      44    -69     63     83    104 147.4  40.7  34114  288.80 0862.37
2015 04 09 13 46 24 .88       6    -56     78     57     96 173.8  60.5  34138  289.21 0862.37
2015 04 09 13 46 25 .13      13    -77     91     79    120 170.2  54.3  34136  289.16 0862.37
2015 04 09 13 46 25 .38       8    -55     83     56    100 171.1  63.2  34150  289.41 0862.37
2015 04 09 13 46 25 .63     -29    -90     68     95    116 197.8  39.1  34132  289.11 0862.37
2015 04 09 13 46 25 .88      -3    -48     70     49     85 183.6  62.1  34158  289.53 0862.37
2015 04 09 13 46 26 .13      39    -94     92    102    137 157.3  47.5  34122  288.94 0862.37
2015 04 09 13 46 26 .39      37    -58     76     69    102 147.4  52.7  34086  288.31 0862.37
2015 04 09 13 46 26 .64      17    -68     55     71     89 165.7  42.2  34072  288.08 0862.37
2015 04 09 13 46 26 .88      -7    -66     65     67     93 186.2  50.0  34146  289.35 0862.37
2015 04 09 13 46 27 .14     -48    -50     79     70    105 224.2  53.7  34112  288.77 0862.37
2015 04 09 13 46 27 .38       8   -114     87    115    144 176.0  40.7  34066  287.98 0862.37
2015 04 09 13 46 27 .64     -23   -109    109    112    156 192.0  49.9  34068  288.03 0862.37
2015 04 09 13 46 27 .89     -27   -113     54    117    128 193.4  26.6  34114  288.79 0862.37
2015 04 09 13 46 28 .14     -30    -89     90     95    130 198.7  48.5  34130  289.08 0862.37
2015 04 09 13 46 28 .39     -27   -113     81    117    142 193.4  38.0  34118  288.86 0862.37
2015 04 09 13 46 28 .64     -37   -129     58    135    146 196.0  24.6  34120  288.91 0862.37
2015 04 09 13 46 28 .89      21   -119     42    121    129 169.8  19.4  34110  288.74 0862.38
2015 04 09 13 46 29 .14      19   -113     51    115    125 170.2  25.2  34052  287.76 0862.38
2015 04 09 13 46 29 .39      -6    -80     52     81     96 184.5  35.6  34066  287.98 0862.38
2015 04 09 13 46 29 .64      -3   -110     30    111    116 181.8  15.2  34052  287.76 0862.38
2015 04 09 13 46 29 .89     -32   -107     26    112    116 196.9  13.2  34076  288.16 0862.38
2015 04 09 13 46 30 .14      -9    -91     49     92    104 185.8  30.8  34086  288.31 0862.38
2015 04 09 13 46 30 .39       2    -29     56     30     63 175.6  68.9  34090  288.40 0862.38
2015 04 09 13 46 30 .64     -15      5     37     16     40 288.6  75.0  34080  288.21 0862.38
2015 04 09 13 46 30 .89     -30    -22     45     38     58 234.0  55.4  34066  287.99 0862.38
2015 04 09 13 46 31 .15     -81    -39     47     91    102 244.2  29.3  34118  288.87 0862.38
2015 04 09 13 46 31 .39     -88    -64     23    109    112 234.0  12.2  34134  289.14 0862.38
2015 04 09 13 46 31 .64     -71    -92     41    117    125 217.8  19.4  34100  288.57 0862.37
2015 04 09 13 46 31 .90     -78    -97      0    125    126 218.7   0.2  34048  287.67 0862.37
2015 04 09 13 46 32 .16     -74   -100      8    125    126 216.5   3.8  34052  287.74 0862.37
2015 04 09 13 46 32 .41     -79   -101      5    129    130 217.9   2.3  34076  288.14 0862.37
2015 04 09 13 46 32 .66     -87   -113     12    143    144 217.8   4.9  34046  287.65 0862.37
2015 04 09 13 46 32 .91     -76   -101     -4    127    128 217.0  -2.2  34044  287.62 0862.37
2015 04 09 13 46 33 .16     -60    -84      5    104    105 215.6   2.8  34042  287.59 0862.37
2015 04 09 13 46 33 .41     -28    -84      8     89     90 198.7   5.4  34038  287.50 0862.37
2015 04 09 13 46 33 .66     -36    -65     38     75     84 208.9  28.7  34068  288.03 0862.37
2015 04 09 13 46 33 .91     -45    -56     49     72     87 218.7  37.0  34044  287.62 0862.37
2015 04 09 13 46 34 .16     -30    -64     62     71     94 205.4  45.8  34032  287.40 0862.37
2015 04 09 13 46 34 .41     -33    -60     67     69     96 209.0  50.0  34032  287.40 0862.37
2015 04 09 13 46 34 .66     -31    -56     63     65     90 208.9  49.4  34028  287.35 0862.37
2015 04 09 13 46 34 .91     -30    -64     62     71     94 205.4  45.8  34038  287.52 0862.37
2015 04 09 13 46 35 .16     -24    -52     36     58     68 205.5  35.5  34026  287.30 0862.37
2015 04 09 13 46 35 .41     -50    -50     14     72     74 225.0  11.1  34040  287.54 0862.37
2015 04 09 13 46 35 .66     -52    -33      3     62     63 237.5   2.9  34040  287.55 0862.37
2015 04 09 13 46 35 .92     -60    -29     -3     67     68 243.8  -3.1  34050  287.70 0862.37
2015 04 09 13 46 36 .17     -27    -34     48     44     65 218.7  52.2  34058  287.86 0862.37
2015 04 09 13 46 36 .41     -82    -24     41     86     95 253.2  27.2  34070  288.04 0862.36
2015 04 09 13 46 36 .67     -72    -25      5     77     78 250.9   3.8  34066  287.99 0862.36
2015 04 09 13 46 36 .92     -50    -41     32     65     72 230.4  27.3  34070  288.04 0862.36
2015 04 09 13 46 37 .17     -51    -21     -6     56     57 247.4  -6.2  34060  287.89 0862.36
2015 04 09 13 46 37 .42     -56    -26      5     62     63 244.7   4.9  34066  287.98 0862.36
2015 04 09 13 46 37 .67     -60     -4     -2     61     62 265.6  -2.2  34072  288.09 0862.36
2015 04 09 13 46 37 .92     -73    -13    -15     75     77 259.4 -11.9  34054  287.79 0862.36
2015 04 09 13 46 38 .17    -100      5    -37    101    107 273.0 -24.8  34034  287.43 0862.36
2015 04 09 13 46 38 .42     -47    -28    -63     55     83 239.3 -58.1  34040  287.54 0862.36
2015 04 09 13 46 38 .68     -30    -89    -23     95     98 198.7 -13.9  34042  287.57 0862.36
2015 04 09 13 46 38 .93     -73    -69     27    101    105 226.9  15.2  34044  287.62 0862.36
2015 04 09 13 46 39 .18       7    -99     -9    100    101 175.6  -5.6  34034  287.43 0862.36
2015 04 09 13 46 39 .44      23   -127    -16    130    132 169.8  -7.2  34028  287.33 0862.36
2015 04 09 13 46 39 .68      45   -131     -6    139    140 160.8  -2.6  34024  287.28 0862.36
2015 04 09 13 46 39 .93      35   -106    -35    112    117 161.7 -22.3  34022  287.25 0862.36
2015 04 09 13 46 40 .18      35    -86    -33     94     99 157.7 -23.8  34028  287.33 0862.36
2015 04 09 13 46 40 .43      37    -58    -50     69     85 147.5 -43.5  34030  287.38 0862.36
2015 04 09 13 46 40 .68      16    -61    -44     64     77 164.9 -42.0  34032  287.42 0862.36
2015 04 09 13 46 40 .93      18    -49    -41     53     67 160.0 -46.1  34030  287.38 0862.36
2015 04 09 13 46 41 .18       2    -43    -23     44     49 176.4 -33.7  34030  287.38 0862.36
2015 04 09 13 46 41 .43      23    -50    -11     56     58 154.7 -11.3  34026  287.30 0862.36
2015 04 09 13 46 41 .69      50    -51     25     72     77 135.8  19.4  34032  287.40 0862.36
2015 04 09 13 46 41 .94      47    -50     18     69     72 136.7  15.2  34034  287.45 0862.36
2015 04 09 13 46 42 .19      39    -78      0     88     89 153.3   0.2  34038  287.52 0862.36
2015 04 09 13 46 42 .44      44    -69      6     82     83 147.4   4.4  34034  287.45 0862.36
2015 04 09 13 46 42 .69      11    -84      8     85     86 172.4   5.4  34036  287.49 0862.36
2015 04 09 13 46 42 .94      10    -68      8     69     70 171.1   7.1  34034  287.43 0862.36
2015 04 09 13 46 43 .19      42    -58     27     72     76 143.9  20.0  34038  287.50 0862.36
2015 04 09 13 46 43 .44      26    -43     45     51     68 149.3  47.9  34058  287.84 0862.36
2015 04 09 13 46 43 .69       7    -83     19     84     87 174.7  13.2  34046  287.65 0862.36
2015 04 09 13 46 43 .94       0    -71     27     72     76 180.0  20.0  34048  287.67 0862.36
2015 04 09 13 46 44 .19     -11    -95      4     96     97 186.7   2.8  34034  287.43 0862.36
2015 04 09 13 46 44 .44      18    -55      3     59     60 161.3   2.9  34036  287.47 0862.36
2015 04 09 13 46 44 .70       6    -73     42     74     85 174.7  32.4  34050  287.70 0862.36
2015 04 09 13 46 44 .94       8    -57     56     58     80 171.1  49.4  34068  288.03 0862.36
2015 04 09 13 46 45 .19       5    -73     39     74     83 175.6  29.8  34050  287.70 0862.36
2015 04 09 13 46 45 .44     -22    -65     24     69     74 199.2  19.4  34042  287.57 0862.36
2015 04 09 13 46 45 .71     -30    -77      7     83     84 201.4   5.4  34040  287.54 0862.36
2015 04 09 13 46 45 .96     -24    -74    -10     78     79 198.3  -7.3  34040  287.54 0862.36
2015 04 09 13 46 46 .21       1    -87     33     88     93 179.1  20.4  34058  287.86 0862.35
2015 04 09 13 46 46 .46       0   -103     -2    104    105 180.5  -1.3  34066  287.98 0862.35
2015 04 09 13 46 46 .71     -26    -96    -33    100    106 195.6 -18.7  34020  287.20 0862.35
2015 04 09 13 46 46 .96     -20    -85    -26     88     91 193.4 -21.7  34022  287.25 0862.35
2015 04 09 13 46 47 .21     -21    -88     -3     91     92 193.4  -2.2  34030  287.38 0862.35
2015 04 09 13 46 47 .46      -9    -66     -1     67     68 188.1  -1.2  34036  287.49 0862.35
2015 04 09 13 46 47 .72       7    -51     14     52     54 172.0  15.3  34056  287.82 0862.35
2015 04 09 13 46 47 .96     -10    -49     37     51     63 191.6  39.7  34080  288.23 0862.35
2015 04 09 13 46 48 .21     -14    -81     34     83     89 189.8  23.0  34054  287.79 0862.35
2015 04 09 13 46 48 .47       0    -80     40     81     90 180.0  27.8  34070  288.06 0862.35
2015 04 09 13 46 48 .72       0    -47     48     48     67 180.9  50.1  34132  289.09 0862.35
2015 04 09 13 46 48 .96     -25    -64     27     69     74 201.8  22.0  34086  288.31 0862.35
2015 04 09 13 46 49 .22      -1    -67     32     68     75 180.9  27.2  34070  288.04 0862.35
2015 04 09 13 46 49 .46     -13    -66     23     68     73 191.6  19.2  34058  287.86 0862.35
2015 04 09 13 46 49 .72     -22    -81     15     85     87 195.6  10.1  34062  287.91 0862.35
2015 04 09 13 46 49 .97     -15    -80      0     82     83 191.1  -0.3  34074  288.13 0862.35
2015 04 09 13 46 50 .22     -25    -93     49     97    108 195.1  28.7  34066  287.99 0862.35
2015 04 09 13 46 50 .47     -26    -81     47     86     98 197.8  30.8  34078  288.18 0862.35
2015 04 09 13 46 50 .72     -61   -111     74    127    146 209.0  33.4  34140  289.24 0862.35
2015 04 09 13 46 50 .97     -50   -106     85    118    145 205.3  39.5  34152  289.45 0862.35
2015 04 09 13 46 51 .22     -35   -100     91    107    140 199.6  44.8  34162  289.62 0862.35
2015 04 09 13 46 51 .47     -54   -113     74    126    146 205.4  33.5  34160  289.58 0862.35
2015 04 09 13 46 51 .72     -48   -102     81    113    139 205.3  39.5  34190  290.09 0862.35
2015 04 09 13 46 51 .97     -48   -111     53    122    133 203.6  25.1  34114  288.79 0862.35
2015 04 09 13 46 52 .22     -46   -140     24    148    151 198.5   9.5  34042  287.57 0862.35
2015 04 09 13 46 52 .48     -44   -128     48    136    145 199.2  19.4  34094  288.47 0862.35
2015 04 09 13 46 52 .73     -14   -126     99    127    161 186.7  42.0  34206  290.35 0862.36
2015 04 09 13 46 52 .98     -18   -126     67    128    144 188.5  29.8  34200  290.26 0862.36
2015 04 09 13 46 53 .24     -24   -175     63    177    187 188.0  20.2  34178  289.87 0862.36
2015 04 09 13 46 53 .48     -77   -164     64    182    194 205.2  19.4  34080  288.23 0862.36
2015 04 09 13 46 53 .74    -105   -167     46    198    204 212.3  13.2  34016  287.15 0862.36
2015 04 09 13 46 53 .99     -51   -189     71    196    208 195.2  20.7  34120  288.89 0862.36
2015 04 09 13 46 54 .23     -37   -188     70    192    204 191.3  20.9  34114  288.80 0862.36
2015 04 09 13 46 54 .48     -43   -161     58    167    177 195.1  19.2  34080  288.21 0862.35
2015 04 09 13 46 54 .74     -66   -168     63    181    192 201.4  19.2  34092  288.43 0862.35
2015 04 09 13 46 54 .99     -90   -157     67    182    193 209.9  20.7  34102  288.58 0862.35
2015 04 09 13 46 55 .24    -104   -176     80    205    220 210.5  22.5  34102  288.60 0862.35
2015 04 09 13 46 55 .49    -127   -159     67    204    215 218.7  18.4  34074  288.11 0862.35
2015 04 09 13 46 55 .74     -88   -172     96    194    216 207.2  28.2  34112  288.77 0862.35
2015 04 09 13 46 55 .99     -95   -159    117    186    219 211.0  35.5  34162  289.60 0862.35
2015 04 09 13 46 56 .24    -146   -154     74    213    226 223.4  19.2  34060  287.89 0862.35
2015 04 09 13 46 56 .49    -143   -178     44    229    234 218.7  11.0  34014  287.11 0862.35
2015 04 09 13 46 56 .74    -168   -178     48    245    250 223.3  11.1  34032  287.39 0862.35
2015 04 09 13 46 56 .99    -158   -173     -1    235    236 222.5  -0.3  34006  286.97 0862.35
2015 04 09 13 46 57 .24    -137   -177     11    225    226 217.8   2.9  34006  286.96 0862.34
2015 04 09 13 46 57 .49    -120   -169     -4    208    209 215.4  -1.3  34010  287.05 0862.34
2015 04 09 13 46 57 .75    -131   -173     -8    218    219 217.2  -2.2  34002  286.89 0862.34
2015 04 09 13 46 58 .00    -121   -189      9    225    226 212.6   2.5  33996  286.81 0862.34
2015 04 09 13 46 58 .25    -134   -196     45    238    243 214.3  10.8  34038  287.50 0862.34
2015 04 09 13 46 58 .50    -133   -135     35    190    194 224.5  10.6  34030  287.38 0862.34
2015 04 09 13 46 58 .74    -142   -158     55    213    220 222.1  14.5  34046  287.65 0862.34
2015 04 09 13 46 59 .00    -110   -161     15    196    197 214.3   4.4  34024  287.28 0862.34
2015 04 09 13 46 59 .25    -127   -119     26    175    177 226.9   8.5  34024  287.28 0862.35
2015 04 09 13 46 59 .51    -137   -122     17    184    185 228.4   5.4  34018  287.16 0862.35
2015 04 09 13 46 59 .76    -155   -137    -11    208    209 228.6  -3.1  34016  287.15 0862.35
2015 04 09 13 47 00 .01    -150   -166    -12    225    226 222.1  -3.1  34016  287.15 0862.35
2015 04 09 13 47 00 .26    -151   -157    -12    218    219 223.9  -3.2  34016  287.15 0862.35
2015 04 09 13 47 00 .51    -135   -144     -7    198    199 223.0  -2.3  34016  287.13 0862.35
2015 04 09 13 47 00 .76    -171   -167    -15    240    241 225.6  -3.7  34016  287.14 0862.35
2015 04 09 13 47 01 .01    -126   -152    -11    198    199 219.6  -3.3  34018  287.18 0862.34
2015 04 09 13 47 01 .26    -130   -172     22    216    218 217.2   5.9  34014  287.10 0862.34
2015 04 09 13 47 01 .51    -115   -193     29    225    227 210.8   7.5  34004  286.94 0862.34
2015 04 09 13 47 01 .76    -131   -221     33    257    260 210.7   7.5  34008  287.01 0862.34
2015 04 09 13 47 02 .01    -135   -212     21    252    253 212.6   5.0  34006  286.97 0862.34
2015 04 09 13 47 02 .27    -136   -230     48    268    273 210.7  10.3  34006  286.95 0862.34
2015 04 09 13 47 02 .52    -127   -201     46    238    243 212.3  11.1  34010  287.02 0862.34
2015 04 09 13 47 02 .77    -121   -189     57    225    233 212.6  14.3  34008  287.01 0862.34
2015 04 09 13 47 03 .02    -139   -163     60    215    224 220.3  15.8  34014  287.10 0862.34
2015 04 09 13 47 03 .27    -145   -152     56    211    219 223.7  15.0  34016  287.13 0862.34
2015 04 09 13 47 03 .52    -144   -135     36    198    202 226.8  10.3  34006  286.96 0862.34
2015 04 09 13 47 03 .77    -122   -149     -4    193    194 219.4  -1.3  34002  286.91 0862.34
2015 04 09 13 47 04 .02    -102   -154    -10    186    187 213.6  -3.1  34008  287.00 0862.34
2015 04 09 13 47 04 .27    -145   -187    -27    237    239 217.8  -6.7  34004  286.94 0862.34
2015 04 09 13 47 04 .52    -141   -149     -8    206    207 223.4  -2.3  34002  286.91 0862.34
2015 04 09 13 47 04 .77     -93   -113    -14    147    148 219.6  -5.6  34014  287.10 0862.34
2015 04 09 13 47 05 .02     -78   -123     47    147    155 212.5  17.7  34008  287.01 0862.34
2015 04 09 13 47 05 .28     -98   -170     36    197    201 209.9  10.3  34024  287.28 0862.34
2015 04 09 13 47 05 .53    -108   -191     73    220    232 209.6  18.4  34096  288.48 0862.35
2015 04 09 13 47 05 .78    -109   -183     82    214    229 210.8  22.0  34098  288.52 0862.35
2015 04 09 13 47 06 .03     -97   -195     94    218    237 206.5  24.9  34110  288.74 0862.35
2015 04 09 13 47 06 .27     -82   -184     69    202    214 204.1  18.9  34088  288.36 0862.35
2015 04 09 13 47 06 .54     -87   -186     51    206    213 205.2  13.9  34074  288.11 0862.35
2015 04 09 13 47 06 .78    -130   -189      8    230    231 214.7   2.1  34036  287.47 0862.35
2015 04 09 13 47 07 .04     -95   -216     36    237    240 203.7   8.8  33998  286.84 0862.35
2015 04 09 13 47 07 .28     -98   -209     33    232    235 205.2   8.2  33994  286.77 0862.34
2015 04 09 13 47 07 .54     -70   -189     11    202    203 200.5   3.3  33998  286.83 0862.34
2015 04 09 13 47 07 .79     -56   -179    -37    188    192 197.4 -11.3  34000  286.88 0862.34
2015 04 09 13 47 08 .04     -92   -170      4    194    195 208.5   1.2  34000  286.86 0862.34
2015 04 09 13 47 08 .29    -106   -185     39    214    218 209.9  10.3  34012  287.06 0862.34
2015 04 09 13 47 08 .54    -105   -173     16    203    204 211.2   4.6  34004  286.94 0862.34
2015 04 09 13 47 08 .79    -105   -154      5    187    188 214.3   1.6  34012  287.06 0862.34
2015 04 09 13 47 09 .04     -59   -178    -24    188    190 198.5  -7.5  33994  286.78 0862.34
2015 04 09 13 47 09 .29     -43   -165    -22    171    173 194.7  -7.3  33986  286.64 0862.34
2015 04 09 13 47 09 .54     -35   -160     -8    164    165 192.5  -2.8  33994  286.76 0862.34
2015 04 09 13 47 09 .79     -43   -143    -14    150    151 196.9  -5.6  33994  286.78 0862.34
2015 04 09 13 47 10 .04     -39   -146    -26    152    155 195.2  -9.8  33986  286.64 0862.34
2015 04 09 13 47 10 .29     -31   -149    -27    153    156 192.0 -10.3  33978  286.49 0862.34
2015 04 09 13 47 10 .54     -36   -160    -15    165    166 192.7  -5.2  33978  286.51 0862.34
2015 04 09 13 47 10 .79     -29   -156     -1    159    160 190.7  -0.7  33994  286.78 0862.34
2015 04 09 13 47 11 .04     -28   -139     -1    142    143 191.6  -0.7  33988  286.66 0862.34
2015 04 09 13 47 11 .29     -37   -148     -3    153    154 194.3  -1.3  33980  286.54 0862.34
2015 04 09 13 47 11 .55     -49   -150     -4    158    159 198.3  -1.8  33986  286.64 0862.34
2015 04 09 13 47 11 .80     -75   -150     15    168    169 206.7   5.4  34028  287.33 0862.34
2015 04 09 13 47 12 .04     -63   -144     28    158    161 203.7  10.1  34020  287.20 0862.34
2015 04 09 13 47 12 .30     -65   -127    -23    143    145 207.2  -9.3  33992  286.73 0862.34
2015 04 09 13 47 12 .55     -55   -127    -38    139    145 203.7 -15.4  33986  286.64 0862.34
2015 04 09 13 47 12 .80     -54   -123    -39    135    140 203.7 -20.7  33978  286.51 0862.34
2015 04 09 13 47 13 .05     -54   -124    -43    136    143 203.7 -17.6  33984  286.59 0862.34
2015 04 09 13 47 13 .30     -58   -114    -37    129    134 207.2 -21.7  33984  286.59 0862.34
2015 04 09 13 47 13 .56     -72   -119    -45    140    148 211.2 -18.1  33976  286.46 0862.34
2015 04 09 13 47 13 .81     -77   -115    -48    139    148 213.8 -19.1  33978  286.51 0862.34
2015 04 09 13 47 14 .06     -77   -121    -41    144    149 212.6 -20.7  33976  286.47 0862.34
2015 04 09 13 47 14 .31     -67   -120    -49    138    147 209.4 -19.7  33978  286.49 0862.34
2015 04 09 13 47 14 .56     -61   -119    -45    134    141 207.2 -23.6  33990  286.69 0862.34
2015 04 09 13 47 14 .81     -61   -119    -45    134    141 207.2 -23.6  33990  286.69 0862.34
2015 04 09 13 47 15 .06     -44   -122    -37    130    135 200.0 -21.2  33998  286.84 0862.34
2015 04 09 13 47 15 .31     -51   -115    -45    126    134 204.1 -19.7  33990  286.71 0862.34
2015 04 09 13 47 15 .57     -43   -123    -34    131    136 199.6 -14.5  33992  286.74 0862.34
2015 04 09 13 47 15 .82     -42   -111    -19    119    121 200.9  -9.4  33996  286.79 0862.34
2015 04 09 13 47 16 .07     -32   -105    -14    110    111 196.9  -7.3  33996  286.79 0862.34
2015 04 09 13 47 16 .31     -34   -107    -12    113    114 197.8  -6.2  33990  286.69 0862.34
2015 04 09 13 47 16 .57     -48    -94    -34    106    112 207.2 -18.1  33994  286.78 0862.34
2015 04 09 13 47 16 .82     -60    -94    -52    112    123 212.6 -31.0  33982  286.56 0862.34
2015 04 09 13 47 17 .07     -75    -77    -58    108    122 224.1 -35.2  33990  286.69 0862.34
2015 04 09 13 47 17 .31     -68    -72    -65    100    119 223.2 -40.4  33994  286.78 0862.34
2015 04 09 13 47 17 .57     -59    -64    -50     88    101 222.8 -36.3  33992  286.74 0862.34
2015 04 09 13 47 17 .82     -59    -64    -50     88    101 222.8 -36.3  33992  286.74 0862.34
2015 04 09 13 47 18 .07     -50    -82    -48     97    108 211.6 -31.7  33988  286.66 0862.34
2015 04 09 13 47 18 .32     -49    -90    -37    103    110 209.0 -19.7  33984  286.59 0862.35
2015 04 09 13 47 18 .57     -60    -76    -26     98    102 218.3 -15.0  33986  286.64 0862.35
2015 04 09 13 47 18 .82     -50    -76    -32     92     98 213.4 -19.1  33986  286.64 0862.35
2015 04 09 13 47 19 .07     -51    -92    -14    106    107 209.0  -7.7  33986  286.64 0862.35
2015 04 09 13 47 19 .32     -55    -97      5    112    113 209.9   2.8  33990  286.71 0862.35
2015 04 09 13 47 19 .58     -44    -96     -2    106    107 204.9  -1.3  33992  286.74 0862.35
2015 04 09 13 47 19 .82     -53   -100      5    114    115 208.1   2.9  33992  286.73 0862.35
2015 04 09 13 47 20 .08     -58   -104     13    120    121 209.4   6.5  33990  286.69 0862.34
2015 04 09 13 47 20 .32     -44    -90     -2    101    102 205.9  -1.3  33992  286.74 0862.34
2015 04 09 13 47 20 .59     -46   -105      5    115    116 203.6   2.8  33992  286.73 0862.34
2015 04 09 13 47 20 .84     -38   -115      5    122    123 198.3   2.8  33994  286.78 0862.34
2015 04 09 13 47 21 .08     -41    -88    -26     98    102 204.9 -15.0  33996  286.79 0862.34
2015 04 09 13 47 21 .34     -39    -80    -18     90     92 205.9 -11.3  33988  286.67 0862.34
2015 04 09 13 47 21 .59     -17    -72    -20     75     78 193.4 -15.5  33992  286.73 0862.34
2015 04 09 13 47 21 .84     -18    -45    -18     49     52 201.8 -24.4  33996  286.81 0862.34
2015 04 09 13 47 22 .09     -10    -21    -16     24     28 207.2 -40.0  33998  286.83 0862.34
2015 04 09 13 47 22 .34      -6    -36    -25     37     44 189.8 -40.9  33994  286.76 0862.34
2015 04 09 13 47 22 .59     -15    -45    -21     48     52 198.7 -29.5  33992  286.73 0862.34
2015 04 09 13 47 22 .84     -31    -41    -30     52     60 217.8 -36.8  33992  286.73 0862.34
2015 04 09 13 47 23 .09     -39    -61    -23     73     76 212.5 -23.8  33990  286.69 0862.34
2015 04 09 13 47 23 .34     -60    -76    -26     98    102 218.3 -15.0  33986  286.64 0862.34
2015 04 09 13 47 23 .59     -53    -82    -35     98    105 213.0 -19.7  33988  286.67 0862.34
2015 04 09 13 47 23 .84     -42    -86    -34     96    101 206.3 -24.4  33988  286.67 0862.34
2015 04 09 13 47 24 .09     -41    -88    -26     98    102 204.9 -15.0  33996  286.79 0862.34
2015 04 09 13 47 24 .34     -24    -92     -7     96     97 195.1  -4.6  33992  286.73 0862.34
2015 04 09 13 47 24 .59     -15    -95      4     97     98 189.3   2.9  33988  286.66 0862.34
2015 04 09 13 47 24 .84      -5    -73    -25     74     79 184.4 -18.7  33990  286.69 0862.34
2015 04 09 13 47 25 .10     -14    -67    -11     69     70 192.5  -9.3  33988  286.66 0862.34
2015 04 09 13 47 25 .35     -22    -62    -23     67     70 200.0 -23.3  33990  286.69 0862.34
2015 04 09 13 47 25 .60     -17    -54    -25     57     62 198.3 -29.5  33988  286.66 0862.34
2015 04 09 13 47 25 .84     -29    -45    -28     54     60 212.5 -34.7  33990  286.69 0862.34
2015 04 09 13 47 26 .10     -36    -50    -21     62     65 216.1 -23.6  33988  286.66 0862.34
2015 04 09 13 47 26 .35     -23    -45    -16     51     53 207.2 -23.8  33992  286.73 0862.34
2015 04 09 13 47 26 .59     -35    -34    -17     50     52 225.9 -23.6  33988  286.67 0862.34
2015 04 09 13 47 26 .85     -33    -35    -18     49     52 223.2 -24.4  33990  286.69 0862.34
2015 04 09 13 47 27 .10     -31    -31    -16     45     47 225.0 -23.3  33988  286.66 0862.34
2015 04 09 13 47 27 .36     -22    -39    -10     46     48 209.9 -12.4  33988  286.66 0862.34
2015 04 09 13 47 27 .61     -14    -44    -11     47     49 198.5 -13.4  33988  286.66 0862.34
2015 04 09 13 47 27 .86     -22    -44     -5     50     51 207.2  -6.2  33994  286.76 0862.34
2015 04 09 13 47 28 .11     -21    -47    -18     52     56 204.5 -19.7  33990  286.69 0862.34
2015 04 09 13 47 28 .36     -46    -53    -16     71     73 220.5 -13.4  33992  286.73 0862.34
2015 04 09 13 47 28 .61     -40    -42    -20     59     63 223.2 -18.7  33986  286.64 0862.34
2015 04 09 13 47 28 .86     -40    -42    -20     59     63 223.2 -18.7  33986  286.64 0862.34
2015 04 09 13 47 29 .11     -49    -48    -19     69     72 225.9 -15.5  33990  286.69 0862.34
2015 04 09 13 47 29 .37     -43    -48    -13     65     67 222.3 -11.5  33992  286.74 0862.34
2015 04 09 13 47 29 .61     -41    -53    -18     68     71 217.8 -15.5  33990  286.69 0862.34
2015 04 09 13 47 29 .87     -48    -45    -13     67     69 226.9 -11.3  33996  286.81 0862.34
2015 04 09 13 47 30 .12     -48    -48      3     69     70 225.0   2.8  34024  287.27 0862.34
2015 04 09 13 47 30 .37     -43    -46     22     64     68 223.2  19.4  34034  287.45 0862.34
2015 04 09 13 47 30 .62     -33    -45     20     56     59 216.1  20.0  34040  287.54 0862.34
2015 04 09 13 47 30 .87     -25    -53     22     59     62 205.3  21.0  34028  287.35 0862.34
2015 04 09 13 47 31 .12     -29    -53     32     61     68 209.0  29.3  34032  287.42 0862.34
2015 04 09 13 47 31 .37     -29    -45     38     54     66 212.5  38.6  34034  287.43 0862.34
2015 04 09 13 47 31 .62     -31    -41     42     52     66 217.8  43.7  34030  287.38 0862.34
2015 04 09 13 47 31 .87     -43     -8      0     44     45 259.4   0.8  34040  287.54 0862.34
2015 04 09 13 47 32 .13     -53     -1     -1     54     55 268.3  -1.3  34060  287.87 0862.34
2015 04 09 13 47 32 .37     -33    -12      0     36     37 250.0   0.8  34042  287.57 0862.34
2015 04 09 13 47 32 .62     -30    -18     10     36     38 239.3  15.3  34058  287.84 0862.35
2015 04 09 13 47 32 .87     -40    -25      6     48     49 237.6   8.0  34050  287.70 0862.35
2015 04 09 13 47 33 .13     -38    -12     16     41     44 251.8  21.0  34064  287.96 0862.35
2015 04 09 13 47 33 .37     -26     16      3     31     32 302.5   6.9  34060  287.89 0862.35
2015 04 09 13 47 33 .63     -31    -33     23     46     51 223.2  27.3  34048  287.67 0862.35
2015 04 09 13 47 33 .88     -25    -33     21     42     46 217.8  28.2  34046  287.64 0862.35
2015 04 09 13 47 34 .13     -32    -11      6     35     36 250.0  11.0  34058  287.86 0862.35
2015 04 09 13 47 34 .39     -24    -14     23     29     37 239.3  43.7  34080  288.21 0862.35
2015 04 09 13 47 34 .63     -27     -2     32     28     42 263.9  53.3  34060  287.89 0862.35
2015 04 09 13 47 34 .89     -37    -17     18     41     44 244.7  24.1  34066  287.99 0862.35
2015 04 09 13 47 35 .14     -10     -5     16     12     20 244.7  58.5  34078  288.18 0862.35
2015 04 09 13 47 35 .39     -20      0     11     21     23 269.2  29.3  34090  288.40 0862.35
2015 04 09 13 47 35 .64     -13     14     22     20     29 316.6  50.1  34100  288.55 0862.35
2015 04 09 13 47 35 .89     -16     22     30     28     41 323.9  51.2  34106  288.67 0862.35
2015 04 09 13 47 36 .14     -13     22     33     26     42 329.3  57.5  34124  288.97 0862.35
2015 04 09 13 47 36 .39     -16     22     36     28     45 323.9  58.5  34120  288.91 0862.35
2015 04 09 13 47 36 .65      -5     25     34     26     42 348.4  58.5  34138  289.19 0862.35
2015 04 09 13 47 36 .89      -3     31     36     32     48 353.8  52.2  34164  289.65 0862.35
2015 04 09 13 47 37 .14       3     62     37     63     73   3.6  33.5  34134  289.13 0862.35
2015 04 09 13 47 37 .39       0     44     32     45     55   0.0  38.6  34102  288.58 0862.35
2015 04 09 13 47 37 .64      -1     67     29     68     73 359.0  23.1  34100  288.55 0862.35
2015 04 09 13 47 37 .90     -12     46     41     48     63 344.9  44.8  34126  289.01 0862.35
2015 04 09 13 47 38 .14     -19     71     37     74     82 344.9  28.2  34120  288.89 0862.35
2015 04 09 13 47 38 .40      -9     85     36     86     93 353.8  24.1  34114  288.80 0862.35
2015 04 09 13 47 38 .65     -28     75     39     81     89 339.1  27.3  34132  289.09 0862.35
2015 04 09 13 47 38 .90     -31     81     -3     87     88 339.1  -2.2  34088  288.36 0862.35
2015 04 09 13 47 39 .15     -31     92     -2     98     99 341.3  -1.3  34102  288.60 0862.35
2015 04 09 13 47 39 .41     -31     90     18     96     98 340.8  11.1  34156  289.52 0862.35
2015 04 09 13 47 39 .64      -9     76     15     77     79 352.9  11.1  34164  289.63 0862.35
2015 04 09 13 47 39 .90     -30     61     -5     69     70 333.7  -4.1  34140  289.23 0862.35
2015 04 09 13 47 40 .15     -50     69      2     86     87 324.4   1.8  34146  289.35 0862.35
2015 04 09 13 47 40 .40     -23     59     12     64     66 338.2  11.1  34134  289.13 0862.35
2015 04 09 13 47 40 .66     -47     51     24     70     75 316.8  18.9  34140  289.24 0862.35
2015 04 09 13 47 40 .90     -93    105    -31    141    145 318.6 -12.4  34018  287.16 0862.36
2015 04 09 13 47 41 .15    -101    101    -48    143    152 315.0 -18.7  34018  287.16 0862.36
2015 04 09 13 47 41 .41     -77    132    -19    153    155 329.7  -7.2  34026  287.30 0862.36
2015 04 09 13 47 41 .66     -54    111    -44    124    132 334.1 -19.6  34012  287.06 0862.35
2015 04 09 13 47 41 .91     -57    107    -41    122    128 331.9 -23.6  34006  286.96 0862.35
2015 04 09 13 47 42 .17     -35    117    -35    123    129 343.1 -16.0  34008  287.01 0862.35
2015 04 09 13 47 42 .41     -28    106    -19    110    112 344.9 -10.3  34008  287.01 0862.35
2015 04 09 13 47 42 .67     -28    106    -28    110    114 344.9 -14.5  34012  287.08 0862.35
2015 04 09 13 47 42 .92     -32    102    -22    107    110 342.6 -11.9  34014  287.10 0862.35
2015 04 09 13 47 43 .17     -38     88    -30     97    102 336.4 -17.6  34014  287.11 0862.35
2015 04 09 13 47 43 .42     -38     97    -36    105    111 338.6 -23.3  34018  287.16 0862.36
2015 04 09 13 47 43 .66     -29     97    -34    102    107 343.5 -23.6  34020  287.20 0862.36
2015 04 09 13 47 43 .92     -19     93    -27     96     99 348.0 -20.2  34018  287.16 0862.36
2015 04 09 13 47 44 .17     -26     99    -32    103    109 345.3 -17.6  34016  287.15 0862.36
2015 04 09 13 47 44 .42     -28     96    -36    101    108 343.5 -19.6  34024  287.28 0862.36
2015 04 09 13 47 44 .67     -24     81    -30     85     91 343.5 -19.7  34028  287.33 0862.36
2015 04 09 13 47 44 .92     -14     82    -26     84     89 350.2 -17.6  34022  287.25 0862.36
2015 04 09 13 47 45 .17     -20     73     -6     76     77 344.0  -5.2  34024  287.27 0862.36
2015 04 09 13 47 45 .42     -23     97    -21    100    103 346.2 -11.9  34022  287.25 0862.36
2015 04 09 13 47 45 .67     -34     73    -22     81     85 334.6 -15.5  34024  287.27 0862.36
2015 04 09 13 47 45 .92     -41     84    -12     94     95 333.7  -7.3  34022  287.25 0862.36
2015 04 09 13 47 46 .18     -50     79    -19     94     97 327.5 -11.9  34050  287.70 0862.36
2015 04 09 13 47 46 .42     -45     77      0     90     91 329.7  -0.3  34056  287.81 0862.36
2015 04 09 13 47 46 .68     -40     94    -10    103    104 336.8  -5.6  34040  287.54 0862.36
2015 04 09 13 47 46 .92     -52     82    -21     98    101 327.5 -12.4  34038  287.52 0862.36
2015 04 09 13 47 47 .18     -42     90    -20    100    102 334.6 -11.3  34044  287.60 0862.36
2015 04 09 13 47 47 .43     -31     93    -14     99    101 341.3  -8.2  34050  287.70 0862.36
2015 04 09 13 47 47 .68     -23     97      6    100    101 346.2   3.8  34066  287.99 0862.36
2015 04 09 13 47 47 .93     -27     94     -2     98     99 344.0  -1.3  34054  287.77 0862.36
2015 04 09 13 47 48 .19     -21     85      2     88     89 345.7   1.8  34070  288.04 0862.36
2015 04 09 13 47 48 .44     -25     77     -2     82     83 341.5  -1.8  34076  288.14 0862.36
2015 04 09 13 47 48 .69     -52     91     -6    105    106 330.1  -3.7  34082  288.26 0862.36
2015 04 09 13 47 48 .94     -33    102     -4    108    109 341.7  -2.2  34088  288.35 0862.36
2015 04 09 13 47 49 .19     -59     77     -6     98     99 322.6  -3.7  34082  288.26 0862.36
2015 04 09 13 47 49 .44     -59     86    -21    105    108 325.3 -11.5  34036  287.47 0862.36
2015 04 09 13 47 49 .69     -61    107    -18    124    126 330.1  -8.2  34064  287.94 0862.36
2015 04 09 13 47 49 .94     -52    114    -23    126    129 335.5 -10.3  34064  287.94 0862.36
2015 04 09 13 47 50 .20     -56    116    -21    129    131 334.1  -9.3  34062  287.92 0862.36
2015 04 09 13 47 50 .44     -58    107    -11    122    123 331.5  -5.2  34072  288.09 0862.36
2015 04 09 13 47 50 .69     -68     99    -30    121    125 325.7 -13.9  34064  287.96 0862.36
2015 04 09 13 47 50 .94     -81     77    -23    112    115 313.6 -11.9  34062  287.92 0862.36
2015 04 09 13 47 51 .20    -102     81     -5    131    132 308.6  -2.2  34070  288.04 0862.36
2015 04 09 13 47 51 .45     -60     72     19     94     97 320.3  11.6  34090  288.40 0862.36
2015 04 09 13 47 51 .70     -46     96     20    107    110 334.5  11.0  34100  288.55 0862.36
2015 04 09 13 47 51 .95     -59    155     -6    166    167 339.1  -2.2  34104  288.64 0862.36
2015 04 09 13 47 52 .20     -93    147     20    175    177 327.7   6.7  34124  288.97 0862.36
2015 04 09 13 47 52 .45    -116    151      5    191    192 322.6   1.6  34098  288.53 0862.36
2015 04 09 13 47 52 .71     -74    242    -18    254    255 343.0  -4.1  34104  288.63 0862.36
2015 04 09 13 47 52 .95    -121    191    -53    227    234 327.5 -13.3  34098  288.53 0862.36
2015 04 09 13 47 53 .20    -100    153     -8    183    184 326.8  -2.8  34130  289.08 0862.36
2015 04 09 13 47 53 .45    -118    111     13    163    164 313.1   4.9  34128  289.02 0862.36
2015 04 09 13 47 53 .70    -139    105     37    175    179 307.1  12.0  34134  289.14 0862.36
2015 04 09 13 47 53 .95    -117    105     26    158    161 311.8   9.5  34142  289.28 0862.36
2015 04 09 13 47 54 .20    -158    130    -11    205    206 309.5  -3.2  34110  288.72 0862.36
2015 04 09 13 47 54 .45    -134    142    -38    196    200 316.8 -11.1  34066  287.98 0862.36
2015 04 09 13 47 54 .71    -142    172    -58    224    232 320.4 -14.5  34050  287.70 0862.36
2015 04 09 13 47 54 .96    -128    163    -24    208    210 321.7  -6.7  34068  288.03 0862.36
2015 04 09 13 47 55 .22    -119    224    -36    254    257 332.0  -8.2  34078  288.17 0862.35
2015 04 09 13 47 55 .47     -38    248     63    252    260 351.1  14.2  34090  288.37 0862.35
2015 04 09 13 47 55 .72     -45    279     14    283    284 350.7   2.9  34100  288.54 0862.35
2015 04 09 13 47 55 .97     -89    275     14    290    291 342.1   2.8  34066  287.99 0862.35
2015 04 09 13 47 56 .22    -129    295    -41    323    326 336.4  -7.3  34048  287.68 0862.35
2015 04 09 13 47 56 .47    -137    287    -45    319    323 334.5  -8.1  34046  287.63 0862.35
2015 04 09 13 47 56 .72    -104    270    -24    290    292 338.8  -4.9  34074  288.12 0862.35
2015 04 09 13 47 56 .97     -90    228    -21    246    248 338.4  -5.1  34100  288.54 0862.35
2015 04 09 13 47 57 .22    -110    281    -16    302    303 338.6  -3.1  34112  288.75 0862.35
2015 04 09 13 47 57 .47     -86    261     43    275    279 341.7   9.0  34114  288.78 0862.35
2015 04 09 13 47 57 .72    -150    352    -40    383    386 336.8  -6.0  34032  287.40 0862.35
2015 04 09 13 47 57 .98    -110    338     -3    356    357 341.9  -0.6  34058  287.84 0862.35
2015 04 09 13 47 58 .22    -141    342    -38    370    372 337.6  -5.9  34058  287.86 0862.35
2015 04 09 13 47 58 .48    -127    318    -19    343    344 338.2  -3.2  34066  287.98 0862.35
2015 04 09 13 47 58 .72    -108    292      5    312    313 339.7   1.0  34094  288.44 0862.35
2015 04 09 13 47 58 .97    -135    358    -40    383    386 339.3  -6.0  34022  287.25 0862.35
2015 04 09 13 47 59 .22    -154    375    -38    406    408 337.7  -5.4  33992  286.72 0862.35
2015 04 09 13 47 59 .48    -153    364    -50    396    400 337.2  -7.3  34068  288.01 0862.35
2015 04 09 13 47 59 .73    -133    382    -29    405    406 340.7  -4.1  34094  288.45 0862.35
2015 04 09 13 47 59 .98    -120    392      0    410    411 343.0   0.1  34078  288.19 0862.35
2015 04 09 13 48 00 .23    -104    408     17    422    423 345.6   2.3  34138  289.21 0862.35
2015 04 09 13 48 00 .48     -40    383     59    386    391 354.0   8.7  34154  289.47 0862.35
2015 04 09 13 48 00 .73     -60    376     58    381    386 350.9   8.7  34164  289.64 0862.35
2015 04 09 13 48 00 .98    -107    337      5    354    355 342.3   0.9  34122  288.93 0862.35
2015 04 09 13 48 01 .23    -107    360      5    376    377 343.3   0.9  34092  288.42 0862.35
2015 04 09 13 48 01 .48    -108    362     -8    378    379 343.4  -1.3  34034  287.45 0862.35
2015 04 09 13 48 01 .74    -113    361    -20    379    380 342.6  -3.1  34052  287.76 0862.35
2015 04 09 13 48 01 .98    -113    384      2    401    402 343.6   0.4  34164  289.64 0862.35
2015 04 09 13 48 02 .25     -85    389     41    399    402 347.6   6.0  34188  290.06 0862.35
2015 04 09 13 48 02 .49     -64    423     77    428    435 351.3  10.2  34272  291.46 0862.35
2015 04 09 13 48 02 .75     -95    405      1    417    418 346.7   0.2  34050  287.70 0862.35
2015 04 09 13 48 02 .99     -96    435    -30    446    447 347.5  -3.9  34028  287.35 0862.35
2015 04 09 13 48 03 .24     -70    419      5    425    426 350.4   0.7  33988  286.67 0862.35
2015 04 09 13 48 03 .49     -82    446      6    454    455 349.5   0.8  33990  286.69 0862.35
2015 04 09 13 48 03 .74    -100    429     -9    441    442 346.9  -1.3  33980  286.54 0862.35
2015 04 09 13 48 04 .00     -88    438    -17    447    448 348.6  -2.2  33982  286.55 0862.35
2015 04 09 13 48 04 .25    -100    411    -16    423    424 346.3  -2.2  33984  286.60 0862.35
2015 04 09 13 48 04 .50    -123    404    -45    423    426 343.0  -6.1  33982  286.55 0862.35
2015 04 09 13 48 04 .75    -136    399    -31    422    424 341.2  -4.2  33994  286.77 0862.35
2015 04 09 13 48 05 .00    -125    379    -28    400    401 341.7  -4.1  34006  286.96 0862.35
2015 04 09 13 48 05 .25    -123    391     -9    410    411 342.5  -1.3  34004  286.92 0862.35
2015 04 09 13 48 05 .50    -118    408    -15    425    426 343.9  -2.1  33992  286.72 0862.35
2015 04 09 13 48 05 .75    -115    394    -16    411    412 343.7  -2.3  33988  286.65 0862.35
2015 04 09 13 48 06 .00    -118    389     -6    407    408 343.1  -0.9  33990  286.69 0862.35
2015 04 09 13 48 06 .25    -104    377     -8    392    393 344.5  -1.3  33988  286.66 0862.35
2015 04 09 13 48 06 .50    -101    385    -11    399    400 345.2  -1.6  33984  286.58 0862.35
2015 04 09 13 48 06 .75    -114    391    -22    408    409 343.7  -3.2  33984  286.60 0862.35
2015 04 09 13 48 07 .00    -116    415    -15    432    433 344.3  -2.1  33986  286.62 0862.35
2015 04 09 13 48 07 .25    -113    408    -23    424    425 344.4  -3.1  33984  286.60 0862.35
2015 04 09 13 48 07 .50    -143    351    -48    380    384 337.8  -7.3  33978  286.51 0862.35
2015 04 09 13 48 07 .76    -167    380    -83    416    425 336.3 -11.3  34002  286.91 0862.35
2015 04 09 13 48 08 .01    -161    351    -44    387    390 335.3  -6.6  34002  286.90 0862.36
2015 04 09 13 48 08 .25    -162    327    -51    366    370 333.6  -8.0  34036  287.49 0862.36
2015 04 09 13 48 08 .50    -140    383    -15    408    409 339.9  -2.2  34056  287.80 0862.36
2015 04 09 13 48 08 .75    -168    364    -51    402    406 335.2  -7.3  34008  287.01 0862.36
2015 04 09 13 48 09 .00    -151    350    -48    382    386 336.7  -7.2  33974  286.43 0862.36
2015 04 09 13 48 09 .27    -164    357    -60    393    398 335.3  -8.8  33978  286.48 0862.36
2015 04 09 13 48 09 .52    -203    313    -79    374    383 327.0 -12.0  33972  286.41 0862.36
2015 04 09 13 48 09 .77    -157    315    -70    353    361 333.5 -11.3  33972  286.41 0862.36
2015 04 09 13 48 10 .02    -127    319    -36    344    346 338.2  -6.1  34038  287.51 0862.36
2015 04 09 13 48 10 .27    -138    315    -48    345    349 336.3  -7.9  34030  287.37 0862.36
2015 04 09 13 48 10 .52    -141    296    -27    328    330 334.5  -4.8  34030  287.37 0862.35
2015 04 09 13 48 10 .77    -123    330    -41    353    356 339.5  -6.7  34034  287.44 0862.35
2015 04 09 13 48 11 .02    -110    356    -57    373    378 342.7  -8.7  34028  287.34 0862.35
2015 04 09 13 48 11 .27     -93    282      4    298    299 341.7   0.8  34030  287.38 0862.35
2015 04 09 13 48 11 .52    -105    300     15    319    320 340.6   2.8  34018  287.16 0862.35
2015 04 09 13 48 11 .77    -101    305     -7    322    323 341.7  -1.3  34008  287.01 0862.35
2015 04 09 13 48 12 .02    -135    333     -8    360    361 337.9  -1.4  34016  287.15 0862.35
2015 04 09 13 48 12 .27    -144    332    -54    363    368 336.5  -8.6  34014  287.10 0862.35
2015 04 09 13 48 12 .53     -67    273     29    282    284 346.2   6.0  34024  287.28 0862.35
2015 04 09 13 48 12 .77    -138    355    -14    382    383 338.7  -2.2  33994  286.78 0862.35
2015 04 09 13 48 13 .03    -164    375    -39    410    412 336.4  -5.5  33998  286.84 0862.35
2015 04 09 13 48 13 .27    -157    361    -38    394    396 336.5  -5.6  33968  286.31 0862.35
2015 04 09 13 48 13 .53    -166    351    -54    389    393 334.7  -7.9  33968  286.31 0862.35
2015 04 09 13 48 13 .78    -166    352    -52    390    394 334.7  -7.7  33994  286.78 0862.35
2015 04 09 13 48 14 .03    -165    349    -60    387    392 334.7  -8.9  33992  286.73 0862.35
2015 04 09 13 48 14 .28    -158    325    -61    362    368 334.0  -9.6  33986  286.64 0862.35
2015 04 09 13 48 14 .53    -195    312    -70    369    376 328.0 -10.8  33970  286.36 0862.35
2015 04 09 13 48 14 .79    -191    304    -65    360    366 327.9 -10.4  33988  286.66 0862.35
2015 04 09 13 48 15 .03    -184    330    -84    379    389 330.8 -12.5  33996  286.80 0862.35
2015 04 09 13 48 15 .28    -205    305    -89    368    379 326.1 -13.7  33996  286.80 0862.35
2015 04 09 13 48 15 .53    -201    301    -95    363    376 326.3 -14.8  34012  287.07 0862.35
2015 04 09 13 48 15 .78    -197    268    -74    333    342 323.7 -12.5  34022  287.22 0862.35
2015 04 09 13 48 16 .04    -179    264    -69    320    328 325.8 -12.3  34012  287.07 0862.35
2015 04 09 13 48 16 .30    -133    262    -37    294    297 333.0  -7.3  34036  287.48 0862.35
2015 04 09 13 48 16 .55    -199    232    -61    307    314 319.4 -11.3  34008  287.01 0862.35
2015 04 09 13 48 16 .80    -199    225    -60    301    308 318.5 -11.3  34012  287.06 0862.35
2015 04 09 13 48 17 .05    -180    247    -68    306    314 323.9 -12.6  34006  286.97 0862.35
2015 04 09 13 48 17 .30    -204    236    -61    313    320 319.2 -11.1  34008  287.01 0862.35
2015 04 09 13 48 17 .55    -131    261    -59    293    299 333.3 -11.5  34014  287.11 0862.35
2015 04 09 13 48 17 .80    -176    241    -49    299    304 323.9  -9.3  34006  286.95 0862.35
2015 04 09 13 48 18 .05    -174    293    -77    342    351 329.3 -12.7  33994  286.76 0862.35
2015 04 09 13 48 18 .30    -149    308    -58    343    348 334.1  -9.7  33992  286.73 0862.35
2015 04 09 13 48 18 .55    -168    268    -63    317    324 327.9 -11.3  33998  286.82 0862.35
2015 04 09 13 48 18 .80    -171    313    -69    357    364 331.3 -11.0  34000  286.86 0862.34
2015 04 09 13 48 19 .05    -186    280    -82    337    348 326.4 -13.8  33986  286.64 0862.34
2015 04 09 13 48 19 .31    -164    286    -67    330    337 330.1 -11.6  34002  286.90 0862.34
2015 04 09 13 48 19 .55    -140    319    -44    349    352 336.3  -7.2  34006  286.98 0862.34
2015 04 09 13 48 19 .80    -135    315    -35    343    345 336.8  -6.0  34016  287.12 0862.34
2015 04 09 13 48 20 .05    -130    282    -52    311    316 335.3  -9.6  34016  287.14 0862.34
2015 04 09 13 48 20 .30    -123    296    -15    321    322 337.3  -2.8  34028  287.34 0862.34
2015 04 09 13 48 20 .56    -101    301     -6    318    319 341.3  -1.2  34028  287.33 0862.34
2015 04 09 13 48 20 .81     -68    288     -3    297    298 346.6  -0.7  34044  287.61 0862.34
2015 04 09 13 48 21 .05    -114    273     -6    296    297 337.3  -1.3  34044  287.61 0862.34
2015 04 09 13 48 21 .31    -117    318    -18    340    341 339.7  -3.1  34050  287.72 0862.34
2015 04 09 13 48 21 .56    -116    344     -3    364    365 341.3  -0.5  34072  288.08 0862.34
2015 04 09 13 48 21 .81     -75    369     23    377    378 348.4   3.5  34158  289.54 0862.34
2015 04 09 13 48 22 .05     -68    353    100    360    374 349.1  15.6  34158  289.55 0862.34
2015 04 09 13 48 22 .32     -17    410    106    411    425 357.5  14.5  34260  291.28 0862.34
2015 04 09 13 48 22 .55      -5    353     66    354    361 359.1  10.6  34236  290.86 0862.34
2015 04 09 13 48 22 .81       0    385     70    386    393   0.1  10.4  34036  287.49 0862.34
2015 04 09 13 48 23 .07      -1    468     62    469    474 359.8   7.6  33974  286.43 0862.34
2015 04 09 13 48 23 .32     -11    467     44    468    471 358.6   5.4  34006  286.98 0862.34
2015 04 09 13 48 23 .57     -39    517     53    519    522 355.6   5.9  34020  287.21 0862.34
2015 04 09 13 48 23 .82     -15    503     24    504    505 358.2   2.8  34006  286.98 0862.34
2015 04 09 13 48 24 .07     -22    497     52    498    501 357.4   6.0  34010  287.02 0862.34
2015 04 09 13 48 24 .32      44    491     39    494    496   5.2   4.6  33968  286.33 0862.34
2015 04 09 13 48 24 .57      21    475     41    476    478   2.6   5.0  33968  286.33 0862.34
2015 04 09 13 48 24 .82      19    479     23    480    481   2.3   2.8  33968  286.31 0862.34
2015 04 09 13 48 25 .07      35    468     23    470    471   4.3   2.9  33968  286.31 0862.35
2015 04 09 13 48 25 .32      37    466     13    468    469   4.6   1.7  33964  286.26 0862.35
2015 04 09 13 48 25 .57      34    449      0    451    452   4.4   0.1  33970  286.37 0862.35
2015 04 09 13 48 25 .82      33    414    -16    416    417   4.6  -2.3  33966  286.28 0862.35
2015 04 09 13 48 26 .08      38    411    -16    413    414   5.3  -2.2  33968  286.33 0862.35
2015 04 09 13 48 26 .33     -10    441     -8    442    443 358.6  -1.2  34008  286.99 0862.35
2015 04 09 13 48 26 .58       0    365     14    366    367   0.0   2.3  34020  287.20 0862.35
2015 04 09 13 48 26 .82     -33    426     29    428    429 355.5   3.9  34044  287.60 0862.36
2015 04 09 13 48 27 .08       0    336     -7    337    338   0.0  -1.3  33978  286.49 0862.36
2015 04 09 13 48 27 .34      -7    417     27    418    419 359.0   3.7  34048  287.68 0862.36
2015 04 09 13 48 27 .58     -15    428     28    429    430 358.0   3.8  33976  286.47 0862.36
2015 04 09 13 48 27 .83       3    342    -14    343    344   0.6  -2.5  33968  286.32 0862.36
2015 04 09 13 48 28 .09       4    336    -21    337    338   0.8  -3.7  33992  286.73 0862.36
2015 04 09 13 48 28 .33      17    436    -17    437    438 360.0  -2.2  33988  286.67 0862.36
2015 04 09 13 48 28 .58       0    351     39    352    355   0.0   6.4  34034  287.45 0862.36
2015 04 09 13 48 28 .83       3    356     18    357    358   0.5   3.0  34022  287.23 0862.36
2015 04 09 13 48 29 .08     -27    428     -8    429    430 356.3  -1.2  34018  287.16 0862.36
2015 04 09 13 48 29 .33     -32    434    -17    436    437 355.8  -2.3  33968  286.33 0862.36
2015 04 09 13 48 29 .58     -35    415    -30    417    419 355.1  -4.1  33968  286.32 0862.36
2015 04 09 13 48 29 .84     -27    437    -16    438    439 356.4  -2.1  33972  286.38 0862.36
2015 04 09 13 48 30 .09     -17    420    -23    421    422 357.7  -3.2  33968  286.32 0862.36
2015 04 09 13 48 30 .35     -19    415    -19    416    417 357.3  -2.7  33974  286.42 0862.36
2015 04 09 13 48 30 .59     -28    412     -8    413    414 356.0  -1.2  33988  286.67 0862.36
2015 04 09 13 48 30 .85     -38    421     -1    423    424 354.8  -0.2  33972  286.38 0862.36
2015 04 09 13 48 31 .10     -33    429      6    431    432 355.5   0.8  33970  286.37 0862.36
2015 04 09 13 48 31 .35     -47    421      0    424    425 353.5   0.1  33972  286.38 0862.36
2015 04 09 13 48 31 .60     -48    442     -3    445    446 353.7  -0.5  33974  286.42 0862.37
2015 04 09 13 48 31 .85     -49    440     -9    443    444 353.5  -1.3  33970  286.35 0862.37
2015 04 09 13 48 32 .10     -54    433      5    437    438 352.9   0.7  33976  286.47 0862.37
2015 04 09 13 48 32 .35     -33    429     14    431    432 355.5   1.9  33978  286.50 0862.37
2015 04 09 13 48 32 .60     -34    439      6    441    442 355.5   0.9  33982  286.57 0862.37
2015 04 09 13 48 32 .86     -39    449     18    451    452 355.0   2.4  33996  286.79 0862.37
2015 04 09 13 48 33 .10     -40    422     36    424    426 354.6   5.0  34002  286.89 0862.37
2015 04 09 13 48 33 .36     -41    412     29    415    417 354.2   4.0  34006  286.97 0862.37
2015 04 09 13 48 33 .60     -38    383     47    385    388 354.3   7.1  34010  287.03 0862.37
2015 04 09 13 48 33 .86     -62    369     41    375    378 350.4   6.4  34032  287.42 0862.37
2015 04 09 13 48 34 .11     -54    370     57    374    379 351.7   8.7  34090  288.38 0862.37
2015 04 09 13 48 34 .36     -53    401     42    405    408 352.4   6.0  34012  287.08 0862.37
2015 04 09 13 48 34 .60     -35    396     13    398    399 354.9   1.9  34032  287.42 0862.37
2015 04 09 13 48 34 .85     -47    402     41    405    408 353.3   5.9  34024  287.28 0862.37
2015 04 09 13 48 35 .11     -22    394     36    395    397 356.8   5.3  33972  286.39 0862.36
2015 04 09 13 48 35 .36     -25    388     12    389    390 356.3   1.8  33968  286.32 0862.36
2015 04 09 13 48 35 .61      -9    383     -4    384    385 358.6  -0.7  33968  286.32 0862.36
2015 04 09 13 48 35 .86       0    307    -17    308    309   0.0  -3.2  33966  286.30 0862.36
2015 04 09 13 48 36 .11      -8    366     -3    367    368 358.6  -0.5  33968  286.32 0862.36
2015 04 09 13 48 36 .36      -3    376     -7    377    378 359.4  -1.2  33972  286.41 0862.36
2015 04 09 13 48 36 .61     -13    372     18    373    374 358.0   2.8  33974  286.43 0862.36
2015 04 09 13 48 36 .87     -12    387     18    388    389 358.2   2.8  33974  286.43 0862.37
2015 04 09 13 48 37 .12     -28    378     19    379    380 355.6   3.0  33978  286.49 0862.37
2015 04 09 13 48 37 .37     -14    373      7    374    375 357.8   1.1  33978  286.48 0862.37
2015 04 09 13 48 37 .63      -6    385     10    386    387 359.1   1.5  33988  286.66 0862.37
2015 04 09 13 48 37 .87     -14    355     -7    356    357 357.7  -1.3  33978  286.49 0862.37
2015 04 09 13 48 38 .12     -12    363     24    364    365 358.0   3.8  33994  286.78 0862.37
2015 04 09 13 48 38 .37     -18    344     10    345    346 356.9   1.8  33992  286.73 0862.37
2015 04 09 13 48 38 .63      -5    324     13    325    326 359.1   2.3  34020  287.19 0862.37
2015 04 09 13 48 38 .88      36    301     48    304    308   6.9   9.0  34100  288.56 0862.37
2015 04 09 13 48 39 .13      24    309     24    311    313   4.5   4.6  34126  288.98 0862.37
2015 04 09 13 48 39 .38      34    274      7    277    278   7.1   1.6  34180  289.92 0862.37
2015 04 09 13 48 39 .63      22    258      3    260    261   4.9   0.8  34118  288.85 0862.37
2015 04 09 13 48 39 .88      51    253     37    259    262  11.5   8.2  34162  289.61 0862.37
2015 04 09 13 48 40 .13      43    270     38    274    277   9.1   8.0  34138  289.19 0862.37
2015 04 09 13 48 40 .38       0    246     62    247    255   0.2  14.2  34066  287.99 0862.37
2015 04 09 13 48 40 .63      39    286     84    289    302   7.8  16.3  34150  289.41 0862.37
2015 04 09 13 48 40 .88     -20    305     19    306    307 356.2   3.6  34036  287.48 0862.37
2015 04 09 13 48 41 .14     -11    260     -5    261    262 357.5  -1.3  33988  286.65 0862.37
2015 04 09 13 48 41 .39      41    227     59    231    239  10.2  14.5  34100  288.54 0862.38
2015 04 09 13 48 41 .63       0    235     64    236    245 359.8  15.2  34118  288.87 0862.38
2015 04 09 13 48 41 .88      13    299     81    300    311   2.5  15.2  34064  287.93 0862.38
2015 04 09 13 48 42 .13      19    326     31    327    329   3.5   5.5  34006  286.97 0862.38
2015 04 09 13 48 42 .39      37    342     35    345    347   6.3   5.8  33986  286.64 0862.38
2015 04 09 13 48 42 .64      31    350     17    352    353   5.1   2.9  34000  286.86 0862.38
2015 04 09 13 48 42 .88      -5    341    -24    342    343 359.1  -4.1  33980  286.53 0862.38
2015 04 09 13 48 43 .13      -5    336    -15    337    338 359.1  -2.7  33974  286.44 0862.37
2015 04 09 13 48 43 .39       0    276    -10    277    278   0.0  -2.2  33974  286.42 0862.37
2015 04 09 13 48 43 .64       6    276     -1    277    278   1.4  -0.3  33982  286.55 0862.37
2015 04 09 13 48 43 .90       3    255     -5    256    257   0.9  -1.3  33972  286.40 0862.37
2015 04 09 13 48 44 .15      20    304    -11    305    306   3.8  -2.2  33974  286.42 0862.37
2015 04 09 13 48 44 .40      44    323      9    326    327   7.8   1.7  34030  287.38 0862.37
2015 04 09 13 48 44 .65      41    302     -1    305    306   7.8  -0.3  34008  287.01 0862.37
2015 04 09 13 48 44 .90      28    303     15    305    306   5.4   2.9  34026  287.29 0862.37
2015 04 09 13 48 45 .15       8    262      5    263    264   1.8   1.2  33976  286.47 0862.38
2015 04 09 13 48 45 .41     -10    325     21    326    327 358.2   3.7  34026  287.29 0862.38
2015 04 09 13 48 45 .65      -2    284      8    285    286 359.5   1.7  33978  286.50 0862.38
2015 04 09 13 48 45 .90      16    317      4    318    319   2.9   0.9  33980  286.52 0862.38
2015 04 09 13 48 46 .16       8    259      0    260    261   1.8   0.2  33992  286.74 0862.38
2015 04 09 13 48 46 .40       4    270     -5    271    272   0.9  -1.3  33992  286.72 0862.38
2015 04 09 13 48 46 .65      19    304     -1    305    306   3.6  -0.3  34008  287.01 0862.38
2015 04 09 13 48 46 .91       0    267     13    268    269   0.0   2.9  34026  287.29 0862.38
2015 04 09 13 48 47 .15      18    307      1    308    309   3.4   0.2  34004  286.92 0862.38
2015 04 09 13 48 47 .41      39    279      5    282    283   8.0   1.2  34040  287.53 0862.38
2015 04 09 13 48 47 .66     -21    272     18    273    274 355.5   3.8  34070  288.04 0862.38
2015 04 09 13 48 47 .90      18    305     29    306    308   3.5   5.4  34058  287.85 0862.38
2015 04 09 13 48 48 .16      -1    266     -5    267    268 359.8  -1.3  33988  286.65 0862.38
2015 04 09 13 48 48 .41      11    265      0    266    267   2.5   0.0  34036  287.48 0862.38
2015 04 09 13 48 48 .66      18    304    -11    305    306   3.5  -2.2  34010  287.04 0862.38
2015 04 09 13 48 48 .91      25    300     23    302    303   4.9   4.4  34058  287.83 0862.38
2015 04 09 13 48 49 .16       0    240     12    241    242   0.0   2.9  33992  286.74 0862.38
2015 04 09 13 48 49 .41     -27    280      3    282    283 354.4   0.7  33978  286.50 0862.38
2015 04 09 13 48 49 .66       0    233     11    234    235   0.0   2.9  33978  286.48 0862.38
2015 04 09 13 48 49 .91      35    285     11    288    289   7.1   2.3  33992  286.74 0862.38
2015 04 09 13 48 50 .16      42    276     -5    280    281   8.7  -1.1  33996  286.79 0862.38
2015 04 09 13 48 50 .41      -2    292    -13    293    294 359.5  -2.6  34000  286.85 0862.37
2015 04 09 13 48 50 .66       0    242    -21    243    245   0.1  -5.1  33974  286.42 0862.37
2015 04 09 13 48 50 .92      -4    270    -14    271    272 359.1  -3.1  33992  286.72 0862.37
2015 04 09 13 48 51 .17      -3    249     -9    250    251 359.3  -2.3  33992  286.74 0862.37
2015 04 09 13 48 51 .43       7    234     -1    235    236   1.8  -0.3  34020  287.19 0862.37
2015 04 09 13 48 51 .67      35    278     17    281    282   7.2   3.6  34048  287.66 0862.37
2015 04 09 13 48 51 .92      20    272     -5    273    274   4.4  -1.2  33978  286.48 0862.37
2015 04 09 13 48 52 .18      35    283    -15    286    287   7.1  -3.2  33980  286.52 0862.38
2015 04 09 13 48 52 .42      32    262    -19    265    266   7.1  -4.1  34000  286.87 0862.38
2015 04 09 13 48 52 .67      18    268    -19    269    270   4.0  -4.1  33994  286.77 0862.38
2015 04 09 13 48 52 .93      12    269    -18    270    271   2.7  -3.9  34004  286.94 0862.38
2015 04 09 13 48 53 .18      11    265    -28    266    268   2.5  -6.2  34008  287.01 0862.38
2015 04 09 13 48 53 .43      20    272     11    273    274   4.4   2.3  34008  286.99 0862.38
2015 04 09 13 48 53 .68      18    247     14    248    249   4.2   3.3  34016  287.12 0862.38
2015 04 09 13 48 53 .93       3    204     -5    205    206   0.9  -1.6  34012  287.06 0862.38
2015 04 09 13 48 54 .18       9    234     -8    235    236   2.2  -2.1  34008  287.01 0862.38
2015 04 09 13 48 54 .43      -8    245     -5    246    247 358.0  -1.3  34010  287.02 0862.38
2015 04 09 13 48 54 .69      -4    257    -28    258    260 359.1  -6.2  34008  287.01 0862.38
2015 04 09 13 48 54 .93       8    254    -14    255    256   2.0  -3.1  34034  287.44 0862.38
2015 04 09 13 48 55 .18      32    262     -5    265    266   7.1  -1.3  34038  287.50 0862.38
2015 04 09 13 48 55 .43      13    254     17    255    256   3.1   3.9  34038  287.50 0862.38
2015 04 09 13 48 55 .69      10    241     10    242    243   2.6   2.5  34034  287.44 0862.38
2015 04 09 13 48 55 .93      -7    249     12    250    251 358.2   2.8  34046  287.63 0862.38
2015 04 09 13 48 56 .19      19    252    -11    253    254   4.4  -2.6  34040  287.53 0862.38
2015 04 09 13 48 56 .44      33    246     -7    249    250   7.8  -1.6  34038  287.50 0862.38
2015 04 09 13 48 56 .68      36    245     -9    248    249   8.5  -2.2  34020  287.21 0862.38
2015 04 09 13 48 56 .94      35    255      8    258    259   7.8   1.8  34018  287.17 0862.38
2015 04 09 13 48 57 .19       0    242      4    243    244   0.0   1.0  34038  287.50 0862.38
2015 04 09 13 48 57 .44       0    230    -12    231    232   0.2  -3.2  34034  287.45 0862.38
2015 04 09 13 48 57 .69       1    208     -8    209    210   0.5  -2.2  34022  287.25 0862.38
2015 04 09 13 48 57 .95       3    222     -8    223    224   1.0  -2.2  34024  287.27 0862.38
2015 04 09 13 48 58 .20      -6    258      3    259    260 358.6   0.8  34034  287.44 0862.38
2015 04 09 13 48 58 .45     -26    252     -2    254    255 354.0  -0.5  34034  287.44 0862.38
2015 04 09 13 48 58 .70     -29    255     17    257    258 353.3   3.9  34028  287.34 0862.37
2015 04 09 13 48 58 .95      15    253     12    254    255   3.4   2.8  34010  287.04 0862.37
2015 04 09 13 48 59 .20       6    204     -8    205    206   1.8  -2.2  33982  286.57 0862.37
2015 04 09 13 48 59 .46       8    243     -9    244    245   2.0  -2.2  33986  286.63 0862.37
2015 04 09 13 48 59 .70       1    196     -7    197    198   0.5  -2.3  34004  286.93 0862.37
2015 04 09 13 48 59 .95      -3    240    -13    241    242 359.1  -3.1  33976  286.47 0862.37
2015 04 09 13 49 00 .20       0    207    -13    208    209   0.2  -3.7  33972  286.39 0862.37
2015 04 09 13 49 00 .46      -3    244    -13    245    246 359.1  -3.1  33972  286.40 0862.38
2015 04 09 13 49 00 .70     -18    236    -18    237    238 355.6  -4.4  33970  286.35 0862.38
2015 04 09 13 49 00 .95     -18    236     -5    237    238 355.6  -1.3  33968  286.33 0862.38
2015 04 09 13 49 01 .21     -11    221     -8    222    223 357.1  -2.2  33970  286.35 0862.38
2015 04 09 13 49 01 .45       4    179     -2    180    181   1.4  -0.7  33972  286.41 0862.38
2015 04 09 13 49 01 .71      13    200     -7    201    202   3.8  -2.2  33980  286.54 0862.38
2015 04 09 13 49 01 .96      11    188    -17    189    190   3.6  -5.2  33986  286.64 0862.38
2015 04 09 13 49 02 .21      -8    194    -32    195    198 357.5  -9.3  33988  286.66 0862.37
2015 04 09 13 49 02 .46      -4    207    -27    208    210 358.9  -7.5  33980  286.54 0862.37
2015 04 09 13 49 02 .71      10    211    -49    212    218   2.9 -13.2  33984  286.59 0862.37
2015 04 09 13 49 02 .96      13    194    -44    195    201   4.0 -12.9  33984  286.61 0862.37
2015 04 09 13 49 03 .21      33    178    -39    182    187  10.5 -12.2  33992  286.73 0862.37
2015 04 09 13 49 03 .46      35    171    -35    175    179  11.8 -11.3  33982  286.56 0862.37
2015 04 09 13 49 03 .71      13    171    -28    172    175   4.4  -9.3  33992  286.73 0862.37
2015 04 09 13 49 03 .96       8    188    -44    189    195   2.5 -13.2  33990  286.69 0862.38
2015 04 09 13 49 04 .22     -25    195    -52    197    204 352.7 -15.0  34010  287.03 0862.38
2015 04 09 13 49 04 .47      -7    206      5    207    208 358.0   1.6  34052  287.76 0862.38
2015 04 09 13 49 04 .72       0    208    -29    209    212 359.8  -8.0  34050  287.72 0862.38
2015 04 09 13 49 04 .98      -1    182    -23    183    185 359.5  -7.2  34020  287.21 0862.38
2015 04 09 13 49 05 .23     -14    192      0    193    194 355.8   0.0  34070  288.06 0862.38
2015 04 09 13 49 05 .47     -26    189      9    191    192 352.0   2.8  34064  287.94 0862.38
2015 04 09 13 49 05 .73     -17    176     10    177    178 354.4   3.3  34068  288.03 0862.38
2015 04 09 13 49 05 .98     -14    189     44    190    196 355.5  13.2  34066  287.99 0862.38
2015 04 09 13 49 06 .23     -17    175     27    176    179 354.4   8.8  34068  288.03 0862.38
2015 04 09 13 49 06 .48     -15    199     29    200    203 355.5   8.5  34080  288.21 0862.38
2015 04 09 13 49 06 .73     -22    190     21    192    194 353.3   6.5  34080  288.23 0862.38
2015 04 09 13 49 06 .98     -36    185    -22    189    191 348.9  -6.7  34060  287.87 0862.38
2015 04 09 13 49 07 .23     -56    180    -23    189    191 342.6  -7.2  34028  287.33 0862.38
2015 04 09 13 49 07 .48     -50    177    -37    184    188 344.2 -11.6  34024  287.28 0862.38
2015 04 09 13 49 07 .73     -38    155    -48    160    168 346.2 -16.8  34024  287.28 0862.38
2015 04 09 13 49 07 .98     -48    158    -53    166    175 343.1 -17.9  33974  286.44 0862.38
2015 04 09 13 49 08 .23     -32    157    -55    161    171 348.5 -19.1  33970  286.35 0862.38
2015 04 09 13 49 08 .49     -43    156    -28    162    165 344.4 -10.1  34098  288.53 0862.38
2015 04 09 13 49 08 .73     -53    161    -28    170    173 341.5  -9.3  34104  288.62 0862.38
2015 04 09 13 49 08 .99     -23    164      7    166    167 352.0   2.5  34072  288.08 0862.38
2015 04 09 13 49 09 .24     -31    168     10    171    172 349.3   3.6  34082  288.25 0862.38
2015 04 09 13 49 09 .48     -24    177     19    179    181 352.0   6.1  34070  288.06 0862.38
2015 04 09 13 49 09 .74      -8    189     28    190    193 357.5   8.5  34058  287.84 0862.38
2015 04 09 13 49 09 .98     -47    178     32    185    188 345.1  10.1  34150  289.41 0862.38
2015 04 09 13 49 10 .24     -51    163     28    171    174 342.4   9.3  34172  289.79 0862.38
2015 04 09 13 49 10 .49     -43    164     22    170    172 345.3   7.5  34176  289.85 0862.38
2015 04 09 13 49 10 .74     -43    162     30    168    171 345.1  10.1  34168  289.72 0862.38
2015 04 09 13 49 10 .98     -41    154     23    160    162 344.9   8.2  34088  288.35 0862.38
2015 04 09 13 49 11 .25     -73    152     -2    169    170 334.4  -0.7  34066  287.98 0862.38
2015 04 09 13 49 11 .49     -52    175      7    183    184 343.5   2.3  34058  287.86 0862.38
2015 04 09 13 49 11 .75     -62    167    -15    179    180 339.5  -4.9  33970  286.35 0862.38
2015 04 09 13 49 12 .00     -55    167    -19    176    178 341.7  -6.2  33970  286.35 0862.38
2015 04 09 13 49 12 .26     -50    178    -15    186    187 344.2  -4.9  33986  286.64 0862.38
2015 04 09 13 49 12 .50     -41    169     -6    175    176 346.2  -2.2  33990  286.69 0862.38
2015 04 09 13 49 12 .75     -28    155    -21    158    160 349.8  -7.7  33980  286.54 0862.38
2015 04 09 13 49 13 .00     -29    142    -33    146    150 348.4 -12.9  33974  286.42 0862.38
2015 04 09 13 49 13 .26     -23    124    -21    127    129 349.3  -9.8  34006  286.98 0862.37
2015 04 09 13 49 13 .50     -20     98    -32    101    105 348.4 -23.3  34034  287.43 0862.37
2015 04 09 13 49 13 .75     -51    106     -1    118    119 334.1  -0.7  34024  287.27 0862.37
2015 04 09 13 49 14 .01     -54    130      7    142    143 337.3   2.9  34010  287.05 0862.37
2015 04 09 13 49 14 .26     -40    123      0    130    131 341.7   0.2  34032  287.42 0862.37
2015 04 09 13 49 14 .51     -25    111     41    114    121 347.1  20.9  34058  287.84 0862.37
2015 04 09 13 49 14 .75     -24    108     28    111    115 347.1  14.3  34048  287.67 0862.37
2015 04 09 13 49 15 .01     -38    141     27    147    150 344.8  10.6  34044  287.62 0862.37
2015 04 09 13 49 15 .26     -85    117    -29    145    148 323.9 -11.3  34036  287.47 0862.37
2015 04 09 13 49 15 .51     -67    158     -6    172    173 337.1  -2.2  34042  287.57 0862.37
2015 04 09 13 49 15 .75     -60    147    -10    159    160 337.7  -3.7  34018  287.16 0862.37
2015 04 09 13 49 16 .01     -57    131    -28    144    147 336.4 -11.3  33972  286.41 0862.37
2015 04 09 13 49 16 .26     -53    134    -34    145    149 338.2 -13.3  33970  286.35 0862.37
2015 04 09 13 49 16 .51     -37    146    -30    151    155 345.7 -11.5  33968  286.32 0862.37
2015 04 09 13 49 16 .76     -29    145    -43    149    156 348.4 -16.0  33972  286.41 0862.37
2015 04 09 13 49 17 .01     -13    146    -41    147    152 354.7 -20.2  33978  286.49 0862.37
2015 04 09 13 49 17 .26     -25    126    -33    129    134 348.5 -14.5  33972  286.41 0862.37
2015 04 09 13 49 17 .51     -49    147    -24    156    158 341.3  -8.8  33966  286.30 0862.37
2015 04 09 13 49 17 .76     -72    151    -24    168    170 334.4  -8.2  33970  286.35 0862.37
2015 04 09 13 49 18 .02     -51    154    -39    163    168 341.5 -13.7  33982  286.56 0862.37
2015 04 09 13 49 18 .26     -45    151    -32    158    162 343.1 -11.6  33984  286.59 0862.37
2015 04 09 13 49 18 .51     -52    155    -48    164    171 341.3 -16.4  33978  286.49 0862.37
2015 04 09 13 49 18 .77     -37    147    -46    152    159 345.7 -17.0  33976  286.47 0862.37
2015 04 09 13 49 19 .03     -31    130    -34    134    139 346.2 -14.5  33976  286.46 0862.37
2015 04 09 13 49 19 .28     -23    117    -43    120    128 348.9 -19.7  33982  286.57 0862.37
2015 04 09 13 49 19 .52     -33    106    -38    112    118 342.6 -23.8  33982  286.56 0862.37
2015 04 09 13 49 19 .78     -18     96    -33     98    104 348.9 -19.1  33982  286.56 0862.37
2015 04 09 13 49 20 .03     -38     97    -29    105    108 338.6 -20.2  33988  286.66 0862.37
2015 04 09 13 49 20 .28     -33    106    -24    112    115 342.6 -12.4  33996  286.79 0862.37
2015 04 09 13 49 20 .53     -15    107    -33    109    113 352.0 -22.8  33976  286.46 0862.37
2015 04 09 13 49 20 .78      -8    106    -36    107    113 355.5 -18.7  33974  286.42 0862.37
2015 04 09 13 49 21 .03       0    101    -33    102    108 359.5 -18.1  33990  286.69 0862.37
2015 04 09 13 49 21 .28       8    104    -45    105    114   4.5 -28.5  33990  286.69 0862.37
2015 04 09 13 49 21 .53      -5    104    -45    105    114 356.9 -28.5  33990  286.69 0862.37
2015 04 09 13 49 21 .79      -7     98    -61     99    116 355.5 -39.9  33998  286.83 0862.37
2015 04 09 13 49 22 .04     -38    126    -36    132    137 343.1 -15.5  34062  287.91 0862.37
2015 04 09 13 49 22 .28     -33    131    -27    136    139 345.7 -11.3  34018  287.16 0862.37
2015 04 09 13 49 22 .53     -36    135    -13    140    141 344.9  -5.6  34044  287.62 0862.37
2015 04 09 13 49 22 .79     -37    101    -32    108    112 339.5 -21.7  34002  286.91 0862.37
2015 04 09 13 49 23 .03      -6     96    -38     97    104 356.0 -26.4  33998  286.83 0862.36
2015 04 09 13 49 23 .28       0     62    -32     63     70   0.0 -32.6  33992  286.74 0862.36
2015 04 09 13 49 23 .53       0     62    -24     63     67   0.0 -25.4  33994  286.78 0862.36
2015 04 09 13 49 23 .79       0     62    -32     63     70   0.0 -32.6  33992  286.74 0862.36
2015 04 09 13 49 24 .04      -9     67    -29     68     73 352.0 -27.5  34004  286.93 0862.36
2015 04 09 13 49 24 .28      -9     59    -29     60     66 351.1 -31.6  34004  286.93 0862.36
2015 04 09 13 49 24 .55     -25     63    -17     68     71 338.2 -14.5  33998  286.83 0862.36
2015 04 09 13 49 24 .79     -36     81      7     89     90 335.9   4.9  34050  287.72 0862.36
2015 04 09 13 49 25 .04     -28     84     -5     89     90 341.3  -3.7  34066  287.99 0862.36
2015 04 09 13 49 25 .29     -28    107    -13    111    112 344.9  -6.7  34038  287.52 0862.36
2015 04 09 13 49 25 .54      -8    104    -13    105    106 355.5  -7.3  34014  287.11 0862.36
2015 04 09 13 49 25 .80      -1    102    -28    103    107 359.1 -15.5  34026  287.30 0862.36
2015 04 09 13 49 26 .05      -8    112    -14    113    114 355.5  -7.2  34030  287.38 0862.36
2015 04 09 13 49 26 .30       8    112     -4    113    114   4.5  -2.2  34046  287.64 0862.36
2015 04 09 13 49 26 .55      -4     96     -3     97     98 357.3  -2.2  34044  287.62 0862.36
2015 04 09 13 49 26 .80       1     74    -10     75     76   1.4  -8.2  34044  287.60 0862.36
2015 04 09 13 49 27 .06      13     75     -4     77     78   9.8  -3.1  34056  287.81 0862.36
2015 04 09 13 49 27 .32      -5     68     -1     69     70 355.5  -1.3  34066  287.99 0862.36
2015 04 09 13 49 27 .55      -7     45     -1     46     47 350.2  -2.2  34062  287.92 0862.36
2015 04 09 13 49 27 .80      -1     31    -11     32     33 357.3 -23.6  34048  287.67 0862.36
2015 04 09 13 49 28 .06       0     20     -6     21     23   2.7 -17.6  34050  287.70 0862.36
2015 04 09 13 49 28 .31      12     25    -21     28     35  25.4 -44.1  34048  287.67 0862.36
2015 04 09 13 49 28 .56       1     13    -12     14     18   4.5 -56.4  34066  287.99 0862.36
2015 04 09 13 49 28 .81       2     16      2     17     18   8.0   6.9  34062  287.91 0862.36
2015 04 09 13 49 29 .06      -9     17     16     20     25 331.0  43.7  34068  288.03 0862.36
2015 04 09 13 49 29 .31     -25     13     27     29     39 297.1  49.0  34076  288.16 0862.36
2015 04 09 13 49 29 .56     -26     27     32     38     49 316.6  43.8  34076  288.16 0862.36
2015 04 09 13 49 29 .81     -26     31     27     41     49 320.3  36.5  34080  288.21 0862.36
2015 04 09 13 49 30 .06     -31     31     15     45     48 315.0  18.4  34104  288.64 0862.36
2015 04 09 13 49 30 .31     -23     32      1     40     41 323.9   1.8  34116  288.82 0862.36
2015 04 09 13 49 30 .57     -16     38     16     42     44 336.4  21.0  34140  289.24 0862.36
2015 04 09 13 49 30 .81     -36     32     17     49     52 312.2  19.4  34138  289.19 0862.36
2015 04 09 13 49 31 .06     -39     67     21     78     81 329.3  15.3  34086  288.33 0862.36
2015 04 09 13 49 31 .32     -41    104      1    113    114 338.2   0.8  34020  287.20 0862.35
2015 04 09 13 49 31 .57     -25    101     -4    105    106 345.7  -2.2  34026  287.30 0862.35
2015 04 09 13 49 31 .82     -49     77     -3     92     93 327.5  -2.2  34030  287.38 0862.35
2015 04 09 13 49 32 .06     -20     81      4     84     85 346.2   2.9  34024  287.27 0862.35
2015 04 09 13 49 32 .32     -60     38     -9     72     73 302.4  -7.3  34032  287.42 0862.35
2015 04 09 13 49 32 .58     -28     64     11     70     71 336.4   9.0  34044  287.60 0862.35
2015 04 09 13 49 32 .83     -39     70     34     81     87 331.0  23.6  34046  287.65 0862.35
2015 04 09 13 49 33 .08     -25     89      6     93     94 344.0   3.8  34022  287.23 0862.35
2015 04 09 13 49 33 .33     -16     85     24     87     91 349.3  15.3  34048  287.67 0862.35
2015 04 09 13 49 33 .58     -23     79     29     83     88 343.5  19.4  34042  287.59 0862.35
2015 04 09 13 49 33 .83     -28    121      7    125    126 346.7   3.3  34030  287.38 0862.35
2015 04 09 13 49 34 .09      -8    126      7    127    128 356.0   3.3  34040  287.54 0862.34
2015 04 09 13 49 34 .33     -14     82     25     84     88 350.2  16.8  34062  287.92 0862.34
2015 04 09 13 49 34 .58     -29     84     21     90     93 340.8  13.7  34044  287.62 0862.34
2015 04 09 13 49 34 .84     -30     52     15     61     63 330.1  14.3  34052  287.76 0862.34
2015 04 09 13 49 35 .08     -34    114     55    120    132 343.1  26.6  34042  287.57 0862.34
2015 04 09 13 49 35 .34     -28    106     37    110    117 344.8  18.9  34016  287.15 0862.34
2015 04 09 13 49 35 .59     -12     97     48     98    109 352.9  27.8  34052  287.76 0862.34
2015 04 09 13 49 35 .84     -30    110     50    115    125 344.8  25.1  34044  287.62 0862.34
2015 04 09 13 49 36 .08     -29     97     39    102    109 343.5  21.5  34044  287.60 0862.34
2015 04 09 13 49 36 .33     -26     80     16     85     87 341.7  11.1  34026  287.30 0862.34
2015 04 09 13 49 36 .59     -34     59     18     69     72 330.1  15.3  34038  287.52 0862.34
2015 04 09 13 49 36 .84     -24     71     15     76     78 341.3  11.1  34024  287.27 0862.35
2015 04 09 13 49 37 .09     -25     76      5     81     82 341.3   3.8  34018  287.16 0862.35
2015 04 09 13 49 37 .34     -20     84     16     87     89 346.6  11.0  34012  287.08 0862.35
2015 04 09 13 49 37 .59     -40     67      6     79     80 329.3   4.4  34014  287.11 0862.35
2015 04 09 13 49 37 .84     -41     84    -12     94     95 333.7  -7.3  34022  287.25 0862.35
2015 04 09 13 49 38 .09     -33     72      5     80     81 335.5   3.8  34030  287.37 0862.35
2015 04 09 13 49 38 .35     -32     71     14     79     81 335.5  10.1  34034  287.45 0862.35
2015 04 09 13 49 38 .59     -21     83     30     86     92 345.7  19.4  34050  287.72 0862.35
2015 04 09 13 49 38 .84     -20     95     45     98    107 348.0  26.6  34044  287.62 0862.35
2015 04 09 13 49 39 .09      -5     93     51     94    106 356.4  31.3  34048  287.67 0862.35
2015 04 09 13 49 39 .34      -6     78     41     79     89 355.6  29.8  34032  287.40 0862.35
2015 04 09 13 49 39 .61     -13     71     61     73     95 349.3  43.8  34084  288.30 0862.35
2015 04 09 13 49 39 .86     -21     55     65     59     87 339.1  52.7  34096  288.50 0862.35
2015 04 09 13 49 40 .10     -26     55     47     61     77 334.7  42.7  34116  288.82 0862.35
2015 04 09 13 49 40 .35     -24     50     30     56     63 334.6  31.3  34094  288.45 0862.34
2015 04 09 13 49 40 .60     -36     75     37     84     91 334.1  25.1  34032  287.40 0862.34
2015 04 09 13 49 40 .86      -6     85     -2     86     87 355.6  -1.8  34020  287.20 0862.34
2015 04 09 13 49 41 .10      -5     77     -8     78     79 355.6  -6.2  33998  286.84 0862.34
2015 04 09 13 49 41 .35     -16     68     -3     70     71 346.6  -3.1  33988  286.66 0862.34
2015 04 09 13 49 41 .61     -20     81     -9     84     85 346.2  -6.2  33992  286.74 0862.34
2015 04 09 13 49 41 .85     -10     75     -6     76     77 352.0  -5.2  33998  286.83 0862.34
2015 04 09 13 49 42 .11      -7     71    -10     72     73 353.8  -8.2  33994  286.76 0862.34
2015 04 09 13 49 42 .36      10     84    -10     85     86   7.1  -7.2  33988  286.66 0862.34
2015 04 09 13 49 42 .61       1     65     -1     66     67   0.9  -1.2  33990  286.69 0862.34
2015 04 09 13 49 42 .86       0     59     -9     60     61   0.0  -9.3  33990  286.69 0862.34
2015 04 09 13 49 43 .11      -1     69     -2     70     71 359.1  -2.2  33992  286.73 0862.34
2015 04 09 13 49 43 .37      -3     73      1     74     75 357.3   0.8  33998  286.84 0862.34
2015 04 09 13 49 43 .62     -15     69     14     71     73 347.5  11.1  34014  287.11 0862.34
2015 04 09 13 49 43 .86     -10     83     29     84     90 352.9  19.4  34106  288.65 0862.34
2015 04 09 13 49 44 .12       6     81     41     82     91   4.5  28.2  34152  289.45 0862.34
2015 04 09 13 49 44 .36      -3     74     43     75     86 357.3  32.9  34166  289.69 0862.34
2015 04 09 13 49 44 .61      -9     86     57     87    104 353.8  36.0  34156  289.52 0862.34
2015 04 09 13 49 44 .87      -1     71     39     72     81 359.1  30.8  34154  289.46 0862.34
2015 04 09 13 49 45 .11       0     56     54     57     78   0.0  48.5  34162  289.60 0862.34
2015 04 09 13 49 45 .36     -20     62     52     66     84 341.5  42.2  34084  288.30 0862.34
2015 04 09 13 49 45 .62     -18     49     61     53     80 340.0  54.3  34116  288.82 0862.34
2015 04 09 13 49 45 .87     -19     54     45     58     73 340.0  42.7  34124  288.96 0862.34
2015 04 09 13 49 46 .12       0     52     39     53     65   0.0  39.7  34094  288.45 0862.34
2015 04 09 13 49 46 .37      -4     74     36     75     83 356.4  27.2  34082  288.26 0862.34
2015 04 09 13 49 46 .63      -6     80     26     81     86 355.5  17.9  34078  288.18 0862.34
2015 04 09 13 49 46 .88     -11     79     41     80     89 351.9  28.7  34120  288.91 0862.34
2015 04 09 13 49 47 .13      -6     82     45     83     94 355.5  31.4  34124  288.96 0862.34
2015 04 09 13 49 47 .38     -13     65     18     67     70 348.4  15.3  34080  288.21 0862.34
2015 04 09 13 49 47 .63     -26     66     14     72     74 338.2  11.0  34048  287.67 0862.34
2015 04 09 13 49 47 .88     -20     77      0     80     81 344.9   0.2  33990  286.71 0862.34
2015 04 09 13 49 48 .14     -10     82     -6     83     84 352.9  -4.1  33988  286.66 0862.34
2015 04 09 13 49 48 .38      -2     93     -7     94     95 358.2  -4.6  34004  286.93 0862.34
2015 04 09 13 49 48 .64      22     71     26     75     80  17.8  19.4  34018  287.18 0862.35
2015 04 09 13 49 48 .88       0    102     20    103    105 359.6  11.1  34024  287.27 0862.35
2015 04 09 13 49 49 .13      15     91     32     93     99   9.3  19.4  34020  287.21 0862.35
2015 04 09 13 49 49 .38      44     83      4     95     96  28.1   2.9  34006  286.98 0862.35
2015 04 09 13 49 49 .64      25     76     17     81     83  18.3  12.2  34012  287.08 0862.35
2015 04 09 13 49 49 .88      36     75     29     84     90  25.4  19.4  34014  287.10 0862.35
2015 04 09 13 49 50 .13      34     74      5     82     83  24.9   3.8  33990  286.69 0862.35
2015 04 09 13 49 50 .39      34     74      5     82     83  24.9   3.8  33990  286.69 0862.34
2015 04 09 13 49 50 .63      46     70      9     85     86  33.4   6.5  33992  286.74 0862.34
2015 04 09 13 49 50 .89      53     66      8     85     86  38.7   5.4  33996  286.79 0862.34
2015 04 09 13 49 51 .14      54     75      8     93     94  35.6   5.4  33998  286.84 0862.34
2015 04 09 13 49 51 .39      44     80     12     92     93  29.0   7.5  33998  286.83 0862.34
2015 04 09 13 49 51 .64      65     67     11     94     95  44.1   6.9  34000  286.88 0862.34
2015 04 09 13 49 51 .89      56     73     13     93     94  37.8   8.0  33998  286.83 0862.34
2015 04 09 13 49 52 .14      47     70      8     85     86  34.3   5.9  34002  286.89 0862.34
2015 04 09 13 49 52 .39      43     69      4     82     83  31.6   3.3  34002  286.89 0862.34
2015 04 09 13 49 52 .64      46     76     14     89     91  31.2   9.5  34026  287.32 0862.34
2015 04 09 13 49 52 .89      66     79     12    104    105  40.1   7.1  34034  287.43 0862.34
2015 04 09 13 49 53 .14      68     86     38    110    117  38.3  19.4  34040  287.54 0862.34
2015 04 09 13 49 53 .40      73    114     26    136    139  32.5  11.1  34020  287.20 0862.34
2015 04 09 13 49 53 .66      84    124     29    150    153  34.2  11.0  34040  287.54 0862.34
2015 04 09 13 49 53 .91      43    128     17    136    138  18.5   7.5  34040  287.55 0862.34
2015 04 09 13 49 54 .16      39    117     27    124    128  18.7  12.6  34038  287.52 0862.34
2015 04 09 13 49 54 .41      26    127     15    130    131  11.6   6.9  34036  287.47 0862.34
2015 04 09 13 49 54 .65      13    122     -4    123    124   6.2  -2.2  34040  287.55 0862.34
2015 04 09 13 49 54 .91      19    110     20    112    114   9.8  10.1  34024  287.27 0862.34
2015 04 09 13 49 55 .16      53    113     12    125    126  25.3   5.9  34024  287.28 0862.34
2015 04 09 13 49 55 .41      43    105     22    114    117  22.3  11.0  34036  287.49 0862.34
2015 04 09 13 49 55 .66      69    117     16    137    139  30.7   6.9  34020  287.20 0862.33
2015 04 09 13 49 55 .91      57     79     13     98     99  35.6   8.0  34034  287.45 0862.33
2015 04 09 13 49 56 .17      41    110     32    118    123  20.5  15.3  34030  287.37 0862.33
2015 04 09 13 49 56 .41      35    132     32    137    141  15.1  13.2  34036  287.49 0862.33
2015 04 09 13 49 56 .66      48    137     58    146    157  19.6  22.8  34070  288.04 0862.33
2015 04 09 13 49 56 .91      54    157     12    167    168  19.2   4.4  34038  287.52 0862.33
2015 04 09 13 49 57 .16      59    137     18    150    152  23.2   6.9  34012  287.06 0862.33
2015 04 09 13 49 57 .41      59    147     33    159    163  21.8  12.0  34002  286.91 0862.33
2015 04 09 13 49 57 .66      36    141     18    146    148  14.3   7.1  34008  287.01 0862.34
2015 04 09 13 49 57 .91      45    163     10    170    171  15.6   3.6  33980  286.54 0862.34
2015 04 09 13 49 58 .16      54    164      7    173    174  18.5   2.5  33980  286.52 0862.34
2015 04 09 13 49 58 .42      51    165     -6    173    174  17.4  -2.1  33982  286.56 0862.34
2015 04 09 13 49 58 .67      33    169    -14    173    174  11.3  -4.9  33984  286.61 0862.34
2015 04 09 13 49 58 .91      28    142    -18    145    147  11.5  -7.2  33992  286.73 0862.34
2015 04 09 13 49 59 .17      31    146    -17    150    152  12.0  -6.7  33980  286.52 0862.34
2015 04 09 13 49 59 .41      24    134    -30    137    141  10.2 -12.4  33980  286.52 0862.33
2015 04 09 13 49 59 .67      24    135    -22    138    140  10.2  -9.3  33976  286.46 0862.33
2015 04 09 13 49 59 .92      30    148    -22    152    154  11.6  -8.2  33972  286.41 0862.33
2015 04 09 13 50 00 .17      43    151    -22    158    160  16.0  -8.2  33972  286.41 0862.33
2015 04 09 13 50 00 .43      66    160    -56    174    183  22.5 -17.9  33996  286.81 0862.33
2015 04 09 13 50 00 .68      99    187    -43    212    217  27.9 -11.5  33978  286.51 0862.33
2015 04 09 13 50 00 .94     108    170    -11    202    203  32.6  -3.1  33984  286.61 0862.33
2015 04 09 13 50 01 .18     128    130    -32    183    186  44.5 -10.1  33996  286.79 0862.33
2015 04 09 13 50 01 .43      80    141    -43    163    169  29.4 -15.0  33998  286.83 0862.33
2015 04 09 13 50 01 .68      78    156    -23    175    177  26.5  -7.7  33998  286.83 0862.33
2015 04 09 13 50 01 .93      59    178    -44    188    194  18.3 -13.2  33994  286.78 0862.33
2015 04 09 13 50 02 .19      23    164    -16    166    167   8.1  -5.6  33992  286.74 0862.33
2015 04 09 13 50 02 .43      22    142    -11    144    145   8.9  -4.6  33992  286.74 0862.33
2015 04 09 13 50 02 .69      54    133    -47    144    151  22.3 -23.8  33994  286.78 0862.33
2015 04 09 13 50 02 .94      54    119    -47    131    140  24.5 -19.7  34042  287.57 0862.34
2015 04 09 13 50 03 .18      40    136    -63    142    155  16.5 -29.6  33992  286.74 0862.34
2015 04 09 13 50 03 .44      51    141    -58    150    160  20.0 -26.7  33986  286.64 0862.34
2015 04 09 13 50 03 .69      69    132    -47    150    157  27.6 -22.3  34048  287.67 0862.34
2015 04 09 13 50 03 .94      90    124    -69    154    168  36.0 -30.1  34080  288.21 0862.34
2015 04 09 13 50 04 .18      56    120    -52    133    142  24.9 -26.9  34038  287.52 0862.34
2015 04 09 13 50 04 .44      71    128    -65    147    160  29.0 -29.7  33982  286.56 0862.34
2015 04 09 13 50 04 .69      61    127    -60    142    154  25.9 -28.5  33982  286.56 0862.34
2015 04 09 13 50 04 .94      66    127    -56    144    154  27.6 -26.4  33976  286.46 0862.34
2015 04 09 13 50 05 .19      76    137    -54    157    166  29.0 -23.6  33978  286.49 0862.34
2015 04 09 13 50 05 .44      76    123    -57    145    155  31.6 -26.9  33972  286.41 0862.34
2015 04 09 13 50 05 .69      55    127    -45    139    146  23.7 -23.8  33970  286.37 0862.34
2015 04 09 13 50 05 .94      53    122    -47    134    142  23.6 -23.8  33972  286.41 0862.34
2015 04 09 13 50 06 .20      54    114    -44    127    135  25.3 -19.1  33990  286.69 0862.34
2015 04 09 13 50 06 .45      70    103    -36    125    131  34.3 -16.0  34020  287.20 0862.34
2015 04 09 13 50 06 .69      58     91    -34    109    115  32.6 -17.6  34006  286.96 0862.34
2015 04 09 13 50 06 .94      61     86    -29    106    111  35.6 -15.5  33992  286.73 0862.34
2015 04 09 13 50 07 .19      44     89    -33    100    106  26.3 -18.7  33980  286.52 0862.34
2015 04 09 13 50 07 .45      55     89    -32    105    110  31.6 -17.0  33976  286.46 0862.34
2015 04 09 13 50 07 .70      40     90    -24     99    102  24.1 -13.9  33974  286.42 0862.34
2015 04 09 13 50 07 .96      30     90    -42     96    104  18.7 -29.5  33978  286.51 0862.34
2015 04 09 13 50 08 .21      52     80    -76     96    122  33.4 -47.1  34008  287.01 0862.34
2015 04 09 13 50 08 .46      56     78    -71     97    120  35.6 -44.1  34004  286.94 0862.34
2015 04 09 13 50 08 .71      69     54    -66     88    110  52.2 -45.1  34032  287.40 0862.34
2015 04 09 13 50 08 .96      73     48    -63     88    108  56.7 -44.1  34024  287.27 0862.34
2015 04 09 13 50 09 .21      64     74    -58     99    114  41.0 -37.9  34028  287.33 0862.34
2015 04 09 13 50 09 .46      71     62    -51     95    107  49.1 -34.7  33990  286.71 0862.34
2015 04 09 13 50 09 .72      63     59    -45     87     97  46.9 -33.7  33986  286.64 0862.34
2015 04 09 13 50 09 .96      57     47    -39     74     83  50.5 -34.2  34006  286.98 0862.34
2015 04 09 13 50 10 .22      63     46    -30     79     84  54.1 -25.4  34010  287.03 0862.34
2015 04 09 13 50 10 .46      68     46    -32     83     88  55.8 -25.9  33984  286.59 0862.34
2015 04 09 13 50 10 .71      66     42    -34     79     86  57.6 -29.0  33978  286.51 0862.34
2015 04 09 13 50 10 .98      72     25    -35     77     84  70.9 -30.6  33998  286.84 0862.34
2015 04 09 13 50 11 .21      85      1    -24     86     89  89.2 -20.7  34006  286.96 0862.34
2015 04 09 13 50 11 .46      68     32    -21     76     79  64.7 -15.5  33982  286.56 0862.34
2015 04 09 13 50 11 .71      77     37    -12     86     87  64.2  -8.2  33978  286.49 0862.34
2015 04 09 13 50 11 .97      76     36    -22     85     88  64.7 -14.5  33982  286.56 0862.34
2015 04 09 13 50 12 .21      60     38    -21     72     75  57.6 -21.7  33994  286.76 0862.34
2015 04 09 13 50 12 .47      57     23    -36     62     71  67.4 -37.9  33992  286.74 0862.34
2015 04 09 13 50 12 .72      40     25    -54     48     72  57.5 -57.7  33984  286.59 0862.34
2015 04 09 13 50 12 .97      38     24    -48     46     66  57.5 -54.5  33990  286.71 0862.34
2015 04 09 13 50 13 .22      40      0    -25     41     48  90.8 -39.9  33984  286.61 0862.34
2015 04 09 13 50 13 .47      46      0    -22     47     51  90.0 -31.5  33978  286.51 0862.34
2015 04 09 13 50 13 .72      36      0    -36     37     51  90.8 -54.4  33982  286.57 0862.34
2015 04 09 13 50 13 .97      48      0    -32     49     58  89.2 -40.0  33976  286.47 0862.34
2015 04 09 13 50 14 .22      55     12    -32     57     65  77.6 -35.8  33984  286.59 0862.34
2015 04 09 13 50 14 .48      55     24    -21     61     65  66.5 -19.6  33978  286.51 0862.34
2015 04 09 13 50 14 .73      43     35    -23     56     60  50.5 -27.5  33980  286.54 0862.34
2015 04 09 13 50 14 .99      47     25    -25     54     59  62.0 -30.6  33988  286.66 0862.34
2015 04 09 13 50 15 .24      54     17    -21     57     60  71.8 -25.4  34036  287.47 0862.34
2015 04 09 13 50 15 .48      48      9     -6     49     50  79.4  -7.3  34024  287.28 0862.34
2015 04 09 13 50 15 .74      57     17      0     60     61  73.2   0.8  34046  287.64 0862.35
2015 04 09 13 50 15 .98      55      5     20     56     59  84.8  20.0  34050  287.70 0862.35
2015 04 09 13 50 16 .24      59      0     14     60     62  89.1  13.2  34060  287.89 0862.35
2015 04 09 13 50 16 .49      52    -12      2     54     55 103.3   2.9  34048  287.67 0862.34
2015 04 09 13 50 16 .74      57     -4     -5     58     59  94.3  -5.2  34016  287.15 0862.34
2015 04 09 13 50 16 .99      36      0    -30     37     47  90.0 -48.1  33990  286.71 0862.34
2015 04 09 13 50 17 .24      36     -8    -16     38     41 103.3 -28.5  33988  286.67 0862.34
2015 04 09 13 50 17 .49      48    -30    -24     57     61 122.5 -27.5  34024  287.27 0862.34
2015 04 09 13 50 17 .74      17    -18    -21     25     32 136.6 -48.2  34012  287.08 0862.34
2015 04 09 13 50 17 .99      21     -5    -32     22     38 103.3 -67.0  34006  286.96 0862.34
2015 04 09 13 50 18 .24      16    -10    -18     19     26 122.4 -54.4  34026  287.32 0862.34
2015 04 09 13 50 18 .49      21      1      0     22     23  85.6  -2.2  34020  287.20 0862.34
2015 04 09 13 50 18 .74      23     30      1     38     39  37.8   2.9  33986  286.64 0862.34
2015 04 09 13 50 18 .99      29     27     16     40     43  46.9  22.0  33980  286.54 0862.34
2015 04 09 13 50 19 .24      25     25     -1     36     37  45.0  -2.2  33982  286.57 0862.34
2015 04 09 13 50 19 .50      23     32     -8     40     41  36.1 -12.4  33984  286.61 0862.34
2015 04 09 13 50 19 .75      73     10     20     74     77  82.1  15.8  34042  287.59 0862.34
2015 04 09 13 50 19 .99      59      9     21     60     64  81.2  19.2  34056  287.81 0862.34
2015 04 09 13 50 20 .24      54      4     -2     55     56  85.6  -2.2  34048  287.67 0862.34
2015 04 09 13 50 20 .49      42     10     -5     44     45  75.8  -7.2  34042  287.57 0862.34
2015 04 09 13 50 20 .75      45      0    -15     46     48  90.0 -23.8  34034  287.43 0862.34
2015 04 09 13 50 21 .00      50     -7    -14     51     53  98.8 -15.4  34042  287.59 0862.34
2015 04 09 13 50 21 .26      68     -5    -10     69     70  94.3  -8.2  34050  287.72 0862.34
2015 04 09 13 50 21 .50      61     -4    -19     62     64  94.4 -22.8  34034  287.43 0862.34
2015 04 09 13 50 21 .76      63    -20    -19     67     69 108.2 -20.7  34006  286.96 0862.34
2015 04 09 13 50 22 .01      72    -13    -10     74     75 100.6  -8.2  34008  287.01 0862.33
2015 04 09 13 50 22 .26      77     -5    -37     78     86  94.4 -31.6  33978  286.49 0862.33
2015 04 09 13 50 22 .52      71     -4    -30     72     78  93.5 -27.5  33982  286.56 0862.33
2015 04 09 13 50 22 .76      73    -17    -21     76     78 103.3 -20.2  34030  287.37 0862.33
2015 04 09 13 50 23 .01      90    -19     -3     93     94 102.4  -2.2  34064  287.94 0862.33
2015 04 09 13 50 23 .26     105      0     -6    106    107  90.4  -3.7  34060  287.89 0862.33
2015 04 09 13 50 23 .52     105     25     -4    109    110  76.3  -2.2  34076  288.16 0862.33
2015 04 09 13 50 23 .77     143     12     16    144    145  85.2   6.5  34086  288.31 0862.33
2015 04 09 13 50 24 .02     145     15      0    146    147  83.8  -0.3  34090  288.38 0862.33
2015 04 09 13 50 24 .26     140     12     38    141    147  84.8  15.2  34100  288.55 0862.33
2015 04 09 13 50 24 .51     157      2     23    158    160  89.1   8.5  34028  287.35 0862.33
2015 04 09 13 50 24 .76     157     -2      8    158    159  90.9   2.9  33982  286.56 0862.33
2015 04 09 13 50 25 .02     161    -19     20    163    165  97.0   7.2  34014  287.11 0862.33
2015 04 09 13 50 25 .27     169    -31     12    172    173 100.6   4.2  34032  287.42 0862.33
2015 04 09 13 50 25 .52     147    -34     37    152    157 103.3  13.9  34050  287.70 0862.33
2015 04 09 13 50 25 .77     131    -39     35    137    142 106.9  14.7  34054  287.79 0862.33
2015 04 09 13 50 26 .02     112    -10     38    113    120  95.2  18.9  34020  287.20 0862.33
2015 04 09 13 50 26 .28     125    -25     53    128    138 101.4  23.1  34050  287.72 0862.33
2015 04 09 13 50 26 .52     127    -42     26    135    138 108.6  11.1  34032  287.40 0862.33
2015 04 09 13 50 26 .77     147    -40      4    153    154 105.5   1.8  34060  287.89 0862.33
2015 04 09 13 50 27 .03     140     26     12    143    144  79.4   4.9  34066  287.98 0862.33
2015 04 09 13 50 27 .27     170      8     57    171    181  87.0  18.4  34114  288.79 0862.33
2015 04 09 13 50 27 .52     154      0     61    155    166  90.0  22.8  34088  288.35 0862.33
2015 04 09 13 50 27 .77     125      0     54    126    137  90.0  24.6  34016  287.15 0862.33
2015 04 09 13 50 28 .03     157    -20     30    159    162  97.5  10.8  34014  287.11 0862.33
2015 04 09 13 50 28 .28     138     -7     37    139    145  93.0  15.2  34012  287.06 0862.33
2015 04 09 13 50 28 .54     154    -26     31    157    161  99.7  11.1  34008  287.01 0862.33
2015 04 09 13 50 28 .78     138     24     34    141    146  79.9  13.7  34036  287.47 0862.33
2015 04 09 13 50 29 .04     160     61     -8    172    173  69.2  -2.8  34022  287.25 0862.33
2015 04 09 13 50 29 .28     150     62    -19    163    165  67.6  -6.9  33978  286.51 0862.33
2015 04 09 13 50 29 .54     147     53    -16    157    158  70.0  -6.0  33974  286.42 0862.33
2015 04 09 13 50 29 .79     151     62    -27    164    167  67.6  -9.6  33974  286.42 0862.33
2015 04 09 13 50 30 .04     122     67    -25    140    143  61.1 -10.3  33974  286.44 0862.33
2015 04 09 13 50 30 .29     129     43    -13    137    138  71.4  -5.6  33976  286.46 0862.32
2015 04 09 13 50 30 .54     125     57    -22    138    140  65.6  -9.4  33972  286.41 0862.32
2015 04 09 13 50 30 .80     141      5     22    142    144  87.9   8.9  34024  287.28 0862.32
2015 04 09 13 50 31 .04     114    -10     23    115    118  95.2  11.6  34038  287.52 0862.32
2015 04 09 13 50 31 .29     127     -7     22    128    131  93.5  10.1  34040  287.55 0862.32
2015 04 09 13 50 31 .54     121    -16     24    123    126  97.9  11.1  34038  287.52 0862.32
2015 04 09 13 50 31 .79     126    -19      6    128    129  98.8   2.8  34032  287.42 0862.32
2015 04 09 13 50 32 .04     133      6     13    134    135  87.4   5.9  34024  287.28 0862.32
2015 04 09 13 50 32 .29     132      6     11    133    134  87.4   4.9  34012  287.06 0862.32
2015 04 09 13 50 32 .55     137      3     18    138    140  88.7   7.5  34004  286.93 0862.32
2015 04 09 13 50 32 .79     132     -8     19    133    135  93.5   8.5  33998  286.83 0862.32
2015 04 09 13 50 33 .04     122      1     27    123    127  89.1  12.6  34002  286.91 0862.32
2015 04 09 13 50 33 .29     114      8     25    115    118  85.6  12.6  33984  286.61 0862.32
2015 04 09 13 50 33 .55     129     13     35    130    135  83.9  15.3  33984  286.61 0862.32
2015 04 09 13 50 33 .80     123      9     35    124    129  85.6  15.8  33984  286.61 0862.32
2015 04 09 13 50 34 .05     128      5     40    129    136  87.4  17.4  33996  286.79 0862.32
2015 04 09 13 50 34 .29     129      9     45    130    138  85.7  19.4  33992  286.73 0862.32
2015 04 09 13 50 34 .55     137     13     46    138    146  84.3  18.4  33988  286.67 0862.32
2015 04 09 13 50 34 .80     137     13     46    138    146  84.3  18.4  33978  286.51 0862.32
2015 04 09 13 50 35 .05     140      6     22    141    143  87.4   8.9  33980  286.54 0862.32
2015 04 09 13 50 35 .31     152     21      9    154    155  82.0   3.6  33976  286.46 0862.32
2015 04 09 13 50 35 .56     149     30      6    152    153  78.5   2.3  33976  286.46 0862.32
2015 04 09 13 50 35 .81     140     38      0    146    147  74.9  -0.3  33976  286.46 0862.32
2015 04 09 13 50 36 .06     146     39     -3    152    153  75.0  -1.2  33974  286.44 0862.32
2015 04 09 13 50 36 .31     144     29     -6    147    148  78.5  -2.6  33974  286.44 0862.32
2015 04 09 13 50 36 .56     151     21     18    153    155  82.0   6.7  33978  286.49 0862.32
2015 04 09 13 50 36 .82     139     19     18    141    143  82.1   7.5  33986  286.62 0862.32
2015 04 09 13 50 37 .07     140     -2     49    141    150  90.8  19.2  34036  287.47 0862.32
2015 04 09 13 50 37 .31     135    -10     46    136    144  94.4  18.9  34032  287.42 0862.32
2015 04 09 13 50 37 .56     126      0     37    127    133  90.0  16.3  34028  287.33 0862.33
2015 04 09 13 50 37 .81     125     13     -4    126    127  83.9  -2.2  33998  286.83 0862.33
2015 04 09 13 50 38 .07     112      6    -12    113    114  86.5  -6.2  33992  286.74 0862.33
2015 04 09 13 50 38 .32     108     17      7    110    111  80.8   3.8  34002  286.91 0862.33
2015 04 09 13 50 38 .56     122     29     24    126    129  76.3  11.1  33978  286.51 0862.33
2015 04 09 13 50 38 .82     119     26     24    122    125  77.6  11.1  33976  286.47 0862.33
2015 04 09 13 50 39 .07     135     41     22    142    144  73.2   9.0  33990  286.69 0862.33
2015 04 09 13 50 39 .32     125     21     29    127    131  80.3  13.2  33988  286.66 0862.33
2015 04 09 13 50 39 .57     124     22     17    126    128  79.9   8.0  33986  286.64 0862.32
2015 04 09 13 50 39 .82     116     26     17    119    121  77.2   8.5  33986  286.64 0862.32
2015 04 09 13 50 40 .07     123     29      1    127    128  76.7   0.8  33984  286.59 0862.32
2015 04 09 13 50 40 .32     134     39      5    140    141  73.6   2.3  33986  286.62 0862.32
2015 04 09 13 50 40 .57     134     29      5    138    139  77.6   2.3  33988  286.67 0862.32
2015 04 09 13 50 40 .82     133     22      6    135    136  80.3   2.8  33986  286.62 0862.32
2015 04 09 13 50 41 .07     115     23      1    118    119  78.6   0.7  33984  286.61 0862.32
2015 04 09 13 50 41 .32     116     16     10    118    119  82.1   4.9  33982  286.56 0862.31
2015 04 09 13 50 41 .57     106     21     13    109    110  78.5   7.1  33986  286.64 0862.31
2015 04 09 13 50 41 .82     100     22      8    103    104  77.6   4.9  33982  286.57 0862.31
2015 04 09 13 50 42 .08      92     21      4     95     96  77.2   2.9  33978  286.51 0862.31
2015 04 09 13 50 42 .33     105     14     13    106    107  82.1   7.5  33984  286.59 0862.31
2015 04 09 13 50 42 .59     119      7     13    120    121  86.5   6.5  33984  286.59 0862.31
2015 04 09 13 50 42 .84     132     -8     19    133    135  93.5   8.5  33998  286.83 0862.31
2015 04 09 13 50 43 .09     124      5     -4    125    126  87.5  -2.2  33994  286.78 0862.31
2015 04 09 13 50 43 .34     135      0    -17    136    138  90.0  -7.2  33990  286.69 0862.31
2015 04 09 13 50 43 .59     148     20     -8    150    151  82.0  -3.2  33988  286.66 0862.31
2015 04 09 13 50 43 .84     163     22    -23    165    167  82.1  -8.0  33984  286.61 0862.31
2015 04 09 13 50 44 .09     156     10    -17    157    158  86.1  -6.2  33990  286.69 0862.31
2015 04 09 13 50 44 .34     144     12    -19    145    147  85.2  -7.7  33984  286.59 0862.31
2015 04 09 13 50 44 .59     135      2      0    136    137  89.1  -0.3  33992  286.73 0862.31
2015 04 09 13 50 44 .84     136     10    -22    137    139  85.7  -9.3  33986  286.64 0862.31
2015 04 09 13 50 45 .09     132     10    -17    133    135  85.7  -7.3  33992  286.73 0862.31
2015 04 09 13 50 45 .34     126      9     21    127    129  85.6   9.5  33994  286.78 0862.31
2015 04 09 13 50 45 .59     129     13      6    130    131  83.9   2.9  33998  286.84 0862.31
2015 04 09 13 50 45 .84     147     26    -19    150    152  79.9  -7.3  33994  286.78 0862.31
2015 04 09 13 50 46 .09     138     37    -42    143    150  74.9 -16.6  33994  286.76 0862.31
2015 04 09 13 50 46 .35     145     34    -45    149    155  76.7 -22.3  33996  286.79 0862.31
2015 04 09 13 50 46 .60     145     40    -19    151    153  74.5  -7.3  34000  286.88 0862.31
2015 04 09 13 50 46 .84     123     25    -61    126    139  78.5 -31.7  33990  286.71 0862.31
2015 04 09 13 50 47 .09     120     31    -50    124    133  75.4 -27.4  33990  286.69 0862.31
2015 04 09 13 50 47 .35     121     30    -43    125    132  75.8 -23.3  33994  286.78 0862.31
2015 04 09 13 50 47 .60     104     16    -46    106    115  80.8 -29.5  33990  286.69 0862.32
2015 04 09 13 50 47 .85     117      9    -59    118    131  85.6 -32.6  33992  286.74 0862.32
2015 04 09 13 50 48 .10     113     37    -45    119    127  71.8 -25.9  33992  286.74 0862.32
2015 04 09 13 50 48 .35     124     58    -31    138    142  64.8 -12.9  33996  286.81 0862.32
2015 04 09 13 50 48 .60     120     43    -16    128    130  70.0  -7.2  34002  286.91 0862.32
2015 04 09 13 50 48 .85     106     30    -30    111    116  74.1 -15.4  34002  286.91 0862.32
2015 04 09 13 50 49 .11     119     30    -15    123    125  75.8  -7.3  33998  286.84 0862.32
2015 04 09 13 50 49 .36     138     37      2    144    145  74.9   0.8  34002  286.91 0862.32
2015 04 09 13 50 49 .61     139     31    -11    143    144  77.2  -4.6  34000  286.86 0862.32
2015 04 09 13 50 49 .86     116     23    -19    119    121  78.6  -9.4  33998  286.84 0862.32
2015 04 09 13 50 50 .11     125     42    -15    132    133  71.4  -6.7  34004  286.94 0862.32
2015 04 09 13 50 50 .36     131     26      8    134    135  78.6   3.8  34010  287.05 0862.32
2015 04 09 13 50 50 .61     131     22     20    133    135  80.3   8.9  34010  287.05 0862.32
2015 04 09 13 50 50 .86     143     54     21    153    155  69.2   8.0  34000  286.86 0862.32
2015 04 09 13 50 51 .12     146     58     16    158    159  68.3   6.1  34000  286.86 0862.33
2015 04 09 13 50 51 .36     137     53      2    148    149  68.7   0.8  34002  286.91 0862.33
2015 04 09 13 50 51 .61     144     42      1    151    152  73.6   0.7  34006  286.96 0862.33
2015 04 09 13 50 51 .87     139     65     21    154    156  64.8   7.8  34000  286.88 0862.33
2015 04 09 13 50 52 .12     149     46     38    157    162  72.7  13.9  33998  286.83 0862.33
2015 04 09 13 50 52 .37     121     48      6    131    132  68.2   2.9  33996  286.81 0862.33
2015 04 09 13 50 52 .62     130     60     -2    144    145  65.2  -1.2  33998  286.84 0862.33
2015 04 09 13 50 52 .87     147     69      5    163    164  64.9   1.8  33998  286.83 0862.33
2015 04 09 13 50 53 .12     155     65     19    169    171  67.2   6.5  34000  286.88 0862.33
2015 04 09 13 50 53 .37     172     81     61    191    201  64.7  17.7  34028  287.33 0862.33
2015 04 09 13 50 53 .62     154     73     41    171    176  64.6  13.7  34000  286.86 0862.33
2015 04 09 13 50 53 .87     154     76     45    173    179  63.6  14.7  34000  286.88 0862.33
2015 04 09 13 50 54 .12     139     81     34    162    166  59.6  12.0  34002  286.89 0862.33
2015 04 09 13 50 54 .37     123     81     14    148    149  56.7   5.4  34000  286.88 0862.33
2015 04 09 13 50 54 .62     124     78     -5    147    148  57.6  -2.2  33998  286.83 0862.33
2015 04 09 13 50 54 .88     129     86     -6    156    157  56.3  -2.3  34000  286.86 0862.33
2015 04 09 13 50 55 .13     105     87    -22    137    139  50.5  -9.4  34004  286.93 0862.33
2015 04 09 13 50 55 .38      89    124    -50    153    160  35.6 -23.3  34006  286.96 0862.33
2015 04 09 13 50 55 .63      89    129    -61    158    169  34.7 -26.4  34028  287.35 0862.33
2015 04 09 13 50 55 .87     110    136    -50    175    182  39.0 -20.4  34054  287.79 0862.33
2015 04 09 13 50 56 .14      97    110    -46    148    155  41.4 -17.3  34024  287.28 0862.33
2015 04 09 13 50 56 .39     140     76    -20    160    162  61.6  -7.3  34012  287.06 0862.33
2015 04 09 13 50 56 .64     146     26      8    149    150  79.9   3.3  34004  286.93 0862.33
2015 04 09 13 50 56 .89     139     27     12    142    143  79.0   4.9  34006  286.96 0862.33
2015 04 09 13 50 57 .14     128     21      6    130    131  80.3   2.9  34002  286.89 0862.33
2015 04 09 13 50 57 .39     152     68      8    167    168  65.8   2.9  34004  286.93 0862.33
2015 04 09 13 50 57 .64     182     82    -33    200    203  65.6  -9.4  34020  287.21 0862.32
2015 04 09 13 50 57 .89     185     85    -61    204    212  65.2 -21.7  34044  287.62 0862.32
2015 04 09 13 50 58 .14     123    101     -6    160    161  50.5  -2.2  34036  287.49 0862.32
2015 04 09 13 50 58 .40     158    117    -30    197    200  53.4  -8.8  34036  287.47 0862.32
2015 04 09 13 50 58 .64     146    122    -22    191    193  50.2  -6.7  34022  287.25 0862.32
2015 04 09 13 50 58 .89     170    140    -12    221    222  50.5  -3.1  34016  287.15 0862.32
2015 04 09 13 50 59 .14     176    139    -12    225    226  51.6  -3.2  34014  287.11 0862.32
2015 04 09 13 50 59 .40     189    143      0    238    239  52.9   0.2  34008  286.99 0862.32
2015 04 09 13 50 59 .65     184    117     27    219    221  57.6   7.1  34020  287.21 0862.32
2015 04 09 13 50 59 .90     158     93     41    184    189  59.6  12.6  34024  287.27 0862.32
2015 04 09 13 51 00 .14     156     93     45    182    188  59.1  13.9  34016  287.15 0862.32
2015 04 09 13 51 00 .41     175     95     32    200    203  61.6   9.3  34082  288.26 0862.32
2015 04 09 13 51 00 .65     143     71     56    160    170  63.6  19.4  34080  288.21 0862.32
2015 04 09 13 51 00 .90     154     52     44    163    170  71.2  15.3  34088  288.36 0862.32
2015 04 09 13 51 01 .15     132     67     54    149    158  63.0  20.7  34098  288.53 0862.32
2015 04 09 13 51 01 .40     121     79     35    145    150  56.7  13.7  34114  288.80 0862.32
2015 04 09 13 51 01 .65     120     77     49    143    152  57.1  18.9  34114  288.79 0862.32
2015 04 09 13 51 01 .91     119    103     22    158    160  49.1   8.0  34056  287.81 0862.32
2015 04 09 13 51 02 .15      95    126     18    158    160  37.0   6.5  34084  288.30 0862.33
2015 04 09 13 51 02 .40     103    117      4    157    158  41.5   1.8  34032  287.42 0862.33
2015 04 09 13 51 02 .66      85    127      3    154    155  33.8   1.2  34006  286.96 0862.33
2015 04 09 13 51 02 .90      71    112     -5    133    134  32.5  -2.2  34012  287.08 0862.33
2015 04 09 13 51 03 .16      60     99     -6    116    117  31.2  -3.1  34006  286.98 0862.33
2015 04 09 13 51 03 .42      68    100      1    122    123  34.3   0.8  34010  287.03 0862.33
2015 04 09 13 51 03 .67      74    100     -2    125    126  36.5  -1.2  34004  286.94 0862.33
2015 04 09 13 51 03 .92      60     95    -14    113    114  32.6  -7.2  34006  286.98 0862.32
2015 04 09 13 51 04 .17      64     74     11     99    100  41.0   6.9  34000  286.88 0862.32
2015 04 09 13 51 04 .42      69     61     -2     93     94  48.2  -1.8  33998  286.83 0862.32
2015 04 09 13 51 04 .67      62     62    -21     88     91  45.1 -13.9  34004  286.93 0862.32
2015 04 09 13 51 04 .91      74     78    -12    108    109  43.7  -6.7  33984  286.61 0862.32
2015 04 09 13 51 05 .17      82     68    -16    107    109  50.4  -8.8  33978  286.51 0862.32
2015 04 09 13 51 05 .42      80     73    -13    109    110  47.3  -7.2  33982  286.56 0862.32
2015 04 09 13 51 05 .67      84     79    -10    116    117  46.9  -5.2  33986  286.64 0862.32
2015 04 09 13 51 05 .93      68     52     32     86     91  52.7  21.0  34046  287.65 0862.32
2015 04 09 13 51 06 .17      99     51     38    112    119  62.9  18.9  34144  289.30 0862.32
2015 04 09 13 51 06 .43      68     37     67     78    102  61.1  45.4  34142  289.28 0862.32
2015 04 09 13 51 06 .67      60     25     49     66     82  67.4  40.7  34112  288.75 0862.33
2015 04 09 13 51 06 .93      47     33     42     58     71  54.9  39.7  34132  289.11 0862.33
2015 04 09 13 51 07 .17      52     69     42     87     96  37.0  27.3  34084  288.28 0862.33
2015 04 09 13 51 07 .42      44     69     56     82     99  32.6  38.0  33998  286.84 0862.33
2015 04 09 13 51 07 .68      52     56     49     77     91  43.2  35.5  33998  286.83 0862.33
2015 04 09 13 51 07 .92      58     49     49     77     91  49.6  35.5  34004  286.93 0862.33
2015 04 09 13 51 08 .18      80     49     39     95    102  58.5  23.1  34012  287.06 0862.33
2015 04 09 13 51 08 .43      86     55     31    103    108  57.6  16.8  33994  286.78 0862.32
2015 04 09 13 51 08 .67      85     59     43    104    112  54.9  23.1  34024  287.28 0862.32
2015 04 09 13 51 08 .94     103     62     44    121    128  58.9  20.9  34040  287.54 0862.32
2015 04 09 13 51 09 .18     107     78     45    133    141  54.1  18.9  34094  288.45 0862.32
2015 04 09 13 51 09 .43     110     90     50    143    152  50.5  19.4  34096  288.48 0862.32
2015 04 09 13 51 09 .68     101     83     29    132    136  50.5  12.6  34074  288.13 0862.32
2015 04 09 13 51 09 .94     108     89     63    141    154  50.5  26.2  34118  288.86 0862.32
2015 04 09 13 51 10 .19     119     87     50    148    157  53.6  18.9  34058  287.86 0862.32
2015 04 09 13 51 10 .43      98     65     63    118    133  56.3  30.3  34048  287.67 0862.32
2015 04 09 13 51 10 .70     117     57     48    131    139  63.8  20.9  34046  287.65 0862.32
2015 04 09 13 51 10 .94     134     64     52    149    158  64.2  19.4  34024  287.28 0862.32
2015 04 09 13 51 11 .19     135     61     30    149    153  65.6  11.6  33992  286.74 0862.32
2015 04 09 13 51 11 .44     134     53     28    145    148  68.2  11.1  33986  286.64 0862.32
2015 04 09 13 51 11 .69     131     60     20    145    147  65.2   8.0  33978  286.51 0862.32
2015 04 09 13 51 11 .94     135     64     23    150    152  64.6   8.9  33978  286.49 0862.32
2015 04 09 13 51 12 .20     145     47      7    153    154  71.8   2.9  33988  286.66 0862.32
2015 04 09 13 51 12 .45     168     63      3    180    181  69.4   1.2  34010  287.05 0862.32
2015 04 09 13 51 12 .70     147     26     36    150    155  79.9  13.5  34058  287.86 0862.32
2015 04 09 13 51 12 .95     158      9     37    159    164  86.5  13.2  34072  288.08 0862.32
2015 04 09 13 51 13 .19     192     22     30    194    197  83.4   9.0  34058  287.86 0862.32
2015 04 09 13 51 13 .45     166     35     19    170    172  77.8   6.5  34050  287.72 0862.32
2015 04 09 13 51 13 .70     158     37    -55    163    173  76.7 -18.7  34020  287.21 0862.32
2015 04 09 13 51 13 .94     125     37    -72    131    149  73.2 -35.7  34000  286.86 0862.32
2015 04 09 13 51 14 .20     136     49    -61    145    157  70.1 -28.5  33976  286.46 0862.32
2015 04 09 13 51 14 .45     139     46    -52    147    155  71.4 -23.3  33976  286.46 0862.32
2015 04 09 13 51 14 .70     138     37    -45    144    150  74.9 -22.8  33974  286.44 0862.32
2015 04 09 13 51 14 .95     127     34    -43    132    138  75.0 -23.3  33972  286.41 0862.32
2015 04 09 13 51 15 .20     123     25    -48    126    134  78.5 -25.4  33972  286.41 0862.32
2015 04 09 13 51 15 .45     133     48    -45    142    148  70.0 -22.8  33974  286.42 0862.32
2015 04 09 13 51 15 .70     119     23    -55    122    133  79.0 -30.1  33974  286.44 0862.32
2015 04 09 13 51 15 .95      96     21    -51     99    111  77.2 -33.7  33976  286.46 0862.32
2015 04 09 13 51 16 .20      86     17    -50     88    101  78.5 -36.3  33974  286.42 0862.32
2015 04 09 13 51 16 .45      90     18    -52     92    105  78.6 -36.3  33976  286.46 0862.32
2015 04 09 13 51 16 .70      91      8    -45     92    102  84.8 -31.7  33974  286.42 0862.31
2015 04 09 13 51 16 .96      85      2    -37     86     93  88.3 -29.0  33974  286.42 0862.31
2015 04 09 13 51 17 .21      71      3    -30     72     78  87.4 -27.5  33976  286.46 0862.31
2015 04 09 13 51 17 .46      82      8    -41     83     92  83.9 -32.2  33974  286.42 0862.31
2015 04 09 13 51 17 .72      61      0    -45     62     76  89.2 -44.1  33978  286.49 0862.31
2015 04 09 13 51 17 .97      55      5    -52     56     76  84.8 -52.4  33982  286.56 0862.31
2015 04 09 13 51 18 .22      55      5    -45     56     71  84.8 -48.1  33986  286.64 0862.31
2015 04 09 13 51 18 .47      48      1    -45     49     66  88.3 -52.3  33990  286.69 0862.31
2015 04 09 13 51 18 .72      45     13    -47     48     67  73.2 -55.5  33992  286.73 0862.31
2015 04 09 13 51 18 .97      36      0    -43     37     56  90.8 -58.7  34000  286.88 0862.31
2015 04 09 13 51 19 .22      30    -23    -43     39     58 127.8 -56.6  34008  287.00 0862.31
2015 04 09 13 51 19 .47      38    -17    -30     42     51 114.4 -44.1  33988  286.66 0862.31
2015 04 09 13 51 19 .72      58      0    -28     59     65  90.0 -31.6  33976  286.47 0862.31
2015 04 09 13 51 19 .97      84     11     -6     85     86  82.5  -4.1  33992  286.73 0862.31
2015 04 09 13 51 20 .23      67     -7     -8     68     69  96.1  -7.2  34010  287.05 0862.31
2015 04 09 13 51 20 .48      88     -6    -11     89     90  94.4  -7.3  34036  287.47 0862.31
2015 04 09 13 51 20 .72     118      9    -10    119    120  85.6  -5.1  34040  287.54 0862.31
2015 04 09 13 51 20 .97     117    -10     -4    118    119  95.2  -2.2  34020  287.20 0862.31
2015 04 09 13 51 21 .22      74      5    -27     75     79  85.6 -24.8  34008  287.00 0862.31
2015 04 09 13 51 21 .48     124    -25     -4    127    128 101.4  -2.2  34036  287.47 0862.31
2015 04 09 13 51 21 .72     107    -12    -13    108    109  96.6  -7.2  34010  287.05 0862.31
2015 04 09 13 51 21 .98     113    -11    -22    114    117  95.7 -11.3  33978  286.51 0862.31
2015 04 09 13 51 22 .23     112    -15    -41    114    122  97.9 -19.7  33982  286.57 0862.31
2015 04 09 13 51 22 .48     118      2      1    119    120  88.7   0.8  34084  288.30 0862.31
2015 04 09 13 51 22 .73     127    -12     -2    128    129  95.7  -1.3  34090  288.40 0862.31
2015 04 09 13 51 22 .98     138      0      1    139    140  90.4   0.8  34116  288.82 0862.31
2015 04 09 13 51 23 .23     133     17      1    135    136  82.5   0.8  34100  288.55 0862.31
2015 04 09 13 51 23 .48     130      0      6    131    132  90.4   2.9  34066  287.98 0862.31
2015 04 09 13 51 23 .73     100    -20    -13    103    104 101.5  -7.3  34014  287.11 0862.31
2015 04 09 13 51 23 .99      96    -12    -19     97     99  97.5 -11.3  34012  287.06 0862.31
2015 04 09 13 51 24 .25     101    -16    -19    103    105  99.2 -10.9  34040  287.54 0862.31
2015 04 09 13 51 24 .49      72    -24      3     76     77 108.4   2.8  34074  288.11 0862.31
2015 04 09 13 51 24 .74     103    -32     30    108    113 107.3  15.8  34108  288.70 0862.31
2015 04 09 13 51 24 .99      94      1    -12     95     96  89.2  -7.3  34048  287.69 0862.31
2015 04 09 13 51 25 .25      96      9    -27     97    101  84.3 -16.0  33988  286.67 0862.31
2015 04 09 13 51 25 .50      95     -4    -34     96    101  92.6 -24.4  34020  287.20 0862.31
2015 04 09 13 51 25 .74      85    -32    -25     91     95 110.8 -15.5  34116  288.82 0862.31
2015 04 09 13 51 26 .00      64    -34     -9     73     74 118.0  -7.3  34108  288.69 0862.31
2015 04 09 13 51 26 .24      59    -28     41     66     77 115.2  35.5  34096  288.48 0862.31
2015 04 09 13 51 26 .50      47    -21     30     52     60 114.4  32.4  34102  288.60 0862.31
2015 04 09 13 51 26 .75      35    -22     14     42     45 122.4  19.4  34110  288.74 0862.31
2015 04 09 13 51 26 .99      15    -24     12     29     31 147.4  23.0  34178  289.89 0862.31
2015 04 09 13 51 27 .25      34      4     44     35     56  82.1  56.4  34086  288.33 0862.31
2015 04 09 13 51 27 .50      75    -28    -15     81     83 110.4 -10.9  34082  288.26 0862.30
2015 04 09 13 51 27 .75     114    -27    -14    118    119 103.7  -7.2  33980  286.54 0862.30
2015 04 09 13 51 28 .00     114    -27    -14    118    119 103.7  -7.2  33978  286.49 0862.30
2015 04 09 13 51 28 .25     132    -23     -2    135    136 100.1  -1.3  33974  286.42 0862.30
2015 04 09 13 51 28 .50     124    -37    -14    130    131 106.8  -6.2  33976  286.46 0862.30
2015 04 09 13 51 28 .76     133    -42     -7    140    141 107.7  -3.2  33988  286.66 0862.30
2015 04 09 13 51 29 .00     135    -49    -18    144    146 110.0  -7.2  34028  287.33 0862.30
2015 04 09 13 51 29 .25     138    -55     -6    149    150 111.7  -2.6  33996  286.79 0862.30
2015 04 09 13 51 29 .50     128    -24     -5    131    132 100.6  -2.2  33976  286.47 0862.30
2015 04 09 13 51 29 .75     136    -23     10    138    139  99.7   4.4  33976  286.46 0862.30
2015 04 09 13 51 30 .00     137    -23     -5    139    140  99.7  -2.2  33976  286.46 0862.30
2015 04 09 13 51 30 .25     134    -18     -1    136    137  98.0  -0.7  33976  286.46 0862.30
2015 04 09 13 51 30 .50     140    -19      5    142    143  97.9   2.3  33976  286.46 0862.30
2015 04 09 13 51 30 .76     140    -19      5    142    143  97.9   2.3  33976  286.46 0862.30
2015 04 09 13 51 31 .02     143    -15      7    144    145  96.1   2.8  33978  286.49 0862.30
2015 04 09 13 51 31 .26     152    -22      7    154    155  98.4   2.9  33978  286.51 0862.30
2015 04 09 13 51 31 .51     146    -22     12    148    149  98.8   4.9  33978  286.49 0862.30
2015 04 09 13 51 31 .77     153    -27     11    156    157 100.1   4.4  33978  286.49 0862.30
2015 04 09 13 51 32 .02     154    -41      6    160    161 105.0   2.3  33980  286.52 0862.30
2015 04 09 13 51 32 .27     153    -28      4    156    157 100.6   1.6  33976  286.46 0862.30
2015 04 09 13 51 32 .52     152    -22      7    154    155  98.4   2.9  33978  286.51 0862.30
2015 04 09 13 51 32 .77     156    -15      5    157    158  95.7   2.1  33984  286.59 0862.30
2015 04 09 13 51 33 .02     150    -24     24    152    154  99.2   9.0  33978  286.51 0862.31
2015 04 09 13 51 33 .27     144    -11      7    145    146  94.4   2.9  33982  286.56 0862.31
2015 04 09 13 51 33 .52     140     -4      4    141    142  91.7   1.8  33982  286.56 0862.31
2015 04 09 13 51 33 .77     126     -3     -2    127    128  91.7  -1.2  33978  286.49 0862.31
2015 04 09 13 51 34 .02     119    -16     -2    121    122  97.9  -1.2  33974  286.42 0862.31
2015 04 09 13 51 34 .27     125     -7    -11    126    127  93.5  -5.2  33974  286.42 0862.31
2015 04 09 13 51 34 .52     136     -3    -13    137    138  91.3  -5.6  33976  286.46 0862.31
2015 04 09 13 51 34 .77     139     -8    -36    140    145  93.5 -14.5  33976  286.46 0862.31
2015 04 09 13 51 35 .03     130      6    -48    131    139  87.0 -25.3  33976  286.46 0862.31
2015 04 09 13 51 35 .28     138    -40    -12    144    145 106.4  -5.1  33978  286.49 0862.31
2015 04 09 13 51 35 .53     148    -20      7    150    151  97.9   2.8  34030  287.38 0862.31
2015 04 09 13 51 35 .78     134    -10     36    135    140  94.4  15.3  34072  288.08 0862.30
2015 04 09 13 51 36 .02     133     -9     40    134    140  93.9  16.8  34066  287.99 0862.30
2015 04 09 13 51 36 .28     126     -9     41    127    134  94.4  17.9  34022  287.25 0862.30
2015 04 09 13 51 36 .53     138      0     36    139    144  90.0  14.7  33992  286.74 0862.30
2015 04 09 13 51 36 .78     138      1     19    139    141  89.2   8.0  33986  286.62 0862.30
2015 04 09 13 51 37 .03     128     17     25    130    133  82.1  11.0  33984  286.61 0862.30
2015 04 09 13 51 37 .28     148     16     29    149    152  83.8  11.1  33984  286.61 0862.30
2015 04 09 13 51 37 .54     134      0     47    135    144  90.0  19.4  34012  287.08 0862.31
2015 04 09 13 51 37 .79     161     12     60    162    172  85.7  21.0  34000  286.86 0862.31
2015 04 09 13 51 38 .05     146     11     67    147    161  85.7  26.2  34008  287.00 0862.31
2015 04 09 13 51 38 .30     126     -5     82    127    151  92.6  35.6  34054  287.79 0862.31
2015 04 09 13 51 38 .54     119    -28     74    123    143 103.3  34.0  34078  288.18 0862.31
2015 04 09 13 51 38 .80     118    -24     42    121    129 101.5  19.4  34032  287.42 0862.31
2015 04 09 13 51 39 .04      97    -24     61    101    117 104.2  34.0  34072  288.08 0862.31
2015 04 09 13 51 39 .29     101    -24     45    104    113 103.7  24.6  34036  287.47 0862.31
2015 04 09 13 51 39 .55     101    -32     44    107    115 107.7  23.1  34030  287.37 0862.31
2015 04 09 13 51 39 .80     102    -22     28    105    109 102.4  15.3  34034  287.43 0862.31
2015 04 09 13 51 40 .05     130    -40     35    137    142 107.3  14.3  34032  287.42 0862.31
2015 04 09 13 51 40 .30     126    -20     51    128    137  99.2  23.0  34158  289.53 0862.31
2015 04 09 13 51 40 .55     119      2     75    120    141  88.7  35.5  34170  289.74 0862.31
2015 04 09 13 51 40 .80     122      0     70    123    141  90.0  31.9  34116  288.82 0862.31
2015 04 09 13 51 41 .06     139    -19     57    141    152  98.0  23.0  34122  288.92 0862.31
2015 04 09 13 51 41 .30     139     -9     74    140    158  93.9  30.3  34084  288.30 0862.31
2015 04 09 13 51 41 .56     144     -7     65    145    158  93.0  25.9  34058  287.86 0862.31
2015 04 09 13 51 41 .80     112      0     67    113    131  90.0  33.5  34038  287.52 0862.31
2015 04 09 13 51 42 .05      97    -23     67    100    120 103.7  37.4  34028  287.35 0862.31
2015 04 09 13 51 42 .32     116    -27     25    120    123 103.3  12.2  34004  286.93 0862.31
2015 04 09 13 51 42 .55     121    -27     -5    125    126 102.8  -2.6  34000  286.86 0862.31
2015 04 09 13 51 42 .80     125    -36    -16    131    133 106.4  -7.2  34000  286.86 0862.31
2015 04 09 13 51 43 .06     143    -42    -30    150    153 106.4 -11.3  33988  286.67 0862.31
2015 04 09 13 51 43 .30     126    -36    -16    132    134 105.9  -7.2  33976  286.47 0862.31
2015 04 09 13 51 43 .55     120    -40    -16    127    129 108.4  -7.3  33976  286.47 0862.31
2015 04 09 13 51 43 .80     118    -36    -16    124    126 106.9  -7.7  33976  286.46 0862.31
2015 04 09 13 51 44 .06     116    -40    -14    123    124 109.1  -6.7  33978  286.51 0862.30
2015 04 09 13 51 44 .31     114    -27    -14    118    119 103.7  -7.2  33978  286.49 0862.30
2015 04 09 13 51 44 .56     115    -41    -20    123    125 109.5  -9.3  33974  286.42 0862.30
2015 04 09 13 51 44 .82     123    -29    -13    127    128 103.3  -6.2  33976  286.46 0862.30
2015 04 09 13 51 45 .07     121     -3     -6    122    123  91.7  -3.1  33978  286.49 0862.30
2015 04 09 13 51 45 .32     117     -4     -4    118    119  92.1  -2.2  33976  286.46 0862.30
2015 04 09 13 51 45 .57     118    -11    -10    119    120  95.7  -5.2  33978  286.49 0862.30
2015 04 09 13 51 45 .82     124    -25    -17    127    129 101.4  -7.7  34008  287.00 0862.30
2015 04 09 13 51 46 .07     116    -23    -19    119    121 101.4  -9.4  34012  287.06 0862.30
2015 04 09 13 51 46 .32     107     -8    -22    108    111  94.3 -11.5  34004  286.94 0862.30
2015 04 09 13 51 46 .57     108    -21    -20    111    113 101.4 -10.3  34014  287.11 0862.31
2015 04 09 13 51 46 .82      92    -24    -31     96    101 105.1 -18.1  34030  287.38 0862.31
2015 04 09 13 51 47 .07      88     -6    -21     89     92  94.4 -13.4  33992  286.74 0862.31
2015 04 09 13 51 47 .32     104     -8     -6    105    106  94.4  -3.7  34004  286.93 0862.31
2015 04 09 13 51 47 .58     108    -11     -4    109    110  96.1  -2.6  34028  287.33 0862.31
2015 04 09 13 51 47 .82     107    -47     -4    118    119 114.0  -2.2  34038  287.52 0862.31
2015 04 09 13 51 48 .08     100    -22      8    103    104 102.8   4.9  34028  287.33 0862.31
2015 04 09 13 51 48 .32      95     -7     -9     96     97  94.4  -5.6  34004  286.94 0862.31
2015 04 09 13 51 48 .57      92      0     -6     93     94  90.0  -4.1  33998  286.83 0862.30
2015 04 09 13 51 48 .82      95     -7     -3     96     97  94.4  -2.2  33978  286.51 0862.30
2015 04 09 13 51 49 .08      86    -16    -11     88     89 100.6  -7.7  34000  286.88 0862.30
2015 04 09 13 51 49 .33      81    -17     -9     83     84 101.9  -6.2  33992  286.74 0862.30
2015 04 09 13 51 49 .58      82    -16    -10     84     85 101.5  -7.2  34030  287.38 0862.30
2015 04 09 13 51 49 .83      83    -27    -18     88     90 108.2 -11.9  34012  287.08 0862.30
2015 04 09 13 51 50 .08      84    -13    -14     85     87  98.8  -9.3  33986  286.64 0862.30
2015 04 09 13 51 50 .33      84    -21    -14     87     89 104.2  -9.3  34000  286.86 0862.31
2015 04 09 13 51 50 .58      81    -17     -9     83     84 101.9  -6.2  33982  286.57 0862.31
2015 04 09 13 51 50 .83      79    -20      1     82     83 104.2   1.2  33994  286.76 0862.31
2015 04 09 13 51 51 .09      68    -22     -2     72     73 108.2  -2.2  34006  286.98 0862.31
2015 04 09 13 51 51 .34      65    -23      1     70     71 110.0   0.8  34014  287.11 0862.31
2015 04 09 13 51 51 .58      68    -23      3     72     73 109.1   2.9  34006  286.96 0862.31
2015 04 09 13 51 51 .85      65    -30     14     72     74 115.2  11.0  34004  286.94 0862.31
2015 04 09 13 51 52 .09      60    -46     15     76     78 127.8  11.1  34008  287.01 0862.30
2015 04 09 13 51 52 .35      70    -39      9     81     82 118.9   6.5  34014  287.11 0862.30
2015 04 09 13 51 52 .59      79    -32     15     86     88 112.2  10.1  34012  287.06 0862.30
2015 04 09 13 51 52 .85      72    -13    -10     74     75 100.6  -8.2  34006  286.96 0862.30
2015 04 09 13 51 53 .10      66    -21     -8     70     71 108.2  -7.2  34002  286.89 0862.30
2015 04 09 13 51 53 .35      71    -45    -11     85     86 122.5  -7.7  34004  286.93 0862.30
2015 04 09 13 51 53 .60      91    -48     21    104    107 118.0  11.6  34014  287.10 0862.30
2015 04 09 13 51 53 .85      76    -57      3     96     97 126.9   1.8  33998  286.83 0862.30
2015 04 09 13 51 54 .10      89    -53     -4    104    105 120.7  -2.2  33994  286.78 0862.30
2015 04 09 13 51 54 .35      87    -41     11     97     98 115.4   6.5  33998  286.83 0862.30
2015 04 09 13 51 54 .61      98    -46     16    109    111 115.3   8.5  34004  286.93 0862.30
2015 04 09 13 51 54 .85      86    -55     17    103    105 122.9   9.5  34014  287.10 0862.30
2015 04 09 13 51 55 .10      83    -52     -2     99    100 122.0  -1.3  34002  286.89 0862.30
2015 04 09 13 51 55 .35      78    -43      9     90     91 118.9   5.9  34012  287.06 0862.30
2015 04 09 13 51 55 .60      75    -37      6     84     85 116.2   4.4  34010  287.03 0862.30
2015 04 09 13 51 55 .85      92     -4     17     93     95  92.6  10.6  34010  287.05 0862.30
2015 04 09 13 51 56 .10     115      0      1    116    117  90.0   0.8  33998  286.83 0862.30
2015 04 09 13 51 56 .35     114     -8      1    115    116  94.3   0.8  33978  286.51 0862.30
2015 04 09 13 51 56 .61     115      0      1    116    117  90.0   0.8  33986  286.62 0862.30
2015 04 09 13 51 56 .86     111      0     -4    112    113  90.0  -2.2  33988  286.67 0862.30
2015 04 09 13 51 57 .11     102      1     -4    103    104  89.1  -2.2  33978  286.51 0862.30
2015 04 09 13 51 57 .36     102      0      4    103    104  89.6   2.3  33990  286.69 0862.30
2015 04 09 13 51 57 .61      96    -12     15     97     99  97.5   9.0  33998  286.83 0862.30
2015 04 09 13 51 57 .86      84     -3      5     85     86  92.1   3.8  33994  286.76 0862.30
2015 04 09 13 51 58 .11      75    -26     12     80     82 109.1   9.0  34010  287.05 0862.30
2015 04 09 13 51 58 .36      80    -28      1     85     86 109.5   1.2  34004  286.93 0862.30
2015 04 09 13 51 58 .62      84    -36    -11     92     93 113.5  -7.3  34000  286.88 0862.30
2015 04 09 13 51 58 .87      83    -25    -10     87     88 106.8  -6.7  33998  286.84 0862.30
2015 04 09 13 51 59 .12      80    -33    -22     87     90 112.6 -14.5  33988  286.67 0862.30
2015 04 09 13 51 59 .37      78    -24    -21     82     85 107.7 -14.5  33988  286.67 0862.30
2015 04 09 13 51 59 .62      75    -20    -25     78     83 105.1 -18.1  33986  286.64 0862.30
2015 04 09 13 51 59 .87      73    -24    -21     77     79 108.4 -20.2  33984  286.61 0862.30
2015 04 09 13 52 00 .12      73    -24    -21     77     79 108.4 -20.2  33984  286.61 0862.30
2015 04 09 13 52 00 .37      68    -23    -15     72     74 109.1 -12.4  33988  286.67 0862.30
2015 04 09 13 52 00 .62      66    -30    -19     73     76 114.4 -14.5  33986  286.64 0862.30
2015 04 09 13 52 00 .88      61    -20    -17     65     68 108.4 -14.5  33992  286.73 0862.30
2015 04 09 13 52 01 .13      68    -28     -4     74     75 112.6  -3.1  34022  287.23 0862.30
2015 04 09 13 52 01 .38      73     -7     -4     74     75  96.1  -3.1  34040  287.54 0862.30
2015 04 09 13 52 01 .62      77    -15      0     79     80 101.5  -0.3  34014  287.11 0862.30
2015 04 09 13 52 01 .87      72    -34     -3     80     81 115.2  -2.2  33994  286.76 0862.30
2015 04 09 13 52 02 .13      63    -28      4     70     71 114.4   3.8  34012  287.06 0862.30
2015 04 09 13 52 02 .38      76    -25     -9     81     82 108.2  -6.7  34018  287.16 0862.30
2015 04 09 13 52 02 .63      61    -39     -6     73     74 122.4  -5.2  34000  286.88 0862.30
2015 04 09 13 52 02 .88      69    -43     -5     82     83 122.4  -4.1  33998  286.83 0862.30
2015 04 09 13 52 03 .14      61    -39    -10     73     74 122.4  -8.2  34006  286.96 0862.30
2015 04 09 13 52 03 .39      78    -38     13     88     89 116.2   8.5  34044  287.62 0862.30
2015 04 09 13 52 03 .63      84    -11      5     85     86  97.5   3.8  34066  287.99 0862.30
2015 04 09 13 52 03 .88      65    -13      3     67     68 101.5   2.8  34076  288.16 0862.30
2015 04 09 13 52 04 .13      60    -12     -2     62     63 101.5  -2.2  34080  288.21 0862.30
2015 04 09 13 52 04 .38      77    -15      0     79     80 101.5  -0.3  34072  288.08 0862.30
2015 04 09 13 52 04 .63      80    -21     -3     83     84 105.1  -2.6  34072  288.08 0862.30
2015 04 09 13 52 04 .88      90    -12     -3     91     92  97.9  -2.2  34080  288.21 0862.30
2015 04 09 13 52 05 .13      96     -7     -3     97     98  94.4  -2.2  34064  287.94 0862.30
2015 04 09 13 52 05 .38      76     -4     -3     77     78  93.5  -2.2  34058  287.84 0862.30
2015 04 09 13 52 05 .64      77     -1     -1     78     79  90.8  -1.3  34046  287.65 0862.30
2015 04 09 13 52 05 .89      80    -13     -3     82     83  99.2  -2.6  34040  287.54 0862.30
2015 04 09 13 52 06 .15      81    -17     10     83     84 101.9   7.5  34054  287.77 0862.30
2015 04 09 13 52 06 .40     100      0      7    101    102  90.0   4.4  34062  287.91 0862.30
2015 04 09 13 52 06 .64      87     -6      2     88     89  94.4   1.8  34064  287.94 0862.30
2015 04 09 13 52 06 .90      87     -6      2     88     89  94.4   1.8  34036  287.47 0862.30
2015 04 09 13 52 07 .15      76    -15    -10     78     79 101.5  -7.3  34018  287.16 0862.30
2015 04 09 13 52 07 .40      69     -7     -9     70     71  96.1  -7.3  33996  286.79 0862.30
2015 04 09 13 52 07 .65      62     -8    -12     63     65  97.9 -11.5  33990  286.69 0862.30
2015 04 09 13 52 07 .90      54     -7     -7     55     56  97.9  -7.3  33990  286.69 0862.30
2015 04 09 13 52 08 .16      51    -12     -8     53     54 104.2  -9.3  34006  286.98 0862.30
2015 04 09 13 52 08 .41      62     -8      0     63     64  97.9   0.8  34002  286.89 0862.30
2015 04 09 13 52 08 .66      57      1      0     58     59  88.3   0.8  34038  287.50 0862.30
2015 04 09 13 52 08 .90      56    -13     16     58     61 103.3  15.3  34040  287.54 0862.30
2015 04 09 13 52 09 .16      48    -12      6     50     51 105.1   6.9  34040  287.54 0862.30
2015 04 09 13 52 09 .40      42    -16      5     46     47 111.7   6.9  34040  287.54 0862.29
2015 04 09 13 52 09 .65      47    -16      9     50     51 109.1  11.1  34040  287.54 0862.29
2015 04 09 13 52 09 .91      51    -22     21     56     59 113.5  21.0  34046  287.65 0862.29
2015 04 09 13 52 10 .15      51    -22     21     56     59 113.5  21.0  34046  287.65 0862.29
2015 04 09 13 52 10 .40      49    -13     -2     51     52 105.1  -2.2  34042  287.59 0862.29
2015 04 09 13 52 10 .66      63     -8    -12     64     66  97.9 -11.3  34026  287.32 0862.29
2015 04 09 13 52 10 .91      56     -4    -14     57     59  94.4 -14.5  34030  287.38 0862.29
2015 04 09 13 52 11 .16      74     -1     -9     75     76  90.8  -7.3  34010  287.05 0862.29
2015 04 09 13 52 11 .40      87      0      0     88     89  90.0   0.2  34004  286.93 0862.29
2015 04 09 13 52 11 .66      79     -4      0     80     81  93.5   0.2  34010  287.05 0862.29
2015 04 09 13 52 11 .91      83     -7    -10     84     85  95.2  -7.2  34000  286.86 0862.29
2015 04 09 13 52 12 .16      75    -11      3     76     77  98.8   2.9  34024  287.27 0862.29
2015 04 09 13 52 12 .41      70    -14      0     72     73 101.4  -0.3  34018  287.16 0862.29
2015 04 09 13 52 12 .67      74     -7     -9     75     76  96.1  -7.3  34006  286.98 0862.29
2015 04 09 13 52 12 .92      81     -8    -15     82     84  95.7 -10.9  33994  286.78 0862.29
2015 04 09 13 52 13 .17      96     -7     -3     97     98  94.4  -2.2  33998  286.83 0862.29
2015 04 09 13 52 13 .42      92      0     -6     93     94  90.0  -4.1  33998  286.83 0862.29
2015 04 09 13 52 13 .67      84    -11     -7     85     86  97.5  -5.2  34000  286.88 0862.29
2015 04 09 13 52 13 .92      76     -5     -9     77     78  94.3  -7.2  33996  286.79 0862.29
2015 04 09 13 52 14 .18      81      0    -14     82     84  90.4 -10.3  34000  286.86 0862.29
2015 04 09 13 52 14 .42      87     -8     -4     88     89  95.7  -2.6  34012  287.06 0862.29
2015 04 09 13 52 14 .68      95    -13    -12     96     97  97.9  -7.3  33994  286.78 0862.29
2015 04 09 13 52 14 .93      76    -16    -22     78     82 102.4 -16.0  33994  286.78 0862.29
2015 04 09 13 52 15 .18      66    -13    -21     68     71 101.5 -22.8  33996  286.81 0862.29
2015 04 09 13 52 15 .43      62     -4    -25     63     67  94.4 -27.4  33998  286.83 0862.29
2015 04 09 13 52 15 .69      79      1     -3     80     81  89.1  -2.6  34012  287.06 0862.28
2015 04 09 13 52 15 .92      56    -12     -4     58     59 102.4  -4.1  34006  286.98 0862.28
2015 04 09 13 52 16 .18      66    -21    -10     70     71 107.7  -8.2  34000  286.88 0862.28
2015 04 09 13 52 16 .43      71    -26    -13     76     78 110.8 -10.3  34002  286.89 0862.28
2015 04 09 13 52 16 .68      76    -31    -11     83     84 112.6  -7.7  34004  286.93 0862.28
2015 04 09 13 52 16 .93      76    -31    -11     83     84 112.6  -7.7  34004  286.93 0862.28
2015 04 09 13 52 17 .18      77    -47     -5     91     92 121.5  -3.7  34000  286.88 0862.28
2015 04 09 13 52 17 .43      71    -49      5     87     88 124.6   3.8  34000  286.88 0862.28
2015 04 09 13 52 17 .68      83    -44     -1     95     96 118.0  -0.7  33998  286.84 0862.28
2015 04 09 13 52 17 .93      75    -38     -1     85     86 117.1  -0.7  33996  286.79 0862.28
2015 04 09 13 52 18 .18      78    -44      1     90     91 119.3   1.2  33998  286.83 0862.28
2015 04 09 13 52 18 .43      71    -33     -3     79     80 115.4  -2.2  33998  286.83 0862.28
2015 04 09 13 52 18 .69      69    -34     -1     77     78 116.2  -1.2  33996  286.79 0862.28
2015 04 09 13 52 18 .94      67    -30     -4     74     75 114.4  -3.1  33996  286.79 0862.28
2015 04 09 13 52 19 .18      69    -43     -5     82     83 122.4  -4.1  33998  286.83 0862.28
2015 04 09 13 52 19 .45      66    -39     -9     77     78 120.7  -7.3  34002  286.89 0862.28
2015 04 09 13 52 19 .70      56    -41     -8     70     71 126.0  -7.2  34006  286.96 0862.28
2015 04 09 13 52 19 .96      68    -56    -17     89     91 129.5 -10.9  34066  287.99 0862.28
2015 04 09 13 52 20 .20      74    -52      4     91     92 125.5   2.8  34096  288.50 0862.28
2015 04 09 13 52 20 .45      88    -32      8     94     95 110.0   4.9  34074  288.13 0862.28
2015 04 09 13 52 20 .70      96    -23      4     99    100 103.7   2.3  34078  288.18 0862.28
2015 04 09 13 52 20 .95      80      0     19     81     84  90.0  13.7  34058  287.86 0862.28
2015 04 09 13 52 21 .20      66      0     21     67     71  90.8  17.3  34060  287.87 0862.28
2015 04 09 13 52 21 .45      57     -7     18     58     61  97.9  17.3  34066  287.99 0862.28
2015 04 09 13 52 21 .70      51    -18     18     55     59 110.0  18.4  34066  287.99 0862.28
2015 04 09 13 52 21 .96      76    -27     28     81     86 109.5  19.4  34076  288.16 0862.28
2015 04 09 13 52 22 .20      63    -44     32     77     83 125.1  23.6  34088  288.36 0862.28
2015 04 09 13 52 22 .46      85    -37     45     93    103 113.5  27.3  34082  288.26 0862.28
2015 04 09 13 52 22 .71      92    -47     43    104    112 117.1  23.1  34068  288.03 0862.28
2015 04 09 13 52 22 .95      89    -43     40     99    106 115.8  23.0  34080  288.21 0862.28
2015 04 09 13 52 23 .21      85    -44     36     96    102 117.5  21.5  34076  288.16 0862.28
2015 04 09 13 52 23 .45      97    -46     37    108    115 115.3  18.9  34078  288.18 0862.28
2015 04 09 13 52 23 .70      80    -24     36     84     91 107.3  24.6  34090  288.38 0862.28
2015 04 09 13 52 23 .95      60    -50     24     79     83 129.5  17.3  34050  287.70 0862.28
2015 04 09 13 52 24 .22      62    -65     24     90     94 136.3  15.3  34018  287.16 0862.28
2015 04 09 13 52 24 .46      74    -55     42     93    102 126.4  25.7  34050  287.70 0862.28
2015 04 09 13 52 24 .71      72    -51     41     89     97 125.1  26.6  34068  288.01 0862.28
2015 04 09 13 52 24 .96      80    -37     40     89     97 114.8  25.7  34050  287.72 0862.28
2015 04 09 13 52 25 .21      63    -44     32     77     83 125.1  23.6  34066  287.99 0862.28
2015 04 09 13 52 25 .46      67    -63     32     93     99 133.1  18.9  34064  287.94 0862.28
2015 04 09 13 52 25 .71      74    -58     25     95     99 128.2  14.7  34030  287.38 0862.27
2015 04 09 13 52 25 .96      88    -38     29     96    101 113.5  16.8  34018  287.16 0862.27
2015 04 09 13 52 26 .22      57    -29     38     65     75 117.1  33.5  34020  287.21 0862.27
2015 04 09 13 52 26 .48      56    -73     -3     93     94 142.6  -2.2  34038  287.52 0862.27
2015 04 09 13 52 26 .72      86    -55    -12    103    104 122.9  -6.7  33994  286.78 0862.27
2015 04 09 13 52 26 .98      80    -68    -29    106    110 130.4 -15.4  34006  286.98 0862.27
2015 04 09 13 52 27 .26      71    -57     -3     92     93 128.6  -2.2  34026  287.30 0862.27
2015 04 09 13 52 27 .47      51    -73      6     90     91 145.3   3.8  34060  287.87 0862.28
2015 04 09 13 52 27 .73      66    -61     -5     91     92 132.7  -3.1  34052  287.76 0862.28
2015 04 09 13 52 27 .97      57    -83    -22    101    104 145.3 -12.4  34052  287.74 0862.28
2015 04 09 13 52 28 .23      60    -79    -20    100    102 143.0 -11.3  34052  287.76 0862.28
2015 04 09 13 52 28 .48      51    -65    -27     83     88 141.7 -18.1  34060  287.89 0862.28
2015 04 09 13 52 28 .73      42    -59    -13     73     75 144.0 -10.3  34066  287.98 0862.28
2015 04 09 13 52 28 .98      54    -51    -21     75     79 133.1 -16.0  34036  287.47 0862.28
2015 04 09 13 52 29 .23      61    -61    -28     87     92 135.0 -18.1  34024  287.28 0862.28
2015 04 09 13 52 29 .48      71    -59    -32     93     98 130.0 -23.3  33992  286.74 0862.28
2015 04 09 13 52 29 .73      54    -51    -32     75     81 133.1 -28.5  33992  286.74 0862.28
2015 04 09 13 52 29 .99      51    -42    -30     67     73 129.5 -30.6  34000  286.88 0862.28
2015 04 09 13 52 30 .24      68    -57     -3     90     91 130.0  -2.2  34044  287.62 0862.28
2015 04 09 13 52 30 .49      86    -55     -5    103    104 122.9  -3.1  34046  287.65 0862.28
2015 04 09 13 52 30 .73      83    -59      5    102    103 125.5   2.9  34086  288.31 0862.28
2015 04 09 13 52 30 .98      85    -49      7     99    100 119.8   4.4  34034  287.43 0862.28
2015 04 09 13 52 31 .24      90    -50     10    104    105 119.3   5.9  34058  287.84 0862.28
2015 04 09 13 52 31 .49      71    -47     16     86     88 123.3  11.1  34080  288.21 0862.28
2015 04 09 13 52 31 .73      47    -57     38     75     84 140.4  28.7  34058  287.86 0862.28
2015 04 09 13 52 31 .98      42    -67     20     80     83 147.5  14.3  34018  287.18 0862.27
2015 04 09 13 52 32 .24      38    -78      1     87     88 153.7   1.2  34028  287.35 0862.27
2015 04 09 13 52 32 .49      33    -65     17     74     77 152.8  13.2  34032  287.40 0862.27
2015 04 09 13 52 32 .74      28    -58     22     65     69 153.7  19.4  34036  287.49 0862.27
2015 04 09 13 52 32 .99      34    -54     12     65     67 147.5  11.1  34058  287.84 0862.27
2015 04 09 13 52 33 .23      29    -46      0     55     56 147.4   0.8  34036  287.47 0862.27
2015 04 09 13 52 33 .50      22    -47      0     53     54 154.7   0.8  34056  287.81 0862.27
2015 04 09 13 52 33 .75      16    -36     -4     40     41 156.4  -6.2  34054  287.77 0862.27
2015 04 09 13 52 34 .00      15    -23    -12     28     30 147.5 -29.5  34052  287.74 0862.27
2015 04 09 13 52 34 .25      13    -23     -7     27     29 151.0 -15.5  34056  287.81 0862.27
2015 04 09 13 52 34 .50      21    -29    -12     37     38 143.9 -23.8  34044  287.62 0862.27
2015 04 09 13 52 34 .75      20    -32    -14     38     40 147.5 -25.4  34008  287.01 0862.27
2015 04 09 13 52 35 .00      28    -42    -19     51     54 146.6 -24.4  33990  286.69 0862.27
2015 04 09 13 52 35 .26      33    -43    -15     55     58 143.0 -15.5  33990  286.71 0862.27
2015 04 09 13 52 35 .51      23    -57      7     62     63 158.1   6.9  34130  289.08 0862.27
2015 04 09 13 52 35 .75       1    -60     16     61     64 178.2  15.3  34134  289.14 0862.27
2015 04 09 13 52 36 .00       1    -54     35     55     65 178.2  35.5  34108  288.70 0862.27
2015 04 09 13 52 36 .26      40    -84      1     94     95 154.7   0.8  34020  287.20 0862.27
2015 04 09 13 52 36 .51      29    -87     21     92     95 161.3  13.2  34094  288.47 0862.27
2015 04 09 13 52 36 .76      39    -67     24     78     82 149.3  17.3  34114  288.80 0862.27
2015 04 09 13 52 37 .00      31    -78     35     85     91 158.2  23.6  34086  288.31 0862.27
2015 04 09 13 52 37 .26      23    -81      5     85     86 164.0   3.8  34048  287.67 0862.27
2015 04 09 13 52 37 .51      25    -74     36     79     86 161.3  25.7  34080  288.21 0862.27
2015 04 09 13 52 37 .76      21    -62     23     66     71 160.8  19.4  34090  288.38 0862.27
2015 04 09 13 52 38 .01       7    -48     24     49     54 171.1  27.2  34076  288.14 0862.27
2015 04 09 13 52 38 .26      38    -40     36     56     66 136.8  35.6  34060  287.87 0862.27
2015 04 09 13 52 38 .51      33    -40     24     53     58 140.4  26.2  34066  287.98 0862.27
2015 04 09 13 52 38 .77      37    -41     23     56     60 138.6  23.1  34076  288.14 0862.27
2015 04 09 13 52 39 .01      28    -58     22     65     69 153.7  19.4  34072  288.08 0862.27
2015 04 09 13 52 39 .27      26    -78     18     83     86 161.3  12.6  34094  288.45 0862.27
2015 04 09 13 52 39 .51      11    -84      8     85     86 172.4   5.4  34084  288.28 0862.27
2015 04 09 13 52 39 .77      14    -80     -8     82     83 169.8  -5.6  34044  287.60 0862.27
2015 04 09 13 52 40 .02      15    -77      6     79     80 168.4   4.4  34066  287.99 0862.27
2015 04 09 13 52 40 .28      17    -68     14     71     73 165.7  11.1  34046  287.65 0862.27
2015 04 09 13 52 40 .53      13    -49      7     51     52 164.9   8.0  34046  287.65 0862.27
2015 04 09 13 52 40 .78      25    -37     24     45     51 145.7  30.3  34066  287.98 0862.27
2015 04 09 13 52 41 .03      25    -45     39     52     65 151.0  39.7  34056  287.81 0862.27
2015 04 09 13 52 41 .28      32    -49     32     59     67 146.6  31.3  34124  288.96 0862.27
2015 04 09 13 52 41 .53      28    -58     22     65     69 153.7  19.4  34148  289.36 0862.27
2015 04 09 13 52 41 .78      10    -68      2     69     70 171.1   1.8  34152  289.45 0862.27
2015 04 09 13 52 42 .03      12    -58     27     60     65 167.5  26.2  34174  289.82 0862.27
2015 04 09 13 52 42 .29      17    -63     22     66     70 164.9  18.9  34190  290.09 0862.27
2015 04 09 13 52 42 .53      32    -69     30     77     82 154.7  22.0  34198  290.23 0862.27
2015 04 09 13 52 42 .78      14    -65     33     67     74 167.5  27.3  34170  289.74 0862.27
2015 04 09 13 52 43 .03       9    -49     29     50     57 169.3  33.5  34170  289.74 0862.27
2015 04 09 13 52 43 .28      42    -26      7     50     51 121.5   8.0  34170  289.74 0862.27
2015 04 09 13 52 43 .53      52    -24      8     58     59 115.3   8.0  34132  289.11 0862.27
2015 04 09 13 52 43 .78      46    -22    -17     52     54 116.2 -23.8  34050  287.72 0862.27
2015 04 09 13 52 44 .03      43    -17    -18     47     50 111.7 -25.4  34040  287.54 0862.27
2015 04 09 13 52 44 .29      23      4    -30     24     38  80.3 -60.8  34048  287.67 0862.27
2015 04 09 13 52 44 .54      -2     -7    -17      8     18 198.5 -81.5  34070  288.04 0862.27
2015 04 09 13 52 44 .79     -11    -36     11     38     40 198.3  17.3  34108  288.70 0862.27
2015 04 09 13 52 45 .04      15    -33     20     37     42 154.6  30.3  34078  288.18 0862.27
2015 04 09 13 52 45 .29       8    -13     27     16     31 147.5  66.8  34120  288.91 0862.27
2015 04 09 13 52 45 .53      20    -21     21     30     36 136.6  37.6  34096  288.50 0862.27
2015 04 09 13 52 45 .78       8    -24     16     26     30 161.7  35.5  34086  288.33 0862.27
2015 04 09 13 52 46 .04       0    -16      8     17     18 182.7  23.0  34074  288.13 0862.27
2015 04 09 13 52 46 .29      -9     -4      2     11     12 244.7  11.1  34074  288.13 0862.27
2015 04 09 13 52 46 .54       1      0      9      2      9  71.6  89.0  34082  288.26 0862.28
2015 04 09 13 52 46 .79      13     -4      0     14     15 108.4   2.9  34090  288.40 0862.28
2015 04 09 13 52 47 .04      17    -17     -8     25     26 134.9 -23.8  34074  288.11 0862.28
2015 04 09 13 52 47 .30      12    -44     -2     46     47 164.0  -3.1  34068  288.03 0862.28
2015 04 09 13 52 47 .55      17    -53      0     56     57 161.3  -0.3  34078  288.18 0862.28
2015 04 09 13 52 47 .80       5    -45     20     46     50 172.9  26.2  34086  288.33 0862.28
2015 04 09 13 52 48 .05      -2    -32     16     33     36 184.5  27.2  34094  288.45 0862.28
2015 04 09 13 52 48 .31      14    -17     14     23     26 140.4  35.5  34070  288.04 0862.27
2015 04 09 13 52 48 .55      30    -14     16     34     37 115.2  27.2  34074  288.13 0862.27
2015 04 09 13 52 48 .81      54    -18     12     58     60 108.6  12.2  34070  288.04 0862.27
2015 04 09 13 52 49 .05      40     -8      5     41     42 102.4   8.0  34072  288.08 0862.27
2015 04 09 13 52 49 .30      44     -6    -10     45     47  98.8 -13.4  34058  287.84 0862.27
2015 04 09 13 52 49 .56      39     -7    -18     40     43 100.6 -29.5  34064  287.96 0862.27
2015 04 09 13 52 49 .81      32     -8    -21     34     39 105.1 -38.8  34070  288.04 0862.27
2015 04 09 13 52 50 .05      32    -26    -27     42     49 129.5 -39.9  34072  288.08 0862.27
2015 04 09 13 52 50 .31      30    -30    -23     43     48 134.9 -34.7  34072  288.08 0862.27
2015 04 09 13 52 50 .56      41    -32    -14     53     56 127.8 -15.5  34066  287.99 0862.27
2015 04 09 13 52 50 .81      36    -32    -13     49     51 131.3 -15.5  34068  288.03 0862.27
2015 04 09 13 52 51 .06      34    -45     -2     57     58 143.0  -2.2  34064  287.94 0862.27
2015 04 09 13 52 51 .31      33    -52     -8     62     63 147.4  -7.3  34062  287.91 0862.27
2015 04 09 13 52 51 .56      18    -51    -15     55     58 160.0 -15.4  34060  287.89 0862.27
2015 04 09 13 52 51 .82      42    -55     -9     70     71 142.2  -7.3  34080  288.23 0862.27
2015 04 09 13 52 52 .06      36    -66     -6     76     77 151.0  -5.2  34064  287.94 0862.27
2015 04 09 13 52 52 .31      34    -59    -16     69     71 150.1 -13.4  34044  287.62 0862.27
2015 04 09 13 52 52 .56      49    -77      2     92     93 147.5   1.8  34068  288.03 0862.27
2015 04 09 13 52 52 .82      63    -85    -11    106    107 143.5  -6.2  34068  288.03 0862.27
2015 04 09 13 52 53 .06      45    -71     24     85     89 147.4  16.3  34110  288.74 0862.27
2015 04 09 13 52 53 .31      51    -74     23     91     94 145.3  14.3  34098  288.53 0862.27
2015 04 09 13 52 53 .56      32    -65     -4     73     74 153.7  -3.1  34080  288.23 0862.26
2015 04 09 13 52 53 .82      32    -64      3     72     73 152.8   2.8  34044  287.62 0862.26
2015 04 09 13 52 54 .08      36    -85     24     93     97 156.8  14.7  34106  288.67 0862.26
2015 04 09 13 52 54 .32      74    -62     22     97    100 130.0  13.2  34140  289.23 0862.26
2015 04 09 13 52 54 .57      59    -55     30     81     86 133.1  20.4  34122  288.94 0862.26
2015 04 09 13 52 54 .83      60    -73      2     95     96 140.4   1.2  34050  287.72 0862.26
2015 04 09 13 52 55 .08      59    -67     -2     90     91 139.0  -1.3  34036  287.49 0862.26
2015 04 09 13 52 55 .33      53    -78     -4     95     96 145.7  -2.6  34036  287.49 0862.26
2015 04 09 13 52 55 .58      48    -68    -10     84     85 144.8  -7.2  34038  287.50 0862.26
2015 04 09 13 52 55 .83      46    -63      1     79     80 143.9   0.8  34038  287.52 0862.26
2015 04 09 13 52 56 .08      58    -59     -7     84     85 135.5  -5.2  34048  287.67 0862.26
2015 04 09 13 52 56 .33      58    -56     -3     81     82 134.1  -2.2  34054  287.77 0862.26
2015 04 09 13 52 56 .58      56    -56     -3     80     81 135.0  -2.2  34048  287.67 0862.26
2015 04 09 13 52 56 .84      51    -61     11     80     81 140.4   8.5  34048  287.67 0862.26
2015 04 09 13 52 57 .09      59    -36      3     70     71 121.5   2.9  34102  288.60 0862.26
2015 04 09 13 52 57 .35      61    -24     39     66     76 111.7  34.4  34116  288.82 0862.25
2015 04 09 13 52 57 .58      99    -20     20    101    104 101.5  11.6  34098  288.53 0862.25
2015 04 09 13 52 57 .83      91    -11     32     92     98  97.5  19.2  34092  288.43 0862.25
2015 04 09 13 52 58 .09     100     13     24    101    104  82.5  13.7  34052  287.76 0862.25
2015 04 09 13 52 58 .35      68     44      4     82     83  57.1   3.3  34074  288.13 0862.25
2015 04 09 13 52 58 .59      78     63      6    101    102  50.9   3.8  34152  289.45 0862.25
2015 04 09 13 52 58 .84      74     54     17     92     94  53.6  10.6  34102  288.58 0862.25
2015 04 09 13 52 59 .09      81     26     24     86     90  71.8  15.8  34114  288.79 0862.25
2015 04 09 13 52 59 .34      57     79     18     98    100  35.6  10.6  34078  288.20 0862.25
2015 04 09 13 52 59 .60      71     80     29    108    112  41.4  15.3  34136  289.16 0862.25
2015 04 09 13 52 59 .84      80     75     66    111    129  46.8  33.5  34124  288.97 0862.25
2015 04 09 13 53 00 .09      58     88     61    106    122  33.4  32.4  34046  287.65 0862.25
2015 04 09 13 53 00 .34      85     71     61    111    126  50.0  31.4  34056  287.82 0862.25
2015 04 09 13 53 00 .59      88     73     49    115    125  50.0  24.6  34004  286.93 0862.25
2015 04 09 13 53 00 .84      95     74     33    121    126  51.8  15.2  34004  286.93 0862.26
2015 04 09 13 53 01 .09      96     74     23    122    125  52.2  11.0  34002  286.91 0862.26
2015 04 09 13 53 01 .35      89     89     15    127    128  45.1   7.1  33998  286.83 0862.26
2015 04 09 13 53 01 .60      85     93     15    127    128  42.3   7.1  33994  286.78 0862.26
2015 04 09 13 53 01 .85      86     94      4    128    129  42.3   1.8  33992  286.74 0862.26
2015 04 09 13 53 02 .10      79     92     10    122    123  40.5   4.9  33994  286.78 0862.26
2015 04 09 13 53 02 .35      72     99     -2    123    124  36.1  -1.2  34002  286.91 0862.26
2015 04 09 13 53 02 .60      79     99      1    127    128  38.7   0.8  33986  286.64 0862.26
2015 04 09 13 53 02 .85      73     99      6    124    125  36.5   2.8  33984  286.61 0862.26
2015 04 09 13 53 03 .10      73     99      6    124    125  36.5   2.8  33984  286.61 0862.26
2015 04 09 13 53 03 .36      72     94      1    119    120  37.4   0.8  33990  286.69 0862.26
2015 04 09 13 53 03 .61      72     95     10    120    121  37.4   5.0  33992  286.73 0862.26
2015 04 09 13 53 03 .86      75     91     14    119    120  39.6   6.9  34000  286.86 0862.26
2015 04 09 13 53 04 .11      74     85     31    113    118  41.0  15.3  34000  286.86 0862.26
2015 04 09 13 53 04 .36      66     80     22    104    107  39.7  12.2  33998  286.83 0862.26
2015 04 09 13 53 04 .61      60     87     29    106    110  34.7  15.3  34000  286.86 0862.26
2015 04 09 13 53 04 .87      88     89     44    126    134  44.5  19.4  34032  287.42 0862.26
2015 04 09 13 53 05 .11      91     85     48    125    133  46.9  21.5  34052  287.76 0862.26
2015 04 09 13 53 05 .36      67     95     63    117    132  35.2  31.3  34042  287.57 0862.26
2015 04 09 13 53 05 .61      68     93     65    116    132  36.1  31.4  34008  287.01 0862.26
2015 04 09 13 53 05 .86      57    104     48    119    128  29.0  23.0  34006  286.96 0862.26
2015 04 09 13 53 06 .11      77    106     42    132    139  36.0  17.9  33996  286.79 0862.26
2015 04 09 13 53 06 .36      77    114     15    138    139  34.3   6.5  33998  286.83 0862.26
2015 04 09 13 53 06 .61      64    101      1    120    121  32.5   0.7  34000  286.88 0862.26
2015 04 09 13 53 06 .87      52     94     -1    108    109  29.0  -0.7  34006  286.96 0862.26
2015 04 09 13 53 07 .11      64     66     20     93     96  44.1  12.2  34018  287.16 0862.26
2015 04 09 13 53 07 .37      77     77      0    109    110  45.0   0.2  34022  287.25 0862.26
2015 04 09 13 53 07 .62      72     73    -13    103    104  44.5  -7.3  34024  287.28 0862.26
2015 04 09 13 53 07 .87      52     55    -27     76     81  43.3 -19.7  34028  287.35 0862.26
2015 04 09 13 53 08 .13      65     33    -19     73     76  62.9 -14.5  34028  287.33 0862.26
2015 04 09 13 53 08 .38      84     33    -22     91     94  68.7 -13.9  34022  287.25 0862.26
2015 04 09 13 53 08 .63      83     40    -13     93     94  64.2  -8.2  34020  287.21 0862.26
2015 04 09 13 53 08 .88      94     41    -13    103    104  66.5  -7.3  34016  287.13 0862.26
2015 04 09 13 53 09 .13      98     26     -1    102    103  75.0  -0.7  34014  287.11 0862.26
2015 04 09 13 53 09 .38      99     47      5    110    111  64.2   2.9  34016  287.15 0862.26
2015 04 09 13 53 09 .63     105     61     -1    122    123  59.8  -0.7  34008  287.01 0862.26
2015 04 09 13 53 09 .88      98     58      5    115    116  59.3   2.8  34010  287.05 0862.26
2015 04 09 13 53 10 .14      99     46     23    110    113  65.2  12.2  34050  287.70 0862.26
2015 04 09 13 53 10 .38     103     58     48    119    128  60.7  23.0  34062  287.92 0862.26
2015 04 09 13 53 10 .64     107     78     45    133    141  54.0  18.9  34068  288.03 0862.26
2015 04 09 13 53 10 .88     120     56     47    133    142  64.8  19.4  34048  287.67 0862.26
2015 04 09 13 53 11 .13     124     69     26    143    146  60.7  10.6  33994  286.78 0862.26
2015 04 09 13 53 11 .39     126     61     38    141    147  64.2  15.2  34008  287.01 0862.26
2015 04 09 13 53 11 .63     142     86     21    167    169  58.7   7.5  34008  287.01 0862.26
2015 04 09 13 53 11 .90     143     73     17    161    162  62.9   6.1  34040  287.54 0862.26
2015 04 09 13 53 12 .13     108     63     24    126    129  59.8  11.1  34044  287.62 0862.26
2015 04 09 13 53 12 .39      91     46     14    103    105  62.9   8.0  34040  287.54 0862.26
2015 04 09 13 53 12 .64      99     47     21    110    113  64.2  11.1  34028  287.35 0862.26
2015 04 09 13 53 12 .89      91     54      5    107    108  59.3   2.9  34026  287.30 0862.26
2015 04 09 13 53 13 .14      80     33    -11     87     88  67.4  -7.7  34008  287.00 0862.26
2015 04 09 13 53 13 .39      61     24     -8     66     67  68.3  -7.2  34006  286.96 0862.26
2015 04 09 13 53 13 .64      72     23    -13     76     78  71.8 -10.3  34006  286.96 0862.26
2015 04 09 13 53 13 .89      74     29      9     80     81  68.2   6.9  34002  286.89 0862.26
2015 04 09 13 53 14 .14      86     33     -6     93     94  69.2  -4.1  34000  286.88 0862.26
2015 04 09 13 53 14 .39     113     37      5    119    120  71.8   2.8  33998  286.83 0862.26
2015 04 09 13 53 14 .64     107     72    -20    130    132  55.9  -8.8  33996  286.79 0862.26
2015 04 09 13 53 14 .89     116     65    -10    133    134  60.7  -4.6  34002  286.91 0862.26
2015 04 09 13 53 15 .15     122     57     -5    135    136  64.8  -2.2  34002  286.91 0862.26
2015 04 09 13 53 15 .40     118     60     -7    133    134  63.0  -3.2  33994  286.78 0862.26
2015 04 09 13 53 15 .66     102     57    -18    117    119  60.7  -8.8  33988  286.66 0862.26
2015 04 09 13 53 15 .90     108     66    -14    127    128  58.5  -6.7  33988  286.67 0862.26
2015 04 09 13 53 16 .15     102     57    -18    117    119  60.7  -8.8  33988  286.66 0862.26
2015 04 09 13 53 16 .40      98     58     -6    115    116  59.3  -3.2  33992  286.73 0862.26
2015 04 09 13 53 16 .65      98     58     -6    115    116  59.3  -3.2  33992  286.73 0862.26
2015 04 09 13 53 16 .91     101     54     -4    115    116  61.6  -2.2  33990  286.69 0862.26
2015 04 09 13 53 17 .16     102     57    -18    117    119  60.7  -8.8  33988  286.66 0862.26
2015 04 09 13 53 17 .41     116     59    -16    131    133  62.9  -7.2  33986  286.64 0862.26
2015 04 09 13 53 17 .66     123     44    -10    131    132  70.0  -4.6  33986  286.64 0862.26
2015 04 09 13 53 17 .91     112     57     -8    126    127  62.9  -3.7  33988  286.67 0862.26
2015 04 09 13 53 18 .17     107     49      1    118    119  65.2   0.7  33988  286.67 0862.27
2015 04 09 13 53 18 .41     113     41      4    121    122  70.1   2.3  33988  286.67 0862.27
2015 04 09 13 53 18 .66     118     47     -5    128    129  68.2  -2.2  33988  286.67 0862.27
2015 04 09 13 53 18 .91     108     49    -13    119    120  65.2  -6.7  33988  286.66 0862.27
2015 04 09 13 53 19 .16      94     41    -13    103    104  66.5  -7.3  33988  286.66 0862.27
2015 04 09 13 53 19 .41     108     49      0    119    120  65.2   0.2  33998  286.83 0862.27
2015 04 09 13 53 19 .66     124     38      2    130    131  72.7   1.2  33990  286.69 0862.27
2015 04 09 13 53 19 .91      95     38     18    103    105  68.3  10.1  33996  286.79 0862.27
2015 04 09 13 53 20 .17     101     30      7    106    107  73.2   3.8  34000  286.86 0862.26
2015 04 09 13 53 20 .41     108     30     12    113    114  74.5   6.5  33994  286.76 0862.26
2015 04 09 13 53 20 .66     109     34      1    115    116  72.7   0.8  33988  286.67 0862.26
2015 04 09 13 53 20 .92      96     29      5    101    102  73.2   2.9  33986  286.64 0862.26
2015 04 09 13 53 21 .17      98     17     -6    100    101  79.9  -3.7  33988  286.67 0862.26
2015 04 09 13 53 21 .42      96     29    -11    101    102  73.2  -6.2  33986  286.64 0862.26
2015 04 09 13 53 21 .67     100     36     -4    107    108  70.0  -2.2  33986  286.64 0862.26
2015 04 09 13 53 21 .92     106     30     -6    111    112  74.1  -3.2  33988  286.67 0862.26
2015 04 09 13 53 22 .18     101     45     -4    111    112  66.0  -2.2  33990  286.69 0862.26
2015 04 09 13 53 22 .43     106     36     -7    113    114  70.9  -3.7  33984  286.61 0862.26
2015 04 09 13 53 22 .68     109     41     -4    117    118  69.2  -2.2  33986  286.64 0862.26
2015 04 09 13 53 22 .93     110     52    -11    122    123  64.6  -5.2  33986  286.64 0862.26
2015 04 09 13 53 23 .19     112     57     -8    126    127  62.9  -3.7  33988  286.67 0862.26
2015 04 09 13 53 23 .43     117     57      1    131    132  63.8   0.8  34072  288.08 0862.26
2015 04 09 13 53 23 .68     114     41     12    122    123  70.1   5.9  34034  287.43 0862.26
2015 04 09 13 53 23 .93     106     44     -2    115    116  67.4  -1.2  34020  287.21 0862.26
2015 04 09 13 53 24 .18     104     53     -6    117    118  62.9  -3.1  34004  286.93 0862.26
2015 04 09 13 53 24 .43     103     48    -10    114    115  64.7  -5.2  33996  286.81 0862.26
2015 04 09 13 53 24 .69     106     53     -6    119    120  63.4  -3.2  33988  286.66 0862.26
2015 04 09 13 53 24 .94     103     57     -4    118    119  61.1  -2.2  33988  286.67 0862.26
2015 04 09 13 53 25 .18      94     41    -13    103    104  66.5  -7.3  33988  286.66 0862.26
2015 04 09 13 53 25 .44     113     41     -6    121    122  70.0  -3.2  33988  286.67 0862.26
2015 04 09 13 53 25 .69     115     45      1    124    125  68.3   0.7  33988  286.67 0862.26
2015 04 09 13 53 25 .94     112     36    -10    118    119  71.8  -5.2  33990  286.69 0862.26
2015 04 09 13 53 26 .20     108     35     -7    114    115  71.8  -3.7  33994  286.78 0862.26
2015 04 09 13 53 26 .45     107     49     32    118    123  65.2  15.3  34158  289.55 0862.26
2015 04 09 13 53 26 .69     107     34     31    113    118  72.3  15.3  34142  289.28 0862.26
2015 04 09 13 53 26 .95     102     27      5    106    107  75.0   2.8  34072  288.08 0862.26
2015 04 09 13 53 27 .19     109     17     51    111    122  81.2  26.2  34080  288.21 0862.26
2015 04 09 13 53 27 .44     110     44     10    119    120  68.2   4.9  33998  286.83 0862.26
2015 04 09 13 53 27 .70     102     35      0    108    109  70.9  -0.3  34006  286.98 0862.26
2015 04 09 13 53 27 .95      94     39      2    102    103  67.4   1.2  34022  287.23 0862.26
2015 04 09 13 53 28 .20     108     49     15    119    121  65.2   7.5  34034  287.45 0862.27
2015 04 09 13 53 28 .44     104     35     54    110    122  71.4  27.8  34056  287.82 0862.27
2015 04 09 13 53 28 .70     104     34     74    110    132  71.8  37.0  34068  288.03 0862.27
2015 04 09 13 53 28 .94     112     49     82    123    147  66.0  36.5  34024  287.28 0862.27
2015 04 09 13 53 29 .21     105     61     41    122    129  59.8  18.9  34024  287.28 0862.27
2015 04 09 13 53 29 .45     115     64     26    132    135  60.7  11.1  34020  287.20 0862.27
2015 04 09 13 53 29 .71     107     68     12    127    128  57.5   5.4  34024  287.28 0862.27
2015 04 09 13 53 29 .96     103     57      3    118    119  61.1   1.8  34052  287.76 0862.27
2015 04 09 13 53 30 .21     103     34    -11    109    110  71.4  -6.2  34062  287.91 0862.27
2015 04 09 13 53 30 .46      92     36    -21    100    103  68.3 -11.9  34058  287.84 0862.27
2015 04 09 13 53 30 .71      89     56    -17    106    108  57.6  -9.3  34000  286.88 0862.27
2015 04 09 13 53 30 .96      98     58     -6    115    116  59.3  -3.2  33992  286.73 0862.27
2015 04 09 13 53 31 .21     101     64    -15    120    121  57.5  -7.2  33996  286.79 0862.27
2015 04 09 13 53 31 .46      92     60    -22    111    114  56.7 -11.3  33994  286.78 0862.27
2015 04 09 13 53 31 .71      94     67    -32    116    121  54.5 -15.5  33994  286.78 0862.27
2015 04 09 13 53 31 .96      83     67    -41    107    114  50.9 -25.9  33996  286.79 0862.26
2015 04 09 13 53 32 .21      99     57    -50    115    125  59.8 -29.5  33996  286.79 0862.26
2015 04 09 13 53 32 .46     100     65    -43    120    127  57.1 -24.4  33998  286.83 0862.26
2015 04 09 13 53 32 .72     116     80    -50    141    150  55.4 -19.6  33998  286.83 0862.26
2015 04 09 13 53 32 .96     110     65    -30    128    132  59.3 -13.4  33996  286.79 0862.26
2015 04 09 13 53 33 .21      96     56    -31    112    117  59.8 -15.5  33996  286.79 0862.26
2015 04 09 13 53 33 .47      96     56    -31    112    117  59.8 -15.5  33996  286.79 0862.26
2015 04 09 13 53 33 .72     101     48    -25    112    115  64.6 -12.9  33996  286.79 0862.26
2015 04 09 13 53 33 .97     101     45    -14    111    112  66.0  -7.2  33994  286.78 0862.26
2015 04 09 13 53 34 .22      85     37    -28     93     98  66.5 -16.6  33994  286.78 0862.26
2015 04 09 13 53 34 .47      91     48    -21    104    107  62.0 -11.3  33996  286.81 0862.26
2015 04 09 13 53 34 .72      86     44    -19     97     99  62.9 -11.5  33996  286.81 0862.26
2015 04 09 13 53 34 .97      73     40    -23     84     88  61.1 -15.5  33996  286.79 0862.26
2015 04 09 13 53 35 .22      69     32    -22     77     81  64.8 -16.0  33998  286.83 0862.26
2015 04 09 13 53 35 .47      79     29    -30     85     90  69.6 -23.8  33998  286.83 0862.27
2015 04 09 13 53 35 .72      76     34    -25     84     87  66.0 -21.7  33998  286.83 0862.27
2015 04 09 13 53 35 .98      73     46    -28     87     91  58.0 -23.3  33998  286.84 0862.27
2015 04 09 13 53 36 .23      91     57    -39    108    114  57.6 -23.8  34000  286.88 0862.27
2015 04 09 13 53 36 .48      80     40    -34     90     96  62.9 -25.4  34000  286.88 0862.27
2015 04 09 13 53 36 .73     100     39    -49    108    118  68.3 -30.1  34000  286.86 0862.27
2015 04 09 13 53 36 .98      97     29    -45    102    111  73.2 -30.1  33996  286.79 0862.27
2015 04 09 13 53 37 .23     102     21    -36    105    112  78.1 -19.1  33996  286.79 0862.27
2015 04 09 13 53 37 .49      94     17    -34     96    103  79.4 -19.7  33992  286.74 0862.27
2015 04 09 13 53 37 .74     105     43    -31    114    119  67.4 -15.4  34002  286.89 0862.27
2015 04 09 13 53 37 .99     102     56    -23    117    120  61.1 -11.5  34002  286.91 0862.27
2015 04 09 13 53 38 .24     104     51    -22    117    120  63.8 -10.9  34004  286.93 0862.27
2015 04 09 13 53 38 .49     107     49    -11    118    119  65.2  -5.6  34000  286.88 0862.27
2015 04 09 13 53 38 .74     126     72      7    146    147  60.2   2.8  34000  286.88 0862.27
2015 04 09 13 53 38 .99     115     98      6    152    153  49.6   2.3  34000  286.88 0862.27
2015 04 09 13 53 39 .24     120    107      8    161    162  48.2   3.1  34000  286.88 0862.27
2015 04 09 13 53 39 .49     110     91    -15    143    144  50.4  -6.2  34000  286.88 0862.27
2015 04 09 13 53 39 .74     107    102    -16    149    150  46.4  -6.2  34000  286.86 0862.27
2015 04 09 13 53 39 .99     102     89    -17    136    138  49.1  -7.3  33998  286.83 0862.27
2015 04 09 13 53 40 .24      97     97    -22    138    140  45.1  -9.3  33998  286.83 0862.27
2015 04 09 13 53 40 .49      97     97    -38    138    144  45.2 -15.5  34000  286.88 0862.27
2015 04 09 13 53 40 .74      79     92    -45    122    130  40.5 -25.3  34004  286.94 0862.27
2015 04 09 13 53 40 .99      65     79    -43    103    111  39.7 -28.0  34006  286.98 0862.27
2015 04 09 13 53 41 .25      49     89    -36    102    109  29.0 -19.7  34000  286.88 0862.27
2015 04 09 13 53 41 .49      57    103      3    118    119  29.0   1.8  34002  286.91 0862.27
2015 04 09 13 53 41 .74      59     93    -18    111    113  32.6  -9.3  34002  286.89 0862.27
2015 04 09 13 53 41 .99      60     83    -28    103    107  36.0 -15.4  34004  286.93 0862.27
2015 04 09 13 53 42 .26      51     80    -26     96    100  32.6 -15.5  34000  286.88 0862.27
2015 04 09 13 53 42 .50      63     88    -34    109    114  35.6 -23.3  34004  286.93 0862.27
2015 04 09 13 53 42 .75      45     92    -28    103    107  26.3 -15.4  34000  286.88 0862.27
2015 04 09 13 53 43 .01      46     83    -19     96     98  29.0 -11.3  34002  286.91 0862.27
2015 04 09 13 53 43 .26      51     80    -33     95    101  32.6 -19.6  34006  286.96 0862.27
2015 04 09 13 53 43 .51      48     79    -27     93     96  31.6 -21.7  34008  287.01 0862.27
2015 04 09 13 53 43 .76      50     50    -39     71     81  45.0 -35.8  34010  287.03 0862.27
2015 04 09 13 53 44 .01      60     49    -43     78     89  50.4 -35.8  34010  287.03 0862.27
2015 04 09 13 53 44 .26      87     55    -34    104    109  57.6 -23.8  34006  286.98 0862.27
2015 04 09 13 53 44 .51     102     55    -34    116    120  61.6 -21.2  34004  286.93 0862.27
2015 04 09 13 53 44 .76      74     40    -32     85     90  61.6 -25.9  34006  286.96 0862.27
2015 04 09 13 53 45 .01      69     54    -32     88     93  52.2 -24.4  34008  287.00 0862.27
2015 04 09 13 53 45 .26      62     37    -30     73     78  59.3 -27.4  34010  287.03 0862.27
2015 04 09 13 53 45 .51      59      4    -34     60     68  85.6 -36.8  34010  287.03 0862.27
2015 04 09 13 53 45 .76      55     36    -15     66     68  56.7 -13.4  34006  286.98 0862.27
2015 04 09 13 53 46 .01      75     35    -29     84     89  64.7 -19.1  34008  287.01 0862.27
2015 04 09 13 53 46 .27      68     32    -21     76     79  64.8 -15.5  34006  286.98 0862.27
2015 04 09 13 53 46 .52      61     31     -8     69     70  62.9  -7.2  34008  287.01 0862.27
2015 04 09 13 53 46 .77      84     17    -22     86     89  78.1 -14.5  34006  286.96 0862.27
2015 04 09 13 53 47 .02      77     37    -14     86     88  64.2  -9.3  34002  286.91 0862.27
2015 04 09 13 53 47 .27      78     53      4     95     96  55.8   2.9  34004  286.93 0862.27
2015 04 09 13 53 47 .52      89     49    -10    102    103  61.2  -5.6  34002  286.91 0862.26
2015 04 09 13 53 47 .77      65     55    -12     86     87  49.6  -8.2  34002  286.89 0862.26
2015 04 09 13 53 48 .02      59     56    -11     82     83  46.9  -7.7  34004  286.93 0862.26
2015 04 09 13 53 48 .27      75     54    -11     93     94  54.0  -7.2  34004  286.93 0862.26
2015 04 09 13 53 48 .52      62     60    -28     87     92  46.0 -18.1  33998  286.84 0862.26
2015 04 09 13 53 48 .77      66     63    -63     92    111  46.0 -42.0  34008  287.01 0862.26
2015 04 09 13 53 49 .02      87     65    -70    109    129  53.1 -40.0  34010  287.03 0862.26
2015 04 09 13 53 49 .28      83     67    -60    107    122  50.9 -35.8  34016  287.13 0862.26
2015 04 09 13 53 49 .52      83     67    -53    107    119  50.9 -33.1  34020  287.21 0862.26
2015 04 09 13 53 49 .77      82     75    -35    112    117  47.3 -22.3  34020  287.20 0862.26
2015 04 09 13 53 50 .03      78     45    -43     91    100  60.2 -31.6  34020  287.20 0862.26
2015 04 09 13 53 50 .28      62     34    -52     71     88  61.2 -44.1  34012  287.08 0862.26
2015 04 09 13 53 50 .54      72     23    -70     76    103  71.8 -52.3  34042  287.57 0862.26
2015 04 09 13 53 50 .78      85     40    -43     95    104  64.7 -30.6  34080  288.21 0862.26
2015 04 09 13 53 51 .04      94     41    -28    103    107  66.0 -15.4  34078  288.20 0862.25
2015 04 09 13 53 51 .28     101     22    -28    104    108  77.6 -15.4  34066  287.99 0862.25
2015 04 09 13 53 51 .54      76     43    -23     88     92  60.2 -15.0  34066  287.99 0862.25
2015 04 09 13 53 51 .79      71     56    -21     91     94  51.4 -13.4  34054  287.79 0862.25
2015 04 09 13 53 52 .04      47     61     -3     78     79  37.8  -2.2  34056  287.81 0862.25
2015 04 09 13 53 52 .29      65     74     -3     99    100  41.4  -1.8  34058  287.84 0862.25
2015 04 09 13 53 52 .54      65     55    -14     86     88  50.0  -9.3  34056  287.81 0862.25
2015 04 09 13 53 52 .80      41     74    -23     85     89  29.0 -15.4  34096  288.50 0862.25
2015 04 09 13 53 53 .04      67     67    -12     95     96  45.1  -7.3  34094  288.47 0862.25
2015 04 09 13 53 53 .30      68     60    -23     91     95  48.7 -14.5  34080  288.23 0862.25
2015 04 09 13 53 53 .54      79     53     -6     96     97  55.8  -4.1  34090  288.38 0862.25
2015 04 09 13 53 53 .80      90     40     19     99    101  65.6  11.0  34128  289.04 0862.26
2015 04 09 13 53 54 .04     102     48     26    113    117  64.8  13.2  34094  288.47 0862.26
2015 04 09 13 53 54 .30      99     63      1    118    119  57.6   0.7  34092  288.43 0862.26
2015 04 09 13 53 54 .54      91     53     -5    106    107  59.8  -3.1  34102  288.58 0862.26
2015 04 09 13 53 54 .79      80     49      2     94     95  58.5   1.8  34108  288.69 0862.26
2015 04 09 13 53 55 .04      72     36      1     81     82  62.9   0.8  34102  288.58 0862.26
2015 04 09 13 53 55 .30      70     40     15     81     83  60.2  10.6  34112  288.77 0862.26
2015 04 09 13 53 55 .55      64     53     14     84     86  50.5   9.5  34122  288.92 0862.26
2015 04 09 13 53 55 .79      52     63     14     83     85  39.6  10.1  34150  289.41 0862.26
2015 04 09 13 53 56 .05      41     63     -3     76     77  33.4  -2.2  34140  289.23 0862.26
2015 04 09 13 53 56 .30      41     69     18     81     84  30.7  12.6  34148  289.38 0862.26
2015 04 09 13 53 56 .55      42     72     29     84     90  30.7  19.4  34156  289.50 0862.26
2015 04 09 13 53 56 .81      31     66     14     74     76  25.3  11.1  34090  288.40 0862.26
2015 04 09 13 53 57 .06      18     69     10     72     73  15.1   8.0  34046  287.64 0862.26
2015 04 09 13 53 57 .31      19     69     -2     72     73  16.0  -2.2  34040  287.54 0862.25
2015 04 09 13 53 57 .57      24     40     -9     47     48  31.6 -11.3  34050  287.72 0862.25
2015 04 09 13 53 57 .82      16     26    -37     31     48  32.5 -58.7  34088  288.35 0862.25
2015 04 09 13 53 58 .06       0     47    -20     48     52 359.1 -28.5  34068  288.01 0862.25
2015 04 09 13 53 58 .31     -11     55    -45     57     72 348.4 -48.1  34078  288.18 0862.25
2015 04 09 13 53 58 .57      16     26    -37     31     48  32.5 -58.7  34078  288.18 0862.25
2015 04 09 13 53 58 .81       5     -1    -34      6     34 108.4 -90.0  34060  287.89 0862.25
2015 04 09 13 53 59 .06      34      0    -32     35     47  90.9 -52.3  34018  287.18 0862.25
2015 04 09 13 53 59 .32      34     -4    -26     35     43  97.9 -45.1  34016  287.15 0862.25
2015 04 09 13 53 59 .57      34     11    -19     36     40  71.4 -34.7  34022  287.23 0862.25
2015 04 09 13 53 59 .81      36     11    -12     38     40  71.8 -17.6  34020  287.21 0862.25
2015 04 09 13 54 00 .06      35     21      1     42     43  58.5   1.8  34018  287.16 0862.25
2015 04 09 13 54 00 .32      23     46     10     52     53  27.2  11.0  34010  287.05 0862.25
2015 04 09 13 54 00 .57      28     55     -2     62     63  27.2  -2.2  34010  287.05 0862.25
2015 04 09 13 54 00 .82      45     55     -2     72     73  39.7  -2.2  34012  287.06 0862.25
2015 04 09 13 54 01 .07      30     75     -5     81     82  21.9  -4.1  34012  287.08 0862.25
2015 04 09 13 54 01 .32      35     81     -8     89     90  23.6  -5.6  34008  287.01 0862.25
2015 04 09 13 54 01 .57      59     67     -6     90     91  41.4  -4.1  34010  287.03 0862.25
2015 04 09 13 54 01 .82      76     28     28     82     87  69.6  18.9  34012  287.06 0862.25
2015 04 09 13 54 02 .07      84     26     21     88     91  72.7  13.7  34012  287.08 0862.25
2015 04 09 13 54 02 .33     100     48     22    112    115  64.2  11.1  34060  287.89 0862.25
2015 04 09 13 54 02 .57      89     41     27     99    103  65.2  15.3  34054  287.79 0862.25
2015 04 09 13 54 02 .82      73     88      9    115    116  39.6   4.9  34038  287.50 0862.25
2015 04 09 13 54 03 .08      81     76     15    112    114  46.9   8.0  34058  287.84 0862.25
2015 04 09 13 54 03 .33      89     89     15    127    128  45.1   7.1  34048  287.67 0862.25
2015 04 09 13 54 03 .58     107     91      9    141    142  49.6   3.8  34054  287.77 0862.25
2015 04 09 13 54 03 .84     115     90      7    147    148  51.8   2.8  34060  287.89 0862.25
2015 04 09 13 54 04 .08     101    101     12    144    145  45.1   4.9  34044  287.60 0862.25
2015 04 09 13 54 04 .34     107     95     12    144    145  48.6   4.9  34050  287.70 0862.25
2015 04 09 13 54 04 .59     100     74     11    125    126  53.6   5.4  34024  287.28 0862.25
2015 04 09 13 54 04 .84      88    100     13    134    135  41.5   5.9  34050  287.70 0862.25
2015 04 09 13 54 05 .09      82    120     -3    146    147  34.2  -1.3  34044  287.60 0862.25
2015 04 09 13 54 05 .34      90    120      0    151    152  37.0   0.2  34042  287.57 0862.25
2015 04 09 13 54 05 .59      80     99     10    128    129  38.7   4.9  34054  287.77 0862.25
2015 04 09 13 54 05 .84      63     98     25    117    120  32.6  12.2  34052  287.76 0862.25
2015 04 09 13 54 06 .09      65    101     19    121    123  32.6   8.9  34036  287.49 0862.25
2015 04 09 13 54 06 .35      68    107      1    128    129  32.5   0.7  34020  287.20 0862.25
2015 04 09 13 54 06 .60      55    116      7    129    130  25.5   3.3  34040  287.55 0862.25
2015 04 09 13 54 06 .85      76    119     22    142    144  32.5   9.0  34060  287.89 0862.25
2015 04 09 13 54 07 .10      90    122      0    152    153  36.5   0.2  34110  288.74 0862.25
2015 04 09 13 54 07 .34      88    132     -4    159    160  33.8  -1.6  34080  288.23 0862.25
2015 04 09 13 54 07 .60      59    127      3    141    142  24.9   1.2  34082  288.25 0862.25
2015 04 09 13 54 07 .85      39    119      6    126    127  18.3   2.8  34080  288.21 0862.25
2015 04 09 13 54 08 .10      30    120     10    124    125  14.3   5.0  34080  288.21 0862.25
2015 04 09 13 54 08 .34      16    120     12    122    123   8.0   5.9  34074  288.13 0862.26
2015 04 09 13 54 08 .60      19     97     35     99    106  11.1  19.4  34066  287.99 0862.26
2015 04 09 13 54 08 .85      57     85     14    103    105  33.8   8.0  34090  288.38 0862.26
2015 04 09 13 54 09 .10      85     82      4    119    120  46.0   2.3  34084  288.28 0862.26
2015 04 09 13 54 09 .35      73    108      5    131    132  34.3   2.3  34136  289.18 0862.26
2015 04 09 13 54 09 .61      86    111    -11    141    142  37.8  -4.6  34102  288.60 0862.26
2015 04 09 13 54 09 .85      76     88     45    117    125  40.5  22.0  34126  289.01 0862.26
2015 04 09 13 54 10 .10      84     85     44    120    127  44.7  21.0  34130  289.08 0862.26
2015 04 09 13 54 10 .35     105     93     61    141    153  48.6  25.1  34148  289.36 0862.26
2015 04 09 13 54 10 .60     105     57     54    120    131  61.1  26.2  34110  288.74 0862.26
2015 04 09 13 54 10 .86     109     48     30    120    124  66.0  14.3  34204  290.31 0862.26
2015 04 09 13 54 11 .11      90     27     41     95    103  73.2  24.6  34250  291.11 0862.26
2015 04 09 13 54 11 .36      70     23     34     74     81  71.4  26.2  34096  288.50 0862.26
2015 04 09 13 54 11 .61      60     53     18     81     84  48.2  12.6  34042  287.57 0862.26
2015 04 09 13 54 11 .87      56     53      4     78     79  46.8   3.3  34040  287.55 0862.26
2015 04 09 13 54 12 .12      43     46    -26     64     69  43.3 -27.4  34048  287.67 0862.26
2015 04 09 13 54 12 .37      32     41    -23     53     57  37.8 -29.5  34068  288.03 0862.26
2015 04 09 13 54 12 .61      37     50    -25     63     67  36.1 -27.4  34094  288.47 0862.26
2015 04 09 13 54 12 .86      49     54    -33     74     81  42.3 -30.1  34022  287.23 0862.26
2015 04 09 13 54 13 .11      60     46    -41     76     86  52.2 -35.2  34014  287.11 0862.26
2015 04 09 13 54 13 .36      65     44    -36     79     86  55.8 -30.1  34014  287.11 0862.26
2015 04 09 13 54 13 .61      66     42    -28     79     83  57.6 -23.8  34012  287.06 0862.26
2015 04 09 13 54 13 .87      80     49    -28     95     99  58.5 -21.2  34012  287.06 0862.26
2015 04 09 13 54 14 .12      79     53    -36     96    102  55.8 -25.9  34008  287.01 0862.26
2015 04 09 13 54 14 .37      84     62    -39    105    112  53.6 -25.4  34014  287.10 0862.26
2015 04 09 13 54 14 .62      76     57    -45     96    106  53.1 -31.5  34012  287.06 0862.26
2015 04 09 13 54 14 .87      64     62    -50     90    102  46.0 -35.8  34008  287.01 0862.26
2015 04 09 13 54 15 .12      62     51    -45     81     92  50.5 -35.8  34012  287.06 0862.26
2015 04 09 13 54 15 .37      60     46    -41     76     86  52.2 -35.2  34014  287.11 0862.26
2015 04 09 13 54 15 .62      57     36    -18     68     71  57.6 -15.5  34012  287.06 0862.26
2015 04 09 13 54 15 .87      63     34    -20     72     75  61.1 -15.5  34010  287.05 0862.26
2015 04 09 13 54 16 .12      46     46    -21     66     69  45.1 -23.8  34010  287.03 0862.26
2015 04 09 13 54 16 .37      39     56    -19     69     72  35.2 -15.4  34014  287.11 0862.26
2015 04 09 13 54 16 .62      49     60    -32     78     84  39.7 -27.4  34014  287.11 0862.26
2015 04 09 13 54 16 .87      69     45    -32     83     88  56.7 -25.9  34012  287.06 0862.26
2015 04 09 13 54 17 .12      68     36    -39     78     87  62.0 -32.6  34012  287.08 0862.26
2015 04 09 13 54 17 .37      70     23    -39     74     83  71.4 -34.2  34014  287.10 0862.26
2015 04 09 13 54 17 .64      58     25    -43     64     77  66.5 -40.0  34016  287.15 0862.26
2015 04 09 13 54 17 .89      64     -7    -24     65     69  97.0 -24.4  34008  287.01 0862.26
2015 04 09 13 54 18 .14      62    -20    -25     66     70 108.2 -26.4  34016  287.15 0862.26
2015 04 09 13 54 18 .39      34      2    -32     35     47  85.7 -52.3  34026  287.32 0862.26
2015 04 09 13 54 18 .64      45     13    -21     47     51  73.2 -30.6  34026  287.30 0862.26
2015 04 09 13 54 18 .89      25      9    -27     27     38  70.0 -54.5  34034  287.43 0862.26
2015 04 09 13 54 19 .14      38    -17    -17     42     45 114.4 -27.4  34022  287.25 0862.26
2015 04 09 13 54 19 .39      27    -14    -14     31     34 117.1 -29.5  34024  287.28 0862.26
2015 04 09 13 54 19 .64      29     24     -4     38     39  50.4  -7.3  34014  287.10 0862.26
2015 04 09 13 54 19 .89      27      0      0     28     29  90.8   0.8  34014  287.10 0862.26
2015 04 09 13 54 20 .14      54    -10    -25     55     60 100.6 -31.5  34016  287.15 0862.26
2015 04 09 13 54 20 .39      59      0    -34     60     68  90.0 -36.8  34016  287.15 0862.26
2015 04 09 13 54 20 .65      79    -11    -28     80     86  98.4 -19.7  34016  287.15 0862.26
2015 04 09 13 54 20 .89      91      1    -39     92     99  89.2 -28.5  34022  287.25 0862.26
2015 04 09 13 54 21 .15      84     13    -25     86     89  80.8 -21.2  34022  287.25 0862.26
2015 04 09 13 54 21 .40      62      0    -17     63     66  89.2 -15.4  34020  287.20 0862.26
2015 04 09 13 54 21 .65      58     -7      3     59     60  97.0   2.9  34020  287.20 0862.26
2015 04 09 13 54 21 .90      61    -12     -2     63     64 101.5  -2.2  34022  287.25 0862.26
2015 04 09 13 54 22 .15      57    -31     25     66     70 118.8  22.0  34026  287.32 0862.26
2015 04 09 13 54 22 .40      43    -15     34     46     57 110.0  40.7  34038  287.50 0862.26
2015 04 09 13 54 22 .65      36     -7     43     37     56 101.5  54.3  34042  287.59 0862.26
2015 04 09 13 54 22 .90      29     -5     36     30     46  99.7  55.4  34058  287.84 0862.26
2015 04 09 13 54 23 .15      10      0     32     11     33  85.6  81.0  34092  288.42 0862.26
2015 04 09 13 54 23 .40      -2      0     30      3     30 251.6  90.0  34112  288.77 0862.26
2015 04 09 13 54 23 .65      -7      6     25     10     26 309.5  79.2  34100  288.55 0862.26
2015 04 09 13 54 23 .90       0      5     34      6     34 357.3  90.0  34090  288.40 0862.26
2015 04 09 13 54 24 .15      -5      9     27     11     29 327.5  79.2  34086  288.31 0862.26
2015 04 09 13 54 24 .40      -8     12     32     15     35 327.5  72.9  34098  288.53 0862.26
2015 04 09 13 54 24 .67     -15     16     38     23     44 316.8  66.8  34084  288.28 0862.26
2015 04 09 13 54 24 .91      -1     18     32     19     37 355.6  64.7  34066  287.99 0862.26
2015 04 09 13 54 25 .16       2     27     16     28     32   4.4  33.5  34044  287.60 0862.26
2015 04 09 13 54 25 .42       3     31     31     32     44   6.2  51.1  34058  287.84 0862.26
2015 04 09 13 54 25 .66     -24     50     30     56     63 334.6  31.3  34036  287.49 0862.26
2015 04 09 13 54 25 .92     -16     46     23     49     54 340.0  27.1  34066  287.99 0862.26
2015 04 09 13 54 26 .17      -7     63     25     64     68 352.9  21.0  34102  288.60 0862.26
2015 04 09 13 54 26 .42      -5     70     34     71     78 355.6  27.2  34100  288.55 0862.26
2015 04 09 13 54 26 .67     -15     45     37     48     60 340.8  41.7  34120  288.89 0862.26
2015 04 09 13 54 26 .92     -21     21     32     30     43 315.0  50.1  34130  289.06 0862.26
2015 04 09 13 54 27 .18     -26     56     42     62     74 334.6  36.5  34158  289.53 0862.26
2015 04 09 13 54 27 .42     -22     55     45     60     75 338.2  39.7  34180  289.92 0862.26
2015 04 09 13 54 27 .67       3     54     37     55     66   3.6  36.5  34164  289.65 0862.26
2015 04 09 13 54 27 .92      -1     57     36     58     68 358.2  35.5  34136  289.18 0862.26
2015 04 09 13 54 28 .17      -7     46     38     47     60 350.2  43.7  34140  289.24 0862.26
2015 04 09 13 54 28 .42      -5     69     55     70     89 355.5  42.7  34110  288.74 0862.26
2015 04 09 13 54 28 .68     -14     91     32     93     99 351.1  19.2  34104  288.64 0862.26
2015 04 09 13 54 28 .93     -16     86     15     88     90 349.3  10.1  34128  289.04 0862.26
2015 04 09 13 54 29 .18     -25     54      6     60     61 334.7   5.9  34158  289.53 0862.26
2015 04 09 13 54 29 .43     -32     50     41     60     72 327.4  37.6  34168  289.70 0862.26
2015 04 09 13 54 29 .68     -40     54     48     68     83 323.9  39.1  34176  289.84 0862.26
2015 04 09 13 54 29 .93     -43     59     65     74     98 323.9  46.4  34208  290.38 0862.26
2015 04 09 13 54 30 .17     -65     37     40     75     85 299.8  30.3  34220  290.58 0862.26
2015 04 09 13 54 30 .43     -47     16     48     50     69 289.1  50.0  34150  289.41 0862.26
2015 04 09 13 54 30 .68      -5     24     -1     25     26 346.6  -2.2  34168  289.72 0862.26
2015 04 09 13 54 30 .93     -62     29      3     69     70 295.2   2.8  34126  289.01 0862.26
2015 04 09 13 54 31 .18     -41     64     10     77     78 327.4   7.5  34042  287.59 0862.26
2015 04 09 13 54 31 .43     -68     79     81    105    132 319.5  41.7  34086  288.31 0862.26
2015 04 09 13 54 31 .69     -69     57     26     90     94 309.6  16.3  34074  288.13 0862.26
2015 04 09 13 54 31 .94     -43     74     33     86     92 329.7  21.5  34096  288.48 0862.26
2015 04 09 13 54 32 .20     -37     89     13     97     98 337.3   8.0  34110  288.72 0862.26
2015 04 09 13 54 32 .44     -47    131    -10    140    141 340.0  -4.1  34122  288.94 0862.26
2015 04 09 13 54 32 .69     -52    131    -15    142    143 338.2  -6.2  34042  287.59 0862.26
2015 04 09 13 54 32 .95     -33    181     50    185    192 349.5  15.3  34080  288.21 0862.26
2015 04 09 13 54 33 .20     -52    213     -4    220    221 346.2  -1.3  34190  290.09 0862.26
2015 04 09 13 54 33 .44     -67    185     93    197    217 340.0  27.2  34206  290.36 0862.26
2015 04 09 13 54 33 .70     -62    319     93    326    340 348.9  16.0  34208  290.37 0862.26
2015 04 09 13 54 33 .95     -59    275     88    282    296 347.7  17.4  34264  291.33 0862.26
2015 04 09 13 54 34 .19     -71    245     12    256    257 343.9   2.8  34230  290.75 0862.26
2015 04 09 13 54 34 .45     -28    275    -40    277    280 354.0  -8.3  34184  289.97 0862.26
2015 04 09 13 54 34 .70      60    314    -58    320    326  10.9 -10.4  34224  290.65 0862.26
2015 04 09 13 54 34 .95      49    275    -10    280    281  10.2  -2.2  34250  291.10 0862.26
2015 04 09 13 54 35 .20     160    170    -34    234    237  43.2  -8.3  34194  290.14 0862.26
2015 04 09 13 54 35 .46     199    160    -10    256    257  51.3  -2.2  34144  289.29 0862.25
2015 04 09 13 54 35 .70     132    231    -33    267    270  29.8  -7.2  34194  290.15 0862.25
2015 04 09 13 54 35 .95     191    277    -22    337    338  34.6  -3.8  34244  291.01 0862.25
2015 04 09 13 54 36 .20     170    249    -44    302    306  34.3  -8.3  34148  289.37 0862.25
2015 04 09 13 54 36 .46     159    180    -26    241    243  41.4  -6.2  34166  289.68 0862.25
2015 04 09 13 54 36 .70     159    159     -8    225    226  45.0  -2.2  34180  289.92 0862.25
2015 04 09 13 54 36 .96     155    170     11    231    232  42.3   2.8  34182  289.96 0862.25
2015 04 09 13 54 37 .21     110    226      9    252    253  25.9   2.1  34068  288.02 0862.25
2015 04 09 13 54 37 .45      69    281     56    290    296  13.8  11.0  34066  287.99 0862.25
2015 04 09 13 54 37 .71     103    313    -12    330    331  18.3  -2.2  34026  287.32 0862.25
2015 04 09 13 54 37 .95     114    327     11    347    348  19.3   1.9  34020  287.20 0862.25
2015 04 09 13 54 38 .21     122    306      4    330    331  21.8   0.8  34044  287.61 0862.25
2015 04 09 13 54 38 .46      81    302     34    313    315  15.1   6.4  34116  288.81 0862.25
2015 04 09 13 54 38 .72      46    326     86    330    342   8.1  14.7  34118  288.86 0862.25
2015 04 09 13 54 38 .97      88    289     73    303    312  16.9  13.7  34134  289.14 0862.25
2015 04 09 13 54 39 .22     144    252    120    291    314  29.8  23.7  34174  289.81 0862.25
2015 04 09 13 54 39 .47     152    199     89    251    267  37.4  19.6  34206  290.34 0862.25
2015 04 09 13 54 39 .72     178    135     82    224    238  52.9  21.0  34236  290.87 0862.25
2015 04 09 13 54 39 .97     155    214    104    265    284  36.0  22.5  34274  291.51 0862.26
2015 04 09 13 54 40 .21     141    149     73    206    218  43.3  20.2  34190  290.08 0862.26
2015 04 09 13 54 40 .48     177    185     49    257    262  43.7  10.8  34092  288.43 0862.26
2015 04 09 13 54 40 .72     159    261     14    306    307  31.4   2.8  33994  286.77 0862.26
2015 04 09 13 54 40 .97     144    251      4    290    291  29.8   0.8  33998  286.84 0862.26
2015 04 09 13 54 41 .23     176    251     14    307    308  35.0   2.8  34046  287.63 0862.26
2015 04 09 13 54 41 .47     168    289     -6    335    336  30.2  -1.2  33984  286.59 0862.26
2015 04 09 13 54 41 .73     169    310    -15    354    355  28.6  -2.5  34000  286.86 0862.26
2015 04 09 13 54 41 .97     172    316    -16    360    361  28.6  -2.7  34004  286.93 0862.26
2015 04 09 13 54 42 .22     168    306      1    350    351  28.8   0.2  33978  286.51 0862.26
2015 04 09 13 54 42 .47     158    303      1    342    343  27.6   0.2  33978  286.48 0862.26
2015 04 09 13 54 42 .73     163    302     -1    344    345  28.3  -0.2  34010  287.05 0862.26
2015 04 09 13 54 42 .98     176    297     17    346    347  30.6   2.9  34080  288.23 0862.26
2015 04 09 13 54 43 .22     172    290     35    338    340  30.7   6.1  34064  287.94 0862.26
2015 04 09 13 54 43 .48     185    255     23    316    317  36.0   4.2  34098  288.53 0862.26
2015 04 09 13 54 43 .73     181    270      6    326    327  33.8   1.1  34122  288.93 0862.26
2015 04 09 13 54 43 .98     209    281     20    351    352  36.6   3.3  34128  289.04 0862.26
2015 04 09 13 54 44 .23     197    254     37    322    325  37.8   6.6  34110  288.71 0862.26
2015 04 09 13 54 44 .48     255    261     23    365    366  44.3   3.7  34130  289.08 0862.26
2015 04 09 13 54 44 .73     251    242     12    349    350  46.1   2.1  34142  289.28 0862.26
2015 04 09 13 54 44 .98     216    223    -26    311    313  44.1  -4.8  33972  286.40 0862.26
2015 04 09 13 54 45 .23     210    213    -31    300    302  44.5  -6.1  33972  286.40 0862.26
2015 04 09 13 54 45 .50     203    209    -48    292    296  44.1  -9.3  33998  286.82 0862.26
2015 04 09 13 54 45 .74     149    157     -8    217    218  43.4  -2.2  34058  287.84 0862.26
2015 04 09 13 54 45 .99     201    122     29    236    238  58.7   7.1  34076  288.15 0862.26
2015 04 09 13 54 46 .25     199    138     25    243    245  55.1   5.9  34102  288.58 0862.26
2015 04 09 13 54 46 .49     233    158    -36    282    285  55.9  -7.3  34082  288.24 0862.26
2015 04 09 13 54 46 .74     192    122     -8    228    229  57.6  -2.2  34002  286.91 0862.26
2015 04 09 13 54 46 .99     188    141    -25    236    238  53.1  -6.2  33986  286.63 0862.26
2015 04 09 13 54 47 .25     186    153    -17    242    243  50.5  -4.1  34066  287.97 0862.26
2015 04 09 13 54 47 .50     191    157     -1    248    249  50.5  -0.3  34064  287.93 0862.26
2015 04 09 13 54 47 .74     200    142     -3    246    247  54.5  -0.7  34024  287.28 0862.26
2015 04 09 13 54 48 .00     199    131    -31    239    242  56.5  -7.5  33986  286.63 0862.26
2015 04 09 13 54 48 .25     172    103     21    201    203  58.9   6.1  34074  288.13 0862.26
2015 04 09 13 54 48 .50     178    120      0    215    216  55.9   0.2  34026  287.30 0862.26
2015 04 09 13 54 48 .75     192    116    -21    225    227  58.7  -5.4  34016  287.15 0862.26
2015 04 09 13 54 49 .00     189    148     -9    241    242  52.0  -2.2  33976  286.47 0862.26
2015 04 09 13 54 49 .26     201    142      3    247    248  54.7   0.8  34020  287.19 0862.26
2015 04 09 13 54 49 .51     218    141      8    260    261  57.1   1.8  34010  287.04 0862.26
2015 04 09 13 54 49 .75     205    130     11    243    244  57.6   2.8  34058  287.85 0862.26
2015 04 09 13 54 50 .00     184    152    -13    239    240  50.4  -3.2  34010  287.02 0862.26
2015 04 09 13 54 50 .25     171    150     -5    228    229  48.7  -1.3  34006  286.96 0862.26
2015 04 09 13 54 50 .50     170    140    -18    221    222  50.7  -4.9  34002  286.91 0862.26
2015 04 09 13 54 50 .75     182    135    -12    227    228  53.4  -3.2  34000  286.86 0862.26
2015 04 09 13 54 51 .01     192    130     -9    233    234  55.9  -2.2  34004  286.92 0862.26
2015 04 09 13 54 51 .25     193    155    -17    248    249  51.3  -4.1  34008  287.01 0862.26
2015 04 09 13 54 51 .51     191    152      0    245    246  51.4   0.0  34004  286.94 0862.26
2015 04 09 13 54 51 .76     163    153      1    224    225  46.9   0.5  34004  286.94 0862.26
2015 04 09 13 54 52 .01     185    150     18    239    240  50.9   4.4  34008  287.01 0862.26
2015 04 09 13 54 52 .25     174    130     12    218    219  53.1   3.3  34002  286.91 0862.26
2015 04 09 13 54 52 .52     176    126     42    217    222  54.3  11.0  33990  286.71 0862.26
2015 04 09 13 54 52 .77     181    134     21    226    228  53.6   5.4  33986  286.62 0862.26
2015 04 09 13 54 53 .03     170    160      4    234    235  46.8   1.2  34008  287.01 0862.26
2015 04 09 13 54 53 .27     148    147     19    209    210  45.2   5.4  34028  287.33 0862.26
2015 04 09 13 54 53 .53     164    155     26    226    228  46.7   6.7  34084  288.28 0862.26
2015 04 09 13 54 53 .77     178    173     35    249    252  45.8   8.0  34114  288.78 0862.26
2015 04 09 13 54 54 .02     173    172     32    245    248  45.1   7.5  34050  287.71 0862.26
2015 04 09 13 54 54 .27     160    160     18    227    228  45.1   4.6  34026  287.30 0862.25
2015 04 09 13 54 54 .53     158    161     13    226    227  44.5   3.3  34106  288.67 0862.25
2015 04 09 13 54 54 .78     162    169     34    235    238  43.7   8.2  34144  289.31 0862.25
2015 04 09 13 54 55 .02     143    171     21    223    225  39.9   5.4  34056  287.82 0862.25
2015 04 09 13 54 55 .27     164    160    -10    230    231  45.6  -2.6  34010  287.05 0862.25
2015 04 09 13 54 55 .53     160    182      2    243    244  41.4   0.5  34018  287.16 0862.25
2015 04 09 13 54 55 .78     156    189     12    246    247  39.6   2.8  34020  287.21 0862.25
2015 04 09 13 54 56 .02     171    175     27    245    247  44.3   6.5  34020  287.21 0862.25
2015 04 09 13 54 56 .28     122    206    -13    240    241  30.7  -3.3  34016  287.14 0862.25
2015 04 09 13 54 56 .53     150    198     -2    249    250  37.2  -0.5  34020  287.19 0862.25
2015 04 09 13 54 56 .78     142    194     -8    241    242  36.1  -2.1  34024  287.26 0862.25
2015 04 09 13 54 57 .03     149    180    -13    235    236  39.6  -3.3  34018  287.17 0862.25
2015 04 09 13 54 57 .28     143    154     15    211    212  43.0   4.2  34050  287.70 0862.25
2015 04 09 13 54 57 .53     130    162      9    208    209  38.7   2.5  34044  287.62 0862.25
2015 04 09 13 54 57 .78     124    152     -4    197    198  39.2  -1.3  34040  287.55 0862.25
2015 04 09 13 54 58 .03     115    170    -26    206    208  34.1  -7.2  34038  287.52 0862.25
2015 04 09 13 54 58 .28     104    138    -20    174    176  37.0  -6.7  34042  287.57 0862.25
2015 04 09 13 54 58 .53     114    127    -11    171    172  41.9  -3.7  34036  287.49 0862.25
2015 04 09 13 54 58 .79     109     90     17    142    144  50.4   6.9  34056  287.82 0862.25
2015 04 09 13 54 59 .03      63    133     74    148    165  25.5  28.7  34140  289.24 0862.25
2015 04 09 13 54 59 .28      94    168     23    193    195  29.4   6.9  34052  287.74 0862.25
2015 04 09 13 54 59 .54      83    207     11    224    225  21.9   2.9  34038  287.52 0862.25
2015 04 09 13 54 59 .79      67    201    -11    213    214  18.5  -3.1  34048  287.67 0862.25
2015 04 09 13 55 00 .05      79    207    -34    222    225  20.9  -8.8  34012  287.06 0862.25
2015 04 09 13 55 00 .30      62    186    -25    197    199  18.5  -7.3  34008  287.00 0862.25
2015 04 09 13 55 00 .54      52    219     11    226    227  13.4   2.8  34052  287.76 0862.26
2015 04 09 13 55 00 .80      65    206      0    217    218  17.6   0.0  34050  287.70 0862.26
2015 04 09 13 55 01 .04      58    192     -7    201    202  16.9  -2.2  34000  286.88 0862.26
2015 04 09 13 55 01 .30      44    176    -13    182    183  14.0  -4.1  33996  286.81 0862.26
2015 04 09 13 55 01 .55      45    172    -16    178    179  14.7  -5.2  33990  286.69 0862.26
2015 04 09 13 55 01 .81      42    177    -10    183    184  13.6  -3.3  34040  287.54 0862.26
2015 04 09 13 55 02 .05      20    194      5    196    197   6.0   1.6  34062  287.92 0862.26
2015 04 09 13 55 02 .30      45    182     -5    188    189  14.0  -1.6  34006  286.96 0862.26
2015 04 09 13 55 02 .56      64    194     -9    205    206  18.5  -2.6  34042  287.57 0862.26
2015 04 09 13 55 02 .80      53    185      9    193    194  16.0   2.9  34082  288.25 0862.26
2015 04 09 13 55 03 .06      38    189     27    194    196  11.6   8.0  34096  288.50 0862.26
2015 04 09 13 55 03 .30      52    195     39    202    206  15.1  11.1  34098  288.53 0862.26
2015 04 09 13 55 03 .55      48    160      0    168    169  16.9  -0.3  34080  288.21 0862.26
2015 04 09 13 55 03 .81      75    167     35    184    188  24.3  10.8  34088  288.36 0862.26
2015 04 09 13 55 04 .05      83    141     35    164    168  30.7  12.2  34066  287.99 0862.26
2015 04 09 13 55 04 .30      68    130     21    147    149  27.6   8.5  34066  287.99 0862.26
2015 04 09 13 55 04 .55      77    114     16    138    140  34.3   6.9  34064  287.94 0862.26
2015 04 09 13 55 04 .81      88    139     17    165    166  32.5   5.9  34096  288.50 0862.26
2015 04 09 13 55 05 .05      93    130     31    160    164  35.6  11.1  34112  288.75 0862.26
2015 04 09 13 55 05 .30      90    123     17    153    154  36.1   6.5  34092  288.42 0862.26
2015 04 09 13 55 05 .57     106    113     39    156    162  43.2  14.3  34084  288.28 0862.26
2015 04 09 13 55 05 .80     138    108     13    176    177  52.0   4.2  34066  287.99 0862.26
2015 04 09 13 55 06 .06     121     77     28    144    147  57.5  11.1  34056  287.81 0862.26
2015 04 09 13 55 06 .33     120     90     25    151    154  53.1   9.5  34086  288.31 0862.26
2015 04 09 13 55 06 .57     110     74     31    133    137  55.8  13.2  34118  288.86 0862.26
2015 04 09 13 55 06 .82      87     68     21    111    114  51.8  11.1  34098  288.53 0862.26
2015 04 09 13 55 07 .07      65     44     63     79    101  55.8  43.3  34104  288.64 0862.25
2015 04 09 13 55 07 .33      78     73     71    107    128  46.9  36.5  34116  288.82 0862.25
2015 04 09 13 55 07 .57     108    103     41    150    156  46.4  15.3  34164  289.65 0862.25
2015 04 09 13 55 07 .82     120     90     42    151    157  53.1  15.6  34146  289.33 0862.25
2015 04 09 13 55 08 .08      99    109     66    148    162  42.3  25.7  34174  289.80 0862.25
2015 04 09 13 55 08 .32      91    141     31    169    172  33.0  10.6  34140  289.23 0862.25
2015 04 09 13 55 08 .58      99    109     66    148    162  42.3  25.7  34188  290.06 0862.25
2015 04 09 13 55 08 .82     103    144     35    178    182  35.6  11.1  34034  287.45 0862.25
2015 04 09 13 55 09 .08     110    126     33    168    172  41.0  11.1  34106  288.67 0862.25
2015 04 09 13 55 09 .32     123    149      0    194    195  39.4   0.2  33992  286.74 0862.25
2015 04 09 13 55 09 .58     126    130     -1    182    183  44.1  -0.5  33992  286.73 0862.25
2015 04 09 13 55 09 .83     125    136     -5    185    186  42.5  -1.6  33992  286.74 0862.25
2015 04 09 13 55 10 .08     132    135     -7    190    191  44.3  -2.3  34000  286.86 0862.25
2015 04 09 13 55 10 .33     127    111    -12    169    170  48.7  -4.4  34002  286.89 0862.25
2015 04 09 13 55 10 .58     119    110     16    163    164  47.3   5.9  34024  287.28 0862.25
2015 04 09 13 55 10 .83     126    104      8    164    165  50.5   2.9  34022  287.25 0862.25
2015 04 09 13 55 11 .08     113    124     43    169    175  42.3  14.5  34024  287.28 0862.25
2015 04 09 13 55 11 .33     108    153     30    188    191  35.4   9.3  34062  287.92 0862.25
2015 04 09 13 55 11 .58     101    148     17    180    181  34.3   5.4  34050  287.70 0862.25
2015 04 09 13 55 11 .84     117    145     37    187    191  39.0  11.4  34096  288.50 0862.25
2015 04 09 13 55 12 .08     119    144      7    187    188  39.6   2.3  34020  287.21 0862.25
2015 04 09 13 55 12 .33     117    141      3    184    185  39.6   1.2  34016  287.15 0862.25
2015 04 09 13 55 12 .58     128    143     -7    193    194  41.9  -2.1  34008  287.00 0862.25
2015 04 09 13 55 12 .83     142    137     -7    198    199  46.0  -2.1  34016  287.15 0862.25
2015 04 09 13 55 13 .08     162    131      8    209    210  50.9   2.3  34016  287.15 0862.25
2015 04 09 13 55 13 .35     163    150     -6    222    223  47.3  -1.8  34044  287.62 0862.25
2015 04 09 13 55 13 .60      92    174    -32    197    200  27.9  -9.4  34036  287.49 0862.25
2015 04 09 13 55 13 .85     124    171    -63    212    221  36.1 -21.5  34034  287.43 0862.25
2015 04 09 13 55 14 .10     144    152    -51    210    217  43.4 -13.7  34054  287.79 0862.25
2015 04 09 13 55 14 .35     161    171    -29    236    238  43.3  -7.2  34054  287.77 0862.25
2015 04 09 13 55 14 .60     108    198      0    226    227  28.7   0.0  34056  287.81 0862.25
2015 04 09 13 55 14 .85     126    174     11    216    217  36.0   3.1  34048  287.67 0862.25
2015 04 09 13 55 15 .10      52    170     32    178    181  17.2  10.3  34066  287.98 0862.25
2015 04 09 13 55 15 .35      79    183     24    200    202  23.4   6.9  34064  287.96 0862.25
2015 04 09 13 55 15 .61      73    225    -21    237    238  18.0  -5.1  34106  288.65 0862.25
2015 04 09 13 55 15 .85      57    212     -6    220    221  15.2  -1.8  34124  288.96 0862.25
2015 04 09 13 55 16 .10     115    245    -28    271    273  25.3  -6.0  34122  288.93 0862.25
2015 04 09 13 55 16 .35      82    167     22    187    189  26.1   6.9  34122  288.92 0862.25
2015 04 09 13 55 16 .60      31    221    -16    224    225   8.1  -4.1  34118  288.87 0862.25
2015 04 09 13 55 16 .86      79    187     -8    204    205  22.9  -2.3  34126  289.01 0862.25
2015 04 09 13 55 17 .11      37    168     48    173    180  12.7  15.8  34122  288.94 0862.25
2015 04 09 13 55 17 .36      71    170     37    185    189  22.7  11.4  34126  288.99 0862.25
2015 04 09 13 55 17 .61      83    192     50    210    216  23.4  13.5  34124  288.96 0862.25
2015 04 09 13 55 17 .86      73    203     59    216    224  20.0  15.3  34146  289.35 0862.25
2015 04 09 13 55 18 .11      24    202     48    204    210   6.9  13.2  34226  290.70 0862.25
2015 04 09 13 55 18 .36      18    231     79    232    246   4.5  18.9  34344  292.70 0862.25
2015 04 09 13 55 18 .60      11    260     71    261    271   2.5  15.2  34192  290.12 0862.25
2015 04 09 13 55 18 .86      35    252     19    255    256   8.0   4.4  34048  287.66 0862.25
2015 04 09 13 55 19 .11      52    200     24    207    209  14.7   6.7  34070  288.06 0862.25
2015 04 09 13 55 19 .36      29    194     75    197    210   8.5  21.7  34196  290.18 0862.25
2015 04 09 13 55 19 .61      33    205     73    208    221   9.3  19.4  34160  289.58 0862.25
2015 04 09 13 55 19 .86      49    206     45    212    217  13.4  12.0  34006  286.98 0862.25
2015 04 09 13 55 20 .11      52    202     40    209    213  14.7  11.0  34016  287.15 0862.25
2015 04 09 13 55 20 .37      59    204     40    213    217  16.3  10.8  34016  287.15 0862.25
2015 04 09 13 55 20 .62      53    203     57    210    218  14.7  15.3  34010  287.03 0862.25
2015 04 09 13 55 20 .87      42    210     68    215    226  11.5  17.7  34018  287.18 0862.25
2015 04 09 13 55 21 .13      53    223     65    230    240  13.4  15.8  34106  288.66 0862.25
2015 04 09 13 55 21 .38     103    192     49    219    225  28.3  12.6  34142  289.26 0862.25
2015 04 09 13 55 21 .62      93    201     43    222    227  24.9  11.1  34144  289.30 0862.25
2015 04 09 13 55 21 .88     123    169     32    210    213  36.1   8.8  34138  289.19 0862.25
2015 04 09 13 55 22 .13     141    148     25    205    207  43.7   7.1  34126  288.99 0862.25
2015 04 09 13 55 22 .38     113    148     41    187    192  37.2  12.6  34174  289.80 0862.25
2015 04 09 13 55 22 .62     139    163     10    215    216  40.3   2.9  34078  288.18 0862.25
2015 04 09 13 55 22 .88     125    163    -24    206    208  37.6  -6.7  34000  286.86 0862.25
2015 04 09 13 55 23 .13      94    130    -28    161    164  36.0 -10.1  34036  287.47 0862.25
2015 04 09 13 55 23 .38      87    121     30    150    154  35.6  11.6  34098  288.53 0862.25
2015 04 09 13 55 23 .63     128    170     38    214    218  37.0  10.1  34180  289.91 0862.25
2015 04 09 13 55 23 .88     140    169     12    220    221  39.7   3.3  34084  288.30 0862.25
2015 04 09 13 55 24 .13     114    155      1    193    194  36.5   0.5  34084  288.30 0862.26
2015 04 09 13 55 24 .38     113    151    -20    189    191  36.7  -6.2  34014  287.10 0862.26
2015 04 09 13 55 24 .63     138    152    -11    206    207  42.3  -3.1  34004  286.93 0862.26
2015 04 09 13 55 24 .88     146    146     -1    207    208  45.1  -0.5  34022  287.25 0862.26
2015 04 09 13 55 25 .13     140    134     12    194    195  46.2   3.6  33998  286.83 0862.26
2015 04 09 13 55 25 .38     142    145     23    204    206  44.3   6.5  34004  286.93 0862.26
2015 04 09 13 55 25 .64     140    193     12    239    240  36.1   2.9  34046  287.65 0862.26
2015 04 09 13 55 25 .88     130    162      9    208    209  38.7   2.5  34044  287.62 0862.26
2015 04 09 13 55 26 .13     126    174     11    216    217  36.0   2.9  34038  287.52 0862.25
2015 04 09 13 55 26 .39     141    196    -16    242    243  35.8  -3.9  34042  287.58 0862.25
2015 04 09 13 55 26 .63     156    192    -22    248    250  39.0  -5.1  34018  287.16 0862.25
2015 04 09 13 55 26 .89     165    199    -28    259    261  39.6  -6.2  34004  286.94 0862.25
2015 04 09 13 55 27 .14     172    180    -12    250    251  43.7  -2.8  34046  287.65 0862.25
2015 04 09 13 55 27 .39     154    128      8    201    202  50.4   2.5  34048  287.69 0862.25
2015 04 09 13 55 27 .65     147    127     33    195    198  49.1   9.9  34072  288.09 0862.25
2015 04 09 13 55 27 .89     140    140     20    199    201  45.0   5.9  34056  287.81 0862.26
2015 04 09 13 55 28 .15     124    143     33    190    193  41.0   9.9  34066  287.98 0862.26
2015 04 09 13 55 28 .40     179    149     38    233    237  50.2   9.3  33998  286.84 0862.26
2015 04 09 13 55 28 .65     169    140     27    220    222  50.2   7.1  34004  286.93 0862.26
2015 04 09 13 55 28 .90     152    124      5    197    198  50.7   1.6  34002  286.91 0862.26
2015 04 09 13 55 29 .17     127    127    -11    180    181  44.9  -3.7  34002  286.89 0862.26
2015 04 09 13 55 29 .40     132    106      1    170    171  51.1   0.5  33992  286.74 0862.26
2015 04 09 13 55 29 .65     122    124     -6    174    175  44.5  -2.1  34000  286.88 0862.26
2015 04 09 13 55 29 .90     130    126     18    182    183  45.8   5.9  34000  286.88 0862.26
2015 04 09 13 55 30 .16     159    132     32    207    210  50.2   9.0  33998  286.83 0862.26
2015 04 09 13 55 30 .40     156    146     22    214    216  46.9   6.1  34008  287.00 0862.26
2015 04 09 13 55 30 .66      91    171     12    194    195  28.1   3.6  34010  287.03 0862.26
2015 04 09 13 55 30 .91      63    165     -6    177    178  21.2  -2.1  34014  287.10 0862.26
2015 04 09 13 55 31 .15      41    163     -6    169    170  14.3  -2.2  34018  287.16 0862.26
2015 04 09 13 55 31 .41      50    152      7    161    162  18.3   2.8  34030  287.38 0862.26
2015 04 09 13 55 31 .66      95    184     24    208    210  27.4   6.7  34060  287.89 0862.26
2015 04 09 13 55 31 .91      79    198     20    214    216  21.8   5.4  34082  288.25 0862.26
2015 04 09 13 55 32 .16      86    215     38    232    236  21.9   9.5  34106  288.65 0862.26
2015 04 09 13 55 32 .42     106    197     48    224    230  28.3  12.2  34082  288.26 0862.26
2015 04 09 13 55 32 .66      89    171     36    193    197  27.6  10.6  34120  288.91 0862.26
2015 04 09 13 55 32 .91     114    158     35    195    199  35.8  10.3  34114  288.80 0862.26
2015 04 09 13 55 33 .16      93    151     48    178    185  31.6  15.2  34094  288.47 0862.26
2015 04 09 13 55 33 .42      91    147     22    174    176  31.9   7.2  34112  288.77 0862.26
2015 04 09 13 55 33 .66      50    185     62    192    202  15.4  17.9  34228  290.74 0862.26
2015 04 09 13 55 33 .91       1    170     57    171    181   0.5  18.4  34080  288.21 0862.26
2015 04 09 13 55 34 .17      25    188     12    190    191   7.8   3.8  34004  286.93 0862.26
2015 04 09 13 55 34 .43      52    170     11    179    180  17.2   3.8  34018  287.16 0862.26
2015 04 09 13 55 34 .68      69    169      2    183    184  22.5   0.8  34006  286.96 0862.26
2015 04 09 13 55 34 .92      49    170     14    178    179  16.3   4.6  34008  287.00 0862.26
2015 04 09 13 55 35 .18      47    161      0    168    169  16.5   0.0  34000  286.88 0862.26
2015 04 09 13 55 35 .43      74    148     25    166    168  26.7   8.8  34104  288.64 0862.26
2015 04 09 13 55 35 .68      64    136     33    151    155  25.5  12.6  34112  288.77 0862.26
2015 04 09 13 55 35 .93      48    121     46    131    138  21.8  20.0  34114  288.80 0862.26
2015 04 09 13 55 36 .18      36    101     62    108    124  20.0  32.9  34126  288.99 0862.26
2015 04 09 13 55 36 .43      27     83     71     88    113  18.3  43.7  34226  290.69 0862.26
2015 04 09 13 55 36 .68      23    113     77    116    139  11.5  36.5  34240  290.92 0862.26
2015 04 09 13 55 36 .93      23    104     83    107    135  12.9  41.7  34242  290.98 0862.26
2015 04 09 13 55 37 .18      39     55     78     68    103  35.2  53.7  34338  292.59 0862.26
2015 04 09 13 55 37 .43      85     62     82    106    134  54.0  41.7  34186  290.02 0862.26
2015 04 09 13 55 37 .69     103     58     74    119    140  60.7  35.5  34138  289.19 0862.26
2015 04 09 13 55 37 .93      70     84     65    110    127  39.6  33.5  34166  289.69 0862.26
2015 04 09 13 55 38 .18      22     94     74     97    122  13.4  41.6  34208  290.38 0862.26
2015 04 09 13 55 38 .43       3     99     84    100    130   2.2  43.8  34224  290.65 0862.26
2015 04 09 13 55 38 .69      49     89     85    102    132  29.0  43.8  34222  290.64 0862.26
2015 04 09 13 55 38 .93      25     76     86     81    118  18.3  52.1  34254  291.18 0862.26
2015 04 09 13 55 39 .19      -5    124     89    125    153 357.3  39.1  34268  291.42 0862.26
2015 04 09 13 55 39 .43     397   -307    100    154    183 360.0  35.7  34302  291.99 0862.26
2015 04 09 13 55 39 .69      72    106     82    129    152  34.3  35.5  34238  290.91 0862.26
2015 04 09 13 55 39 .93      48    162     58    170    180  16.5  18.9  34112  288.77 0862.26
2015 04 09 13 55 40 .19      64    154     53    167    176  22.7  17.7  34042  287.59 0862.26
2015 04 09 13 55 40 .44      53    165     73    174    188  18.0  23.8  34112  288.77 0862.26
2015 04 09 13 55 40 .69      73    132     82    151    171  29.0  30.8  34152  289.45 0862.25
2015 04 09 13 55 40 .94      77    122     79    145    165  32.5  31.0  34104  288.62 0862.25
2015 04 09 13 55 41 .20      47    130     99    139    170  20.0  39.1  34130  289.06 0862.25
2015 04 09 13 55 41 .45      80    126     74    150    167  32.5  28.0  34096  288.50 0862.25
2015 04 09 13 55 41 .70      79    184     62    201    211  23.4  17.3  34142  289.28 0862.25
2015 04 09 13 55 41 .96      62    155     54    167    176  21.8  17.9  34124  288.96 0862.25
2015 04 09 13 55 42 .20      93    164     52    189    197  29.6  15.6  34222  290.62 0862.25
2015 04 09 13 55 42 .45     124    164     25    206    208  37.2   7.1  34006  286.96 0862.26
2015 04 09 13 55 42 .71     134    175      9    221    222  37.6   2.5  34042  287.57 0862.26
2015 04 09 13 55 42 .95     119    136     50    182    189  41.2  15.6  34218  290.57 0862.26
2015 04 09 13 55 43 .20     123    144     40    190    195  40.5  12.0  34000  286.88 0862.25
2015 04 09 13 55 43 .45     130    156     32    204    207  39.7   9.0  33990  286.69 0862.25
2015 04 09 13 55 43 .71     130    145     23    195    197  41.9   6.9  33986  286.62 0862.25
2015 04 09 13 55 43 .96     130    145     30    196    199  41.9   8.9  33998  286.84 0862.25
2015 04 09 13 55 44 .21     119    118     62    168    179  45.3  21.3  34172  289.79 0862.25
2015 04 09 13 55 44 .45     121    118     41    170    175  45.8  13.7  33988  286.66 0862.25
2015 04 09 13 55 44 .70     122    122     34    173    177  45.1  11.1  33984  286.61 0862.25
2015 04 09 13 55 44 .96     123    130     35    180    184  43.4  11.1  33988  286.67 0862.25
2015 04 09 13 55 45 .20     132    141     18    194    195  43.2   5.4  33982  286.56 0862.25
2015 04 09 13 55 45 .46     132    136     12    190    191  44.1   3.6  33976  286.46 0862.25
2015 04 09 13 55 45 .72     136    120     18    182    183  48.7   5.9  33976  286.46 0862.25
2015 04 09 13 55 45 .96     136    120     18    182    183  48.7   5.9  33976  286.46 0862.25
2015 04 09 13 55 46 .21     134    116     17    178    179  49.3   5.7  33978  286.49 0862.25
2015 04 09 13 55 46 .46     135    127      9    186    187  46.8   2.9  33980  286.54 0862.25
2015 04 09 13 55 46 .71     129    129     14    183    184  45.0   4.6  33980  286.54 0862.25
2015 04 09 13 55 46 .96     122    124      8    174    175  44.5   2.9  33982  286.56 0862.24
2015 04 09 13 55 47 .21     125    125     -2    177    178  45.0  -0.7  33978  286.51 0862.24
2015 04 09 13 55 47 .46     123    125     18    176    177  44.5   5.9  33990  286.69 0862.24
2015 04 09 13 55 47 .71     117    117     19    166    168  45.0   6.7  34010  287.05 0862.24
2015 04 09 13 55 47 .97     111    102     14    151    152  47.3   5.4  34026  287.32 0862.24
2015 04 09 13 55 48 .22     118     97     30    153    156  50.5  11.1  34064  287.94 0862.24
2015 04 09 13 55 48 .48     131    118     43    177    183  47.8  13.9  34064  287.96 0862.24
2015 04 09 13 55 48 .72     114    114     61    162    173  45.1  21.3  34074  288.13 0862.24
2015 04 09 13 55 48 .97     107    107     25    152    155  45.0   9.5  33988  286.66 0862.24
2015 04 09 13 55 49 .23     100    101     22    143    145  44.5   8.9  33986  286.64 0862.24
2015 04 09 13 55 49 .47      93    107     11    143    144  41.0   4.4  33990  286.71 0862.24
2015 04 09 13 55 49 .73      83    122     20    148    150  34.2   8.0  34042  287.57 0862.24
2015 04 09 13 55 49 .98      97    134     36    166    171  36.1  12.4  34082  288.26 0862.24
2015 04 09 13 55 50 .23      91    125     43    155    161  36.0  15.6  34102  288.58 0862.24
2015 04 09 13 55 50 .48      69     96     43    119    126  36.0  20.4  34100  288.55 0862.24
2015 04 09 13 55 50 .73      81    112     43    139    146  36.1  17.3  34098  288.53 0862.24
2015 04 09 13 55 50 .98      74     74     63    105    122  45.0  33.5  34160  289.58 0862.24
2015 04 09 13 55 51 .24      75     84     57    113    126  41.9  29.2  34208  290.40 0862.24
2015 04 09 13 55 51 .48      69     83     58    109    123  39.7  30.3  34234  290.84 0862.24
2015 04 09 13 55 51 .73      81    112     43    139    146  36.0  17.3  34124  288.96 0862.24
2015 04 09 13 55 51 .98      99    107     16    147    148  42.8   6.5  33994  286.78 0862.24
2015 04 09 13 55 52 .23     110    104     29    152    155  46.4  11.0  33990  286.69 0862.24
2015 04 09 13 55 52 .48     123    100     13    159    160  50.9   4.9  33992  286.73 0862.24
2015 04 09 13 55 52 .73     120     96      6    154    155  51.4   2.3  33984  286.61 0862.24
2015 04 09 13 55 52 .99     127     99      4    162    163  52.2   1.6  33998  286.83 0862.24
2015 04 09 13 55 53 .24     136    120      9    182    183  48.7   2.9  34036  287.49 0862.24
2015 04 09 13 55 53 .49     131    118     43    177    183  47.8  13.9  34036  287.49 0862.24
2015 04 09 13 55 53 .73     161    116     39    199    203  54.1  11.1  34038  287.52 0862.24
2015 04 09 13 55 53 .99     159    141     25    213    215  48.4   6.9  34016  287.13 0862.24
2015 04 09 13 55 54 .24     172    132     10    217    218  52.5   2.8  34040  287.55 0862.24
2015 04 09 13 55 54 .50     171    123     -4    211    212  54.3  -1.3  34038  287.50 0862.24
2015 04 09 13 55 54 .74     158    133     26    207    209  50.0   7.2  34050  287.70 0862.24
2015 04 09 13 55 54 .99     154    117     45    194    200  52.9  13.2  34054  287.77 0862.24
2015 04 09 13 55 55 .25     142    135     45    197    203  46.4  12.9  34080  288.21 0862.24
2015 04 09 13 55 55 .50     155    136      8    207    208  48.6   2.3  34000  286.88 0862.24
2015 04 09 13 55 55 .76     147    138     12    202    203  46.9   3.6  34004  286.93 0862.24
2015 04 09 13 55 56 .00     149    126     16    196    197  49.8   4.9  34000  286.86 0862.24
2015 04 09 13 55 56 .25     148    105     23    182    184  54.5   7.2  34030  287.37 0862.24
2015 04 09 13 55 56 .50     129     98     34    163    167  52.7  12.0  34048  287.69 0862.24
2015 04 09 13 55 56 .76     120     99     36    156    161  50.5  13.2  34060  287.87 0862.24
2015 04 09 13 55 57 .00     130    108     36    170    174  50.2  12.0  34030  287.37 0862.24
2015 04 09 13 55 57 .26     124    114     36    169    173  47.3  12.2  34022  287.25 0862.24
2015 04 09 13 55 57 .51     113    105     34    155    159  46.9  12.4  34030  287.38 0862.24
2015 04 09 13 55 57 .75     110    106     51    153    162  46.0  18.6  34056  287.82 0862.24
2015 04 09 13 55 58 .00      98     98     38    139    145  45.0  15.3  34046  287.65 0862.24
2015 04 09 13 55 58 .26     102     94     43    139    146  47.3  17.4  34034  287.43 0862.24
2015 04 09 13 55 58 .51     133    135     41    190    195  44.5  12.4  34050  287.70 0862.24
2015 04 09 13 55 58 .77     147    152     25    212    214  44.1   6.9  34072  288.09 0862.24
2015 04 09 13 55 59 .01     114    126     21    171    173  42.1   7.2  34104  288.62 0862.24
2015 04 09 13 55 59 .27      90    140     21    167    169  33.0   7.5  34084  288.28 0862.24
2015 04 09 13 55 59 .51     126    177     77    218    232  35.4  19.4  34124  288.96 0862.24
2015 04 09 13 55 59 .76      85    143     21    167    169  30.7   7.5  34126  288.99 0862.24
2015 04 09 13 56 00 .01      83    174     37    194    198  25.6  10.8  34260  291.28 0862.24
2015 04 09 13 56 00 .27      19    203     37    205    209   5.6  10.3  34106  288.67 0862.24
2015 04 09 13 56 00 .52      45    189     14    195    196  13.6   4.4  34218  290.55 0862.24
2015 04 09 13 56 00 .77      23    184     11    186    187   7.3   3.6  34236  290.86 0862.24
2015 04 09 13 56 01 .02      14    188     63    189    200   4.5  18.4  34240  290.92 0862.24
2015 04 09 13 56 01 .28      62    183     71    194    206  18.7  21.0  34122  288.94 0862.24
2015 04 09 13 56 01 .51      61    200     57    210    218  16.9  15.3  34098  288.53 0862.23
2015 04 09 13 56 01 .77      71    170     65    185    197  22.7  19.4  34092  288.43 0862.23
2015 04 09 13 56 02 .03      84    158     62    180    191  28.1  19.2  34080  288.23 0862.23
2015 04 09 13 56 02 .28      77    157     56    176    185  26.3  17.7  34088  288.35 0862.23
2015 04 09 13 56 02 .53      70    149     44    165    171  25.3  15.0  34100  288.55 0862.23
2015 04 09 13 56 02 .78      77    148     31    168    171  27.6  10.6  34102  288.58 0862.23
2015 04 09 13 56 03 .03      82    138     11    161    162  30.8   4.2  34090  288.40 0862.23
2015 04 09 13 56 03 .28      86    151     13    174    175  29.6   4.6  34098  288.53 0862.23
2015 04 09 13 56 03 .53      64    153     25    166    168  22.7   8.8  34104  288.64 0862.23
2015 04 09 13 56 03 .78      50    125     17    135    137  21.9   7.5  34088  288.35 0862.23
2015 04 09 13 56 04 .03      36    135     27    140    143  15.2  11.0  34070  288.06 0862.23
2015 04 09 13 56 04 .28      49    132     -4    141    142  20.5  -1.8  34022  287.25 0862.23
2015 04 09 13 56 04 .53      50    106      3    118    119  25.3   1.8  34006  286.96 0862.23
2015 04 09 13 56 04 .79      44     93     22    104    107  25.5  12.2  34114  288.80 0862.23
2015 04 09 13 56 05 .03      43    115     42    123    131  20.5  18.9  34180  289.91 0862.23
2015 04 09 13 56 05 .29      41    110     41    118    126  20.5  19.2  34154  289.46 0862.23
2015 04 09 13 56 05 .53      39    108     45    115    123  20.0  22.5  34120  288.89 0862.23
2015 04 09 13 56 05 .79      47    113     24    123    126  22.7  11.0  34068  288.03 0862.23
2015 04 09 13 56 06 .03      61     99      5    117    118  31.6   2.9  34058  287.84 0862.24
2015 04 09 13 56 06 .29      58     91    -26    109    113  32.6 -13.4  33988  286.66 0862.24
2015 04 09 13 56 06 .54      49     70    -24     86     90  35.2 -15.5  33996  286.81 0862.24
2015 04 09 13 56 06 .79      37     76    -13     85     86  25.9  -8.8  34054  287.79 0862.24
2015 04 09 13 56 07 .04      41     65      2     78     79  32.5   1.8  34066  287.99 0862.24
2015 04 09 13 56 07 .29      28     72     13     78     80  21.8   9.5  34066  287.99 0862.24
2015 04 09 13 56 07 .53      26     91     -3     95     96  16.0  -2.2  34086  288.33 0862.24
2015 04 09 13 56 07 .79      44     81    -11     93     94  28.5  -7.3  34072  288.08 0862.24
2015 04 09 13 56 08 .04      52     87     -6    102    103  31.2  -3.7  34050  287.72 0862.24
2015 04 09 13 56 08 .29      58     91    -13    108    109  32.5  -7.2  33992  286.73 0862.24
2015 04 09 13 56 08 .54      60     83     -6    103    104  36.1  -3.7  33982  286.56 0862.24
2015 04 09 13 56 08 .79      60     83     -6    103    104  36.1  -3.7  33982  286.56 0862.23
2015 04 09 13 56 09 .05      56     87    -11    104    105  33.0  -6.2  33984  286.59 0862.23
2015 04 09 13 56 09 .30      60     83     -6    103    104  36.1  -3.7  33982  286.56 0862.23
2015 04 09 13 56 09 .56      54     87     -6    103    104  31.6  -3.7  33992  286.73 0862.23
2015 04 09 13 56 09 .80      41     83      1     93     94  26.3   1.2  34000  286.88 0862.23
2015 04 09 13 56 10 .05      30     82     -6     88     89  20.0  -4.1  34004  286.93 0862.23
2015 04 09 13 56 10 .30      18     87     -3     89     90  12.0  -2.2  34002  286.91 0862.23
2015 04 09 13 56 10 .55      15     73    -12     75     77  11.6  -9.3  33998  286.84 0862.23
2015 04 09 13 56 10 .80      16     63    -13     66     68  14.3 -11.3  33996  286.79 0862.23
2015 04 09 13 56 11 .06      22     71    -22     75     79  17.8 -16.6  33986  286.64 0862.23
2015 04 09 13 56 11 .30      26     69     -1     74     75  20.9  -1.3  33988  286.66 0862.23
2015 04 09 13 56 11 .56      24     73     -3     78     79  18.5  -2.2  33986  286.64 0862.23
2015 04 09 13 56 11 .81      32     60      3     69     70  28.1   2.9  33988  286.66 0862.23
2015 04 09 13 56 12 .05      32     60     -2     69     70  28.1  -2.2  33992  286.74 0862.23
2015 04 09 13 56 12 .31      25     61     -1     67     68  22.7  -1.3  33992  286.73 0862.23
2015 04 09 13 56 12 .56      26     56     -3     63     64  25.3  -3.1  33984  286.59 0862.23
2015 04 09 13 56 12 .81      26     56     -3     63     64  25.3  -3.1  33984  286.59 0862.23
2015 04 09 13 56 13 .06      19     57     -2     61     62  18.3  -2.2  33988  286.66 0862.23
2015 04 09 13 56 13 .32      31     65      8     73     74  25.4   6.9  34016  287.15 0862.23
2015 04 09 13 56 13 .56      38     78      0     87     88  26.3  -0.3  34034  287.43 0862.23
2015 04 09 13 56 13 .81      40     65     -3     77     78  31.6  -2.2  34028  287.33 0862.23
2015 04 09 13 56 14 .06      26     64     -3     70     71  21.8  -3.1  34028  287.33 0862.23
2015 04 09 13 56 14 .32       9     65      5     66     67   8.0   4.9  34030  287.38 0862.23
2015 04 09 13 56 14 .56       8     59      6     60     61   8.0   5.9  34030  287.38 0862.23
2015 04 09 13 56 14 .82      -1     56      6     57     58 358.2   6.9  34038  287.50 0862.23
2015 04 09 13 56 15 .06       0     63     12     64     66 359.1  11.1  34034  287.45 0862.23
2015 04 09 13 56 15 .31      21     58     -8     62     63  20.0  -7.3  34014  287.11 0862.23
2015 04 09 13 56 15 .57      22     68    -10     72     73  18.3  -8.2  34020  287.21 0862.23
2015 04 09 13 56 15 .81      26     66    -22     72     76  21.8 -17.6  34020  287.21 0862.23
2015 04 09 13 56 16 .08      20     61    -23     65     70  18.7 -19.6  34014  287.11 0862.24
2015 04 09 13 56 16 .32      28     71    -20     77     80  21.8 -15.0  34028  287.35 0862.24
2015 04 09 13 56 16 .58      31     66    -18     74     77  25.5 -13.9  34028  287.33 0862.24
2015 04 09 13 56 16 .82      32     68     -3     76     77  25.3  -2.2  34030  287.37 0862.24
2015 04 09 13 56 17 .08      26     65      3     71     72  21.8   2.8  34022  287.25 0862.24
2015 04 09 13 56 17 .33      30     65      0     72     73  25.4  -0.3  34028  287.33 0862.24
2015 04 09 13 56 17 .58      22     66    -12     70     72  18.5 -10.3  34024  287.27 0862.24
2015 04 09 13 56 17 .83      24     58     -8     63     64  22.7  -7.3  34026  287.30 0862.24
2015 04 09 13 56 18 .08      28     52     -2     60     61  28.1  -2.2  34026  287.30 0862.24
2015 04 09 13 56 18 .33      37     45      0     59     60  39.6  -0.3  34022  287.23 0862.24
2015 04 09 13 56 18 .58      35     56     -1     67     68  32.5  -1.3  34022  287.25 0862.24
2015 04 09 13 56 18 .83      33     40      4     53     54  39.6   4.9  34024  287.27 0862.24
2015 04 09 13 56 19 .08      52     56     15     77     79  43.3  11.1  34030  287.38 0862.24
2015 04 09 13 56 19 .34      54     51     26     75     80  46.9  19.2  34052  287.76 0862.24
2015 04 09 13 56 19 .59      50     47     30     69     75  46.9  25.1  34046  287.65 0862.24
2015 04 09 13 56 19 .84      51     38     30     64     70  53.1  27.2  34040  287.55 0862.24
2015 04 09 13 56 20 .09      51     47     30     70     76  46.9  24.1  34068  288.03 0862.24
2015 04 09 13 56 20 .34      59     46     14     75     77  52.2  11.1  34042  287.57 0862.24
2015 04 09 13 56 20 .58      56     54     27     79     84  46.0  19.4  34034  287.45 0862.24
2015 04 09 13 56 20 .84      77     67     20    103    106  48.7  11.1  34006  286.96 0862.24
2015 04 09 13 56 21 .09      80     71     21    108    111  48.2  11.1  34010  287.05 0862.24
2015 04 09 13 56 21 .34      73     67     43    100    108  47.3  24.6  34036  287.49 0862.24
2015 04 09 13 56 21 .59      76     73     24    106    109  46.4  13.2  34006  286.96 0862.24
2015 04 09 13 56 21 .84      66     79     12    104    105  40.1   7.1  34002  286.91 0862.24
2015 04 09 13 56 22 .09      60     74     15     96     98  38.7   9.0  33998  286.84 0862.24
2015 04 09 13 56 22 .34      63     70     17     95     97  41.9  10.1  34006  286.98 0862.24
2015 04 09 13 56 22 .59      51     76     12     92     93  33.8   7.5  34004  286.93 0862.24
2015 04 09 13 56 22 .85      44     93     12    104    105  25.5   7.1  34002  286.89 0862.24
2015 04 09 13 56 23 .11      24     92     18     96     98  15.1  11.0  34006  286.98 0862.24
2015 04 09 13 56 23 .35      14     97     -9     99    100   8.5  -5.2  34002  286.91 0862.24
2015 04 09 13 56 23 .60      24     94     -1     98     99  14.7  -0.7  34018  287.16 0862.24
2015 04 09 13 56 23 .86      20     99     -3    101    102  11.5  -1.8  34010  287.03 0862.24
2015 04 09 13 56 24 .11      25    102      5    106    107  13.8   2.9  34006  286.98 0862.23
2015 04 09 13 56 24 .36      37    112     -7    118    119  18.3  -3.7  34004  286.93 0862.23
2015 04 09 13 56 24 .61      36     94     19    101    103  20.9  11.1  34014  287.11 0862.23
2015 04 09 13 56 24 .86      46    101     13    111    112  24.5   7.1  34030  287.38 0862.23
2015 04 09 13 56 25 .11      43    122     11    130    131  19.6   4.9  34048  287.69 0862.23
2015 04 09 13 56 25 .36      52     94     28    108    112  29.0  14.7  34060  287.89 0862.23
2015 04 09 13 56 25 .61      37    107     29    114    118  19.2  14.7  34072  288.08 0862.23
2015 04 09 13 56 25 .87      40    109     24    117    120  20.5  11.6  34066  287.98 0862.24
2015 04 09 13 56 26 .11      30    113     35    117    123  15.1  16.8  34082  288.25 0862.24
2015 04 09 13 56 26 .36      35    102     28    109    113  19.2  14.7  34080  288.21 0862.24
2015 04 09 13 56 26 .61      35    101     37    108    115  19.2  18.9  34094  288.45 0862.24
2015 04 09 13 56 26 .87      43    113     19    121    123  20.9   9.0  34106  288.65 0862.24
2015 04 09 13 56 27 .11      31    117     39    122    129  15.2  17.9  34140  289.23 0862.24
2015 04 09 13 56 27 .36      20    114     32    116    121  10.2  15.8  34142  289.28 0862.24
2015 04 09 13 56 27 .62      22    110     41    113    120  11.6  20.9  34128  289.02 0862.24
2015 04 09 13 56 27 .86     -27    127     67    130    146 348.0  29.3  34162  289.60 0862.24
2015 04 09 13 56 28 .12     -16    113     64    115    131 351.9  31.4  34138  289.21 0862.24
2015 04 09 13 56 28 .36     -28    124     79    128    150 347.1  35.5  34180  289.91 0862.24
2015 04 09 13 56 28 .61     -46    153    117    160    198 343.1  39.7  34118  288.86 0862.24
2015 04 09 13 56 28 .87     -93    195      3    217    218 334.5   0.8  34016  287.15 0862.24
2015 04 09 13 56 29 .12     -82    192    -13    209    210 336.8  -3.7  34028  287.33 0862.24
2015 04 09 13 56 29 .37     -37    182    -44    186    192 348.5 -13.4  34022  287.25 0862.24
2015 04 09 13 56 29 .62     -24    175    -49    177    184 352.2 -15.5  34052  287.76 0862.24
2015 04 09 13 56 29 .88     -18    163    -22    165    167 353.7  -7.7  34060  287.87 0862.24
2015 04 09 13 56 30 .13     -36    179    -24    183    185 348.4  -7.5  33988  286.67 0862.24
2015 04 09 13 56 30 .38     -42    186    -24    191    193 347.1  -7.2  33984  286.59 0862.24
2015 04 09 13 56 30 .63     -42    186    -24    191    193 347.1  -7.2  33984  286.59 0862.24
2015 04 09 13 56 30 .88     -51    178    -10    186    187 344.0  -3.1  33984  286.61 0862.24
2015 04 09 13 56 31 .13     -49    167    -14    175    176 343.5  -4.9  33988  286.67 0862.24
2015 04 09 13 56 31 .38     -41    170    -22    176    178 346.2  -7.3  33986  286.64 0862.24
2015 04 09 13 56 31 .63     -28    155    -37    158    163 349.8 -13.4  33990  286.69 0862.24
2015 04 09 13 56 31 .88     -19    142    -24    144    147 352.4  -9.8  33990  286.69 0862.24
2015 04 09 13 56 32 .13     -34    145    -24    149    152 346.7  -9.3  33990  286.69 0862.24
2015 04 09 13 56 32 .38     -40    133    -18    140    142 343.1  -7.3  33988  286.66 0862.24
2015 04 09 13 56 32 .63     -50    139     -8    148    149 340.0  -3.2  33988  286.66 0862.24
2015 04 09 13 56 32 .89     -58    146      0    158    159 338.2  -0.3  33988  286.67 0862.24
2015 04 09 13 56 33 .14     -62    156     -6    169    170 338.2  -2.2  33994  286.76 0862.24
2015 04 09 13 56 33 .39     -22    156    -31    158    162 351.9 -11.1  33992  286.74 0862.24
2015 04 09 13 56 33 .64     -18    146    -49    148    155 352.9 -23.8  33992  286.74 0862.24
2015 04 09 13 56 33 .89     -29    143    -43    147    153 348.4 -21.7  33992  286.73 0862.24
2015 04 09 13 56 34 .14     -15    115    -19    117    119 352.4  -9.4  33996  286.79 0862.24
2015 04 09 13 56 34 .39     -24    110     -4    113    114 347.5  -2.2  33990  286.71 0862.24
2015 04 09 13 56 34 .64     -23    114     -6    117    118 348.4  -3.1  33994  286.76 0862.24
2015 04 09 13 56 34 .89     -28    121    -12    125    126 346.7  -5.6  33994  286.78 0862.23
2015 04 09 13 56 35 .14     -28    107    -14    111    112 344.9  -7.2  33994  286.76 0862.23
2015 04 09 13 56 35 .39     -29     97    -18    102    104 343.1 -10.3  33994  286.78 0862.23
2015 04 09 13 56 35 .64     -41     83    -11     93     94 333.7  -7.2  33990  286.71 0862.23
2015 04 09 13 56 35 .89     -32     96     -4    102    103 341.5  -2.2  33994  286.78 0862.23
2015 04 09 13 56 36 .14     -25    110     -3    113    114 347.1  -1.8  33998  286.83 0862.23
2015 04 09 13 56 36 .39     -19    115    -18    117    119 350.2  -8.8  33998  286.83 0862.23
2015 04 09 13 56 36 .64     -21    119     -4    121    122 349.8  -2.2  33996  286.79 0862.23
2015 04 09 13 56 36 .90     -23    106     -6    109    110 347.5  -3.2  33998  286.83 0862.23
2015 04 09 13 56 37 .16     -25    126    -10    129    130 348.5  -4.6  33996  286.79 0862.23
2015 04 09 13 56 37 .41     -50    139    -17    148    150 340.0  -6.7  33996  286.79 0862.23
2015 04 09 13 56 37 .66     -33    142     -6    146    147 346.6  -2.6  34022  287.23 0862.23
2015 04 09 13 56 37 .90     -16    148     -8    149    150 353.7  -3.1  34000  286.88 0862.23
2015 04 09 13 56 38 .16     -27    130     -5    133    134 348.0  -2.2  34018  287.16 0862.23
2015 04 09 13 56 38 .41     -28    121      0    125    126 346.6   0.2  34014  287.10 0862.23
2015 04 09 13 56 38 .66     -12    114      4    115    116 353.8   2.3  34008  287.01 0862.23
2015 04 09 13 56 38 .91       0     98     11     99    100   0.5   6.9  34000  286.88 0862.23
2015 04 09 13 56 39 .16      -4    113      5    114    115 357.8   2.8  34002  286.89 0862.23
2015 04 09 13 56 39 .41      -8    106      1    107    108 355.6   0.8  34004  286.93 0862.23
2015 04 09 13 56 39 .66      -2    117     -1    118    119 358.6  -0.7  33998  286.84 0862.23
2015 04 09 13 56 39 .91       0    105     -9    106    107   0.5  -5.2  33998  286.84 0862.23
2015 04 09 13 56 40 .16     -13    154    -13    155    156 355.1  -4.9  34004  286.93 0862.23
2015 04 09 13 56 40 .41     -31    168     -8    171    172 349.3  -2.8  34000  286.88 0862.23
2015 04 09 13 56 40 .66     -35    175    -30    179    182 348.7  -9.8  33998  286.83 0862.23
2015 04 09 13 56 40 .91     -59    186    -22    196    198 342.4  -6.5  33998  286.84 0862.23
2015 04 09 13 56 41 .16     -57    187    -32    196    199 343.1  -9.3  33994  286.78 0862.23
2015 04 09 13 56 41 .42     -24    181    -34    183    187 352.4 -10.5  34000  286.86 0862.23
2015 04 09 13 56 41 .67      -1    215    -10    216    217 359.5  -2.8  34010  287.03 0862.23
2015 04 09 13 56 41 .92      16    189    -17    190    191   5.1  -5.2  33998  286.84 0862.23
2015 04 09 13 56 42 .17      36    175    -11    179    180  11.8  -3.7  34002  286.91 0862.23
2015 04 09 13 56 42 .42      52    194     10    202    203  15.2   2.9  34040  287.55 0862.23
2015 04 09 13 56 42 .67      66    194      2    206    207  18.9   0.8  34028  287.35 0862.23
2015 04 09 13 56 42 .92      36    133     54    138    148  15.2  23.0  34036  287.47 0862.23
2015 04 09 13 56 43 .17       1     82     50     83     96   0.9  34.4  34042  287.57 0862.23
2015 04 09 13 56 43 .43     -22    111     79    114    138 348.5  38.0  34034  287.45 0862.23
2015 04 09 13 56 43 .67     -39    115     84    122    148 341.3  37.6  34072  288.08 0862.23
2015 04 09 13 56 43 .93     -16    137     80    138    159 353.3  32.9  34078  288.18 0862.23
2015 04 09 13 56 44 .18     -19    134     74    136    154 351.9  31.3  34062  287.92 0862.23
2015 04 09 13 56 44 .43     -18    127     61    129    142 351.9  27.1  34072  288.08 0862.23
2015 04 09 13 56 44 .69     -19    126     75    128    148 351.1  33.4  34078  288.18 0862.23
2015 04 09 13 56 44 .94     -33    116     68    121    138 344.0  31.4  34140  289.23 0862.23
2015 04 09 13 56 45 .18     -33    125     75    130    150 344.9  32.4  34148  289.36 0862.23
2015 04 09 13 56 45 .43     -28    145     22    148    150 348.9   8.5  34008  287.01 0862.23
2015 04 09 13 56 45 .69      -6    138     26    139    142 357.3  10.6  34006  286.98 0862.23
2015 04 09 13 56 45 .94     -12    144     47    145    153 355.1  17.9  34010  287.03 0862.23
2015 04 09 13 56 46 .19      32    159     28    163    166  11.5   9.9  34018  287.16 0862.23
2015 04 09 13 56 46 .44     -12    155     27    156    159 355.5  10.1  34018  287.16 0862.23
2015 04 09 13 56 46 .69     -26    179     32    181    184 351.5  10.3  34028  287.33 0862.23
2015 04 09 13 56 46 .94     -18    160      2    162    163 353.3   1.0  34018  287.16 0862.23
2015 04 09 13 56 47 .19     -14    154     30    155    158 354.7  11.1  34022  287.25 0862.23
2015 04 09 13 56 47 .44       2    139      5    140    141   1.0   2.3  34042  287.57 0862.23
2015 04 09 13 56 47 .69       3    124     43    125    133   1.4  18.9  34024  287.28 0862.23
2015 04 09 13 56 47 .94     -11    152     24    153    155 355.5   9.0  34026  287.30 0862.23
2015 04 09 13 56 48 .19       2    174    -16    175    176   0.9  -5.4  34012  287.06 0862.23
2015 04 09 13 56 48 .44     -11    208      2    209    210 356.9   0.8  34026  287.30 0862.22
2015 04 09 13 56 48 .70      -6    202     23    203    205 358.2   6.5  34074  288.11 0862.22
2015 04 09 13 56 48 .94     -11    165     34    166    170 356.0  11.6  34086  288.31 0862.22
2015 04 09 13 56 49 .20     -30    166     50    169    177 349.5  16.6  34114  288.80 0862.22
2015 04 09 13 56 49 .44     -55    148     59    159    169 339.5  21.0  34114  288.79 0862.22
2015 04 09 13 56 49 .69     -59    179     23    189    191 341.7   7.1  34064  287.94 0862.22
2015 04 09 13 56 49 .95     -54    177    -26    186    188 342.8  -8.2  34028  287.33 0862.22
2015 04 09 13 56 50 .20     -47    153    -19    161    163 343.0  -6.7  34022  287.25 0862.22
2015 04 09 13 56 50 .45     -33    206    -27    209    211 350.9  -7.5  34044  287.60 0862.22
2015 04 09 13 56 50 .71     -33    195     37    198    202 350.2  10.8  34076  288.14 0862.22
2015 04 09 13 56 50 .96     -16    165    -32    166    170 354.2 -10.9  34034  287.43 0862.22
2015 04 09 13 56 51 .21     -12    164    -14    165    166 355.5  -4.9  34016  287.15 0862.22
2015 04 09 13 56 51 .46     -21    153    -45    155    162 352.0 -16.4  34020  287.20 0862.22
2015 04 09 13 56 51 .71     -12    191      9    192    193 356.2   2.9  34038  287.52 0862.22
2015 04 09 13 56 51 .96     -42    148     52    155    164 344.0  18.6  34080  288.23 0862.22
2015 04 09 13 56 52 .21     -18    123    -42    125    132 351.5 -18.7  34028  287.33 0862.23
2015 04 09 13 56 52 .46      -5    174    -11    175    176 358.2  -3.7  34020  287.21 0862.23
2015 04 09 13 56 52 .71     -17    207    -13    208    209 355.1  -3.7  34040  287.54 0862.23
2015 04 09 13 56 52 .96      -2    158    -12    159    160 359.1  -4.6  34042  287.57 0862.23
2015 04 09 13 56 53 .21       6    142    -37    143    148   2.7 -14.5  34034  287.43 0862.23
2015 04 09 13 56 53 .46     -13    135    -27    136    139 354.2 -11.3  34032  287.42 0862.23
2015 04 09 13 56 53 .72     -23    150      7    152    153 351.1   2.8  34052  287.74 0862.23
2015 04 09 13 56 53 .97     -30    150     -3    154    155 348.4  -1.2  34034  287.43 0862.23
2015 04 09 13 56 54 .21       0    109    -34    110    115   0.0 -23.3  34032  287.40 0862.23
2015 04 09 13 56 54 .47      -2    141    -39    142    148 359.1 -15.4  34038  287.52 0862.23
2015 04 09 13 56 54 .72     -14    131    -36    132    138 353.8 -15.5  34036  287.49 0862.23
2015 04 09 13 56 54 .97      -6    138    -33    139    143 357.4 -13.4  34042  287.57 0862.23
2015 04 09 13 56 55 .22       7    124    -34    125    130   3.6 -15.5  34042  287.59 0862.23
2015 04 09 13 56 55 .47      -8    115    -36    116    122 356.0 -17.5  34042  287.59 0862.23
2015 04 09 13 56 55 .72       0     99    -35    100    107   0.0 -19.6  34040  287.54 0862.23
2015 04 09 13 56 55 .97       0    110    -31    111    116   0.5 -15.5  34038  287.52 0862.23
2015 04 09 13 56 56 .22       6    132    -36    133    139   2.7 -15.4  34040  287.54 0862.23
2015 04 09 13 56 56 .47      15    111    -32    113    118   8.0 -16.0  34044  287.62 0862.23
2015 04 09 13 56 56 .72       1     95    -30     96    100   1.0 -22.8  34042  287.57 0862.23
2015 04 09 13 56 56 .97     -10    116    -38    117    123 354.7 -23.3  34026  287.30 0862.23
2015 04 09 13 56 57 .22     -10    115    -45    116    124 354.7 -25.9  34040  287.54 0862.23
2015 04 09 13 56 57 .47      -5    103    -39    104    111 356.9 -25.9  34052  287.74 0862.23
2015 04 09 13 56 57 .73      -8    102    -29    103    107 355.1 -20.7  34048  287.67 0862.23
2015 04 09 13 56 57 .98      14    111    -40    112    119   7.6 -19.7  34058  287.86 0862.23
2015 04 09 13 56 58 .23      -4    112    -23    113    116 357.8 -11.9  34050  287.70 0862.23
2015 04 09 13 56 58 .48      20     86    -54     89    104  13.4 -38.8  34050  287.70 0862.23
2015 04 09 13 56 58 .73       0    100    -45    101    110 359.6 -30.6  34050  287.70 0862.23
2015 04 09 13 56 58 .98       1     95    -42     96    104   0.9 -29.5  34040  287.55 0862.23
2015 04 09 13 56 59 .23       0     91    -46     92    102   0.5 -32.6  34040  287.54 0862.23
2015 04 09 13 56 59 .49       8    112    -23    113    116   4.4 -11.9  34046  287.65 0862.23
2015 04 09 13 56 59 .73       9    114    -31    115    120   4.9 -15.0  34044  287.60 0862.23
2015 04 09 13 56 59 .99     -16    129    -30    131    135 352.9 -12.9  34042  287.59 0862.23
2015 04 09 13 57 00 .24     -20    137    -13    139    140 351.5  -5.6  34048  287.67 0862.23
2015 04 09 13 57 00 .49      10    131    -31    132    136   4.5 -13.4  34042  287.59 0862.22
2015 04 09 13 57 00 .74       0     96    -33     97    103   0.5 -18.7  34044  287.62 0862.22
2015 04 09 13 57 00 .99      -2    117    -29    118    122 359.0 -13.9  34050  287.70 0862.22
2015 04 09 13 57 01 .25      11    117    -28    118    122   5.8 -13.3  34050  287.72 0862.22
2015 04 09 13 57 01 .49      15    141    -18    142    144   6.2  -7.2  34066  287.99 0862.22
2015 04 09 13 57 01 .75       3    102    -13    103    104   1.8  -7.3  34058  287.86 0862.22
2015 04 09 13 57 01 .99       1    120      3    121    122   0.5   1.8  34056  287.81 0862.22
2015 04 09 13 57 02 .25       0    112     11    113    114   0.0   5.9  34066  287.99 0862.22
2015 04 09 13 57 02 .49     -14    135      6    136    137 353.8   2.9  34068  288.01 0862.22
2015 04 09 13 57 02 .74      -2    145     -8    146    147 359.1  -3.1  34066  287.99 0862.22
2015 04 09 13 57 02 .99      -6    139     -3    140    141 357.4  -1.3  34054  287.77 0862.22
2015 04 09 13 57 03 .25       2    116    -22    117    120   1.0 -10.9  34070  288.04 0862.22
2015 04 09 13 57 03 .49       3    116    -22    117    120   1.8 -10.9  34066  287.99 0862.22
2015 04 09 13 57 03 .75       1    106    -38    107    114   0.9 -19.6  34060  287.89 0862.22
2015 04 09 13 57 04 .00      -8    126    -11    127    128 356.0  -5.2  34070  288.06 0862.23
2015 04 09 13 57 04 .25       0    113     13    114    115   0.0   6.9  34066  287.99 0862.23
2015 04 09 13 57 04 .50       6    144      0    145    146   2.6  -0.3  34064  287.94 0862.23
2015 04 09 13 57 04 .76      17    158    -20    159    161   6.3  -7.5  34048  287.69 0862.23
2015 04 09 13 57 05 .01      13    159    -25    160    163   4.9  -9.0  34062  287.92 0862.23
2015 04 09 13 57 05 .26      24    165    -16    167    168   8.5  -5.6  34050  287.70 0862.23
2015 04 09 13 57 05 .51      27    160    -13    163    164   9.8  -4.9  34052  287.74 0862.23
2015 04 09 13 57 05 .77      24    182    -23    184    186   7.8  -7.3  34054  287.77 0862.23
2015 04 09 13 57 06 .01       2    144    -30    145    149   0.9 -11.9  34060  287.87 0862.23
2015 04 09 13 57 06 .26      19    174    -29    176    179   6.2  -9.3  34054  287.79 0862.23
2015 04 09 13 57 06 .51     -12    161     16    162    163 355.6   5.9  34062  287.91 0862.23
2015 04 09 13 57 06 .76       7    159     17    160    161   2.7   6.1  34056  287.81 0862.23
2015 04 09 13 57 07 .02       6    144     17    145    147   2.6   6.9  34058  287.84 0862.23
2015 04 09 13 57 07 .26       2    116     22    117    120   1.4  10.6  34054  287.79 0862.23
2015 04 09 13 57 07 .52      -2    145     28    146    149 359.0  11.1  34052  287.76 0862.23
2015 04 09 13 57 07 .76     -11    124     10    125    126 354.7   4.9  34058  287.84 0862.23
2015 04 09 13 57 08 .02      12    120      9    121    122   5.8   4.4  34056  287.81 0862.23
2015 04 09 13 57 08 .26      15    133     11    134    135   6.7   4.9  34048  287.67 0862.23
2015 04 09 13 57 08 .52      22    128     19    130    132   9.8   8.5  34046  287.65 0862.22
2015 04 09 13 57 08 .77      37    118     19    124    126  17.4   9.0  34046  287.65 0862.22
2015 04 09 13 57 09 .02      37    106     13    113    114  19.2   6.9  34052  287.76 0862.22
2015 04 09 13 57 09 .27      35    100     28    107    111  19.6  14.7  34060  287.89 0862.22
2015 04 09 13 57 09 .52      32    100     21    106    109  17.8  11.6  34054  287.79 0862.22
2015 04 09 13 57 09 .77      35    105     24    111    114  18.7  12.2  34058  287.86 0862.22
2015 04 09 13 57 10 .02      43     96     28    106    110  24.5  15.2  34058  287.84 0862.22
2015 04 09 13 57 10 .27      44     97     28    107    111  24.5  14.7  34066  287.99 0862.23
2015 04 09 13 57 10 .52      66     79     22    104    107  40.1  12.2  34060  287.89 0862.23
2015 04 09 13 57 10 .78      38     87     50     96    108  23.6  29.3  34066  287.99 0862.23
2015 04 09 13 57 11 .02      57     89     68    106    125  32.6  35.6  34092  288.42 0862.23
2015 04 09 13 57 11 .27      64     66     82     93    123  44.1  45.9  34092  288.43 0862.23
2015 04 09 13 57 11 .53      68     88     83    112    139  37.4  39.7  34118  288.87 0862.23
2015 04 09 13 57 11 .79      47    101     90    112    143  24.9  43.3  34130  289.06 0862.23
2015 04 09 13 57 12 .03      77     79     79    111    136  44.1  39.1  34098  288.52 0862.23
2015 04 09 13 57 12 .29      72     25     77     77    108  70.9  50.1  34102  288.58 0862.22
2015 04 09 13 57 12 .54      61     14     65     63     90  76.7  50.7  34110  288.72 0862.22
2015 04 09 13 57 12 .79      63     25     95     68    116  68.2  61.1  34180  289.92 0862.22
2015 04 09 13 57 13 .04     172     -7     91    173    195  92.4  29.8  34052  287.76 0862.22
2015 04 09 13 57 13 .30     166    -30     43    169    175 100.4  14.5  34028  287.35 0862.22
2015 04 09 13 57 13 .53     132      0     51    133    142  90.0  22.0  34026  287.30 0862.22
2015 04 09 13 57 13 .79     107     -8     56    108    121  94.3  29.3  34034  287.45 0862.22
2015 04 09 13 57 14 .04     128     -3     33    129    134  91.7  14.7  34024  287.28 0862.22
2015 04 09 13 57 14 .29     139    -10     17    140    142  94.4   7.1  34028  287.35 0862.22
2015 04 09 13 57 14 .54     151    -16      2    152    153  96.2   0.8  34020  287.21 0862.22
2015 04 09 13 57 14 .80     141    -10     -3    142    143  94.4  -1.3  34028  287.33 0862.22
2015 04 09 13 57 15 .04     149    -11     -8    150    151  94.4  -3.1  34058  287.86 0862.22
2015 04 09 13 57 15 .30     145    -20    -10    147    148  98.0  -4.1  34060  287.87 0862.22
2015 04 09 13 57 15 .54     112    -23      7    115    116 101.9   3.8  34080  288.21 0862.22
2015 04 09 13 57 15 .79     125    -27     12    128    129 102.4   5.4  34072  288.08 0862.22
2015 04 09 13 57 16 .05     126    -31      2    130    131 104.2   1.2  34068  288.03 0862.22
2015 04 09 13 57 16 .29     121     -5     14    122    123  92.6   6.9  34092  288.42 0862.22
2015 04 09 13 57 16 .55     125    -20     14    127    128  99.2   6.5  34086  288.33 0862.22
2015 04 09 13 57 16 .80     117    -31     28    122    126 105.1  13.1  34068  288.03 0862.22
2015 04 09 13 57 17 .05     123    -36     23    129    132 106.4  10.1  34076  288.14 0862.22
2015 04 09 13 57 17 .30     126    -30     30    130    134 103.7  13.2  34092  288.42 0862.22
2015 04 09 13 57 17 .55     145    -39     42    151    157 105.1  15.8  34126  288.99 0862.22
2015 04 09 13 57 17 .80     130    -33      0    135    136 104.2  -0.3  34058  287.84 0862.22
2015 04 09 13 57 18 .05     119    -24     20    122    124 101.4   9.5  34080  288.21 0862.22
2015 04 09 13 57 18 .30     119     -8     32    120    125  93.9  15.3  34058  287.86 0862.22
2015 04 09 13 57 18 .56     119    -24     -7    122    123 101.4  -3.7  33990  286.71 0862.22
2015 04 09 13 57 18 .81     119    -32    -32    124    129 105.0 -14.5  33980  286.54 0862.22
2015 04 09 13 57 19 .07     124    -41    -36    131    136 108.6 -15.4  33992  286.73 0862.22
2015 04 09 13 57 19 .31     118    -29    -39    122    128 104.2 -23.3  33984  286.61 0862.22
2015 04 09 13 57 19 .57     119    -50    -28    130    134 113.1 -12.4  34038  287.52 0862.22
2015 04 09 13 57 19 .81     107    -40    -31    115    120 110.8 -15.4  34090  288.40 0862.22
2015 04 09 13 57 20 .07      86    -68     26    110    114 128.2  13.7  34060  287.89 0862.22
2015 04 09 13 57 20 .32      84    -84     52    120    130 135.0  25.1  34088  288.35 0862.22
2015 04 09 13 57 20 .56      94    -72     74    119    140 127.3  35.5  34106  288.67 0862.22
2015 04 09 13 57 20 .82     122    -57     36    135    140 115.2  15.3  34074  288.13 0862.22
2015 04 09 13 57 21 .06      98    -62     21    117    119 122.4  10.6  34080  288.21 0862.22
2015 04 09 13 57 21 .33     106    -39     29    114    118 110.4  14.7  34100  288.55 0862.22
2015 04 09 13 57 21 .57     115    -13     18    116    118  96.6   8.9  34100  288.55 0862.22
2015 04 09 13 57 21 .81     116    -23    -19    119    121 101.4  -9.4  34012  287.06 0862.22
2015 04 09 13 57 22 .07     121    -40    -30    128    132 108.6 -13.4  33998  286.84 0862.22
2015 04 09 13 57 22 .32     111    -38    -18    118    120 109.1  -8.8  34014  287.10 0862.22
2015 04 09 13 57 22 .57     122    -48    -16    132    134 111.7  -7.2  34012  287.06 0862.22
2015 04 09 13 57 22 .82     126    -49      1    136    137 111.3   0.8  34008  287.01 0862.22
2015 04 09 13 57 23 .07     133    -53      2    144    145 111.7   0.8  33998  286.84 0862.22
2015 04 09 13 57 23 .32     127    -42      6    135    136 108.6   2.8  33998  286.83 0862.22
2015 04 09 13 57 23 .57     122    -36      6    128    129 106.8   2.9  34002  286.91 0862.22
2015 04 09 13 57 23 .82     110    -32      8    115    116 106.4   4.4  34006  286.98 0862.22
2015 04 09 13 57 24 .07     108    -36      5    115    116 108.6   2.9  34006  286.96 0862.22
2015 04 09 13 57 24 .32     112    -39     10    119    120 109.5   4.9  34014  287.10 0862.22
2015 04 09 13 57 24 .58     122    -47     11    132    133 111.3   4.9  34020  287.21 0862.22
2015 04 09 13 57 24 .82     106    -45     10    116    117 113.1   5.0  34028  287.35 0862.22
2015 04 09 13 57 25 .07     111    -51     12    123    124 114.8   5.9  34020  287.21 0862.22
2015 04 09 13 57 25 .32     119    -43      1    127    128 110.0   0.8  34012  287.06 0862.22
2015 04 09 13 57 25 .59     104    -46     -1    114    115 114.0  -0.7  34014  287.11 0862.22
2015 04 09 13 57 25 .84      95    -35      2    102    103 110.4   1.2  34016  287.15 0862.22
2015 04 09 13 57 26 .08      84    -37      1     92     93 114.0   1.2  34020  287.20 0862.22
2015 04 09 13 57 26 .34      92    -30      4     97     98 108.2   2.9  34026  287.30 0862.22
2015 04 09 13 57 26 .59      88    -42     11     98     99 115.8   6.5  34022  287.25 0862.22
2015 04 09 13 57 26 .84      96    -41      5    105    106 113.1   2.9  34016  287.15 0862.22
2015 04 09 13 57 27 .09      98    -56      4    113    114 119.8   2.3  34014  287.11 0862.22
2015 04 09 13 57 27 .35     103    -52      2    116    117 117.1   1.2  34030  287.38 0862.22
2015 04 09 13 57 27 .59     100    -54      5    114    115 118.4   2.9  34042  287.57 0862.22
2015 04 09 13 57 27 .84      98    -60      5    116    117 121.5   2.9  34054  287.79 0862.22
2015 04 09 13 57 28 .09      91    -57     -7    108    109 122.4  -4.1  34044  287.62 0862.22
2015 04 09 13 57 28 .34      96    -43     -1    106    107 114.0  -0.7  34058  287.86 0862.22
2015 04 09 13 57 28 .59     100    -40     -2    108    109 111.8  -1.3  34062  287.92 0862.22
2015 04 09 13 57 28 .84     126    -19     -2    128    129  98.8  -1.3  34060  287.87 0862.22
2015 04 09 13 57 29 .10     100    -37    -13    107    108 110.4  -7.3  34066  287.98 0862.22
2015 04 09 13 57 29 .35      73      5     -2     74     75  85.6  -2.2  34074  288.13 0862.22
2015 04 09 13 57 29 .60      71     14     25     73     78  78.6  18.9  34084  288.28 0862.22
2015 04 09 13 57 29 .85      86      5     47     87     98  86.5  31.3  34100  288.57 0862.22
2015 04 09 13 57 30 .10      65      0     36     66     75  90.0  31.4  34104  288.64 0862.22
2015 04 09 13 57 30 .35      62    -12     61     64     88 101.4  49.4  34128  289.04 0862.22
2015 04 09 13 57 30 .60      66    -28     68     72     99 113.5  48.5  34140  289.23 0862.22
2015 04 09 13 57 30 .85      62    -58     52     85     99 133.1  34.4  34132  289.09 0862.22
2015 04 09 13 57 31 .10      74   -102     21    127    129 144.0   9.5  34120  288.91 0862.22
2015 04 09 13 57 31 .35      96   -104     27    142    145 137.2  11.1  34052  287.74 0862.21
2015 04 09 13 57 31 .61     105    -94     25    142    145 131.8  10.1  34054  287.79 0862.21
2015 04 09 13 57 31 .85     110    -80      1    137    138 126.0   0.7  34042  287.59 0862.21
2015 04 09 13 57 32 .10      98   -101     -7    141    142 135.9  -3.1  34044  287.60 0862.21
2015 04 09 13 57 32 .35      86    -97     -5    130    131 138.6  -2.2  34054  287.79 0862.21
2015 04 09 13 57 32 .61      99   -112    -12    150    151 138.6  -4.6  34056  287.81 0862.21
2015 04 09 13 57 32 .87      95   -101    -12    139    140 136.8  -5.2  34066  287.99 0862.21
2015 04 09 13 57 33 .11      60   -104     29    121    125 150.1  13.7  34136  289.18 0862.22
2015 04 09 13 57 33 .36      71   -111      6    132    133 147.4   2.8  34126  288.99 0862.22
2015 04 09 13 57 33 .62      91   -126      1    156    157 143.9   0.5  34094  288.45 0862.22
2015 04 09 13 57 33 .87      89   -139      6    166    167 147.3   2.3  34114  288.79 0862.22
2015 04 09 13 57 34 .11      87   -120     18    149    151 143.9   7.1  34108  288.70 0862.22
2015 04 09 13 57 34 .37      95    -86      6    129    130 132.2   2.9  34084  288.30 0862.22
2015 04 09 13 57 34 .62      74   -105      0    129    130 144.8   0.2  34076  288.14 0862.22
2015 04 09 13 57 34 .87      92    -92     10    131    132 135.0   4.4  34070  288.04 0862.21
2015 04 09 13 57 35 .12      88   -106      7    138    139 140.3   2.9  34068  288.03 0862.21
2015 04 09 13 57 35 .37      79   -114     -3    139    140 145.3  -1.3  34070  288.06 0862.21
2015 04 09 13 57 35 .62      47   -116     15    126    127 157.7   6.9  34076  288.14 0862.21
2015 04 09 13 57 35 .87      52   -117     21    129    131 155.9   9.5  34076  288.14 0862.21
2015 04 09 13 57 36 .12      87   -136      2    162    163 147.4   1.0  34060  287.89 0862.21
2015 04 09 13 57 36 .37      86   -137     13    162    163 147.9   4.9  34068  288.01 0862.21
2015 04 09 13 57 36 .63     112   -106     17    155    157 133.6   6.5  34074  288.13 0862.21
2015 04 09 13 57 36 .88     138    -95     47    168    175 124.6  15.8  34130  289.06 0862.21
2015 04 09 13 57 37 .12     140    -77     53    160    169 118.9  18.4  34138  289.21 0862.21
2015 04 09 13 57 37 .38     149    -66     45    164    171 114.0  15.6  34096  288.48 0862.21
2015 04 09 13 57 37 .63     117    -69     49    136    144 120.7  20.0  34102  288.58 0862.21
2015 04 09 13 57 37 .88     127    -74     40    147    153 120.2  15.3  34104  288.64 0862.21
2015 04 09 13 57 38 .13     134    -68     49    151    159 117.0  18.1  34116  288.82 0862.21
2015 04 09 13 57 38 .37     121   -116     71    168    182 133.8  24.1  34102  288.60 0862.21
2015 04 09 13 57 38 .62     152    -98     70    182    195 122.9  21.7  34074  288.13 0862.21
2015 04 09 13 57 38 .88     155   -107      7    189    190 124.6   2.3  34010  287.03 0862.21
2015 04 09 13 57 39 .13     142   -117     23    185    187 129.5   7.1  34020  287.20 0862.21
2015 04 09 13 57 39 .40     164   -104     30    195    198 122.4   8.8  34066  287.98 0862.21
2015 04 09 13 57 39 .64     185    -42      5    190    191 102.8   1.8  34140  289.24 0862.21
2015 04 09 13 57 39 .89     171    -48     13    178    179 105.9   4.2  34048  287.67 0862.21
2015 04 09 13 57 40 .14     223      0     -8    224    225  90.0  -2.2  34088  288.36 0862.21
2015 04 09 13 57 40 .39     231      0     -5    232    233  90.0  -1.3  34008  287.01 0862.21
2015 04 09 13 57 40 .64     205      8     19    206    207  87.5   5.4  34120  288.89 0862.21
2015 04 09 13 57 40 .89     200      0     33    201    204  90.0   9.5  34050  287.72 0862.21
2015 04 09 13 57 41 .15     182      8     25    183    185  87.4   7.8  34082  288.25 0862.21
2015 04 09 13 57 41 .39     182     13     28    183    186  85.9   8.8  34114  288.79 0862.21
2015 04 09 13 57 41 .65     194      5     34    195    199  88.5  10.1  34014  287.11 0862.21
2015 04 09 13 57 41 .90     170    -27     69    173    186  99.0  23.0  34072  288.08 0862.21
2015 04 09 13 57 42 .15     168    -50     67    176    188 106.6  21.7  34142  289.28 0862.20
2015 04 09 13 57 42 .39     156    -40     56    162    172 104.6  19.2  34182  289.94 0862.20
2015 04 09 13 57 42 .65     165    -81     63    184    195 116.2  18.9  34156  289.50 0862.20
2015 04 09 13 57 42 .90     116   -120     27    168    171 135.9   9.3  34128  289.04 0862.20
2015 04 09 13 57 43 .15     113   -108     16    157    158 133.6   6.1  34128  289.04 0862.20
2015 04 09 13 57 43 .40     148    -82     45    170    176 118.9  15.0  34146  289.33 0862.20
2015 04 09 13 57 43 .65     178    -59     28    188    191 108.4   8.5  34086  288.31 0862.20
2015 04 09 13 57 43 .90     163    -53     37    172    176 108.2  12.2  34094  288.45 0862.21
2015 04 09 13 57 44 .15     152    -48     23    160    162 107.7   8.5  34000  286.88 0862.21
2015 04 09 13 57 44 .40     132    -15     19    133    135  96.6   8.5  34038  287.52 0862.21
2015 04 09 13 57 44 .66     141    -51     18    151    153 110.0   7.1  34046  287.65 0862.21
2015 04 09 13 57 44 .90     122    -48     27    132    135 111.7  11.6  34062  287.91 0862.21
2015 04 09 13 57 45 .15     129    -40      6    136    137 107.3   2.9  33996  286.79 0862.21
2015 04 09 13 57 45 .40     135    -36      0    140    141 105.1  -0.3  33990  286.71 0862.21
2015 04 09 13 57 45 .66     135    -49      5    144    145 109.9   2.3  34004  286.93 0862.21
2015 04 09 13 57 45 .90     125    -42      2    132    133 108.6   1.2  33992  286.74 0862.21
2015 04 09 13 57 46 .15     126    -55     -7    138    139 113.5  -3.1  33990  286.69 0862.21
2015 04 09 13 57 46 .41     125    -42     -5    132    133 108.6  -2.2  33988  286.67 0862.21
2015 04 09 13 57 46 .66     119    -40    -16    126    128 108.6  -7.2  33990  286.69 0862.21
2015 04 09 13 57 46 .92     121    -36    -13    127    128 106.8  -6.2  33992  286.73 0862.21
2015 04 09 13 57 47 .16     119    -24     -7    122    123 101.4  -3.7  33994  286.78 0862.21
2015 04 09 13 57 47 .42     103    -20    -11    106    107 101.4  -6.2  33986  286.64 0862.21
2015 04 09 13 57 47 .67      99    -13    -14    100    102  97.9  -8.2  33986  286.64 0862.21
2015 04 09 13 57 47 .92     106      0    -18    107    109  89.6  -9.8  34008  287.00 0862.21
2015 04 09 13 57 48 .16     110      0     -4    111    112  90.0  -2.2  34004  286.93 0862.21
2015 04 09 13 57 48 .42     101      1     18    102    104  89.2  10.1  34014  287.11 0862.21
2015 04 09 13 57 48 .67     109      1     28    110    114  89.2  14.3  34042  287.59 0862.21
2015 04 09 13 57 48 .92     101    -13     11    102    103  97.5   6.5  34030  287.37 0862.21
2015 04 09 13 57 49 .17      99     -7     15    100    102  94.4   9.0  34032  287.40 0862.21
2015 04 09 13 57 49 .42     109    -16     10    111    112  98.4   5.4  34038  287.52 0862.21
2015 04 09 13 57 49 .67     112    -12     13    113    114  96.6   6.9  34066  287.98 0862.21
2015 04 09 13 57 49 .92     110      0      9    111    112  90.0   4.9  34074  288.11 0862.21
2015 04 09 13 57 50 .18     104     -7     20    105    108  94.3  11.1  34082  288.26 0862.21
2015 04 09 13 57 50 .42     107    -20     37    109    116 100.6  18.9  34086  288.31 0862.21
2015 04 09 13 57 50 .67     102    -14     29    104    109  98.0  15.8  34090  288.40 0862.21
2015 04 09 13 57 50 .92     116    -16     45    118    126  97.9  21.5  34070  288.04 0862.21
2015 04 09 13 57 51 .17     120      0     49    121    130  90.0  23.1  34066  287.99 0862.21
2015 04 09 13 57 51 .43     119     -3     54    120    131  91.7  26.2  34082  288.26 0862.21
2015 04 09 13 57 51 .68     130    -24     65    133    148 100.6  27.3  34164  289.63 0862.21
2015 04 09 13 57 51 .92     129    -12     33    130    135  95.7  14.3  34198  290.23 0862.21
2015 04 09 13 57 52 .19     147     -7     48    148    156  93.0  17.9  34180  289.91 0862.21
2015 04 09 13 57 52 .43     159     12     65    160    172  85.6  23.0  34270  291.45 0862.21
2015 04 09 13 57 52 .67     138     28     60    141    153  78.5  24.1  34244  290.99 0862.21
2015 04 09 13 57 52 .93     131     14     58    132    144  83.8  25.2  34174  289.82 0862.21
2015 04 09 13 57 53 .18     121     13     64    122    137  83.8  29.8  34190  290.09 0862.21
2015 04 09 13 57 53 .44     102    -17     79    104    130  99.7  41.6  34214  290.48 0862.21
2015 04 09 13 57 53 .69     112    -37     61    119    133 108.6  29.3  34224  290.65 0862.21
2015 04 09 13 57 53 .95     119    -43     57    127    139 110.0  26.2  34280  291.62 0862.20
2015 04 09 13 57 54 .19     118    -65     31    135    139 118.9  13.2  34224  290.67 0862.20
2015 04 09 13 57 54 .45      71    -73     41    103    110 135.9  23.0  34238  290.89 0862.20
2015 04 09 13 57 54 .69      88    -88     56    125    136 134.9  25.7  34258  291.25 0862.20
2015 04 09 13 57 54 .94      91    -86     34    126    131 133.2  15.3  34040  287.54 0862.20
2015 04 09 13 57 55 .20     154    -78     -2    173    174 116.9  -0.7  34034  287.45 0862.20
2015 04 09 13 57 55 .45     144    -85     24    168    170 120.6   8.2  34132  289.11 0862.20
2015 04 09 13 57 55 .70     110   -101     64    150    163 132.7  24.3  34302  292.00 0862.20
2015 04 09 13 57 55 .95     114    -84     36    142    147 126.4  14.3  34090  288.38 0862.20
2015 04 09 13 57 56 .19     127    -64     32    143    147 117.0  12.6  34084  288.30 0862.20
2015 04 09 13 57 56 .45     132    -93      8    162    163 125.1   2.9  34000  286.88 0862.20
2015 04 09 13 57 56 .70     143    -91     16    170    171 122.4   5.4  34062  287.92 0862.21
2015 04 09 13 57 56 .95     146    -92     36    173    177 122.4  12.0  34052  287.76 0862.21
2015 04 09 13 57 57 .20     145    -92     21    172    174 122.4   7.2  34044  287.60 0862.21
2015 04 09 13 57 57 .44     162    -76     16    180    181 115.3   5.2  34034  287.43 0862.21
2015 04 09 13 57 57 .71     156   -107      9    190    191 124.4   2.8  34032  287.42 0862.21
2015 04 09 13 57 57 .95     136    -89     27    163    166 123.3   9.5  34050  287.70 0862.21
2015 04 09 13 57 58 .20     142    -67     18    158    160 115.4   6.7  34016  287.15 0862.21
2015 04 09 13 57 58 .45     152    -98     35    181    185 122.9  11.0  34020  287.20 0862.21
2015 04 09 13 57 58 .70     161    -90     36    185    189 119.3  11.1  34008  287.01 0862.21
2015 04 09 13 57 58 .96     152    -95     44    180    186 122.0  13.9  34098  288.52 0862.21
2015 04 09 13 57 59 .20     139    -65     54    154    163 115.2  20.0  34120  288.91 0862.21
2015 04 09 13 57 59 .45     151    -71     38    168    173 115.3  12.9  34016  287.15 0862.21
2015 04 09 13 57 59 .71     170    -57     29    180    183 108.6   9.3  34044  287.62 0862.21
2015 04 09 13 57 59 .96     188    -51     16    195    196 105.3   4.9  34082  288.25 0862.21
2015 04 09 13 58 00 .22     191    -63     24    202    204 108.2   6.9  34088  288.35 0862.21
2015 04 09 13 58 00 .47     191    -61     11    201    202 107.7   3.3  34076  288.16 0862.21
2015 04 09 13 58 00 .72     174    -58     14    184    185 108.6   4.4  34096  288.50 0862.21
2015 04 09 13 58 00 .97     175    -57     -5    185    186 108.2  -1.6  34018  287.18 0862.21
2015 04 09 13 58 01 .21     195    -55     15    203    204 105.9   4.4  34044  287.60 0862.20
2015 04 09 13 58 01 .47     172    -57     -1    182    183 108.6  -0.5  34026  287.30 0862.20
2015 04 09 13 58 01 .72     171    -69      5    185    186 112.2   1.8  34110  288.72 0862.20
2015 04 09 13 58 01 .97     159    -62     18    171    172 111.3   6.1  34090  288.38 0862.20
2015 04 09 13 58 02 .22     170    -48     21    177    179 105.9   6.9  34098  288.52 0862.20
2015 04 09 13 58 02 .47     166    -60     29    177    180 110.0   9.5  34114  288.80 0862.20
2015 04 09 13 58 02 .72     169    -45     11    175    176 105.1   3.6  34072  288.08 0862.20
2015 04 09 13 58 02 .98     147    -49      4    156    157 108.6   1.8  34070  288.06 0862.20
2015 04 09 13 58 03 .22     154    -46      3    161    162 106.8   1.2  34058  287.84 0862.20
2015 04 09 13 58 03 .47     146    -51    -20    155    157 109.5  -7.3  34014  287.10 0862.20
2015 04 09 13 58 03 .72     129    -61    -29    143    146 115.4 -11.5  34000  286.88 0862.20
2015 04 09 13 58 03 .98     145    -47    -19    153    155 108.2  -7.3  34024  287.28 0862.20
2015 04 09 13 58 04 .23     147    -28    -28    150    153 101.0 -10.9  34024  287.28 0862.20
2015 04 09 13 58 04 .48     142    -19    -40    144    150  97.9 -15.5  34010  287.05 0862.20
2015 04 09 13 58 04 .72     125     -7    -38    126    131  93.5 -21.8  34004  286.93 0862.20
2015 04 09 13 58 04 .98     137    -51    -21    147    149 110.4  -8.2  34006  286.96 0862.20
2015 04 09 13 58 05 .23     126    -54    -13    138    139 113.1  -5.6  34010  287.05 0862.20
2015 04 09 13 58 05 .48     113    -41    -28    121    125 109.9 -13.3  33998  286.83 0862.20
2015 04 09 13 58 05 .73     149    -67    -29    164    167 114.4 -10.3  34004  286.93 0862.20
2015 04 09 13 58 05 .98     142    -61    -15    155    156 113.5  -5.6  34004  286.93 0862.20
2015 04 09 13 58 06 .23     124   -119     12    172    173 133.8   4.2  33994  286.78 0862.20
2015 04 09 13 58 06 .48     145   -109     22    182    184 127.1   6.9  34000  286.88 0862.20
2015 04 09 13 58 06 .73     168   -107     18    200    201 122.4   5.4  34024  287.27 0862.20
2015 04 09 13 58 06 .98     160   -103     23    191    193 122.9   7.1  34030  287.38 0862.20
2015 04 09 13 58 07 .24     167    -89     24    190    192 118.2   7.2  34006  286.96 0862.20
2015 04 09 13 58 07 .49     162    -91     19    186    188 119.3   6.1  34006  286.96 0862.20
2015 04 09 13 58 07 .75     154    -86     28    177    180 119.1   9.0  34022  287.25 0862.20
2015 04 09 13 58 07 .99     161   -103     17    192    193 122.6   5.2  34064  287.94 0862.20
2015 04 09 13 58 08 .24     175   -111     25    208    210 122.5   6.9  34036  287.49 0862.20
2015 04 09 13 58 08 .50     157    -94     20    184    186 120.9   6.5  34086  288.31 0862.20
2015 04 09 13 58 08 .74     143   -106     60    179    189 126.6  18.6  34114  288.79 0862.20
2015 04 09 13 58 08 .99     162   -103      9    193    194 122.4   2.8  33988  286.67 0862.20
2015 04 09 13 58 09 .25     156   -107     14    190    191 124.6   4.4  33986  286.64 0862.20
2015 04 09 13 58 09 .50     160   -106      6    193    194 123.5   1.8  33986  286.64 0862.20
2015 04 09 13 58 09 .75     172   -109      7    204    205 122.4   2.1  34014  287.10 0862.20
2015 04 09 13 58 10 .00     150   -107     26    185    187 125.5   8.0  34062  287.92 0862.20
2015 04 09 13 58 10 .25     171   -102     29    200    203 120.9   8.5  34084  288.28 0862.20
2015 04 09 13 58 10 .50     160   -106     28    193    196 123.5   8.2  34004  286.93 0862.20
2015 04 09 13 58 10 .75     157   -103     27    188    190 123.3   8.2  33998  286.84 0862.20
2015 04 09 13 58 11 .00     159    -96     25    186    188 121.1   7.8  33984  286.59 0862.20
2015 04 09 13 58 11 .25     145    -92     26    172    175 122.5   8.8  33990  286.69 0862.20
2015 04 09 13 58 11 .50     149    -94     22    177    179 122.4   7.2  33998  286.83 0862.20
2015 04 09 13 58 11 .76     151   -102     21    183    185 124.0   6.7  34002  286.91 0862.20
2015 04 09 13 58 12 .01     140   -112      5    180    181 128.9   1.8  34008  287.01 0862.20
2015 04 09 13 58 12 .26     138   -128      5    189    190 132.7   1.6  34024  287.28 0862.20
2015 04 09 13 58 12 .51     143   -123     23    189    191 130.7   7.1  34076  288.16 0862.20
2015 04 09 13 58 12 .76     134   -120     22    181    183 131.8   7.2  34076  288.16 0862.20
2015 04 09 13 58 13 .00     121   -100     38    158    163 129.6  13.5  34072  288.08 0862.20
2015 04 09 13 58 13 .26     118    -99     40    155    161 130.0  14.7  34090  288.38 0862.20
2015 04 09 13 58 13 .51     110   -103     13    152    153 133.1   5.0  33984  286.61 0862.20
2015 04 09 13 58 13 .75     109   -102      7    150    151 133.1   2.8  33986  286.64 0862.20
2015 04 09 13 58 14 .02     118    -98      7    154    155 129.6   2.8  34008  287.01 0862.20
2015 04 09 13 58 14 .27     129   -118     33    175    179 132.4  10.8  34134  289.14 0862.20
2015 04 09 13 58 14 .52     130    -99     46    164    171 127.3  15.8  34188  290.04 0862.20
2015 04 09 13 58 14 .77     125    -81     25    150    153 122.9   9.5  34042  287.57 0862.20
2015 04 09 13 58 15 .03     108   -101     28    148    151 133.1  11.0  34008  287.01 0862.20
2015 04 09 13 58 15 .27     127    -96     21    160    162 127.3   7.8  33986  286.64 0862.20
2015 04 09 13 58 15 .52     121   -100     19    158    160 129.5   6.9  33982  286.56 0862.20
2015 04 09 13 58 15 .77     118   -107     29    160    163 132.2  10.6  33978  286.51 0862.20
2015 04 09 13 58 16 .03     114   -107     40    157    163 133.2  14.5  34000  286.88 0862.20
2015 04 09 13 58 16 .27     125   -117     40    172    177 132.9  13.2  34000  286.86 0862.20
2015 04 09 13 58 16 .52     122   -108     17    164    165 131.4   6.1  33982  286.56 0862.20
2015 04 09 13 58 16 .77     128   -108     15    168    169 130.2   5.4  33984  286.59 0862.20
2015 04 09 13 58 17 .04     107   -107     10    152    153 134.9   3.8  33998  286.84 0862.20
2015 04 09 13 58 17 .28      90    -96      6    132    133 136.7   2.9  34020  287.20 0862.20
2015 04 09 13 58 17 .52     113    -87      7    143    144 127.8   2.9  33996  286.81 0862.20
2015 04 09 13 58 17 .77     111    -98      2    149    150 131.3   0.8  33992  286.74 0862.20
2015 04 09 13 58 18 .02     111    -94     -1    146    147 130.4  -0.7  33984  286.61 0862.20
2015 04 09 13 58 18 .27     117   -106      6    158    159 132.2   2.3  33986  286.64 0862.20
2015 04 09 13 58 18 .52     114   -102      6    154    155 131.8   2.3  33984  286.61 0862.20
2015 04 09 13 58 18 .78     109   -102     -3    150    151 133.1  -1.2  33984  286.61 0862.20
2015 04 09 13 58 19 .03     102    -99      7    143    144 134.0   2.8  33984  286.59 0862.20
2015 04 09 13 58 19 .28     105   -102      8    147    148 134.4   3.3  33984  286.61 0862.20
2015 04 09 13 58 19 .53     105   -102      8    147    148 134.4   3.3  33984  286.61 0862.20
2015 04 09 13 58 19 .78     116   -116      2    165    166 135.1   1.0  33984  286.61 0862.20
2015 04 09 13 58 20 .03     127   -123      7    177    178 134.0   2.5  33988  286.66 0862.20
2015 04 09 13 58 20 .28     125   -125      5    178    179 135.0   1.8  33986  286.64 0862.20
2015 04 09 13 58 20 .53     128   -106      8    167    168 129.8   2.8  33988  286.66 0862.20
2015 04 09 13 58 20 .78     139    -98     -6    171    172 125.1  -2.2  33992  286.73 0862.20
2015 04 09 13 58 21 .03     137    -90      4    164    165 123.3   1.6  33992  286.73 0862.20
2015 04 09 13 58 21 .29     138    -94      6    168    169 124.2   2.1  33992  286.74 0862.20
2015 04 09 13 58 21 .54     137    -89     10    164    165 122.9   3.6  33990  286.69 0862.20
2015 04 09 13 58 21 .79     132    -93      8    162    163 125.1   2.9  33988  286.67 0862.20
2015 04 09 13 58 22 .05     138    -94      6    168    169 124.2   2.1  33992  286.74 0862.20
2015 04 09 13 58 22 .30     145    -93      8    173    174 122.9   2.9  33996  286.79 0862.20
2015 04 09 13 58 22 .55     136   -100     20    170    172 126.4   6.7  33996  286.81 0862.20
2015 04 09 13 58 22 .80     148    -92     26    175    177 122.0   8.5  34012  287.06 0862.20
2015 04 09 13 58 23 .05     141    -82      1    164    165 120.2   0.5  34006  286.96 0862.20
2015 04 09 13 58 23 .30     149    -94     -6    177    178 122.2  -2.2  34000  286.88 0862.20
2015 04 09 13 58 23 .55     152    -98      3    181    182 122.9   1.0  34010  287.05 0862.20
2015 04 09 13 58 23 .80     154   -103      5    186    187 123.7   1.8  34002  286.89 0862.20
2015 04 09 13 58 24 .05     144   -110     22    182    184 127.5   6.9  33998  286.83 0862.20
2015 04 09 13 58 24 .30     139   -113     21    180    182 129.1   6.7  33994  286.76 0862.20
2015 04 09 13 58 24 .55     139    -76      5    159    160 118.9   2.1  34002  286.91 0862.20
2015 04 09 13 58 24 .80     121    -85    -14    149    150 125.1  -5.6  34008  287.00 0862.20
2015 04 09 13 58 25 .05     126    -96     -6    159    160 127.3  -2.3  33986  286.64 0862.20
2015 04 09 13 58 25 .30     133    -96     -9    165    166 126.0  -3.1  33984  286.61 0862.20
2015 04 09 13 58 25 .55     125   -103    -17    163    164 129.5  -6.0  33986  286.62 0862.20
2015 04 09 13 58 25 .80     136   -100    -15    170    171 126.4  -5.2  33988  286.66 0862.20
2015 04 09 13 58 26 .06     132   -107     -6    171    172 129.1  -2.2  34020  287.21 0862.20
2015 04 09 13 58 26 .30     122   -111     12    166    167 132.2   4.2  34060  287.87 0862.20
2015 04 09 13 58 26 .56     115    -95     19    150    152 129.5   7.5  34030  287.37 0862.20
2015 04 09 13 58 26 .81      96    -96     14    136    137 134.9   5.9  34020  287.20 0862.20
2015 04 09 13 58 27 .06      86   -109     -2    140    141 141.7  -1.2  34024  287.28 0862.20
2015 04 09 13 58 27 .31     102    -99      7    143    144 134.0   2.8  34030  287.38 0862.20
2015 04 09 13 58 27 .55     118    -98     -8    154    155 129.6  -3.1  34000  286.86 0862.20
2015 04 09 13 58 27 .81     111   -111     -1    157    158 135.0  -0.7  33998  286.83 0862.20
2015 04 09 13 58 28 .07     103   -106     -3    148    149 135.9  -1.2  33982  286.56 0862.20
2015 04 09 13 58 28 .32     106   -109      2    153    154 135.9   0.8  33980  286.52 0862.20
2015 04 09 13 58 28 .57     109   -102      7    150    151 133.1   2.8  33980  286.52 0862.19
2015 04 09 13 58 28 .82     112   -112     -4    159    160 134.8  -1.6  33980  286.54 0862.19
2015 04 09 13 58 29 .07     117   -108     12    160    161 132.7   4.6  33982  286.56 0862.19
2015 04 09 13 58 29 .32     116   -107     -1    159    160 132.7  -0.5  33982  286.56 0862.19
2015 04 09 13 58 29 .57     116   -107     -6    159    160 132.7  -2.3  33984  286.59 0862.19
2015 04 09 13 58 29 .82     111    -98      2    149    150 131.3   0.8  33984  286.59 0862.19
2015 04 09 13 58 30 .07     112    -91     -5    145    146 129.1  -2.2  33984  286.61 0862.19
2015 04 09 13 58 30 .32     112    -84     -7    140    141 126.9  -3.2  33988  286.66 0862.20
2015 04 09 13 58 30 .57      99    -87    -20    133    135 131.3  -8.8  33986  286.64 0862.20
2015 04 09 13 58 30 .83     102    -79    -16    130    132 127.8  -7.2  34000  286.86 0862.20
2015 04 09 13 58 31 .08     129    -69     12    147    148 118.0   4.9  34008  287.01 0862.20
2015 04 09 13 58 31 .33     149    -77     15    168    169 117.5   5.4  34006  286.96 0862.20
2015 04 09 13 58 31 .58     138    -94     30    168    171 124.2  10.1  34006  286.98 0862.20
2015 04 09 13 58 31 .83     143   -102     33    176    180 125.5  10.8  34008  287.00 0862.20
2015 04 09 13 58 32 .08     137   -105     38    173    178 127.5  12.6  34004  286.93 0862.20
2015 04 09 13 58 32 .33     139    -93     45    168    174 123.7  15.0  34008  287.00 0862.20
2015 04 09 13 58 32 .58     120    -81     35    145    150 124.1  13.7  34000  286.88 0862.20
2015 04 09 13 58 32 .83     119    -77     41    142    148 122.9  16.3  34008  287.00 0862.20
2015 04 09 13 58 33 .08     105   -102     54    147    156 134.0  20.9  34014  287.10 0862.20
2015 04 09 13 58 33 .33      97   -116     52    152    161 140.3  19.2  34014  287.10 0862.20
2015 04 09 13 58 33 .58      91   -116     46    148    156 141.7  17.3  34010  287.05 0862.20
2015 04 09 13 58 33 .84      93   -113     41    147    153 140.3  15.8  34012  287.08 0862.20
2015 04 09 13 58 34 .08      68   -103     14    124    125 146.6   6.9  34022  287.25 0862.20
2015 04 09 13 58 34 .33      87    -82      6    120    121 133.2   3.3  34014  287.11 0862.20
2015 04 09 13 58 34 .59     101   -101     18    144    146 135.0   7.1  34020  287.20 0862.20
2015 04 09 13 58 34 .83      82   -136     -1    159    160 148.8  -0.7  34014  287.10 0862.20
2015 04 09 13 58 35 .10      79   -114     12    139    140 145.3   5.0  34044  287.60 0862.20
2015 04 09 13 58 35 .34      88   -138    -15    164    165 147.5  -5.4  34036  287.47 0862.20
2015 04 09 13 58 35 .59     100   -120      1    157    158 140.4   0.5  34002  286.89 0862.20
2015 04 09 13 58 35 .85     103   -113      7    154    155 137.7   2.8  34002  286.91 0862.20
2015 04 09 13 58 36 .10      99   -122     16    158    159 140.8   5.9  34002  286.91 0862.20
2015 04 09 13 58 36 .35     108   -122      9    164    165 138.5   3.3  34002  286.91 0862.20
2015 04 09 13 58 36 .60     111   -118     13    163    164 136.8   4.9  34000  286.88 0862.20
2015 04 09 13 58 36 .85     115   -123     25    169    171 137.0   8.5  33992  286.73 0862.20
2015 04 09 13 58 37 .10     117   -117     19    166    168 135.1   6.7  33994  286.78 0862.20
2015 04 09 13 58 37 .35     110   -124     27    166    169 138.5   9.5  33986  286.64 0862.20
2015 04 09 13 58 37 .60     102   -116     30    155    158 138.6  11.1  33986  286.64 0862.20
2015 04 09 13 58 37 .85      99    -99     33    141    145 134.9  13.2  33996  286.79 0862.20
2015 04 09 13 58 38 .10     123   -107     19    164    166 130.9   6.7  33992  286.73 0862.20
2015 04 09 13 58 38 .35     126   -104     20    164    166 129.5   7.2  34008  287.01 0862.20
2015 04 09 13 58 38 .60     136   -104      8    172    173 127.5   2.9  34004  286.93 0862.20
2015 04 09 13 58 38 .85     164    -80      3    183    184 116.0   1.0  34016  287.15 0862.20
2015 04 09 13 58 39 .10     147   -116     10    188    189 128.2   3.3  34006  286.98 0862.20
2015 04 09 13 58 39 .35     135   -110      0    175    176 129.3   0.0  33996  286.79 0862.20
2015 04 09 13 58 39 .61     147   -123      7    192    193 130.0   2.1  33992  286.74 0862.20
2015 04 09 13 58 39 .86     169   -111      3    203    204 123.3   1.0  34012  287.06 0862.20
2015 04 09 13 58 40 .11     186   -100     12    212    213 118.2   3.3  34002  286.91 0862.20
2015 04 09 13 58 40 .36     169    -80      8    188    189 115.3   2.5  34010  287.05 0862.20
2015 04 09 13 58 40 .61     165    -96      9    192    193 120.2   2.8  34004  286.93 0862.20
2015 04 09 13 58 40 .86     161   -105      9    193    194 123.1   2.9  34004  286.93 0862.20
2015 04 09 13 58 41 .11     166   -100     -5    194    195 121.1  -1.6  34002  286.91 0862.20
2015 04 09 13 58 41 .36     177    -80     -6    195    196 114.4  -1.8  34022  287.23 0862.20
2015 04 09 13 58 41 .61     166    -59     -7    177    178 109.7  -2.3  34024  287.28 0862.20
2015 04 09 13 58 41 .86     171    -48      5    178    179 105.9   1.8  34028  287.33 0862.20
2015 04 09 13 58 42 .12     148    -51     -1    157    158 109.1  -0.5  34016  287.13 0862.20
2015 04 09 13 58 42 .37     137    -74     11    156    157 118.4   4.2  34014  287.11 0862.20
2015 04 09 13 58 42 .62     140    -72      8    158    159 117.5   3.1  34008  287.00 0862.20
2015 04 09 13 58 42 .87     132    -74     22    152    154 119.3   8.5  34020  287.21 0862.20
2015 04 09 13 58 43 .12     121    -73     12    142    143 121.1   4.9  34012  287.06 0862.20
2015 04 09 13 58 43 .38     122    -73      5    143    144 121.1   2.3  34004  286.93 0862.20
2015 04 09 13 58 43 .62     145    -60     -9    158    159 112.6  -3.3  34010  287.05 0862.20
2015 04 09 13 58 43 .87     127    -81      1    151    152 122.5   0.7  34000  286.86 0862.20
2015 04 09 13 58 44 .12     130    -83      0    155    156 122.4  -0.3  34000  286.88 0862.20
2015 04 09 13 58 44 .38     135    -77      8    156    157 119.8   3.3  34012  287.08 0862.20
2015 04 09 13 58 44 .63     130    -83     12    155    156 122.4   4.6  34032  287.42 0862.19
2015 04 09 13 58 44 .88     117    -96     43    152    159 129.5  15.8  34096  288.50 0862.19
2015 04 09 13 58 45 .12     109    -85     43    139    146 128.2  17.3  34084  288.28 0862.19
2015 04 09 13 58 45 .38      91    -86     44    126    134 133.2  19.4  34092  288.42 0862.19
2015 04 09 13 58 45 .64     101    -83     42    132    139 129.5  17.9  34088  288.36 0862.19
2015 04 09 13 58 45 .88     103   -100     58    144    155 134.0  23.0  34120  288.91 0862.19
2015 04 09 13 58 46 .13     104    -91     59    139    151 131.3  24.6  34102  288.58 0862.19
2015 04 09 13 58 46 .38     152    -84     25    174    176 118.9   8.2  34084  288.30 0862.19
2015 04 09 13 58 46 .64     138    -94      6    168    169 124.2   2.1  34028  287.33 0862.19
2015 04 09 13 58 46 .88     136    -82     -9    160    161 121.1  -3.3  34020  287.20 0862.19
2015 04 09 13 58 47 .13     105    -93      2    141    142 131.8   0.8  33996  286.81 0862.19
2015 04 09 13 58 47 .39     105    -71     -2    128    129 124.2  -1.2  33996  286.79 0862.19
2015 04 09 13 58 47 .63     112    -72      2    134    135 122.9   1.2  34002  286.89 0862.19
2015 04 09 13 58 47 .88     112    -84     11    140    141 126.9   4.9  34002  286.89 0862.19
2015 04 09 13 58 48 .14     117    -74     23    139    141 122.4   9.5  34014  287.11 0862.19
2015 04 09 13 58 48 .38     128    -78     18    151    153 121.5   7.1  34020  287.20 0862.19
2015 04 09 13 58 48 .64     124    -68      0    142    143 118.9   0.2  34006  286.98 0862.19
2015 04 09 13 58 48 .90     123    -78     21    146    148 122.4   8.5  34038  287.50 0862.19
2015 04 09 13 58 49 .15     124    -79     29    148    151 122.4  11.1  34054  287.79 0862.19
2015 04 09 13 58 49 .40     118    -54     35    130    135 114.8  15.2  34058  287.84 0862.19
2015 04 09 13 58 49 .65     126    -59     27    140    143 115.2  11.1  34042  287.59 0862.19
2015 04 09 13 58 49 .90     120    -65      4    137    138 118.8   1.8  34000  286.88 0862.19
2015 04 09 13 58 50 .16     120    -58     24    134    137 115.8  10.1  34062  287.91 0862.19
2015 04 09 13 58 50 .40     117    -68     21    136    138 120.2   9.0  34008  287.00 0862.19
2015 04 09 13 58 50 .65      99    -82     25    129    132 129.6  11.1  34006  286.98 0862.19
2015 04 09 13 58 50 .90      98    -65     26    118    121 123.7  12.6  34008  287.00 0862.19
2015 04 09 13 58 51 .15      80    -66     21    104    107 129.6  11.6  34006  286.98 0862.20
2015 04 09 13 58 51 .40      83    -59     30    103    108 125.5  16.3  34002  286.91 0862.20
2015 04 09 13 58 51 .66      70    -57     11     91     92 129.5   7.5  34006  286.98 0862.20
2015 04 09 13 58 51 .91      81    -66     36    105    112 129.5  19.2  34076  288.16 0862.20
2015 04 09 13 58 52 .15      74    -66     44    100    109 131.8  25.7  34088  288.36 0862.20
2015 04 09 13 58 52 .41      67    -73     36    100    106 137.7  20.0  34086  288.31 0862.20
2015 04 09 13 58 52 .66      55    -61     38     83     91 138.1  26.6  34104  288.62 0862.20
2015 04 09 13 58 52 .91      68    -61     45     92    102 132.2  27.3  34082  288.26 0862.20
2015 04 09 13 58 53 .16      69    -68     58     98    113 134.6  34.0  34136  289.16 0862.20
2015 04 09 13 58 53 .40      56    -90     53    107    119 147.9  28.7  34044  287.62 0862.20
2015 04 09 13 58 53 .67      60    -73     45     95    105 140.3  27.2  34044  287.62 0862.20
2015 04 09 13 58 53 .90      83    -55     40    100    107 123.7  23.0  34048  287.69 0862.20
2015 04 09 13 58 54 .16      55    -61     45     83     94 138.1  31.4  34028  287.35 0862.20
2015 04 09 13 58 54 .41      39    -61     38     73     82 147.4  29.3  34020  287.21 0862.20
2015 04 09 13 58 54 .66      34    -62     27     71     75 151.0  21.0  34006  286.98 0862.20
2015 04 09 13 58 54 .91      51    -71     29     88     93 144.4  18.4  34006  286.98 0862.20
2015 04 09 13 58 55 .16      55    -78     17     96     98 144.8  10.1  34004  286.93 0862.20
2015 04 09 13 58 55 .41      59    -68     15     91     93 139.0   9.5  34000  286.86 0862.20
2015 04 09 13 58 55 .66      59    -72      2     94     95 140.4   1.8  34008  287.00 0862.20
2015 04 09 13 58 55 .92      60    -72     -3     94     95 140.3  -2.2  34012  287.06 0862.20
2015 04 09 13 58 56 .17      54    -69     -4     88     89 141.7  -2.6  34014  287.11 0862.20
2015 04 09 13 58 56 .42      55    -80     -3     98     99 145.7  -2.2  34006  286.98 0862.20
2015 04 09 13 58 56 .67      56    -82     11    100    101 145.7   6.5  34008  287.00 0862.20
2015 04 09 13 58 56 .93      59    -68     14     91     93 139.0   9.0  34008  287.01 0862.20
2015 04 09 13 58 57 .17      55    -65      4     86     87 139.5   2.9  34012  287.06 0862.20
2015 04 09 13 58 57 .42      52    -55     -1     76     77 136.8  -1.2  34012  287.06 0862.20
2015 04 09 13 58 57 .68      49    -52     -9     72     73 136.8  -7.3  34012  287.06 0862.20
2015 04 09 13 58 57 .93      53    -34      0     64     65 122.5   0.8  34012  287.06 0862.20
2015 04 09 13 58 58 .18      55    -29     19     63     66 118.0  17.3  34020  287.20 0862.20
2015 04 09 13 58 58 .43      56    -22     14     61     63 111.7  13.2  34016  287.13 0862.20
2015 04 09 13 58 58 .68      64    -16      6     67     68 104.2   5.9  34010  287.05 0862.20
2015 04 09 13 58 58 .93      84    -37     -4     92     93 114.0  -2.6  34014  287.11 0862.20
2015 04 09 13 58 59 .18      91    -57     -7    108    109 122.4  -4.1  34042  287.57 0862.21
2015 04 09 13 58 59 .44     112    -52     -2    124    125 115.2  -1.3  34024  287.28 0862.21
2015 04 09 13 58 59 .68     104    -47     -6    115    116 114.4  -3.2  34058  287.84 0862.21
2015 04 09 13 58 59 .94      87    -48     39    100    107 118.9  22.0  34030  287.38 0862.21
2015 04 09 13 59 00 .18      87    -56     51    104    115 122.9  27.3  34050  287.70 0862.21
2015 04 09 13 59 00 .44      64   -112     88    130    156 150.1  37.8  34208  290.38 0862.21
2015 04 09 13 59 00 .68      94    -94     92    134    162 134.9  37.8  34064  287.96 0862.21
2015 04 09 13 59 00 .93      74   -118     62    140    153 147.9  25.2  34032  287.42 0862.21
2015 04 09 13 59 01 .18      84   -121      7    148    149 145.3   2.9  34016  287.15 0862.21
2015 04 09 13 59 01 .44     113   -129      8    172    173 138.8   2.9  34016  287.15 0862.21
2015 04 09 13 59 01 .69     121   -126      7    175    176 136.1   2.5  34022  287.25 0862.21
2015 04 09 13 59 01 .93     113   -117     -4    163    164 135.9  -1.6  34024  287.27 0862.21
2015 04 09 13 59 02 .19     121    -73     -3    142    143 121.1  -1.3  34014  287.11 0862.21
2015 04 09 13 59 02 .44      93    -75      5    120    121 129.1   2.8  34026  287.30 0862.21
2015 04 09 13 59 02 .69      93    -77     18    122    124 129.6   8.5  34028  287.33 0862.21
2015 04 09 13 59 02 .95     105    -72     13    128    129 124.6   5.9  34024  287.28 0862.21
2015 04 09 13 59 03 .20     102    -79     12    130    131 127.8   5.4  34028  287.33 0862.21
2015 04 09 13 59 03 .45      67    -92     39    114    121 143.9  18.9  34020  287.20 0862.21
2015 04 09 13 59 03 .70      85    -96      1    129    130 138.6   0.8  34022  287.23 0862.21
2015 04 09 13 59 03 .97      97    -88    -26    132    135 132.2 -11.3  34022  287.23 0862.21
2015 04 09 13 59 04 .20      99    -95    -37    138    143 134.0 -15.0  33992  286.74 0862.21
2015 04 09 13 59 04 .45      91    -92    -17    130    132 135.1  -7.7  33994  286.78 0862.21
2015 04 09 13 59 04 .70     101    -66    -24    122    125 123.3 -11.5  34008  287.01 0862.21
2015 04 09 13 59 04 .95      95    -42    -31    104    109 114.0 -16.6  34008  287.01 0862.21
2015 04 09 13 59 05 .20      81    -41    -31     91     97 117.1 -18.7  34002  286.91 0862.21
2015 04 09 13 59 05 .45      70    -46    -26     84     89 123.3 -17.6  34010  287.05 0862.21
2015 04 09 13 59 05 .70      70    -45    -20     84     87 122.5 -13.4  34006  286.96 0862.21
2015 04 09 13 59 05 .95      71    -50    -15     87     89 125.1 -10.3  34000  286.88 0862.21
2015 04 09 13 59 06 .21      68    -43    -14     81     83 122.4  -9.8  34002  286.91 0862.21
2015 04 09 13 59 06 .45      67    -40    -25     79     82 120.7 -22.8  34000  286.88 0862.21
2015 04 09 13 59 06 .71      66    -38    -25     77     81 119.8 -18.1  34006  286.96 0862.21
2015 04 09 13 59 06 .95      67    -40    -25     79     82 120.7 -22.8  33998  286.83 0862.21
2015 04 09 13 59 07 .21      63    -35    -21     73     75 118.8 -21.7  33994  286.78 0862.21
2015 04 09 13 59 07 .46      77    -42    -27     89     94 118.9 -17.0  33994  286.78 0862.21
2015 04 09 13 59 07 .71      75    -46    -31     89     95 121.5 -19.1  34002  286.91 0862.21
2015 04 09 13 59 07 .96      73    -43    -24     86     90 120.7 -15.5  34008  287.01 0862.21
2015 04 09 13 59 08 .21      51    -44    -18     68     71 131.3 -15.4  34006  286.96 0862.20
2015 04 09 13 59 08 .46      66    -50     -6     84     85 127.3  -4.6  33994  286.76 0862.20
2015 04 09 13 59 08 .71      63    -46     -7     79     80 126.0  -5.6  33996  286.79 0862.20
2015 04 09 13 59 08 .97      79    -43     -3     91     92 118.9  -2.2  34002  286.89 0862.20
2015 04 09 13 59 09 .21      75    -53      0     93     94 125.5  -0.3  33996  286.79 0862.20
2015 04 09 13 59 09 .46      66    -39     -3     77     78 120.7  -2.2  33998  286.83 0862.20
2015 04 09 13 59 09 .73      75    -34     -3     83     84 114.4  -2.6  33998  286.84 0862.20
2015 04 09 13 59 09 .97      66    -39     -3     77     78 120.7  -2.2  34010  287.05 0862.20
2015 04 09 13 59 10 .23      66    -50    -13     83     85 127.3  -9.3  34008  287.01 0862.21
2015 04 09 13 59 10 .48      52    -46     -9     70     71 131.3  -7.3  34010  287.05 0862.21
2015 04 09 13 59 10 .73      56    -42    -31     70     76 126.9 -29.5  34018  287.16 0862.21
2015 04 09 13 59 10 .97      69     -7    -32     70     76  96.1 -31.5  34004  286.94 0862.21
2015 04 09 13 59 11 .23      65     -9    -30     66     72  97.9 -31.5  34000  286.88 0862.21
2015 04 09 13 59 11 .48      62     -4    -25     63     67  94.4 -27.4  33998  286.83 0862.21
2015 04 09 13 59 11 .73      45     -9    -21     46     50 101.5 -31.5  34000  286.88 0862.21
2015 04 09 13 59 11 .98      48     -4    -18     49     52  95.2 -24.4  33998  286.84 0862.20
2015 04 09 13 59 12 .23      47    -14    -19     50     53 106.8 -24.4  34002  286.89 0862.20
2015 04 09 13 59 12 .48      49     -7    -13     50     52  98.8 -14.5  34002  286.89 0862.20
2015 04 09 13 59 12 .73      55    -13      1     57     58 103.3   1.8  34002  286.91 0862.20
2015 04 09 13 59 12 .98      38    -36      2     53     54 133.1   2.8  34006  286.98 0862.20
2015 04 09 13 59 13 .23      34    -25     -1     43     44 126.9  -2.2  34008  287.01 0862.20
2015 04 09 13 59 13 .48      33    -22    -23     40     46 124.2 -37.9  34012  287.06 0862.20
2015 04 09 13 59 13 .73      36    -29    -25     47     53 128.6 -34.7  34016  287.15 0862.20
2015 04 09 13 59 13 .98      33    -22    -23     40     46 124.2 -37.9  34012  287.06 0862.20
2015 04 09 13 59 14 .23      44     -6    -10     45     47  98.8 -13.4  34014  287.10 0862.20
2015 04 09 13 59 14 .48      34      2    -12     35     37  85.7 -23.6  34004  286.93 0862.20
2015 04 09 13 59 14 .73      40     -7     -6     41     42 100.6  -9.3  34002  286.91 0862.20
2015 04 09 13 59 14 .98      34    -11     -1     36     37 108.2  -2.2  34006  286.98 0862.20
2015 04 09 13 59 15 .24      32      0    -14     33     35  90.8 -27.4  34008  287.01 0862.20
2015 04 09 13 59 15 .48      30      0    -23     31     38  89.2 -46.1  34008  287.01 0862.20
2015 04 09 13 59 15 .74      36    -11    -32     38     49 108.2 -48.2  34012  287.06 0862.20
2015 04 09 13 59 15 .99      43    -13    -43     45     62 106.8 -53.4  34020  287.20 0862.20
2015 04 09 13 59 16 .27      37    -22    -39     44     58 120.7 -51.3  34020  287.20 0862.20
2015 04 09 13 59 16 .49      31    -28    -44     43     61 132.2 -54.5  34018  287.16 0862.20
2015 04 09 13 59 16 .75      43    -33    -39     55     67 127.8 -43.9  34028  287.35 0862.20
2015 04 09 13 59 17 .00      42    -33    -39     54     66 128.6 -43.9  34026  287.30 0862.20
2015 04 09 13 59 17 .25      40    -45    -27     61     66 138.6 -29.5  34018  287.16 0862.20
2015 04 09 13 59 17 .50      34    -46    -32     58     66 143.0 -35.8  34018  287.16 0862.20
2015 04 09 13 59 17 .75      31    -37    -30     49     57 139.5 -39.9  34016  287.15 0862.20
2015 04 09 13 59 18 .00      41    -43    -32     60     68 135.8 -35.7  34016  287.13 0862.20
2015 04 09 13 59 18 .25      28    -42    -32     51     60 146.6 -39.9  34020  287.21 0862.20
2015 04 09 13 59 18 .51      24    -33    -37     41     55 143.9 -51.3  34022  287.23 0862.20
2015 04 09 13 59 18 .76      19    -32    -34     38     50 149.3 -51.3  34026  287.32 0862.20
2015 04 09 13 59 19 .00       7    -36    -32     37     48 168.4 -51.3  34030  287.38 0862.20
2015 04 09 13 59 19 .25       7    -37    -32     38     49 168.5 -48.2  34022  287.23 0862.20
2015 04 09 13 59 19 .50      -1    -35    -34     36     49 182.7 -54.4  34022  287.25 0862.20
2015 04 09 13 59 19 .75      -9    -21    -30     24     38 203.6 -60.8  34028  287.35 0862.20
2015 04 09 13 59 20 .01      -8    -40    -34     41     53 191.6 -48.2  34016  287.15 0862.20
2015 04 09 13 59 20 .26      16    -37    -37     41     55 156.4 -51.3  34028  287.33 0862.19
2015 04 09 13 59 20 .50      24    -50    -30     56     63 154.6 -35.7  34014  287.10 0862.19
2015 04 09 13 59 20 .76      25    -53    -28     59     65 154.7 -31.6  34014  287.11 0862.19
2015 04 09 13 59 21 .01      19    -31    -21     37     42 147.5 -36.8  34020  287.20 0862.19
2015 04 09 13 59 21 .26       8    -38    -13     39     42 167.5 -18.7  34014  287.11 0862.19
2015 04 09 13 59 21 .51       0    -32    -25     33     41 180.9 -46.1  34016  287.15 0862.19
2015 04 09 13 59 21 .76       0    -28    -28     29     40 180.9 -54.4  34024  287.28 0862.19
2015 04 09 13 59 22 .01       0    -20    -27     21     34 182.7 -60.8  34034  287.43 0862.20
2015 04 09 13 59 22 .27     -10     -1    -18     11     21 262.1 -71.2  34046  287.65 0862.20
2015 04 09 13 59 22 .51     -16      5    -10     17     19 288.6 -39.9  34048  287.69 0862.20
2015 04 09 13 59 22 .76       5    -12    -25     14     28 158.2 -73.2  34036  287.47 0862.20
2015 04 09 13 59 23 .01       0    -23    -25     24     34 180.9 -52.6  34022  287.25 0862.20
2015 04 09 13 59 23 .26       7    -27    -25     29     38 164.9 -50.2  34020  287.20 0862.20
2015 04 09 13 59 23 .52       4    -26    -28     27     38 170.2 -52.6  34030  287.38 0862.20
2015 04 09 13 59 23 .77       8    -25    -16     27     31 161.7 -37.9  34032  287.40 0862.20
2015 04 09 13 59 24 .02      17    -29    -10     34     35 149.3 -23.8  34020  287.21 0862.20
2015 04 09 13 59 24 .28      11    -20     -2     24     25 151.0  -5.2  34020  287.21 0862.20
2015 04 09 13 59 24 .53      27     -9    -12     29     31 108.4 -27.4  34022  287.25 0862.20
2015 04 09 13 59 24 .78      28    -25    -12     38     39 131.3 -22.8  34022  287.25 0862.20
2015 04 09 13 59 25 .03      17    -27     -4     33     34 147.5  -7.3  34026  287.30 0862.20
2015 04 09 13 59 25 .28      16    -21    -10     27     28 142.2 -23.3  34028  287.33 0862.20
2015 04 09 13 59 25 .53      36     -8    -16     38     41 103.3 -28.5  34050  287.72 0862.20
2015 04 09 13 59 25 .78      36      6    -16     37     40  80.3 -29.5  34058  287.84 0862.20
2015 04 09 13 59 26 .03      37      2      4     38     39  85.7   5.9  34054  287.77 0862.20
2015 04 09 13 59 26 .28      45     -1      3     46     47  91.7   3.8  34064  287.94 0862.20
2015 04 09 13 59 26 .53      37      2     -2     38     39  85.7  -3.1  34062  287.91 0862.19
2015 04 09 13 59 26 .78      26     -1      7     27     28  92.6  15.3  34064  287.96 0862.19
2015 04 09 13 59 27 .03      31      0      5     32     33  90.8   9.0  34066  287.99 0862.19
2015 04 09 13 59 27 .28      24      1      4     25     26  87.4   9.0  34066  287.99 0862.19
2015 04 09 13 59 27 .53      16      5      6     17     19  71.4  19.4  34064  287.94 0862.19
2015 04 09 13 59 27 .79       8     -8      9     12     15 135.0  43.7  34076  288.16 0862.19
2015 04 09 13 59 28 .04       8      2      9      9     12  71.8  50.1  34108  288.69 0862.19
2015 04 09 13 59 28 .29       4      0     12      5     13  90.0  81.2  34126  288.99 0862.19
2015 04 09 13 59 28 .53       0      1     19      2     19 350.3  90.0  34142  289.28 0862.19
2015 04 09 13 59 28 .78       2      0     16      3     16  71.6  90.0  34110  288.72 0862.19
2015 04 09 13 59 29 .03       0      0     12      1     12 315.0  90.0  34102  288.60 0862.19
2015 04 09 13 59 29 .29       0      1     12      2     12 341.5  90.0  34094  288.45 0862.19
2015 04 09 13 59 29 .54       0      1     11      2     11 341.5  90.0  34090  288.40 0862.19
2015 04 09 13 59 29 .79       7      0     11      8     13  94.4  60.5  34104  288.64 0862.19
2015 04 09 13 59 30 .04       6      1     14      7     15  78.5  72.9  34092  288.42 0862.20
2015 04 09 13 59 30 .29       6      0     14      7     15  85.6  72.9  34102  288.58 0862.20
2015 04 09 13 59 30 .54       8      5     16     10     18  57.6  64.7  34110  288.72 0862.20
2015 04 09 13 59 30 .80       6      1      7      7      9  78.5  50.1  34112  288.77 0862.20
2015 04 09 13 59 31 .05      28     13     -6     31     32  64.6 -11.3  34096  288.50 0862.20
2015 04 09 13 59 31 .31      44     13    -11     46     48  73.2 -13.4  34108  288.69 0862.20
2015 04 09 13 59 31 .55      40     13     -7     43     44  71.4 -10.3  34110  288.72 0862.20
2015 04 09 13 59 31 .81      43     29     -6     52     53  55.8  -7.3  34106  288.67 0862.20
2015 04 09 13 59 32 .05      31     35    -10     47     49  41.4 -12.4  34082  288.26 0862.20
2015 04 09 13 59 32 .31      21     33     -7     40     41  32.5 -10.3  34078  288.20 0862.20
2015 04 09 13 59 32 .55      13     13      0     19     20  45.0  -1.3  34080  288.21 0862.20
2015 04 09 13 59 32 .81      19     30      3     36     37  32.5   4.9  34102  288.58 0862.20
2015 04 09 13 59 33 .06      12     16     26     21     33  36.1  56.4  34096  288.50 0862.20
2015 04 09 13 59 33 .32      34     35     34     50     60  44.2  37.6  34096  288.50 0862.20
2015 04 09 13 59 33 .55      36     20     36     42     55  60.2  44.8  34120  288.91 0862.20
2015 04 09 13 59 33 .81      29     17     23     34     41  59.3  37.6  34086  288.31 0862.20
2015 04 09 13 59 34 .06      12     16     32     21     38  36.1  64.6  34110  288.74 0862.20
2015 04 09 13 59 34 .32      13     13     27     19     33  45.0  60.5  34130  289.06 0862.20
2015 04 09 13 59 34 .56      13      0     34     14     36  90.0  77.1  34154  289.46 0862.20
2015 04 09 13 59 34 .81      27      5     41     28     49  78.5  62.6  34124  288.96 0862.20
2015 04 09 13 59 35 .06      37     12     63     39     74  71.8  64.7  34146  289.33 0862.20
2015 04 09 13 59 35 .31      49     -3     41     50     64  94.4  43.7  34118  288.86 0862.20
2015 04 09 13 59 35 .56      40     10     45     42     61  75.8  52.2  34134  289.13 0862.20
2015 04 09 13 59 35 .81      55      4      4     56     57  85.6   4.9  34030  287.38 0862.20
2015 04 09 13 59 36 .06      52      9    -28     53     59  79.4 -34.7  34028  287.33 0862.20
2015 04 09 13 59 36 .32      71     18    -23     74     77  75.8 -23.8  34052  287.76 0862.20
2015 04 09 13 59 36 .57      61      4    -41     62     74  85.6 -40.0  34030  287.38 0862.20
2015 04 09 13 59 36 .81      72     -4    -36     73     81  93.5 -32.6  34030  287.38 0862.20
2015 04 09 13 59 37 .07      86      9    -43     87     97  83.4 -32.2  34022  287.25 0862.20
2015 04 09 13 59 37 .32      53     29    -21     61     65  61.2 -19.7  34026  287.32 0862.20
2015 04 09 13 59 37 .58      32     30    -15     45     47  46.9 -23.6  34034  287.43 0862.20
2015 04 09 13 59 37 .83      40     20      5     46     47  62.9   6.9  34050  287.70 0862.20
2015 04 09 13 59 38 .08      56     13     21     58     61  76.7  20.0  34036  287.49 0862.20
2015 04 09 13 59 38 .33      76     10     41     77     87  82.1  30.3  34064  287.94 0862.20
2015 04 09 13 59 38 .58      77     34     34     85     91  66.0  22.5  34072  288.08 0862.20
2015 04 09 13 59 38 .84     102     64     13    121    122  57.5   6.5  34088  288.35 0862.20
2015 04 09 13 59 39 .08     120     71     28    140    143  59.4  11.6  34044  287.60 0862.19
2015 04 09 13 59 39 .34     128     69     16    146    147  61.6   6.5  34020  287.20 0862.19
2015 04 09 13 59 39 .59      91     50     20    104    106  61.1  11.0  34062  287.91 0862.19
2015 04 09 13 59 39 .84     152     11    -16    153    154  85.7  -6.2  34028  287.35 0862.19
2015 04 09 13 59 40 .08     135      6     -9    136    137  87.4  -4.1  34032  287.40 0862.19
2015 04 09 13 59 40 .34     118      9    -18    119    121  85.6  -8.8  34026  287.30 0862.19
2015 04 09 13 59 40 .59      92     30    -15     97     99  71.8  -8.8  34028  287.33 0862.19
2015 04 09 13 59 40 .83     124     78    -13    147    148  57.6  -5.1  34028  287.33 0862.20
2015 04 09 13 59 41 .09     103     61     -6    121    122  59.3  -3.1  34028  287.35 0862.20
2015 04 09 13 59 41 .34      98     44    -37    108    115  65.6 -19.1  34026  287.32 0862.20
2015 04 09 13 59 41 .59      76     49    -39     91     99  57.1 -28.5  34010  287.03 0862.20
2015 04 09 13 59 41 .84      60     46    -34     76     83  52.2 -30.1  34022  287.25 0862.20
2015 04 09 13 59 42 .09      33     45      2     56     57  36.1   2.9  34032  287.40 0862.20
2015 04 09 13 59 42 .34      35     38     17     52     55  42.3  18.9  34032  287.42 0862.20
2015 04 09 13 59 42 .59      36     38     23     53     57  44.1  25.1  34036  287.47 0862.20
2015 04 09 13 59 42 .88      43     68     -1     81     82  32.6  -0.7  34040  287.54 0862.20
2015 04 09 13 59 43 .09      50     36     16     63     66  54.0  14.3  34042  287.59 0862.20
2015 04 09 13 59 43 .34      67     13     13     69     71  78.5  11.0  34044  287.62 0862.20
2015 04 09 13 59 43 .59      92      9     18     93     95  84.3  11.0  34048  287.67 0862.19
2015 04 09 13 59 43 .84      90     30    -12     96     97  71.4  -7.7  34034  287.43 0862.19
2015 04 09 13 59 44 .09      74     36    -27     83     87  63.8 -23.8  34020  287.21 0862.19
2015 04 09 13 59 44 .34      66     25    -11     71     72  69.2  -9.3  34036  287.47 0862.19
2015 04 09 13 59 44 .61      71      9    -21     72     76  82.1 -16.6  34036  287.47 0862.19
2015 04 09 13 59 44 .86      73     24    -23     77     80  71.8 -21.2  34030  287.38 0862.19
2015 04 09 13 59 45 .10      76     25    -32     81     87  71.6 -26.4  34030  287.38 0862.19
2015 04 09 13 59 45 .35      68     23    -41     72     82  70.9 -36.3  34024  287.28 0862.20
2015 04 09 13 59 45 .60      57     32    -36     66     75  60.2 -35.8  34028  287.33 0862.20
2015 04 09 13 59 45 .85      49     23    -32     55     63  64.6 -36.8  34028  287.33 0862.20
2015 04 09 13 59 46 .11      41     21    -39     47     61  62.9 -48.2  34028  287.35 0862.20
2015 04 09 13 59 46 .36      60     56    -23     83     87  46.9 -15.5  34014  287.11 0862.20
2015 04 09 13 59 46 .61      39     83    -11     92     93  25.4  -7.3  34016  287.13 0862.20
2015 04 09 13 59 46 .86      44     33    -44     55     70  53.1 -48.1  34028  287.35 0862.20
2015 04 09 13 59 47 .11      50     32    -39     60     71  56.7 -40.0  34048  287.67 0862.20
2015 04 09 13 59 47 .36      46     49    -30     68     74  43.2 -29.5  34066  287.99 0862.19
2015 04 09 13 59 47 .61      64     13    -21     66     70  78.5 -17.6  34070  288.04 0862.19
2015 04 09 13 59 47 .86      57      8    -24     58     62  81.2 -27.5  34074  288.13 0862.19
2015 04 09 13 59 48 .11      63      8    -19     64     66  82.0 -21.7  34072  288.08 0862.19
2015 04 09 13 59 48 .36      60     20    -28     64     69  70.9 -30.6  34074  288.13 0862.19
2015 04 09 13 59 48 .61      55     14    -25     57     62  74.9 -29.5  34080  288.21 0862.19
2015 04 09 13 59 48 .86      53     -4    -21     54     57  94.4 -25.4  34072  288.09 0862.19
2015 04 09 13 59 49 .12      39      1    -28     40     48  87.4 -43.0  34088  288.35 0862.19
2015 04 09 13 59 49 .36      37     12    -24     39     45  71.8 -39.9  34096  288.50 0862.19
2015 04 09 13 59 49 .62      32     20    -21     39     44  57.5 -35.8  34102  288.58 0862.19
2015 04 09 13 59 49 .86      40     25    -14     48     50  57.5 -21.7  34106  288.67 0862.19
2015 04 09 13 59 50 .12      37     16     -9     41     43  66.5 -13.4  34104  288.64 0862.19
2015 04 09 13 59 50 .37      34     16     -7     38     39  64.6 -11.3  34122  288.92 0862.19
2015 04 09 13 59 50 .61      28     26     -1     39     40  46.7  -2.2  34130  289.06 0862.19
2015 04 09 13 59 50 .87      14     29     -6     33     34  25.4 -11.3  34138  289.19 0862.18
2015 04 09 13 59 51 .12       2     28    -10     29     30   4.5 -23.6  34134  289.14 0862.18
2015 04 09 13 59 51 .37       0     26    -15     27     30 359.1 -35.8  34144  289.31 0862.18
2015 04 09 13 59 51 .63       5     29    -14     30     33   9.8 -31.5  34148  289.36 0862.18
2015 04 09 13 59 51 .88      -2     31    -16     32     35 355.5 -31.7  34156  289.50 0862.18
2015 04 09 13 59 52 .13       0     33     -9     34     36 359.1 -15.5  34150  289.40 0862.18
2015 04 09 13 59 52 .38      16     35    -16     39     42  25.4 -27.4  34134  289.13 0862.18
2015 04 09 13 59 52 .64      15     33    -11     37     39  25.4 -16.6  34128  289.04 0862.18
2015 04 09 13 59 52 .88      35     50    -18     62     64  35.2 -21.7  34116  288.82 0862.18
2015 04 09 13 59 53 .13      26     42    -14     50     51  32.6 -20.7  34112  288.77 0862.18
2015 04 09 13 59 53 .38      16     25      1     30     31  32.5   2.9  34124  288.97 0862.18
2015 04 09 13 59 53 .64      18     36      3     41     42  27.2   4.9  34126  289.01 0862.19
2015 04 09 13 59 53 .89      18     45      2     49     50  21.8   2.9  34130  289.08 0862.19
2015 04 09 13 59 54 .14      24     38     23     46     51  32.5  27.3  34148  289.38 0862.19
2015 04 09 13 59 54 .38      29     45     20     54     57  32.5  20.0  34188  290.06 0862.18
2015 04 09 13 59 54 .64      54     21     20     59     63  68.3  18.9  34134  289.14 0862.18
2015 04 09 13 59 54 .88      51     -7     43     52     67  98.8  43.8  34156  289.52 0862.18
2015 04 09 13 59 55 .14      78     -1     56     79     96  90.8  38.6  34126  288.99 0862.18
2015 04 09 13 59 55 .39      77     -5     54     78     94  94.3  37.6  34132  289.11 0862.18
2015 04 09 13 59 55 .64      76    -20     55     79     96 105.1  38.0  34140  289.23 0862.18
2015 04 09 13 59 55 .89      51    -17     63     54     82 108.6  54.8  34142  289.28 0862.18
2015 04 09 13 59 56 .14      47    -15     65     50     82 108.2  58.5  34138  289.19 0862.18
2015 04 09 13 59 56 .39      50     -7     63     51     81  98.8  56.9  34158  289.55 0862.18
2015 04 09 13 59 56 .64      27      7     61     29     67  74.9  72.9  34166  289.69 0862.18
2015 04 09 13 59 56 .89      30      9     44     32     54  73.2  60.5  34170  289.74 0862.18
2015 04 09 13 59 57 .14      37     12     50     39     63  71.8  57.5  34158  289.55 0862.18
2015 04 09 13 59 57 .39      50     32     34     60     68  56.7  32.4  34128  289.02 0862.18
2015 04 09 13 59 57 .64      43     42     43     61     74  46.0  38.6  34118  288.87 0862.18
2015 04 09 13 59 57 .90      63     40     34     75     82  57.5  25.7  34122  288.92 0862.18
2015 04 09 13 59 58 .15      34     37     46     51     68  42.3  47.9  34162  289.60 0862.18
2015 04 09 13 59 58 .39      42     38     41     57     70  47.8  39.7  34124  288.96 0862.18
2015 04 09 13 59 58 .66      46     26     22     53     57  60.2  23.0  34128  289.02 0862.18
2015 04 09 13 59 58 .91      30     16     30     35     46  61.1  45.8  34138  289.19 0862.18
2015 04 09 13 59 59 .16      37     16     -1     41     42  66.5  -2.2  34132  289.09 0862.18
2015 04 09 13 59 59 .40      40     21      5     46     47  62.0   6.9  34110  288.72 0862.18
2015 04 09 13 59 59 .66      40     28     14     50     53  54.9  16.3  34098  288.53 0862.18
2015 04 09 13 59 59 .91      46     25      4     53     54  61.1   4.9  34100  288.57 0862.19
2015 04 09 14 00 00 .16      33     33     -1     47     48  45.1  -1.3  34096  288.48 0862.19
2015 04 09 14 00 00 .42      19     50    -18     54     56  20.9 -23.6  34154  289.46 0862.19
2015 04 09 14 00 00 .66      14     44    -20     47     51  17.8 -28.5  34138  289.21 0862.19
2015 04 09 14 00 00 .91      22     34    -25     41     48  33.4 -39.9  34158  289.55 0862.19
2015 04 09 14 00 01 .16      16     16     -9     24     25  45.0 -23.3  34128  289.02 0862.19
2015 04 09 14 00 01 .41       2      1      3      3      4  57.6  50.1  34118  288.87 0862.19
2015 04 09 14 00 01 .66      -1     -4      5      5      7 191.6  50.1  34124  288.96 0862.19
2015 04 09 14 00 01 .91      -4      2     14      5     14 302.4  81.0  34132  289.11 0862.19
2015 04 09 14 00 02 .16     -11      5     14     13     19 295.3  48.2  34142  289.28 0862.19
2015 04 09 14 00 02 .41     -13     -4     12     14     18 251.6  52.0  34148  289.36 0862.19
2015 04 09 14 00 02 .67     -13     -8      0     16     17 237.6   2.9  34164  289.63 0862.18
2015 04 09 14 00 02 .91      -7     -7      3     10     11 225.0  19.2  34162  289.60 0862.18
2015 04 09 14 00 03 .17      -4     -5      8      7     10 223.4  52.2  34176  289.84 0862.18
2015 04 09 14 00 03 .42       9      0     10     10     14  90.8  50.1  34178  289.87 0862.18
2015 04 09 14 00 03 .66      15     -5     16     16     22 108.6  50.1  34170  289.74 0862.18
2015 04 09 14 00 03 .93      17      0     11     18     21  90.8  33.5  34202  290.28 0862.18
2015 04 09 14 00 04 .17       5    -12     20     14     24 158.2  60.5  34248  291.08 0862.18
2015 04 09 14 00 04 .41       0     -7     21      8     22 175.5  79.2  34238  290.91 0862.18
2015 04 09 14 00 04 .66      -2     -3     19      4     19 212.5  89.0  34208  290.40 0862.18
2015 04 09 14 00 04 .92       1    -12     16     13     20 172.0  56.4  34188  290.06 0862.18
2015 04 09 14 00 05 .17      -5    -21     14     22     26 195.1  35.5  34168  289.70 0862.18
2015 04 09 14 00 05 .43      -2    -24     16     25     29 186.2  35.5  34162  289.62 0862.18
2015 04 09 14 00 05 .69      15    -32     21     36     41 154.7  32.4  34166  289.69 0862.18
2015 04 09 14 00 05 .94       2    -19     30     20     36 173.8  64.6  34204  290.33 0862.18
2015 04 09 14 00 06 .19      -1     -8     34      9     35 189.7  86.9  34240  290.92 0862.18
2015 04 09 14 00 06 .43      -3     -8     29      9     30 205.4  80.7  34280  291.62 0862.18
2015 04 09 14 00 06 .68      -4    -20     34     21     39 193.4  65.7  34258  291.25 0862.18
2015 04 09 14 00 06 .93     -17    -17     30     25     39 225.0  56.3  34202  290.28 0862.18
2015 04 09 14 00 07 .19      -8     -2     23      9     24 251.8  79.2  34210  290.41 0862.18
2015 04 09 14 00 07 .43     -26      0     21     27     34 269.2  43.7  34220  290.60 0862.18
2015 04 09 14 00 07 .69     -22      4      7     23     25 281.5  17.3  34204  290.33 0862.18
2015 04 09 14 00 07 .94      -2     -4     13      5     13 212.5  81.2  34216  290.53 0862.18
2015 04 09 14 00 08 .18      -1    -12     19     13     23 184.5  60.5  34202  290.30 0862.19
2015 04 09 14 00 08 .44       2      1      3      3      4  57.6  50.1  34218  290.55 0862.19
2015 04 09 14 00 08 .69      13      4      7     14     15  71.6  27.2  34210  290.43 0862.19
2015 04 09 14 00 08 .94       2      1     30      3     30  57.6  90.0  34226  290.70 0862.19
2015 04 09 14 00 09 .19     -14    -20     32     25     40 216.1  58.5  34212  290.47 0862.19
2015 04 09 14 00 09 .44     -57    -13     20     59     63 256.7  19.4  34142  289.28 0862.19
2015 04 09 14 00 09 .70     -65    -26     -2     71     72 248.3  -2.2  34118  288.87 0862.19
2015 04 09 14 00 09 .95     -32    -10     22     34     40 251.8  36.5  34154  289.48 0862.18
2015 04 09 14 00 10 .19     -26      3     33     27     42 277.9  55.4  34172  289.79 0862.18
2015 04 09 14 00 10 .44     -55      8      2     56     57 278.8   2.8  34120  288.91 0862.18
2015 04 09 14 00 10 .69     -42     28    -30     51     59 303.3 -38.8  34076  288.16 0862.18
2015 04 09 14 00 10 .94     -59      0    -16     60     63 269.2 -15.5  34094  288.45 0862.18
2015 04 09 14 00 11 .20     -63    -17      3     66     67 254.9   2.8  34086  288.31 0862.18
2015 04 09 14 00 11 .44     -51    -11     -4     53     54 257.6  -5.2  34080  288.21 0862.18
2015 04 09 14 00 11 .70     -41      9      3     43     44 283.3   4.9  34114  288.80 0862.18
2015 04 09 14 00 11 .94     -45     10     -1     47     48 282.4  -2.2  34104  288.64 0862.18
2015 04 09 14 00 12 .20     -48     21      2     53     54 293.5   2.9  34108  288.69 0862.18
2015 04 09 14 00 12 .45     -76     25    -13     81     83 288.2  -9.3  34112  288.77 0862.18
2015 04 09 14 00 12 .71     -41     26     19     49     52 302.4  22.0  34140  289.23 0862.18
2015 04 09 14 00 12 .96     -12     37     41     40     57 341.3  49.1  34152  289.45 0862.18
2015 04 09 14 00 13 .21     -44     20    -17     49     51 294.4 -23.3  34140  289.23 0862.18
2015 04 09 14 00 13 .48     -48     31    -12     58     60 302.5 -12.4  34132  289.09 0862.18
2015 04 09 14 00 13 .71     -24      8     15     26     30 288.4  33.5  34156  289.52 0862.18
2015 04 09 14 00 13 .96     -40     -8      5     41     42 257.6   8.0  34138  289.19 0862.18
2015 04 09 14 00 14 .21     -31      9     -6     33     34 286.8 -11.3  34110  288.72 0862.18
2015 04 09 14 00 14 .46     -24      1    -16     25     29 274.4 -39.9  34094  288.47 0862.18
2015 04 09 14 00 14 .72     -23     25     30     35     46 316.8  45.8  34124  288.97 0862.18
2015 04 09 14 00 14 .96     -12    -11     19     17     25 226.9  52.2  34142  289.26 0862.18
2015 04 09 14 00 15 .21     -13     10    -14     17     22 309.5 -48.1  34130  289.08 0862.18
2015 04 09 14 00 15 .47     -11     -9     14     15     20 230.5  47.9  34134  289.13 0862.18
2015 04 09 14 00 15 .71     -62      0    -22     63     67 269.1 -19.6  34062  287.92 0862.18
2015 04 09 14 00 15 .97     -71     21    -10     75     76 286.8  -8.2  34084  288.28 0862.18
2015 04 09 14 00 16 .22     -76     13     -3     78     79 279.7  -2.6  34084  288.30 0862.18
2015 04 09 14 00 16 .47     -79      3    -15     80     82 272.6 -10.9  34070  288.04 0862.18
2015 04 09 14 00 16 .72     -54     18      2     57     58 288.6   2.9  34080  288.21 0862.18
2015 04 09 14 00 16 .97     -65      9     -6     66     67 277.9  -5.2  34086  288.31 0862.18
2015 04 09 14 00 17 .22     -46     16     -8     49     50 289.1  -9.3  34090  288.40 0862.18
2015 04 09 14 00 17 .47     -59     -8    -16     60     63 262.0 -15.5  34090  288.40 0862.18
2015 04 09 14 00 17 .72     -65     -1    -15     66     68 268.3 -13.4  34074  288.11 0862.18
2015 04 09 14 00 17 .97     -62     12    -21     64     67 281.5 -23.8  34074  288.11 0862.18
2015 04 09 14 00 18 .22     -37     49     15     62     64 323.0  14.3  34112  288.77 0862.18
2015 04 09 14 00 18 .47     -43     21      9     48     49 296.2  11.1  34096  288.48 0862.18
2015 04 09 14 00 18 .72     -59     -8    -16     60     63 262.0 -15.5  34052  287.76 0862.18
2015 04 09 14 00 18 .97     -55     39     -2     68     69 306.0  -2.2  34090  288.40 0862.18
2015 04 09 14 00 19 .22     -61     12    -10     63     64 281.5  -9.3  34080  288.21 0862.18
2015 04 09 14 00 19 .48     -74     -5    -21     75     79 265.7 -16.0  34044  287.62 0862.18
2015 04 09 14 00 19 .74     -43     19     -5     48     49 294.4  -6.2  34082  288.26 0862.18
2015 04 09 14 00 19 .99     -21      7     12     23     25 288.4  29.3  34094  288.45 0862.18
2015 04 09 14 00 20 .23     -56      1      2     57     58 271.7   2.9  34070  288.06 0862.18
2015 04 09 14 00 20 .49     -83     12    -15     84     86 278.8 -10.3  34056  287.82 0862.18
2015 04 09 14 00 20 .74     -80     -1     -8     81     82 269.2  -6.2  34072  288.08 0862.18
2015 04 09 14 00 20 .99     -86      7    -15     87     89 274.8 -10.3  34032  287.40 0862.18
2015 04 09 14 00 21 .24     -83     21    -13     86     88 284.2  -8.8  34044  287.60 0862.18
2015 04 09 14 00 21 .49     -67     -8      4     68     69 263.0   3.8  34056  287.81 0862.18
2015 04 09 14 00 21 .74     -71    -18     -6     74     75 255.8  -5.2  34044  287.62 0862.18
2015 04 09 14 00 21 .99     -74    -25    -19     79     82 251.4 -13.4  34040  287.54 0862.18
2015 04 09 14 00 22 .24     -70    -14    -20     72     74 258.6 -20.7  34028  287.35 0862.18
2015 04 09 14 00 22 .49     -63     -8    -16     64     67 262.1 -14.5  34026  287.32 0862.18
2015 04 09 14 00 22 .74     -66    -13    -18     68     71 258.6 -15.4  34024  287.28 0862.18
2015 04 09 14 00 22 .99     -77     -5    -16     78     80 265.6 -11.9  34028  287.35 0862.18
2015 04 09 14 00 23 .25     -63      4    -22     64     68 274.4 -19.6  34042  287.59 0862.18
2015 04 09 14 00 23 .49     -84      3     -2     85     86 272.6  -1.8  34044  287.60 0862.17
2015 04 09 14 00 23 .74     -83      0    -21     84     87 269.6 -14.5  34020  287.20 0862.17
2015 04 09 14 00 24 .00     -71     -5    -22     72     76 265.6 -17.6  34030  287.38 0862.17
2015 04 09 14 00 24 .24     -66      4    -16     67     69 274.3 -13.4  34054  287.77 0862.17
2015 04 09 14 00 24 .50     -54      4    -19     55     58 274.4 -23.3  34080  288.23 0862.17
2015 04 09 14 00 24 .75     -53     17    -16     56     58 288.6 -22.8  34110  288.74 0862.17
2015 04 09 14 00 25 .00      -8     25      9     27     29 341.7  18.9  34130  289.06 0862.17
2015 04 09 14 00 25 .24     -16     36     -4     40     41 336.4  -6.2  34120  288.91 0862.17
2015 04 09 14 00 25 .50     -35     16      1     39     40 294.4   1.8  34118  288.87 0862.17
2015 04 09 14 00 25 .75     -31      0     -7     32     33 270.0 -13.4  34112  288.77 0862.17
2015 04 09 14 00 26 .00     -40     13    -19     43     47 288.4 -29.5  34080  288.23 0862.17
2015 04 09 14 00 26 .26     -17     -9     -9     20     21 241.1 -29.5  34096  288.50 0862.17
2015 04 09 14 00 26 .51     -58      0     -4     59     60 270.0  -4.1  34058  287.84 0862.17
2015 04 09 14 00 26 .76     -56      4    -11     57     59 274.4 -11.3  34028  287.33 0862.17
2015 04 09 14 00 27 .01     -66     13     -8     68     69 281.5  -7.2  34034  287.43 0862.17
2015 04 09 14 00 27 .26     -60     -3     -1     61     62 266.5  -1.3  34058  287.84 0862.17
2015 04 09 14 00 27 .51     -55      0     -2     56     57 270.0  -2.2  34062  287.91 0862.17
2015 04 09 14 00 27 .76     -46     -3     -1     47     48 265.6  -1.3  34048  287.67 0862.17
2015 04 09 14 00 28 .02     -71     -5     -3     72     73 265.7  -3.1  34036  287.49 0862.17
2015 04 09 14 00 28 .26     -59      2     -2     60     61 272.6  -2.2  34036  287.47 0862.17
2015 04 09 14 00 28 .51     -55      0     -2     56     57 270.0  -2.2  34028  287.33 0862.17
2015 04 09 14 00 28 .76     -55      0     -8     56     57 270.8  -8.2  34026  287.30 0862.17
2015 04 09 14 00 29 .02     -52     -1    -14     53     56 268.3 -15.5  34028  287.35 0862.17
2015 04 09 14 00 29 .26     -56      4    -11     57     59 274.3 -11.3  34034  287.43 0862.17
2015 04 09 14 00 29 .52     -57     12    -11     59     61 282.4 -11.3  34030  287.37 0862.17
2015 04 09 14 00 29 .77     -74     -1    -18     75     78 269.2 -13.4  34066  287.98 0862.17
2015 04 09 14 00 30 .02     -58     -9     -4     59     60 261.2  -4.1  34072  288.09 0862.17
2015 04 09 14 00 30 .27     -62      0    -11     63     65 270.8 -10.3  34052  287.76 0862.17
2015 04 09 14 00 30 .52     -67     -5    -18     68     71 265.7 -15.4  34028  287.33 0862.17
2015 04 09 14 00 30 .77     -53     -9    -18     54     56 260.3 -23.6  34028  287.33 0862.17
2015 04 09 14 00 31 .02     -51      7    -16     52     54 278.8 -23.8  34032  287.40 0862.17
2015 04 09 14 00 31 .27     -55     -1    -20     56     60 268.3 -19.7  34028  287.35 0862.17
2015 04 09 14 00 31 .53     -60      0    -11     61     63 269.1 -10.3  34032  287.40 0862.17
2015 04 09 14 00 31 .77     -60      0    -11     61     63 269.1 -10.3  34042  287.57 0862.17
2015 04 09 14 00 32 .02     -53      0    -17     54     57 270.8 -17.6  34040  287.54 0862.17
2015 04 09 14 00 32 .27     -54      0     -9     55     56 270.0 -10.3  34042  287.57 0862.17
2015 04 09 14 00 32 .53     -52      0     -6     53     54 269.2  -7.3  34050  287.70 0862.17
2015 04 09 14 00 32 .77     -48     -7     -9     49     50 261.2 -11.3  34044  287.60 0862.17
2015 04 09 14 00 33 .03     -60      0     -7     61     62 270.8  -7.2  34056  287.81 0862.17
2015 04 09 14 00 33 .28     -55      0     -2     56     57 270.0  -2.2  34052  287.76 0862.17
2015 04 09 14 00 33 .53     -48     -3    -11     49     51 265.6 -13.4  34036  287.49 0862.17
2015 04 09 14 00 33 .79     -52     -8     -7     53     54 260.3  -8.2  34040  287.54 0862.17
2015 04 09 14 00 34 .04     -58     -7     -4     59     60 263.0  -4.1  34048  287.67 0862.17
2015 04 09 14 00 34 .28     -52     -8     -6     53     54 261.2  -7.3  34042  287.59 0862.17
2015 04 09 14 00 34 .54     -68     -5     -3     69     70 265.6  -3.1  34058  287.86 0862.17
2015 04 09 14 00 34 .78     -56     -6    -11     57     59 263.0 -11.3  34036  287.49 0862.17
2015 04 09 14 00 35 .04     -63    -12    -13     65     67 258.6 -11.3  34036  287.49 0862.17
2015 04 09 14 00 35 .29     -66    -22    -15     70     72 250.9 -12.4  34034  287.45 0862.17
2015 04 09 14 00 35 .54     -70    -17    -12     73     74 255.8  -9.3  34030  287.38 0862.17
2015 04 09 14 00 35 .79     -73    -29    -15     79     81 248.3 -11.3  34028  287.35 0862.17
2015 04 09 14 00 36 .04     -83    -33    -14     90     92 248.3  -9.3  34032  287.40 0862.17
2015 04 09 14 00 36 .29     -83    -38    -12     92     93 245.2  -7.7  34040  287.54 0862.17
2015 04 09 14 00 36 .54     -73    -47    -11     88     89 237.1  -7.3  34042  287.57 0862.17
2015 04 09 14 00 36 .79     -85    -48    -14     98    100 240.2  -8.2  34056  287.81 0862.17
2015 04 09 14 00 37 .05     -75    -47      1     89     90 237.6   1.2  34050  287.72 0862.18
2015 04 09 14 00 37 .30     -72    -54     -3     91     92 233.1  -2.2  34040  287.55 0862.18
2015 04 09 14 00 37 .54     -80    -74    -10    110    111 227.3  -5.6  34034  287.43 0862.18
2015 04 09 14 00 37 .80     -74    -74    -23    105    108 225.0 -12.4  34036  287.47 0862.18
2015 04 09 14 00 38 .05     -63    -82     -5    104    105 217.4  -3.1  34072  288.08 0862.18
2015 04 09 14 00 38 .30     -85    -84      6    120    121 225.4   3.3  34106  288.65 0862.18
2015 04 09 14 00 38 .55     -91    -97      1    134    135 223.2   0.7  34098  288.53 0862.18
2015 04 09 14 00 38 .80     -96    -96     10    137    138 225.0   4.4  34088  288.36 0862.17
2015 04 09 14 00 39 .05     -89   -101      9    135    136 221.4   3.8  34078  288.20 0862.17
2015 04 09 14 00 39 .30    -118    -97     -3    154    155 230.5  -1.2  34024  287.27 0862.17
2015 04 09 14 00 39 .55    -139    -94     -6    168    169 235.9  -2.3  33996  286.79 0862.17
2015 04 09 14 00 39 .80    -139   -108      9    177    178 232.0   2.9  34008  287.00 0862.17
2015 04 09 14 00 40 .06    -118   -123      1    171    172 223.7   0.5  34044  287.60 0862.17
2015 04 09 14 00 40 .31    -156   -123    -10    199    200 231.8  -3.1  34054  287.79 0862.17
2015 04 09 14 00 40 .57    -148   -130     -7    198    199 228.7  -2.2  34036  287.49 0862.17
2015 04 09 14 00 40 .82    -146   -108    -19    182    184 233.4  -6.0  34056  287.81 0862.18
2015 04 09 14 00 41 .06    -161   -153     18    223    224 226.4   4.9  34024  287.28 0862.18
2015 04 09 14 00 41 .31    -197   -136    -17    240    241 235.4  -4.1  33996  286.79 0862.18
2015 04 09 14 00 41 .56    -194   -132    -16    235    236 235.8  -3.9  33994  286.77 0862.18
2015 04 09 14 00 41 .82    -179   -121    -11    217    218 236.0  -3.1  33994  286.78 0862.18
2015 04 09 14 00 42 .07    -197   -114    -20    228    229 240.0  -5.1  33992  286.74 0862.18
2015 04 09 14 00 42 .31    -200   -127    -16    237    238 237.6  -3.9  34000  286.87 0862.18
2015 04 09 14 00 42 .57    -197   -123    -20    233    234 238.0  -5.1  33996  286.80 0862.17
2015 04 09 14 00 42 .82    -199   -109    -29    228    230 241.2  -7.3  33998  286.84 0862.17
2015 04 09 14 00 43 .07    -210    -88    -33    228    231 247.2  -8.2  34002  286.91 0862.17
2015 04 09 14 00 43 .32    -218   -107    -29    243    245 243.8  -6.9  34004  286.94 0862.17
2015 04 09 14 00 43 .57    -184   -111    -20    215    217 238.9  -5.4  34016  287.15 0862.17
2015 04 09 14 00 43 .82    -188   -138     -9    234    235 233.8  -2.2  34022  287.24 0862.17
2015 04 09 14 00 44 .07    -204   -169     -3    265    266 230.4  -0.7  34044  287.61 0862.17
2015 04 09 14 00 44 .32    -187   -155     -7    243    244 230.4  -1.8  34032  287.41 0862.17
2015 04 09 14 00 44 .57    -169   -143    -31    222    225 229.6  -8.0  33998  286.83 0862.17
2015 04 09 14 00 44 .82    -178   -138    -35    226    229 232.2  -9.0  33998  286.83 0862.17
2015 04 09 14 00 45 .07    -159   -134    -28    209    211 229.8  -7.7  33996  286.81 0862.17
2015 04 09 14 00 45 .32    -143   -129    -20    193    195 228.0  -6.0  34000  286.86 0862.17
2015 04 09 14 00 45 .58    -140   -112    -22    180    182 231.4  -7.2  34002  286.91 0862.17
2015 04 09 14 00 45 .82    -139   -108    -20    177    179 232.0  -6.7  34004  286.93 0862.17
2015 04 09 14 00 46 .07    -153   -101    -23    184    186 236.7  -7.2  33996  286.79 0862.17
2015 04 09 14 00 46 .33    -173   -118    -27    210    212 235.6  -7.3  33996  286.81 0862.17
2015 04 09 14 00 46 .58    -145   -120    -21    189    191 230.5  -6.5  33998  286.83 0862.17
2015 04 09 14 00 46 .83    -146   -108    -35    182    186 233.4 -11.1  33996  286.79 0862.17
2015 04 09 14 00 47 .09    -139   -104    -23    174    176 233.1  -7.7  33998  286.83 0862.17
2015 04 09 14 00 47 .34    -145    -95    -37    174    179 236.5 -12.2  33996  286.79 0862.17
2015 04 09 14 00 47 .59    -150   -105    -36    184    188 235.1 -11.3  33998  286.83 0862.17
2015 04 09 14 00 47 .84    -143    -81    -33    165    169 240.2 -11.6  33998  286.84 0862.17
2015 04 09 14 00 48 .09    -142    -81    -47    164    171 240.2 -16.0  34000  286.86 0862.17
2015 04 09 14 00 48 .34    -128    -75    -50    149    157 239.8 -23.6  34000  286.86 0862.17
2015 04 09 14 00 48 .59    -133    -96    -50    165    173 234.1 -17.0  33998  286.83 0862.17
2015 04 09 14 00 48 .84    -119   -106    -36    160    165 228.2 -12.9  34000  286.86 0862.17
2015 04 09 14 00 49 .09    -111   -110    -31    157    161 225.1 -11.3  34016  287.15 0862.17
2015 04 09 14 00 49 .34    -110   -106    -11    153    154 226.0  -4.1  34014  287.11 0862.17
2015 04 09 14 00 49 .59    -108    -76     -6    133    134 234.9  -2.6  34006  286.96 0862.17
2015 04 09 14 00 49 .84    -125    -86    -47    153    161 235.4 -17.3  33996  286.79 0862.17
2015 04 09 14 00 50 .09    -104   -110    -42    152    158 223.2 -15.5  33992  286.74 0862.17
2015 04 09 14 00 50 .35     -91   -105    -21    140    142 221.0  -8.8  34016  287.13 0862.17
2015 04 09 14 00 50 .60     -89   -115    -15    146    147 217.9  -6.2  34034  287.43 0862.17
2015 04 09 14 00 50 .85     -97    -97    -17    138    140 225.2  -7.2  34018  287.18 0862.17
2015 04 09 14 00 51 .09    -105    -80    -53    133    143 232.7 -27.4  34006  286.98 0862.17
2015 04 09 14 00 51 .35    -109    -88    -50    141    150 230.9 -19.7  33990  286.71 0862.17
2015 04 09 14 00 51 .60     -94    -94    -57    133    144 225.0 -29.0  34004  286.93 0862.17
2015 04 09 14 00 51 .85     -97   -115    -45    151    157 220.1 -21.5  34040  287.54 0862.17
2015 04 09 14 00 52 .10    -134   -130     -7    187    188 225.8  -2.3  34060  287.87 0862.17
2015 04 09 14 00 52 .35    -128   -167     25    211    213 217.4   6.9  34134  289.14 0862.16
2015 04 09 14 00 52 .60     -93   -172     38    196    200 208.5  11.1  34148  289.36 0862.16
2015 04 09 14 00 52 .85     -80   -174     24    192    194 204.7   7.2  34160  289.57 0862.16
2015 04 09 14 00 53 .10     -47   -142    101    150    180 198.3  37.3  34164  289.63 0862.16
2015 04 09 14 00 53 .36     -57   -111     65    125    140 207.2  29.3  34176  289.85 0862.16
2015 04 09 14 00 53 .60     -88    -98     50    133    142 221.9  21.0  34212  290.47 0862.16
2015 04 09 14 00 53 .85    -150   -133     55    201    209 228.6  15.3  34050  287.72 0862.16
2015 04 09 14 00 54 .11    -135   -144     38    198    202 223.3  11.0  33994  286.78 0862.16
2015 04 09 14 00 54 .36    -139   -166     19    217    218 220.1   5.2  33992  286.74 0862.16
2015 04 09 14 00 54 .61    -147   -160     18    218    219 222.5   4.9  33990  286.69 0862.16
2015 04 09 14 00 54 .87    -139   -164     26    216    218 220.3   6.9  33988  286.67 0862.16
2015 04 09 14 00 55 .12    -144   -155     22    212    214 222.8   6.1  33998  286.83 0862.16
2015 04 09 14 00 55 .37    -161   -145     18    218    219 228.0   4.9  33992  286.74 0862.16
2015 04 09 14 00 55 .62    -184   -162      7    246    247 228.7   1.8  33992  286.72 0862.16
2015 04 09 14 00 55 .87    -161   -161      3    229    230 225.0   0.8  33994  286.76 0862.16
2015 04 09 14 00 56 .12    -182   -176    -18    254    255 226.0  -4.1  34002  286.89 0862.16
2015 04 09 14 00 56 .37    -154   -152    -57    217    225 225.3 -14.7  34000  286.86 0862.16
2015 04 09 14 00 56 .62    -150   -138    -35    205    209 227.3  -9.8  33998  286.83 0862.16
2015 04 09 14 00 56 .87    -144   -142    -23    203    205 225.3  -6.5  33988  286.67 0862.16
2015 04 09 14 00 57 .12    -142   -134    -20    196    198 226.8  -6.0  33988  286.67 0862.16
2015 04 09 14 00 57 .37    -134   -131    -38    188    192 225.8 -11.6  33990  286.71 0862.16
2015 04 09 14 00 57 .62    -130   -125    -44    181    187 226.0 -13.7  33984  286.59 0862.16
2015 04 09 14 00 57 .87    -132   -129     -7    185    186 225.8  -2.2  33986  286.64 0862.15
2015 04 09 14 00 58 .12    -132   -129     -7    185    186 225.8  -2.2  33986  286.64 0862.15
2015 04 09 14 00 58 .37    -119   -136     -1    182    183 221.2  -0.5  33992  286.73 0862.15
2015 04 09 14 00 58 .62    -120   -128     -6    176    177 223.2  -2.2  33990  286.69 0862.15
2015 04 09 14 00 58 .87    -131   -119     -8    178    179 227.8  -2.6  33990  286.69 0862.15
2015 04 09 14 00 59 .12    -127   -115     -9    172    173 228.0  -3.3  33986  286.62 0862.15
2015 04 09 14 00 59 .38    -120   -120      6    171    172 225.0   2.1  34030  287.38 0862.15
2015 04 09 14 00 59 .62    -147   -128     -7    196    197 228.9  -2.2  34048  287.67 0862.15
2015 04 09 14 00 59 .87    -151   -124    -28    196    199 230.7  -8.2  33996  286.79 0862.15
2015 04 09 14 01 00 .13    -167   -128    -19    211    212 232.5  -5.2  33986  286.64 0862.15
2015 04 09 14 01 00 .38    -170   -111    -16    204    205 236.9  -4.6  33992  286.73 0862.15
2015 04 09 14 01 00 .63    -165   -115      0    202    203 235.1   0.2  34078  288.18 0862.15
2015 04 09 14 01 00 .88    -167   -104    -10    197    198 238.0  -3.1  33992  286.73 0862.15
2015 04 09 14 01 01 .14    -138   -113     -7    179    180 230.5  -2.2  33994  286.78 0862.15
2015 04 09 14 01 01 .39    -178   -129     -6    220    221 234.1  -1.8  34008  287.01 0862.15
2015 04 09 14 01 01 .64    -162   -118    -11    201    202 234.0  -3.1  33984  286.61 0862.15
2015 04 09 14 01 01 .89    -162   -102    -13    192    193 237.6  -4.1  33984  286.59 0862.15
2015 04 09 14 01 02 .14    -154    -98    -13    183    184 237.4  -4.1  33986  286.64 0862.15
2015 04 09 14 01 02 .39    -146    -97     -7    176    177 236.5  -2.3  33984  286.59 0862.15
2015 04 09 14 01 02 .64    -146   -119    -13    189    190 230.7  -4.1  33984  286.59 0862.15
2015 04 09 14 01 02 .89    -150   -116    -15    190    191 232.2  -4.6  33982  286.56 0862.15
2015 04 09 14 01 03 .14    -157   -120    -15    198    199 232.7  -4.6  33978  286.51 0862.15
2015 04 09 14 01 03 .40    -150   -121    -20    193    195 231.1  -6.0  33996  286.81 0862.15
2015 04 09 14 01 03 .64    -126   -126      5    179    180 225.1   1.6  34040  287.55 0862.15
2015 04 09 14 01 03 .89    -150    -98     -2    180    181 236.7  -0.7  34102  288.58 0862.15
2015 04 09 14 01 04 .14    -134    -74    -15    154    155 241.1  -5.6  34066  287.99 0862.15
2015 04 09 14 01 04 .40    -161    -73    -22    177    179 245.6  -7.2  33996  286.79 0862.15
2015 04 09 14 01 04 .65    -158    -96    -14    185    186 238.7  -4.6  34030  287.37 0862.15
2015 04 09 14 01 04 .90    -143   -113    -23    183    185 231.8  -7.2  34022  287.23 0862.15
2015 04 09 14 01 05 .15    -150    -83    -15    172    173 241.1  -5.2  34028  287.35 0862.15
2015 04 09 14 01 05 .40    -132    -96      0    164    165 234.0  -0.3  34032  287.40 0862.15
2015 04 09 14 01 05 .65    -149   -116    -14    190    191 232.0  -4.4  34028  287.35 0862.15
2015 04 09 14 01 05 .90    -152    -81    -43    173    179 241.8 -13.9  34034  287.43 0862.15
2015 04 09 14 01 06 .15    -136   -107    -22    174    176 231.8  -7.3  34018  287.16 0862.15
2015 04 09 14 01 06 .40    -127   -111    -15    169    170 228.9  -5.2  34014  287.10 0862.15
2015 04 09 14 01 06 .65    -122   -125    -35    176    180 224.3 -11.3  33994  286.76 0862.15
2015 04 09 14 01 06 .90    -137   -123    -28    185    188 228.0  -8.6  34000  286.86 0862.15
2015 04 09 14 01 07 .16    -117   -121    -33    169    173 223.9 -11.1  34008  287.01 0862.15
2015 04 09 14 01 07 .40    -100   -117    -44    155    162 220.5 -16.0  34032  287.40 0862.15
2015 04 09 14 01 07 .65    -113    -93    -47    147    154 230.5 -23.8  33982  286.56 0862.15
2015 04 09 14 01 07 .91    -123    -92    -36    154    159 233.1 -13.2  34044  287.60 0862.15
2015 04 09 14 01 08 .16    -132    -70    -25    150    153 242.0  -9.8  34050  287.70 0862.15
2015 04 09 14 01 08 .41    -141    -83    -24    164    166 239.4  -8.6  34020  287.21 0862.15
2015 04 09 14 01 08 .66    -132    -96    -29    164    167 234.0 -10.3  34004  286.93 0862.15
2015 04 09 14 01 08 .91    -100    -82    -38    130    136 230.5 -16.6  34004  286.93 0862.15
2015 04 09 14 01 09 .17    -104    -75    -33    129    134 234.0 -14.5  33992  286.74 0862.15
2015 04 09 14 01 09 .42    -100    -60    -32    117    122 238.9 -15.5  34000  286.88 0862.15
2015 04 09 14 01 09 .68    -100    -52    -32    113    118 242.5 -16.0  34016  287.15 0862.15
2015 04 09 14 01 09 .91    -137    -58    -21    149    151 246.9  -8.2  34036  287.49 0862.15
2015 04 09 14 01 10 .18    -128    -64    -23    144    146 243.4  -9.3  34038  287.52 0862.15
2015 04 09 14 01 10 .43    -100    -54     -4    114    115 241.6  -2.2  34092  288.43 0862.15
2015 04 09 14 01 10 .67     -66    -95     20    116    118 214.7  10.1  34114  288.79 0862.15
2015 04 09 14 01 10 .92     -81    -82      2    116    117 224.7   1.2  34074  288.13 0862.15
2015 04 09 14 01 11 .17     -52    -69     37     87     94 217.0  24.6  34114  288.79 0862.15
2015 04 09 14 01 11 .42     -73    -58      8     94     95 231.8   4.9  34088  288.35 0862.15
2015 04 09 14 01 11 .67     -55    -45     16     72     74 230.5  13.2  34098  288.53 0862.15
2015 04 09 14 01 11 .92     -70    -69      1     99    100 225.1   0.8  34060  287.89 0862.15
2015 04 09 14 01 12 .18     -22    -50     32     55     63 203.6  32.4  34114  288.80 0862.15
2015 04 09 14 01 12 .43     -25    -56     20     62     66 204.5  18.4  34128  289.02 0862.15
2015 04 09 14 01 12 .67     -45    -56     57     72     91 218.7  42.7  34142  289.26 0862.15
2015 04 09 14 01 12 .92     -49    -49     32     70     76 225.0  27.1  34080  288.21 0862.15
2015 04 09 14 01 13 .18     -59    -72      4     94     95 219.6   2.9  34004  286.94 0862.15
2015 04 09 14 01 13 .43     -55    -75      2     94     95 216.5   1.8  34010  287.03 0862.15
2015 04 09 14 01 13 .68     -61    -81     16    102    104 217.0   9.0  34022  287.25 0862.15
2015 04 09 14 01 13 .93     -62    -67     18     92     94 222.8  11.1  34006  286.96 0862.15
2015 04 09 14 01 14 .18     -62    -62     16     89     91 225.0  10.6  34020  287.20 0862.15
2015 04 09 14 01 14 .43     -59    -60     18     85     87 224.5  12.2  34012  287.08 0862.15
2015 04 09 14 01 14 .68     -50    -60     14     79     81 219.7  10.6  34018  287.18 0862.15
2015 04 09 14 01 14 .94     -36    -36      9     52     53 225.1  10.1  34028  287.35 0862.16
2015 04 09 14 01 15 .19     -27    -26     -1     38     39 226.7  -2.2  34058  287.86 0862.16
2015 04 09 14 01 15 .44     -37    -23     -5     44     45 238.5  -7.2  34058  287.84 0862.16
2015 04 09 14 01 15 .69     -63      3      3     64     65 273.5   2.9  34026  287.30 0862.16
2015 04 09 14 01 15 .94     -46     10    -18     48     51 282.4 -25.4  34012  287.06 0862.16
2015 04 09 14 01 16 .19     -28      9    -14     30     33 288.6 -31.5  34012  287.06 0862.16
2015 04 09 14 01 16 .44     -34      2    -28     35     44 274.4 -47.1  33998  286.84 0862.16
2015 04 09 14 01 16 .69     -35     11    -27     37     45 288.2 -44.1  33998  286.84 0862.16
2015 04 09 14 01 16 .94     -41      9    -21     43     47 282.4 -32.6  33994  286.78 0862.16
2015 04 09 14 01 17 .19     -54      4    -18     55     57 274.4 -23.8  34002  286.91 0862.16
2015 04 09 14 01 17 .45     -47      0    -19     48     51 270.8 -26.4  34002  286.91 0862.16
2015 04 09 14 01 17 .69     -42      5    -12     43     45 277.0 -16.6  34006  286.96 0862.16
2015 04 09 14 01 17 .95     -40     16     -3     44     45 292.6  -4.1  34002  286.89 0862.16
2015 04 09 14 01 18 .20     -44      5     -4     45     46 277.0  -6.2  33998  286.83 0862.16
2015 04 09 14 01 18 .45     -59    -20     -2     63     64 250.9  -2.2  34022  287.25 0862.16
2015 04 09 14 01 18 .70     -63     -7      9     64     65 263.0   8.0  34028  287.33 0862.16
2015 04 09 14 01 18 .95     -70      1      3     71     72 270.9   2.8  34010  287.03 0862.16
2015 04 09 14 01 19 .20     -73     -2    -18     74     77 268.3 -13.9  34006  286.96 0862.16
2015 04 09 14 01 19 .46     -42      4     -3     43     44 276.1  -5.2  34048  287.67 0862.15
2015 04 09 14 01 19 .70     -14      1     18     15     23 274.4  54.3  34074  288.11 0862.15
2015 04 09 14 01 19 .96     -19      8      8     21     22 293.5  21.0  34092  288.43 0862.15
2015 04 09 14 01 20 .21      -9      2     30     10     31 285.1  81.0  34138  289.19 0862.15
2015 04 09 14 01 20 .45      -9      8     24     13     27 313.3  68.8  34130  289.06 0862.15
2015 04 09 14 01 20 .70     -14      1      0     15     16 274.3  -2.2  34114  288.80 0862.15
2015 04 09 14 01 20 .96      -4     -4      0      6      7 223.4  -2.2  34094  288.47 0862.15
2015 04 09 14 01 21 .20     -12     -4      0     13     14 251.4  -3.1  34072  288.08 0862.15
2015 04 09 14 01 21 .45     -42     -5    -15     43     45 263.0 -23.3  34030  287.38 0862.15
2015 04 09 14 01 21 .71     -29     -8     -9     31     32 254.9 -21.7  34050  287.70 0862.15
2015 04 09 14 01 21 .97     -26    -17     -1     32     33 235.8  -2.2  34038  287.52 0862.15
2015 04 09 14 01 22 .21     -20     -7     -1     22     23 250.0  -3.1  34042  287.59 0862.15
2015 04 09 14 01 22 .48     -18     -6    -12     20     23 251.4 -37.9  34056  287.82 0862.15
2015 04 09 14 01 22 .72      -6      0     -1      7      8 265.6  -7.3  34072  288.08 0862.15
2015 04 09 14 01 22 .97     -20     20     -1     29     30 315.0  -2.2  34056  287.81 0862.15
2015 04 09 14 01 23 .22      -8      0      6      9     10 265.6  35.5  34060  287.87 0862.15
2015 04 09 14 01 23 .47     -18     -6     14     20     24 251.4  39.7  34080  288.21 0862.15
2015 04 09 14 01 23 .72     -29      5      1     30     31 281.5   2.9  33998  286.84 0862.15
2015 04 09 14 01 23 .97     -40      0    -12     41     42 269.2 -20.7  33994  286.76 0862.16
2015 04 09 14 01 24 .22     -42      0    -21     43     47 270.8 -32.6  33998  286.83 0862.16
2015 04 09 14 01 24 .47     -32      2    -25     33     41 274.3 -46.1  34010  287.03 0862.16
2015 04 09 14 01 24 .72     -30     -2    -23     31     38 265.7 -46.1  34002  286.91 0862.16
2015 04 09 14 01 24 .97     -30      0    -17     31     35 269.2 -37.9  34000  286.88 0862.16
2015 04 09 14 01 25 .22     -20      6    -15     21     25 286.8 -44.1  33998  286.84 0862.16
2015 04 09 14 01 25 .47     -24      1    -16     25     29 274.4 -39.9  34004  286.93 0862.16
2015 04 09 14 01 25 .72     -18      0    -13     19     23 270.8 -44.1  34004  286.93 0862.16
2015 04 09 14 01 25 .98      -4     -3    -12      6     13 230.5 -77.3  34022  287.25 0862.16
2015 04 09 14 01 26 .22      -7      4     -8      9     12 302.4 -52.3  34050  287.72 0862.16
2015 04 09 14 01 26 .47     -11      3    -12     12     16 288.4 -54.5  34050  287.72 0862.16
2015 04 09 14 01 26 .73     -17      0    -10     18     20 270.0 -35.8  34068  288.03 0862.16
2015 04 09 14 01 26 .97     -15     -1     -9     16     18 265.7 -35.8  34072  288.08 0862.16
2015 04 09 14 01 27 .23     -12      0    -18     13     22 265.6 -64.9  34072  288.08 0862.16
2015 04 09 14 01 27 .47     -15     -1    -16     16     22 265.7 -54.5  34054  287.77 0862.16
2015 04 09 14 01 27 .73     -27    -17    -19     33     38 237.6 -39.9  34006  286.96 0862.16
2015 04 09 14 01 27 .98     -42    -26    -19     50     53 237.6 -24.4  33996  286.79 0862.16
2015 04 09 14 01 28 .23     -56    -33    -17     66     69 239.3 -14.5  33998  286.83 0862.16
2015 04 09 14 01 28 .48     -41    -40    -11     58     60 226.0 -11.3  33996  286.79 0862.16
2015 04 09 14 01 28 .73     -42    -45    -11     62     64 223.3 -10.3  34000  286.88 0862.15
2015 04 09 14 01 28 .99     -40    -33     -6     52     53 230.5  -7.3  34008  287.01 0862.15
2015 04 09 14 01 29 .24     -28    -35     -2     45     46 218.7  -3.1  34016  287.13 0862.15
2015 04 09 14 01 29 .49     -31    -28     -7     43     44 227.8  -9.3  34002  286.91 0862.15
2015 04 09 14 01 29 .74     -36    -36    -14     52     54 225.1 -15.4  33998  286.84 0862.15
2015 04 09 14 01 29 .99     -26    -25     -9     37     39 226.7 -14.5  34000  286.88 0862.15
2015 04 09 14 01 30 .24     -23    -24     -5     34     35 223.4  -9.3  34006  286.96 0862.15
2015 04 09 14 01 30 .50     -16    -16     -3     24     25 225.0  -7.3  34010  287.03 0862.15
2015 04 09 14 01 30 .74      -8    -12     -3     15     16 216.1 -11.3  34016  287.13 0862.15
2015 04 09 14 01 30 .99      -5    -12     -6     14     15 201.8 -27.4  34012  287.06 0862.15
2015 04 09 14 01 31 .25     -20    -12      0     24     25 237.6  -2.2  34020  287.20 0862.15
2015 04 09 14 01 31 .50     -20     -8      0     22     23 248.3  -2.2  34024  287.27 0862.15
2015 04 09 14 01 31 .75     -11     -8     -6     14     15 234.0 -27.4  34040  287.54 0862.15
2015 04 09 14 01 31 .99     -10    -15     -7     19     21 214.3 -19.7  34028  287.33 0862.15
2015 04 09 14 01 32 .25       4     -6     -1      8      9 147.5  -7.3  34004  286.94 0862.14
2015 04 09 14 01 32 .50       0    -11      4     12     13 184.5  18.9  34022  287.25 0862.14
2015 04 09 14 01 32 .75       2    -27     -3     28     29 175.6  -7.3  34006  286.98 0862.14
2015 04 09 14 01 33 .00      -4    -26     -6     27     28 189.8 -13.4  34006  286.96 0862.14
2015 04 09 14 01 33 .25     -12    -37    -14     40     42 198.3 -24.4  34000  286.86 0862.14
2015 04 09 14 01 33 .50       2    -35    -16     36     39 175.6 -29.5  34004  286.93 0862.14
2015 04 09 14 01 33 .75       2    -19    -16     20     25 173.8 -48.1  34014  287.10 0862.14
2015 04 09 14 01 34 .00       0    -28    -14     29     32 180.9 -31.6  34008  287.01 0862.14
2015 04 09 14 01 34 .25      -2    -24    -16     25     29 186.2 -39.9  34004  286.93 0862.14
2015 04 09 14 01 34 .51      -3    -23    -10     24     26 188.0 -27.4  34020  287.21 0862.14
2015 04 09 14 01 34 .75     -11    -12     -8     17     18 223.2 -27.4  34024  287.27 0862.14
2015 04 09 14 01 35 .00     -33    -18    -16     38     41 241.1 -28.5  34014  287.10 0862.14
2015 04 09 14 01 35 .26     -31    -31    -23     45     50 225.0 -33.7  34028  287.33 0862.14
2015 04 09 14 01 35 .51     -28    -35    -14     46     48 218.7 -23.8  34024  287.28 0862.14
2015 04 09 14 01 35 .77     -26    -41    -19     49     52 212.5 -26.4  34036  287.49 0862.14
2015 04 09 14 01 36 .02     -25    -33    -18     42     45 217.8 -28.5  34062  287.91 0862.14
2015 04 09 14 01 36 .27     -31    -49    -17     59     61 212.5 -20.7  34038  287.52 0862.14
2015 04 09 14 01 36 .52     -20    -59     -8     63     64 198.7  -7.3  34046  287.65 0862.14
2015 04 09 14 01 36 .77     -21    -56    -11     61     62 200.9 -10.3  34048  287.67 0862.14
2015 04 09 14 01 37 .02     -23    -70    -43     74     85 198.3 -37.3  34010  287.03 0862.14
2015 04 09 14 01 37 .27      -9    -79    -27     80     85 186.7 -18.7  34032  287.40 0862.14
2015 04 09 14 01 37 .52     -35    -74    -34     82     88 205.4 -28.0  34000  286.88 0862.14
2015 04 09 14 01 37 .77     -30    -75    -49     81     94 201.9 -39.4  34006  286.96 0862.14
2015 04 09 14 01 38 .02     -26    -77    -43     82     92 198.7 -33.7  34000  286.88 0862.14
2015 04 09 14 01 38 .28     -15    -81    -30     83     88 191.1 -24.4  34026  287.30 0862.14
2015 04 09 14 01 38 .52     -17    -54    -38     57     68 198.3 -40.0  34010  287.05 0862.14
2015 04 09 14 01 38 .77     -18    -58    -43     61     74 197.8 -43.0  34006  286.98 0862.14
2015 04 09 14 01 39 .02      -5    -76    -32     77     83 184.4 -28.0  34008  287.01 0862.14
2015 04 09 14 01 39 .27       2    -81    -29     82     88 178.2 -19.7  34012  287.06 0862.14
2015 04 09 14 01 39 .53     -12    -86    -18     87     89 188.0 -11.9  34028  287.35 0862.14
2015 04 09 14 01 39 .78      -7    -94     -4     95     96 184.4  -2.6  34046  287.65 0862.14
2015 04 09 14 01 40 .03     -14    -99     -4    101    102 188.1  -2.6  34050  287.70 0862.14
2015 04 09 14 01 40 .27      -7    -93    -19     94     97 184.5 -11.9  34014  287.11 0862.14
2015 04 09 14 01 40 .53     -25    -79    -16     84     86 197.8 -10.9  34010  287.03 0862.14
2015 04 09 14 01 40 .78     -22    -87    -11     90     91 194.3  -7.3  34000  286.88 0862.14
2015 04 09 14 01 41 .03     -12    -72    -23     74     78 189.8 -17.6  34006  286.96 0862.14
2015 04 09 14 01 41 .28       5    -76    -26     77     82 175.6 -19.1  34006  286.98 0862.14
2015 04 09 14 01 41 .53     -10    -82    -29     83     89 187.1 -19.7  34002  286.91 0862.14
2015 04 09 14 01 41 .78     -11    -95    -32     96    101 186.7 -23.6  34002  286.91 0862.14
2015 04 09 14 01 42 .03      -6    -92    -32     93     98 184.0 -23.3  34006  286.96 0862.14
2015 04 09 14 01 42 .28      -6    -91    -26     92     95 184.0 -20.7  34004  286.93 0862.14
2015 04 09 14 01 42 .53     -10    -89    -22     90     93 186.7 -13.9  34006  286.98 0862.14
2015 04 09 14 01 42 .80     -15    -94    -15     96     98 189.3  -8.8  34008  287.01 0862.14
2015 04 09 14 01 43 .04       6    -73    -35     74     81 174.7 -31.0  34014  287.11 0862.14
2015 04 09 14 01 43 .29      31    -66    -35     74     81 154.5 -31.0  34014  287.10 0862.14
2015 04 09 14 01 43 .55      42    -66    -32     79     85 147.5 -27.4  34018  287.18 0862.14
2015 04 09 14 01 43 .79      47    -50    -22     69     73 136.8 -17.6  34018  287.18 0862.14
2015 04 09 14 01 44 .04      45    -63    -12     78     79 143.9  -8.8  34016  287.15 0862.14
2015 04 09 14 01 44 .30      37    -63     -9     74     75 149.3  -7.2  34014  287.10 0862.14
2015 04 09 14 01 44 .55      15    -76     -7     78     79 168.5  -5.2  34014  287.10 0862.14
2015 04 09 14 01 44 .79      18    -73     -9     76     77 165.7  -7.3  34010  287.05 0862.14
2015 04 09 14 01 45 .05      10    -76     -9     77     78 172.0  -7.3  34014  287.10 0862.14
2015 04 09 14 01 45 .30      -1    -74    -19     75     78 180.9 -14.5  34012  287.06 0862.14
2015 04 09 14 01 45 .55      -1    -69    -25     70     75 180.9 -19.6  34006  286.96 0862.14
2015 04 09 14 01 45 .80       2    -73    -20     74     77 178.2 -15.5  34004  286.93 0862.14
2015 04 09 14 01 46 .05       7    -76    -21     77     79 174.7 -20.2  34004  286.93 0862.14
2015 04 09 14 01 46 .30       0    -76    -27     77     81 180.0 -24.4  34002  286.89 0862.14
2015 04 09 14 01 46 .55     -15    -88    -30     90     94 190.2 -23.6  34022  287.25 0862.14
2015 04 09 14 01 46 .80     -32    -77    -24     84     88 202.7 -16.0  34030  287.38 0862.14
2015 04 09 14 01 47 .05       0    -90    -27     91     95 180.4 -16.6  34020  287.20 0862.14
2015 04 09 14 01 47 .30      -5    -76    -25     77     80 184.4 -23.3  34032  287.40 0862.14
2015 04 09 14 01 47 .55      -1    -64    -32     65     72 180.9 -31.7  34024  287.27 0862.14
2015 04 09 14 01 47 .80     -17    -73    -37     76     84 193.4 -32.2  34030  287.37 0862.15
2015 04 09 14 01 48 .05     -12    -73    -32     75     81 189.8 -28.5  34030  287.37 0862.15
2015 04 09 14 01 48 .30     -13    -56    -25     58     63 193.4 -28.5  34032  287.40 0862.15
2015 04 09 14 01 48 .55       0    -51    -35     52     62 180.9 -42.0  34032  287.40 0862.15
2015 04 09 14 01 48 .81       0    -57    -46     58     74 180.0 -48.1  34034  287.43 0862.15
2015 04 09 14 01 49 .06      -9    -60    -23     61     65 188.9 -26.4  34036  287.49 0862.15
2015 04 09 14 01 49 .31      -4    -56    -30     57     64 184.4 -34.7  34038  287.52 0862.15
2015 04 09 14 01 49 .56     -15    -37    -34     41     53 202.7 -48.2  34048  287.67 0862.14
2015 04 09 14 01 49 .82      -9    -21    -30     24     38 203.6 -60.8  34050  287.72 0862.14
2015 04 09 14 01 50 .07     -11     -9    -19     15     24 230.5 -60.8  34062  287.91 0862.14
2015 04 09 14 01 50 .32      15    -23    -12     28     30 147.5 -29.5  34058  287.84 0862.14
2015 04 09 14 01 50 .57      14    -14      0     21     22 135.0  -1.3  34060  287.87 0862.14
2015 04 09 14 01 50 .82      14    -16      7     22     24 140.4  19.4  34064  287.96 0862.14
2015 04 09 14 01 51 .08       9    -17      9     20     21 151.0  25.1  34080  288.21 0862.14
2015 04 09 14 01 51 .32      -4    -12     14     13     19 198.3  48.2  34102  288.58 0862.14
2015 04 09 14 01 51 .58      -1    -12     24     13     27 184.5  68.8  34100  288.55 0862.14
2015 04 09 14 01 51 .82      -2     -8     30      9     31 198.3  82.8  34112  288.75 0862.14
2015 04 09 14 01 52 .08     -15    -32     29     36     46 205.5  42.7  34078  288.18 0862.14
2015 04 09 14 01 52 .32     -16    -49     23     52     56 198.3  25.1  34060  287.89 0862.14
2015 04 09 14 01 52 .58     -29    -54     25     62     66 208.9  23.0  34056  287.81 0862.14
2015 04 09 14 01 52 .83     -33    -45     27     56     62 216.1  27.2  34058  287.84 0862.14
2015 04 09 14 01 53 .08     -15    -68     38     70     79 192.5  30.8  34052  287.76 0862.14
2015 04 09 14 01 53 .33     -16    -82     18     84     87 191.1  12.6  34066  287.98 0862.14
2015 04 09 14 01 53 .57     -18    -81     19     84     87 192.9  13.2  34056  287.81 0862.14
2015 04 09 14 01 53 .83     -40    -81     33     91     96 206.3  20.0  34050  287.70 0862.14
2015 04 09 14 01 54 .08     -50    -79     16     94     96 212.5  10.1  34060  287.89 0862.14
2015 04 09 14 01 54 .33     -46    -82     26     95     99 209.4  15.3  34088  288.36 0862.14
2015 04 09 14 01 54 .58     -47    -70     30     85     91 213.8  19.4  34102  288.58 0862.14
2015 04 09 14 01 54 .83     -31    -75     19     82     85 202.7  13.2  34086  288.33 0862.14
2015 04 09 14 01 55 .08     -38    -52      0     65     66 216.1   0.8  34072  288.08 0862.13
2015 04 09 14 01 55 .34     -12    -49     26     51     57 194.3  28.2  34088  288.36 0862.13
2015 04 09 14 01 55 .58     -11    -56     27     58     63 191.6  26.2  34072  288.09 0862.13
2015 04 09 14 01 55 .83      -6    -56     32     57     65 186.2  31.4  34070  288.06 0862.13
2015 04 09 14 01 56 .08      -5    -53     34     54     63 186.2  35.5  34088  288.35 0862.13
2015 04 09 14 01 56 .33      -8    -57     45     58     73 188.0  42.7  34092  288.42 0862.13
2015 04 09 14 01 56 .58       0    -56     33     57     65 180.9  33.5  34084  288.30 0862.13
2015 04 09 14 01 56 .85     -13    -64     27     66     71 191.6  23.0  34080  288.21 0862.13
2015 04 09 14 01 57 .10       4    -54     10     55     57 175.5  11.1  34090  288.40 0862.13
2015 04 09 14 01 57 .35       2    -59     16     60     63 177.3  15.2  34090  288.40 0862.13
2015 04 09 14 01 57 .60       1    -53     22     54     58 178.2  22.0  34086  288.31 0862.13
2015 04 09 14 01 57 .85       3    -57     32     58     66 176.4  31.4  34088  288.36 0862.14
2015 04 09 14 01 58 .10       4    -64     45     65     79 176.4  38.0  34080  288.21 0862.14
2015 04 09 14 01 58 .35     -12    -84     38     85     93 188.5  25.7  34116  288.84 0862.14
2015 04 09 14 01 58 .60     -20   -102     36    104    111 191.1  19.4  34118  288.87 0862.14
2015 04 09 14 01 58 .85     -22   -104     16    107    109 192.0   8.5  34090  288.38 0862.14
2015 04 09 14 01 59 .10     -41   -113     17    121    123 200.0   8.0  34072  288.08 0862.14
2015 04 09 14 01 59 .35     -42   -102     -4    111    112 202.3  -2.2  34078  288.18 0862.14
2015 04 09 14 01 59 .61     -51   -153     -2    162    163 198.7  -0.7  34064  287.94 0862.13
2015 04 09 14 01 59 .85     -58   -180     10    190    191 197.8   3.3  34090  288.38 0862.13
2015 04 09 14 02 00 .11     -56   -159     47    169    176 199.6  15.8  34086  288.31 0862.13
2015 04 09 14 02 00 .35     -38   -150     46    155    162 194.3  16.6  34116  288.84 0862.13
2015 04 09 14 02 00 .60     -61   -129     47    143    151 205.3  18.4  34110  288.72 0862.13
2015 04 09 14 02 00 .86     -32   -122     56    127    138 195.1  25.1  34122  288.94 0862.13
2015 04 09 14 02 01 .10     -43   -128     57    136    147 198.7  23.6  34116  288.84 0862.13
2015 04 09 14 02 01 .36     -38   -113     58    120    133 198.7  27.3  34124  288.96 0862.13
2015 04 09 14 02 01 .61     -42    -93     65    103    121 204.5  35.5  34122  288.92 0862.13
2015 04 09 14 02 01 .85     -68   -113     31    133    137 211.2  13.1  34058  287.84 0862.13
2015 04 09 14 02 02 .11     -63   -121     15    137    138 207.6   6.5  34042  287.57 0862.13
2015 04 09 14 02 02 .36     -59   -123     25    137    140 205.9  10.6  34048  287.67 0862.13
2015 04 09 14 02 02 .61     -49   -137     13    146    147 200.0   5.4  34036  287.47 0862.13
2015 04 09 14 02 02 .86     -58   -126     27    139    142 204.9  11.1  34036  287.49 0862.13
2015 04 09 14 02 03 .11     -73   -127     18    147    149 209.9   7.1  34064  287.94 0862.13
2015 04 09 14 02 03 .36     -87   -137     10    163    164 212.3   3.6  34058  287.86 0862.13
2015 04 09 14 02 03 .63     -50   -149     -6    158    159 198.7  -2.2  34036  287.47 0862.13
2015 04 09 14 02 03 .87     -72   -105      6    128    129 214.3   2.8  34076  288.16 0862.13
2015 04 09 14 02 04 .12     -76   -119    -18    142    144 212.6  -7.3  34082  288.26 0862.13
2015 04 09 14 02 04 .37     -70   -108     65    129    144 213.0  29.2  34084  288.28 0862.13
2015 04 09 14 02 04 .63     -76   -151     86    170    190 206.7  28.7  34084  288.30 0862.13
2015 04 09 14 02 04 .88     -63   -152     36    165    169 202.7  12.4  34056  287.81 0862.13
2015 04 09 14 02 05 .12     -96   -144    -50    174    182 213.6 -16.0  34028  287.33 0862.13
2015 04 09 14 02 05 .38    -101   -139    -34    173    177 216.1 -11.1  34030  287.38 0862.13
2015 04 09 14 02 05 .63     -74   -122    -18    143    145 211.2  -7.3  34040  287.55 0862.13
2015 04 09 14 02 05 .88    -107   -131    -47    170    177 219.4 -15.4  34026  287.30 0862.13
2015 04 09 14 02 06 .12    -112   -129    -36    171    175 221.0 -11.9  34022  287.25 0862.13
2015 04 09 14 02 06 .38    -115   -114    -48    163    170 225.3 -16.4  34024  287.27 0862.13
2015 04 09 14 02 06 .63    -110   -121    -45    164    170 222.3 -20.2  34022  287.23 0862.13
2015 04 09 14 02 06 .88    -119   -139    -50    184    191 220.5 -15.2  34024  287.27 0862.13
2015 04 09 14 02 07 .13    -124   -128    -61    179    190 224.1 -18.9  34022  287.23 0862.13
2015 04 09 14 02 07 .38    -132   -122    -64    180    192 227.3 -19.7  34022  287.25 0862.13
2015 04 09 14 02 07 .63    -142   -120    -67    186    197 229.8 -25.1  34028  287.33 0862.13
2015 04 09 14 02 07 .88    -145   -106    -81    180    197 233.8 -30.1  34024  287.27 0862.13
2015 04 09 14 02 08 .13    -152   -116    -74    192    205 232.5 -26.7  34022  287.25 0862.13
2015 04 09 14 02 08 .38    -140   -109    -59    178    187 232.0 -23.8  34030  287.38 0862.13
2015 04 09 14 02 08 .63    -138    -78    -57    159    168 240.2 -24.8  34038  287.52 0862.13
2015 04 09 14 02 08 .88    -157    -78    -61    176    186 243.6 -23.6  34038  287.52 0862.13
2015 04 09 14 02 09 .13    -155    -73    -59    172    181 244.6 -23.6  34040  287.55 0862.13
2015 04 09 14 02 09 .38    -157    -78    -68    176    188 243.6 -26.7  34034  287.43 0862.13
2015 04 09 14 02 09 .63    -145    -83    -49    168    175 240.2 -21.5  34036  287.49 0862.13
2015 04 09 14 02 09 .88    -127    -92    -42    157    163 234.1 -15.2  34040  287.55 0862.13
2015 04 09 14 02 10 .13    -139    -84    -52    163    171 238.9 -23.0  34036  287.47 0862.13
2015 04 09 14 02 10 .39    -144    -82    -25    166    168 240.2  -8.6  34042  287.57 0862.13
2015 04 09 14 02 10 .65    -179    -74    -30    194    197 247.4  -8.8  34038  287.52 0862.13
2015 04 09 14 02 10 .90    -145    -68    -41    161    167 244.7 -14.3  34038  287.52 0862.13
2015 04 09 14 02 11 .15    -164    -91    -38    188    192 240.9 -11.5  34040  287.55 0862.13
2015 04 09 14 02 11 .40    -158    -64    -61    171    182 247.8 -19.7  34038  287.52 0862.13
2015 04 09 14 02 11 .65    -190    -43    -81    195    211 257.2 -28.2  34038  287.50 0862.13
2015 04 09 14 02 11 .90    -183    -29    -54    186    193 261.0 -21.2  34040  287.55 0862.13
2015 04 09 14 02 12 .15    -178    -21    -63    180    190 263.0 -23.8  34040  287.54 0862.13
2015 04 09 14 02 12 .40    -151     -5    -41    152    158 267.9 -15.2  34040  287.54 0862.13
2015 04 09 14 02 12 .65    -114    -12    -23    115    118 263.9 -11.5  34036  287.49 0862.13
2015 04 09 14 02 12 .90    -138     -1     -5    139    140 269.2  -2.2  34038  287.52 0862.13
2015 04 09 14 02 13 .15    -136     10     -7    137    138 274.3  -3.2  34042  287.57 0862.13
2015 04 09 14 02 13 .40    -135     -5    -28    136    140 267.5 -11.9  34036  287.47 0862.13
2015 04 09 14 02 13 .66    -142    -19    -39    144    150 262.1 -15.4  34038  287.52 0862.13
2015 04 09 14 02 13 .91    -169    -56    -32    179    182 251.6 -10.3  34044  287.60 0862.13
2015 04 09 14 02 14 .16    -161    -88    -36    184    188 241.4 -11.1  34048  287.67 0862.13
2015 04 09 14 02 14 .41    -162    -78    -11    180    181 244.2  -3.7  34046  287.65 0862.13
2015 04 09 14 02 14 .66    -162    -72    -15    178    179 245.8  -4.9  34048  287.69 0862.13
2015 04 09 14 02 14 .91    -140    -47     -5    148    149 251.4  -2.2  34050  287.70 0862.13
2015 04 09 14 02 15 .16    -149    -31    -27    153    156 258.1 -10.1  34044  287.60 0862.13
2015 04 09 14 02 15 .41    -142     24    -18    145    147 279.7  -7.3  34048  287.67 0862.13
2015 04 09 14 02 15 .66    -146     32    -21    150    152 282.4  -8.2  34042  287.57 0862.13
2015 04 09 14 02 15 .91    -154     53     -8    164    165 289.1  -2.8  34048  287.67 0862.13
2015 04 09 14 02 16 .16    -143     56      2    154    155 291.7   0.8  34056  287.81 0862.13
2015 04 09 14 02 16 .42    -135     20    -17    137    139 278.8  -7.3  34050  287.72 0862.13
2015 04 09 14 02 16 .66     -91      0    -22     92     95 270.0 -13.9  34054  287.77 0862.13
2015 04 09 14 02 16 .91    -142     38    -39    148    154 285.1 -14.7  34052  287.74 0862.13
2015 04 09 14 02 17 .16    -171     19    -50    173    180 276.6 -21.0  34044  287.60 0862.13
2015 04 09 14 02 17 .41    -178     24    -57    180    189 277.7 -17.6  34040  287.54 0862.13
2015 04 09 14 02 17 .67    -168     -2    -65    169    181 269.2 -26.7  34042  287.57 0862.13
2015 04 09 14 02 17 .92    -200     -2    -90    201    220 269.4 -30.1  34034  287.45 0862.13
2015 04 09 14 02 18 .18    -180    -13    -90    181    202 265.7 -32.6  34036  287.49 0862.13
2015 04 09 14 02 18 .43    -161     60   -101    173    200 290.6 -37.5  34038  287.52 0862.13
2015 04 09 14 02 18 .68    -165     46    -52    172    179 285.7 -22.1  34042  287.57 0862.13
2015 04 09 14 02 18 .92    -139     37    -65    144    157 285.1 -30.1  34044  287.62 0862.13
2015 04 09 14 02 19 .18    -126     59    -44    140    147 295.2 -17.5  34048  287.67 0862.13
2015 04 09 14 02 19 .43    -145     24    -58    148    158 279.7 -26.9  34034  287.43 0862.13
2015 04 09 14 02 19 .68    -158     12    -63    159    171 274.4 -27.2  34034  287.43 0862.13
2015 04 09 14 02 19 .93    -170    -29    -47    173    180 260.3 -15.4  34036  287.49 0862.13
2015 04 09 14 02 20 .18    -139    -10     -3    140    141 265.7  -1.3  34050  287.72 0862.13
2015 04 09 14 02 20 .43     -55     18     25     59     64 288.6  23.1  34062  287.91 0862.13
2015 04 09 14 02 20 .69     -35     35     35     50     61 314.9  38.6  34086  288.33 0862.13
2015 04 09 14 02 20 .93     -45     40    -16     61     64 312.2 -14.5  34072  288.09 0862.13
2015 04 09 14 02 21 .18     -76     29    -47     82     94 290.8 -37.3  34060  287.89 0862.13
2015 04 09 14 02 21 .43    -120     36    -25    126    129 286.9 -11.3  34062  287.92 0862.13
2015 04 09 14 02 21 .68    -140     40    -40    146    152 285.9 -15.5  34046  287.64 0862.13
2015 04 09 14 02 21 .94    -163     32     -3    167    168 281.2  -1.3  34058  287.86 0862.13
2015 04 09 14 02 22 .19    -176     70    -38    190    194 291.8 -11.3  34060  287.87 0862.14
2015 04 09 14 02 22 .44    -109     42     10    118    119 291.3   4.9  34076  288.14 0862.14
2015 04 09 14 02 22 .69    -171     56    -21    181    183 288.2  -6.7  34048  287.67 0862.14
2015 04 09 14 02 22 .94    -180     53    -39    188    193 286.6 -11.9  34042  287.57 0862.14
2015 04 09 14 02 23 .19    -175     58    -43    185    191 288.6 -13.2  34040  287.55 0862.14
2015 04 09 14 02 23 .44    -157     54    -47    167    174 289.1 -15.8  34046  287.65 0862.14
2015 04 09 14 02 23 .69    -156     55    -25    166    168 289.7  -8.8  34040  287.54 0862.14
2015 04 09 14 02 23 .94    -146     57    -24    157    159 291.3  -8.8  34044  287.62 0862.14
2015 04 09 14 02 24 .19    -143     44    -30    150    153 287.3 -11.3  34066  287.99 0862.13
2015 04 09 14 02 24 .45    -107      8    -13    108    109 274.4  -7.3  34078  288.18 0862.13
2015 04 09 14 02 24 .70     -60     39      4     72     73 303.3   3.8  34094  288.45 0862.13
2015 04 09 14 02 24 .95    -121     32      6    126    127 285.0   2.8  34086  288.31 0862.13
2015 04 09 14 02 25 .20    -124      0    -20    125    127 270.0  -9.4  34090  288.40 0862.13
2015 04 09 14 02 25 .45    -122     44    -10    130    131 290.0  -4.6  34072  288.08 0862.13
2015 04 09 14 02 25 .70    -114     36    -28    120    124 287.7 -13.3  34058  287.84 0862.13
2015 04 09 14 02 25 .95    -100     40    -23    108    111 291.8 -12.4  34050  287.70 0862.13
2015 04 09 14 02 26 .20    -101     48    -16    112    114 295.4  -8.2  34044  287.62 0862.13
2015 04 09 14 02 26 .46     -79     60     -9    100    101 307.3  -5.2  34074  288.13 0862.13
2015 04 09 14 02 26 .70     -47     56     -1     74     75 320.4  -1.3  34088  288.36 0862.13
2015 04 09 14 02 26 .95     -82     66    -13    106    107 308.6  -7.2  34090  288.38 0862.12
2015 04 09 14 02 27 .21    -109      8    -39    110    117 274.3 -19.7  34074  288.13 0862.12
2015 04 09 14 02 27 .45    -113     -1    -14    114    115 269.2  -7.3  34090  288.40 0862.12
2015 04 09 14 02 27 .71     -92     36    -22    100    103 291.7 -12.9  34084  288.30 0862.12
2015 04 09 14 02 27 .96     -63     33     -1     72     73 298.0  -1.3  34106  288.67 0862.12
2015 04 09 14 02 28 .21     -28     59     32     66     73 334.5  27.3  34134  289.13 0862.12
2015 04 09 14 02 28 .46     -19     23      6     31     32 320.4  11.1  34140  289.24 0862.12
2015 04 09 14 02 28 .71     -34    -35      5     49     50 224.1   5.9  34140  289.24 0862.12
2015 04 09 14 02 28 .96     -28    -89     24     94     98 197.8  14.7  34150  289.41 0862.12
2015 04 09 14 02 29 .21     -35    -25     65     44     78 234.0  63.6  34204  290.33 0862.12
2015 04 09 14 02 29 .46       0      5     55      6     55 357.3  90.0  34222  290.62 0862.12
2015 04 09 14 02 29 .71      -9      1     30     10     31 281.5  81.0  34230  290.77 0862.12
2015 04 09 14 02 29 .96     -18     -6     14     20     24 251.4  39.7  34236  290.86 0862.12
2015 04 09 14 02 30 .21     -11     -9     14     15     20 230.5  47.9  34226  290.69 0862.12
2015 04 09 14 02 30 .46     -42     10    -21     44     48 283.3 -30.6  34184  289.97 0862.12
2015 04 09 14 02 30 .71     -97    -24     -7    101    102 255.8  -4.1  34106  288.65 0862.12
2015 04 09 14 02 30 .96     -92    -36     -9    100    101 248.3  -5.6  34088  288.35 0862.12
2015 04 09 14 02 31 .22     -76    -76    -26    108    112 225.0 -13.9  34100  288.57 0862.12
2015 04 09 14 02 31 .48     -88    -33     -6     95     96 249.2  -4.1  34126  289.01 0862.12
2015 04 09 14 02 31 .73     -50      0    -11     51     53 270.8 -12.4  34130  289.08 0862.12
2015 04 09 14 02 31 .98    -112     12    -22    113    116 276.6 -11.3  34114  288.79 0862.12
2015 04 09 14 02 32 .23    -120    -35    -43    126    134 253.6 -19.1  34114  288.80 0862.12
2015 04 09 14 02 32 .48     -87   -105     -2    137    138 219.7  -1.2  34116  288.82 0862.12
2015 04 09 14 02 32 .73     -88    -63     -4    109    110 234.1  -2.6  34106  288.67 0862.12
2015 04 09 14 02 32 .98    -100    -79     -5    128    129 231.8  -2.2  34116  288.82 0862.12
2015 04 09 14 02 33 .23     -98   -119     19    155    157 219.7   7.2  34114  288.80 0862.12
2015 04 09 14 02 33 .48     -87   -135      8    161    162 213.0   2.9  34118  288.86 0862.12
2015 04 09 14 02 33 .73     -69   -148     -6    164    165 204.9  -2.2  34102  288.58 0862.12
2015 04 09 14 02 33 .99     -80   -134     -4    157    158 210.8  -1.6  34126  288.99 0862.12
2015 04 09 14 02 34 .23     -74   -156      3    173    174 205.6   1.2  34114  288.80 0862.12
2015 04 09 14 02 34 .49     -51   -163    -15    171    172 197.6  -5.2  34108  288.69 0862.12
2015 04 09 14 02 34 .73     -24   -212    -11    214    215 186.5  -3.2  34076  288.16 0862.12
2015 04 09 14 02 34 .99     -51   -177      5    185    186 196.0   1.8  34060  287.87 0862.12
2015 04 09 14 02 35 .24     -84   -174     19    194    195 205.9   5.7  34084  288.28 0862.12
2015 04 09 14 02 35 .48    -110   -184    -19    215    216 210.8  -5.2  34088  288.35 0862.12
2015 04 09 14 02 35 .74    -115   -170      2    206    207 214.1   0.7  34080  288.21 0862.12
2015 04 09 14 02 35 .98    -143   -147    -26    206    208 224.1  -7.3  34038  287.52 0862.12
2015 04 09 14 02 36 .24    -111   -161     -7    196    197 214.7  -2.2  34022  287.25 0862.12
2015 04 09 14 02 36 .49    -112   -200     -5    230    231 209.2  -1.3  34080  288.21 0862.12
2015 04 09 14 02 36 .74    -114   -206      9    236    237 208.9   2.3  34088  288.34 0862.12
2015 04 09 14 02 36 .99    -139   -212      4    254    255 213.4   1.0  34072  288.07 0862.12
2015 04 09 14 02 37 .24    -106   -206    -17    232    233 207.4  -4.4  34086  288.32 0862.12
2015 04 09 14 02 37 .49    -135   -225     12    263    264 211.0   2.8  34124  288.97 0862.12
2015 04 09 14 02 37 .74    -120   -214      3    246    247 209.4   0.8  34114  288.78 0862.12
2015 04 09 14 02 37 .99    -112   -212     -9    240    241 207.9  -2.2  34090  288.37 0862.12
2015 04 09 14 02 38 .24    -109   -212    -44    239    244 207.2 -10.5  34138  289.19 0862.12
2015 04 09 14 02 38 .50     -77   -272     18    283    284 195.8   3.8  34124  288.97 0862.12
2015 04 09 14 02 38 .75     -86   -216      3    233    234 201.8   0.8  34114  288.78 0862.12
2015 04 09 14 02 39 .00    -146   -225      3    269    270 213.0   0.8  34140  289.24 0862.12
2015 04 09 14 02 39 .25    -163   -256     37    304    307 212.5   7.1  34046  287.65 0862.12
2015 04 09 14 02 39 .50    -121   -221    -27    253    255 208.7  -6.2  34042  287.56 0862.12
2015 04 09 14 02 39 .76    -106   -252     -5    274    275 202.9  -1.2  34014  287.09 0862.12
2015 04 09 14 02 40 .00    -110   -225     26    251    253 206.1   6.1  34006  286.97 0862.12
2015 04 09 14 02 40 .26     -97   -201    -12    224    225 205.9  -3.1  34010  287.03 0862.12
2015 04 09 14 02 40 .51    -122   -196    -47    232    237 211.9 -11.5  34006  286.95 0862.12
2015 04 09 14 02 40 .75    -136   -196    -48    239    244 214.7 -11.5  34008  287.01 0862.12
2015 04 09 14 02 41 .00    -154   -196    -69    250    260 218.3 -15.5  33996  286.79 0862.12
2015 04 09 14 02 41 .26    -146   -175    -63    229    238 219.9 -15.4  33998  286.82 0862.12
2015 04 09 14 02 41 .51    -157   -191    -58    248    255 219.4 -13.2  34006  286.97 0862.12
2015 04 09 14 02 41 .76    -165   -175    -43    241    245 223.3 -10.3  34002  286.90 0862.12
2015 04 09 14 02 42 .01    -166   -187    -16    251    252 221.7  -3.7  34006  286.97 0862.12
2015 04 09 14 02 42 .26    -169   -181    -17    248    249 223.0  -4.1  34012  287.06 0862.12
2015 04 09 14 02 42 .51    -130   -212     -7    249    250 211.6  -1.8  34020  287.19 0862.12
2015 04 09 14 02 42 .76    -117   -204    -20    236    237 209.9  -4.9  34010  287.02 0862.12
2015 04 09 14 02 43 .01    -100   -194    -34    219    222 207.2  -8.8  34020  287.20 0862.12
2015 04 09 14 02 43 .26    -112   -194     -2    225    226 210.1  -0.7  34028  287.33 0862.12
2015 04 09 14 02 43 .51    -118   -185    -29    220    222 212.7  -7.7  34022  287.23 0862.12
2015 04 09 14 02 43 .77    -114   -186    -12    219    220 211.4  -3.2  34042  287.59 0862.12
2015 04 09 14 02 44 .02    -165   -229    -36    283    286 215.8  -7.3  34074  288.12 0862.12
2015 04 09 14 02 44 .26    -116   -217    -26    247    249 208.1  -6.2  34072  288.09 0862.12
2015 04 09 14 02 44 .52    -122   -240    -82    270    283 207.0 -17.0  34074  288.12 0862.12
2015 04 09 14 02 44 .77    -121   -248    -93    277    293 206.1 -18.6  34064  287.93 0862.12
2015 04 09 14 02 45 .02    -111   -254    -24    278    280 203.6  -5.1  34056  287.80 0862.12
2015 04 09 14 02 45 .27    -118   -289      9    313    314 202.3   1.7  34048  287.66 0862.12
2015 04 09 14 02 45 .53    -156   -246     14    292    293 212.5   2.9  34052  287.73 0862.12
2015 04 09 14 02 45 .78    -116   -251     14    277    278 204.9   2.9  34024  287.26 0862.12
2015 04 09 14 02 46 .03     -99   -248    -34    268    271 201.8  -7.3  34046  287.63 0862.12
2015 04 09 14 02 46 .28    -150   -213    -18    261    262 215.1  -4.1  34096  288.49 0862.12
2015 04 09 14 02 46 .53    -129   -206      3    244    245 212.1   0.7  34072  288.09 0862.12
2015 04 09 14 02 46 .79    -133   -160    -28    209    211 219.7  -7.7  34080  288.23 0862.12
2015 04 09 14 02 47 .03    -119   -160    -13    200    201 216.7  -3.9  34090  288.40 0862.12
2015 04 09 14 02 47 .28    -141   -157     -2    212    213 221.9  -0.7  34104  288.64 0862.12
2015 04 09 14 02 47 .53    -134   -160     10    209    210 219.9   2.9  34114  288.80 0862.12
2015 04 09 14 02 47 .78     -93   -164     -8    189    190 209.6  -2.6  34084  288.30 0862.12
2015 04 09 14 02 48 .03     -88   -141      8    167    168 212.1   2.9  34102  288.58 0862.12
2015 04 09 14 02 48 .28     -79   -148    -22    168    170 208.1  -7.5  34094  288.45 0862.12
2015 04 09 14 02 48 .54     -86   -126    -14    153    154 214.2  -5.6  34074  288.11 0862.12
2015 04 09 14 02 48 .78     -86   -145     26    169    171 210.7   8.8  34116  288.82 0862.12
2015 04 09 14 02 49 .03     -96   -130     67    163    176 216.5  23.6  34132  289.11 0862.12
2015 04 09 14 02 49 .28    -130   -155     70    203    216 220.1  19.2  34102  288.58 0862.12
2015 04 09 14 02 49 .54    -141   -143     47    201    207 224.5  13.2  34124  288.97 0862.12
2015 04 09 14 02 49 .79    -137   -158      2    210    211 221.0   0.8  34140  289.23 0862.12
2015 04 09 14 02 50 .04    -117   -196     51    229    235 210.8  12.6  34162  289.61 0862.12
2015 04 09 14 02 50 .29     -74   -224     55    236    243 198.3  13.2  34160  289.56 0862.12
2015 04 09 14 02 50 .54    -104   -222     47    246    251 205.2  11.0  34048  287.66 0862.12
2015 04 09 14 02 50 .79    -115   -216     38    245    249 208.0   8.9  34066  287.99 0862.12
2015 04 09 14 02 51 .04    -139   -219      4    260    261 212.5   1.0  34062  287.90 0862.12
2015 04 09 14 02 51 .29    -165   -216     28    273    275 217.4   5.9  34082  288.26 0862.12
2015 04 09 14 02 51 .55    -142   -223     -5    265    266 212.5  -1.2  34042  287.58 0862.12
2015 04 09 14 02 51 .79    -133   -217    -39    255    259 211.6  -8.8  34056  287.80 0862.12
2015 04 09 14 02 52 .05    -148   -232      3    276    277 212.6   0.8  34062  287.90 0862.12
2015 04 09 14 02 52 .30    -140   -218     -2    260    261 212.7  -0.5  34054  287.77 0862.12
2015 04 09 14 02 52 .55    -133   -200     -9    241    242 213.6  -2.2  34068  288.00 0862.12
2015 04 09 14 02 52 .80    -114   -180     10    214    215 212.5   2.9  34054  287.79 0862.12
2015 04 09 14 02 53 .06    -116   -176     25    211    213 213.4   6.9  34056  287.81 0862.12
2015 04 09 14 02 53 .31    -116   -156     30    195    198 216.5   8.8  34068  288.03 0862.12
2015 04 09 14 02 53 .56    -115   -163     43    200    205 215.2  12.2  34078  288.18 0862.12
2015 04 09 14 02 53 .81    -136   -127      9    187    188 226.9   2.9  34078  288.18 0862.12
2015 04 09 14 02 54 .07    -100   -125     12    161    162 218.7   4.6  34134  289.13 0862.12
2015 04 09 14 02 54 .31     -99    -87     65    132    147 228.7  27.3  34176  289.85 0862.12
2015 04 09 14 02 54 .56     -63   -188     91    199    218 198.7  26.4  34172  289.79 0862.12
2015 04 09 14 02 54 .81    -182   -152    110    238    262 230.2  26.4  34190  290.07 0862.12
2015 04 09 14 02 55 .06    -139   -218    117    259    284 212.5  26.2  34196  290.17 0862.12
2015 04 09 14 02 55 .31    -136   -221     92    260    275 211.7  20.2  34200  290.24 0862.12
2015 04 09 14 02 55 .56    -107   -160     95    193    215 213.8  28.0  34202  290.30 0862.12
2015 04 09 14 02 55 .81     -78   -190     72    206    218 202.5  20.0  34206  290.36 0862.12
2015 04 09 14 02 56 .06     -78   -156    113    175    208 206.5  35.7  34216  290.52 0862.12
2015 04 09 14 02 56 .31       5    -67     75     68    101 175.5  52.7  34220  290.60 0862.12
2015 04 09 14 02 56 .56      79   -116     -3    141    142 145.8  -1.3  34194  290.16 0862.12
2015 04 09 14 02 56 .82     100   -196     -8    221    222 152.8  -2.2  34106  288.67 0862.12
2015 04 09 14 02 57 .07      75   -191    -21    206    208 158.4  -6.0  34136  289.18 0862.12
2015 04 09 14 02 57 .32      42   -195    -41    200    205 167.7 -11.6  34228  290.74 0862.12
2015 04 09 14 02 57 .57      78   -154     47    173    180 153.0  15.2  34212  290.47 0862.12
2015 04 09 14 02 57 .82      21   -174     33    176    180 172.9  10.8  34214  290.48 0862.12
2015 04 09 14 02 58 .07      53   -201     41    208    213 165.1  11.1  34226  290.70 0862.12
2015 04 09 14 02 58 .32      45   -159     -6    166    167 164.2  -2.1  34226  290.70 0862.12
2015 04 09 14 02 58 .57      43   -172     -6    178    179 166.0  -2.2  34196  290.19 0862.12
2015 04 09 14 02 58 .82       2   -140     19    141    143 179.1   8.0  34232  290.79 0862.12
2015 04 09 14 02 59 .07      14   -129     10    130    131 173.8   4.4  34206  290.36 0862.12
2015 04 09 14 02 59 .33     -13   -128     18    129    131 185.8   8.0  34246  291.04 0862.12
2015 04 09 14 02 59 .58      -2   -124     53    125    135 181.0  24.6  34262  291.30 0862.12
2015 04 09 14 02 59 .83       3   -144    -29    145    148 178.6 -11.3  34202  290.30 0862.12
2015 04 09 14 03 00 .08      -9   -109     83    110    137 184.9  41.2  34272  291.47 0862.12
2015 04 09 14 03 00 .33     -31   -114     49    119    128 195.6  23.6  34280  291.60 0862.12
2015 04 09 14 03 00 .58     -10   -138     36    139    144 184.4  14.7  34224  290.67 0862.12
2015 04 09 14 03 00 .84     -18   -122     43    124    132 188.5  19.4  34264  291.33 0862.12
2015 04 09 14 03 01 .08     -18   -167     34    169    173 186.2  11.6  34164  289.63 0862.12
2015 04 09 14 03 01 .33      38   -174     26    179    181 167.5   8.5  34144  289.31 0862.12
2015 04 09 14 03 01 .58      12   -162     24    163    165 175.5   8.5  34162  289.60 0862.12
2015 04 09 14 03 01 .84     -24   -155     18    157    159 188.9   6.7  34086  288.31 0862.12
2015 04 09 14 03 02 .09     -32   -138     26    142    145 193.4  10.6  34088  288.36 0862.12
2015 04 09 14 03 02 .35      22   -132     27    134    137 170.2  11.6  34182  289.96 0862.12
2015 04 09 14 03 02 .60     -31   -205     -1    208    209 188.7  -0.5  34114  288.79 0862.12
2015 04 09 14 03 02 .83     -41   -229     86    233    248 190.2  21.0  34196  290.17 0862.12
2015 04 09 14 03 03 .09      16   -241    -28    242    244 176.2  -6.7  34002  286.89 0862.12
2015 04 09 14 03 03 .34      15   -241    -15    242    243 176.4  -3.7  34038  287.50 0862.12
2015 04 09 14 03 03 .59      19   -249    -45    250    255 175.6 -10.4  34010  287.02 0862.12
2015 04 09 14 03 03 .85      30   -245    -55    247    254 172.9 -12.6  34028  287.34 0862.12
2015 04 09 14 03 04 .09      44   -226      9    231    232 168.9   2.3  34176  289.84 0862.12
2015 04 09 14 03 04 .34      35   -216      6    219    220 170.7   1.6  34180  289.92 0862.12
2015 04 09 14 03 04 .59      79   -235     48    249    254 161.3  11.0  34134  289.12 0862.12
2015 04 09 14 03 04 .85      56   -237    -28    244    246 166.6  -6.7  34002  286.89 0862.12
2015 04 09 14 03 05 .10      14   -201     13    202    203 176.0   3.8  34122  288.94 0862.12
2015 04 09 14 03 05 .34      25   -200      8    202    203 172.7   2.3  34010  287.03 0862.12
2015 04 09 14 03 05 .60      52   -189    -15    197    198 164.6  -4.6  34010  287.05 0862.12
2015 04 09 14 03 05 .84      51   -195    -18    202    203 165.1  -5.4  34030  287.38 0862.12
2015 04 09 14 03 06 .09      29   -181     -5    184    185 170.7  -1.6  34022  287.23 0862.12
2015 04 09 14 03 06 .36      16   -165     19    166    168 174.2   6.7  34060  287.89 0862.12
2015 04 09 14 03 06 .61       0   -205     -7    206    207 179.8  -2.1  34112  288.77 0862.12
2015 04 09 14 03 06 .86      15   -210     20    211    212 175.8   5.4  34112  288.75 0862.12
2015 04 09 14 03 07 .10      18   -197      0    198    199 174.7   0.0  34040  287.55 0862.12
2015 04 09 14 03 07 .36      22   -185    -10    187    188 173.1  -3.3  34046  287.64 0862.12
2015 04 09 14 03 07 .61     -21   -176     49    178    185 186.9  15.6  34080  288.23 0862.12
2015 04 09 14 03 07 .86     -36   -178     78    182    198 191.6  24.6  34096  288.50 0862.12
2015 04 09 14 03 08 .11      31   -136     56    140    150 167.1  23.0  34158  289.53 0862.12
2015 04 09 14 03 08 .36      10   -180    -16    181    182 176.6  -5.2  34054  287.79 0862.12
2015 04 09 14 03 08 .61      17   -188      0    189    190 174.7   0.0  34064  287.96 0862.12
2015 04 09 14 03 08 .87      39   -195     -5    199    200 168.7  -1.6  34084  288.30 0862.12
2015 04 09 14 03 09 .11      39   -186     45    191    197 168.0  13.2  34104  288.64 0862.12
2015 04 09 14 03 09 .36     -14   -223     -8    224    225 183.6  -2.2  34042  287.57 0862.12
2015 04 09 14 03 09 .61     -14   -200     38    201    205 184.2  10.8  34074  288.13 0862.12
2015 04 09 14 03 09 .87     -96   -277    -16    294    295 199.2  -3.2  34032  287.41 0862.12
2015 04 09 14 03 10 .11     -89   -323    -17    336    337 195.5  -3.0  34016  287.13 0862.12
2015 04 09 14 03 10 .37     -52   -318    -23    323    324 189.3  -4.2  33992  286.72 0862.12
2015 04 09 14 03 10 .61     -89   -267    -36    282    285 198.5  -7.3  34000  286.87 0862.12
2015 04 09 14 03 10 .87     -83   -236     -9    251    252 199.4  -2.2  34008  287.01 0862.12
2015 04 09 14 03 11 .13     -82   -294    -38    306    309 195.6  -7.2  34054  287.78 0862.12
2015 04 09 14 03 11 .37    -103   -269      4    289    290 200.9   0.8  34110  288.73 0862.12
2015 04 09 14 03 11 .61    -113   -223    -55    251    258 207.0 -12.4  34102  288.59 0862.12
2015 04 09 14 03 11 .87     -91   -244     -5    261    262 200.5  -1.3  34056  287.80 0862.12
2015 04 09 14 03 12 .12     -93   -244    -10    262    263 200.9  -2.3  34076  288.14 0862.12
2015 04 09 14 03 12 .36     -62   -188      0    198    199 198.3   0.2  34026  287.30 0862.12
2015 04 09 14 03 12 .62     -42   -238     -5    242    243 190.2  -1.3  34072  288.07 0862.12
2015 04 09 14 03 12 .87     -62   -231     -2    240    241 195.2  -0.5  34052  287.75 0862.12
2015 04 09 14 03 13 .13     -32   -214     13    217    218 188.7   3.6  34110  288.74 0862.12
2015 04 09 14 03 13 .38     -61   -235      0    243    244 194.7   0.0  34068  288.02 0862.12
2015 04 09 14 03 13 .63     -46   -249      7    254    255 190.6   1.8  34064  287.93 0862.12
2015 04 09 14 03 13 .88    -126   -179      6    220    221 215.2   1.8  34096  288.48 0862.12
2015 04 09 14 03 14 .13     -76   -161     -3    179    180 205.3  -1.3  34078  288.18 0862.12
2015 04 09 14 03 14 .39     -59   -199    -25    208    210 196.7  -6.9  34046  287.65 0862.12
2015 04 09 14 03 14 .64     -48   -167    -21    174    176 196.3  -6.9  34080  288.21 0862.12
2015 04 09 14 03 14 .89    -104   -142    -12    177    178 216.3  -3.9  34080  288.23 0862.12
2015 04 09 14 03 15 .14     -85   -134     78    160    178 212.5  28.0  34116  288.82 0862.11
2015 04 09 14 03 15 .39     -80   -126     76    150    168 212.6  29.1  34114  288.79 0862.11
2015 04 09 14 03 15 .63     -82   -136     23    159    161 211.2   8.5  34112  288.75 0862.11
2015 04 09 14 03 15 .88    -133   -223     53    260    266 210.8  11.6  34072  288.07 0862.11
2015 04 09 14 03 16 .14     -96   -266     24    283    285 200.0   5.0  34000  286.87 0862.11
2015 04 09 14 03 16 .39     -90   -214     -9    233    234 202.9  -2.2  34012  287.06 0862.11
2015 04 09 14 03 16 .64    -146   -238    -92    280    295 211.6 -18.3  34024  287.26 0862.11
2015 04 09 14 03 16 .89     -77   -238     -1    251    252 197.9  -0.3  34086  288.31 0862.11
2015 04 09 14 03 17 .14     -58   -162     -4    173    174 199.8  -1.6  34118  288.87 0862.11
2015 04 09 14 03 17 .40     -85   -155     45    177    183 208.7  14.3  34146  289.33 0862.11
2015 04 09 14 03 17 .64     -90    -90    -21    128    130 225.1  -9.4  34102  288.60 0862.11
2015 04 09 14 03 17 .89    -109   -127    -50    168    176 220.8 -16.6  34002  286.91 0862.11
2015 04 09 14 03 18 .15    -125   -154    -54    199    207 219.2 -15.2  34010  287.05 0862.11
2015 04 09 14 03 18 .39     -98   -155    -44    184    190 212.5 -13.7  34018  287.16 0862.11
2015 04 09 14 03 18 .64    -112   -139    -52    179    187 218.7 -16.4  34044  287.62 0862.11
2015 04 09 14 03 18 .89    -116   -129    -59    174    184 221.9 -18.9  34042  287.57 0862.12
2015 04 09 14 03 19 .15    -123   -134    -35    182    186 222.5 -10.9  34024  287.28 0862.12
2015 04 09 14 03 19 .40    -105   -147    -23    182    184 215.6  -7.3  34020  287.21 0862.12
2015 04 09 14 03 19 .65     -81   -150     -9    171    172 208.5  -3.1  34036  287.47 0862.12
2015 04 09 14 03 19 .89    -102   -156    -51    187    194 213.2 -15.4  34012  287.06 0862.12
2015 04 09 14 03 20 .16     -97   -148    -36    178    182 213.4 -11.5  34010  287.05 0862.12
2015 04 09 14 03 20 .41     -87   -155    -10    178    179 209.4  -3.3  34022  287.25 0862.12
2015 04 09 14 03 20 .66     -92   -163     -3    188    189 209.4  -1.2  34022  287.25 0862.12
2015 04 09 14 03 20 .91     -96   -163      0    190    191 210.7   0.0  34024  287.28 0862.12
2015 04 09 14 03 21 .16    -101   -179    -32    206    209 209.6  -8.8  34014  287.10 0862.12
2015 04 09 14 03 21 .41    -107   -165    -24    197    199 213.0  -7.2  34006  286.96 0862.12
2015 04 09 14 03 21 .66    -109   -168    -34    201    204 213.0  -9.6  34002  286.91 0862.12
2015 04 09 14 03 21 .91     -95   -168    -20    194    196 209.6  -6.0  34002  286.91 0862.12
2015 04 09 14 03 22 .16     -92   -180      9    203    204 207.2   2.8  34002  286.91 0862.12
2015 04 09 14 03 22 .42     -97   -172     -2    198    199 209.6  -0.7  34016  287.15 0862.12
2015 04 09 14 03 22 .66    -101   -166     -7    195    196 211.2  -2.2  34040  287.55 0862.12
2015 04 09 14 03 22 .91    -107   -194     18    222    223 209.0   4.9  34022  287.23 0862.12
2015 04 09 14 03 23 .16    -117   -187    -36    221    225 212.1  -9.3  34018  287.18 0862.12
2015 04 09 14 03 23 .41    -103   -173    -42    202    207 210.7 -11.9  34016  287.15 0862.12
2015 04 09 14 03 23 .66    -107   -154     -9    188    189 214.7  -2.8  34018  287.16 0862.12
2015 04 09 14 03 23 .92     -94   -154    -31    181    184 211.6  -9.8  34020  287.20 0862.12
2015 04 09 14 03 24 .17     -83   -169    -35    189    193 206.1 -10.5  34028  287.33 0862.12
2015 04 09 14 03 24 .41     -85   -159    -30    181    184 208.3  -9.6  34032  287.40 0862.12
2015 04 09 14 03 24 .67     -65   -139    -19    154    156 205.3  -7.3  34030  287.38 0862.12
2015 04 09 14 03 24 .92    -115   -157     -7    196    197 216.3  -2.2  34036  287.47 0862.12
2015 04 09 14 03 25 .17    -117   -173    -34    209    212 214.1  -9.4  34028  287.33 0862.12
2015 04 09 14 03 25 .42    -114   -176     -8    211    212 213.0  -2.3  34030  287.38 0862.12
2015 04 09 14 03 25 .67    -107   -180    -16    210    211 210.7  -4.6  34030  287.37 0862.12
2015 04 09 14 03 25 .92    -103   -187     -4    214    215 209.0  -1.3  34034  287.43 0862.12
2015 04 09 14 03 26 .17    -115   -194     11    226    227 210.8   2.8  34028  287.33 0862.12
2015 04 09 14 03 26 .42    -105   -192    -28    220    222 208.7  -7.5  34028  287.33 0862.12
2015 04 09 14 03 26 .67     -91   -174      6    197    198 207.6   1.8  34026  287.32 0862.12
2015 04 09 14 03 26 .92    -122   -167     -5    207    208 216.1  -1.6  34028  287.33 0862.12
2015 04 09 14 03 27 .18    -113   -181    -43    214    219 211.9 -11.6  34018  287.18 0862.12
2015 04 09 14 03 27 .43    -105   -168    -38    199    203 212.1 -10.9  34020  287.21 0862.12
2015 04 09 14 03 27 .68    -101   -159    -49    189    196 212.5 -14.7  34010  287.05 0862.12
2015 04 09 14 03 27 .93    -108   -159    -52    193    200 214.3 -15.2  34006  286.96 0862.12
2015 04 09 14 03 28 .19     -96   -159    -56    186    195 211.2 -17.0  34010  287.03 0862.12
2015 04 09 14 03 28 .43     -95   -135    -47    166    173 215.2 -16.0  34014  287.11 0862.12
2015 04 09 14 03 28 .69     -92   -122    -55    154    164 217.0 -19.7  34018  287.16 0862.12
2015 04 09 14 03 28 .94    -111   -138    -12    178    179 218.7  -4.1  34024  287.28 0862.12
2015 04 09 14 03 29 .19    -102   -154     -5    185    186 213.6  -1.6  34024  287.28 0862.12
2015 04 09 14 03 29 .44     -81   -127     -8    151    152 212.6  -3.2  34034  287.45 0862.12
2015 04 09 14 03 29 .69    -118   -143    -21    186    188 219.7  -6.7  34044  287.62 0862.13
2015 04 09 14 03 29 .94    -142   -158    -17    213    214 221.9  -4.6  34048  287.67 0862.13
2015 04 09 14 03 30 .19    -144   -144    -27    204    206 225.1  -7.7  34044  287.60 0862.13
2015 04 09 14 03 30 .44    -128   -158    -17    204    205 219.2  -4.9  34076  288.16 0862.13
2015 04 09 14 03 30 .69    -132   -140      0    193    194 223.2   0.0  34074  288.13 0862.12
2015 04 09 14 03 30 .94    -130   -156    -11    204    205 219.9  -3.3  34096  288.48 0862.12
2015 04 09 14 03 31 .19    -111   -163      0    198    199 214.3   0.0  34104  288.62 0862.12
2015 04 09 14 03 31 .45    -107   -167     -5    199    200 212.7  -1.6  34122  288.94 0862.12
2015 04 09 14 03 31 .69    -100   -138     -5    171    172 216.1  -1.8  34100  288.57 0862.12
2015 04 09 14 03 31 .94     -99   -134      6    167    168 216.5   2.1  34112  288.77 0862.12
2015 04 09 14 03 32 .20    -111   -131      0    173    174 220.3   0.2  34102  288.58 0862.12
2015 04 09 14 03 32 .44    -129   -161     17    207    208 218.7   4.9  34080  288.21 0862.13
2015 04 09 14 03 32 .70    -114   -158     -7    195    196 215.8  -2.2  34062  287.91 0862.13
2015 04 09 14 03 32 .94    -126   -137    -21    187    189 222.5  -6.5  34060  287.89 0862.13
2015 04 09 14 03 33 .20    -131   -133    -28    188    191 224.5  -8.6  34062  287.91 0862.13
2015 04 09 14 03 33 .45    -120   -162    -52    202    209 216.5 -14.7  34066  287.99 0862.13
2015 04 09 14 03 33 .70    -114   -143    -47    184    191 218.5 -14.5  34064  287.94 0862.13
2015 04 09 14 03 33 .95    -114   -126    -30    171    174 222.1 -10.1  34064  287.94 0862.13
2015 04 09 14 03 34 .21    -104   -143    -36    178    182 216.1 -11.5  34064  287.94 0862.12
2015 04 09 14 03 34 .46     -99   -153    -38    183    188 213.0 -11.9  34068  288.03 0862.12
2015 04 09 14 03 34 .72    -103   -161    -23    192    194 212.7  -6.9  34092  288.42 0862.12
2015 04 09 14 03 34 .96    -132   -143    -36    195    199 222.8 -10.5  34092  288.42 0862.12
2015 04 09 14 03 35 .21    -136   -138    -30    194    197 224.5  -8.8  34080  288.21 0862.12
2015 04 09 14 03 35 .46    -135   -132    -24    189    191 225.6  -7.3  34090  288.40 0862.12
2015 04 09 14 03 35 .71     -99   -157     11    186    187 212.3   3.6  34086  288.31 0862.12
2015 04 09 14 03 35 .97    -151   -174     14    231    232 221.0   3.6  34118  288.86 0862.12
2015 04 09 14 03 36 .22    -155   -126     15    200    201 230.9   4.4  34118  288.87 0862.12
2015 04 09 14 03 36 .47     -96   -130     44    162    168 216.5  15.3  34142  289.28 0862.12
2015 04 09 14 03 36 .72     -95    -98     46    137    145 224.1  18.9  34168  289.72 0862.12
2015 04 09 14 03 36 .97     -88   -132     64    159    171 213.8  23.0  34216  290.53 0862.12
2015 04 09 14 03 37 .21     -58   -114     83    129    153 207.2  35.6  34176  289.84 0862.12
2015 04 09 14 03 37 .47     -85   -138     67    163    176 211.6  23.6  34158  289.55 0862.12
2015 04 09 14 03 37 .71     -88   -187     17    207    208 205.2   4.9  34126  289.01 0862.12
2015 04 09 14 03 37 .97    -110   -169     23    202    204 213.2   6.5  34108  288.70 0862.12
2015 04 09 14 03 38 .22    -113   -177     25    211    213 212.6   6.9  34106  288.67 0862.12
2015 04 09 14 03 38 .47     -76   -185     35    201    205 202.5  10.1  34126  288.99 0862.12
2015 04 09 14 03 38 .72     -73   -136     47    155    163 208.5  17.1  34138  289.21 0862.11
2015 04 09 14 03 38 .97     -73   -135     25    154    157 208.5   9.5  34128  289.04 0862.11
2015 04 09 14 03 39 .22     -85   -149     21    172    174 209.6   7.1  34116  288.82 0862.11
2015 04 09 14 03 39 .47     -80   -144     -9    165    166 209.2  -3.3  34102  288.58 0862.11
2015 04 09 14 03 39 .72    -110   -152    -34    188    192 215.8 -10.5  34088  288.35 0862.11
2015 04 09 14 03 39 .98    -113   -180     -8    213    214 212.3  -2.2  34158  289.55 0862.11
2015 04 09 14 03 40 .22    -134   -134    -10    190    191 225.1  -3.1  34154  289.46 0862.11
2015 04 09 14 03 40 .47     -93   -117     46    150    158 218.7  17.3  34192  290.11 0862.11
2015 04 09 14 03 40 .73    -113   -164     29    200    203 214.7   8.2  34174  289.80 0862.11
2015 04 09 14 03 40 .99    -117   -147     16    188    189 218.5   4.9  34158  289.55 0862.11
2015 04 09 14 03 41 .23    -135   -139     41    194    199 224.1  12.0  34166  289.69 0862.11
2015 04 09 14 03 41 .49    -149   -142     32    207    210 226.4   9.0  34172  289.77 0862.11
2015 04 09 14 03 41 .73    -147   -147     33    209    212 225.0   9.0  34248  291.08 0862.11
2015 04 09 14 03 41 .99    -139   -159     38    212    216 221.0  10.3  34238  290.91 0862.11
2015 04 09 14 03 42 .24    -124   -134     60    183    193 222.8  18.4  34250  291.09 0862.11
2015 04 09 14 03 42 .49    -162   -172     18    237    238 223.3   4.6  34132  289.10 0862.11
2015 04 09 14 03 42 .74    -145   -175      6    228    229 219.7   1.6  34120  288.91 0862.11
2015 04 09 14 03 42 .98    -215   -145     -5    260    261 235.9  -1.2  34070  288.05 0862.11
2015 04 09 14 03 43 .24    -202   -122    -17    237    238 238.9  -4.1  34056  287.80 0862.11
2015 04 09 14 03 43 .50    -173   -112     -8    207    208 237.1  -2.3  34068  288.03 0862.11
2015 04 09 14 03 43 .74    -162   -123     -7    204    205 232.9  -2.2  34088  288.36 0862.11
2015 04 09 14 03 43 .99    -160   -159      7    226    227 225.2   1.8  34104  288.64 0862.11
2015 04 09 14 03 44 .24    -182   -138      0    229    230 232.9   0.2  34110  288.74 0862.12
2015 04 09 14 03 44 .49    -176   -129     -2    219    220 233.6  -0.7  34110  288.74 0862.12
2015 04 09 14 03 44 .74    -231   -158    -22    281    282 235.6  -4.6  34050  287.71 0862.12
2015 04 09 14 03 44 .99    -226   -148    -39    271    274 236.7  -8.2  34030  287.38 0862.12
2015 04 09 14 03 45 .24    -231   -138    -46    270    275 239.1  -9.8  34036  287.46 0862.12
2015 04 09 14 03 45 .49    -245   -152    -47    289    293 238.2  -9.3  34048  287.66 0862.12
2015 04 09 14 03 45 .75    -256   -120    -56    284    290 244.8 -11.3  34110  288.73 0862.12
2015 04 09 14 03 45 .99    -270    -98    -45    288    292 250.0  -9.0  34096  288.49 0862.12
2015 04 09 14 03 46 .25    -194    -45    -17    200    201 257.0  -4.9  34128  289.02 0862.12
2015 04 09 14 03 46 .51    -164   -180     30    244    246 222.3   7.2  34156  289.51 0862.12
2015 04 09 14 03 46 .75    -131   -174     63    218    228 217.0  16.3  34236  290.87 0862.12
2015 04 09 14 03 47 .00     -83   -163     58    183    193 207.0  17.7  34254  291.18 0862.12
2015 04 09 14 03 47 .25    -109   -176     77    208    221 211.9  21.0  34242  290.96 0862.12
2015 04 09 14 03 47 .50     -98   -122     61    157    168 218.7  22.3  34252  291.15 0862.12
2015 04 09 14 03 47 .75    -101   -127     86    163    184 218.7  30.3  34254  291.16 0862.12
2015 04 09 14 03 48 .01    -134   -134     -7    190    191 225.0  -2.2  34260  291.28 0862.12
2015 04 09 14 03 48 .26    -121   -130      6    178    179 223.0   2.1  34226  290.70 0862.12
2015 04 09 14 03 48 .51    -111   -147     41    185    190 217.0  12.6  34102  288.60 0862.12
2015 04 09 14 03 48 .76    -111   -138     74    178    192 218.7  23.6  34204  290.33 0862.12
2015 04 09 14 03 49 .02     -93   -112     17    146    148 219.6   6.9  34230  290.77 0862.12
2015 04 09 14 03 49 .27     -66   -103     50    123    132 212.6  23.0  34232  290.79 0862.12
2015 04 09 14 03 49 .52     -87    -96     26    130    133 222.3  11.6  34242  290.98 0862.12
2015 04 09 14 03 49 .76    -135   -148     54    201    209 222.3  15.0  34248  291.06 0862.12
2015 04 09 14 03 50 .02    -144   -133     30    197    200 227.3   8.9  34252  291.15 0862.12
2015 04 09 14 03 50 .26    -146   -155     38    214    218 223.2  10.1  34250  291.11 0862.12
2015 04 09 14 03 50 .52    -142   -120     12    187    188 229.8   3.8  34244  291.01 0862.11
2015 04 09 14 03 50 .77    -230   -124     -8    262    263 241.6  -1.8  34256  291.21 0862.11
2015 04 09 14 03 51 .01    -219   -186     15    288    289 229.6   3.1  34240  290.92 0862.11
2015 04 09 14 03 51 .27    -201   -173      8    266    267 229.3   1.8  34238  290.88 0862.12
2015 04 09 14 03 51 .52    -260   -165    -16    309    310 237.5  -3.1  34108  288.70 0862.12
2015 04 09 14 03 51 .77    -288   -141    -49    321    325 243.8  -8.8  34126  289.00 0862.12
2015 04 09 14 03 52 .02    -233    -97    -18    253    254 247.3  -4.1  34156  289.51 0862.12
2015 04 09 14 03 52 .27    -267   -194    -15    331    332 234.0  -2.7  34088  288.35 0862.12
2015 04 09 14 03 52 .53    -229   -213     13    313    314 227.1   2.5  34080  288.21 0862.12
2015 04 09 14 03 52 .77    -258   -192      4    322    323 233.4   0.8  34086  288.31 0862.12
2015 04 09 14 03 53 .02    -286   -202    -13    351    352 234.8  -2.2  34060  287.89 0862.12
2015 04 09 14 03 53 .27    -285   -214     -4    357    358 233.0  -0.7  34088  288.35 0862.12
2015 04 09 14 03 53 .52    -300   -227    -14    377    378 232.9  -2.2  34100  288.57 0862.12
2015 04 09 14 03 53 .78    -289   -229    -14    369    370 231.6  -2.2  34116  288.84 0862.12
2015 04 09 14 03 54 .03    -292   -229    -44    372    375 231.9  -6.8  34112  288.77 0862.12
2015 04 09 14 03 54 .27    -277   -246     12    371    372 228.4   1.9  34108  288.69 0862.12
2015 04 09 14 03 54 .53    -274   -257    -27    376    377 226.8  -4.1  34094  288.45 0862.12
2015 04 09 14 03 54 .78    -248   -283    -84    377    387 221.2 -12.7  34044  287.62 0862.12
2015 04 09 14 03 55 .04    -175   -314    -48    360    364 209.1  -7.6  34090  288.40 0862.11
2015 04 09 14 03 55 .29    -177   -278    -63    330    337 212.5 -10.9  34066  287.98 0862.11
2015 04 09 14 03 55 .54    -230   -271    -25    356    357 220.3  -4.1  34142  289.28 0862.11
2015 04 09 14 03 55 .79    -218   -249    -18    332    333 221.2  -3.2  34166  289.67 0862.11
2015 04 09 14 03 56 .04    -265   -265    -48    375    379 225.0  -7.4  34078  288.18 0862.11
2015 04 09 14 03 56 .29    -210   -223    -62    307    314 223.2 -11.5  34084  288.27 0862.11
2015 04 09 14 03 56 .54    -202   -244    -31    318    320 219.6  -5.6  34084  288.27 0862.11
2015 04 09 14 03 56 .79    -192   -247    -14    313    314 217.9  -2.6  34106  288.66 0862.11
2015 04 09 14 03 57 .04    -172   -223    -35    282    285 217.6  -7.2  34088  288.34 0862.11
2015 04 09 14 03 57 .30    -220   -234     -9    322    323 223.2  -1.7  34128  289.03 0862.11
2015 04 09 14 03 57 .54    -234   -232     13    330    331 225.3   2.3  34146  289.32 0862.11
2015 04 09 14 03 57 .79    -269   -243    -20    363    364 228.0  -3.3  34126  288.99 0862.11
2015 04 09 14 03 58 .05    -235   -263    -21    353    354 221.8  -3.5  34138  289.20 0862.11
2015 04 09 14 03 58 .30    -186   -266    -12    325    326 215.0  -2.3  34150  289.39 0862.11
2015 04 09 14 03 58 .55    -195   -252     32    319    321 217.8   5.8  34158  289.53 0862.11
2015 04 09 14 03 58 .80    -171   -260     13    312    313 213.4   2.4  34196  290.17 0862.11
2015 04 09 14 03 59 .04    -154   -226    -10    274    275 214.3  -2.2  34134  289.12 0862.11
2015 04 09 14 03 59 .30    -142   -224    -10    266    267 212.5  -2.2  34124  288.95 0862.11
2015 04 09 14 03 59 .54    -139   -221      8    262    263 212.1   1.8  34114  288.78 0862.11
2015 04 09 14 03 59 .80    -179   -216     -7    281    282 219.7  -1.6  34158  289.53 0862.11
2015 04 09 14 04 00 .05    -186   -199     -6    273    274 223.0  -1.3  34134  289.14 0862.11
2015 04 09 14 04 00 .30    -219   -219    -28    311    313 225.0  -5.2  34094  288.46 0862.11
2015 04 09 14 04 00 .55    -214   -227    -14    313    314 223.3  -2.7  34100  288.54 0862.11
2015 04 09 14 04 00 .80    -224   -211    -27    308    310 226.7  -5.1  34100  288.54 0862.11
2015 04 09 14 04 01 .06    -190   -224    -11    295    296 220.3  -2.2  34126  288.98 0862.11
2015 04 09 14 04 01 .30    -184   -246    -12    308    309 216.7  -2.2  34152  289.44 0862.12
2015 04 09 14 04 01 .56    -162   -237      1    288    289 214.3   0.2  34142  289.27 0862.12
2015 04 09 14 04 01 .80    -151   -233      5    278    279 213.0   1.2  34140  289.22 0862.12
2015 04 09 14 04 02 .06    -157   -243     14    290    291 213.0   2.8  34108  288.70 0862.12
2015 04 09 14 04 02 .32    -143   -225    -27    267    269 212.5  -6.0  34120  288.90 0862.12
2015 04 09 14 04 02 .57    -135   -235     10    272    273 209.9   2.1  34150  289.41 0862.12
2015 04 09 14 04 02 .81    -121   -221     -9    252    253 208.7  -2.2  34120  288.90 0862.12
2015 04 09 14 04 03 .07    -139   -243      7    280    281 209.8   1.6  34156  289.49 0862.11
2015 04 09 14 04 03 .31    -154   -242     34    287    290 212.5   6.9  34214  290.48 0862.11
2015 04 09 14 04 03 .57    -175   -266     37    319    322 213.4   6.7  34186  290.00 0862.11
2015 04 09 14 04 03 .81    -144   -275     56    311    317 207.6  10.2  34186  290.02 0862.11
2015 04 09 14 04 04 .07    -158   -256     15    301    302 211.7   2.9  34106  288.66 0862.11
2015 04 09 14 04 04 .32    -157   -247      8    293    294 212.5   1.7  34096  288.49 0862.11
2015 04 09 14 04 04 .57    -109   -287     28    308    310 200.9   5.3  34118  288.87 0862.11
2015 04 09 14 04 04 .82    -129   -226     56    261    268 209.6  12.2  34124  288.95 0862.11
2015 04 09 14 04 05 .07    -185   -230     15    296    297 218.7   2.9  34162  289.59 0862.12
2015 04 09 14 04 05 .32    -185   -273      6    330    331 214.2   1.1  34142  289.25 0862.12
2015 04 09 14 04 05 .57    -217   -305     30    375    377 215.4   4.6  34154  289.47 0862.12
2015 04 09 14 04 05 .82    -141   -254     66    291    299 209.0  12.9  34136  289.17 0862.12
2015 04 09 14 04 06 .08    -164   -225     98    279    296 216.1  19.4  34150  289.39 0862.12
2015 04 09 14 04 06 .33    -173   -212     42    274    278 219.2   8.9  34170  289.75 0862.12
2015 04 09 14 04 06 .58    -212   -181     18    279    280 229.5   3.8  34188  290.05 0862.12
2015 04 09 14 04 06 .82    -246   -178    -11    304    305 234.0  -2.2  34036  287.48 0862.12
2015 04 09 14 04 07 .08    -206   -131    -56    245    252 237.5 -12.9  33984  286.60 0862.12
2015 04 09 14 04 07 .33    -180   -114    -33    214    217 237.6  -9.0  34006  286.96 0862.12
2015 04 09 14 04 07 .58    -155   -128    -25    202    204 230.5  -7.2  34008  287.01 0862.12
2015 04 09 14 04 07 .82    -172   -141     -4    223    224 230.7  -1.3  34008  287.01 0862.11
2015 04 09 14 04 08 .08    -176   -174     53    248    254 225.3  12.2  34102  288.58 0862.11
2015 04 09 14 04 08 .33    -204   -211     31    294    296 224.1   6.1  34124  288.95 0862.11
2015 04 09 14 04 08 .58    -210   -216     47    302    306 224.1   9.0  34114  288.80 0862.11
2015 04 09 14 04 08 .84    -301   -253      2    394    395 230.0   0.4  34062  287.91 0862.11
2015 04 09 14 04 09 .09    -308   -309    -39    437    439 224.9  -5.2  34040  287.55 0862.11
2015 04 09 14 04 09 .34    -308   -289    -32    423    425 226.9  -4.4  34018  287.16 0862.11
2015 04 09 14 04 09 .59    -275   -274    -25    389    390 225.2  -3.8  34014  287.10 0862.11
2015 04 09 14 04 09 .84    -316   -284    -50    426    429 228.1  -6.7  34014  287.11 0862.11
2015 04 09 14 04 10 .09    -303   -270    -62    406    411 228.3  -8.8  34012  287.06 0862.11
2015 04 09 14 04 10 .34    -311   -273    -31    414    416 228.7  -4.4  34014  287.11 0862.11
2015 04 09 14 04 10 .59    -256   -248      0    357    358 226.0   0.0  34034  287.45 0862.11
2015 04 09 14 04 10 .84    -274   -268      5    384    385 225.7   0.8  34026  287.29 0862.11
2015 04 09 14 04 11 .09    -290   -245    -48    380    384 229.8  -7.2  34020  287.20 0862.11
2015 04 09 14 04 11 .34    -264   -244    -37    360    362 227.2  -5.9  34032  287.42 0862.12
2015 04 09 14 04 11 .59    -289   -266    -15    393    394 227.4  -2.2  34066  287.98 0862.12
2015 04 09 14 04 11 .85    -273   -285    -24    395    396 223.8  -3.5  34034  287.45 0862.12
2015 04 09 14 04 12 .10    -275   -261    -48    380    384 226.5  -7.2  34054  287.79 0862.12
2015 04 09 14 04 12 .35    -289   -288    -19    409    410 225.1  -2.7  34094  288.46 0862.12
2015 04 09 14 04 12 .60    -299   -278    -34    409    411 227.1  -4.9  34082  288.26 0862.12
2015 04 09 14 04 12 .85    -374   -289    -18    473    474 232.3  -2.2  34066  287.98 0862.12
2015 04 09 14 04 13 .10    -325   -214    -35    390    392 236.6  -5.2  34076  288.16 0862.12
2015 04 09 14 04 13 .35    -270   -246      3    366    367 227.7   0.5  34068  288.00 0862.12
2015 04 09 14 04 13 .60    -264   -264     19    374    375 225.0   2.9  34102  288.59 0862.12
2015 04 09 14 04 13 .85    -323   -285    -36    431    433 228.6  -4.8  34100  288.56 0862.12
2015 04 09 14 04 14 .10    -260   -309     -3    405    406 220.1  -0.5  34102  288.60 0862.11
2015 04 09 14 04 14 .36    -288   -306    -30    421    423 223.3  -4.1  34112  288.75 0862.11
2015 04 09 14 04 14 .60    -296   -288    -31    414    416 225.8  -4.4  34080  288.23 0862.11
2015 04 09 14 04 14 .85    -322   -259    -38    414    416 231.2  -5.3  34072  288.09 0862.11
2015 04 09 14 04 15 .11    -304   -220    -67    376    382 234.1 -10.1  34090  288.37 0862.11
2015 04 09 14 04 15 .35    -310   -186   -100    362    376 239.0 -15.5  34026  287.32 0862.11
2015 04 09 14 04 15 .61    -274   -194    -81    336    346 234.7 -13.7  34030  287.37 0862.11
2015 04 09 14 04 15 .86    -272   -179    -59    326    332 236.7 -10.3  34028  287.35 0862.11
2015 04 09 14 04 16 .12    -252   -206    -25    326    328 230.7  -4.5  34024  287.28 0862.11
2015 04 09 14 04 16 .37    -244   -202    -20    317    318 230.4  -3.7  34036  287.48 0862.11
2015 04 09 14 04 16 .62    -238   -161    -44    288    292 235.8  -8.8  34050  287.70 0862.11
2015 04 09 14 04 16 .87    -253   -172    -16    306    307 235.8  -3.1  34052  287.75 0862.11
2015 04 09 14 04 17 .12    -264   -168    -14    314    315 237.5  -2.7  34052  287.75 0862.11
2015 04 09 14 04 17 .37    -238   -196     -6    309    310 230.5  -1.2  34066  287.99 0862.11
2015 04 09 14 04 17 .61    -224   -189     12    294    295 229.8   2.3  34060  287.88 0862.11
2015 04 09 14 04 17 .88    -234   -219     17    321    322 226.9   3.1  34052  287.73 0862.11
2015 04 09 14 04 18 .13    -241   -250     -9    348    349 224.0  -1.6  34130  289.08 0862.11
2015 04 09 14 04 18 .37    -203   -272     53    340    345 216.8   9.0  34184  289.98 0862.11
2015 04 09 14 04 18 .62    -175   -298     67    346    353 210.5  11.0  34156  289.52 0862.10
2015 04 09 14 04 18 .88    -191   -284     35    343    345 213.9   5.9  34138  289.21 0862.10
2015 04 09 14 04 19 .12    -196   -268     59    333    339 216.2  10.1  34168  289.71 0862.10
2015 04 09 14 04 19 .37    -185   -247    -14    309    310 216.9  -2.6  34050  287.71 0862.10
2015 04 09 14 04 19 .63    -203   -223    -34    302    304 222.3  -6.5  34038  287.51 0862.10
2015 04 09 14 04 19 .88    -224   -155     -1    273    274 235.4  -0.3  34102  288.59 0862.10
2015 04 09 14 04 20 .13    -191   -224     57    295    301 220.6  11.0  34124  288.95 0862.10
2015 04 09 14 04 20 .38    -218   -218     -6    309    310 224.9  -1.3  34110  288.71 0862.10
2015 04 09 14 04 20 .63    -221   -248    -31    333    335 221.7  -5.3  34096  288.49 0862.10
2015 04 09 14 04 20 .88    -172   -208    -28    271    273 219.6  -6.0  34110  288.73 0862.10
2015 04 09 14 04 21 .12    -188   -183    -23    263    265 225.8  -5.1  34062  287.90 0862.10
2015 04 09 14 04 21 .38    -176   -195    -18    263    264 222.1  -4.1  34080  288.22 0862.10
2015 04 09 14 04 21 .63    -176   -213     12    277    278 219.6   2.5  34136  289.15 0862.10
2015 04 09 14 04 21 .88    -189   -230     25    298    300 219.4   5.0  34240  290.93 0862.10
2015 04 09 14 04 22 .13    -167   -237     81    291    303 215.2  15.6  34248  291.05 0862.09
2015 04 09 14 04 22 .38    -152   -265    102    306    323 209.8  18.4  34112  288.76 0862.09
2015 04 09 14 04 22 .63    -138   -249      4    285    286 209.0   1.0  34136  289.15 0862.09
2015 04 09 14 04 22 .90    -129   -210     30    247    249 211.6   7.1  34162  289.61 0862.09
2015 04 09 14 04 23 .14     -85   -125     49    152    160 214.2  18.1  34180  289.92 0862.09
2015 04 09 14 04 23 .39     -68   -145     88    161    183 205.3  31.3  34172  289.79 0862.09
2015 04 09 14 04 23 .64       1    -76    103     77    128 179.0  59.4  34174  289.82 0862.09
2015 04 09 14 04 23 .89     -36   -118    108    124    164 197.0  45.6  34162  289.60 0862.10
2015 04 09 14 04 24 .14     -74   -182     69    197    208 202.3  20.0  34180  289.91 0862.10
2015 04 09 14 04 24 .39    -142   -231     80    272    284 211.6  16.4  34168  289.71 0862.10
2015 04 09 14 04 24 .64    -182   -186     27    261    263 224.3   6.0  34184  289.97 0862.10
2015 04 09 14 04 24 .89    -248   -174      0    304    305 234.9   0.0  34064  287.93 0862.10
2015 04 09 14 04 25 .15    -259   -217      1    339    340 230.0   0.2  34050  287.71 0862.10
2015 04 09 14 04 25 .39    -260   -207    -15    333    334 231.5  -2.6  34090  288.40 0862.10
2015 04 09 14 04 25 .64    -190   -230    -11    299    300 219.6  -2.2  34046  287.65 0862.10
2015 04 09 14 04 25 .90    -191   -261     25    324    326 216.3   4.5  34058  287.85 0862.10
2015 04 09 14 04 26 .15    -261   -333     82    424    432 218.1  11.0  34062  287.92 0862.10
2015 04 09 14 04 26 .40    -241   -347     66    423    429 214.8   8.9  34056  287.80 0862.10
2015 04 09 14 04 26 .65    -277   -324     21    427    428 220.6   2.9  34078  288.17 0862.10
2015 04 09 14 04 26 .90    -269   -362     28    452    453 216.6   3.6  34072  288.07 0862.10
2015 04 09 14 04 27 .15    -261   -334     44    425    428 218.0   6.0  34084  288.29 0862.10
2015 04 09 14 04 27 .40    -247   -349     11    428    429 215.3   1.5  34096  288.50 0862.10
2015 04 09 14 04 27 .65    -265   -354      6    443    444 216.9   0.9  34114  288.80 0862.10
2015 04 09 14 04 27 .91    -230   -287     22    369    370 218.7   3.5  34142  289.28 0862.10
2015 04 09 14 04 28 .15    -311   -282     20    421    422 227.8   2.8  34146  289.33 0862.10
2015 04 09 14 04 28 .40    -350   -329     23    481    482 226.8   2.8  34116  288.81 0862.10
2015 04 09 14 04 28 .66    -303   -293     20    422    423 225.9   2.8  34114  288.78 0862.10
2015 04 09 14 04 28 .91    -244   -269     46    364    367 222.2   7.2  34116  288.84 0862.10
2015 04 09 14 04 29 .16    -300   -314     84    435    444 223.7  11.0  34120  288.90 0862.10
2015 04 09 14 04 29 .40    -332   -284      6    438    439 229.5   0.8  34150  289.39 0862.10
2015 04 09 14 04 29 .67    -310   -292     24    427    428 226.7   3.2  34076  288.16 0862.10
2015 04 09 14 04 29 .92    -307   -266      3    407    408 229.1   0.5  34102  288.60 0862.10
2015 04 09 14 04 30 .17    -341   -295     -9    452    453 229.1  -1.2  34104  288.63 0862.10
2015 04 09 14 04 30 .42    -307   -327     29    449    450 223.2   3.8  34122  288.94 0862.10
2015 04 09 14 04 30 .67    -308   -325     80    448    456 223.5  10.2  34170  289.75 0862.10
2015 04 09 14 04 30 .92    -280   -258     11    381    382 227.3   1.7  34218  290.55 0862.10
2015 04 09 14 04 31 .17    -331   -272    -20    429    430 230.6  -2.7  34172  289.77 0862.10
2015 04 09 14 04 31 .42    -313   -309     45    440    443 225.4   5.9  34144  289.29 0862.10
2015 04 09 14 04 31 .67    -413   -272    -37    495    497 236.6  -4.4  34160  289.56 0862.10
2015 04 09 14 04 31 .92    -360   -309      5    475    476 229.4   0.7  34140  289.22 0862.10
2015 04 09 14 04 32 .18    -372   -284    -11    469    470 232.6  -1.4  34134  289.12 0862.09
2015 04 09 14 04 32 .42    -424   -249    -44    492    495 239.6  -5.2  34120  288.88 0862.09
2015 04 09 14 04 32 .67    -385   -261    -18    466    467 235.9  -2.2  34124  288.95 0862.09
2015 04 09 14 04 32 .93    -357   -216    -43    418    421 238.9  -6.0  34208  290.38 0862.08
2015 04 09 14 04 33 .17    -455    -80    -83    463    471 260.0 -10.3  34202  290.29 0862.08
2015 04 09 14 04 33 .43    -377   -102    -59    391    396 254.9  -8.6  34086  288.32 0862.08
2015 04 09 14 04 33 .67    -309   -203    -32    370    372 236.7  -5.1  34172  289.76 0862.08
2015 04 09 14 04 33 .93    -264   -222     21    346    347 229.9   3.6  34218  290.55 0862.08
2015 04 09 14 04 34 .18    -276   -205    -13    344    345 233.4  -2.2  34242  290.98 0862.08
2015 04 09 14 04 34 .43    -295   -214     -7    365    366 234.0  -1.2  34280  291.61 0862.08
2015 04 09 14 04 34 .68    -294   -183    -19    347    348 238.0  -3.2  34314  292.20 0862.08
2015 04 09 14 04 34 .93    -309   -220    -24    380    381 234.5  -3.7  34328  292.42 0862.08
2015 04 09 14 04 35 .18    -345   -207    -57    403    408 239.1  -8.1  34014  287.11 0862.08
2015 04 09 14 04 35 .43    -321   -257    -16    412    413 231.4  -2.2  34046  287.63 0862.08
2015 04 09 14 04 35 .68    -297   -256     12    393    394 229.2   1.8  34028  287.35 0862.08
2015 04 09 14 04 35 .93    -276   -238    -10    365    366 229.2  -1.6  34034  287.44 0862.08
2015 04 09 14 04 36 .18    -302   -254     17    395    396 229.9   2.5  34168  289.72 0862.08
2015 04 09 14 04 36 .43    -390   -265    -20    472    473 235.8  -2.5  34012  287.07 0862.08
2015 04 09 14 04 36 .70    -362   -273      0    454    455 233.0   0.1  34032  287.40 0862.08
2015 04 09 14 04 36 .94    -365   -254     -2    445    446 235.1  -0.4  34038  287.52 0862.08
2015 04 09 14 04 37 .20    -337   -266    -10    430    431 231.8  -1.4  34088  288.36 0862.08
2015 04 09 14 04 37 .44    -357   -293     -4    463    464 230.6  -0.6  34046  287.63 0862.09
2015 04 09 14 04 37 .70    -300   -329     -2    446    447 222.4  -0.3  34090  288.38 0862.09
2015 04 09 14 04 37 .95    -353   -326     21    481    482 227.3   2.5  34048  287.69 0862.09
2015 04 09 14 04 38 .20    -448   -248    -38    513    515 241.0  -4.2  34102  288.59 0862.09
2015 04 09 14 04 38 .45    -387   -273    -17    474    475 234.8  -2.1  34166  289.69 0862.09
2015 04 09 14 04 38 .69    -362   -297     -4    469    470 230.7  -0.6  34134  289.12 0862.09
2015 04 09 14 04 38 .95    -377   -259    -17    458    459 235.5  -2.2  34034  287.43 0862.09
2015 04 09 14 04 39 .20    -393   -239    -25    460    461 238.7  -3.1  33980  286.54 0862.09
2015 04 09 14 04 39 .45    -379   -252    -16    456    457 236.4  -2.1  33980  286.54 0862.09
2015 04 09 14 04 39 .70    -372   -228    -33    437    439 238.5  -4.4  33982  286.57 0862.09
2015 04 09 14 04 39 .95    -380   -242    -12    451    452 237.5  -1.6  33978  286.50 0862.09
2015 04 09 14 04 40 .20    -377   -258    -15    458    459 235.6  -1.9  33978  286.49 0862.09
2015 04 09 14 04 40 .45    -398   -253    -17    472    473 237.5  -2.1  33990  286.70 0862.09
2015 04 09 14 04 40 .70    -394   -254    -18    469    470 237.2  -2.2  33994  286.78 0862.09
2015 04 09 14 04 40 .95    -399   -239    -35    466    468 239.1  -4.4  33982  286.56 0862.09
2015 04 09 14 04 41 .20    -378   -225    -25    440    441 239.2  -3.3  33998  286.84 0862.09
2015 04 09 14 04 41 .45    -378   -216    -36    436    438 240.2  -4.8  33994  286.76 0862.09
2015 04 09 14 04 41 .70    -396   -217    -58    452    456 241.2  -7.3  33984  286.60 0862.09
2015 04 09 14 04 41 .95    -384   -212    -52    439    443 241.1  -6.8  33982  286.55 0862.09
2015 04 09 14 04 42 .20    -350   -221    -42    415    418 237.7  -5.9  33980  286.54 0862.09
2015 04 09 14 04 42 .46    -352   -221    -19    416    417 237.9  -2.7  33984  286.60 0862.09
2015 04 09 14 04 42 .71    -377   -207    -51    431    435 241.2  -6.8  34006  286.97 0862.09
2015 04 09 14 04 42 .96    -382   -204    -52    434    438 241.9  -6.9  34006  286.97 0862.08
2015 04 09 14 04 43 .21    -410   -201    -52    457    461 243.8  -6.6  34006  286.97 0862.08
2015 04 09 14 04 43 .46    -426   -166    -65    458    463 248.7  -8.1  33994  286.77 0862.08
2015 04 09 14 04 43 .72    -429   -154    -76    457    464 250.2  -9.5  34008  286.99 0862.08
2015 04 09 14 04 43 .97    -437   -133    -75    457    464 253.1  -9.3  34000  286.86 0862.08
2015 04 09 14 04 44 .22    -414   -135    -79    436    444 251.9 -10.3  33978  286.49 0862.08
2015 04 09 14 04 44 .47    -394   -131    -93    416    427 251.6 -12.7  33982  286.55 0862.08
2015 04 09 14 04 44 .72    -367   -104    -81    382    391 254.1 -12.0  34000  286.88 0862.08
2015 04 09 14 04 44 .97    -350   -195    -51    401    405 240.8  -7.3  34018  287.16 0862.08
2015 04 09 14 04 45 .22    -371   -179    -49    413    416 244.2  -6.9  34004  286.92 0862.08
2015 04 09 14 04 45 .47    -369   -148    -51    398    402 248.0  -7.3  33998  286.83 0862.08
2015 04 09 14 04 45 .73    -361   -134    -48    386    390 249.5  -7.2  34006  286.96 0862.08
2015 04 09 14 04 45 .98    -353   -171    -35    393    395 244.1  -5.2  34026  287.30 0862.08
2015 04 09 14 04 46 .22    -287    -83    -27    299    301 253.8  -5.2  34020  287.19 0862.08
2015 04 09 14 04 46 .48    -352    -22    -71    353    361 266.4 -11.5  33998  286.83 0862.08
2015 04 09 14 04 46 .72    -335    -59    -94    341    354 259.9 -15.5  33996  286.80 0862.08
2015 04 09 14 04 46 .98    -317   -109    -44    336    339 250.9  -7.6  34010  287.02 0862.08
2015 04 09 14 04 47 .23    -317    -93    -50    331    335 253.6  -8.7  34010  287.02 0862.08
2015 04 09 14 04 47 .48    -303    -98    -47    319    323 252.1  -8.4  34020  287.19 0862.09
2015 04 09 14 04 47 .73    -338    -68    -54    345    350 258.6  -8.9  34006  286.98 0862.09
2015 04 09 14 04 47 .98    -306   -123    -42    330    333 248.0  -7.3  34020  287.20 0862.09
2015 04 09 14 04 48 .23    -248   -157    -32    294    296 237.6  -6.2  34020  287.19 0862.09
2015 04 09 14 04 48 .48    -217   -183    -15    285    286 229.8  -3.2  33998  286.82 0862.09
2015 04 09 14 04 48 .73    -225   -193    -11    297    298 229.5  -2.2  33994  286.77 0862.09
2015 04 09 14 04 48 .98    -254   -173    -12    308    309 235.8  -2.2  33992  286.74 0862.09
2015 04 09 14 04 49 .23    -276   -199    -29    341    343 234.3  -4.9  33998  286.83 0862.09
2015 04 09 14 04 49 .48    -269   -160    -29    313    315 239.3  -5.3  33990  286.70 0862.09
2015 04 09 14 04 49 .73    -252   -168     -6    303    304 236.3  -1.3  34002  286.89 0862.09
2015 04 09 14 04 49 .98    -220   -160     -1    273    274 234.0  -0.3  34008  287.01 0862.09
2015 04 09 14 04 50 .23    -258   -107    -59    280    287 247.4 -11.9  34006  286.95 0862.09
2015 04 09 14 04 50 .48    -247   -136    -44    282    286 241.2  -9.0  34000  286.85 0862.09
2015 04 09 14 04 50 .74    -244   -160    -52    293    298 236.7 -10.1  33996  286.79 0862.09
2015 04 09 14 04 51 .00    -244   -138    -48    281    286 240.5  -9.8  34000  286.85 0862.09
2015 04 09 14 04 51 .25    -221   -112    -31    248    250 243.0  -7.2  34004  286.92 0862.09
2015 04 09 14 04 51 .50    -165   -183     26    247    249 222.1   6.1  34026  287.29 0862.09
2015 04 09 14 04 51 .74    -184   -197     -5    270    271 223.0  -1.3  34008  287.01 0862.09
2015 04 09 14 04 52 .00    -197   -168    -27    260    262 229.6  -6.1  34006  286.97 0862.09
2015 04 09 14 04 52 .25    -206   -146    -76    253    265 234.5 -16.8  33992  286.72 0862.09
2015 04 09 14 04 52 .50    -200   -182    -24    271    273 227.6  -5.2  33990  286.68 0862.09
2015 04 09 14 04 52 .75    -224   -208    -36    306    309 227.1  -6.9  33990  286.68 0862.09
2015 04 09 14 04 53 .00    -229   -208    -48    310    314 227.7  -8.8  33988  286.65 0862.09
2015 04 09 14 04 53 .25    -214   -207     15    298    299 226.0   2.9  33990  286.68 0862.09
2015 04 09 14 04 53 .50    -202   -205     33    289    291 224.5   6.7  33990  286.70 0862.09
2015 04 09 14 04 53 .75    -195   -221     37    295    298 221.4   7.2  33992  286.74 0862.09
2015 04 09 14 04 54 .00    -270   -228     10    354    355 229.8   1.7  33994  286.75 0862.10
2015 04 09 14 04 54 .25    -268   -188    -25    328    329 234.9  -4.4  33990  286.69 0862.10
2015 04 09 14 04 54 .50    -234   -188    -27    301    303 231.1  -5.2  33992  286.72 0862.10
2015 04 09 14 04 54 .75    -200   -174    -10    266    267 228.9  -2.2  33992  286.74 0862.10
2015 04 09 14 04 55 .00    -193   -167     -1    256    257 229.1  -0.3  33992  286.74 0862.10
2015 04 09 14 04 55 .25    -207   -183    -15    277    278 228.4  -3.1  33992  286.74 0862.10
2015 04 09 14 04 55 .51    -161   -187     16    247    248 220.8   3.9  34028  287.34 0862.10
2015 04 09 14 04 55 .76    -167   -201     34    262    265 219.6   7.5  34086  288.32 0862.10
2015 04 09 14 04 56 .01    -172   -184     45    253    258 223.0  10.1  34096  288.48 0862.10
2015 04 09 14 04 56 .26    -185   -184      8    262    263 225.2   1.8  34032  287.39 0862.10
2015 04 09 14 04 56 .51    -167   -195     54    257    263 220.5  12.0  34144  289.31 0862.10
2015 04 09 14 04 56 .76    -176   -227     45    288    292 217.8   8.9  34080  288.22 0862.10
2015 04 09 14 04 57 .01    -202   -222     47    301    305 222.3   9.0  34134  289.14 0862.10
2015 04 09 14 04 57 .25    -165   -205     93    264    280 218.7  19.4  34114  288.78 0862.10
2015 04 09 14 04 57 .52    -200   -188     43    275    279 226.7   9.0  34096  288.48 0862.10
2015 04 09 14 04 57 .77    -213   -198     35    291    294 227.1   6.9  34034  287.43 0862.10
2015 04 09 14 04 58 .02    -198   -200     14    282    283 224.8   2.9  33996  286.80 0862.10
2015 04 09 14 04 58 .27    -173   -225     41    285    289 217.6   8.2  34002  286.90 0862.10
2015 04 09 14 04 58 .52    -189   -249     65    313    320 217.2  11.8  34010  287.04 0862.10
2015 04 09 14 04 58 .77    -213   -241     55    322    327 221.5   9.7  34004  286.94 0862.10
2015 04 09 14 04 59 .02    -202   -214     16    295    296 223.3   3.3  34008  287.01 0862.10
2015 04 09 14 04 59 .27    -210   -180    -15    277    278 229.3  -3.2  33998  286.82 0862.10
2015 04 09 14 04 59 .53    -206   -140    -18    250    251 235.8  -4.1  33996  286.79 0862.10
2015 04 09 14 04 59 .77    -220   -105    -48    244    249 244.5 -11.3  33998  286.84 0862.10
2015 04 09 14 05 00 .03    -255   -107    -32    277    279 247.2  -6.7  33998  286.82 0862.10
2015 04 09 14 05 00 .28    -232   -132    -18    268    269 240.3  -3.9  34008  287.01 0862.10
2015 04 09 14 05 00 .53    -178   -170     19    247    248 226.4   4.6  34014  287.11 0862.10
2015 04 09 14 05 00 .78    -181   -172     25    250    252 226.4   5.9  34014  287.11 0862.10
2015 04 09 14 05 01 .03    -260   -134    -30    293    295 242.7  -6.0  34022  287.22 0862.10
2015 04 09 14 05 01 .28    -221   -208     25    304    306 226.8   4.9  34028  287.34 0862.10
2015 04 09 14 05 01 .54    -239   -201     15    313    314 230.0   2.8  34134  289.14 0862.10
2015 04 09 14 05 01 .78    -334   -130    -43    359    362 248.7  -6.9  34136  289.15 0862.10
2015 04 09 14 05 02 .03    -376    -99    -55    389    394 255.2  -8.1  34100  288.54 0862.10
2015 04 09 14 05 02 .28    -451    -14    -53    452    456 268.2  -6.8  34106  288.65 0862.10
2015 04 09 14 05 02 .53    -409   -115    -54    426    430 254.2  -7.3  34004  286.92 0862.10
2015 04 09 14 05 02 .78    -417   -122    -67    435    441 253.7  -8.8  34054  287.79 0862.10
2015 04 09 14 05 03 .03    -424    -83    -58    433    437 258.9  -7.7  34000  286.87 0862.10
2015 04 09 14 05 03 .28    -434   -109    -73    448    455 255.9  -9.3  33990  286.69 0862.10
2015 04 09 14 05 03 .54    -417    -91    -87    428    437 257.6 -11.5  34006  286.96 0862.10
2015 04 09 14 05 03 .79    -414    -76    -75    422    429 259.5 -10.1  34028  287.35 0862.10
2015 04 09 14 05 04 .04    -429   -103    -72    442    449 256.4  -9.3  34074  288.12 0862.10
2015 04 09 14 05 04 .29    -427    -93    -56    438    442 257.6  -7.3  34128  289.04 0862.10
2015 04 09 14 05 04 .55    -419    -77    -66    427    433 259.5  -8.8  34106  288.67 0862.10
2015 04 09 14 05 04 .80    -376   -124    -56    397    402 251.7  -8.1  34130  289.08 0862.10
2015 04 09 14 05 05 .05    -348    -70    -37    356    358 258.6  -6.0  34164  289.64 0862.10
2015 04 09 14 05 05 .30    -388    -78    -31    396    398 258.6  -4.6  34156  289.52 0862.10
2015 04 09 14 05 05 .55    -403   -110    -50    418    422 254.7  -6.9  34202  290.29 0862.10
2015 04 09 14 05 05 .80    -380   -136    -35    404    406 250.3  -5.1  34228  290.73 0862.10
2015 04 09 14 05 06 .05    -407    -75    -29    414    415 259.5  -4.1  34234  290.84 0862.10
2015 04 09 14 05 06 .30    -336    -17    -31    337    339 267.1  -5.4  34216  290.52 0862.10
2015 04 09 14 05 06 .55    -364    -95    -72    377    384 255.4 -10.9  34196  290.18 0862.10
2015 04 09 14 05 06 .80    -366    -57    -87    371    382 261.1 -13.3  34204  290.33 0862.10
2015 04 09 14 05 07 .05    -419    -98    -72    431    437 256.8  -9.5  34170  289.73 0862.10
2015 04 09 14 05 07 .30    -382    -84    -82    392    401 257.6 -11.9  33990  286.69 0862.10
2015 04 09 14 05 07 .56    -393    -84    -92    403    414 257.8 -12.9  34074  288.12 0862.10
2015 04 09 14 05 07 .80    -411    -92    -84    422    431 257.3 -11.3  34076  288.16 0862.10
2015 04 09 14 05 08 .06    -399   -102    -55    412    416 255.6  -7.7  34096  288.50 0862.10
2015 04 09 14 05 08 .31    -396    -77    -64    404    410 259.0  -9.0  34152  289.43 0862.10
2015 04 09 14 05 08 .56    -388   -103    -42    402    405 255.1  -6.0  34154  289.46 0862.10
2015 04 09 14 05 08 .81    -362   -146    -37    391    393 248.0  -5.5  34198  290.23 0862.10
2015 04 09 14 05 09 .06    -283   -144    -31    318    320 242.9  -5.6  34214  290.48 0862.10
2015 04 09 14 05 09 .31    -324    -97     -3    339    340 253.3  -0.6  34238  290.88 0862.10
2015 04 09 14 05 09 .56    -249   -142    -11    287    288 240.3  -2.2  34218  290.56 0862.10
2015 04 09 14 05 09 .81    -357   -107    -50    373    377 253.3  -7.7  34142  289.26 0862.10
2015 04 09 14 05 10 .06    -361    -96    -42    374    377 255.0  -6.5  34174  289.81 0862.10
2015 04 09 14 05 10 .31    -382   -125    -53    403    407 251.8  -7.6  34190  290.07 0862.11
2015 04 09 14 05 10 .56    -360   -108     -4    376    377 253.2  -0.7  34160  289.57 0862.11
2015 04 09 14 05 10 .81    -341   -105    -34    357    359 252.8  -5.5  34084  288.27 0862.11
2015 04 09 14 05 11 .06    -327    -69    -39    335    338 258.1  -6.7  34064  287.94 0862.11
2015 04 09 14 05 11 .31    -332      0    -30    333    335 270.0  -5.2  34172  289.79 0862.11
2015 04 09 14 05 11 .57    -359     16    -32    360    362 272.7  -5.1  34126  288.99 0862.11
2015 04 09 14 05 11 .83    -204   -123     11    239    240 238.9   2.8  34230  290.75 0862.11
2015 04 09 14 05 12 .08    -319    -21    -69    320    328 266.2 -12.3  34156  289.51 0862.10
2015 04 09 14 05 12 .32    -294    -24    -43    296    300 265.2  -8.3  34186  290.00 0862.10
2015 04 09 14 05 12 .58    -311     68    -15    319    320 282.4  -2.7  34102  288.59 0862.10
2015 04 09 14 05 12 .82    -344      0    -13    345    346 270.0  -2.2  34126  288.99 0862.10
2015 04 09 14 05 13 .07    -337      8    -47    338    342 271.4  -8.0  34166  289.67 0862.10
2015 04 09 14 05 13 .32    -150     -2     73    151    167 269.2  27.4  34158  289.55 0862.10
2015 04 09 14 05 13 .58    -204     53    -75    211    224 284.8 -19.6  34148  289.36 0862.10
2015 04 09 14 05 13 .83    -120    -24     73    123    143 258.5  33.5  34178  289.87 0862.10
2015 04 09 14 05 14 .08    -250    -84    -31    264    266 251.4  -6.9  34180  289.92 0862.10
2015 04 09 14 05 14 .32    -286    -82    -60    298    305 254.0 -11.5  34118  288.85 0862.10
2015 04 09 14 05 14 .59    -281    -65    -57    289    295 257.0 -11.3  34130  289.05 0862.10
2015 04 09 14 05 14 .83    -181    -15    -13    182    183 265.0  -4.1  34186  290.01 0862.10
2015 04 09 14 05 15 .08    -164    -28      3    167    168 260.1   1.2  34210  290.41 0862.10
2015 04 09 14 05 15 .33    -244   -121     -7    273    274 243.6  -1.6  34208  290.39 0862.10
2015 04 09 14 05 15 .58    -216    -16     42    217    222 265.6  11.0  34148  289.38 0862.10
2015 04 09 14 05 15 .83    -318    -94    -58    332    338 253.5  -9.9  34050  287.72 0862.10
2015 04 09 14 05 16 .09    -368   -107    -60    384    389 253.8  -9.0  34080  288.22 0862.10
2015 04 09 14 05 16 .33    -384    -93    -56    396    401 256.3  -8.1  34118  288.86 0862.10
2015 04 09 14 05 16 .59    -356    -59    -37    361    363 260.6  -6.0  34126  288.99 0862.10
2015 04 09 14 05 16 .84    -332   -111    -55    351    356 251.5  -8.9  34110  288.74 0862.10
2015 04 09 14 05 17 .09    -323    -50    -38    327    330 261.2  -6.7  34152  289.43 0862.10
2015 04 09 14 05 17 .33    -307    -77    -36    317    320 255.8  -6.5  34112  288.76 0862.10
2015 04 09 14 05 17 .59    -340    -48    -44    344    347 261.9  -7.3  34182  289.93 0862.10
2015 04 09 14 05 17 .84    -318     15    -29    319    321 272.8  -5.4  34170  289.75 0862.10
2015 04 09 14 05 18 .09    -221     59    -32    229    232 285.0  -8.0  34210  290.41 0862.10
2015 04 09 14 05 18 .35    -188     49     -7    195    196 284.8  -2.2  34232  290.79 0862.10
2015 04 09 14 05 18 .60    -128     25    -16    131    133 281.4  -7.3  34270  291.45 0862.10
2015 04 09 14 05 18 .85    -111     -4     39    112    119 267.9  19.4  34186  290.02 0862.10
2015 04 09 14 05 19 .10    -291    -12    -54    292    297 267.5 -10.5  34080  288.22 0862.10
2015 04 09 14 05 19 .35    -236     63    -45    245    250 285.0 -10.4  34028  287.34 0862.10
2015 04 09 14 05 19 .60    -263    100      5    282    283 290.8   1.2  34072  288.07 0862.10
2015 04 09 14 05 19 .85    -259    -11    -27    260    262 267.4  -6.1  34152  289.42 0862.10
2015 04 09 14 05 20 .10    -203     80    -54    219    226 291.7 -13.9  34122  288.94 0862.10
2015 04 09 14 05 20 .35    -288     22    -44    289    293 274.4  -8.8  34118  288.87 0862.10
2015 04 09 14 05 20 .60    -315      5    -57    316    322 271.0 -10.2  34076  288.15 0862.10
2015 04 09 14 05 20 .85    -183     56    -35    192    196 287.1 -10.5  34090  288.38 0862.10
2015 04 09 14 05 21 .11    -317    -28    -38    319    322 264.8  -6.8  34126  289.00 0862.10
2015 04 09 14 05 21 .35    -323     71    -20    331    332 282.5  -3.5  34144  289.30 0862.10
2015 04 09 14 05 21 .61    -327    -22    -33    328    330 266.1  -5.9  34188  290.03 0862.10
2015 04 09 14 05 21 .85    -216    -85      9    233    234 248.5   2.3  34206  290.36 0862.10
2015 04 09 14 05 22 .11    -239    -88    -19    255    256 249.8  -4.4  34190  290.07 0862.10
2015 04 09 14 05 22 .36    -460    -36    -49    462    465 265.5  -6.1  34112  288.77 0862.10
2015 04 09 14 05 22 .61    -477    -62    -54    481    485 262.6  -6.5  34068  288.03 0862.10
2015 04 09 14 05 22 .86    -523   -106    -80    534    541 258.5  -8.6  34038  287.50 0862.10
2015 04 09 14 05 23 .11    -522    -61    -81    526    533 263.3  -8.8  34090  288.40 0862.10
2015 04 09 14 05 23 .36    -451   -115    -50    466    469 255.6  -6.2  34232  290.81 0862.10
2015 04 09 14 05 23 .61    -499    -61    -91    503    512 263.0 -10.3  34106  288.66 0862.10
2015 04 09 14 05 23 .87    -452    -77   -100    459    471 260.3 -12.4  34162  289.61 0862.10
2015 04 09 14 05 24 .11    -539    -36    -57    541    545 266.1  -6.1  34128  289.04 0862.10
2015 04 09 14 05 24 .36    -533   -110    -49    545    548 258.3  -5.2  34068  288.03 0862.10
2015 04 09 14 05 24 .61    -503      7   -109    504    516 270.8 -12.3  34032  287.39 0862.10
2015 04 09 14 05 24 .87    -547     40   -106    549    560 274.3 -11.0  34146  289.35 0862.10
2015 04 09 14 05 25 .12    -588      9    -77    589    594 270.9  -7.5  34124  288.97 0862.10
2015 04 09 14 05 25 .38    -546     41   -111    548    560 274.4 -11.5  33986  286.64 0862.10
2015 04 09 14 05 25 .63    -493    -72    -57    499    503 261.6  -6.6  34042  287.59 0862.10
2015 04 09 14 05 25 .87    -449      9    -90    450    459 271.3 -11.3  34038  287.52 0862.10
2015 04 09 14 05 26 .13    -530    -40    -50    532    535 265.7  -5.5  34058  287.84 0862.10
2015 04 09 14 05 26 .38    -511    -38   -104    513    524 265.7 -11.5  33988  286.66 0862.10
2015 04 09 14 05 26 .63    -493    -80    -95    500    510 260.8 -10.8  33984  286.60 0862.10
2015 04 09 14 05 26 .88    -466    -71   -115    472    486 261.3 -13.8  33976  286.46 0862.10
2015 04 09 14 05 27 .13    -475    -39    -78    477    484 265.2  -9.3  33980  286.53 0862.10
2015 04 09 14 05 27 .38    -464    -49   -102    467    479 263.9 -12.4  33988  286.65 0862.10
2015 04 09 14 05 27 .63    -445    -71    -70    451    457 260.9  -8.8  34026  287.30 0862.10
2015 04 09 14 05 27 .88    -455    -75    -66    462    467 260.6  -8.2  34036  287.49 0862.10
2015 04 09 14 05 28 .13    -436   -125    -42    454    457 254.0  -5.4  34062  287.90 0862.10
2015 04 09 14 05 28 .38    -426   -101    -41    438    441 256.6  -5.5  34104  288.63 0862.10
2015 04 09 14 05 28 .63    -392   -101    -59    405    410 255.5  -8.4  34086  288.31 0862.10
2015 04 09 14 05 28 .88    -387   -152    -58    417    422 248.5  -8.0  34080  288.21 0862.10
2015 04 09 14 05 29 .14    -378    -49    -40    382    385 262.6  -6.1  34112  288.76 0862.10
2015 04 09 14 05 29 .38    -373    -17    -48    374    378 267.3  -7.3  34070  288.05 0862.10
2015 04 09 14 05 29 .64    -380    -45    -55    383    388 263.2  -8.3  33998  286.83 0862.10
2015 04 09 14 05 29 .88    -340    -33    -23    342    343 264.3  -3.9  34070  288.05 0862.10
2015 04 09 14 05 30 .14    -371    -28    -79    372    381 265.6 -12.0  34014  287.10 0862.10
2015 04 09 14 05 30 .39    -362     -9    -85    363    373 268.5 -13.3  33978  286.49 0862.10
2015 04 09 14 05 30 .63    -378    -25    -92    379    391 266.1 -13.7  33978  286.49 0862.10
2015 04 09 14 05 30 .88    -372    -13    -83    373    383 267.9 -12.6  33976  286.46 0862.10
2015 04 09 14 05 31 .14    -370      0    -73    371    379 270.0 -11.1  33980  286.54 0862.11
2015 04 09 14 05 31 .38    -371    -28    -73    372    380 265.6 -11.1  33980  286.54 0862.11
2015 04 09 14 05 31 .64    -367    -48    -63    371    377 262.4  -9.7  33990  286.68 0862.11
2015 04 09 14 05 31 .89    -371    -52    -73    375    383 261.9 -11.1  33980  286.54 0862.11
2015 04 09 14 05 32 .15    -359    -48    -73    363    371 262.3 -11.5  34000  286.88 0862.11
2015 04 09 14 05 32 .40    -337    -40    -49    340    344 263.1  -8.2  34002  286.91 0862.11
2015 04 09 14 05 32 .65    -348    -40    -67    351    358 263.4 -10.9  33996  286.81 0862.11
2015 04 09 14 05 32 .90    -385    -37    -73    387    394 264.4 -10.8  34028  287.35 0862.11
2015 04 09 14 05 33 .15    -378    -25    -54    379    383 266.1  -8.2  34092  288.42 0862.11
2015 04 09 14 05 33 .40    -376    -18    -27    377    378 267.2  -4.1  34084  288.27 0862.11
2015 04 09 14 05 33 .65    -347    -53    -83    352    362 261.3 -13.4  33986  286.63 0862.11
2015 04 09 14 05 33 .90    -342    -48    -48    346    350 262.0  -8.0  33990  286.68 0862.11
2015 04 09 14 05 34 .16    -301    -63    -39    308    311 258.1  -7.4  34012  287.06 0862.11
2015 04 09 14 05 34 .40    -283    -57    -49    289    294 258.5  -9.8  34102  288.59 0862.11
2015 04 09 14 05 34 .66    -261     -3    -30    262    264 269.2  -6.7  34114  288.78 0862.11
2015 04 09 14 05 34 .91    -332    -17    -92    333    346 267.0 -15.5  34012  287.08 0862.11
2015 04 09 14 05 35 .16    -321     -9    -77    322    332 268.4 -13.6  34088  288.36 0862.11
2015 04 09 14 05 35 .41    -340    -28    -81    342    352 265.2 -13.4  34126  288.98 0862.11
2015 04 09 14 05 35 .66    -265    -67    -15    274    275 255.8  -3.1  34158  289.53 0862.12
2015 04 09 14 05 35 .91    -306     32    -34    308    310 276.1  -6.5  34140  289.24 0862.12
2015 04 09 14 05 36 .16    -257    -32    -33    259    262 262.9  -7.3  34168  289.71 0862.12
2015 04 09 14 05 36 .41    -287   -101    -26    305    307 250.5  -4.9  34078  288.17 0862.12
2015 04 09 14 05 36 .66    -343    -76    -40    352    355 257.4  -6.5  34136  289.18 0862.12
2015 04 09 14 05 36 .91    -275    -64    -46    283    287 256.7  -9.3  34158  289.54 0862.12
2015 04 09 14 05 37 .16    -206    -63    -35    216    219 252.9  -9.3  34204  290.33 0862.12
2015 04 09 14 05 37 .41    -229    -62    -22    238    240 254.9  -5.4  34220  290.59 0862.11
2015 04 09 14 05 37 .66    -242    -59    -12    250    251 256.3  -2.8  34236  290.87 0862.11
2015 04 09 14 05 37 .92    -221    -24    -15    223    224 263.8  -3.9  34174  289.80 0862.11
2015 04 09 14 05 38 .16    -193   -141     17    240    241 233.8   4.2  34214  290.49 0862.11
2015 04 09 14 05 38 .41    -189     -1    -16    190    191 269.4  -4.9  34200  290.25 0862.11
2015 04 09 14 05 38 .67    -310    -53    -61    315    321 260.3 -11.0  34100  288.54 0862.11
2015 04 09 14 05 38 .92    -316    -14    -51    317    322 267.4  -9.1  34054  287.78 0862.11
2015 04 09 14 05 39 .16    -320    -29    -75    322    331 264.8 -13.2  33980  286.53 0862.11
2015 04 09 14 05 39 .43    -313    -43    -64    316    323 262.1 -11.5  33996  286.80 0862.11
2015 04 09 14 05 39 .67    -309    -47    -70    313    321 261.2 -12.6  33984  286.58 0862.11
2015 04 09 14 05 39 .93    -310    -38    -82    313    324 262.9 -14.8  33978  286.50 0862.11
2015 04 09 14 05 40 .18    -304    -42    -73    307    316 262.1 -13.4  33978  286.50 0862.12
2015 04 09 14 05 40 .43    -306    -32    -84    308    320 263.9 -15.4  33992  286.74 0862.12
2015 04 09 14 05 40 .68    -292    -19    -16    293    294 266.1  -3.2  34060  287.87 0862.12
2015 04 09 14 05 40 .93    -301    -91    -41    315    318 253.1  -7.5  34038  287.51 0862.12
2015 04 09 14 05 41 .18    -315   -105    -42    333    336 251.5  -7.3  33990  286.68 0862.12
2015 04 09 14 05 41 .43    -267   -103    -20    287    288 248.9  -4.1  34060  287.88 0862.12
2015 04 09 14 05 41 .68    -295    -79    -43    306    310 254.9  -8.1  33986  286.62 0862.12
2015 04 09 14 05 41 .93    -305    -69    -54    313    318 257.2  -9.9  33980  286.52 0862.12
2015 04 09 14 05 42 .18    -301    -84    -65    313    320 254.3 -11.9  33980  286.52 0862.12
2015 04 09 14 05 42 .43    -298    -80    -61    309    316 254.9 -11.2  33982  286.55 0862.12
2015 04 09 14 05 42 .68    -289    -77    -68    300    308 255.0 -12.9  33980  286.53 0862.12
2015 04 09 14 05 42 .93    -286    -71    -64    295    303 255.9 -12.4  33978  286.50 0862.12
2015 04 09 14 05 43 .18    -289    -69    -60    298    305 256.5 -11.5  33982  286.55 0862.12
2015 04 09 14 05 43 .43    -271    -72    -61    281    288 255.0 -12.4  33978  286.50 0862.12
2015 04 09 14 05 43 .69    -266    -72    -76    276    287 254.9 -15.5  34008  286.99 0862.12
2015 04 09 14 05 43 .93    -260    -70    -85    270    284 254.9 -17.6  34012  287.07 0862.11
2015 04 09 14 05 44 .19    -227    -68    -72    238    249 253.2 -17.0  34024  287.28 0862.11
2015 04 09 14 05 44 .43    -207    -63    -76    217    231 252.9 -19.4  34020  287.20 0862.11
2015 04 09 14 05 44 .69    -190    -60    -67    200    212 252.5 -18.7  34012  287.06 0862.11
2015 04 09 14 05 44 .94    -204    -48    -35    210    213 256.7  -9.6  34010  287.03 0862.11
2015 04 09 14 05 45 .19    -213     16    -39    214    218 274.4 -10.5  34008  287.00 0862.11
2015 04 09 14 05 45 .44    -182    -22    -14    184    185 263.0  -4.4  34058  287.84 0862.11
2015 04 09 14 05 45 .69    -176    -44     -8    182    183 255.8  -2.8  34068  288.01 0862.11
2015 04 09 14 05 45 .94    -219    -36    -30    223    226 260.5  -7.7  34026  287.32 0862.11
2015 04 09 14 05 46 .20    -192     -5    -31    193    196 268.3  -9.3  34082  288.26 0862.11
2015 04 09 14 05 46 .45    -216     -2    -16    217    218 269.4  -4.4  34060  287.89 0862.11
2015 04 09 14 05 46 .70    -223    -13    -16    224    225 266.5  -4.1  34066  287.99 0862.12
2015 04 09 14 05 46 .96    -225    -37    -29    229    231 260.5  -7.3  34080  288.23 0862.12
2015 04 09 14 05 47 .20    -157    -45    -34    164    168 253.8 -11.9  34092  288.42 0862.12
2015 04 09 14 05 47 .46    -182    -67    -27    195    197 249.6  -8.0  34072  288.08 0862.12
2015 04 09 14 05 47 .70    -160    -58    -63    171    182 250.0 -25.4  34086  288.33 0862.12
2015 04 09 14 05 47 .96    -120     40     -7    127    128 288.6  -3.2  34108  288.69 0862.12
2015 04 09 14 05 48 .21     -56     30     16     64     67 298.0  14.3  34134  289.14 0862.12
2015 04 09 14 05 48 .45     -68    -81     48    107    117 220.1  25.7  34110  288.72 0862.12
2015 04 09 14 05 48 .70    -182   -105    -19    211    212 240.0  -5.2  34012  287.06 0862.12
2015 04 09 14 05 48 .96    -173    -98    -40    199    204 240.5 -11.6  34004  286.93 0862.12
2015 04 09 14 05 49 .21    -197    -87    -35    216    219 246.0  -9.3  34024  287.28 0862.12
2015 04 09 14 05 49 .46    -212    -66    -19    223    224 252.7  -5.1  34018  287.16 0862.12
2015 04 09 14 05 49 .71    -201    -48    -30    207    210 256.3  -8.2  34030  287.37 0862.12
2015 04 09 14 05 49 .96    -231    -86    -31    247    249 249.6  -7.2  34020  287.19 0862.12
2015 04 09 14 05 50 .21    -221    -87    -21    238    239 248.3  -5.1  34022  287.24 0862.12
2015 04 09 14 05 50 .46    -191   -100     10    216    217 242.2   2.8  34040  287.55 0862.12
2015 04 09 14 05 50 .71    -218   -122    -18    250    251 240.7  -4.1  34012  287.06 0862.12
2015 04 09 14 05 50 .97    -214   -108    -21    240    241 243.1  -5.2  34036  287.48 0862.12
2015 04 09 14 05 51 .21    -237   -105    -32    260    263 246.0  -7.2  34082  288.26 0862.12
2015 04 09 14 05 51 .46    -183   -140      0    231    232 232.5   0.2  34098  288.52 0862.12
2015 04 09 14 05 51 .72    -171   -122      2    211    212 234.5   0.7  34120  288.91 0862.12
2015 04 09 14 05 51 .97    -149    -70      3    165    166 244.8   1.2  34136  289.18 0862.12
2015 04 09 14 05 52 .22    -171   -109     -7    203    204 237.5  -2.2  34148  289.38 0862.12
2015 04 09 14 05 52 .46    -238    -75    -14    250    251 252.3  -3.3  34136  289.15 0862.12
2015 04 09 14 05 52 .72    -267   -107    -33    288    290 248.2  -6.7  34038  287.51 0862.12
2015 04 09 14 05 52 .97    -238   -126    -26    270    272 242.0  -5.6  34026  287.29 0862.12
2015 04 09 14 05 53 .23    -248   -108    -26    271    273 246.3  -5.6  34008  287.01 0862.12
2015 04 09 14 05 53 .48    -264   -119    -30    290    292 245.6  -6.1  33998  286.84 0862.12
2015 04 09 14 05 53 .73    -278   -105    -38    298    301 249.2  -7.3  33992  286.74 0862.12
2015 04 09 14 05 53 .98    -280    -97    -37    297    300 250.9  -7.2  33988  286.65 0862.12
2015 04 09 14 05 54 .23    -279   -101    -35    297    300 250.1  -6.9  33986  286.63 0862.12
2015 04 09 14 05 54 .48    -278    -89    -42    293    297 252.2  -8.3  33986  286.63 0862.12
2015 04 09 14 05 54 .73    -307   -104    -41    325    328 251.2  -7.3  34038  287.50 0862.12
2015 04 09 14 05 54 .98    -303    -68    -43    311    314 257.2  -7.9  34006  286.97 0862.12
2015 04 09 14 05 55 .23    -320    -60    -55    326    331 259.3  -9.6  34022  287.23 0862.12
2015 04 09 14 05 55 .48    -237    -35    -25    240    242 261.4  -6.1  34060  287.88 0862.12
2015 04 09 14 05 55 .73    -305    -87    -36    318    321 254.1  -6.5  34066  287.97 0862.12
2015 04 09 14 05 55 .99    -297    -96    -40    313    316 252.1  -7.3  34066  287.97 0862.12
2015 04 09 14 05 56 .23    -303    -76    -51    313    318 255.8  -9.3  34008  287.01 0862.12
2015 04 09 14 05 56 .49    -299    -44    -43    303    307 261.6  -8.2  34036  287.48 0862.12
2015 04 09 14 05 56 .74    -286    -40    -47    289    293 262.0  -9.3  33988  286.67 0862.12
2015 04 09 14 05 56 .99    -249    -48    -55    254    261 259.0 -12.4  33992  286.72 0862.12
2015 04 09 14 05 57 .24    -256    -62    -50    264    269 256.3 -10.9  33994  286.77 0862.12
2015 04 09 14 05 57 .48    -269    -37    -44    272    276 262.1  -9.3  33996  286.79 0862.12
2015 04 09 14 05 57 .74    -286     17    -28    287    289 273.4  -5.6  34008  287.01 0862.12
2015 04 09 14 05 57 .99    -289    -29    -35    291    294 264.1  -6.9  34052  287.75 0862.12
2015 04 09 14 05 58 .24    -252    -33    -27    255    257 262.5  -6.2  34042  287.58 0862.12
2015 04 09 14 05 58 .49    -367     23    -47    368    372 273.6  -7.3  34016  287.12 0862.12
2015 04 09 14 05 58 .74    -383    -17    -78    384    392 267.4 -11.5  33990  286.71 0862.12
2015 04 09 14 05 58 .99    -371    -31    -61    373    379 265.2  -9.4  33984  286.59 0862.12
2015 04 09 14 05 59 .24    -370    -16    -88    371    382 267.4 -13.4  33984  286.58 0862.12
2015 04 09 14 05 59 .49    -370    -31    -69    372    379 265.1 -10.5  33984  286.58 0862.12
2015 04 09 14 05 59 .74    -346    -22    -63    347    353 266.3 -10.4  33998  286.83 0862.12
2015 04 09 14 05 59 .99    -329    -33    -67    331    338 264.2 -11.5  33978  286.51 0862.12
2015 04 09 14 06 00 .25    -344    -35    -77    346    355 264.0 -12.7  33980  286.53 0862.11
2015 04 09 14 06 00 .50    -350    -33    -58    352    357 264.5  -9.4  33978  286.51 0862.11
2015 04 09 14 06 00 .75    -333    -40    -65    336    343 263.1 -11.0  33984  286.59 0862.11
2015 04 09 14 06 01 .01    -348    -26    -59    349    354 265.7  -9.6  34002  286.90 0862.11
2015 04 09 14 06 01 .26    -325    -63    -63    332    338 259.0 -10.8  34084  288.30 0862.12
2015 04 09 14 06 01 .51    -278     18    -35    279    282 273.7  -7.2  34096  288.49 0862.12
2015 04 09 14 06 01 .76    -297    -49    -38    302    305 260.5  -7.2  34078  288.17 0862.12
2015 04 09 14 06 02 .01    -300    -94    -38    315    318 252.5  -6.9  34032  287.41 0862.12
2015 04 09 14 06 02 .26    -310    -67    -59    318    324 257.7 -10.5  34002  286.90 0862.12
2015 04 09 14 06 02 .51    -321    -65    -57    328    334 258.5  -9.9  34016  287.15 0862.12
2015 04 09 14 06 02 .76    -285    -40    -74    288    298 262.0 -14.5  34022  287.22 0862.12
2015 04 09 14 06 03 .01    -308    -42    -29    311    313 262.1  -5.5  34040  287.55 0862.11
2015 04 09 14 06 03 .26    -297    -13    -25    298    300 267.4  -4.9  34028  287.33 0862.11
2015 04 09 14 06 03 .51    -305    -87    -42    318    321 254.1  -7.6  34042  287.56 0862.11
2015 04 09 14 06 03 .76    -316    -64    -30    323    325 258.6  -5.5  34012  287.06 0862.11
2015 04 09 14 06 04 .01    -355     -3    -69    356    363 269.5 -11.1  33978  286.51 0862.11
2015 04 09 14 06 04 .26    -356    -32    -75    358    366 264.8 -11.9  33978  286.49 0862.11
2015 04 09 14 06 04 .52    -319    -71    -65    328    335 257.3 -11.2  33986  286.64 0862.11
2015 04 09 14 06 04 .76    -340     -5    -66    341    348 269.1 -11.0  33980  286.54 0862.12
2015 04 09 14 06 05 .01    -323    -14    -81    324    334 267.5 -14.1  33980  286.54 0862.12
2015 04 09 14 06 05 .26    -351    -12    -60    352    358 267.9  -9.8  33980  286.54 0862.12
2015 04 09 14 06 05 .51    -343    -28    -52    345    349 265.3  -8.6  33994  286.75 0862.12
2015 04 09 14 06 05 .77    -356    -26    -70    357    364 265.7 -11.1  33982  286.56 0862.12
2015 04 09 14 06 06 .02    -339    -25    -62    340    346 265.6 -10.4  33984  286.58 0862.12
2015 04 09 14 06 06 .27    -349    -44    -59    352    358 262.8  -9.6  33980  286.54 0862.12
2015 04 09 14 06 06 .52    -365    -28    -80    367    376 265.5 -12.4  33984  286.59 0862.12
2015 04 09 14 06 06 .77    -346    -52    -44    350    353 261.3  -7.2  33992  286.73 0862.12
2015 04 09 14 06 07 .03    -318    -44    -83    321    332 262.1 -14.6  33978  286.51 0862.12
2015 04 09 14 06 07 .28    -353    -17    -83    354    364 267.1 -13.3  33978  286.51 0862.12
2015 04 09 14 06 07 .53    -350      0    -80    351    361 270.0 -12.9  33980  286.54 0862.12
2015 04 09 14 06 07 .78    -342    -14    -58    343    348 267.6  -9.7  33992  286.73 0862.12
2015 04 09 14 06 08 .03    -335    -25    -66    336    343 265.6 -11.2  34002  286.90 0862.12
2015 04 09 14 06 08 .28    -344    -26    -68    345    352 265.7 -11.2  33980  286.53 0862.12
2015 04 09 14 06 08 .53    -334    -33    -66    336    343 264.3 -11.2  33978  286.49 0862.12
2015 04 09 14 06 08 .78    -347    -31    -67    349    356 264.8 -10.9  33984  286.59 0862.12
2015 04 09 14 06 09 .03    -312     -9    -47    313    317 268.3  -8.7  33982  286.55 0862.12
2015 04 09 14 06 09 .29    -278    -21    -51    279    284 265.6 -10.5  33996  286.79 0862.11
2015 04 09 14 06 09 .53    -275    -59    -46    282    286 257.7  -9.4  34008  287.01 0862.11
2015 04 09 14 06 09 .79    -203     -1    -33    204    207 269.6  -9.4  34016  287.15 0862.11
2015 04 09 14 06 10 .04    -280     -8    -69    281    290 268.3 -13.9  34002  286.90 0862.11
2015 04 09 14 06 10 .29    -280    -21    -66    281    289 265.6 -13.3  34010  287.02 0862.11
2015 04 09 14 06 10 .54    -293      8    -53    294    299 271.7 -10.3  34008  287.01 0862.11
2015 04 09 14 06 10 .79    -282     -2    -40    283    286 269.4  -8.2  34020  287.19 0862.11
2015 04 09 14 06 11 .04    -312    -53    -52    317    322 260.3  -9.3  34070  288.04 0862.11
2015 04 09 14 06 11 .29    -279    -65    -36    287    290 256.8  -7.3  34060  287.87 0862.11
2015 04 09 14 06 11 .54    -278     -8    -64    279    287 268.3 -12.9  34080  288.22 0862.11
2015 04 09 14 06 11 .79    -282    -39    -47    285    289 262.0  -9.4  34080  288.21 0862.11
2015 04 09 14 06 12 .04    -312    -73    -49    321    325 256.7  -8.8  34080  288.22 0862.11
2015 04 09 14 06 12 .28    -291    -45    -34    295    298 261.2  -6.7  34048  287.68 0862.11
2015 04 09 14 06 12 .55    -280    -39    -48    283    288 261.9  -9.8  34034  287.43 0862.11
2015 04 09 14 06 12 .80    -298    -42    -65    302    310 261.9 -12.2  34040  287.53 0862.11
2015 04 09 14 06 13 .04    -315      0    -38    316    319 270.1  -6.9  34080  288.21 0862.12
2015 04 09 14 06 13 .29    -306    -32    -37    308    311 263.9  -6.9  34022  287.24 0862.12
2015 04 09 14 06 13 .54    -294    -22    -66    295    303 265.7 -12.6  33990  286.70 0862.12
2015 04 09 14 06 13 .80    -297    -27    -51    299    304 264.7  -9.8  33984  286.60 0862.12
2015 04 09 14 06 14 .05    -299    -12    -57    300    306 267.6 -10.9  33994  286.77 0862.12
2015 04 09 14 06 14 .30    -308    -17    -69    309    317 266.7 -12.7  33984  286.58 0862.12
2015 04 09 14 06 14 .55    -293    -16    -76    294    304 266.7 -14.5  33982  286.57 0862.12
2015 04 09 14 06 14 .80    -292    -13    -68    293    301 267.4 -13.2  33982  286.55 0862.12
2015 04 09 14 06 15 .06    -275     -4    -60    276    283 269.0 -12.4  34004  286.92 0862.12
2015 04 09 14 06 15 .31    -268     -4    -63    269    277 269.1 -13.3  33986  286.63 0862.12
2015 04 09 14 06 15 .56    -294     -8    -58    295    301 268.3 -11.1  34116  288.83 0862.12
2015 04 09 14 06 15 .81    -272     -8    -60    273    280 268.3 -12.4  34148  289.37 0862.11
2015 04 09 14 06 16 .06    -300     51    -29    305    307 279.7  -5.6  34098  288.51 0862.11
2015 04 09 14 06 16 .31    -236      7    -25    237    239 271.7  -6.1  34108  288.68 0862.11
2015 04 09 14 06 16 .55    -252    -21     -9    253    254 265.2  -2.2  34022  287.24 0862.11
2015 04 09 14 06 16 .81    -286    -62    -56    293    299 257.6 -10.9  34012  287.06 0862.11
2015 04 09 14 06 17 .06    -272    -45    -56    276    282 260.5 -11.5  34012  287.07 0862.11
2015 04 09 14 06 17 .31    -262     17    -33    263    266 273.7  -7.2  34018  287.16 0862.11
2015 04 09 14 06 17 .56    -214     44    -24    219    221 281.7  -6.5  34014  287.11 0862.12
2015 04 09 14 06 17 .82    -211     42    -27    216    218 281.2  -7.3  34050  287.70 0862.12
2015 04 09 14 06 18 .06    -174     18    -22    176    178 276.1  -7.3  34068  288.01 0862.12
2015 04 09 14 06 18 .32    -221     28    -41    223    227 277.5 -10.5  34112  288.75 0862.12
2015 04 09 14 06 18 .56    -209      8    -25    210    212 272.4  -6.9  34132  289.09 0862.12
2015 04 09 14 06 18 .82    -101     -7     14    102    104 265.6   8.0  34084  288.30 0862.12
2015 04 09 14 06 19 .07    -168     48    -25    175    177 286.2  -8.2  34074  288.11 0862.12
2015 04 09 14 06 19 .32    -124     -9    -10    125    126 265.6  -4.6  34094  288.45 0862.11
2015 04 09 14 06 19 .57    -101      0    -17    102    104 270.0  -9.8  34108  288.69 0862.11
2015 04 09 14 06 19 .82    -143    -12    -18    144    146 265.2  -7.3  34108  288.69 0862.11
2015 04 09 14 06 20 .07    -122     24     -2    125    126 281.5  -1.3  34134  289.14 0862.11
2015 04 09 14 06 20 .32     -98    -33      5    104    105 251.4   2.8  34134  289.14 0862.11
2015 04 09 14 06 20 .57     -43    -41     29     60     66 226.0  27.2  34148  289.36 0862.11
2015 04 09 14 06 20 .82     -99     16    -16    101    103 279.2  -9.3  34124  288.96 0862.11
2015 04 09 14 06 21 .08    -156     30     -8    159    160 281.0  -3.1  34136  289.18 0862.11
2015 04 09 14 06 21 .33    -250    -84    -31    264    266 251.4  -6.9  34152  289.44 0862.11
2015 04 09 14 06 21 .58    -235    -47    -18    240    241 258.6  -4.4  34152  289.42 0862.11
2015 04 09 14 06 21 .83    -197    -14    -35    198    202 265.7 -10.1  34092  288.42 0862.11
2015 04 09 14 06 22 .08    -221    -31    -40    224    228 262.0 -10.3  34046  287.64 0862.11
2015 04 09 14 06 22 .34    -201    -47    -50    207    214 256.7 -13.7  34026  287.30 0862.11
2015 04 09 14 06 22 .59    -210    -58    -33    218    221 254.5  -8.8  34090  288.40 0862.11
2015 04 09 14 06 22 .84    -140    -47      0    148    149 251.4  -0.3  34124  288.96 0862.11
2015 04 09 14 06 23 .09    -110    -46     -6    120    121 247.4  -3.2  34136  289.18 0862.11
2015 04 09 14 06 23 .34    -142    -78    -22    163    165 241.1  -7.7  34166  289.69 0862.11
2015 04 09 14 06 23 .59     -60    -60     61     86    105 225.0  39.1  34198  290.23 0862.11
2015 04 09 14 06 23 .84     -64     21     52     68     85 288.4  41.2  34214  290.48 0862.11
2015 04 09 14 06 24 .09     -23      6     47     24     52 285.1  71.9  34244  290.99 0862.11
2015 04 09 14 06 24 .33    -127     20     18    129    131 279.2   8.0  34194  290.16 0862.11
2015 04 09 14 06 24 .59    -199    -15    -38    200    204 265.4 -10.9  34122  288.94 0862.11
2015 04 09 14 06 24 .84    -125    -25     47    128    136 258.5  20.9  34218  290.55 0862.11
2015 04 09 14 06 25 .10    -298    -25    -67    300    308 265.2 -12.7  34016  287.14 0862.11
2015 04 09 14 06 25 .34    -331    -29    -42    333    336 264.9  -7.3  34068  288.00 0862.11
2015 04 09 14 06 25 .59    -361     -2    -86    362    373 269.6 -13.4  34016  287.12 0862.11
2015 04 09 14 06 25 .84    -328    -37    -53    331    336 263.4  -9.1  34132  289.11 0862.11
2015 04 09 14 06 26 .09    -343    -47    -69    347    354 262.1 -11.3  33994  286.78 0862.11
2015 04 09 14 06 26 .34    -317    -28    -82    319    330 264.9 -14.5  33984  286.60 0862.11
2015 04 09 14 06 26 .59    -318    -16    -71    319    327 267.1 -12.7  33988  286.67 0862.10
2015 04 09 14 06 26 .84    -292    -17    -58    293    299 266.6 -11.3  34026  287.29 0862.10
2015 04 09 14 06 27 .10    -279      0    -51    280    285 270.1 -10.5  34072  288.07 0862.10
2015 04 09 14 06 27 .35    -298    -36    -43    301    305 263.0  -8.2  34006  286.95 0862.10
2015 04 09 14 06 27 .60    -291    -49    -23    296    297 260.3  -4.6  34034  287.43 0862.10
2015 04 09 14 06 27 .86    -275    -91    -22    290    291 251.6  -4.4  34182  289.95 0862.10
2015 04 09 14 06 28 .10    -333   -141    -54    362    367 246.9  -8.6  34036  287.47 0862.10
2015 04 09 14 06 28 .35    -312   -140    -32    342    344 245.8  -5.5  34014  287.10 0862.11
2015 04 09 14 06 28 .61    -326   -112    -54    345    350 250.9  -8.9  34026  287.30 0862.11
2015 04 09 14 06 28 .86    -354   -129    -48    377    381 250.0  -7.3  34038  287.51 0862.11
2015 04 09 14 06 29 .11    -339   -119    -89    360    371 250.6 -13.9  34064  287.94 0862.11
2015 04 09 14 06 29 .36    -327   -100    -69    343    350 253.0 -11.5  34068  288.00 0862.11
2015 04 09 14 06 29 .61    -312    -57    -69    318    326 259.5 -12.4  34072  288.07 0862.11
2015 04 09 14 06 29 .86    -334    -61    -75    340    349 259.6 -12.5  34052  287.76 0862.11
2015 04 09 14 06 30 .11    -337    -61    -68    343    350 259.6 -11.2  34054  287.78 0862.11
2015 04 09 14 06 30 .36    -351    -41    -58    354    359 263.3  -9.4  34058  287.84 0862.11
2015 04 09 14 06 30 .61    -314    -18    -28    315    317 266.6  -5.1  34086  288.31 0862.11
2015 04 09 14 06 30 .86    -272    -78    -11    284    285 254.0  -2.2  34062  287.90 0862.11
2015 04 09 14 06 31 .11    -260   -108    -44    282    286 247.3  -9.0  34058  287.85 0862.11
2015 04 09 14 06 31 .36    -314   -101    -60    330    336 252.1 -10.4  34052  287.76 0862.11
2015 04 09 14 06 31 .61    -368    -41    -39    371    374 263.5  -6.1  34052  287.76 0862.11
2015 04 09 14 06 31 .87    -383    -29    -34    384    386 265.7  -5.2  34076  288.16 0862.11
2015 04 09 14 06 32 .11    -223     -1     36    224    228 269.6   9.3  34088  288.35 0862.11
2015 04 09 14 06 32 .37    -408   -135    -55    430    434 251.7  -7.3  34146  289.33 0862.11
2015 04 09 14 06 32 .62    -396   -144    -63    422    427 250.0  -8.6  34166  289.66 0862.11
2015 04 09 14 06 32 .86    -415   -129    -65    435    440 252.7  -8.6  34156  289.49 0862.11
2015 04 09 14 06 33 .12    -399   -153    -55    428    432 248.9  -7.3  34074  288.11 0862.11
2015 04 09 14 06 33 .37    -373   -151    -46    403    406 247.9  -6.6  34120  288.89 0862.11
2015 04 09 14 06 33 .62    -359    -56    -57    364    369 261.0  -9.0  34164  289.64 0862.11
2015 04 09 14 06 33 .87    -355   -129    -33    379    381 250.0  -5.1  34052  287.76 0862.11
2015 04 09 14 06 34 .12    -294   -200    -29    356    358 235.8  -4.8  34006  286.95 0862.11
2015 04 09 14 06 34 .38    -280   -178    -23    333    334 237.5  -4.0  34140  289.23 0862.11
2015 04 09 14 06 34 .62    -296   -267     11    399    400 228.0   1.6  34042  287.57 0862.10
2015 04 09 14 06 34 .88    -294   -257      3    391    392 228.9   0.5  34022  287.23 0862.10
2015 04 09 14 06 35 .13    -292   -269     20    398    399 227.3   3.0  34074  288.11 0862.10
2015 04 09 14 06 35 .39    -310   -272     12    413    414 228.7   1.7  34014  287.11 0862.10
2015 04 09 14 06 35 .63    -270   -275     21    386    387 224.4   3.1  34022  287.22 0862.10
2015 04 09 14 06 35 .89    -265   -265     16    376    377 225.0   2.5  34064  287.93 0862.10
2015 04 09 14 06 36 .13    -268   -269      4    381    382 224.9   0.7  33994  286.76 0862.10
2015 04 09 14 06 36 .39    -259   -250      4    361    362 226.0   0.7  33996  286.81 0862.10
2015 04 09 14 06 36 .63    -246   -261     56    359    364 223.3   9.0  34116  288.84 0862.10
2015 04 09 14 06 36 .89    -239   -245     36    343    345 224.2   6.1  34156  289.52 0862.10
2015 04 09 14 06 37 .13    -278   -259     -1    381    382 227.0  -0.3  34022  287.23 0862.10
2015 04 09 14 06 37 .39    -233   -243     30    338    340 223.8   5.1  34172  289.77 0862.10
2015 04 09 14 06 37 .64    -249   -234      1    342    343 226.8   0.2  34052  287.76 0862.10
2015 04 09 14 06 37 .89    -232   -234     -1    330    331 224.8  -0.3  34014  287.10 0862.10
2015 04 09 14 06 38 .14    -248   -224    -17    335    336 228.0  -3.0  34012  287.08 0862.10
2015 04 09 14 06 38 .39    -265   -225    -24    348    349 229.7  -4.0  34008  287.00 0862.09
2015 04 09 14 06 38 .64    -254   -216    -38    334    337 229.6  -6.5  34032  287.39 0862.09
2015 04 09 14 06 38 .89    -241   -211      4    321    322 228.7   0.8  34028  287.34 0862.09
2015 04 09 14 06 39 .14    -248   -220    -21    332    333 228.4  -3.7  34012  287.07 0862.09
2015 04 09 14 06 39 .39    -265   -208    -43    338    341 231.9  -7.4  33992  286.73 0862.09
2015 04 09 14 06 39 .64    -257   -211    -43    333    336 230.6  -7.5  33994  286.78 0862.09
2015 04 09 14 06 39 .90    -254   -223    -37    338    341 228.7  -6.3  34010  287.02 0862.09
2015 04 09 14 06 40 .14    -228   -214    -25    314    316 226.8  -4.6  34008  287.01 0862.09
2015 04 09 14 06 40 .39    -208   -194     -3    285    286 226.9  -0.7  34036  287.46 0862.09
2015 04 09 14 06 40 .64    -232   -192     -6    302    303 230.4  -1.2  34042  287.56 0862.09
2015 04 09 14 06 40 .89    -230   -179    -26    292    294 232.0  -5.2  34022  287.24 0862.09
2015 04 09 14 06 41 .15    -212   -182    -20    280    281 229.3  -4.1  34008  287.01 0862.09
2015 04 09 14 06 41 .40    -225   -189    -33    295    297 230.0  -6.5  34016  287.14 0862.09
2015 04 09 14 06 41 .64    -263   -212    -13    338    339 231.1  -2.2  34042  287.59 0862.09
2015 04 09 14 06 41 .91    -252   -204    -14    325    326 231.1  -2.6  34024  287.28 0862.10
2015 04 09 14 06 42 .15    -233   -163    -25    285    287 234.9  -5.2  34032  287.41 0862.10
2015 04 09 14 06 42 .41    -234   -185    -23    299    300 231.6  -4.6  33998  286.84 0862.10
2015 04 09 14 06 42 .66    -229   -189    -21    298    299 230.5  -4.1  34000  286.87 0862.10
2015 04 09 14 06 42 .91    -207   -176    -21    272    273 229.6  -4.6  33994  286.77 0862.10
2015 04 09 14 06 43 .16    -204   -169    -38    266    269 230.4  -8.3  33990  286.68 0862.10
2015 04 09 14 06 43 .41    -223   -195    -25    297    299 228.9  -4.9  34014  287.09 0862.10
2015 04 09 14 06 43 .66    -219   -180    -26    284    286 230.5  -5.4  34000  286.87 0862.10
2015 04 09 14 06 43 .92    -190   -178    -33    261    264 226.9  -7.3  34046  287.63 0862.10
2015 04 09 14 06 44 .16    -236   -171    -37    292    295 234.1  -7.3  34116  288.83 0862.10
2015 04 09 14 06 44 .41    -230   -135    -23    267    269 239.6  -5.1  34132  289.09 0862.10
2015 04 09 14 06 44 .66    -227   -151     -5    273    274 236.3  -1.2  34156  289.49 0862.10
2015 04 09 14 06 44 .92    -196   -172      5    262    263 228.7   1.2  34122  288.92 0862.10
2015 04 09 14 06 45 .16    -206   -105    -29    232    234 243.0  -7.3  34094  288.46 0862.10
2015 04 09 14 06 45 .41    -257   -126    -33    287    289 243.8  -6.7  34058  287.83 0862.11
2015 04 09 14 06 45 .67    -249   -148    -11    290    291 239.3  -2.3  34064  287.93 0862.11
2015 04 09 14 06 45 .91    -256   -157    -21    301    302 238.4  -4.1  34016  287.14 0862.11
2015 04 09 14 06 46 .17    -265   -155    -27    308    310 239.6  -5.1  34002  286.90 0862.11
2015 04 09 14 06 46 .42    -253   -162    -11    301    302 237.4  -2.2  34014  287.11 0862.11
2015 04 09 14 06 46 .67    -260   -165    -17    308    309 237.6  -3.3  34002  286.90 0862.11
2015 04 09 14 06 46 .92    -283   -168    -43    330    333 239.3  -7.6  34000  286.88 0862.11
2015 04 09 14 06 47 .17    -260   -165    -17    308    309 237.6  -3.3  34002  286.90 0862.11
2015 04 09 14 06 47 .42    -259   -160    -33    305    307 238.4  -6.2  34000  286.87 0862.11
2015 04 09 14 06 47 .67    -242   -138    -35    279    282 240.2  -7.3  34000  286.87 0862.11
2015 04 09 14 06 47 .92    -253   -171    -38    306    309 236.0  -7.2  33998  286.82 0862.11
2015 04 09 14 06 48 .17    -260   -156    -58    304    310 239.1 -10.9  34000  286.87 0862.11
2015 04 09 14 06 48 .42    -254   -162    -54    302    307 237.4 -10.3  34000  286.87 0862.11
2015 04 09 14 06 48 .67    -255   -176    -57    311    317 235.4 -10.5  33998  286.82 0862.11
2015 04 09 14 06 48 .93    -227   -197    -61    301    308 229.1 -11.5  33996  286.79 0862.11
2015 04 09 14 06 49 .18    -228   -194    -43    300    304 229.5  -8.3  33996  286.80 0862.11
2015 04 09 14 06 49 .43    -232   -192    -38    302    305 230.4  -7.3  34002  286.90 0862.11
2015 04 09 14 06 49 .69    -236   -160    -29    286    288 235.8  -6.0  34002  286.90 0862.11
2015 04 09 14 06 49 .94    -219   -148    -28    265    267 235.8  -6.1  34004  286.92 0862.11
2015 04 09 14 06 50 .19    -218   -117    -50    248    253 241.6 -11.5  34004  286.92 0862.11
2015 04 09 14 06 50 .44    -268   -116    -56    293    299 246.5 -10.9  34012  287.06 0862.11
2015 04 09 14 06 50 .68    -299    -70    -47    308    312 256.7  -8.7  34024  287.26 0862.11
2015 04 09 14 06 50 .94    -279    -89    -44    294    298 252.2  -8.6  34024  287.26 0862.11
2015 04 09 14 06 51 .19    -261   -132    -53    293    298 243.1 -10.4  34000  286.87 0862.11
2015 04 09 14 06 51 .44    -226   -143    -47    268    273 237.8 -10.1  34010  287.02 0862.11
2015 04 09 14 06 51 .69    -235   -170    -20    291    292 234.1  -4.1  34026  287.29 0862.11
2015 04 09 14 06 51 .94    -245   -152    -37    289    292 238.2  -7.3  34008  286.99 0862.11
2015 04 09 14 06 52 .19    -193   -116    -45    226    231 238.9 -11.5  34004  286.93 0862.11
2015 04 09 14 06 52 .44    -147   -112    -37    185    189 232.7 -11.3  34000  286.88 0862.11
2015 04 09 14 06 52 .69    -142   -138    -49    199    206 225.8 -13.9  34000  286.86 0862.11
2015 04 09 14 06 52 .94    -118   -149      0    191    192 218.5   0.0  34022  287.23 0862.11
2015 04 09 14 06 53 .20    -160   -142      6    214    215 228.4   1.8  34046  287.64 0862.11
2015 04 09 14 06 53 .44    -180   -130     -8    223    224 234.0  -2.2  34048  287.69 0862.11
2015 04 09 14 06 53 .69    -159   -149     -1    219    220 226.8  -0.5  34030  287.38 0862.11
2015 04 09 14 06 53 .95    -141   -126      9    190    191 228.2   2.9  34038  287.52 0862.11
2015 04 09 14 06 54 .20    -120    -81     -5    145    146 235.9  -2.2  34056  287.81 0862.11
2015 04 09 14 06 54 .45    -110    -90    -12    143    144 230.5  -5.1  34040  287.54 0862.11
2015 04 09 14 06 54 .69     -98    -82    -52    128    138 230.0 -27.5  34038  287.52 0862.11
2015 04 09 14 06 54 .95     -76    -36    -37     85     92 244.8 -29.5  34058  287.86 0862.11
2015 04 09 14 06 55 .19     -98    -49    -24    110    113 243.4 -12.4  34062  287.92 0862.11
2015 04 09 14 06 55 .45    -105    -67    -12    125    126 237.6  -5.6  34048  287.67 0862.11
2015 04 09 14 06 55 .71    -126    -80     -6    150    151 237.6  -2.6  34050  287.70 0862.11
2015 04 09 14 06 55 .96    -128   -118    -15    175    176 227.3  -5.2  34054  287.79 0862.11
2015 04 09 14 06 56 .21     -90   -124     -3    154    155 216.1  -1.3  34050  287.72 0862.11
2015 04 09 14 06 56 .46     -58   -134      7    147    148 203.6   2.8  34052  287.76 0862.11
2015 04 09 14 06 56 .71     -86   -104     48    136    145 219.6  19.4  34052  287.76 0862.11
2015 04 09 14 06 56 .96     -94   -111     31    146    150 220.1  12.2  34040  287.54 0862.11
2015 04 09 14 06 57 .21    -100   -113     18    151    153 221.5   6.9  34048  287.69 0862.11
2015 04 09 14 06 57 .46     -90   -109      2    142    143 219.7   0.8  34036  287.49 0862.11
2015 04 09 14 06 57 .71     -99   -109     -3    148    149 222.3  -1.2  34050  287.72 0862.11
2015 04 09 14 06 57 .96    -123   -125     10    176    177 224.5   3.3  34036  287.49 0862.11
2015 04 09 14 06 58 .21    -127   -117     11    174    175 227.3   3.8  34036  287.47 0862.11
2015 04 09 14 06 58 .47    -136   -107     -2    174    175 231.8  -0.7  34028  287.35 0862.11
2015 04 09 14 06 58 .72    -168   -107    -27    200    202 237.5  -7.7  34046  287.65 0862.11
2015 04 09 14 06 58 .97    -195   -107    -40    223    227 241.1 -10.3  34040  287.55 0862.11
2015 04 09 14 06 59 .21    -152   -109    -46    188    194 234.3 -13.9  34052  287.74 0862.11
2015 04 09 14 06 59 .47    -145   -148    -37    208    212 224.5 -10.3  33998  286.83 0862.11
2015 04 09 14 06 59 .72    -134   -144    -39    197    201 223.0 -11.3  34000  286.86 0862.11
2015 04 09 14 06 59 .97    -131   -110    -27    172    175 229.8  -9.0  34008  287.01 0862.11
2015 04 09 14 07 00 .22    -129   -133    -39    186    191 223.9 -11.9  34002  286.91 0862.11
2015 04 09 14 07 00 .47    -107   -145    -54    181    190 216.3 -16.8  34000  286.86 0862.11
2015 04 09 14 07 00 .72    -104   -135    -53    171    180 217.6 -17.3  34000  286.88 0862.11
2015 04 09 14 07 00 .97     -98   -118    -38    154    159 219.7 -13.9  34002  286.91 0862.11
2015 04 09 14 07 01 .22     -94   -119    -33    152    156 218.3 -12.4  34006  286.96 0862.11
2015 04 09 14 07 01 .47     -75   -117    -12    140    141 212.6  -5.1  34006  286.96 0862.11
2015 04 09 14 07 01 .72     -94   -111    -24    146    148 220.1  -9.3  34000  286.88 0862.11
2015 04 09 14 07 01 .98     -70   -110    -20    131    133 212.6  -8.8  34014  287.11 0862.11
2015 04 09 14 07 02 .23     -32   -105    -14    110    111 196.9  -7.3  34026  287.32 0862.11
2015 04 09 14 07 02 .47     -56   -121     -4    134    135 204.9  -1.8  34066  287.99 0862.11
2015 04 09 14 07 02 .73     -37   -120     -4    126    127 197.4  -2.2  34030  287.38 0862.11
2015 04 09 14 07 02 .98     -62    -91    -15    111    113 214.3  -7.7  34018  287.18 0862.10
2015 04 09 14 07 03 .24     -44   -106     -9    116    117 202.7  -4.6  34016  287.15 0862.10
2015 04 09 14 07 03 .49     -41    -86     -4     96     97 205.9  -2.6  34018  287.16 0862.10
2015 04 09 14 07 03 .74     -51    -77    -13     93     94 213.8  -8.2  34052  287.76 0862.10
2015 04 09 14 07 03 .99     -46    -45     -2     65     66 225.1  -2.2  34058  287.84 0862.10
2015 04 09 14 07 04 .23    -110    -52    -14    122    123 244.7  -6.7  34032  287.40 0862.10
2015 04 09 14 07 04 .49    -109    -35    -34    115    121 251.8 -16.6  34036  287.49 0862.10
2015 04 09 14 07 04 .74    -112    -37     -5    119    120 251.6  -2.6  34050  287.70 0862.10
2015 04 09 14 07 04 .99     -79    -25    -18     83     86 252.3 -12.4  34042  287.57 0862.10
2015 04 09 14 07 05 .24    -100    -62    -18    118    120 238.0  -8.8  34048  287.69 0862.10
2015 04 09 14 07 05 .49    -112    -61     -5    128    129 241.1  -2.6  34052  287.76 0862.10
2015 04 09 14 07 05 .74    -108   -102    -18    149    151 226.8  -7.2  34044  287.60 0862.10
2015 04 09 14 07 05 .99    -114    -95     -6    149    150 230.4  -2.6  34050  287.70 0862.10
2015 04 09 14 07 06 .24    -104    -80     -5    132    133 232.7  -2.2  34044  287.62 0862.10
2015 04 09 14 07 06 .50     -87    -63     -4    108    109 234.0  -2.2  34042  287.59 0862.11
2015 04 09 14 07 06 .75    -102    -47     -5    113    114 245.2  -2.6  34056  287.81 0862.11
2015 04 09 14 07 06 .99    -106    -34    -14    112    113 251.8  -7.3  34046  287.65 0862.11
2015 04 09 14 07 07 .25    -157    -33    -36    161    165 258.1 -12.6  34030  287.38 0862.11
2015 04 09 14 07 07 .49    -172    -59    -27    183    186 250.9  -8.6  34028  287.33 0862.11
2015 04 09 14 07 07 .74    -177    -29    -56    180    189 260.5 -17.5  33990  286.69 0862.11
2015 04 09 14 07 08 .00    -186    -36    -60    190    200 258.8 -17.6  33998  286.83 0862.11
2015 04 09 14 07 08 .24    -204     -9    -61    205    213 267.4 -21.7  33992  286.73 0862.11
2015 04 09 14 07 08 .50    -199     -2    -69    200    211 269.4 -23.6  33990  286.71 0862.11
2015 04 09 14 07 08 .74    -185     20    -56    187    195 276.4 -22.1  33990  286.71 0862.11
2015 04 09 14 07 09 .00    -175     46    -61    181    191 284.8 -23.3  33992  286.73 0862.11
2015 04 09 14 07 09 .25    -157     37    -62    162    173 283.3 -26.1  33996  286.79 0862.11
2015 04 09 14 07 09 .50    -155     16    -47    156    162 276.1 -21.7  34006  286.98 0862.11
2015 04 09 14 07 09 .76    -160      6    -23    161    163 272.4  -8.2  34004  286.93 0862.11
2015 04 09 14 07 10 .01    -136      9    -27    137    140 273.9 -11.3  34008  287.00 0862.11
2015 04 09 14 07 10 .26     -54     20     34     58     67 290.8  33.5  34040  287.55 0862.12
2015 04 09 14 07 10 .51     -29      4      1     30     31 277.9   2.9  34036  287.49 0862.12
2015 04 09 14 07 10 .77     -27     -9      0     29     30 251.4  -1.3  34050  287.70 0862.12
2015 04 09 14 07 11 .01     -30    -38     17     49     52 217.8  19.4  34056  287.81 0862.12
2015 04 09 14 07 11 .26    -117    -91     -3    149    150 232.2  -1.3  34028  287.33 0862.12
2015 04 09 14 07 11 .51    -170    -49    -32    177    180 253.8 -10.3  34058  287.86 0862.12
2015 04 09 14 07 11 .77    -139    -22    -13    141    142 260.8  -5.6  34032  287.40 0862.12
2015 04 09 14 07 12 .02    -128     -1     -7    129    130 269.2  -3.2  34032  287.40 0862.12
2015 04 09 14 07 12 .27    -176    -10    -27    177    180 266.7  -8.8  34018  287.16 0862.12
2015 04 09 14 07 12 .52    -183    -23    -37    185    189 262.8 -11.3  34022  287.23 0862.12
2015 04 09 14 07 12 .77    -170    -50    -17    178    179 253.6  -5.6  34024  287.28 0862.12
2015 04 09 14 07 13 .02    -177    -34    -19    181    183 259.0  -6.2  34020  287.20 0862.12
2015 04 09 14 07 13 .27    -169    -32    -36    173    177 259.2 -11.9  34022  287.23 0862.12
2015 04 09 14 07 13 .53    -158    -36    -32    163    167 257.2 -11.1  34044  287.60 0862.12
2015 04 09 14 07 13 .77    -117    -32    -20    122    124 254.5  -9.3  34050  287.70 0862.12
2015 04 09 14 07 14 .02    -109    -56     -4    123    124 242.9  -2.2  34050  287.72 0862.12
2015 04 09 14 07 14 .27    -114    -56     -2    128    129 243.8  -1.3  34058  287.86 0862.12
2015 04 09 14 07 14 .52     -79    -38      4     88     89 244.2   2.9  34062  287.91 0862.12
2015 04 09 14 07 14 .77     -95      0     -9     96     97 269.6  -5.6  34074  288.13 0862.12
2015 04 09 14 07 15 .02    -150      2     -3    151    152 270.8  -1.3  34062  287.92 0862.12
2015 04 09 14 07 15 .28    -159    -60    -26    171    174 249.2  -8.8  34052  287.76 0862.12
2015 04 09 14 07 15 .52    -134    -61     -8    148    149 245.6  -3.2  34064  287.94 0862.12
2015 04 09 14 07 15 .78    -109    -67     -5    129    130 238.5  -2.2  34104  288.64 0862.12
2015 04 09 14 07 16 .02    -117   -102     24    156    158 229.1   9.0  34086  288.31 0862.12
2015 04 09 14 07 16 .28    -134   -103      8    170    171 232.5   2.9  34082  288.26 0862.12
2015 04 09 14 07 16 .52    -156   -102    -15    187    188 236.7  -4.9  34096  288.48 0862.12
2015 04 09 14 07 16 .79    -145    -68    -19    161    163 244.7  -6.9  34140  289.23 0862.12
2015 04 09 14 07 17 .04    -177    -70     -7    191    192 248.3  -2.2  34092  288.42 0862.12
2015 04 09 14 07 17 .29    -172    -76    -35    189    193 246.0 -10.5  34110  288.74 0862.12
2015 04 09 14 07 17 .54    -165    -92    -24    190    192 240.7  -7.2  34116  288.84 0862.12
2015 04 09 14 07 17 .79    -112    -91      3    145    146 230.9   1.2  34150  289.41 0862.12
2015 04 09 14 07 18 .04    -122     -5      6    123    124 267.4   2.8  34134  289.13 0862.12
2015 04 09 14 07 18 .29     -68    -25      3     73     74 249.2   2.9  34144  289.30 0862.12
2015 04 09 14 07 18 .54     -50    -73     31     89     95 214.7  19.4  34122  288.92 0862.12
2015 04 09 14 07 18 .79     -32    -30     20     45     49 226.9  24.1  34170  289.74 0862.12
2015 04 09 14 07 19 .04     -26    -13      2     30     31 242.9   4.9  34150  289.40 0862.12
2015 04 09 14 07 19 .29     -68    -46     -6     83     84 235.8  -4.1  34096  288.48 0862.12
2015 04 09 14 07 19 .54    -159    -82    -25    179    181 242.7  -8.0  34104  288.64 0862.12
2015 04 09 14 07 19 .80    -158   -125    -18    202    203 231.6  -5.2  34062  287.92 0862.12
2015 04 09 14 07 20 .04    -164    -97    -21    191    193 239.3  -6.5  34126  289.01 0862.12
2015 04 09 14 07 20 .29    -145   -104    -30    179    182 234.3  -9.8  34004  286.94 0862.12
2015 04 09 14 07 20 .54    -147    -98    -23    177    179 236.3  -7.5  34002  286.91 0862.12
2015 04 09 14 07 20 .79    -141    -94    -15    170    171 236.3  -5.2  34000  286.88 0862.12
2015 04 09 14 07 21 .04    -146   -109    -10    183    184 233.4  -3.1  34000  286.88 0862.12
2015 04 09 14 07 21 .30    -165    -95    -32    191    194 240.0  -9.8  34002  286.91 0862.12
2015 04 09 14 07 21 .55    -171    -91    -49    194    201 242.0 -14.3  34002  286.91 0862.12
2015 04 09 14 07 21 .80    -169    -90    -35    192    196 241.8 -10.5  34004  286.93 0862.12
2015 04 09 14 07 22 .05    -161    -96    -27    188    190 239.1  -8.2  34006  286.96 0862.12
2015 04 09 14 07 22 .30    -147    -90    -38    173    178 238.5 -12.4  33998  286.84 0862.12
2015 04 09 14 07 22 .55    -144    -93    -26    172    175 236.9  -8.8  34002  286.91 0862.12
2015 04 09 14 07 22 .80    -154    -92    -21    180    182 239.3  -6.7  34004  286.93 0862.12
2015 04 09 14 07 23 .05    -163   -101    -29    192    195 238.2  -8.8  34004  286.93 0862.12
2015 04 09 14 07 23 .30    -135   -107     -6    173    174 231.4  -2.3  34006  286.96 0862.12
2015 04 09 14 07 23 .57    -154   -112    -40    191    196 233.8 -11.9  34016  287.15 0862.12
2015 04 09 14 07 23 .81    -119   -114     -6    165    166 226.2  -2.3  34024  287.28 0862.12
2015 04 09 14 07 24 .07    -117   -150      8    191    192 218.1   2.5  34026  287.30 0862.12
2015 04 09 14 07 24 .31    -106   -152     -2    186    187 215.0  -0.7  34032  287.42 0862.12
2015 04 09 14 07 24 .56    -129   -137     -5    189    190 223.3  -1.6  34036  287.49 0862.12
2015 04 09 14 07 24 .82    -129   -126      0    181    182 225.8   0.2  34030  287.38 0862.12
2015 04 09 14 07 25 .06    -129   -129     10    183    184 225.0   3.1  34036  287.49 0862.12
2015 04 09 14 07 25 .32    -131   -127     35    183    187 225.8  11.0  34034  287.43 0862.12
2015 04 09 14 07 25 .57    -141   -133     20    195    197 226.7   6.1  34036  287.49 0862.12
2015 04 09 14 07 25 .82    -119   -144     42    187    192 219.6  12.9  34054  287.79 0862.12
2015 04 09 14 07 26 .06    -138   -141     -9    198    199 224.3  -2.6  34062  287.92 0862.12
2015 04 09 14 07 26 .32    -124   -136    -13    185    186 222.3  -4.1  34044  287.60 0862.12
2015 04 09 14 07 26 .57    -100   -138     -5    171    172 216.1  -1.8  34052  287.76 0862.12
2015 04 09 14 07 26 .82    -113   -150    -15    189    190 217.0  -4.6  34052  287.74 0862.12
2015 04 09 14 07 27 .07    -113   -134    -15    176    177 220.1  -4.9  34020  287.20 0862.12
2015 04 09 14 07 27 .32    -122   -125     -4    175    176 224.3  -1.6  34002  286.91 0862.12
2015 04 09 14 07 27 .57    -106   -163     -8    195    196 213.2  -2.6  34014  287.11 0862.12
2015 04 09 14 07 27 .82    -122   -156      2    199    200 218.1   0.7  34022  287.25 0862.12
2015 04 09 14 07 28 .07    -123   -141      0    188    189 221.2   0.2  34030  287.37 0862.12
2015 04 09 14 07 28 .32    -108   -132      2    171    172 219.2   1.0  34030  287.37 0862.12
2015 04 09 14 07 28 .57     -93   -112      7    146    147 219.6   2.8  34018  287.16 0862.12
2015 04 09 14 07 28 .82     -93    -98     21    136    138 223.7   8.9  34016  287.15 0862.12
2015 04 09 14 07 29 .08    -105   -121     41    161    167 221.0  14.3  34014  287.11 0862.12
2015 04 09 14 07 29 .33     -81   -117     30    143    147 214.7  12.2  34014  287.11 0862.12
2015 04 09 14 07 29 .58     -77   -106     78    132    153 216.1  33.5  34020  287.21 0862.11
2015 04 09 14 07 29 .82     -86   -111     17    141    143 217.8   7.1  34020  287.20 0862.11
2015 04 09 14 07 30 .08     -79   -117     55    142    152 214.3  22.0  34024  287.28 0862.11
2015 04 09 14 07 30 .32    -105   -138     33    174    178 217.2  11.0  34026  287.30 0862.11
2015 04 09 14 07 30 .59    -121   -143     38    188    192 220.3  11.6  34022  287.25 0862.11
2015 04 09 14 07 30 .84    -149   -116      9    190    191 232.0   2.9  34038  287.52 0862.11
2015 04 09 14 07 31 .09    -149   -101      3    181    182 235.8   1.0  34048  287.69 0862.11
2015 04 09 14 07 31 .34    -161   -103      1    192    193 237.5   0.5  34056  287.81 0862.11
2015 04 09 14 07 31 .59    -200   -127      4    237    238 237.6   1.0  34106  288.66 0862.11
2015 04 09 14 07 31 .84    -140   -100      6    173    174 234.3   2.1  34120  288.89 0862.11
2015 04 09 14 07 32 .09    -163    -97    -12    190    191 239.3  -3.9  34140  289.24 0862.11
2015 04 09 14 07 32 .34    -145    -92     -9    172    173 237.6  -3.3  34138  289.21 0862.11
2015 04 09 14 07 32 .59     -48    -73      2     88     89 213.8   1.8  34146  289.33 0862.11
2015 04 09 14 07 32 .84    -147    -31    -31    151    155 258.1 -11.9  34060  287.89 0862.11
2015 04 09 14 07 33 .10    -183    -25    -18    185    186 262.1  -5.6  34036  287.49 0862.11
2015 04 09 14 07 33 .35    -114    -16      5    116    117 261.6   2.9  34070  288.04 0862.11
2015 04 09 14 07 33 .59    -166    -70    -33    181    185 246.9 -10.5  34014  287.11 0862.11
2015 04 09 14 07 33 .85    -150    -45    -36    157    162 253.1 -12.9  34022  287.23 0862.11
2015 04 09 14 07 34 .10    -165    -44    -31    171    174 254.9 -10.3  34010  287.03 0862.11
2015 04 09 14 07 34 .35    -160    -45    -23    167    169 254.1  -8.0  34014  287.10 0862.11
2015 04 09 14 07 34 .59    -169    -30    -20    172    174 259.9  -6.9  34006  286.98 0862.11
2015 04 09 14 07 34 .84    -173    -36    -32    177    180 258.1 -10.3  34000  286.86 0862.10
2015 04 09 14 07 35 .10    -178    -36    -30    182    185 258.3  -9.3  33998  286.83 0862.10
2015 04 09 14 07 35 .34    -167    -36    -34    172    176 257.6 -11.3  33994  286.78 0862.10
2015 04 09 14 07 35 .60    -182    -28    -34    185    189 261.0 -10.5  33994  286.78 0862.10
2015 04 09 14 07 35 .85    -166     27      0    169    170 279.2   0.0  34010  287.05 0862.10
2015 04 09 14 07 36 .10    -155    -36    -25    160    163 257.0  -9.0  34008  287.01 0862.10
2015 04 09 14 07 36 .35    -143    -47    -21    151    153 251.8  -8.2  34000  286.88 0862.10
2015 04 09 14 07 36 .60    -143    -47    -21    151    153 251.8  -8.2  34000  286.88 0862.10
2015 04 09 14 07 36 .85    -155    -62    -21    168    170 248.0  -7.3  34000  286.86 0862.10
2015 04 09 14 07 37 .10    -152    -57    -19    163    165 249.2  -6.9  33998  286.83 0862.10
2015 04 09 14 07 37 .35    -133    -43    -33    140    144 251.8 -13.3  34000  286.86 0862.10
2015 04 09 14 07 37 .61    -123    -53    -17    135    137 246.5  -7.2  33998  286.84 0862.10
2015 04 09 14 07 37 .86    -121    -48    -14    131    132 248.2  -6.2  33998  286.83 0862.10
2015 04 09 14 07 38 .12    -108    -56    -17    122    124 242.5  -8.2  34004  286.93 0862.10
2015 04 09 14 07 38 .36    -106    -50     -1    118    119 244.6  -0.7  34002  286.89 0862.10
2015 04 09 14 07 38 .62     -66    -63     -3     92     93 226.0  -2.2  34014  287.10 0862.10
2015 04 09 14 07 38 .87     -73    -47     -3     88     89 237.1  -2.2  34018  287.16 0862.10
2015 04 09 14 07 39 .12    -116    -65    -14    134    135 240.7  -6.2  34004  286.94 0862.10
2015 04 09 14 07 39 .36    -115    -25     -6    118    119 257.6  -3.1  34000  286.88 0862.10
2015 04 09 14 07 39 .62    -111    -52    -12    123    124 244.8  -5.6  34000  286.88 0862.10
2015 04 09 14 07 39 .87    -107    -52    -18    120    122 243.8  -8.8  33998  286.83 0862.10
2015 04 09 14 07 40 .12    -120    -53    -17    132    134 246.0  -7.3  34000  286.88 0862.10
2015 04 09 14 07 40 .37    -130    -42    -17    137    139 251.8  -7.3  34004  286.93 0862.10
2015 04 09 14 07 40 .62    -135    -44     -2    143    144 251.8  -1.2  34056  287.81 0862.10
2015 04 09 14 07 40 .87    -115    -53    -10    127    128 245.2  -4.6  34050  287.70 0862.10
2015 04 09 14 07 41 .12    -137    -41     -3    144    145 253.2  -1.3  34036  287.47 0862.10
2015 04 09 14 07 41 .37    -130    -49     -3    140    141 249.2  -1.3  34024  287.28 0862.10
2015 04 09 14 07 41 .62    -128    -43    -32    136    140 251.4 -13.4  34010  287.05 0862.10
2015 04 09 14 07 41 .87    -130    -69    -26    148    151 242.0 -10.3  34034  287.43 0862.10
2015 04 09 14 07 42 .13    -122    -77     -2    145    146 237.5  -1.2  34060  287.87 0862.10
2015 04 09 14 07 42 .38    -139    -65      2    154    155 244.8   0.8  34074  288.13 0862.10
2015 04 09 14 07 42 .63    -132    -44    -10    140    141 251.4  -4.1  34090  288.40 0862.10
2015 04 09 14 07 42 .88    -129    -44    -13    137    138 250.9  -5.6  34104  288.64 0862.10
2015 04 09 14 07 43 .12    -124    -34     -5    129    130 254.5  -2.2  34080  288.21 0862.11
2015 04 09 14 07 43 .38     -85     13     -6     87     88 278.8  -4.1  34088  288.36 0862.11
2015 04 09 14 07 43 .63     -37     10     23     39     45 285.1  34.4  34118  288.86 0862.11
2015 04 09 14 07 43 .87     -63      0     13     64     66 270.8  12.2  34092  288.42 0862.11
2015 04 09 14 07 44 .13    -111    -39    -17    118    120 250.5  -8.2  34000  286.88 0862.11
2015 04 09 14 07 44 .39    -121    -28    -28    125    129 256.7 -12.9  34004  286.93 0862.11
2015 04 09 14 07 44 .64    -125    -25    -21    128    130 258.6  -9.4  34000  286.86 0862.11
2015 04 09 14 07 44 .89    -134    -44    -23    142    144 251.8  -9.3  33994  286.78 0862.11
2015 04 09 14 07 45 .14    -123    -45    -19    132    134 250.0  -8.2  33996  286.79 0862.11
2015 04 09 14 07 45 .39    -127    -36    -17    133    135 254.1  -7.3  33994  286.78 0862.11
2015 04 09 14 07 45 .64    -122    -28    -20    126    128 256.8  -9.3  33998  286.84 0862.11
2015 04 09 14 07 45 .89    -121    -28    -27    125    129 256.8 -12.4  34000  286.88 0862.11
2015 04 09 14 07 46 .14    -126    -42    -30    133    137 251.4 -12.9  33998  286.84 0862.11
2015 04 09 14 07 46 .39    -116    -25    -26    119    122 257.6 -12.4  34000  286.88 0862.11
2015 04 09 14 07 46 .64    -109    -32    -36    114    120 253.2 -17.6  34000  286.88 0862.11
2015 04 09 14 07 46 .89    -109    -24    -32    112    116 257.6 -21.2  33998  286.84 0862.11
2015 04 09 14 07 47 .15    -109    -34    -32    115    119 252.7 -20.2  34002  286.91 0862.11
2015 04 09 14 07 47 .40    -110    -33    -32    115    120 253.2 -15.5  34014  287.11 0862.11
2015 04 09 14 07 47 .64    -102    -33    -38    108    115 251.8 -19.6  33998  286.83 0862.11
2015 04 09 14 07 47 .90     -99    -33    -31    105    110 251.4 -16.6  33998  286.83 0862.11
2015 04 09 14 07 48 .15     -92    -30    -31     97    103 251.8 -18.1  33994  286.78 0862.11
2015 04 09 14 07 48 .40    -101    -29    -32    106    110 254.1 -21.7  33998  286.84 0862.11
2015 04 09 14 07 48 .65     -93    -31    -29     99    103 251.4 -21.2  34010  287.03 0862.11
2015 04 09 14 07 48 .90     -93    -30    -32     98    104 251.8 -18.1  34020  287.20 0862.11
2015 04 09 14 07 49 .15     -89    -29    -30     94     99 251.4 -18.1  34028  287.33 0862.11
2015 04 09 14 07 49 .40     -96    -25    -29    100    105 255.0 -16.0  34034  287.43 0862.11
2015 04 09 14 07 49 .65     -88    -20    -29     91     96 257.2 -18.1  34024  287.27 0862.11
2015 04 09 14 07 49 .90     -80    -40    -25     90     93 243.4 -20.2  34032  287.42 0862.11
2015 04 09 14 07 50 .15     -71    -35    -32     80     86 243.8 -26.9  34018  287.16 0862.11
2015 04 09 14 07 50 .41     -77    -56    -31     96    100 234.0 -23.3  34028  287.33 0862.10
2015 04 09 14 07 50 .67     -88    -56    -28    105    109 237.5 -15.4  34032  287.40 0862.10
2015 04 09 14 07 50 .90     -82    -47    -23     95     98 239.8 -13.9  34032  287.40 0862.10
2015 04 09 14 07 51 .15     -84    -48    -14     97     99 240.2  -8.2  34034  287.43 0862.10
2015 04 09 14 07 51 .41     -89    -56    -20    106    108 237.6 -10.9  34042  287.59 0862.10
2015 04 09 14 07 51 .66     -96    -37    -34    104    110 248.7 -18.1  34042  287.59 0862.10
2015 04 09 14 07 51 .91    -113    -30    -34    118    122 254.9 -21.2  34052  287.74 0862.10
2015 04 09 14 07 52 .16    -122    -32    -43    127    134 255.4 -23.3  34050  287.72 0862.10
2015 04 09 14 07 52 .42    -116    -37    -38    122    128 252.3 -17.5  34048  287.67 0862.10
2015 04 09 14 07 52 .67    -108    -33    -24    114    117 252.7 -11.9  34040  287.54 0862.10
2015 04 09 14 07 52 .92    -102    -34     -7    108    109 251.4  -3.7  34036  287.47 0862.10
2015 04 09 14 07 53 .17     -85    -59     -4    104    105 234.9  -2.2  34036  287.47 0862.10
2015 04 09 14 07 53 .42     -72    -54      1     91     92 233.1   1.2  34038  287.52 0862.10
2015 04 09 14 07 53 .67     -53    -56     12     78     79 223.3   9.0  34038  287.52 0862.10
2015 04 09 14 07 53 .92     -50    -53      4     73     74 223.3   3.8  34038  287.52 0862.10
2015 04 09 14 07 54 .17     -47    -36      5     60     61 232.2   4.9  34040  287.54 0862.10
2015 04 09 14 07 54 .43     -42    -41     -1     59     60 226.0  -1.2  34056  287.81 0862.10
2015 04 09 14 07 54 .68     -39    -32     -2     51     52 230.4  -2.2  34082  288.26 0862.10
2015 04 09 14 07 54 .92     -41    -41     27     58     63 225.0  26.2  34086  288.31 0862.10
2015 04 09 14 07 55 .17     -43    -41     22     60     63 226.0  20.0  34064  287.94 0862.10
2015 04 09 14 07 55 .42     -42    -43     16     61     64 224.1  15.3  34058  287.84 0862.10
2015 04 09 14 07 55 .67     -43    -36     25     57     62 230.4  25.1  34052  287.76 0862.10
2015 04 09 14 07 55 .92     -31    -41     23     52     56 217.8  25.1  34044  287.60 0862.10
2015 04 09 14 07 56 .17     -32    -27     20     43     47 229.6  26.2  34048  287.69 0862.10
2015 04 09 14 07 56 .43     -28    -35     25     46     52 218.7  30.3  34058  287.86 0862.10
2015 04 09 14 07 56 .68     -37    -29     30     48     56 232.2  35.5  34106  288.67 0862.10
2015 04 09 14 07 56 .93     -29    -21     40     36     53 234.0  52.2  34138  289.21 0862.10
2015 04 09 14 07 57 .18     -22    -17     39     28     48 232.2  61.5  34166  289.69 0862.10
2015 04 09 14 07 57 .42     -23    -21     37     32     48 226.9  53.3  34146  289.33 0862.10
2015 04 09 14 07 57 .68     -24    -24      6     35     36 225.1  11.0  34128  289.04 0862.10
2015 04 09 14 07 57 .93     -22    -26      9     35     37 219.6  15.3  34132  289.11 0862.10
2015 04 09 14 07 58 .18     -25    -25     20     36     41 225.0  31.4  34128  289.04 0862.10
2015 04 09 14 07 58 .44     -20    -23     10     31     33 221.4  18.9  34132  289.09 0862.10
2015 04 09 14 07 58 .69     -30    -37     19     48     51 218.7  22.0  34142  289.28 0862.10
2015 04 09 14 07 58 .94     -20    -19     14     28     31 226.7  27.3  34142  289.28 0862.10
2015 04 09 14 07 59 .19     -63      0      3     64     65 269.2   2.9  34092  288.43 0862.10
2015 04 09 14 07 59 .44     -44    -33     -6     56     57 233.1  -6.2  34060  287.89 0862.10
2015 04 09 14 07 59 .70     -40    -36     -2     55     56 227.8  -2.2  34068  288.03 0862.10
2015 04 09 14 07 59 .94     -45    -37     15     59     61 230.5  14.3  34086  288.31 0862.10
2015 04 09 14 08 00 .20     -30    -30     14     43     46 225.0  18.9  34078  288.18 0862.09
2015 04 09 14 08 00 .44     -25    -37     29     45     53 214.3  35.6  34078  288.18 0862.09
2015 04 09 14 08 00 .69     -11    -32     27     35     44 200.0  42.7  34074  288.11 0862.09
2015 04 09 14 08 00 .95     -21    -33     32     40     51 212.6  43.7  34096  288.48 0862.09
2015 04 09 14 08 01 .19     -23    -21     30     32     43 226.9  50.0  34100  288.55 0862.09
2015 04 09 14 08 01 .44     -21    -17     39     28     48 230.5  61.5  34102  288.60 0862.09
2015 04 09 14 08 01 .70     -28    -44     31     53     61 212.5  33.5  34118  288.86 0862.09
2015 04 09 14 08 01 .95     -24    -35      7     43     44 214.3  10.1  34124  288.96 0862.09
2015 04 09 14 08 02 .20     -38    -12    -12     40     42 251.8 -17.6  34110  288.72 0862.10
2015 04 09 14 08 02 .45     -64    -40     -9     76     77 237.6  -7.2  34090  288.40 0862.10
2015 04 09 14 08 02 .70     -61    -36     -5     72     73 239.3  -4.1  34098  288.53 0862.10
2015 04 09 14 08 02 .95     -70    -28     -9     76     77 248.2  -7.3  34112  288.75 0862.10
2015 04 09 14 08 03 .21     -81      3    -10     82     83 272.6  -7.3  34114  288.79 0862.10
2015 04 09 14 08 03 .45     -49    -26    -11     56     58 242.0 -11.3  34146  289.35 0862.10
2015 04 09 14 08 03 .70     -73    -24     -5     77     78 251.8  -4.1  34118  288.86 0862.10
2015 04 09 14 08 03 .96     -64    -50      1     82     83 231.8   1.2  34126  289.01 0862.09
2015 04 09 14 08 04 .21     -91      5    -11     92     93 273.5  -7.3  34114  288.80 0862.09
2015 04 09 14 08 04 .45    -129    -26    -27    132    135 258.6 -11.9  34020  287.20 0862.09
2015 04 09 14 08 04 .71     -88    -36    -25     96    100 247.4 -14.5  34068  288.03 0862.09
2015 04 09 14 08 04 .95    -123    -20    -27    125    128 260.4 -12.4  34060  287.87 0862.09
2015 04 09 14 08 05 .22    -157    -16    -35    158    162 263.9 -12.6  34034  287.43 0862.09
2015 04 09 14 08 05 .46    -181     20    -23    183    185 276.6  -7.3  34004  286.93 0862.09
2015 04 09 14 08 05 .72    -165    -36    -21    169    171 257.6  -7.3  34018  287.16 0862.09
2015 04 09 14 08 05 .97    -163    -62      0    175    176 248.9   0.0  34056  287.82 0862.09
2015 04 09 14 08 06 .23    -166    -73    -14    182    183 246.0  -4.6  34084  288.28 0862.09
2015 04 09 14 08 06 .47     -82    -37     32     91     97 245.6  19.4  34094  288.45 0862.09
2015 04 09 14 08 06 .72     -73    -58      4     94     95 231.4   2.9  34098  288.52 0862.10
2015 04 09 14 08 06 .97     -87    -32     -6     93     94 249.6  -4.1  34098  288.52 0862.10
2015 04 09 14 08 07 .22    -158    -58    -22    169    171 249.8  -7.7  34076  288.16 0862.10
2015 04 09 14 08 07 .47    -120    -36    -21    126    128 253.1  -9.8  34054  287.79 0862.10
2015 04 09 14 08 07 .73    -132    -27    -29    135    139 258.1 -12.4  34046  287.65 0862.10
2015 04 09 14 08 07 .97    -120    -40      0    127    128 251.4   0.2  34070  288.04 0862.10
2015 04 09 14 08 08 .22     -73    -47      3     88     89 237.1   2.3  34076  288.14 0862.10
2015 04 09 14 08 08 .48    -193    -33    -11    196    197 260.1  -3.3  34014  287.11 0862.09
2015 04 09 14 08 08 .72    -172    -55    -13    181    182 252.3  -4.1  34000  286.86 0862.09
2015 04 09 14 08 08 .98    -168    -56    -39    178    183 251.6 -12.6  34010  287.05 0862.09
2015 04 09 14 08 09 .23    -163    -88    -12    186    187 241.6  -3.7  34008  287.01 0862.09
2015 04 09 14 08 09 .48    -168    -66    -21    181    183 248.5  -6.7  34000  286.88 0862.09
2015 04 09 14 08 09 .73    -149    -45    -45    156    163 253.1 -16.0  34000  286.88 0862.09
2015 04 09 14 08 09 .98    -161    -65    -18    174    175 247.8  -6.0  34012  287.06 0862.09
2015 04 09 14 08 10 .23    -158    -65    -40    171    176 247.6 -13.2  34016  287.15 0862.09
2015 04 09 14 08 10 .50    -138    -87    -45    164    171 237.6 -15.5  34020  287.20 0862.09
2015 04 09 14 08 10 .73    -147    -91    -22    174    176 238.2  -7.3  34008  287.01 0862.09
2015 04 09 14 08 10 .98    -153    -83    -27    175    178 241.6  -9.0  34008  287.01 0862.09
2015 04 09 14 08 11 .23    -146    -79    -25    167    169 241.6  -8.8  34012  287.06 0862.09
2015 04 09 14 08 11 .48    -117    -73    -28    138    141 238.0 -11.5  34014  287.10 0862.09
2015 04 09 14 08 11 .73     -91    -82    -35    123    128 227.8 -16.0  34014  287.11 0862.09
2015 04 09 14 08 11 .98    -103    -83    -29    133    137 231.4 -12.4  34016  287.15 0862.09
2015 04 09 14 08 12 .24    -102    -88    -17    135    137 229.1  -7.2  34010  287.05 0862.09
2015 04 09 14 08 12 .49    -128   -103    -29    165    168 231.1 -10.1  34006  286.98 0862.09
2015 04 09 14 08 12 .74    -139    -88    -11    165    166 237.5  -3.9  34008  287.01 0862.09
2015 04 09 14 08 12 .99    -119    -98    -15    155    156 230.4  -5.6  34000  286.88 0862.10
2015 04 09 14 08 13 .24    -104    -75    -16    129    131 234.0  -7.2  34002  286.91 0862.10
2015 04 09 14 08 13 .50    -115    -59    -16    130    132 243.0  -7.3  33998  286.83 0862.10
2015 04 09 14 08 13 .75    -115    -61    -16    131    133 242.0  -7.3  34006  286.98 0862.10
2015 04 09 14 08 14 .00    -121    -77     -8    144    145 237.5  -3.2  34004  286.93 0862.10
2015 04 09 14 08 14 .25    -109    -67    -35    129    134 238.5 -15.4  34012  287.06 0862.10
2015 04 09 14 08 14 .49     -95    -74    -43    121    129 231.8 -19.6  34006  286.96 0862.10
2015 04 09 14 08 14 .75    -106    -78    -25    132    135 233.6 -10.9  34008  287.01 0862.10
2015 04 09 14 08 15 .00    -116    -69    -32    136    140 239.3 -13.4  34000  286.88 0862.10
2015 04 09 14 08 15 .25    -110    -75    -28    134    137 235.8 -11.9  34000  286.88 0862.10
2015 04 09 14 08 15 .50    -116    -59    -25    131    134 242.9 -10.9  34006  286.96 0862.10
2015 04 09 14 08 15 .75    -120    -59    -17    134    136 243.8  -7.2  34002  286.89 0862.10
2015 04 09 14 08 16 .00     -79    -62    -23    101    104 231.8 -12.9  33998  286.83 0862.10
2015 04 09 14 08 16 .25     -76    -74    -29    107    111 226.0 -15.4  33994  286.78 0862.10
2015 04 09 14 08 16 .50     -67    -72    -24     99    103 223.2 -13.9  33992  286.74 0862.10
2015 04 09 14 08 16 .75     -51    -68    -30     86     91 217.0 -23.8  33990  286.71 0862.10
2015 04 09 14 08 17 .00     -77    -56    -38     96    103 234.0 -27.4  33994  286.78 0862.10
2015 04 09 14 08 17 .25     -66    -61    -37     90     97 227.3 -27.4  33992  286.74 0862.10
2015 04 09 14 08 17 .51     -68    -72    -33    100    106 223.2 -18.7  33994  286.78 0862.10
2015 04 09 14 08 17 .75     -51    -68    -30     86     91 217.0 -23.8  33990  286.71 0862.10
2015 04 09 14 08 18 .00     -54    -63    -32     84     89 220.5 -25.9  33992  286.74 0862.10
2015 04 09 14 08 18 .26     -64    -61    -22     89     92 226.4 -13.9  33998  286.83 0862.10
2015 04 09 14 08 18 .51    -100    -79    -21    128    130 231.8  -9.3  34000  286.86 0862.10
2015 04 09 14 08 18 .76    -125    -79    -29    149    152 237.6 -11.3  34000  286.88 0862.10
2015 04 09 14 08 19 .01    -125    -67    -37    143    148 241.6 -14.5  34008  287.01 0862.10
2015 04 09 14 08 19 .27     -86    -38      1     95     96 246.0   0.8  34016  287.15 0862.10
2015 04 09 14 08 19 .52     -76    -75     28    107    111 225.4  14.7  34054  287.77 0862.10
2015 04 09 14 08 19 .77     -69    -52      3     87     88 232.7   2.3  34042  287.59 0862.10
2015 04 09 14 08 20 .02     -97    -68    -17    119    121 234.9  -8.2  34016  287.15 0862.10
2015 04 09 14 08 20 .27     -95    -95     -5    135    136 225.0  -2.2  34030  287.37 0862.10
2015 04 09 14 08 20 .52    -113    -76     -5    137    138 235.9  -2.2  34000  286.88 0862.10
2015 04 09 14 08 20 .77    -102    -81     -2    131    132 231.4  -1.3  33996  286.81 0862.10
2015 04 09 14 08 21 .02    -113    -72     -7    135    136 237.5  -3.2  33998  286.83 0862.10
2015 04 09 14 08 21 .27    -107    -50     -6    119    120 244.7  -3.2  34000  286.88 0862.10
2015 04 09 14 08 21 .52    -104    -65    -12    123    124 238.0  -5.6  33998  286.83 0862.10
2015 04 09 14 08 21 .77     -99    -63     -7    118    119 237.5  -3.7  33998  286.83 0862.10
2015 04 09 14 08 22 .02    -106    -45    -10    116    117 246.9  -5.2  33998  286.84 0862.10
2015 04 09 14 08 22 .27    -110    -46    -15    120    121 247.4  -7.2  33998  286.84 0862.10
2015 04 09 14 08 22 .52    -110    -41    -16    118    120 249.6  -7.7  33998  286.83 0862.10
2015 04 09 14 08 22 .77    -108    -24    -16    111    113 257.2  -8.2  34000  286.88 0862.10
2015 04 09 14 08 23 .02    -109    -17    -16    111    113 261.2  -8.2  33998  286.83 0862.10
2015 04 09 14 08 23 .27     -99    -17    -20    101    104 260.3 -11.5  33996  286.81 0862.10
2015 04 09 14 08 23 .53    -104    -48    -14    115    116 245.2  -7.2  33994  286.78 0862.10
2015 04 09 14 08 23 .78    -102    -38    -17    109    111 249.6  -8.8  33994  286.78 0862.10
2015 04 09 14 08 24 .03    -107    -52    -18    120    122 243.8  -8.8  33994  286.78 0862.10
2015 04 09 14 08 24 .28     -93    -30     -6     98     99 251.8  -3.7  33998  286.83 0862.10
2015 04 09 14 08 24 .54     -91    -38     -9     99    100 247.4  -5.2  34008  287.01 0862.10
2015 04 09 14 08 24 .78     -94    -31    -16    100    102 251.4  -9.3  33998  286.83 0862.10
2015 04 09 14 08 25 .03     -84    -26    -21     88     91 252.7 -13.9  33998  286.83 0862.10
2015 04 09 14 08 25 .28     -69    -17    -20     72     75 255.8 -15.5  33998  286.83 0862.10
2015 04 09 14 08 25 .53     -70    -28    -18     76     79 248.3 -13.4  33998  286.84 0862.10
2015 04 09 14 08 25 .78     -65    -24    -21     70     73 249.2 -21.7  34000  286.88 0862.09
2015 04 09 14 08 26 .03     -62    -16    -21     65     68 254.9 -23.8  34000  286.88 0862.09
2015 04 09 14 08 26 .29     -66    -22    -19     70     73 251.4 -15.4  33996  286.79 0862.09
2015 04 09 14 08 26 .54     -66    -22    -19     70     73 251.4 -15.4  33996  286.79 0862.09
2015 04 09 14 08 26 .79     -74    -34    -22     82     85 244.8 -15.0  33998  286.83 0862.09
2015 04 09 14 08 27 .05     -73    -24    -26     77     82 251.6 -19.1  33998  286.83 0862.09
2015 04 09 14 08 27 .29     -71    -33    -17     79     81 244.7 -12.4  33998  286.83 0862.09
2015 04 09 14 08 27 .55     -60    -38    -28     72     77 237.5 -26.4  33998  286.84 0862.10
2015 04 09 14 08 27 .79     -65    -25    -34     70     77 248.3 -31.7  33994  286.78 0862.10
2015 04 09 14 08 28 .04     -62    -21    -32     66     73 250.9 -31.7  33992  286.74 0862.10
2015 04 09 14 08 28 .30     -67    -22    -30     71     77 251.4 -27.5  33994  286.78 0862.10
2015 04 09 14 08 28 .55     -69    -32    -23     77     80 244.8 -21.2  33996  286.79 0862.10
2015 04 09 14 08 28 .80     -61    -26    -23     67     70 246.5 -23.3  34000  286.86 0862.10
2015 04 09 14 08 29 .05     -52    -27    -27     59     64 242.0 -31.5  33996  286.79 0862.10
2015 04 09 14 08 29 .30     -42    -33    -25     54     59 232.2 -30.6  33994  286.76 0862.10
2015 04 09 14 08 29 .55     -49    -27    -17     56     58 241.1 -23.8  33998  286.83 0862.10
2015 04 09 14 08 29 .80     -48    -21    -14     53     56 245.6 -15.5  33994  286.76 0862.10
2015 04 09 14 08 30 .05     -52    -19    -16     56     58 249.2 -22.8  33994  286.76 0862.10
2015 04 09 14 08 30 .30     -59    -16    -17     62     65 254.9 -15.5  33992  286.74 0862.09
2015 04 09 14 08 30 .55     -67    -13    -10     69     70 258.6  -8.2  33994  286.76 0862.09
2015 04 09 14 08 30 .80     -84    -26    -12     89     90 252.7  -8.2  33992  286.74 0862.09
2015 04 09 14 08 31 .05     -78    -24    -25     82     86 252.3 -17.0  33996  286.79 0862.09
2015 04 09 14 08 31 .30     -67    -13    -29     69     74 258.5 -28.5  33994  286.76 0862.09
2015 04 09 14 08 31 .55     -59     -7    -23     60     64 263.0 -25.4  33996  286.79 0862.09
2015 04 09 14 08 31 .80     -59     -7    -23     60     64 263.0 -25.4  33992  286.74 0862.09
2015 04 09 14 08 32 .05     -59      0    -18     60     63 269.1 -16.6  33992  286.74 0862.09
2015 04 09 14 08 32 .31     -61      0    -22     62     66 270.8 -19.6  33994  286.78 0862.09
2015 04 09 14 08 32 .56     -55      4    -20     56     60 274.4 -19.7  33994  286.78 0862.09
2015 04 09 14 08 32 .81     -67      0    -18     68     71 270.8 -15.5  33992  286.74 0862.09
2015 04 09 14 08 33 .07     -63      4    -23     64     69 274.3 -19.7  33992  286.74 0862.09
2015 04 09 14 08 33 .32     -63      4    -27     64     69 274.4 -27.5  33992  286.74 0862.09
2015 04 09 14 08 33 .57     -63     12    -27     65     70 281.4 -28.5  33992  286.74 0862.09
2015 04 09 14 08 33 .82     -79     -6     -5     80     81 265.7  -4.1  33990  286.71 0862.10
2015 04 09 14 08 34 .07     -95    -25     -9     99    100 254.9  -5.2  33992  286.74 0862.10
2015 04 09 14 08 34 .32     -79    -38    -10     88     89 244.2  -6.7  33996  286.79 0862.10
2015 04 09 14 08 34 .57     -79    -38     -3     88     89 244.2  -2.2  33994  286.78 0862.10
2015 04 09 14 08 34 .82     -71    -47    -19     86     89 236.7 -12.9  33996  286.79 0862.10
2015 04 09 14 08 35 .07     -70    -38     -5     80     81 241.1  -4.1  33994  286.78 0862.10
2015 04 09 14 08 35 .32     -63    -38     -9     74     75 238.5  -7.2  33996  286.79 0862.10
2015 04 09 14 08 35 .57     -60    -46     -9     76     77 232.2  -7.2  33996  286.79 0862.10
2015 04 09 14 08 35 .83     -70    -38     -5     80     81 241.1  -4.1  33998  286.83 0862.10
2015 04 09 14 08 36 .07     -79    -38    -10     88     89 244.2  -6.7  33996  286.79 0862.10
2015 04 09 14 08 36 .33     -73    -31    -14     80     82 246.5 -10.3  34000  286.86 0862.10
2015 04 09 14 08 36 .58     -64    -25    -11     69     70 248.3  -9.3  33998  286.83 0862.09
2015 04 09 14 08 36 .83     -58    -27    -18     65     68 244.6 -15.5  33996  286.79 0862.09
2015 04 09 14 08 37 .08     -70    -23    -13     74     76 251.8 -10.3  33996  286.79 0862.09
2015 04 09 14 08 37 .33     -63    -30     -9     70     71 244.6  -7.3  33998  286.84 0862.09
2015 04 09 14 08 37 .58     -40    -36     -3     55     56 227.8  -3.1  34002  286.89 0862.09
2015 04 09 14 08 37 .83     -40    -38    -15     56     59 225.9 -15.5  34000  286.88 0862.09
2015 04 09 14 08 38 .08     -36    -36    -14     52     54 225.1 -15.4  33998  286.84 0862.09
2015 04 09 14 08 38 .33     -40    -25    -15     48     51 237.6 -17.6  34000  286.88 0862.10
2015 04 09 14 08 38 .58     -39    -22    -16     46     48 240.2 -23.3  34004  286.93 0862.10
2015 04 09 14 08 38 .83     -49     -8    -14     50     51 260.3 -20.7  33998  286.84 0862.10
2015 04 09 14 08 39 .08     -47    -13    -19     49     52 254.1 -26.4  34002  286.89 0862.10
2015 04 09 14 08 39 .33     -44    -12    -14     46     49 254.1 -16.6  34000  286.88 0862.10
2015 04 09 14 08 39 .58     -37    -12    -11     39     41 251.8 -16.6  34002  286.89 0862.10
2015 04 09 14 08 39 .83     -38    -28     -5     48     49 233.1  -6.2  33998  286.83 0862.10
2015 04 09 14 08 40 .09     -39    -17    -15     43     46 246.5 -19.7  34000  286.88 0862.10
2015 04 09 14 08 40 .34     -32      0     -9     33     35 270.9 -15.5  33998  286.83 0862.09
2015 04 09 14 08 40 .60     -29     -3     -8     30     32 263.9 -15.4  34000  286.86 0862.09
2015 04 09 14 08 40 .85     -37     -2     -4     38     39 265.6  -7.3  33998  286.83 0862.09
2015 04 09 14 08 41 .09     -46    -13     -1     48     49 254.1  -2.2  34000  286.88 0862.09
2015 04 09 14 08 41 .35     -44    -17      2     48     49 249.2   2.8  34018  287.16 0862.09
2015 04 09 14 08 41 .60     -43      0      2     44     45 269.2   2.8  34028  287.33 0862.09
2015 04 09 14 08 41 .85     -22     -3      2     23     24 260.3   4.9  34034  287.43 0862.09
2015 04 09 14 08 42 .10     -15     -1      9     16     18 265.7  31.4  34042  287.57 0862.09
2015 04 09 14 08 42 .35     -11     -8      8     14     16 234.0  35.5  34044  287.60 0862.09
2015 04 09 14 08 42 .60      -7      0     12      8     14 265.6  60.5  34066  287.98 0862.09
2015 04 09 14 08 42 .85     -12      4      8     13     15 288.2  35.5  34056  287.81 0862.09
2015 04 09 14 08 43 .10      -8      1      9      9     12 281.5  50.1  34054  287.77 0862.09
2015 04 09 14 08 43 .35     -11      5      7     13     14 295.3  35.5  34072  288.08 0862.09
2015 04 09 14 08 43 .60     -13      1     12     14     18 277.9  52.0  34078  288.20 0862.09
2015 04 09 14 08 43 .85      -9      0     16     10     18 270.8  64.7  34056  287.81 0862.10
2015 04 09 14 08 44 .10      -1      8     11      9     14 350.3  52.2  34046  287.64 0862.10
2015 04 09 14 08 44 .36      -5      8     14     10     17 327.5  60.5  34042  287.57 0862.10
2015 04 09 14 08 44 .60       1     18      9     19     21   4.5  27.2  34048  287.67 0862.10
2015 04 09 14 08 44 .86       5     18      7     19     20  18.3  21.0  34040  287.54 0862.10
2015 04 09 14 08 45 .10       4     19     10     20     22  11.6  29.3  34044  287.60 0862.10
2015 04 09 14 08 45 .36       1      8      9      9     12  11.6  50.1  34038  287.52 0862.10
2015 04 09 14 08 45 .60       2      6      2      7      8  18.5  19.2  34028  287.33 0862.10
2015 04 09 14 08 45 .86       2      8      2      9     10  15.1  15.3  34014  287.11 0862.10
2015 04 09 14 08 46 .11      -4      8     -5     10     11 331.0 -31.6  34034  287.43 0862.10
2015 04 09 14 08 46 .36       0     18    -14     19     23 357.3 -46.1  34028  287.33 0862.10
2015 04 09 14 08 46 .61       2     17    -23     18     29   8.0 -60.8  34018  287.18 0862.09
2015 04 09 14 08 46 .88       8     25    -18     27     32  18.7 -40.0  34008  287.01 0862.09
2015 04 09 14 08 47 .12      14     30    -12     34     36  25.4 -23.3  34004  286.93 0862.09
2015 04 09 14 08 47 .37      19     17      9     26     28  48.7  19.4  33996  286.79 0862.09
2015 04 09 14 08 47 .63      18     36      3     41     42  27.2   4.9  34010  287.03 0862.09
2015 04 09 14 08 47 .88      25     33     -1     42     43  37.8  -2.2  34066  287.98 0862.09
2015 04 09 14 08 48 .13      15     33     10     37     39  25.5  15.3  34168  289.70 0862.09
2015 04 09 14 08 48 .37      16     34     16     38     41  25.4  24.1  34134  289.14 0862.09
2015 04 09 14 08 48 .63      19     38     32     43     53  27.2  40.7  34120  288.91 0862.09
2015 04 09 14 08 48 .88      21     41     27     47     54  27.2  33.5  34098  288.53 0862.09
2015 04 09 14 08 49 .12      15     30     27     34     43  27.2  42.7  34108  288.69 0862.09
2015 04 09 14 08 49 .37      10     25     24     27     36  21.8  45.8  34098  288.52 0862.09
2015 04 09 14 08 49 .62      16     16     30     24     38  45.0  56.4  34110  288.72 0862.09
2015 04 09 14 08 49 .87       9     21     23     24     33  23.6  52.0  34082  288.26 0862.09
2015 04 09 14 08 50 .13      14     26     17     30     34  29.0  31.4  34074  288.13 0862.08
2015 04 09 14 08 50 .38      16     34     16     38     41  25.4  24.1  34066  287.98 0862.08
2015 04 09 14 08 50 .64      12     30     22     33     39  21.8  36.5  34110  288.72 0862.08
2015 04 09 14 08 50 .88      32     11     32     35     47  70.0  47.9  34124  288.96 0862.08
2015 04 09 14 08 51 .13      41      5     34     42     54  82.1  43.7  34166  289.69 0862.08
2015 04 09 14 08 51 .38      61     12     25     63     67  78.5  23.0  34164  289.63 0862.08
2015 04 09 14 08 51 .63      56     19     23     60     64  71.4  21.0  34136  289.18 0862.08
2015 04 09 14 08 51 .89      57     10     23     58     62  79.4  23.0  34146  289.33 0862.08
2015 04 09 14 08 52 .14      62      0     21     63     67  90.8  18.9  34180  289.92 0862.08
2015 04 09 14 08 52 .38      54      0     34     55     64  90.0  35.5  34168  289.72 0862.08
2015 04 09 14 08 52 .63      50     14     23     52     56  74.1  25.1  34098  288.52 0862.08
2015 04 09 14 08 52 .89      49     13      8     51     52  74.9   9.0  34086  288.31 0862.08
2015 04 09 14 08 53 .13      50      0     -4     51     52  90.0  -5.2  34042  287.57 0862.08
2015 04 09 14 08 53 .38      38      0     -2     39     40  89.2  -3.1  34022  287.23 0862.08
2015 04 09 14 08 53 .63      42      5    -12     43     44  83.0 -20.7  33988  286.66 0862.08
2015 04 09 14 08 53 .90      47     16    -15     50     53  70.9 -16.6  33994  286.78 0862.08
2015 04 09 14 08 54 .16      50      3    -14     51     53  85.6 -15.4  34040  287.54 0862.08
2015 04 09 14 08 54 .39      49      9     -1     50     51  78.5  -2.2  34066  287.99 0862.08
2015 04 09 14 08 54 .65      53     21     -2     58     59  68.3  -2.2  34006  286.98 0862.08
2015 04 09 14 08 54 .90      69     23     -9     73     74  71.6  -7.2  34008  287.00 0862.08
2015 04 09 14 08 55 .15      75     25     -8     80     81  71.6  -6.2  34004  286.94 0862.08
2015 04 09 14 08 55 .40      59     29     -3     66     67  63.8  -3.1  33998  286.84 0862.08
2015 04 09 14 08 55 .65      43     16      1     47     48  69.2   1.8  33996  286.81 0862.08
2015 04 09 14 08 55 .91      50     22     18     55     58  65.6  18.4  34046  287.65 0862.08
2015 04 09 14 08 56 .15      49     20     16     54     57  67.4  17.3  34034  287.43 0862.08
2015 04 09 14 08 56 .40      49     21      7     54     55  66.5   8.0  33992  286.73 0862.08
2015 04 09 14 08 56 .65      56     24     16     62     65  66.5  14.3  33994  286.76 0862.08
2015 04 09 14 08 56 .90      58     28      9     65     66  63.8   8.0  33994  286.76 0862.08
2015 04 09 14 08 57 .15      48     29     10     57     58  58.5  10.1  33994  286.78 0862.08
2015 04 09 14 08 57 .40      44     34     15     56     59  52.2  15.3  33996  286.79 0862.08
2015 04 09 14 08 57 .65      54     51     26     75     80  46.9  19.2  34002  286.91 0862.08
2015 04 09 14 08 57 .90      60     46     32     76     82  52.2  24.1  34000  286.88 0862.08
2015 04 09 14 08 58 .16      62     42     41     75     85  55.8  31.4  34000  286.88 0862.08
2015 04 09 14 08 58 .41      51     38     42     64     76  53.1  35.6  34006  286.96 0862.08
2015 04 09 14 08 58 .66      55     22     -7     60     61  68.3  -7.3  34008  287.01 0862.08
2015 04 09 14 08 58 .91      56    -33    -14     66     68 120.7 -12.4  34002  286.91 0862.08
2015 04 09 14 08 59 .16      49    -16      0     52     53 108.2  -0.3  34002  286.91 0862.08
2015 04 09 14 08 59 .41      41    -22     18     47     50 118.0  21.0  34004  286.93 0862.08
2015 04 09 14 08 59 .66      36     -8      8     37     39 103.3  13.2  34008  287.00 0862.08
2015 04 09 14 08 59 .91      41     14    -19     44     47  71.4 -28.5  34006  286.96 0862.08
2015 04 09 14 09 00 .16      58     27    -20     65     68  64.6 -22.8  34002  286.91 0862.08
2015 04 09 14 09 00 .41      47     40     -8     63     64  49.6  -7.2  34002  286.89 0862.08
2015 04 09 14 09 00 .66      34     34    -18     49     52  45.0 -24.4  34002  286.91 0862.08
2015 04 09 14 09 00 .93      34     34    -25     49     55  45.0 -33.7  34004  286.93 0862.08
2015 04 09 14 09 01 .17      31     30    -28     44     52  46.0 -39.9  34008  287.01 0862.08
2015 04 09 14 09 01 .43      16     16    -37     24     44  45.0 -68.0  34012  287.06 0862.08
2015 04 09 14 09 01 .67      25     17    -48     31     57  55.8 -69.0  34018  287.18 0862.08
2015 04 09 14 09 01 .92      12     37    -32     40     51  18.3 -48.1  34012  287.06 0862.08
2015 04 09 14 09 02 .18      15     46    -45     49     66  18.7 -52.3  34012  287.06 0862.08
2015 04 09 14 09 02 .42      16     50    -57     53     77  18.5 -56.5  34010  287.03 0862.08
2015 04 09 14 09 02 .68      30     50    -49     59     76  31.6 -48.2  34004  286.94 0862.08
2015 04 09 14 09 02 .93      37     61    -24     72     77  31.6 -18.7  34000  286.88 0862.08
2015 04 09 14 09 03 .18      52     70      0     88     89  37.0  -0.3  33992  286.74 0862.08
2015 04 09 14 09 03 .43      65     67     11     94     95  44.1   6.9  33990  286.71 0862.08
2015 04 09 14 09 03 .68      62     78      1    100    101  38.7   0.8  33994  286.78 0862.08
2015 04 09 14 09 03 .93      71     56    -21     91     94  51.4 -13.4  33994  286.78 0862.08
2015 04 09 14 09 04 .18      70     48    -14     86     88  55.4  -9.3  33992  286.74 0862.08
2015 04 09 14 09 04 .43      71     56    -21     91     94  51.4 -13.4  33994  286.78 0862.08
2015 04 09 14 09 04 .68      66     56    -19     87     90  49.6 -12.4  33992  286.74 0862.08
2015 04 09 14 09 04 .93      60     50    -15     79     81  50.5 -11.3  33994  286.78 0862.08
2015 04 09 14 09 05 .18      65     41    -20     77     80  57.6 -14.5  33992  286.74 0862.08
2015 04 09 14 09 05 .43      68     43    -24     81     85  57.1 -17.0  33992  286.74 0862.08
2015 04 09 14 09 05 .68      67     45    -15     81     83  55.8 -10.9  33994  286.76 0862.08
2015 04 09 14 09 05 .93      75     41    -10     86     87  61.1  -6.7  33992  286.74 0862.08
2015 04 09 14 09 06 .18      70     33    -14     78     80  64.8 -10.3  33992  286.74 0862.08
2015 04 09 14 09 06 .43      77     36     -6     86     87  64.7  -4.6  33990  286.71 0862.08
2015 04 09 14 09 06 .68      82     36     -3     90     91  66.0  -2.2  33990  286.71 0862.08
2015 04 09 14 09 06 .93      79     25     -3     83     84  72.3  -2.6  33990  286.69 0862.08
2015 04 09 14 09 07 .19      79     25     -3     83     84  72.3  -2.6  33990  286.69 0862.08
2015 04 09 14 09 07 .44      79     26     16     84     86  71.8  11.1  33992  286.73 0862.08
2015 04 09 14 09 07 .69      70     40      8     81     82  59.8   5.9  33994  286.78 0862.08
2015 04 09 14 09 07 .95      75     41     -3     86     87  61.1  -2.2  33994  286.78 0862.08
2015 04 09 14 09 08 .20      71     48     15     87     89  55.8  10.1  33996  286.79 0862.08
2015 04 09 14 09 08 .45      84     63      5    105    106  53.1   2.8  34022  287.23 0862.08
2015 04 09 14 09 08 .70      87     71      7    113    114  50.5   3.8  34006  286.96 0862.08
2015 04 09 14 09 08 .95      83     48      7     97     98  59.8   4.4  33994  286.78 0862.08
2015 04 09 14 09 09 .20      89     41      4     99    100  65.2   2.3  34002  286.91 0862.08
2015 04 09 14 09 09 .46      88     48    -16    101    103  61.2  -9.3  34016  287.15 0862.08
2015 04 09 14 09 09 .70      76     60     26     98    102  51.8  15.3  34014  287.10 0862.08
2015 04 09 14 09 09 .95      67     36     27     77     82  62.0  19.4  34004  286.93 0862.08
2015 04 09 14 09 10 .21      67     37     27     77     82  61.2  19.4  34010  287.03 0862.08
2015 04 09 14 09 10 .46      62     31     27     70     75  62.9  21.0  34044  287.62 0862.08
2015 04 09 14 09 10 .71      72     19     50     75     90  75.0  36.5  34074  288.11 0862.08
2015 04 09 14 09 10 .96      53     17     59     56     81  71.4  51.6  34118  288.86 0862.08
2015 04 09 14 09 11 .20      58     19     50     62     79  71.8  43.3  34088  288.36 0862.07
2015 04 09 14 09 11 .46      63     25     48     68     83  68.2  39.1  34068  288.03 0862.07
2015 04 09 14 09 11 .71      76     36     29     85     91  64.2  19.2  34022  287.23 0862.07
2015 04 09 14 09 11 .96      82     32     30     89     95  68.7  18.9  34018  287.16 0862.07
2015 04 09 14 09 12 .20      82     33     23     89     92  67.8  14.7  33998  286.83 0862.07
2015 04 09 14 09 12 .46      87     29     25     92     96  71.4  15.3  33996  286.79 0862.07
2015 04 09 14 09 12 .71      79     26     25     84     88  71.8  16.8  33996  286.81 0862.07
2015 04 09 14 09 12 .96      81     32     31     88     94  68.3  19.4  33998  286.84 0862.07
2015 04 09 14 09 13 .22      89     21     22     92     95  76.7  13.7  34004  286.93 0862.07
2015 04 09 14 09 13 .46      91     26     34     95    100  74.1  20.0  34072  288.08 0862.07
2015 04 09 14 09 13 .72      93     22     36     96    102  76.3  21.5  34014  287.10 0862.07
2015 04 09 14 09 13 .96      93     30     43     98    107  71.6  24.6  34022  287.23 0862.07
2015 04 09 14 09 14 .22     101     40     35    109    115  68.3  17.9  34006  286.96 0862.07
2015 04 09 14 09 14 .47     105     31     21    110    113  73.6  11.0  34006  286.98 0862.07
2015 04 09 14 09 14 .71      92     32     25     98    102  70.9  14.3  34008  287.01 0862.07
2015 04 09 14 09 14 .98     101     16     -1    103    104  80.8  -0.7  34006  286.96 0862.07
2015 04 09 14 09 15 .23     107     21    -14    110    111  78.5  -7.3  34034  287.43 0862.07
2015 04 09 14 09 15 .48      78     45     13     91     93  60.2   8.5  34044  287.62 0862.07
2015 04 09 14 09 15 .73      56     33     22     66     70  59.3  18.9  34056  287.82 0862.07
2015 04 09 14 09 15 .98      74     29     58     80     98  68.3  39.7  34102  288.58 0862.07
2015 04 09 14 09 16 .22      86     17     49     88    100  78.5  31.4  34048  287.67 0862.07
2015 04 09 14 09 16 .48      65    -13      9     67     68 101.5   8.0  34052  287.76 0862.07
2015 04 09 14 09 16 .73      65     -4     22     66     70  93.5  18.9  34044  287.60 0862.07
2015 04 09 14 09 16 .98      90      9      4     91     92  83.9   2.8  34012  287.06 0862.07
2015 04 09 14 09 17 .23     114     12    -11    115    116  83.9  -5.6  34010  287.03 0862.07
2015 04 09 14 09 17 .48     114      0     -5    115    116  90.0  -2.6  34008  287.01 0862.07
2015 04 09 14 09 17 .73     100      0     -4    101    102  90.0  -2.6  34008  287.01 0862.07
2015 04 09 14 09 17 .98     100      0     -4    101    102  90.0  -2.6  34008  287.01 0862.07
2015 04 09 14 09 18 .23     102      1     -4    103    104  89.1  -2.2  34006  286.98 0862.07
2015 04 09 14 09 18 .48     102      1     -4    103    104  89.1  -2.2  34006  286.98 0862.06
2015 04 09 14 09 18 .73      88     12    -21     89     92  81.6 -13.4  34004  286.94 0862.06
2015 04 09 14 09 18 .98      84      0     -6     85     86  89.6  -4.1  34006  286.98 0862.06
2015 04 09 14 09 19 .23      92      6    -21     93     96  86.1 -12.9  34004  286.93 0862.06
2015 04 09 14 09 19 .48      81      1    -11     82     83  89.2  -8.2  34004  286.93 0862.06
2015 04 09 14 09 19 .74     102     13    -19    103    105  82.5 -10.9  34006  286.96 0862.06
2015 04 09 14 09 19 .99      89     25    -25     93     97  74.1 -15.0  34002  286.91 0862.06
2015 04 09 14 09 20 .24      77     21    -22     80     84  74.5 -15.5  34004  286.93 0862.06
2015 04 09 14 09 20 .48      72     34    -30     80     85  64.8 -25.9  34004  286.93 0862.06
2015 04 09 14 09 20 .74      86     36    -26     94     98  67.4 -15.5  34004  286.93 0862.06
2015 04 09 14 09 20 .99      77     36    -30     86     91  64.7 -23.8  34004  286.93 0862.06
2015 04 09 14 09 21 .24      82     36    -32     90     95  66.0 -23.8  34006  286.96 0862.06
2015 04 09 14 09 21 .49      77     36    -30     86     91  64.7 -23.8  34004  286.93 0862.06
2015 04 09 14 09 21 .75      76     33    -32     83     88  66.5 -25.9  34008  287.01 0862.06
2015 04 09 14 09 22 .00      57     34    -23     67     70  59.3 -23.3  34014  287.11 0862.06
2015 04 09 14 09 22 .26      65     55      5     86     87  49.6   3.8  34030  287.37 0862.06
2015 04 09 14 09 22 .50      63     59     19     87     90  46.9  12.6  34036  287.49 0862.06
2015 04 09 14 09 22 .75      84     61     11    105    106  54.0   6.5  34026  287.30 0862.06
2015 04 09 14 09 23 .00      70     35    -26     79     84  62.9 -18.7  34028  287.35 0862.06
2015 04 09 14 09 23 .25      68     37    -25     78     81  61.2 -22.8  34014  287.10 0862.06
2015 04 09 14 09 23 .51      74     41    -16     85     87  61.1 -10.9  34020  287.20 0862.06
2015 04 09 14 09 23 .76      52     40      3     66     67  52.2   2.8  34064  287.94 0862.06
2015 04 09 14 09 24 .01      59     46     10     75     76  52.2   8.0  34046  287.64 0862.06
2015 04 09 14 09 24 .26      54     55      5     78     79  44.2   3.8  34046  287.64 0862.06
2015 04 09 14 09 24 .50      50     48      4     70     71  45.9   3.8  34036  287.47 0862.06
2015 04 09 14 09 24 .76      45     58      6     74     75  37.8   4.9  34044  287.62 0862.06
2015 04 09 14 09 25 .01      41     41     11     59     61  45.0  11.0  34042  287.59 0862.06
2015 04 09 14 09 25 .26      39     17     18     43     46  66.5  23.0  34060  287.89 0862.06
2015 04 09 14 09 25 .51      67      9     32     68     75  82.1  27.2  34098  288.53 0862.06
2015 04 09 14 09 25 .76      80     15     57     82     99  79.4  38.6  34172  289.79 0862.06
2015 04 09 14 09 26 .01      70     23     54     74     91  71.4  40.1  34164  289.65 0862.06
2015 04 09 14 09 26 .26      71     24     42     76     86  70.9  31.9  34134  289.14 0862.06
2015 04 09 14 09 26 .51      74     15     58     76     95  78.6  41.7  34120  288.91 0862.06
2015 04 09 14 09 26 .76      61     12     52     63     81  78.5  43.7  34116  288.82 0862.06
2015 04 09 14 09 27 .01      49      9     54     50     73  78.5  52.1  34114  288.80 0862.06
2015 04 09 14 09 27 .26      61      0     28     62     68  89.1  26.2  34086  288.31 0862.06
2015 04 09 14 09 27 .51      58      4     18     59     62  85.6  17.3  34082  288.26 0862.06
2015 04 09 14 09 27 .76      47      8      5     48     49  79.4   6.9  34086  288.33 0862.06
2015 04 09 14 09 28 .01      47     38     20     61     65  50.5  18.4  34086  288.31 0862.06
2015 04 09 14 09 28 .27      49     42      3     65     66  49.6   2.9  34084  288.30 0862.06
2015 04 09 14 09 28 .51      46     46      3     66     67  45.0   2.8  34076  288.16 0862.06
2015 04 09 14 09 28 .78      45     50      8     68     69  42.3   6.9  34080  288.21 0862.06
2015 04 09 14 09 29 .03      58     26     30     64     70  65.6  27.2  34084  288.30 0862.06
2015 04 09 14 09 29 .27      41     41     26     59     64  45.0  24.1  34084  288.30 0862.06
2015 04 09 14 09 29 .52      32     30     19     45     48  46.9  23.0  34086  288.31 0862.06
2015 04 09 14 09 29 .78      56     24    -12     62     64  66.5 -11.3  34068  288.03 0862.06
2015 04 09 14 09 30 .03      66     25    -11     71     72  69.2  -9.3  34082  288.26 0862.06
2015 04 09 14 09 30 .29      48     31    -16     58     61  56.7 -15.5  34094  288.47 0862.06
2015 04 09 14 09 30 .53      87     31      8     93     94  70.0   5.4  34122  288.94 0862.06
2015 04 09 14 09 30 .78     100     29      8    105    106  73.6   4.9  34134  289.14 0862.06
2015 04 09 14 09 31 .03      87     41      4     97     98  64.7   2.9  34124  288.97 0862.06
2015 04 09 14 09 31 .29      70     37      4     80     81  62.0   3.3  34116  288.84 0862.06
2015 04 09 14 09 31 .53      66      5     21     67     71  85.6  17.3  34128  289.04 0862.06
2015 04 09 14 09 31 .78      90     -4      4     91     92  92.6   2.9  34112  288.77 0862.06
2015 04 09 14 09 32 .03      87     -1     -3     88     89  91.3  -2.2  34132  289.09 0862.06
2015 04 09 14 09 32 .28      66      9     -3     67     68  82.1  -3.1  34128  289.04 0862.06
2015 04 09 14 09 32 .53      64     21     -3     68     69  71.8  -3.2  34114  288.80 0862.06
2015 04 09 14 09 32 .78      68     22     -9     72     73  71.4  -7.2  34102  288.60 0862.06
2015 04 09 14 09 33 .04      67     25      3     72     73  69.2   2.8  34110  288.74 0862.06
2015 04 09 14 09 33 .29      85      1     15     86     88  88.7  10.1  34138  289.19 0862.06
2015 04 09 14 09 33 .53      96     -7     18     97     99  94.4  11.0  34138  289.21 0862.06
2015 04 09 14 09 33 .79     117     -1     28    118    122  90.8  13.7  34132  289.09 0862.07
2015 04 09 14 09 34 .04     112      6     54    113    125  86.5  27.2  34146  289.35 0862.07
2015 04 09 14 09 34 .29      96     -3     59     97    113  92.1  35.5  34142  289.28 0862.07
2015 04 09 14 09 34 .54     110     -3     36    111    117  91.7  17.9  34102  288.58 0862.07
2015 04 09 14 09 34 .79      95     -4     52     96    109  92.6  31.3  34126  288.99 0862.07
2015 04 09 14 09 35 .04      81      3     66     82    105  87.9  43.3  34150  289.41 0862.07
2015 04 09 14 09 35 .29      78     -6     49     79     92  94.4  35.5  34148  289.38 0862.07
2015 04 09 14 09 35 .54      94      9     52     95    108  84.3  30.8  34060  287.87 0862.07
2015 04 09 14 09 35 .80      84      7     40     85     93  85.2  27.1  34026  287.30 0862.07
2015 04 09 14 09 36 .06      77      1     16     78     80  89.2  12.2  34028  287.35 0862.07
2015 04 09 14 09 36 .31      78    -11      9     79     80  98.4   6.9  34040  287.55 0862.07
2015 04 09 14 09 36 .55      75      6      3     76     77  84.8   2.9  34034  287.43 0862.07
2015 04 09 14 09 36 .81      88    -13     41     90     98  98.8  26.2  34058  287.84 0862.07
2015 04 09 14 09 37 .05      84     -6     30     85     91  94.4  19.4  34048  287.67 0862.07
2015 04 09 14 09 37 .30      81    -11     38     82     90  98.4  27.1  34042  287.59 0862.07
2015 04 09 14 09 37 .56      70    -12     14     72     74  99.7  11.1  34040  287.54 0862.07
2015 04 09 14 09 37 .81      69     -4      8     70     71  93.5   6.9  34038  287.52 0862.07
2015 04 09 14 09 38 .06      65     -4     11     66     68  93.5  10.1  34036  287.49 0862.07
2015 04 09 14 09 38 .31      72      0      8     73     74  90.0   6.9  34030  287.38 0862.07
2015 04 09 14 09 38 .56      72      0      8     73     74  90.0   6.9  34030  287.38 0862.07
2015 04 09 14 09 38 .81      77     -5      6     78     79  94.4   4.9  34036  287.47 0862.07
2015 04 09 14 09 39 .06      91      0      5     92     93  90.0   3.3  34026  287.30 0862.07
2015 04 09 14 09 39 .31     100     -7     -4    101    102  94.4  -2.6  34024  287.28 0862.07
2015 04 09 14 09 39 .57      99    -15     15    101    103  98.8   8.5  34048  287.67 0862.07
2015 04 09 14 09 39 .81      90    -16     22     92     95 100.6  13.7  34060  287.89 0862.07
2015 04 09 14 09 40 .06      99     -7     15    100    102  94.4   9.0  34048  287.67 0862.07
2015 04 09 14 09 40 .31      95    -16     18     97     99  99.7  11.0  34050  287.70 0862.07
2015 04 09 14 09 40 .56      91    -11     24     92     96  97.5  14.7  34052  287.76 0862.07
2015 04 09 14 09 40 .81      80    -26     29     85     91 108.2  19.2  34052  287.74 0862.07
2015 04 09 14 09 41 .06      82    -30     28     88     93 110.4  17.9  34042  287.57 0862.06
2015 04 09 14 09 41 .31      78    -31     22     85     88 111.7  14.7  34036  287.47 0862.06
2015 04 09 14 09 41 .56      80    -27     16     85     87 108.6  11.1  34028  287.35 0862.06
2015 04 09 14 09 41 .82      80    -38      4     89     90 115.8   2.8  34034  287.43 0862.06
2015 04 09 14 09 42 .06      78    -24      6     82     83 107.7   4.4  34036  287.47 0862.06
2015 04 09 14 09 42 .32      75    -15      8     77     78 101.5   5.9  34034  287.45 0862.06
2015 04 09 14 09 42 .58      75    -20      4     78     79 105.1   3.3  34036  287.49 0862.06
2015 04 09 14 09 42 .83      70    -20      4     73     74 105.9   3.8  34038  287.52 0862.06
2015 04 09 14 09 43 .08      66    -16      3     69     70 104.2   2.9  34036  287.49 0862.06
2015 04 09 14 09 43 .33      59    -16      3     62     63 105.1   2.9  34048  287.67 0862.06
2015 04 09 14 09 43 .58      51    -12      2     53     54 104.2   2.9  34054  287.77 0862.06
2015 04 09 14 09 43 .83      37    -16      1     41     42 114.4   1.8  34058  287.86 0862.06
2015 04 09 14 09 44 .08      33     -3     -1     34     35  96.1  -2.2  34064  287.94 0862.06
2015 04 09 14 09 44 .33      41    -20      3     46     47 116.2   3.8  34058  287.84 0862.06
2015 04 09 14 09 44 .58      64    -16     14     66     68 104.2  12.2  34066  287.98 0862.06
2015 04 09 14 09 44 .84      77     -3     24     78     82  92.6  17.3  34080  288.23 0862.06
2015 04 09 14 09 45 .08      78    -11     17     79     81  98.4  12.6  34070  288.06 0862.06
2015 04 09 14 09 45 .33      83     -3     15     84     86  92.1  10.1  34056  287.81 0862.06
2015 04 09 14 09 45 .58      79     -4      9     80     81  93.5   6.5  34050  287.70 0862.05
2015 04 09 14 09 45 .83      79    -12     16     81     83  99.2  11.6  34048  287.67 0862.05
2015 04 09 14 09 46 .09      85    -11     28     86     91  97.5  17.9  34042  287.57 0862.05
2015 04 09 14 09 46 .34      87    -11     26     88     92  97.5  16.8  34054  287.79 0862.05
2015 04 09 14 09 46 .58      89     -7     39     90     98  94.8  24.6  34132  289.09 0862.05
2015 04 09 14 09 46 .84      77     -4     16     78     80  93.5  12.2  34034  287.45 0862.05
2015 04 09 14 09 47 .09      83      1     15     84     86  88.7  10.1  34030  287.38 0862.05
2015 04 09 14 09 47 .34      80     11     -3     81     82  82.1  -2.2  34024  287.28 0862.05
2015 04 09 14 09 47 .59      62      8     -2     63     64  82.0  -2.2  34016  287.15 0862.05
2015 04 09 14 09 47 .84      63      9    -18     64     66  81.2 -20.7  34008  287.01 0862.05
2015 04 09 14 09 48 .09      54      5    -15     55     58  83.9 -15.5  34010  287.05 0862.05
2015 04 09 14 09 48 .34      56      2    -14     57     59  87.4 -14.5  34008  287.01 0862.05
2015 04 09 14 09 48 .59      64      0    -13     65     67  90.8 -11.5  34024  287.27 0862.05
2015 04 09 14 09 48 .84      76      5    -14     77     79  85.7 -10.3  34014  287.11 0862.05
2015 04 09 14 09 49 .09      75     10    -15     76     78  82.1 -11.5  34004  286.93 0862.05
2015 04 09 14 09 49 .35      82      9    -20     83     86  83.4 -13.9  34002  286.91 0862.05
2015 04 09 14 09 49 .60      93      0    -13     94     95  90.0  -8.2  34018  287.16 0862.05
2015 04 09 14 09 49 .85      90     -4    -16     91     93  92.6 -10.3  34016  287.13 0862.05
2015 04 09 14 09 50 .10      87      0    -11     88     89  90.4  -7.7  34012  287.08 0862.05
2015 04 09 14 09 50 .36      97      6      4     98     99  86.1   2.8  34012  287.06 0862.05
2015 04 09 14 09 50 .60      84      0     -6     85     86  89.6  -4.1  34006  286.98 0862.05
2015 04 09 14 09 50 .85      81      1    -11     82     83  89.2  -8.2  34004  286.93 0862.05
2015 04 09 14 09 51 .11      81     -5    -11     82     83  93.5  -8.2  34000  286.88 0862.05
2015 04 09 14 09 51 .36      76     -5     -9     77     78  94.3  -7.2  34002  286.91 0862.05
2015 04 09 14 09 51 .61      67     -5    -11     68     69  94.4  -9.3  33998  286.83 0862.05
2015 04 09 14 09 51 .86      69     -9    -16     70     72  97.9 -13.4  34000  286.88 0862.05
2015 04 09 14 09 52 .11      66    -22    -19     70     73 108.6 -15.4  34002  286.89 0862.05
2015 04 09 14 09 52 .36      71    -33    -25     79     83 115.2 -17.6  34012  287.06 0862.05
2015 04 09 14 09 52 .62      61    -29    -24     68     73 115.3 -19.7  34022  287.23 0862.05
2015 04 09 14 09 52 .86      34    -33    -13     48     50 134.0 -15.4  34058  287.86 0862.05
2015 04 09 14 09 53 .11      46    -21      0     51     52 114.4   0.8  34050  287.70 0862.05
2015 04 09 14 09 53 .36      49    -16      9     52     53 108.6  10.1  34026  287.30 0862.05
2015 04 09 14 09 53 .61      59    -19      6     63     64 108.2   5.9  34026  287.32 0862.05
2015 04 09 14 09 53 .86      56    -38      2     68     69 124.2   1.8  34036  287.47 0862.05
2015 04 09 14 09 54 .11      55    -20     10     59     60 110.8  10.1  34036  287.49 0862.05
2015 04 09 14 09 54 .36      53    -26     16     60     63 116.2  15.2  34040  287.54 0862.05
2015 04 09 14 09 54 .61      49    -16     17     52     55 108.4  18.4  34040  287.54 0862.05
2015 04 09 14 09 54 .87      50    -11     18     52     56 103.3  19.4  34028  287.35 0862.05
2015 04 09 14 09 55 .12      51    -18     18     55     59 110.0  18.4  34038  287.52 0862.05
2015 04 09 14 09 55 .36      67    -22     21     71     75 108.2  16.3  34034  287.43 0862.05
2015 04 09 14 09 55 .62      72    -20     36     75     83 105.9  27.2  34038  287.50 0862.05
2015 04 09 14 09 55 .87      73     -6     51     74     89  95.2  37.6  34040  287.55 0862.05
2015 04 09 14 09 56 .12      78      6     49     79     92  85.6  35.5  34038  287.52 0862.05
2015 04 09 14 09 56 .37      93     14     42     95    103  81.2  25.1  34024  287.28 0862.05
2015 04 09 14 09 56 .63      76     10     47     77     90  82.1  35.0  34036  287.49 0862.05
2015 04 09 14 09 56 .89      74     15     45     76     88  78.6  33.5  34038  287.52 0862.05
2015 04 09 14 09 57 .13      68      5     45     69     82  85.7  36.5  34088  288.36 0862.05
2015 04 09 14 09 57 .38      58      3     43     59     73  86.5  39.7  34090  288.40 0862.05
2015 04 09 14 09 57 .63      58      9     37     59     69  80.3  35.5  34082  288.26 0862.05
2015 04 09 14 09 57 .89      67      9     38     68     77  82.1  31.4  34118  288.87 0862.05
2015 04 09 14 09 58 .13      53     -4     38     54     66  94.4  38.6  34118  288.87 0862.05
2015 04 09 14 09 58 .38      32      0     45     33     55  90.8  60.5  34110  288.74 0862.05
2015 04 09 14 09 58 .64      55     18     44     59     73  71.4  40.7  34166  289.67 0862.05
2015 04 09 14 09 58 .88      59     22     53     64     83  69.2  44.3  34158  289.53 0862.05
2015 04 09 14 09 59 .14      73     34     64     81    103  65.2  42.7  34168  289.72 0862.05
2015 04 09 14 09 59 .38      67     18     51     70     86  74.9  39.7  34122  288.94 0862.05
2015 04 09 14 09 59 .64      63     20     49     67     83  71.8  40.1  34098  288.53 0862.05
2015 04 09 14 09 59 .89      66     13     49     68     83  78.5  39.7  34140  289.23 0862.05
2015 04 09 14 10 00 .13      64      4     57     65     86  85.7  46.4  34122  288.92 0862.05
2015 04 09 14 10 00 .39      72      1     30     73     78  89.1  23.0  34050  287.70 0862.05
2015 04 09 14 10 00 .64      62      4     21     63     67  85.6  18.9  34012  287.08 0862.05
2015 04 09 14 10 00 .89      66      3     23     67     72  87.4  19.4  34010  287.03 0862.05
2015 04 09 14 10 01 .14      70      9     14     71     73  82.1  11.1  34012  287.06 0862.05
2015 04 09 14 10 01 .39      57     11     29     59     65  78.6  28.2  34012  287.06 0862.05
2015 04 09 14 10 01 .64      62     13     22     64     68  77.6  18.9  34012  287.08 0862.05
2015 04 09 14 10 01 .89      73      2     20     74     77  88.3  15.8  34022  287.23 0862.04
2015 04 09 14 10 02 .14      58      0     20     59     63  89.1  19.2  34018  287.16 0862.04
2015 04 09 14 10 02 .39      49      3     21     50     54  86.5  23.0  34028  287.33 0862.04
2015 04 09 14 10 02 .64      30      9     30     32     43  73.2  50.0  34034  287.43 0862.04
2015 04 09 14 10 02 .89      39     -7     35     40     53 100.6  45.8  34042  287.59 0862.04
2015 04 09 14 10 03 .14      34    -29     33     45     55 130.4  39.7  34050  287.70 0862.04
2015 04 09 14 10 03 .39      30    -30     23     43     48 135.0  30.3  34042  287.57 0862.04
2015 04 09 14 10 03 .66      28    -49     -2     57     58 150.1  -2.2  34028  287.35 0862.04
2015 04 09 14 10 03 .90      12    -35     18     38     42 161.3  27.2  34042  287.57 0862.04
2015 04 09 14 10 04 .16      15    -45      8     48     49 160.8  10.1  34032  287.40 0862.04
2015 04 09 14 10 04 .41       7    -35      7     36     37 168.4  11.0  34036  287.49 0862.04
2015 04 09 14 10 04 .66       6    -32     11     33     35 168.5  19.4  34050  287.70 0862.04
2015 04 09 14 10 04 .91      20    -24      5     32     33 140.4   9.0  34060  287.89 0862.04
2015 04 09 14 10 05 .16      16    -29      1     34     35 151.0   2.9  34056  287.81 0862.04
2015 04 09 14 10 05 .41      14    -22      7     27     28 147.5  15.3  34066  287.98 0862.04
2015 04 09 14 10 05 .66      12    -21     12     25     27 151.0  27.2  34064  287.96 0862.04
2015 04 09 14 10 05 .91      26    -21     31     34     46 129.5  47.9  34076  288.14 0862.04
2015 04 09 14 10 06 .16      37    -49      7     62     63 143.0   6.9  34050  287.72 0862.04
2015 04 09 14 10 06 .41      29    -45      7     54     55 147.4   8.0  34050  287.72 0862.04
2015 04 09 14 10 06 .66      36    -36     13     51     53 135.0  15.3  34048  287.67 0862.04
2015 04 09 14 10 06 .92      29    -32     15     44     47 137.7  19.4  34060  287.89 0862.04
2015 04 09 14 10 07 .16      26     -3     32     27     41  97.9  55.4  34076  288.16 0862.04
2015 04 09 14 10 07 .41      49    -19     34     53     62 111.7  35.5  34072  288.08 0862.04
2015 04 09 14 10 07 .66      79    -26     16     84     86 108.6  11.1  34042  287.57 0862.04
2015 04 09 14 10 07 .91      98    -15     24    100    103  98.8  13.7  34012  287.06 0862.04
2015 04 09 14 10 08 .17     102    -22     28    105    109 102.4  15.3  34012  287.06 0862.04
2015 04 09 14 10 08 .41      83    -14     30     85     91 100.1  19.4  34012  287.08 0862.04
2015 04 09 14 10 08 .66      86    -15     31     88     94 100.1  19.4  34012  287.06 0862.04
2015 04 09 14 10 08 .92      95    -16     18     97     99  99.7  11.0  34008  287.01 0862.04
2015 04 09 14 10 09 .16     102    -27     19    106    108 105.1  10.6  34008  287.01 0862.04
2015 04 09 14 10 09 .42     100    -20     20    103    105 101.4  11.0  34008  287.01 0862.04
2015 04 09 14 10 09 .68     111    -20      5    113    114 100.6   2.8  34022  287.25 0862.04
2015 04 09 14 10 09 .93     115    -33     -4    120    121 106.4  -2.2  34036  287.49 0862.04
2015 04 09 14 10 10 .17     122    -36      1    128    129 106.8   0.7  34042  287.57 0862.04
2015 04 09 14 10 10 .43     123    -32      9    128    129 104.6   4.4  34058  287.84 0862.04
2015 04 09 14 10 10 .69     121    -12      6    122    123  96.1   2.9  34072  288.08 0862.04
2015 04 09 14 10 10 .93     126    -38     11    132    133 106.9   4.9  34096  288.50 0862.04
2015 04 09 14 10 11 .18     131    -54     12    142    143 112.6   4.9  34090  288.40 0862.04
2015 04 09 14 10 11 .43     127    -55     15    139    140 113.6   6.5  34096  288.48 0862.04
2015 04 09 14 10 11 .69     135    -69     18    152    154 117.1   6.9  34100  288.55 0862.04
2015 04 09 14 10 11 .94     150    -71     33    167    171 115.4  11.4  34150  289.40 0862.04
2015 04 09 14 10 12 .18     130    -67     44    147    154 117.5  16.8  34196  290.18 0862.04
2015 04 09 14 10 12 .43      95    -89     50    131    140 133.1  21.5  34116  288.84 0862.04
2015 04 09 14 10 12 .69      73   -102     76    126    147 144.4  34.4  34104  288.64 0862.04
2015 04 09 14 10 12 .94     103   -106     65    149    162 135.9  24.9  34128  289.04 0862.04
2015 04 09 14 10 13 .19      88   -101     56    135    146 139.0  23.1  34066  287.98 0862.04
2015 04 09 14 10 13 .44     106    -95     33    143    147 131.8  13.1  34050  287.70 0862.04
2015 04 09 14 10 13 .69     129    -85     33    155    159 123.3  12.2  34048  287.69 0862.04
2015 04 09 14 10 13 .94     147    -72     31    164    167 116.2  10.8  34066  287.99 0862.04
2015 04 09 14 10 14 .19     135    -77     32    156    160 119.8  11.6  34064  287.96 0862.04
2015 04 09 14 10 14 .44     127    -74     17    147    149 120.2   6.9  34064  287.96 0862.04
2015 04 09 14 10 14 .69     126    -86     18    153    155 124.2   6.9  34066  287.99 0862.04
2015 04 09 14 10 14 .94     138    -79      5    160    161 119.8   2.1  34068  288.03 0862.04
2015 04 09 14 10 15 .19     150    -57      5    161    162 110.8   2.1  34064  287.94 0862.04
2015 04 09 14 10 15 .45     162    -66    -14    175    176 112.2  -4.9  34074  288.11 0862.04
2015 04 09 14 10 15 .69     151    -66     -1    165    166 113.6  -0.5  34092  288.43 0862.04
2015 04 09 14 10 15 .94     146    -48     13    154    155 108.2   5.0  34092  288.43 0862.04
2015 04 09 14 10 16 .20     122    -48     20    132    134 111.7   9.0  34066  287.99 0862.04
2015 04 09 14 10 16 .45     114    -53     13    126    127 115.2   5.9  34088  288.35 0862.04
2015 04 09 14 10 16 .70      93      0     32     94    100  90.4  18.9  34148  289.36 0862.04
2015 04 09 14 10 16 .94      96    -47     10    108    109 116.2   5.4  34180  289.92 0862.04
2015 04 09 14 10 17 .20      92    -48      5    104    105 117.5   2.9  34168  289.72 0862.04
2015 04 09 14 10 17 .47      89    -65      5    111    112 125.9   2.9  34130  289.06 0862.04
2015 04 09 14 10 17 .71      94    -36     42    101    109 111.3  23.1  34208  290.40 0862.04
2015 04 09 14 10 17 .96      94    -72     28    119    123 127.3  13.2  34170  289.75 0862.04
2015 04 09 14 10 18 .22      83    -71     23    110    113 130.4  12.2  34180  289.91 0862.04
2015 04 09 14 10 18 .46      88    -80     37    120    126 132.2  17.4  34194  290.14 0862.04
2015 04 09 14 10 18 .72      93    -94     26    133    136 135.5  11.1  34180  289.92 0862.04
2015 04 09 14 10 18 .96      91    -76     32    119    124 130.0  15.2  34202  290.30 0862.04
2015 04 09 14 10 19 .21      72    -72     29    103    108 134.9  15.8  34166  289.69 0862.04
2015 04 09 14 10 19 .46      64    -87     41    109    116 143.5  21.0  34164  289.65 0862.04
2015 04 09 14 10 19 .71      33    -88    -27     95     98 159.5 -20.7  34086  288.33 0862.04
2015 04 09 14 10 19 .96       0    -63     -8     64     65 180.9  -7.3  34078  288.18 0862.04
2015 04 09 14 10 20 .21      24    -75    -20     79     82 161.7 -14.5  34066  287.99 0862.04
2015 04 09 14 10 20 .47      22   -110    -39    113    119 168.4 -23.8  34028  287.35 0862.04
2015 04 09 14 10 20 .72     -36    -91     20     99    102 201.8  11.6  34048  287.67 0862.04
2015 04 09 14 10 20 .97     -20    -74     19     77     80 195.2  14.3  34074  288.13 0862.03
2015 04 09 14 10 21 .21      19    -74     26     77     82 165.7  18.9  34092  288.43 0862.03
2015 04 09 14 10 21 .47      38   -102      0    109    110 159.5   0.2  34098  288.53 0862.03
2015 04 09 14 10 21 .72      42    -88      5     98     99 154.5   2.9  34100  288.55 0862.03
2015 04 09 14 10 21 .97      60    -72      8     94     95 140.3   4.9  34096  288.50 0862.03
2015 04 09 14 10 22 .22      62    -58     26     85     90 133.1  17.3  34080  288.23 0862.03
2015 04 09 14 10 22 .47      50    -50     30     71     77 134.9  23.1  34084  288.30 0862.03
2015 04 09 14 10 22 .72      72    -70      5    101    102 134.0   2.9  34102  288.58 0862.04
2015 04 09 14 10 22 .97      50    -86     47    100    110 149.7  27.1  34100  288.55 0862.04
2015 04 09 14 10 23 .23      75    -94     49    121    130 141.3  23.1  34140  289.23 0862.04
2015 04 09 14 10 23 .48      65   -121     10    138    139 151.9   4.4  34134  289.13 0862.04
2015 04 09 14 10 23 .73      50   -105     36    117    123 154.6  17.3  34192  290.11 0862.04
2015 04 09 14 10 23 .97     -19    -94     11     96     97 191.6   6.9  34130  289.08 0862.04
2015 04 09 14 10 24 .23       1   -106     37    107    114 179.1  19.4  34082  288.26 0862.04
2015 04 09 14 10 24 .49     -24   -149      3    152    153 189.3   1.2  34076  288.14 0862.04
2015 04 09 14 10 24 .73     -32   -119     27    124    128 195.1  12.6  34128  289.04 0862.04
2015 04 09 14 10 24 .99     -47   -108     18    118    120 203.6   9.0  34096  288.50 0862.04
2015 04 09 14 10 25 .24     -32   -145     -3    149    150 192.5  -1.3  34044  287.60 0862.04
2015 04 09 14 10 25 .49      31   -142     20    146    148 167.5   8.0  34092  288.42 0862.05
2015 04 09 14 10 25 .74      26   -104     32    108    113 165.7  16.8  34124  288.96 0862.05
2015 04 09 14 10 25 .99     -21   -105     51    108    119 191.5  27.2  34144  289.31 0862.05
2015 04 09 14 10 26 .24     -24   -111     33    114    119 192.5  16.3  34126  288.99 0862.05
2015 04 09 14 10 26 .49       6    -95     38     96    103 176.4  23.0  34156  289.52 0862.05
2015 04 09 14 10 26 .73     -28    -78     45     84     95 200.0  30.3  34120  288.91 0862.05
2015 04 09 14 10 26 .99       2   -154     18    155    157 179.1   6.9  34092  288.43 0862.05
2015 04 09 14 10 27 .24       0    -95     26     96    100 180.0  15.3  34124  288.96 0862.04
2015 04 09 14 10 27 .49     -37   -101     69    108    128 200.5  35.5  34122  288.94 0862.04
2015 04 09 14 10 27 .74     -29   -123     67    127    143 193.4  30.3  34076  288.14 0862.04
2015 04 09 14 10 28 .00     -10   -152     50    153    162 184.0  18.1  34082  288.26 0862.04
2015 04 09 14 10 28 .24      32    -98     -5    104    105 161.7  -3.1  34106  288.67 0862.04
2015 04 09 14 10 28 .51     -19    -93     34     95    100 191.6  20.0  34104  288.62 0862.04
2015 04 09 14 10 28 .75      38    -80     27     89     94 154.6  17.3  34112  288.75 0862.04
2015 04 09 14 10 29 .00      50    -55     25     75     80 137.7  18.9  34110  288.74 0862.04
2015 04 09 14 10 29 .25      64    -46     41     80     89 126.0  28.7  34130  289.06 0862.05
2015 04 09 14 10 29 .50      71    -97      3    121    122 143.5   1.8  34114  288.79 0862.05
2015 04 09 14 10 29 .75      50   -106    -15    118    119 154.6  -7.3  34084  288.30 0862.05
2015 04 09 14 10 30 .00      43    -67    -13     80     82 147.4  -9.8  34128  289.04 0862.05
2015 04 09 14 10 30 .25      94    -52     33    108    114 118.9  17.3  34146  289.33 0862.05
2015 04 09 14 10 30 .50      36    -29     41     47     62 128.6  46.9  34156  289.50 0862.05
2015 04 09 14 10 30 .75      51    -32     39     61     72 122.5  35.6  34168  289.72 0862.05
2015 04 09 14 10 31 .00      96    -99     37    139    145 135.9  15.2  34132  289.11 0862.05
2015 04 09 14 10 31 .26      89    -95     70    131    148 136.7  30.8  34176  289.84 0862.05
2015 04 09 14 10 31 .51      88   -121     69    150    165 144.0  26.4  34190  290.08 0862.05
2015 04 09 14 10 31 .76     130   -128     48    183    190 134.4  14.7  34150  289.41 0862.05
2015 04 09 14 10 32 .01     100   -143     40    175    180 145.0  12.9  34136  289.18 0862.05
2015 04 09 14 10 32 .26     116   -151     56    191    200 142.4  16.3  34124  288.96 0862.05
2015 04 09 14 10 32 .52     112   -172     36    206    210 146.8  10.1  34144  289.31 0862.05
2015 04 09 14 10 32 .77     161   -152     50    222    228 133.3  12.9  34166  289.67 0862.05
2015 04 09 14 10 33 .01     153   -122     82    196    212 128.6  24.1  34202  290.30 0862.05
2015 04 09 14 10 33 .27     137   -122     68    184    196 131.6  21.3  34196  290.19 0862.05
2015 04 09 14 10 33 .52     105   -115     79    156    174 137.7  28.7  34234  290.82 0862.05
2015 04 09 14 10 33 .77     104   -140     65    175    186 143.3  21.5  34144  289.31 0862.05
2015 04 09 14 10 34 .02      78   -102     60    129    142 142.6  27.1  34196  290.18 0862.05
2015 04 09 14 10 34 .26      66   -110     75    129    149 148.8  33.4  34228  290.72 0862.05
2015 04 09 14 10 34 .52     101   -127     90    163    186 141.3  31.3  34234  290.84 0862.05
2015 04 09 14 10 34 .77     147   -136     80    201    216 132.7  23.0  34086  288.31 0862.05
2015 04 09 14 10 35 .02     139   -136     84    195    212 134.4  24.9  34086  288.31 0862.05
2015 04 09 14 10 35 .28     159   -126     94    203    223 128.4  27.0  34124  288.96 0862.05
2015 04 09 14 10 35 .52     105   -114     78    156    174 137.2  28.5  34142  289.26 0862.05
2015 04 09 14 10 35 .78     107    -77     86    133    158 125.9  36.0  34158  289.55 0862.05
2015 04 09 14 10 36 .02      23   -133     68    136    152 170.2  28.2  34228  290.72 0862.05
2015 04 09 14 10 36 .28      24    -99     50    102    113 166.2  27.8  34242  290.96 0862.05
2015 04 09 14 10 36 .52      -1   -101     73    102    125 180.9  39.1  34274  291.50 0862.05
2015 04 09 14 10 36 .77     -21   -105     73    108    130 191.5  37.4  34292  291.83 0862.05
2015 04 09 14 10 37 .02     -80    -97    113    126    169 219.6  46.6  34266  291.38 0862.05
2015 04 09 14 10 37 .27     -17   -162     63    163    174 186.2  21.7  34282  291.66 0862.05
2015 04 09 14 10 37 .53      71   -140     55    158    168 152.9  19.2  34284  291.69 0862.05
2015 04 09 14 10 37 .77     128   -162     50    207    214 141.7  13.7  34062  287.92 0862.05
2015 04 09 14 10 38 .03     131   -183     53    226    233 144.4  13.2  34026  287.30 0862.05
2015 04 09 14 10 38 .29     127   -180     43    221    226 144.8  11.0  34036  287.47 0862.05
2015 04 09 14 10 38 .54      98   -172     28    199    202 150.4   8.2  34124  288.96 0862.05
2015 04 09 14 10 38 .79     101   -194     28    219    221 152.4   7.5  34136  289.16 0862.05
2015 04 09 14 10 39 .04      31   -192      0    195    196 170.7   0.2  34220  290.58 0862.04
2015 04 09 14 10 39 .29      40   -197    -23    202    204 168.4  -6.7  34176  289.84 0862.04
2015 04 09 14 10 39 .54      32   -161     17    165    166 168.5   5.9  34198  290.21 0862.04
2015 04 09 14 10 39 .79       2   -187     41    188    193 179.1  12.4  34198  290.21 0862.04
2015 04 09 14 10 40 .04     -19   -197      7    198    199 185.6   2.1  34080  288.21 0862.03
2015 04 09 14 10 40 .30     -14   -189     10    190    191 184.5   3.1  34152  289.45 0862.03
2015 04 09 14 10 40 .54      28   -180     -7    183    184 171.1  -2.2  34222  290.62 0862.03
2015 04 09 14 10 40 .79      72   -178      9    193    194 157.9   2.9  34226  290.70 0862.03
2015 04 09 14 10 41 .04      79   -166      3    184    185 154.5   1.2  34238  290.89 0862.03
2015 04 09 14 10 41 .30     101   -165      7    194    195 148.4   2.1  34220  290.58 0862.03
2015 04 09 14 10 41 .54      37   -165      2    170    171 167.3   0.8  34184  289.99 0862.03
2015 04 09 14 10 41 .80      65   -173     65    186    198 159.3  19.2  34148  289.36 0862.04
2015 04 09 14 10 42 .04      36   -176     34    180    184 168.4  10.8  34176  289.85 0862.04
2015 04 09 14 10 42 .30      93   -134     56    164    174 145.3  18.9  34172  289.79 0862.04
2015 04 09 14 10 42 .54      29   -107     74    111    133 164.8  36.5  34186  290.01 0862.04
2015 04 09 14 10 42 .80     -26   -145      2    148    149 190.2   0.8  34198  290.21 0862.04
2015 04 09 14 10 43 .05      -6   -156     41    157    163 182.2  14.7  34190  290.09 0862.04
2015 04 09 14 10 43 .30      23   -180     49    182    189 172.7  15.3  34158  289.55 0862.04
2015 04 09 14 10 43 .55     -50   -189      8    196    197 195.1   2.3  34070  288.04 0862.04
2015 04 09 14 10 43 .80     -19   -113     -2    115    116 189.8  -1.2  34068  288.01 0862.04
2015 04 09 14 10 44 .05      22   -242     -9    244    245 174.7  -2.2  34034  287.44 0862.04
2015 04 09 14 10 44 .30       3   -199     -4    200    201 178.9  -1.3  34044  287.62 0862.04
2015 04 09 14 10 44 .56      33   -164     37    168    173 168.4  12.4  34096  288.50 0862.04
2015 04 09 14 10 44 .80      33   -254      3    257    258 172.4   0.8  33990  286.68 0862.04
2015 04 09 14 10 45 .05      45   -258      1    263    264 170.0   0.2  33990  286.70 0862.04
2015 04 09 14 10 45 .32      33   -253      4    256    257 172.4   1.0  34002  286.89 0862.04
2015 04 09 14 10 45 .56      22   -202     32    204    207 173.7   9.0  34052  287.74 0862.04
2015 04 09 14 10 45 .82      24   -244     -9    246    247 174.2  -2.3  34028  287.34 0862.04
2015 04 09 14 10 46 .06      36   -275     21    278    279 172.4   4.4  34028  287.34 0862.04
2015 04 09 14 10 46 .32      46   -284     -6    288    289 170.7  -1.3  34020  287.21 0862.04
2015 04 09 14 10 46 .57      64   -216     -4    226    227 163.3  -1.1  34030  287.38 0862.04
2015 04 09 14 10 46 .82     -36   -181     58    185    194 191.3  17.4  34118  288.86 0862.04
2015 04 09 14 10 47 .07      29   -208     22    211    213 172.0   6.1  34096  288.48 0862.04
2015 04 09 14 10 47 .32       7   -244      7    245    246 178.2   1.7  34112  288.76 0862.04
2015 04 09 14 10 47 .57      73   -234     -9    246    247 162.6  -2.2  34098  288.51 0862.04
2015 04 09 14 10 47 .81      57   -239     -5    246    247 166.6  -1.3  33990  286.70 0862.04
2015 04 09 14 10 48 .07      64   -258    -30    266    268 166.0  -6.5  33990  286.68 0862.04
2015 04 09 14 10 48 .32      64   -257     -3    265    266 166.0  -0.7  34044  287.61 0862.04
2015 04 09 14 10 48 .57      45   -238     -7    243    244 169.3  -1.8  34000  286.87 0862.04
2015 04 09 14 10 48 .82      62   -274     17    282    283 167.1   3.6  34046  287.63 0862.04
2015 04 09 14 10 49 .07      49   -245     25    250    252 168.7   5.9  34038  287.50 0862.04
2015 04 09 14 10 49 .32      33   -265      9    268    269 172.9   2.1  33996  286.79 0862.04
2015 04 09 14 10 49 .58       7   -232     -6    233    234 178.2  -1.6  34010  287.02 0862.04
2015 04 09 14 10 49 .83      35   -177     63    181    192 168.7  19.2  34068  288.03 0862.04
2015 04 09 14 10 50 .12      45   -214     42    219    224 168.0  11.0  34082  288.26 0862.03
2015 04 09 14 10 50 .33      88   -266    -15    281    282 161.5  -3.2  34026  287.29 0862.03
2015 04 09 14 10 50 .57      85   -263     -5    277    278 162.1  -1.1  34002  286.90 0862.03
2015 04 09 14 10 50 .83      73   -289      6    299    300 165.7   1.2  34078  288.19 0862.03
2015 04 09 14 10 51 .08      51   -246     13    252    253 168.2   3.1  34028  287.33 0862.03
2015 04 09 14 10 51 .32      53   -272     24    278    280 168.9   5.0  34006  286.95 0862.03
2015 04 09 14 10 51 .57      39   -255      2    258    259 171.3   0.5  33990  286.70 0862.03
2015 04 09 14 10 51 .82      58   -257     -9    264    265 167.1  -2.1  33990  286.70 0862.04
2015 04 09 14 10 52 .08      64   -257    -10    265    266 166.0  -2.2  34002  286.89 0862.04
2015 04 09 14 10 52 .33      52   -260     -1    266    267 168.7  -0.3  33992  286.74 0862.04
2015 04 09 14 10 52 .59      42   -246      9    250    251 170.2   2.1  33990  286.70 0862.04
2015 04 09 14 10 52 .84      70   -244     -4    255    256 163.9  -1.1  34030  287.36 0862.04
2015 04 09 14 10 53 .09      69   -232     -5    243    244 163.3  -1.3  33992  286.74 0862.04
2015 04 09 14 10 53 .34      63   -232      5    241    242 164.8   1.2  34028  287.33 0862.04
2015 04 09 14 10 53 .60      45   -224     -6    229    230 168.4  -1.6  34038  287.50 0862.04
2015 04 09 14 10 53 .84      44   -203     33    208    211 167.7   9.0  34082  288.26 0862.04
2015 04 09 14 10 54 .09      60   -254     32    262    265 166.6   7.1  34088  288.36 0862.04
2015 04 09 14 10 54 .34      24   -206     36    208    212 173.1   9.9  34100  288.57 0862.04
2015 04 09 14 10 54 .60      60   -222     32    231    234 164.8   8.0  34066  287.98 0862.04
2015 04 09 14 10 54 .84      71   -222     50    234    240 162.2  12.2  34056  287.82 0862.04
2015 04 09 14 10 55 .09      79   -234     19    248    249 161.3   4.6  33988  286.67 0862.04
2015 04 09 14 10 55 .35      79   -238     13    252    253 161.5   3.1  33988  286.67 0862.04
2015 04 09 14 10 55 .60      92   -200     -8    221    222 155.3  -2.2  34082  288.26 0862.04
2015 04 09 14 10 55 .84      91   -260     10    276    277 160.6   2.1  33990  286.70 0862.04
2015 04 09 14 10 56 .10      99   -229     -1    250    251 156.6  -0.3  34020  287.19 0862.04
2015 04 09 14 10 56 .34      83   -244      3    259    260 161.1   0.8  34004  286.94 0862.04
2015 04 09 14 10 56 .60      91   -260    -30    276    278 160.6  -6.2  33996  286.79 0862.04
2015 04 09 14 10 56 .85      33   -233     20    236    237 171.8   4.9  34084  288.27 0862.04
2015 04 09 14 10 57 .10      86   -260     -5    274    275 161.7  -1.2  33988  286.65 0862.04
2015 04 09 14 10 57 .35      77   -244      2    257    258 162.4   0.5  33988  286.65 0862.04
2015 04 09 14 10 57 .60      69   -253     12    263    264 164.6   2.8  33992  286.72 0862.04
2015 04 09 14 10 57 .85      77   -303    -26    313    315 165.7  -4.8  33996  286.79 0862.04
2015 04 09 14 10 58 .10      71   -279    -30    288    290 165.7  -6.0  33992  286.74 0862.04
2015 04 09 14 10 58 .36      51   -259    -14    265    266 168.9  -3.1  34008  287.01 0862.04
2015 04 09 14 10 58 .60      34   -283    -33    286    288 173.1  -6.7  34038  287.50 0862.04
2015 04 09 14 10 58 .85     -23   -226     18    228    229 186.0   4.6  34116  288.82 0862.04
2015 04 09 14 10 59 .11     -19   -180     32    182    185 186.2  10.1  34104  288.62 0862.04
2015 04 09 14 10 59 .37      55   -163      8    173    174 161.3   2.8  34068  288.01 0862.04
2015 04 09 14 10 59 .61      55   -217      3    224    225 165.7   0.8  34046  287.65 0862.04
2015 04 09 14 10 59 .87      53   -166     43    175    181 162.2  13.9  34074  288.13 0862.04
2015 04 09 14 11 00 .11      32   -227     11    230    231 171.9   2.8  34052  287.74 0862.04
2015 04 09 14 11 00 .37      35   -251    -13    254    255 172.0  -3.1  34080  288.22 0862.04
2015 04 09 14 11 00 .62      57   -220     24    228    230 165.5   6.1  34086  288.33 0862.04
2015 04 09 14 11 00 .87       4   -266      0    267    268 179.1   0.0  34062  287.90 0862.04
2015 04 09 14 11 01 .12      21   -281     -1    282    283 175.5  -0.3  34034  287.43 0862.04
2015 04 09 14 11 01 .37      31   -286     29    288    290 173.7   5.9  34050  287.71 0862.04
2015 04 09 14 11 01 .62      50   -255     12    260    261 168.9   2.8  34000  286.87 0862.04
2015 04 09 14 11 01 .87      49   -259    -33    264    267 169.3  -7.2  33992  286.72 0862.03
2015 04 09 14 11 02 .12      38   -246      3    250    251 171.1   0.8  33998  286.82 0862.03
2015 04 09 14 11 02 .37      35   -251      7    254    255 171.9   1.8  33994  286.75 0862.03
2015 04 09 14 11 02 .62      57   -256     -1    263    264 167.3  -0.3  33996  286.79 0862.03
2015 04 09 14 11 02 .87      76   -248     -8    260    261 162.8  -1.8  33992  286.72 0862.03
2015 04 09 14 11 03 .13      55   -251    -10    258    259 167.6  -2.2  34000  286.85 0862.03
2015 04 09 14 11 03 .37      71   -228    -16    239    240 162.6  -3.9  33994  286.75 0862.03
2015 04 09 14 11 03 .62      52   -227     -6    233    234 167.1  -1.6  33994  286.75 0862.03
2015 04 09 14 11 03 .88      57   -239    -20    246    247 166.6  -4.9  34004  286.92 0862.03
2015 04 09 14 11 04 .12      47   -231      5    236    237 168.4   1.2  33996  286.79 0862.03
2015 04 09 14 11 04 .38      52   -228     -8    234    235 167.1  -2.1  34004  286.92 0862.03
2015 04 09 14 11 04 .62      51   -242    -22    248    250 168.0  -5.2  33994  286.75 0862.03
2015 04 09 14 11 04 .88      50   -248    -36    254    257 168.4  -8.2  33998  286.82 0862.03
2015 04 09 14 11 05 .13      56   -219      8    227    228 165.5   2.1  34022  287.25 0862.03
2015 04 09 14 11 05 .38      38   -185     43    190    195 168.2  12.9  34020  287.20 0862.04
2015 04 09 14 11 05 .63      60   -211      3    220    221 164.0   1.0  33992  286.74 0862.04
2015 04 09 14 11 05 .88      70   -198    -11    211    212 160.4  -3.2  33994  286.78 0862.04
2015 04 09 14 11 06 .14      55   -206    -17    214    215 165.1  -4.6  33994  286.78 0862.04
2015 04 09 14 11 06 .39      55   -203    -20    211    213 164.8  -5.6  33998  286.83 0862.04
2015 04 09 14 11 06 .64      60   -223    -40    232    236 164.9  -9.8  33994  286.77 0862.04
2015 04 09 14 11 06 .89      67   -222    -45    233    238 163.1 -11.1  33994  286.77 0862.04
2015 04 09 14 11 07 .14      69   -210    -43    222    227 161.7 -11.1  33992  286.73 0862.04
2015 04 09 14 11 07 .39      83   -201    -28    218    220 157.5  -7.5  33994  286.76 0862.03
2015 04 09 14 11 07 .64      83   -197    -43    215    220 157.1 -11.5  33992  286.74 0862.03
2015 04 09 14 11 07 .90      80   -198    -43    214    219 157.9 -11.5  34012  287.06 0862.03
2015 04 09 14 11 08 .15      78   -196    -29    212    215 158.2  -8.0  34026  287.30 0862.03
2015 04 09 14 11 08 .39      83   -208    -37    225    229 158.2  -9.3  34032  287.42 0862.03
2015 04 09 14 11 08 .65      52   -206     -4    213    214 165.7  -1.3  34062  287.92 0862.03
2015 04 09 14 11 08 .90      76   -197      4    212    213 158.8   1.2  34052  287.76 0862.03
2015 04 09 14 11 09 .15      98   -195     18    219    220 153.3   4.9  34106  288.67 0862.04
2015 04 09 14 11 09 .40      72   -200    -11    213    214 160.0  -3.2  34112  288.75 0862.04
2015 04 09 14 11 09 .65      37   -197      9    201    202 169.3   2.8  34146  289.35 0862.04
2015 04 09 14 11 09 .90      43   -182     31    188    191 166.6   9.5  34170  289.74 0862.04
2015 04 09 14 11 10 .15      91   -246    -23    263    265 159.5  -5.1  34002  286.89 0862.04
2015 04 09 14 11 10 .41      78   -232     14    245    246 161.3   3.3  34100  288.54 0862.04
2015 04 09 14 11 10 .65      35   -226     62    229    238 171.1  15.2  34168  289.70 0862.04
2015 04 09 14 11 10 .90      72   -249     -7    260    261 163.9  -1.6  34032  287.41 0862.03
2015 04 09 14 11 11 .15      60   -240     -1    248    249 166.0  -0.3  34002  286.90 0862.03
2015 04 09 14 11 11 .41      66   -195     40    206    210 161.3  11.0  34086  288.33 0862.03
2015 04 09 14 11 11 .66      13   -180     60    181    191 175.6  18.4  34122  288.94 0862.03
2015 04 09 14 11 11 .91      79   -230     15    244    245 161.1   3.6  34054  287.77 0862.03
2015 04 09 14 11 12 .16      84   -238     12    253    254 160.4   2.8  34070  288.04 0862.03
2015 04 09 14 11 12 .41      81   -237     33    251    254 161.1   7.5  34076  288.14 0862.03
2015 04 09 14 11 12 .66      60   -187     24    197    199 162.0   7.2  34056  287.82 0862.03
2015 04 09 14 11 12 .91      81   -202     48    218    224 158.2  12.6  34044  287.62 0862.03
2015 04 09 14 11 13 .17      45   -213     18    218    219 168.0   4.9  34104  288.62 0862.03
2015 04 09 14 11 13 .42     -14   -192     30    193    196 184.4   8.9  34100  288.57 0862.03
2015 04 09 14 11 13 .67     -12   -178     49    179    186 184.0  15.3  34070  288.06 0862.03
2015 04 09 14 11 13 .92      25   -162     82    165    184 171.1  28.2  34116  288.84 0862.03
2015 04 09 14 11 14 .17      16   -177     45    178    184 174.7  14.3  34104  288.64 0862.03
2015 04 09 14 11 14 .42      17   -218     42    219    224 175.5  11.0  34098  288.53 0862.03
2015 04 09 14 11 14 .67      31   -281    -11    283    284 173.7  -2.3  34000  286.87 0862.03
2015 04 09 14 11 14 .92      45   -263     33    267    270 170.2   7.1  34114  288.80 0862.03
2015 04 09 14 11 15 .17      25   -208     42    210    215 172.9  11.4  34112  288.75 0862.03
2015 04 09 14 11 15 .42      16   -220     30    221    224 175.6   7.8  34092  288.43 0862.03
2015 04 09 14 11 15 .67      43   -256    -16    260    261 170.4  -3.7  34048  287.66 0862.03
2015 04 09 14 11 15 .93      84   -231     -2    247    248 160.0  -0.5  34038  287.51 0862.03
2015 04 09 14 11 16 .17      37   -218     10    222    223 170.4   2.8  34116  288.84 0862.03
2015 04 09 14 11 16 .42      26   -163     57    166    176 170.7  19.2  34108  288.69 0862.03
2015 04 09 14 11 16 .67     -21   -169     98    171    197 187.3  32.4  34102  288.60 0862.03
2015 04 09 14 11 16 .92      22   -202     48    204    210 173.7  13.2  34084  288.28 0862.03
2015 04 09 14 11 17 .17       0   -242    -13    243    244 179.8  -3.1  34000  286.85 0862.03
2015 04 09 14 11 17 .43      23   -264    -20    266    267 174.9  -4.4  34006  286.97 0862.03
2015 04 09 14 11 17 .68      54   -220     27    227    229 166.2   6.9  34124  288.96 0862.03
2015 04 09 14 11 17 .92      19   -243     12    244    245 175.3   2.9  34004  286.92 0862.03
2015 04 09 14 11 18 .18      11   -246    -24    247    249 177.3  -5.6  33992  286.74 0862.03
2015 04 09 14 11 18 .43     -14   -222    -28    223    225 183.6  -7.3  33994  286.76 0862.03
2015 04 09 14 11 18 .68     -14   -198    -23    199    201 184.2  -6.7  33992  286.73 0862.03
2015 04 09 14 11 18 .93     -12   -194    -10    195    196 183.6  -3.2  33994  286.78 0862.03
2015 04 09 14 11 19 .18      -2   -187      5    188    189 180.9   1.8  33992  286.74 0862.03
2015 04 09 14 11 19 .43       1   -203     15    204    205 179.5   4.4  33994  286.78 0862.03
2015 04 09 14 11 19 .69       8   -208     17    209    210 177.8   4.9  34016  287.15 0862.03
2015 04 09 14 11 19 .93       0   -210     -2    211    212 180.2  -0.7  33994  286.78 0862.03
2015 04 09 14 11 20 .19     -22   -224    -11    226    227 185.8  -2.8  34002  286.91 0862.03
2015 04 09 14 11 20 .44     -16   -215    -19    216    217 184.5  -5.1  33994  286.76 0862.03
2015 04 09 14 11 20 .69     -25   -215    -28    217    219 186.9  -7.5  33994  286.76 0862.03
2015 04 09 14 11 20 .94     -39   -211    -11    215    216 190.5  -3.1  33994  286.78 0862.03
2015 04 09 14 11 21 .20     -14   -206     -1    207    208 184.0  -0.5  34012  287.06 0862.03
2015 04 09 14 11 21 .44     -16   -210     -4    211    212 184.4  -1.1  33998  286.83 0862.03
2015 04 09 14 11 21 .69     -24   -207      6    209    210 186.9   1.8  34002  286.89 0862.03
2015 04 09 14 11 21 .94     -24   -207      6    209    210 186.9   1.8  33998  286.83 0862.03
2015 04 09 14 11 22 .19     -18   -211     -8    212    213 185.1  -2.2  33994  286.78 0862.03
2015 04 09 14 11 22 .45     -20   -202    -13    204    205 185.8  -3.9  33992  286.74 0862.03
2015 04 09 14 11 22 .70     -16   -206     -5    207    208 184.5  -1.6  33996  286.79 0862.03
2015 04 09 14 11 22 .95     -15   -198    -13    199    200 184.4  -3.9  33996  286.81 0862.03
2015 04 09 14 11 23 .20     -14   -191    -13    192    193 184.2  -4.1  33994  286.76 0862.03
2015 04 09 14 11 23 .44     -28   -197    -16    200    201 188.1  -4.6  33994  286.78 0862.04
2015 04 09 14 11 23 .70     -28   -197    -16    200    201 188.1  -4.6  33994  286.78 0862.04
2015 04 09 14 11 23 .95     -28   -197    -16    200    201 188.1  -4.6  33994  286.78 0862.04
2015 04 09 14 11 24 .20     -28   -199    -13    202    203 188.0  -3.9  33996  286.79 0862.04
2015 04 09 14 11 24 .45     -23   -187    -10    189    190 187.1  -3.1  33994  286.78 0862.04
2015 04 09 14 11 24 .70     -17   -178     -7    179    180 185.6  -2.2  33994  286.78 0862.04
2015 04 09 14 11 24 .95     -25   -184      0    186    187 188.0   0.2  33994  286.76 0862.04
2015 04 09 14 11 25 .20     -22   -190     -3    192    193 186.7  -1.2  33992  286.73 0862.04
2015 04 09 14 11 25 .45     -36   -200     -4    204    205 190.2  -1.2  33992  286.73 0862.04
2015 04 09 14 11 25 .70     -25   -192    -13    194    195 187.6  -3.9  33992  286.74 0862.04
2015 04 09 14 11 25 .95     -31   -184    -24    187    189 189.8  -7.5  33992  286.73 0862.04
2015 04 09 14 11 26 .20     -25   -178    -34    180    184 188.0 -10.9  33996  286.81 0862.04
2015 04 09 14 11 26 .46     -22   -174    -39    176    181 187.3 -12.6  33992  286.74 0862.04
2015 04 09 14 11 26 .71     -32   -176    -35    179    183 190.5 -11.1  33992  286.74 0862.04
2015 04 09 14 11 26 .97     -33   -165    -34    169    173 191.3 -11.6  33994  286.78 0862.04
2015 04 09 14 11 27 .21     -34   -165    -27    169    172 191.8  -9.3  33992  286.74 0862.04
2015 04 09 14 11 27 .47     -26   -167    -27    170    173 189.1  -9.0  33992  286.74 0862.04
2015 04 09 14 11 27 .72     -21   -174    -31    176    179 187.1 -10.1  33998  286.83 0862.04
2015 04 09 14 11 27 .97      -6   -178     -7    179    180 182.2  -2.2  33998  286.83 0862.04
2015 04 09 14 11 28 .22     -12   -182     -7    183    184 184.0  -2.2  34000  286.88 0862.04
2015 04 09 14 11 28 .47     -11   -178     10    179    180 183.6   3.3  34008  287.01 0862.04
2015 04 09 14 11 28 .72       0   -178      3    179    180 180.2   1.2  34000  286.86 0862.04
2015 04 09 14 11 28 .97     -14   -187      5    188    189 184.5   1.8  33998  286.84 0862.04
2015 04 09 14 11 29 .22      -6   -186      0    187    188 182.0  -0.3  33998  286.84 0862.04
2015 04 09 14 11 29 .48      -3   -191      3    192    193 181.0   1.0  34016  287.15 0862.04
2015 04 09 14 11 29 .72     -11   -178    -10    179    180 183.8  -3.3  34014  287.10 0862.04
2015 04 09 14 11 29 .98       4   -168     -2    169    170 178.4  -0.7  34086  288.31 0862.04
2015 04 09 14 11 30 .22     -10   -172      3    173    174 183.6   1.2  34082  288.26 0862.04
2015 04 09 14 11 30 .48      -2   -143     -3    144    145 180.9  -1.3  34084  288.30 0862.04
2015 04 09 14 11 30 .72      27   -139      8    142    143 168.9   3.3  34108  288.69 0862.04
2015 04 09 14 11 30 .97      10   -137     27    138    141 175.6  11.1  34078  288.18 0862.04
2015 04 09 14 11 31 .22       4   -166    -22    167    169 178.6  -7.7  33996  286.79 0862.04
2015 04 09 14 11 31 .48      22   -153    -38    155    160 171.5 -13.9  33996  286.81 0862.04
2015 04 09 14 11 31 .73      -1   -152    -37    153    158 180.5 -13.9  33998  286.84 0862.04
2015 04 09 14 11 31 .97     -10   -163    -23    164    166 183.8  -8.2  34042  287.57 0862.04
2015 04 09 14 11 32 .23       1   -163    -17    164    165 179.5  -6.2  34002  286.91 0862.04
2015 04 09 14 11 32 .48       6   -146    -28    147    150 177.3 -10.9  33998  286.84 0862.04
2015 04 09 14 11 32 .73      11   -155      6    156    157 175.6   2.3  34024  287.28 0862.04
2015 04 09 14 11 32 .98       0   -160     24    161    163 180.0   8.5  34016  287.13 0862.04
2015 04 09 14 11 33 .23      -1   -154     -7    155    156 180.5  -2.6  34006  286.96 0862.04
2015 04 09 14 11 33 .48      -1   -154    -13    155    156 180.5  -4.9  34006  286.98 0862.04
2015 04 09 14 11 33 .73       0   -150     -5    151    152 180.4  -2.2  34002  286.89 0862.04
2015 04 09 14 11 34 .00      22   -166      6    168    169 172.2   2.3  34080  288.23 0862.04
2015 04 09 14 11 34 .24      30   -174      2    177    178 170.0   0.8  34108  288.69 0862.04
2015 04 09 14 11 34 .50      26   -135     32    138    142 168.9  13.1  34070  288.06 0862.03
2015 04 09 14 11 34 .75      10   -107     21    108    111 174.7  11.1  34078  288.18 0862.03
2015 04 09 14 11 34 .99     -10   -139     11    140    141 184.4   4.9  34024  287.28 0862.03
2015 04 09 14 11 35 .25       2   -159      5    160    161 179.0   2.1  34020  287.21 0862.03
2015 04 09 14 11 35 .49       6   -147     17    148    150 177.3   6.9  34056  287.81 0862.03
2015 04 09 14 11 35 .74       1   -163     -4    164    165 179.5  -1.6  34002  286.91 0862.03
2015 04 09 14 11 36 .00       8   -168     -9    169    170 177.1  -3.1  33998  286.83 0862.03
2015 04 09 14 11 36 .24      15   -155     -3    156    157 174.2  -1.3  33996  286.79 0862.03
2015 04 09 14 11 36 .50      17   -161     -7    162    163 173.8  -2.6  33996  286.79 0862.03
2015 04 09 14 11 36 .75      16   -165     -9    166    167 174.2  -3.1  33998  286.83 0862.03
2015 04 09 14 11 37 .00      15   -175    -14    176    177 174.9  -4.6  34002  286.91 0862.03
2015 04 09 14 11 37 .25      14   -172    -11    173    174 175.1  -3.7  33994  286.78 0862.03
2015 04 09 14 11 37 .51      18   -181     -7    182    183 174.2  -2.2  33998  286.83 0862.03
2015 04 09 14 11 37 .75      29   -173      3    176    177 170.2   1.0  33994  286.78 0862.03
2015 04 09 14 11 38 .00      22   -168     -5    170    171 172.4  -1.8  33996  286.79 0862.03
2015 04 09 14 11 38 .26      31   -184    -24    187    189 170.2  -7.3  34002  286.91 0862.03
2015 04 09 14 11 38 .50      36   -178    -10    182    183 168.4  -3.3  34002  286.89 0862.03
2015 04 09 14 11 38 .75      38   -166     -6    171    172 166.9  -2.2  33996  286.81 0862.03
2015 04 09 14 11 39 .00      39   -156    -21    162    164 165.7  -7.7  34000  286.86 0862.03
2015 04 09 14 11 39 .25      31   -152    -22    156    158 168.4  -8.2  33996  286.81 0862.03
2015 04 09 14 11 39 .50      30   -148     -8    152    153 168.4  -3.2  33998  286.83 0862.03
2015 04 09 14 11 39 .75      17   -161     -7    162    163 173.8  -2.6  33996  286.79 0862.03
2015 04 09 14 11 40 .00       3   -150     -6    151    152 178.6  -2.6  33996  286.81 0862.03
2015 04 09 14 11 40 .26      11   -163     -2    164    165 176.0  -0.7  33998  286.83 0862.03
2015 04 09 14 11 40 .51      10   -130    -21    131    133 175.5  -9.3  33998  286.84 0862.03
2015 04 09 14 11 40 .76      15   -110    -38    112    119 172.0 -19.1  33994  286.78 0862.03
2015 04 09 14 11 41 .02       8   -108    -30    109    114 175.5 -15.5  34000  286.86 0862.03
2015 04 09 14 11 41 .27       7   -113    -25    114    117 176.4 -12.4  34000  286.86 0862.03
2015 04 09 14 11 41 .52      -2   -129    -21    130    132 180.9  -9.3  33998  286.84 0862.03
2015 04 09 14 11 41 .77      -8   -135    -13    136    137 183.6  -5.6  33998  286.83 0862.03
2015 04 09 14 11 42 .02       0   -130     -5    131    132 180.0  -2.2  34000  286.86 0862.03
2015 04 09 14 11 42 .27       5   -122     -4    123    124 177.3  -2.2  33998  286.83 0862.03
2015 04 09 14 11 42 .52      10   -107     21    108    111 174.7  11.1  33998  286.84 0862.03
2015 04 09 14 11 42 .77       7    -99     19    100    102 175.6  11.0  33998  286.84 0862.03
2015 04 09 14 11 43 .02      -3   -103     20    104    107 181.8  11.1  34000  286.88 0862.03
2015 04 09 14 11 43 .27      -6    -91     18     92     94 184.0  11.6  34008  287.01 0862.03
2015 04 09 14 11 43 .53      16    -92     -7     94     95 169.8  -4.6  34028  287.35 0862.03
2015 04 09 14 11 43 .78      13    -64      4     66     67 168.4   3.8  34074  288.13 0862.03
2015 04 09 14 11 44 .03      20    -64     12     68     70 162.2  10.1  34086  288.33 0862.03
2015 04 09 14 11 44 .27      25    -36     25     45     51 144.8  31.4  34106  288.67 0862.03
2015 04 09 14 11 44 .53      18    -49     45     53     69 160.0  43.8  34054  287.79 0862.03
2015 04 09 14 11 44 .78      26    -65     41     71     81 158.1  32.9  34064  287.94 0862.03
2015 04 09 14 11 45 .03      37    -56     23     68     73 146.6  19.2  34070  288.04 0862.03
2015 04 09 14 11 45 .27      34    -73     32     81     87 154.7  22.0  34074  288.11 0862.03
2015 04 09 14 11 45 .53      48    -83     18     97     99 149.7  10.6  34008  287.00 0862.03
2015 04 09 14 11 45 .78      49    -93      5    106    107 151.9   2.8  33998  286.84 0862.03
2015 04 09 14 11 46 .03      53    -93      1    108    109 150.1   0.8  34000  286.88 0862.03
2015 04 09 14 11 46 .28      54   -101      5    115    116 151.9   2.9  34000  286.86 0862.03
2015 04 09 14 11 46 .53      69    -98      2    120    121 144.8   1.2  34000  286.86 0862.03
2015 04 09 14 11 46 .78      66   -103      1    123    124 147.4   0.7  34000  286.88 0862.03
2015 04 09 14 11 47 .03      79    -96      6    125    126 140.8   2.8  34000  286.88 0862.03
2015 04 09 14 11 47 .28      78    -85     11    116    117 137.2   5.4  34000  286.88 0862.03
2015 04 09 14 11 47 .54      69    -81     -4    107    108 139.5  -2.2  34004  286.93 0862.03
2015 04 09 14 11 47 .79      70    -80     -4    107    108 138.6  -2.2  34014  287.10 0862.03
2015 04 09 14 11 48 .04      41    -97    -11    106    107 156.8  -6.2  34002  286.91 0862.03
2015 04 09 14 11 48 .30      49    -90      0    103    104 151.0   0.2  34020  287.21 0862.03
2015 04 09 14 11 48 .54      67    -92     39    114    121 143.9  18.9  34042  287.57 0862.03
2015 04 09 14 11 48 .80      39   -102      7    110    111 159.1   3.8  34016  287.13 0862.03
2015 04 09 14 11 49 .05      40    -80     17     90     92 153.3  11.0  34020  287.20 0862.03
2015 04 09 14 11 49 .30      29    -98      4    103    104 163.5   2.3  34022  287.23 0862.03
2015 04 09 14 11 49 .55      42    -89     -3     99    100 154.7  -2.2  34016  287.15 0862.03
2015 04 09 14 11 49 .80      36    -91     13     99    100 158.2   8.0  34026  287.32 0862.03
2015 04 09 14 11 50 .05      35   -107     22    113    116 161.7  11.1  34060  287.87 0862.03
2015 04 09 14 11 50 .30      42   -105      2    114    115 158.2   1.2  34050  287.70 0862.03
2015 04 09 14 11 50 .55      59   -123     -1    137    138 154.1  -0.7  34006  286.98 0862.03
2015 04 09 14 11 50 .80      65   -122      2    139    140 151.9   1.2  34014  287.10 0862.03
2015 04 09 14 11 51 .05      53   -136    -18    147    149 158.6  -7.2  34004  286.93 0862.03
2015 04 09 14 11 51 .30      67   -132    -29    149    152 152.9 -11.3  34010  287.05 0862.03
2015 04 09 14 11 51 .55      64   -118    -31    135    139 151.5 -13.3  34008  287.01 0862.03
2015 04 09 14 11 51 .80      36   -134     -5    139    140 164.9  -2.2  34004  286.93 0862.03
2015 04 09 14 11 52 .05      32   -119    -20    124    126 164.9  -9.4  34002  286.91 0862.03
2015 04 09 14 11 52 .30      34   -105    -14    111    112 161.7  -7.3  34006  286.96 0862.03
2015 04 09 14 11 52 .55      51    -92    -30    106    111 151.0 -16.0  34004  286.93 0862.03
2015 04 09 14 11 52 .80      70    -90    -41    115    123 142.2 -19.7  34004  286.94 0862.03
2015 04 09 14 11 53 .06      63   -120    -66    136    151 152.4 -31.7  34020  287.20 0862.03
2015 04 09 14 11 53 .31      61   -103    -57    121    133 149.3 -31.6  34020  287.20 0862.03
2015 04 09 14 11 53 .56      65    -78    -53    102    114 140.4 -34.2  34020  287.20 0862.03
2015 04 09 14 11 53 .81      17    -63    -50     66     82 164.9 -45.6  34024  287.28 0862.03
2015 04 09 14 11 54 .06      19    -56    -20     60     63 161.3 -23.6  34028  287.35 0862.03
2015 04 09 14 11 54 .31      -3    -47     -5     48     49 183.6  -6.2  34026  287.30 0862.03
2015 04 09 14 11 54 .56     -10    -42     15     44     47 193.4  18.9  34030  287.38 0862.03
2015 04 09 14 11 54 .82      14    -41     41     44     60 160.8  48.0  34032  287.40 0862.03
2015 04 09 14 11 55 .07      49    -22     53     54     75 114.4  51.1  34038  287.52 0862.03
2015 04 09 14 11 55 .33      32    -20     63     39     74 122.5  64.7  34070  288.04 0862.03
2015 04 09 14 11 55 .57      36    -35     61     51     79 134.1  55.8  34074  288.13 0862.03
2015 04 09 14 11 55 .82      28    -42     54     51     74 146.6  51.2  34076  288.16 0862.03
2015 04 09 14 11 56 .07      40    -54     51     68     85 143.0  40.7  34050  287.70 0862.03
2015 04 09 14 11 56 .33      30    -60     50     68     84 153.7  40.1  34058  287.84 0862.03
2015 04 09 14 11 56 .58      47    -50     52     69     86 136.7  40.7  34102  288.60 0862.03
2015 04 09 14 11 56 .83      49    -70     54     86    101 144.8  35.5  34146  289.33 0862.03
2015 04 09 14 11 57 .07      44    -48     41     66     77 137.7  35.5  34130  289.06 0862.03
2015 04 09 14 11 57 .32       2    -35     43     36     56 175.5  56.3  34124  288.97 0862.03
2015 04 09 14 11 57 .58     -54    -66     30     86     92 219.6  19.4  34080  288.21 0862.03
2015 04 09 14 11 57 .83     -34   -125     47    130    138 195.2  20.9  34074  288.13 0862.03
2015 04 09 14 11 58 .08     -33   -124     17    129    131 195.2   7.5  34066  287.98 0862.03
2015 04 09 14 11 58 .33     -24   -131     36    134    139 190.7  15.2  34086  288.31 0862.03
2015 04 09 14 11 58 .58       9   -117     44    118    125 175.5  21.0  34102  288.58 0862.03
2015 04 09 14 11 58 .83       0    -99     58    100    115 180.5  33.5  34112  288.75 0862.03
2015 04 09 14 11 59 .08       0   -104     54    105    118 180.0  29.2  34126  289.01 0862.02
2015 04 09 14 11 59 .33      12   -137     -5    138    139 174.7  -2.2  34064  287.94 0862.02
2015 04 09 14 11 59 .59      42    -93     -5    103    104 155.5  -3.2  34082  288.25 0862.02
2015 04 09 14 11 59 .83      52   -112     10    124    125 155.1   4.9  34120  288.91 0862.02
2015 04 09 14 12 00 .08      29    -99     41    104    111 163.5  22.5  34124  288.96 0862.02
2015 04 09 14 12 00 .33      27    -86     38     91     98 162.6  23.6  34122  288.92 0862.02
2015 04 09 14 12 00 .58      32    -80     30     87     93 158.2  19.4  34110  288.72 0862.02
2015 04 09 14 12 01 .34      75   -136    -23    156    158 151.0  -8.6  34050  287.72 0862.03
2015 04 09 14 12 01 .59      26   -123     55    126    137 168.0  25.1  34130  289.06 0862.03
2015 04 09 14 12 01 .85      80   -169     11    188    189 154.6   3.6  34028  287.35 0862.03
2015 04 09 14 12 02 .10      92   -189    -19    211    213 154.1  -5.4  34090  288.38 0862.03
2015 04 09 14 12 02 .34      45   -220     -4    225    226 168.4  -1.3  34074  288.11 0862.03
2015 04 09 14 12 02 .59      62   -231     -9    240    241 164.9  -2.2  34014  287.11 0862.03
2015 04 09 14 12 02 .85      42   -237    -28    241    243 169.8  -6.7  34008  287.01 0862.03
2015 04 09 14 12 03 .10      54   -247     -5    253    254 167.6  -1.3  33996  286.79 0862.03
2015 04 09 14 12 03 .35      50   -257     20    262    263 168.9   4.4  33996  286.79 0862.03
2015 04 09 14 12 03 .60      68   -258      8    267    268 165.1   1.8  34006  286.95 0862.03
2015 04 09 14 12 03 .85      54   -242      4    249    250 167.3   1.0  34002  286.89 0862.03
2015 04 09 14 12 04 .10      30   -238    -40    240    244 172.7  -9.6  34012  287.07 0862.03
2015 04 09 14 12 04 .35      24   -203    -31    205    208 173.1  -8.6  34010  287.05 0862.03
2015 04 09 14 12 04 .60       3   -189    -47    190    196 178.9 -13.9  34008  287.00 0862.03
2015 04 09 14 12 04 .85      12   -158    -18    159    161 175.5  -6.7  34008  287.00 0862.02
2015 04 09 14 12 05 .10       9   -127    -43    128    136 175.6 -18.7  34008  287.01 0862.02
2015 04 09 14 12 05 .35      22   -110    -59    113    127 168.4 -33.7  34014  287.11 0862.02
2015 04 09 14 12 05 .60      23   -114    -70    117    136 168.5 -38.4  34016  287.15 0862.02
2015 04 09 14 12 05 .85      11   -129    -85    130    155 175.1 -40.0  34002  286.89 0862.02
2015 04 09 14 12 06 .11      31   -136    -90    140    166 167.1 -40.1  34000  286.86 0862.02
2015 04 09 14 12 06 .36      38   -125    -83    131    155 163.0 -39.9  34006  286.98 0862.02
2015 04 09 14 12 06 .61      37   -124    -77    130    151 163.1 -37.9  34002  286.91 0862.02
2015 04 09 14 12 06 .86      49   -127    -80    137    158 158.6 -37.3  34004  286.93 0862.02
2015 04 09 14 12 07 .10      23   -114    -83    117    143 168.4 -43.5  33998  286.83 0862.02
2015 04 09 14 12 07 .39      23   -115    -97    118    152 168.4 -48.1  33998  286.83 0862.02
2015 04 09 14 12 07 .61      29   -123    -92    127    156 166.7 -43.7  33998  286.83 0862.02
2015 04 09 14 12 07 .86      24   -118    -95    121    153 168.4 -46.6  33998  286.84 0862.02
2015 04 09 14 12 08 .11      33    -95    -79    101    128 160.4 -46.6  34000  286.88 0862.02
2015 04 09 14 12 08 .36      37   -110    -65    117    133 161.3 -35.8  34020  287.20 0862.02
2015 04 09 14 12 08 .61      59   -144     -8    156    157 157.7  -3.1  34088  288.36 0862.02
2015 04 09 14 12 08 .87      79   -153    -18    173    174 152.6  -6.0  34050  287.70 0862.02
2015 04 09 14 12 09 .13      93   -127    -18    158    160 143.9  -6.5  34056  287.81 0862.02
2015 04 09 14 12 09 .38     108   -122      4    164    165 138.6   1.6  34064  287.94 0862.02
2015 04 09 14 12 09 .63     129    -97      0    162    163 126.9  -0.3  34060  287.89 0862.02
2015 04 09 14 12 09 .87     104    -67     10    125    126 122.9   4.9  34064  287.94 0862.02
2015 04 09 14 12 10 .13     100    -69     12    122    123 124.6   5.9  34058  287.86 0862.02
2015 04 09 14 12 10 .38      85    -90     54    125    136 136.7  25.1  34186  290.02 0862.03
2015 04 09 14 12 10 .62      86    -87     63    123    138 135.3  29.3  34152  289.43 0862.03
2015 04 09 14 12 10 .87      69    -68     39     98    105 134.6  23.0  34094  288.45 0862.03
2015 04 09 14 12 11 .13      69    -77     51    104    115 138.1  27.3  34104  288.62 0862.03
2015 04 09 14 12 11 .37      71    -70     52    100    112 134.6  29.3  34116  288.82 0862.03
2015 04 09 14 12 11 .63      93    -71     10    118    119 127.3   5.0  34010  287.05 0862.03
2015 04 09 14 12 11 .88     101    -73     22    125    127 125.9  10.1  34024  287.28 0862.03
2015 04 09 14 12 12 .13      95    -78     32    124    129 129.5  14.7  34004  286.93 0862.02
2015 04 09 14 12 12 .38      91    -77     27    120    124 130.0  12.6  34004  286.93 0862.02
2015 04 09 14 12 12 .63      91    -86     25    126    129 133.2  11.6  34000  286.88 0862.02
2015 04 09 14 12 12 .88      89    -89     15    127    128 135.0   7.1  34000  286.88 0862.02
2015 04 09 14 12 13 .13      90    -90     22    128    131 135.0  10.1  34002  286.89 0862.02
2015 04 09 14 12 13 .38      77    -70     40    105    112 132.2  21.5  34004  286.93 0862.02
2015 04 09 14 12 13 .63      70    -73     54    102    115 135.9  30.3  34004  286.93 0862.02
2015 04 09 14 12 13 .88      91    -75     44    118    125 129.5  21.0  34008  287.00 0862.02
2015 04 09 14 12 14 .13     106    -66     22    126    128 122.0  10.1  34008  287.00 0862.03
2015 04 09 14 12 14 .39     113    -60     -7    128    129 118.0  -3.2  34006  286.98 0862.03
2015 04 09 14 12 14 .64     116    -64      6    133    134 118.9   2.9  34012  287.06 0862.03
2015 04 09 14 12 14 .89     135    -79     -6    157    158 120.6  -2.2  34006  286.98 0862.03
2015 04 09 14 12 15 .14     113   -101    -19    152    154 131.8  -7.2  34006  286.96 0862.03
2015 04 09 14 12 15 .39     116    -73      7    138    139 122.4   2.9  34006  286.96 0862.03
2015 04 09 14 12 15 .65     113    -68    -16    132    134 121.1  -7.2  34008  287.01 0862.03
2015 04 09 14 12 15 .90     106    -77     -7    132    133 126.0  -3.1  34008  287.01 0862.03
2015 04 09 14 12 16 .15      99    -68    -15    121    122 124.6  -7.3  34008  287.01 0862.03
2015 04 09 14 12 16 .40      88    -58    -26    106    110 123.7 -13.9  34008  287.01 0862.03
2015 04 09 14 12 16 .65      66    -53    -19     85     88 128.6 -12.9  34012  287.08 0862.03
2015 04 09 14 12 16 .90      55    -47    -23     73     77 130.4 -17.6  34012  287.06 0862.03
2015 04 09 14 12 17 .15      50    -41    -13     65     67 129.5 -11.3  34012  287.06 0862.03
2015 04 09 14 12 17 .40      55    -33    -23     65     70 121.5 -19.7  34014  287.11 0862.03
2015 04 09 14 12 17 .65      69    -30    -22     76     79 113.5 -21.2  34010  287.03 0862.03
2015 04 09 14 12 17 .90      77    -36    -24     86     89 115.4 -20.7  34002  286.91 0862.03
2015 04 09 14 12 18 .15      71    -39    -28     82     86 118.9 -23.3  34000  286.86 0862.03
2015 04 09 14 12 18 .40      74    -29    -37     80     88 111.7 -30.6  33996  286.79 0862.03
2015 04 09 14 12 18 .65      87    -16    -27     89     94 101.0 -17.0  34010  287.03 0862.03
2015 04 09 14 12 18 .91      93    -23    -23     96     99 104.2 -13.9  34010  287.03 0862.03
2015 04 09 14 12 19 .16      90     -4     -3     91     92  93.0  -2.2  34010  287.03 0862.03
2015 04 09 14 12 19 .40      78     -6     29     79     84  94.4  20.4  34012  287.06 0862.03
2015 04 09 14 12 19 .66      80    -20     39     83     91 104.2  27.1  34014  287.11 0862.03
2015 04 09 14 12 19 .91      87    -32     23     93     96 110.4  14.3  34018  287.16 0862.03
2015 04 09 14 12 20 .16      93    -30     -2     98     99 108.2  -1.3  34012  287.06 0862.03
2015 04 09 14 12 20 .41      75    -37     -1     84     85 116.2  -0.7  34014  287.11 0862.03
2015 04 09 14 12 20 .66      71    -33     -3     79     80 115.2  -2.2  34014  287.10 0862.03
2015 04 09 14 12 20 .91      80    -33     -1     87     88 112.6  -1.3  34006  286.96 0862.03
2015 04 09 14 12 21 .16      80    -28    -11     85     86 109.5  -7.7  33998  286.83 0862.03
2015 04 09 14 12 21 .41      93    -38     -3    101    102 112.2  -2.2  34000  286.88 0862.03
2015 04 09 14 12 21 .66     103    -34    -11    109    110 108.2  -6.2  33996  286.81 0862.03
2015 04 09 14 12 21 .92      98    -29     -6    103    104 106.4  -3.7  34000  286.88 0862.03
2015 04 09 14 12 22 .17      89    -31    -12     95     96 109.1  -7.3  34004  286.93 0862.02
2015 04 09 14 12 22 .41      88    -42     -9     98     99 115.8  -5.6  34008  287.01 0862.02
2015 04 09 14 12 22 .67      87    -24      1     91     92 105.9   1.2  34008  287.00 0862.02
2015 04 09 14 12 22 .93      79    -31     -6     86     87 111.7  -4.6  34010  287.05 0862.02
2015 04 09 14 12 23 .17      75    -54     -1     93     94 126.0  -0.7  34024  287.28 0862.02
2015 04 09 14 12 23 .42      64    -57      5     87     88 131.8   3.8  34026  287.32 0862.02
2015 04 09 14 12 23 .67      52    -53     -4     75     76 135.8  -3.1  34024  287.27 0862.02
2015 04 09 14 12 23 .93      46    -40     -3     62     63 131.3  -3.1  34028  287.33 0862.03
2015 04 09 14 12 24 .17      41    -41      6     58     59 135.0   5.9  34024  287.28 0862.03
2015 04 09 14 12 24 .43      38    -38     -3     54     55 134.9  -3.1  34022  287.23 0862.03
2015 04 09 14 12 24 .68      44    -41      3     61     62 133.1   2.8  34026  287.30 0862.03
2015 04 09 14 12 24 .93      47    -48      3     68     69 135.9   2.8  34026  287.30 0862.03
2015 04 09 14 12 25 .18      46    -40     -3     62     63 131.3  -3.1  34028  287.33 0862.03
2015 04 09 14 12 25 .43      50    -51    -36     72     80 135.8 -33.1  34024  287.28 0862.03
2015 04 09 14 12 25 .68      45    -48    -18     66     69 136.7 -15.5  34020  287.21 0862.03
2015 04 09 14 12 25 .93      45    -41    -11     62     64 132.2 -10.3  34022  287.25 0862.02
2015 04 09 14 12 26 .18      46    -32     -2     57     58 125.1  -2.2  34028  287.33 0862.02
2015 04 09 14 12 26 .43      44    -20     17     49     52 115.3  19.4  34030  287.38 0862.02
2015 04 09 14 12 26 .68      30    -22     16     38     41 126.0  24.1  34034  287.43 0862.02
2015 04 09 14 12 26 .93      36     -7     22     37     43 101.5  33.5  34026  287.30 0862.02
2015 04 09 14 12 27 .18      35    -22     27     42     49 122.4  35.5  34032  287.40 0862.02
2015 04 09 14 12 27 .44      22     -7     43     24     49 108.2  68.8  34044  287.60 0862.02
2015 04 09 14 12 27 .69      12    -13     38     18     42 136.8  72.9  34068  288.03 0862.02
2015 04 09 14 12 27 .93      16     -7     39     18     42 115.3  74.0  34080  288.23 0862.02
2015 04 09 14 12 28 .18      39    -22     41     45     60 119.8  47.9  34036  287.47 0862.02
2015 04 09 14 12 28 .43      41    -29     17     51     54 125.1  18.9  34022  287.25 0862.02
2015 04 09 14 12 28 .69      46    -29     18     55     58 122.4  18.4  34024  287.27 0862.03
2015 04 09 14 12 28 .93      43    -34     27     56     62 128.6  27.2  34022  287.25 0862.03
2015 04 09 14 12 29 .19      35    -44     27     57     63 141.3  27.2  34016  287.15 0862.03
2015 04 09 14 12 29 .43      38    -48     36     62     71 142.2  33.5  34016  287.15 0862.03
2015 04 09 14 12 29 .70      35    -44     34     57     66 141.3  34.4  34014  287.11 0862.03
2015 04 09 14 12 29 .95      32    -49     39     59     70 146.6  35.6  34018  287.16 0862.03
2015 04 09 14 12 30 .20      30    -44     29     54     61 145.7  31.3  34022  287.23 0862.03
2015 04 09 14 12 30 .45      11    -53     38     55     66 168.4  37.6  34022  287.23 0862.03
2015 04 09 14 12 30 .70      12    -60     39     62     73 168.4  35.5  34024  287.28 0862.03
2015 04 09 14 12 30 .96      12    -60     38     62     72 168.5  35.5  34036  287.49 0862.03
2015 04 09 14 12 31 .20      -6    -72     38     73     82 185.3  29.3  34042  287.59 0862.03
2015 04 09 14 12 31 .46      -5    -83     41     84     93 183.6  27.3  34038  287.52 0862.03
2015 04 09 14 12 31 .70       0    -87     28     88     93 180.0  17.9  34080  288.21 0862.03
2015 04 09 14 12 31 .96     -19    -82     27     85     90 193.4  17.9  34058  287.84 0862.03
2015 04 09 14 12 32 .21     -30    -99     17    104    106 196.9   9.5  34044  287.62 0862.03
2015 04 09 14 12 32 .46     -33    -97     35    103    109 198.7  18.9  34084  288.30 0862.03
2015 04 09 14 12 32 .71      -7    -96     52     97    110 184.5  30.8  34126  288.99 0862.03
2015 04 09 14 12 32 .96     -27    -98     24    102    105 195.6  13.2  34028  287.33 0862.03
2015 04 09 14 12 33 .21     -24   -112     18    115    117 192.5   8.9  34056  287.81 0862.03
2015 04 09 14 12 33 .46      -2   -119     22    120    123 181.4  10.6  34098  288.53 0862.03
2015 04 09 14 12 33 .71      -9   -109     13    110    111 184.9   7.1  34088  288.35 0862.03
2015 04 09 14 12 33 .96      -6   -119      1    120    121 183.1   0.7  34042  287.57 0862.03
2015 04 09 14 12 34 .21     -20   -116    -10    118    119 189.8  -5.2  34022  287.23 0862.03
2015 04 09 14 12 34 .47     -21   -127      0    129    130 189.8  -0.3  34042  287.57 0862.03
2015 04 09 14 12 34 .71      -4   -122    -10    123    124 182.2  -5.1  34024  287.28 0862.03
2015 04 09 14 12 34 .97     -12   -119    -10    120    121 185.8  -5.2  34042  287.59 0862.03
2015 04 09 14 12 35 .21      -9   -108     -6    109    110 184.9  -3.2  34036  287.47 0862.03
2015 04 09 14 12 35 .46     -24   -100    -13    103    104 193.8  -7.3  34030  287.38 0862.03
2015 04 09 14 12 35 .71     -33    -96    -36    102    109 199.2 -19.7  34040  287.54 0862.03
2015 04 09 14 12 35 .97     -57   -111    -20    125    127 207.2  -9.3  34078  288.18 0862.03
2015 04 09 14 12 36 .21     -56   -102    -14    117    118 209.0  -7.2  34064  287.94 0862.03
2015 04 09 14 12 36 .48     -68   -105     -4    126    127 213.0  -2.2  34066  287.99 0862.03
2015 04 09 14 12 36 .72     -86    -91     24    126    129 223.2  11.0  34118  288.87 0862.03
2015 04 09 14 12 36 .98     -66    -90     46    112    121 216.5  23.6  34130  289.06 0862.03
2015 04 09 14 12 37 .22     -66    -82     44    106    114 218.7  23.6  34122  288.94 0862.03
2015 04 09 14 12 37 .47     -47   -125     -5    134    135 200.9  -2.2  34074  288.11 0862.03
2015 04 09 14 12 37 .73     -55   -128      2    140    141 203.2   0.8  34062  287.92 0862.04
2015 04 09 14 12 37 .98     -42   -129    -17    136    138 198.3  -7.3  34056  287.81 0862.04
2015 04 09 14 12 38 .23     -42   -156    -34    162    166 195.1 -11.9  34096  288.48 0862.04
2015 04 09 14 12 38 .48     -15   -140    -13    141    142 186.2  -5.6  34088  288.36 0862.04
2015 04 09 14 12 38 .73     -30   -119    -14    123    124 194.3  -6.7  34088  288.36 0862.04
2015 04 09 14 12 38 .98     -67   -108      6    128    129 211.6   2.8  34080  288.21 0862.04
2015 04 09 14 12 39 .23     -62   -129     28    144    147 205.9  11.1  34110  288.74 0862.04
2015 04 09 14 12 39 .48     -93   -126     40    157    163 216.5  14.3  34128  289.02 0862.04
2015 04 09 14 12 39 .73     -88   -122     32    151    155 216.0  12.0  34116  288.82 0862.04
2015 04 09 14 12 39 .98     -92   -111      0    145    146 219.6  -0.3  34014  287.10 0862.04
2015 04 09 14 12 40 .24     -85   -117     -6    145    146 216.1  -2.6  34036  287.49 0862.04
2015 04 09 14 12 40 .49     -82   -115    -18    142    144 215.6  -7.3  34114  288.80 0862.04
2015 04 09 14 12 40 .73     -92   -130    -22    160    162 215.2  -8.0  34050  287.70 0862.04
2015 04 09 14 12 40 .98     -87   -136     -4    162    163 212.5  -1.6  34028  287.33 0862.04
2015 04 09 14 12 41 .24     -82   -136    -17    159    160 211.2  -6.2  34028  287.33 0862.04
2015 04 09 14 12 41 .49     -74   -130     -8    150    151 209.9  -3.1  34022  287.25 0862.04
2015 04 09 14 12 41 .74     -67   -139      1    155    156 205.9   0.5  34050  287.70 0862.04
2015 04 09 14 12 41 .99     -55   -128      2    140    141 203.2   0.8  34028  287.33 0862.04
2015 04 09 14 12 42 .24     -79   -133     -3    155    156 210.8  -1.3  34024  287.28 0862.04
2015 04 09 14 12 42 .49     -74   -130     -8    150    151 209.9  -3.1  34022  287.25 0862.04
2015 04 09 14 12 42 .74     -65   -134     -3    149    150 205.9  -1.3  34018  287.18 0862.04
2015 04 09 14 12 42 .99     -62   -125     -5    140    141 206.7  -2.2  34022  287.25 0862.04
2015 04 09 14 12 43 .24     -55   -128     -5    140    141 203.2  -2.2  34032  287.42 0862.04
2015 04 09 14 12 43 .50     -86   -131     -4    157    158 213.4  -1.6  34030  287.38 0862.04
2015 04 09 14 12 43 .76    -102   -145     -5    178    179 215.2  -1.6  34028  287.33 0862.04
2015 04 09 14 12 44 .00     -91   -158     -7    183    184 210.1  -2.2  34052  287.74 0862.04
2015 04 09 14 12 44 .26     -89   -146      4    172    173 211.4   1.6  34070  288.04 0862.04
2015 04 09 14 12 44 .50     -63   -134      2    149    150 205.3   0.8  34094  288.45 0862.04
2015 04 09 14 12 44 .76     -75   -118     -5    140    141 212.5  -2.2  34080  288.21 0862.04
2015 04 09 14 12 45 .01     -36   -119     23    125    128 196.9  10.6  34096  288.50 0862.04
2015 04 09 14 12 45 .26     -48   -109     15    120    122 203.6   7.5  34108  288.70 0862.04
2015 04 09 14 12 45 .51    -104   -151    -21    184    186 214.5  -6.7  34082  288.26 0862.04
2015 04 09 14 12 45 .76    -106   -153     -7    187    188 214.7  -2.2  34074  288.13 0862.04
2015 04 09 14 12 46 .01    -115   -160     16    198    199 215.6   4.9  34060  287.89 0862.04
2015 04 09 14 12 46 .26    -100   -160     -8    189    190 212.1  -2.6  34100  288.57 0862.04
2015 04 09 14 12 46 .51    -130   -204    -13    243    244 212.5  -3.1  34118  288.87 0862.04
2015 04 09 14 12 46 .76    -141   -195     -9    241    242 215.8  -2.2  34128  289.03 0862.04
2015 04 09 14 12 47 .01    -151   -182      0    237    238 219.6   0.0  34140  289.24 0862.04
2015 04 09 14 12 47 .27    -174   -207     34    271    274 220.1   7.2  34170  289.73 0862.04
2015 04 09 14 12 47 .51    -228   -269     -3    354    355 220.3  -0.6  34148  289.37 0862.04
2015 04 09 14 12 47 .76    -254   -297      2    392    393 220.5   0.4  34000  286.88 0862.04
2015 04 09 14 12 48 .02    -277   -259      7    380    381 226.9   1.1  34006  286.98 0862.04
2015 04 09 14 12 48 .27    -240   -289     46    376    379 219.7   7.1  34120  288.91 0862.04
2015 04 09 14 12 48 .52    -160   -302     46    342    346 208.0   7.8  34136  289.15 0862.04
2015 04 09 14 12 48 .77    -152   -298     -4    335    336 207.0  -0.7  34172  289.77 0862.04
2015 04 09 14 12 49 .02    -231   -271    -43    357    360 220.4  -6.9  34012  287.08 0862.04
2015 04 09 14 12 49 .27    -259   -310     30    405    407 219.9   4.3  34024  287.26 0862.04
2015 04 09 14 12 49 .52    -276   -339     -6    438    439 219.2  -0.9  34062  287.90 0862.04
2015 04 09 14 12 49 .77    -311   -321    -34    448    450 224.1  -4.4  34030  287.38 0862.04
2015 04 09 14 12 50 .02    -282   -364    -25    461    462 217.7  -3.1  34034  287.43 0862.04
2015 04 09 14 12 50 .27    -262   -360    -24    446    447 216.1  -3.2  34032  287.41 0862.04
2015 04 09 14 12 50 .53    -225   -329    -15    399    400 214.4  -2.3  34020  287.20 0862.04
2015 04 09 14 12 50 .78    -207   -326    -22    387    388 212.5  -3.3  34038  287.51 0862.04
2015 04 09 14 12 51 .03    -223   -340    -19    407    408 213.3  -2.7  34092  288.41 0862.04
2015 04 09 14 12 51 .28    -232   -317    -12    393    394 216.2  -1.8  34088  288.35 0862.04
2015 04 09 14 12 51 .53    -261   -315    -16    410    411 219.7  -2.2  34048  287.68 0862.04
2015 04 09 14 12 51 .78    -265   -363    -21    450    451 216.1  -2.8  34064  287.94 0862.04
2015 04 09 14 12 52 .03    -253   -337    -12    422    423 217.0  -1.7  34080  288.21 0862.03
2015 04 09 14 12 52 .28    -270   -321    -16    420    421 220.0  -2.2  34090  288.39 0862.03
2015 04 09 14 12 52 .54    -254   -361     18    442    443 215.2   2.4  34102  288.58 0862.03
2015 04 09 14 12 52 .78    -295   -378     31    480    481 218.0   3.7  34058  287.83 0862.03
2015 04 09 14 12 53 .04    -301   -412     29    511    512 216.2   3.3  34046  287.63 0862.03
2015 04 09 14 12 53 .29    -300   -425     59    521    525 215.2   6.5  34022  287.23 0862.03
2015 04 09 14 12 53 .54    -271   -388    -24    474    475 215.0  -3.0  34006  286.98 0862.03
2015 04 09 14 12 53 .79    -264   -355     -8    443    444 216.6  -1.2  34060  287.89 0862.03
2015 04 09 14 12 54 .03    -276   -392     23    480    481 215.2   2.8  34008  287.00 0862.03
2015 04 09 14 12 54 .29    -226   -370    -34    434    436 211.4  -4.6  33990  286.70 0862.03
2015 04 09 14 12 54 .54    -247   -349    -40    428    431 215.3  -5.4  33988  286.67 0862.03
2015 04 09 14 12 54 .80    -250   -297    -25    389    390 220.0  -3.7  34048  287.69 0862.03
2015 04 09 14 12 55 .04    -256   -290     10    388    389 221.4   1.6  34106  288.66 0862.03
2015 04 09 14 12 55 .29    -278   -265     32    385    387 226.4   4.9  34104  288.64 0862.03
2015 04 09 14 12 55 .54    -245   -280    -14    373    374 221.2  -2.2  34016  287.13 0862.03
2015 04 09 14 12 55 .79    -256   -258    -40    364    367 224.8  -6.3  33986  286.63 0862.03
2015 04 09 14 12 56 .04    -253   -262    -20    365    366 223.9  -3.3  33994  286.75 0862.03
2015 04 09 14 12 56 .29    -264   -251    -14    365    366 226.4  -2.2  33996  286.81 0862.03
2015 04 09 14 12 56 .54    -264   -261     -1    372    373 225.4  -0.2  34000  286.86 0862.03
2015 04 09 14 12 56 .79    -283   -262    -14    387    388 227.2  -2.1  33986  286.63 0862.03
2015 04 09 14 12 57 .05    -260   -265     -4    372    373 224.5  -0.7  33994  286.78 0862.03
2015 04 09 14 12 57 .31    -263   -286     -6    389    390 222.6  -0.9  34002  286.91 0862.03
2015 04 09 14 12 57 .55    -223   -317    -15    388    389 215.2  -2.2  34010  287.02 0862.03
2015 04 09 14 12 57 .81    -252   -294     12    388    389 220.5   1.8  33992  286.73 0862.03
2015 04 09 14 12 58 .06    -274   -291     11    400    401 223.3   1.7  33986  286.63 0862.03
2015 04 09 14 12 58 .31    -243   -270     15    364    365 222.0   2.5  33994  286.75 0862.03
2015 04 09 14 12 58 .56    -262   -269    -19    376    377 224.2  -3.0  33986  286.64 0862.03
2015 04 09 14 12 58 .81    -288   -269    -55    395    399 227.0  -8.0  33980  286.54 0862.03
2015 04 09 14 12 59 .06    -287   -269    -40    394    397 226.9  -5.9  33980  286.54 0862.03
2015 04 09 14 12 59 .31    -282   -277    -33    396    398 225.6  -4.9  33980  286.54 0862.03
2015 04 09 14 12 59 .56    -262   -270    -33    377    379 224.2  -5.1  33984  286.59 0862.03
2015 04 09 14 12 59 .81    -238   -275    -34    364    366 220.9  -5.5  33986  286.63 0862.03
2015 04 09 14 13 00 .14    -248   -284    -47    378    382 221.1  -7.2  33982  286.56 0862.03
2015 04 09 14 13 00 .31    -234   -281    -48    367    371 219.8  -7.5  33984  286.59 0862.03
2015 04 09 14 13 00 .56    -216   -268    -41    345    348 218.8  -6.9  33986  286.63 0862.03
2015 04 09 14 13 00 .81    -196   -269    -34    334    336 216.1  -5.9  33986  286.63 0862.03
2015 04 09 14 13 01 .06    -218   -272    -49    349    353 218.8  -8.0  33986  286.63 0862.03
2015 04 09 14 13 01 .31    -191   -262    -45    325    329 216.1  -7.9  33986  286.62 0862.03
2015 04 09 14 13 01 .56    -231   -274     14    359    360 220.1   2.2  34000  286.88 0862.03
2015 04 09 14 13 01 .82    -229   -264      1    350    351 221.0   0.2  34012  287.08 0862.03
2015 04 09 14 13 02 .06    -209   -258     16    333    334 219.0   2.9  34022  287.23 0862.03
2015 04 09 14 13 02 .31    -194   -240     32    309    311 219.0   6.1  34024  287.28 0862.03
2015 04 09 14 13 02 .56    -248   -224    -17    335    336 228.0  -3.0  33984  286.59 0862.03
2015 04 09 14 13 02 .82    -252   -209    -23    328    329 230.4  -4.1  33988  286.66 0862.03
2015 04 09 14 13 03 .07    -228   -196    -21    301    302 229.3  -4.1  33994  286.77 0862.03
2015 04 09 14 13 03 .32    -240   -211    -10    320    321 228.7  -1.9  33992  286.72 0862.03
2015 04 09 14 13 03 .57    -237   -211    -12    318    319 228.2  -2.2  34008  287.01 0862.03
2015 04 09 14 13 03 .82    -231   -229    -12    326    327 225.2  -2.2  34010  287.04 0862.03
2015 04 09 14 13 04 .07    -240   -238    -24    339    340 225.3  -4.1  34004  286.93 0862.03
2015 04 09 14 13 04 .33    -222   -242    -12    329    330 222.6  -2.2  34006  286.96 0862.03
2015 04 09 14 13 04 .58    -207   -246    -10    322    323 220.1  -1.8  33998  286.82 0862.04
2015 04 09 14 13 04 .83    -235   -246    -11    341    342 223.7  -1.9  34008  287.00 0862.04
2015 04 09 14 13 05 .08    -239   -245      7    343    344 224.3   1.2  34042  287.56 0862.04
2015 04 09 14 13 05 .33    -264   -261     -1    372    373 225.4  -0.2  34000  286.86 0862.04
2015 04 09 14 13 05 .58    -251   -258     17    360    361 224.2   2.8  33986  286.64 0862.04
2015 04 09 14 13 05 .83    -243   -269     15    363    364 222.1   2.5  33990  286.69 0862.04
2015 04 09 14 13 06 .08    -258   -258      5    366    367 225.0   0.8  33986  286.64 0862.04
2015 04 09 14 13 06 .33    -254   -242      3    352    353 226.4   0.5  33984  286.61 0862.03
2015 04 09 14 13 06 .58    -252   -246     13    353    354 225.7   2.2  33984  286.61 0862.03
2015 04 09 14 13 06 .83    -263   -243     -7    359    360 227.3  -1.2  33984  286.61 0862.03
2015 04 09 14 13 07 .09    -279   -245    -20    372    373 228.7  -3.1  33982  286.56 0862.03
2015 04 09 14 13 07 .34    -262   -246     11    360    361 226.8   1.8  33994  286.76 0862.03
2015 04 09 14 13 07 .59    -263   -243     -7    359    360 227.3  -1.2  33984  286.61 0862.03
2015 04 09 14 13 07 .83    -256   -240    -13    352    353 226.9  -2.2  33984  286.59 0862.03
2015 04 09 14 13 08 .09    -259   -251    -15    362    363 225.9  -2.5  33984  286.61 0862.03
2015 04 09 14 13 08 .34    -252   -259    -20    362    363 224.2  -3.2  33984  286.58 0862.03
2015 04 09 14 13 08 .60    -264   -249    -24    363    364 226.7  -3.9  34006  286.98 0862.03
2015 04 09 14 13 08 .84    -238   -238     -2    338    339 225.0  -0.5  34016  287.15 0862.03
2015 04 09 14 13 09 .09    -267   -220      0    347    348 230.5   0.1  34026  287.29 0862.03
2015 04 09 14 13 09 .35    -263   -242     11    358    359 227.4   1.8  34166  289.69 0862.03
2015 04 09 14 13 09 .59    -259   -243    -15    356    357 226.9  -2.5  34026  287.32 0862.03
2015 04 09 14 13 09 .84    -232   -268     -8    355    356 220.9  -1.4  34040  287.54 0862.03
2015 04 09 14 13 10 .09    -241   -265     13    359    360 222.3   2.1  34018  287.18 0862.03
2015 04 09 14 13 10 .34    -241   -227    -40    332    335 226.7  -6.9  33982  286.56 0862.03
2015 04 09 14 13 10 .59    -253   -217    -53    334    339 229.4  -9.0  33984  286.59 0862.03
2015 04 09 14 13 10 .84    -241   -212    -55    322    327 228.7  -9.7  33982  286.55 0862.03
2015 04 09 14 13 11 .09    -238   -209    -58    317    323 228.7 -10.5  33978  286.50 0862.03
2015 04 09 14 13 11 .35    -256   -221    -54    339    344 229.2  -9.1  33982  286.56 0862.03
2015 04 09 14 13 11 .61    -249   -221    -67    333    340 228.4 -11.5  33986  286.63 0862.03
2015 04 09 14 13 11 .86    -262   -214    -43    339    342 230.8  -7.3  33992  286.73 0862.03
2015 04 09 14 13 12 .12    -220   -240     12    326    327 222.6   2.2  34128  289.03 0862.03
2015 04 09 14 13 12 .36    -205   -247     13    322    323 219.7   2.3  34080  288.22 0862.03
2015 04 09 14 13 12 .61    -224   -225     10    318    319 224.8   1.9  33996  286.80 0862.03
2015 04 09 14 13 12 .86    -259   -227    -21    345    346 228.7  -3.5  33986  286.64 0862.03
2015 04 09 14 13 13 .11    -252   -212    -18    330    331 229.9  -3.3  33982  286.56 0862.03
2015 04 09 14 13 13 .36    -242   -214    -12    324    325 228.6  -2.2  33984  286.58 0862.03
2015 04 09 14 13 13 .61    -239   -203    -12    314    315 229.6  -2.2  33986  286.63 0862.03
2015 04 09 14 13 13 .86    -235   -194    -16    305    306 230.5  -3.1  33990  286.68 0862.03
2015 04 09 14 13 14 .11    -236   -186     -8    301    302 231.8  -1.6  33998  286.82 0862.03
2015 04 09 14 13 14 .36    -227   -164    -22    281    282 234.1  -4.6  34016  287.14 0862.03
2015 04 09 14 13 14 .61    -247   -192    -21    313    314 232.2  -4.0  34006  286.97 0862.03
2015 04 09 14 13 14 .87    -230   -160    -23    281    283 235.1  -4.9  34004  286.94 0862.03
2015 04 09 14 13 15 .11    -226   -164    -54    280    286 234.1 -10.9  33998  286.82 0862.03
2015 04 09 14 13 15 .36    -200   -190    -32    277    279 226.4  -6.7  33998  286.82 0862.03
2015 04 09 14 13 15 .62    -197   -193     -8    277    278 225.6  -1.8  34016  287.12 0862.03
2015 04 09 14 13 15 .86    -241   -211    -10    321    322 228.7  -1.8  34010  287.04 0862.03
2015 04 09 14 13 16 .12    -240   -228     -6    332    333 226.5  -1.1  34026  287.29 0862.03
2015 04 09 14 13 16 .37    -212   -211      5    300    301 225.1   1.0  34020  287.19 0862.03
2015 04 09 14 13 16 .62    -222   -195      4    296    297 228.7   0.8  34014  287.11 0862.03
2015 04 09 14 13 16 .87    -211   -211     19    299    300 225.1   3.8  34028  287.34 0862.03
2015 04 09 14 13 17 .12    -237   -208      0    316    317 228.7   0.0  34004  286.92 0862.03
2015 04 09 14 13 17 .38    -252   -206      2    326    327 230.7   0.5  34044  287.60 0862.03
2015 04 09 14 13 17 .62    -223   -209     14    306    307 226.9   2.8  34072  288.09 0862.03
2015 04 09 14 13 17 .87    -330   -128    -42    355    358 248.7  -6.8  34080  288.23 0862.03
2015 04 09 14 13 18 .12    -303   -142    -43    335    338 244.8  -7.3  34132  289.10 0862.03
2015 04 09 14 13 18 .38    -228    -85    -45    244    249 249.6 -10.5  34136  289.17 0862.03
2015 04 09 14 13 18 .64    -213   -135    -55    253    260 237.6 -12.4  34208  290.37 0862.03
2015 04 09 14 13 18 .88    -198   -158    -22    254    256 231.3  -5.1  34186  290.00 0862.03
2015 04 09 14 13 19 .13    -242   -197     -8    313    314 230.9  -1.6  34282  291.63 0862.03
2015 04 09 14 13 19 .39    -242   -203     -2    316    317 230.0  -0.4  34250  291.09 0862.03
2015 04 09 14 13 19 .63    -248   -224     13    335    336 227.9   2.3  34116  288.82 0862.03
2015 04 09 14 13 19 .89    -244   -217      2    327    328 228.4   0.5  34096  288.49 0862.03
2015 04 09 14 13 20 .14    -245   -228     13    335    336 227.1   2.4  34104  288.64 0862.03
2015 04 09 14 13 20 .39    -169   -218     34    276    279 217.8   7.2  34230  290.75 0862.03
2015 04 09 14 13 20 .63    -192   -215     45    289    293 221.7   8.9  34230  290.75 0862.03
2015 04 09 14 13 20 .89    -221   -207     37    304    307 226.9   7.1  34198  290.20 0862.03
2015 04 09 14 13 21 .14    -235   -220      5    322    323 226.9   1.0  34238  290.88 0862.03
2015 04 09 14 13 21 .39    -232   -212     16    315    316 227.6   3.0  34200  290.24 0862.03
2015 04 09 14 13 21 .64    -242   -195     -1    312    313 231.1  -0.2  34038  287.51 0862.03
2015 04 09 14 13 21 .89    -236   -186    -16    301    302 231.8  -3.1  34008  287.01 0862.03
2015 04 09 14 13 22 .14    -201   -214      9    295    296 223.2   1.8  34124  288.97 0862.03
2015 04 09 14 13 22 .39    -198   -211     42    290    294 223.3   8.2  34144  289.29 0862.03
2015 04 09 14 13 22 .64    -187   -241     38    306    309 217.9   7.1  34040  287.53 0862.03
2015 04 09 14 13 22 .89    -211   -262     34    337    339 218.8   5.9  33994  286.78 0862.03
2015 04 09 14 13 23 .15    -189   -243     50    308    313 217.9   9.2  34008  286.99 0862.03
2015 04 09 14 13 23 .39    -207   -250     10    325    326 219.7   1.8  34000  286.87 0862.03
2015 04 09 14 13 23 .64    -223   -209    -11    306    307 226.8  -2.2  33986  286.63 0862.03
2015 04 09 14 13 23 .90    -219   -181    -36    285    288 230.5  -7.2  33996  286.79 0862.03
2015 04 09 14 13 24 .15    -210   -154    -59    261    268 233.8 -12.9  34012  287.06 0862.03
2015 04 09 14 13 24 .39    -220   -149    -42    266    270 235.9  -9.0  34034  287.44 0862.03
2015 04 09 14 13 24 .64    -220   -160    -44    273    277 234.0  -9.3  34034  287.43 0862.03
2015 04 09 14 13 24 .90    -218   -148    -72    264    274 235.8 -15.4  33988  286.65 0862.03
2015 04 09 14 13 25 .16    -210   -133    -69    249    259 237.6 -15.5  33992  286.74 0862.03
2015 04 09 14 13 25 .41    -199   -140    -41    244    248 234.9  -9.6  34046  287.63 0862.04
2015 04 09 14 13 25 .66    -189   -153    -31    244    246 231.1  -7.3  33988  286.67 0862.04
2015 04 09 14 13 25 .91    -199   -160    -25    256    258 231.3  -5.6  33984  286.60 0862.04
2015 04 09 14 13 26 .16    -172   -151    -15    230    231 228.7  -3.7  33984  286.59 0862.04
2015 04 09 14 13 26 .41    -179   -149    -17    233    234 230.2  -4.4  33986  286.63 0862.04
2015 04 09 14 13 26 .66    -178   -152    -20    235    236 229.6  -4.9  33988  286.67 0862.04
2015 04 09 14 13 26 .91    -180   -122    -44    218    223 235.8 -11.5  33994  286.76 0862.04
2015 04 09 14 13 27 .16    -170   -124    -36    211    215 233.8  -9.8  33994  286.78 0862.04
2015 04 09 14 13 27 .41    -175   -134    -27    221    223 232.5  -7.2  33994  286.78 0862.04
2015 04 09 14 13 27 .66    -172   -146     -6    226    227 229.6  -1.6  33990  286.71 0862.04
2015 04 09 14 13 27 .91    -174   -170      0    244    245 225.6   0.2  33994  286.77 0862.04
2015 04 09 14 13 28 .16    -196   -147    -13    246    247 233.1  -3.1  33992  286.74 0862.04
2015 04 09 14 13 28 .42    -215   -189     10    287    288 228.6   2.1  34004  286.92 0862.04
2015 04 09 14 13 28 .67    -223   -222     23    315    316 225.1   4.3  34012  287.06 0862.04
2015 04 09 14 13 28 .92    -266   -240     19    359    360 228.0   3.1  34012  287.07 0862.03
2015 04 09 14 13 29 .17    -283   -152    -36    322    325 241.8  -6.5  34024  287.26 0862.03
2015 04 09 14 13 29 .42    -273   -175    -34    325    327 237.4  -6.1  33994  286.77 0862.03
2015 04 09 14 13 29 .67    -270   -164    -45    316    320 238.7  -8.1  33994  286.75 0862.03
2015 04 09 14 13 29 .92    -266   -149    -58    306    312 240.7 -10.8  33994  286.77 0862.03
2015 04 09 14 13 30 .17    -266   -101    -67    285    293 249.2 -13.4  34014  287.11 0862.03
2015 04 09 14 13 30 .42    -243   -110    -63    267    275 245.6 -13.3  34014  287.09 0862.03
2015 04 09 14 13 30 .67    -221   -141    -67    263    272 237.5 -14.3  34056  287.80 0862.03
2015 04 09 14 13 30 .92    -241   -118    -64    269    277 243.8 -13.4  34062  287.90 0862.03
2015 04 09 14 13 31 .17    -251   -173    -27    306    308 235.4  -5.2  34070  288.04 0862.03
2015 04 09 14 13 31 .42    -249   -169    -25    301    303 235.8  -4.9  34062  287.90 0862.03
2015 04 09 14 13 31 .67    -203   -158    -19    258    259 232.2  -4.4  34038  287.50 0862.04
2015 04 09 14 13 31 .92    -238    -87    -51    254    260 249.8 -11.3  34034  287.44 0862.04
2015 04 09 14 13 32 .18    -235    -99    -32    256    259 247.2  -7.3  34014  287.11 0862.04
2015 04 09 14 13 32 .44    -269    -77    -37    280    283 254.0  -7.7  34018  287.16 0862.04
2015 04 09 14 13 32 .68    -254   -115    -24    279    281 245.6  -5.1  34018  287.16 0862.04
2015 04 09 14 13 32 .93    -255   -107    -37    277    280 247.2  -7.7  34012  287.06 0862.04
2015 04 09 14 13 33 .19    -222   -122    -36    254    257 241.1  -8.3  34020  287.21 0862.04
2015 04 09 14 13 33 .44    -209   -103    -36    234    237 243.8  -8.8  34040  287.55 0862.04
2015 04 09 14 13 33 .69    -222    -74    -37    235    238 251.4  -9.0  34078  288.17 0862.04
2015 04 09 14 13 33 .94    -208    -73    -23    221    223 250.7  -6.0  34096  288.48 0862.04
2015 04 09 14 13 34 .19    -197   -114    -35    228    231 240.0  -8.8  34088  288.35 0862.04
2015 04 09 14 13 34 .44    -161    -96    -34    188    192 239.3 -10.5  34098  288.53 0862.04
2015 04 09 14 13 34 .69    -218   -111    -31    245    248 242.9  -7.3  34132  289.09 0862.04
2015 04 09 14 13 34 .94    -211     -8    -32    212    215 267.6  -8.8  34090  288.40 0862.04
2015 04 09 14 13 35 .19    -220    -49    -35    226    229 257.4  -9.0  34092  288.43 0862.03
2015 04 09 14 13 35 .44    -153    -10    -51    154    163 266.1 -18.3  34100  288.55 0862.03
2015 04 09 14 13 35 .69    -118    -36    -11    124    125 252.7  -5.2  34094  288.45 0862.03
2015 04 09 14 13 35 .94    -186    -69    -34    199    203 249.6  -9.8  34066  287.99 0862.03
2015 04 09 14 13 36 .20    -113    -82    -43    140    146 234.1 -21.8  34102  288.58 0862.04
2015 04 09 14 13 36 .45    -144    -38    -40    150    156 255.0 -15.0  34116  288.84 0862.04
2015 04 09 14 13 36 .69    -126    -25    -41    129    136 258.6 -17.6  34110  288.74 0862.04
2015 04 09 14 13 36 .94     -77     10    -12     78     80 277.9  -9.3  34118  288.87 0862.04
2015 04 09 14 13 37 .20     -50    -41    -21     65     68 230.4 -23.8  34120  288.91 0862.04
2015 04 09 14 13 37 .45     -79    -48    -25     93     97 238.9 -15.0  34100  288.55 0862.04
2015 04 09 14 13 37 .70    -120    -58    -40    134    139 244.2 -21.7  34074  288.13 0862.04
2015 04 09 14 13 37 .95    -139    -75    -42    159    165 241.6 -15.0  34120  288.89 0862.03
2015 04 09 14 13 38 .20     -95    -38     -2    103    104 248.3  -1.2  34132  289.09 0862.03
2015 04 09 14 13 38 .45     -45     -8    -30     46     54 259.4 -40.0  34126  289.01 0862.03
2015 04 09 14 13 38 .70     -52    -49    -15     72     74 226.9 -12.4  34132  289.11 0862.03
2015 04 09 14 13 38 .95    -148    -40    -33    154    158 254.9 -12.4  34124  288.96 0862.03
2015 04 09 14 13 39 .21    -123    -53    -32    135    139 246.5 -13.4  34100  288.55 0862.03
2015 04 09 14 13 39 .46     -84   -106    -27    136    139 218.3 -11.3  34138  289.19 0862.03
2015 04 09 14 13 39 .71    -165    -91    -30    189    192 240.9  -9.0  34168  289.70 0862.03
2015 04 09 14 13 39 .96    -154   -102    -39    185    190 236.5 -11.9  34160  289.57 0862.03
2015 04 09 14 13 40 .21     -73   -102      7    126    127 215.6   3.3  34150  289.40 0862.03
2015 04 09 14 13 40 .46    -163    -44    -37    170    175 254.7 -12.4  34160  289.58 0862.03
2015 04 09 14 13 40 .71    -147     -6    -22    148    150 267.5  -8.8  34098  288.53 0862.04
2015 04 09 14 13 40 .96    -203    -65    -43    214    219 252.3 -11.5  34036  287.49 0862.04
2015 04 09 14 13 41 .21    -217    -50    -36    223    227 257.0  -9.3  34014  287.10 0862.04
2015 04 09 14 13 41 .46    -252    -65    -53    261    267 255.4 -11.6  33998  286.82 0862.04
2015 04 09 14 13 41 .72    -240    -69    -50    250    256 254.0 -11.5  33996  286.79 0862.04
2015 04 09 14 13 41 .97    -248    -65    -51    257    263 255.2 -11.3  33988  286.67 0862.04
2015 04 09 14 13 42 .22    -237    -76    -52    250    256 252.1 -11.9  33990  286.68 0862.04
2015 04 09 14 13 42 .47    -215    -95    -40    236    240 246.0  -9.6  33990  286.70 0862.04
2015 04 09 14 13 42 .72    -204    -79    -28    219    221 248.7  -7.3  33986  286.64 0862.04
2015 04 09 14 13 42 .97    -206    -65    -41    217    222 252.5 -10.9  33986  286.62 0862.04
2015 04 09 14 13 43 .22    -212    -57    -39    220    224 254.9 -10.3  33990  286.69 0862.04
2015 04 09 14 13 43 .47    -200    -73    -38    214    218 250.0 -10.3  33988  286.66 0862.04
2015 04 09 14 13 43 .72    -208    -86    -35    226    229 247.4  -8.8  33990  286.69 0862.04
2015 04 09 14 13 43 .97    -190   -121    -12    226    227 237.6  -3.2  34002  286.89 0862.04
2015 04 09 14 13 44 .22    -206   -140     -9    250    251 235.8  -2.3  34020  287.19 0862.04
2015 04 09 14 13 44 .48    -204   -125    -20    240    241 238.5  -4.9  34022  287.24 0862.04
2015 04 09 14 13 44 .72    -236   -116    -18    264    265 243.8  -3.9  34046  287.63 0862.04
2015 04 09 14 13 44 .97    -233   -121    -33    263    266 242.5  -7.2  34074  288.10 0862.04
2015 04 09 14 13 45 .23    -204   -119    -20    237    238 239.8  -4.9  34072  288.09 0862.04
2015 04 09 14 13 45 .47    -193   -126     -4    231    232 236.9  -1.2  34082  288.26 0862.04
2015 04 09 14 13 45 .73    -191   -139    -17    237    238 234.0  -4.1  34124  288.97 0862.04
2015 04 09 14 13 45 .99    -150   -124    -32    195    198 230.5  -9.4  34134  289.13 0862.03
2015 04 09 14 13 46 .24    -201   -109    -45    229    234 241.4 -11.3  34196  290.18 0862.03
2015 04 09 14 13 46 .49    -146    -74     -9    164    165 242.9  -3.3  34210  290.41 0862.03
2015 04 09 14 13 46 .74    -124    -43    -36    132    138 250.9 -15.5  34230  290.77 0862.03
2015 04 09 14 13 46 .99     -59    -72      4     94     95 219.6   2.9  34260  291.28 0862.03
2015 04 09 14 13 47 .24    -125    -51     -6    135    136 247.8  -2.6  34272  291.47 0862.03
2015 04 09 14 13 47 .49    -106    -41    -28    114    118 248.7 -13.9  34272  291.49 0862.03
2015 04 09 14 13 47 .74     -86    -53    -16    102    104 238.5  -9.3  34248  291.06 0862.04
2015 04 09 14 13 47 .99    -263    -71    -41    273    277 254.9  -8.6  34042  287.56 0862.04
2015 04 09 14 13 48 .24    -240   -120    -45    269    273 243.4  -9.6  34170  289.73 0862.04
2015 04 09 14 13 48 .49    -236    -90    -26    253    255 248.9  -6.0  34032  287.39 0862.04
2015 04 09 14 13 48 .75    -232   -130    -33    267    270 240.7  -7.2  34074  288.12 0862.04
2015 04 09 14 13 48 .99    -228   -110    -33    254    257 244.2  -7.5  34100  288.54 0862.04
2015 04 09 14 13 49 .24    -211    -74    -43    224    229 250.7 -10.9  34086  288.33 0862.04
2015 04 09 14 13 49 .50    -170   -102     -7    199    200 239.1  -2.2  34098  288.53 0862.04
2015 04 09 14 13 49 .75    -124    -25    -11    127    128 258.5  -5.1  34108  288.70 0862.04
2015 04 09 14 13 49 .99    -104    -27     -4    108    109 255.4  -2.2  34118  288.87 0862.04
2015 04 09 14 13 50 .25      -1     27     12     28     30 357.3  25.1  34128  289.02 0862.04
2015 04 09 14 13 50 .50    -197    -71    -49    210    216 250.0 -13.3  34066  287.98 0862.04
2015 04 09 14 13 50 .75    -178    -84    -40    198    203 244.6 -11.6  34076  288.16 0862.04
2015 04 09 14 13 51 .00    -154    -78     -4    173    174 242.9  -1.6  34122  288.94 0862.04
2015 04 09 14 13 51 .25    -126    -89     -8    155    156 234.5  -3.1  34156  289.50 0862.04
2015 04 09 14 13 51 .50     -50    -45    -13     68     70 227.8 -11.3  34166  289.69 0862.04
2015 04 09 14 13 51 .75    -135    -26     -7    138    139 259.0  -3.1  34170  289.74 0862.04
2015 04 09 14 13 52 .00    -126   -131    -21    183    185 223.9  -6.7  34196  290.19 0862.04
2015 04 09 14 13 52 .25    -147   -108      5    183    184 233.6   1.6  34214  290.48 0862.04
2015 04 09 14 13 52 .50    -226   -164    -23    280    282 234.0  -4.9  34004  286.94 0862.04
2015 04 09 14 13 52 .75    -214   -160    -33    268    271 233.2  -7.2  34058  287.83 0862.04
2015 04 09 14 13 53 .01    -204   -169      3    266    267 230.4   0.8  34074  288.12 0862.04
2015 04 09 14 13 53 .26    -218   -196      8    294    295 228.0   1.7  34064  287.95 0862.04
2015 04 09 14 13 53 .51    -202   -190      3    278    279 226.8   0.8  34058  287.85 0862.04
2015 04 09 14 13 53 .76    -215   -190      4    288    289 228.6   0.8  34058  287.85 0862.04
2015 04 09 14 13 54 .02    -225   -183    -11    291    292 230.9  -2.2  34072  288.07 0862.03
2015 04 09 14 13 54 .27    -216   -170     -6    275    276 231.8  -1.3  34094  288.44 0862.03
2015 04 09 14 13 54 .52    -182   -157    -21    241    242 229.3  -5.2  34100  288.54 0862.03
2015 04 09 14 13 54 .77    -197    -90    -20    217    219 245.4  -5.4  34106  288.65 0862.03
2015 04 09 14 13 55 .02    -154    -92    -21    180    182 239.1  -6.9  34156  289.50 0862.03
2015 04 09 14 13 55 .27     -66    -82     58    106    120 218.7  31.3  34168  289.70 0862.03
2015 04 09 14 13 55 .52     -79     18    -23     82     85 282.8 -20.7  34166  289.69 0862.03
2015 04 09 14 13 55 .77    -162    -45    -52    169    177 254.5 -17.3  34192  290.11 0862.03
2015 04 09 14 13 56 .02    -126    -12    -33    127    132 264.3 -14.5  34196  290.19 0862.03
2015 04 09 14 13 56 .27     -33     33     -1     47     48 315.0  -2.2  34210  290.41 0862.03
2015 04 09 14 13 56 .52     -49    -90    -20    103    106 208.9 -11.3  34214  290.50 0862.03
2015 04 09 14 13 56 .77    -165    -48    -26    173    175 253.6  -8.6  34258  291.23 0862.03
2015 04 09 14 13 57 .02    -285    -68    -68    294    302 256.5 -13.2  34140  289.22 0862.03
2015 04 09 14 13 57 .27     -37     16     16     41     44 294.4  21.0  34112  288.77 0862.03
2015 04 09 14 13 57 .52    -325    -69    -79    333    343 257.9 -13.4  34028  287.34 0862.03
2015 04 09 14 13 57 .77    -301    -71    -75    310    320 256.7 -13.7  34020  287.21 0862.03
2015 04 09 14 13 58 .02    -340   -116    -72    360    368 251.2 -11.3  34000  286.88 0862.03
2015 04 09 14 13 58 .27    -382   -121    -81    401    410 252.4 -11.5  34006  286.96 0862.03
2015 04 09 14 13 58 .52    -346    -97   -106    360    376 254.2 -16.5  34000  286.86 0862.03
2015 04 09 14 13 58 .77    -341   -113    -87    360    371 251.6 -13.7  34002  286.91 0862.03
2015 04 09 14 13 59 .03    -331   -131    -68    357    364 248.4 -10.9  33994  286.75 0862.03
2015 04 09 14 13 59 .27    -333   -136    -59    360    365 247.8  -9.3  34036  287.49 0862.03
2015 04 09 14 13 59 .52    -358   -167    -51    396    400 244.9  -7.4  33998  286.83 0862.02
2015 04 09 14 13 59 .78    -343   -166    -65    382    388 244.1  -9.7  33994  286.78 0862.02
2015 04 09 14 14 00 .04    -338   -130    -64    363    369 249.0 -10.1  33994  286.75 0862.02
2015 04 09 14 14 00 .29    -332    -76    -63    341    347 257.1 -10.5  33992  286.73 0862.02
2015 04 09 14 14 00 .54    -319   -113    -61    339    345 250.5 -10.3  33988  286.66 0862.02
2015 04 09 14 14 00 .79    -330   -101    -67    346    353 253.0 -11.0  33990  286.69 0862.02
2015 04 09 14 14 01 .04    -311    -80    -63    322    329 255.5 -11.1  33988  286.67 0862.02
2015 04 09 14 14 01 .29    -278    -91    -48    293    297 251.8  -9.4  33990  286.68 0862.03
2015 04 09 14 14 01 .54    -263    -83    -45    276    280 252.5  -9.4  33996  286.80 0862.03
2015 04 09 14 14 01 .79    -299    -90    -63    313    320 253.2 -11.5  33992  286.72 0862.03
2015 04 09 14 14 02 .04    -312    -96    -79    327    337 252.8 -13.7  33988  286.66 0862.03
2015 04 09 14 14 02 .29    -290    -95    -48    306    310 251.8  -9.0  33992  286.72 0862.03
2015 04 09 14 14 02 .54    -280    -85    -56    293    299 253.1 -10.9  33990  286.68 0862.03
2015 04 09 14 14 02 .79    -281    -90    -48    296    301 252.2  -9.3  33986  286.63 0862.03
2015 04 09 14 14 03 .04    -295    -69    -59    303    309 256.8 -11.1  33990  286.68 0862.03
2015 04 09 14 14 03 .30    -261    -40    -51    265    270 261.2 -10.9  33992  286.72 0862.03
2015 04 09 14 14 03 .55    -247    -28    -47    249    254 263.4 -10.9  33998  286.84 0862.03
2015 04 09 14 14 03 .79    -283    -39    -61    286    293 262.0 -12.2  33992  286.72 0862.03
2015 04 09 14 14 04 .05    -301    -37    -56    304    310 262.9 -10.5  33992  286.72 0862.03
2015 04 09 14 14 04 .30    -296    -24    -63    298    305 265.2 -12.0  33988  286.65 0862.03
2015 04 09 14 14 04 .55    -282    -45    -58    286    292 260.8 -11.5  33990  286.68 0862.03
2015 04 09 14 14 04 .80    -284    -38    -64    287    295 262.3 -12.6  33990  286.68 0862.03
2015 04 09 14 14 05 .05    -259    -32    -52    262    268 262.8 -11.3  33998  286.82 0862.03
2015 04 09 14 14 05 .30    -239    -37    -57    242    249 261.2 -13.3  33998  286.84 0862.03
2015 04 09 14 14 05 .55    -218    -16    -43    219    224 265.6 -11.1  34020  287.20 0862.03
2015 04 09 14 14 05 .80    -226    -17    -39    227    231 265.7  -9.8  34008  287.01 0862.03
2015 04 09 14 14 06 .05    -163    -25    -20    166    168 261.0  -6.9  34012  287.08 0862.03
2015 04 09 14 14 06 .30    -241    -40    -52    245    251 260.4 -12.2  34002  286.90 0862.03
2015 04 09 14 14 06 .55    -269    -63    -54    277    283 256.8 -11.1  33988  286.67 0862.03
2015 04 09 14 14 06 .80    -281    -66    -68    289    297 256.7 -13.3  33990  286.70 0862.03
2015 04 09 14 14 07 .06    -252    -20    -36    253    256 265.4  -8.2  33998  286.84 0862.03
2015 04 09 14 14 07 .31    -261    -53    -62    267    275 258.5 -13.2  33992  286.72 0862.03
2015 04 09 14 14 07 .57    -262    -27    -60    264    271 263.9 -12.9  33994  286.77 0862.03
2015 04 09 14 14 07 .81    -261    -44    -53    265    271 260.4 -11.5  33996  286.79 0862.03
2015 04 09 14 14 08 .07    -261    -17    -51    262    268 266.3 -11.1  34004  286.92 0862.03
2015 04 09 14 14 08 .32    -246     -8    -56    247    254 268.1 -12.9  34040  287.53 0862.03
2015 04 09 14 14 08 .56    -230    -19    -54    231    238 265.2 -13.2  34016  287.12 0862.03
2015 04 09 14 14 08 .82    -243    -29    -62    245    253 263.2 -14.3  33990  286.68 0862.03
2015 04 09 14 14 09 .07    -231    -13    -46    232    237 266.7 -11.3  33996  286.79 0862.03
2015 04 09 14 14 09 .32    -227     -3    -41    228    232 269.1 -10.3  33994  286.76 0862.03
2015 04 09 14 14 09 .57    -219    -29    -52    221    228 262.3 -13.3  33998  286.83 0862.03
2015 04 09 14 14 09 .82    -198      3    -18    199    200 270.9  -5.4  34022  287.23 0862.03
2015 04 09 14 14 10 .07    -204    -14    -36    205    209 265.9 -10.1  34046  287.65 0862.03
2015 04 09 14 14 10 .32    -144    -39    -19    150    152 254.9  -7.3  34078  288.20 0862.03
2015 04 09 14 14 10 .57    -220     16    -52    221    228 274.3 -13.3  34026  287.30 0862.03
2015 04 09 14 14 10 .83    -182    -70    -46    196    202 248.9 -13.4  34058  287.84 0862.03
2015 04 09 14 14 11 .07    -110     -8     -4    111    112 265.6  -2.2  34098  288.53 0862.03
2015 04 09 14 14 11 .32    -143    -47    -21    151    153 251.8  -8.2  34104  288.64 0862.03
2015 04 09 14 14 11 .57    -134     16    -41    136    143 277.0 -17.0  34070  288.04 0862.03
2015 04 09 14 14 11 .82    -176      3    -34    177    181 271.3 -11.1  34028  287.35 0862.03
2015 04 09 14 14 12 .08    -178      0    -56    179    188 270.1 -17.5  34002  286.91 0862.03
2015 04 09 14 14 12 .33    -133      0    -22    134    136 270.4  -9.4  34030  287.37 0862.03
2015 04 09 14 14 12 .57    -174    -13    -51    175    183 265.6 -16.4  34000  286.86 0862.03
2015 04 09 14 14 12 .83    -191      0    -45    192    198 269.9 -13.4  34014  287.11 0862.03
2015 04 09 14 14 13 .08    -176    -13    -36    177    181 265.7 -11.6  34020  287.20 0862.04
2015 04 09 14 14 13 .33    -118     -7    -21    119    121 266.5 -10.3  34020  287.20 0862.04
2015 04 09 14 14 13 .58     -40     47     19     63     66 319.5  17.3  34064  287.94 0862.04
2015 04 09 14 14 13 .84     -67     -5    -18     68     71 265.7 -15.4  34100  288.55 0862.04
2015 04 09 14 14 14 .09       9     10     45     14     47  43.4  81.8  34118  288.86 0862.04
2015 04 09 14 14 14 .34     -77      5    -27     78     82 274.3 -23.8  34084  288.28 0862.04
2015 04 09 14 14 14 .59     -16     -7     23     18     29 244.7  56.4  34092  288.42 0862.04
2015 04 09 14 14 14 .84    -146     24    -50    149    158 279.6 -18.7  34018  287.16 0862.03
2015 04 09 14 14 15 .09    -119     -4    -13    120    121 267.9  -6.2  34030  287.37 0862.03
2015 04 09 14 14 15 .34    -189    -10    -27    190    193 266.7  -8.2  34012  287.06 0862.03
2015 04 09 14 14 15 .59    -220      3    -42    221    226 271.0 -10.9  33998  286.83 0862.03
2015 04 09 14 14 15 .84    -199    -21    -41    201    206 263.9 -11.5  34004  286.93 0862.03
2015 04 09 14 14 16 .10    -148     29    -27    151    154 281.4 -10.1  34016  287.13 0862.03
2015 04 09 14 14 16 .34    -151      9    -27    152    155 273.5 -10.3  34006  286.98 0862.03
2015 04 09 14 14 16 .60    -137      8    -38    138    144 273.5 -15.5  34006  286.96 0862.03
2015 04 09 14 14 16 .85     -98     11    -34     99    105 276.6 -19.1  34008  287.01 0862.03
2015 04 09 14 14 17 .10    -124    -12    -39    125    132 264.3 -17.5  34004  286.94 0862.03
2015 04 09 14 14 17 .35    -171     27    -42    174    180 279.2 -13.7  34002  286.91 0862.03
2015 04 09 14 14 17 .60    -199      9    -40    200    205 272.6 -11.5  33992  286.73 0862.03
2015 04 09 14 14 17 .85    -200     -2    -52    201    208 269.4 -14.5  33992  286.73 0862.03
2015 04 09 14 14 18 .10    -195      9    -43    196    201 272.8 -12.6  33990  286.69 0862.03
2015 04 09 14 14 18 .35    -203     15    -53    204    211 274.4 -14.7  33990  286.69 0862.02
2015 04 09 14 14 18 .60    -219     19    -42    220    225 275.2 -10.9  33988  286.67 0862.02
2015 04 09 14 14 18 .85    -211     16    -49    212    218 274.4 -13.2  33990  286.69 0862.02
2015 04 09 14 14 19 .10    -196      7    -54    197    205 272.1 -15.5  33988  286.67 0862.02
2015 04 09 14 14 19 .35    -181     25    -35    183    187 277.9 -10.9  33988  286.67 0862.02
2015 04 09 14 14 19 .60    -180     40    -34    185    189 282.6 -10.5  34000  286.88 0862.02
2015 04 09 14 14 19 .85    -181     60    -24    191    193 288.4  -7.3  34004  286.93 0862.02
2015 04 09 14 14 20 .10    -172     32    -11    175    176 280.6  -3.9  34022  287.23 0862.02
2015 04 09 14 14 20 .35    -190     43    -26    195    197 283.0  -7.7  34002  286.91 0862.02
2015 04 09 14 14 20 .60    -197     34    -39    201    205 279.9 -11.1  33992  286.74 0862.02
2015 04 09 14 14 20 .87    -183     60    -37    193    197 288.4 -11.1  34000  286.86 0862.02
2015 04 09 14 14 21 .11    -176     30    -56    179    188 279.7 -17.6  33990  286.69 0862.02
2015 04 09 14 14 21 .36    -175     39    -64    180    192 282.6 -19.7  33992  286.73 0862.02
2015 04 09 14 14 21 .61    -178     34    -60    182    192 281.0 -18.3  33992  286.73 0862.02
2015 04 09 14 14 21 .87    -194     51    -60    201    210 284.8 -16.6  33992  286.73 0862.02
2015 04 09 14 14 22 .11    -196     55    -43    204    209 285.9 -11.9  33990  286.69 0862.02
2015 04 09 14 14 22 .37    -200     39    -33    204    207 281.2  -9.3  33992  286.74 0862.02
2015 04 09 14 14 22 .62    -193     13    -39    194    198 273.9 -11.5  33992  286.73 0862.02
2015 04 09 14 14 22 .87    -182     -1    -44    183    189 269.4 -13.7  33992  286.73 0862.02
2015 04 09 14 14 23 .12    -191     63    -29    202    205 288.4  -8.2  33994  286.78 0862.02
2015 04 09 14 14 23 .37    -190     57    -30    199    202 286.8  -8.6  33994  286.78 0862.02
2015 04 09 14 14 23 .62    -186     38    -39    190    195 281.7 -11.6  33994  286.78 0862.02
2015 04 09 14 14 23 .87    -156     32    -20    160    162 281.7  -7.2  34004  286.93 0862.02
2015 04 09 14 14 24 .12    -132     17    -28    134    137 277.5 -11.9  33998  286.84 0862.02
2015 04 09 14 14 24 .37     -68      9     -3     69     70 277.9  -3.1  34012  287.06 0862.02
2015 04 09 14 14 24 .63     -70     -5    -24     71     76 265.7 -18.7  34014  287.11 0862.02
2015 04 09 14 14 24 .87     -65     12    -24     67     72 280.6 -19.6  34020  287.20 0862.02
2015 04 09 14 14 25 .12     -72     13     14     74     76 280.6  11.1  34018  287.16 0862.02
2015 04 09 14 14 25 .38    -135     26    -15    138    139 281.0  -6.2  34024  287.28 0862.02
2015 04 09 14 14 25 .63    -119     36    -33    125    130 286.9 -15.0  34016  287.15 0862.02
2015 04 09 14 14 25 .88    -139      8     -7    140    141 273.5  -3.2  34036  287.49 0862.02
2015 04 09 14 14 26 .13     -66      9     15     67     69 277.9  13.2  34056  287.81 0862.02
2015 04 09 14 14 26 .38     -76     -5    -20     77     80 265.7 -15.0  34054  287.77 0862.02
2015 04 09 14 14 26 .63    -179     31    -23    182    184 279.9  -7.2  34056  287.81 0862.02
2015 04 09 14 14 26 .88    -137     32    -19    141    143 283.3  -7.7  34046  287.65 0862.02
2015 04 09 14 14 27 .13     -89      0    -31     90     96 270.0 -19.1  34066  287.99 0862.02
2015 04 09 14 14 27 .38     -99     16    -16    101    103 279.2  -9.3  34052  287.74 0862.02
2015 04 09 14 14 27 .63    -178      0    -37    179    183 270.1 -11.9  34068  288.03 0862.02
2015 04 09 14 14 27 .89    -203    -47    -42    209    214 256.7 -11.6  34052  287.76 0862.02
2015 04 09 14 14 28 .14    -200    -30    -48    203    209 261.4 -13.4  34068  288.03 0862.02
2015 04 09 14 14 28 .39    -115      8     17    116    118 274.4   8.5  34096  288.48 0862.02
2015 04 09 14 14 28 .64    -106     43    -32    115    120 292.2 -15.5  34118  288.86 0862.02
2015 04 09 14 14 28 .89    -173    -63    -21    185    187 249.8  -6.7  34036  287.47 0862.02
2015 04 09 14 14 29 .14    -177    -53    -53    185    193 253.2 -16.0  34014  287.10 0862.02
2015 04 09 14 14 29 .40    -183    -73    -62    198    208 248.2 -17.6  34088  288.35 0862.02
2015 04 09 14 14 29 .65    -177    -24    -54    179    188 262.1 -17.0  34120  288.91 0862.02
2015 04 09 14 14 29 .90    -159     -5    -12    160    161 267.9  -4.6  34138  289.19 0862.02
2015 04 09 14 14 30 .15    -111    -26     -4    115    116 256.7  -2.2  34158  289.53 0862.02
2015 04 09 14 14 30 .39    -190   -106    -31    218    221 240.9  -8.2  34202  290.30 0862.02
2015 04 09 14 14 30 .65    -172    -67    -33    185    189 248.7 -10.3  34168  289.70 0862.02
2015 04 09 14 14 30 .90    -109    -66    -17    128    130 238.9  -7.7  34158  289.55 0862.02
2015 04 09 14 14 31 .15    -160    -12      2    161    162 265.6   1.0  34142  289.26 0862.02
2015 04 09 14 14 31 .40    -150    -96    -41    179    184 237.5 -13.2  34200  290.25 0862.02
2015 04 09 14 14 31 .65    -128    -21    -26    130    133 260.4 -11.3  34224  290.65 0862.02
2015 04 09 14 14 31 .90     -75    -24     -3     79     80 252.3  -2.2  34232  290.79 0862.02
2015 04 09 14 14 32 .15     -80     16    -26     82     87 281.5 -17.6  34260  291.28 0862.02
2015 04 09 14 14 32 .40     -39     25    -10     47     49 302.4 -12.4  34254  291.16 0862.02
2015 04 09 14 14 32 .65     -31     36    -23     48     53 319.5 -31.6  34172  289.79 0862.02
2015 04 09 14 14 32 .91       7    -52     28     53     59 172.0  30.3  34202  290.30 0862.02
2015 04 09 14 14 33 .15    -140    -38    -49    146    155 254.9 -18.7  34094  288.45 0862.02
2015 04 09 14 14 33 .41    -167    -44    -42    173    179 255.2 -13.7  34056  287.81 0862.02
2015 04 09 14 14 33 .65    -155    -26    -17    158    159 260.4  -6.2  34024  287.28 0862.02
2015 04 09 14 14 33 .91    -156    -44    -45    163    170 254.1 -15.5  33998  286.84 0862.02
2015 04 09 14 14 34 .16    -161    -17    -34    162    166 263.9 -11.9  34010  287.05 0862.02
2015 04 09 14 14 34 .41    -153    -53    -29    163    166 250.7 -10.1  34026  287.30 0862.02
2015 04 09 14 14 34 .67    -165    -45    -29    172    175 254.7  -9.6  34006  286.98 0862.02
2015 04 09 14 14 34 .92    -161    -45    -31    168    171 254.3 -10.5  34008  287.01 0862.02
2015 04 09 14 14 35 .17    -165    -45    -29    172    175 254.7  -9.8  34000  286.88 0862.02
2015 04 09 14 14 35 .42    -167    -34    -34    171    175 258.3 -11.3  34010  287.03 0862.02
2015 04 09 14 14 35 .67    -155    -32    -37    159    164 258.3 -13.2  34006  286.96 0862.02
2015 04 09 14 14 35 .92    -159    -49    -27    167    170 252.7  -9.3  34010  287.05 0862.02
2015 04 09 14 14 36 .17    -148    -46    -24    155    157 252.7  -8.8  34008  287.00 0862.02
2015 04 09 14 14 36 .42    -131    -21    -31    133    137 260.8 -13.3  34018  287.18 0862.03
2015 04 09 14 14 36 .67    -133      9    -22    134    136 274.3  -9.4  34026  287.30 0862.03
2015 04 09 14 14 36 .92     -71     13      4     73     74 280.6   3.8  34036  287.47 0862.03
2015 04 09 14 14 37 .17    -118    -32    -12    123    124 254.5  -5.6  34020  287.20 0862.03
2015 04 09 14 14 37 .42    -130    -34    -27    135    138 255.4 -11.5  34010  287.03 0862.03
2015 04 09 14 14 37 .67    -137      0    -28    138    141 270.4 -11.5  34016  287.13 0862.03
2015 04 09 14 14 37 .92    -172     12    -29    173    176 274.3  -9.8  34014  287.10 0862.03
2015 04 09 14 14 38 .17    -178      4    -39    179    184 271.5 -12.4  34010  287.03 0862.03
2015 04 09 14 14 38 .42    -180      4    -32    181    184 271.5 -10.3  34014  287.11 0862.03
2015 04 09 14 14 38 .68    -153     31    -33    157    161 281.5 -12.2  34016  287.15 0862.03
2015 04 09 14 14 38 .92    -140     16     -6    141    142 276.6  -2.6  34022  287.23 0862.03
2015 04 09 14 14 39 .18    -149      9    -35    150    155 273.5 -13.4  34014  287.11 0862.04
2015 04 09 14 14 39 .43     -59    -31     10     67     68 242.0   9.0  34042  287.59 0862.04
2015 04 09 14 14 39 .68     -43     24    -16     50     53 299.8 -17.6  34058  287.84 0862.04
2015 04 09 14 14 39 .93    -113     -8    -14    114    115 265.7  -7.3  34056  287.81 0862.04
2015 04 09 14 14 40 .18     -51     -7     -1     52     53 261.2  -1.3  34062  287.92 0862.04
2015 04 09 14 14 40 .43     -66     22      3     70     71 288.6   2.9  34078  288.18 0862.04
2015 04 09 14 14 40 .68     -32     10    -25     34     42 288.6 -45.1  34082  288.26 0862.04
2015 04 09 14 14 40 .93     -13      1     12     14     18 277.9  52.0  34090  288.40 0862.03
2015 04 09 14 14 41 .18     -24    -61     -6     66     67 201.8  -5.2  34098  288.53 0862.03
2015 04 09 14 14 41 .43      -8    -48     16     49     52 189.8  18.9  34108  288.69 0862.03
2015 04 09 14 14 41 .69     -17    -36      7     40     41 205.5  10.1  34106  288.65 0862.03
2015 04 09 14 14 41 .94     -66    -55      0     87     88 230.0  -0.3  34094  288.45 0862.03
2015 04 09 14 14 42 .19     -91    -94    -11    131    132 224.1  -5.1  34084  288.30 0862.03
2015 04 09 14 14 42 .45     -90    -71    -10    115    116 231.8  -5.2  34096  288.50 0862.03
2015 04 09 14 14 42 .69     -74    -76      5    107    108 224.1   2.8  34094  288.45 0862.03
2015 04 09 14 14 42 .94     -78    -88      9    118    119 221.4   4.4  34084  288.30 0862.03
2015 04 09 14 14 43 .20     -80    -75     -4    110    111 226.9  -2.2  34080  288.21 0862.03
2015 04 09 14 14 43 .45     -69    -89     40    113    119 217.8  20.0  34088  288.36 0862.03
2015 04 09 14 14 43 .70     -62    -80     35    102    109 217.8  19.2  34102  288.58 0862.04
2015 04 09 14 14 43 .95     -68    -88     10    112    113 217.4   5.4  34110  288.74 0862.04
2015 04 09 14 14 44 .20     -43    -45     38     63     73 223.3  34.4  34126  288.99 0862.04
2015 04 09 14 14 44 .45     -63    -47     81     79    113 233.1  50.1  34142  289.28 0862.04
2015 04 09 14 14 44 .70     -11     -9     68     15     69 230.5  89.0  34164  289.65 0862.04
2015 04 09 14 14 44 .95     -38    -12     57     40     69 251.8  61.5  34170  289.74 0862.04
2015 04 09 14 14 45 .20     -41    -42     82     59    101 224.2  60.6  34130  289.06 0862.04
2015 04 09 14 14 45 .45     -22    -33     52     40     65 214.3  58.5  34132  289.09 0862.03
2015 04 09 14 14 45 .70     -25     13     47     29     55 297.1  64.7  34160  289.57 0862.03
2015 04 09 14 14 45 .95     -28      9     25     30     39 288.6  43.8  34166  289.69 0862.03
2015 04 09 14 14 46 .20     -20     45     32     50     59 335.5  35.6  34196  290.18 0862.03
2015 04 09 14 14 46 .45      16    -28     30     33     44 149.3  47.9  34210  290.43 0862.03
2015 04 09 14 14 46 .70      12    -30     19     33     38 158.2  35.5  34206  290.35 0862.03
2015 04 09 14 14 46 .95       0      1     32      2     32 341.5  90.0  34196  290.19 0862.03
2015 04 09 14 14 47 .20     -20      6     -1     22     23 288.4  -3.1  34188  290.06 0862.03
2015 04 09 14 14 47 .45     -11     12     41     17     44 316.8  77.1  34190  290.08 0862.03
2015 04 09 14 14 47 .70       0    -16    -19     17     25 182.7 -56.6  34188  290.06 0862.03
2015 04 09 14 14 47 .95       4     -8      5     10     11 151.0  27.2  34190  290.09 0862.03
2015 04 09 14 14 48 .20      -4    -20     -5     21     22 193.4 -15.5  34172  289.79 0862.03
2015 04 09 14 14 48 .46       3    -27      9     28     30 172.0  19.4  34146  289.33 0862.03
2015 04 09 14 14 48 .71     -74    -43    -14     86     88 239.8  -9.3  34040  287.54 0862.03
2015 04 09 14 14 48 .97     -97    -42    -24    106    109 246.5 -12.9  34034  287.43 0862.03
2015 04 09 14 14 49 .22     -93    -47    -15    105    107 242.9  -8.2  34052  287.74 0862.03
2015 04 09 14 14 49 .47     -90    -42    -14    100    102 244.7  -8.2  34040  287.55 0862.03
2015 04 09 14 14 49 .72    -116    -36    -24    122    125 252.7 -11.3  34042  287.59 0862.03
2015 04 09 14 14 49 .97     -96    -53    -19    110    112 241.2 -10.3  34046  287.65 0862.03
2015 04 09 14 14 50 .22     -54    -18     -7     57     58 251.4  -7.3  34072  288.08 0862.03
2015 04 09 14 14 50 .47     -98     17    -28    100    103 280.1 -20.7  34078  288.18 0862.03
2015 04 09 14 14 50 .72     -21     33     34     40     52 327.5  44.8  34098  288.52 0862.03
2015 04 09 14 14 50 .97     -70     44    -20     83     86 302.4 -13.9  34098  288.53 0862.03
2015 04 09 14 14 51 .23      -9     48     17     49     53 349.3  19.4  34106  288.67 0862.03
2015 04 09 14 14 51 .48     -23     33      1     41     42 324.8   1.8  34128  289.04 0862.03
2015 04 09 14 14 51 .73     -24      1      3     25     26 272.6   6.9  34130  289.08 0862.03
2015 04 09 14 14 51 .97      18    -31     13     37     40 149.3  19.4  34128  289.02 0862.03
2015 04 09 14 14 52 .23      28     -9     21     30     36 108.6  37.6  34138  289.19 0862.03
2015 04 09 14 14 52 .48      25    -17      9     31     33 124.2  17.3  34140  289.23 0862.03
2015 04 09 14 14 52 .73       4     -7      0      9     10 151.0  -3.1  34144  289.31 0862.03
2015 04 09 14 14 52 .98      14      1      1     15     16  85.6   6.9  34144  289.31 0862.03
2015 04 09 14 14 53 .23      11     -3     12     12     16 108.4  50.1  34132  289.09 0862.03
2015 04 09 14 14 53 .48     -14     17     12     23     25 320.4  29.3  34100  288.55 0862.03
2015 04 09 14 14 53 .73      10     30     23     32     39  18.5  39.7  34102  288.58 0862.03
2015 04 09 14 14 53 .98     -10      7     10     13     16 306.0  39.7  34100  288.57 0862.03
2015 04 09 14 14 54 .23      27     -2    -18     28     33  94.3 -40.0  34096  288.50 0862.03
2015 04 09 14 14 54 .48      33      2     -1     34     35  85.7  -2.2  34108  288.69 0862.03
2015 04 09 14 14 54 .73     -19     24    -32     31     44 322.2 -53.5  34128  289.04 0862.03
2015 04 09 14 14 54 .98     -98     -7    -37     99    105 265.6 -25.9  34122  288.94 0862.03
2015 04 09 14 14 55 .23     -80      8    -25     81     85 275.7 -17.6  34124  288.96 0862.02
2015 04 09 14 14 55 .49     -98     26    -41    102    109 285.1 -27.4  34076  288.14 0862.02
2015 04 09 14 14 55 .74      -7     56     25     57     62 352.0  25.1  34112  288.77 0862.02
2015 04 09 14 14 56 .00    -132     60    -34    146    151 294.4 -13.3  34032  287.42 0862.02
2015 04 09 14 14 56 .25    -146     48    -11    154    155 288.2  -4.1  34036  287.49 0862.02
2015 04 09 14 14 56 .50    -129     18    -11    131    132 277.9  -5.1  34046  287.65 0862.02
2015 04 09 14 14 56 .75    -116     23    -16    119    121 281.5  -7.7  34044  287.60 0862.02
2015 04 09 14 14 57 .00     -93      0      4     94     95 270.0   2.9  34068  288.01 0862.02
2015 04 09 14 14 57 .25     -77    -13     12     79     81 260.3   9.0  34060  287.87 0862.03
2015 04 09 14 14 57 .50     -99    -47    -14    110    111 244.2  -7.3  34052  287.76 0862.03
2015 04 09 14 14 57 .75     -43    -29     32     53     61 235.8  34.4  34066  287.99 0862.03
2015 04 09 14 14 58 .00      15     14     54     21     57  46.9  79.2  34098  288.53 0862.03
2015 04 09 14 14 58 .25       0     37     17     38     41 359.1  25.1  34116  288.82 0862.03
2015 04 09 14 14 58 .50     -18     58      7     61     62 342.2   6.9  34110  288.72 0862.03
2015 04 09 14 14 58 .75      -6     34    -25     35     43 348.5 -44.1  34110  288.74 0862.03
2015 04 09 14 14 59 .00       0     44     -9     45     46 359.1 -11.3  34126  289.01 0862.02
2015 04 09 14 14 59 .25      -8     12     18     15     23 327.5  54.3  34156  289.50 0862.02
2015 04 09 14 14 59 .50     -14     56     11     58     60 345.7  11.1  34154  289.46 0862.02
2015 04 09 14 14 59 .75      -7     -8     32     11     33 219.6  81.0  34168  289.72 0862.02
2015 04 09 14 15 00 .00      16      0      6     17     19  90.8  19.2  34158  289.55 0862.02
2015 04 09 14 15 00 .25      31     -8      4     33     34 105.1   6.9  34136  289.18 0862.02
2015 04 09 14 15 00 .50       1      8     -4      9      9  11.6 -23.3  34146  289.33 0862.02
2015 04 09 14 15 00 .75       5     18    -12     19     22  18.3 -39.9  34148  289.38 0862.02
2015 04 09 14 15 01 .00      31     11     -3     34     35  70.0  -5.2  34154  289.46 0862.02
2015 04 09 14 15 01 .26      19      7     -6     21     23  70.0 -17.6  34140  289.24 0862.02
2015 04 09 14 15 01 .51      42    -13      8     45     46 107.7  10.1  34136  289.18 0862.02
2015 04 09 14 15 01 .75       4      0     -8      5      9 101.5 -69.1  34124  288.96 0862.02
2015 04 09 14 15 02 .01     -65    -25    -34     70     77 248.3 -31.7  34098  288.53 0862.02
2015 04 09 14 15 02 .26    -111    -41     -9    119    120 249.6  -4.6  34090  288.40 0862.02
2015 04 09 14 15 02 .52    -137    -22    -50    139    147 260.8 -24.8  34100  288.55 0862.02
2015 04 09 14 15 02 .77    -149    -30    -28    153    156 258.6 -10.5  34136  289.18 0862.02
2015 04 09 14 15 03 .02    -175    -58    -23    185    187 251.6  -7.2  34100  288.55 0862.02
2015 04 09 14 15 03 .27    -203    -61    -35    213    216 253.2  -9.3  34046  287.64 0862.02
2015 04 09 14 15 03 .52    -212    -69    -36    224    228 251.8  -9.3  34042  287.57 0862.02
2015 04 09 14 15 03 .77    -213    -54    -28    220    222 255.6  -7.3  34056  287.81 0862.02
2015 04 09 14 15 04 .03    -203    -91    -28    223    225 245.8  -7.2  34088  288.36 0862.02
2015 04 09 14 15 04 .28    -171    -87    -24    193    195 242.9  -7.3  34116  288.82 0862.01
2015 04 09 14 15 04 .53    -150    -50    -25    159    162 251.6  -9.0  34132  289.09 0862.01
2015 04 09 14 15 04 .77    -117    -74     -7    139    140 237.5  -3.1  34152  289.45 0862.01
2015 04 09 14 15 05 .03    -169    -77     -8    186    187 245.4  -2.6  34138  289.19 0862.01
2015 04 09 14 15 05 .27    -209    -73    -20    222    224 250.7  -5.4  34070  288.06 0862.01
2015 04 09 14 15 05 .53    -207   -122    -37    241    244 239.4  -8.8  34068  288.02 0862.01
2015 04 09 14 15 05 .78    -201   -128    -21    239    240 237.6  -5.1  34136  289.17 0862.01
2015 04 09 14 15 06 .02    -246   -130    -27    279    281 242.0  -5.6  34108  288.68 0862.02
2015 04 09 14 15 06 .27    -283   -210     -9    353    354 233.4  -1.6  34022  287.23 0862.02
2015 04 09 14 15 06 .53    -272   -173    -51    323    328 237.6  -9.1  34012  287.06 0862.02
2015 04 09 14 15 06 .78    -273   -176    -55    326    331 237.1  -9.7  34006  286.96 0862.02
2015 04 09 14 15 07 .04    -257   -186    -63    318    325 234.1 -11.3  34016  287.14 0862.02
2015 04 09 14 15 07 .28    -284   -210    -45    354    357 233.5  -7.3  34044  287.62 0862.02
2015 04 09 14 15 07 .53    -238   -205    -48    315    319 229.3  -8.8  34008  286.99 0862.02
2015 04 09 14 15 07 .78    -273   -198    -40    338    341 234.0  -6.9  34060  287.89 0862.02
2015 04 09 14 15 08 .03    -289   -184    -48    343    347 237.5  -8.0  34042  287.57 0862.02
2015 04 09 14 15 08 .28    -275   -209    -32    346    348 232.7  -5.4  34032  287.39 0862.02
2015 04 09 14 15 08 .54    -258   -220    -31    340    342 229.6  -5.4  34042  287.56 0862.02
2015 04 09 14 15 08 .78    -228   -228    -11    323    324 225.0  -2.1  34054  287.78 0862.02
2015 04 09 14 15 09 .03    -247   -237    -44    343    346 226.1  -7.3  34006  286.98 0862.02
2015 04 09 14 15 09 .29    -249   -243    -28    349    351 225.7  -4.6  34006  286.96 0862.02
2015 04 09 14 15 09 .55    -295   -214    -32    365    367 234.1  -5.1  34126  288.99 0862.02
2015 04 09 14 15 09 .79    -338   -207    -30    397    399 238.5  -4.4  34130  289.06 0862.02
2015 04 09 14 15 10 .05    -321   -191    -76    374    382 239.2 -11.6  34094  288.44 0862.02
2015 04 09 14 15 10 .30    -357   -186    -60    403    408 242.5  -8.6  34100  288.55 0862.02
2015 04 09 14 15 10 .55    -365   -172    -15    404    405 244.7  -2.2  34068  288.02 0862.02
2015 04 09 14 15 10 .80    -310   -188    -32    363    365 238.7  -5.1  34066  287.98 0862.02
2015 04 09 14 15 11 .05    -315   -129    -51    341    345 247.7  -8.6  34084  288.30 0862.02
2015 04 09 14 15 11 .30    -335   -164    -36    374    376 243.9  -5.6  34064  287.93 0862.02
2015 04 09 14 15 11 .55    -317   -144    -44    349    352 245.5  -7.3  34064  287.94 0862.02
2015 04 09 14 15 11 .80    -285   -134    -56    315    320 244.8 -10.1  34056  287.80 0862.02
2015 04 09 14 15 12 .05    -306   -127    -69    332    340 247.4 -11.8  34026  287.30 0862.02
2015 04 09 14 15 12 .30    -317   -118    -53    339    344 249.6  -9.0  34020  287.20 0862.02
2015 04 09 14 15 12 .55    -331   -114    -64    351    357 251.0 -10.4  34016  287.15 0862.02
2015 04 09 14 15 12 .81    -292   -117    -60    315    321 248.0 -10.9  34024  287.28 0862.02
2015 04 09 14 15 13 .05    -278   -132    -51    308    313 244.6  -9.5  34024  287.28 0862.02
2015 04 09 14 15 13 .31    -267   -175    -21    320    321 236.7  -3.8  34034  287.43 0862.02
2015 04 09 14 15 13 .55    -235   -195     -6    306    307 230.2  -1.3  34046  287.63 0862.02
2015 04 09 14 15 13 .81    -201   -128    -25    239    241 237.5  -6.1  34050  287.71 0862.02
2015 04 09 14 15 14 .06    -200    -86    -21    218    220 246.7  -5.6  34086  288.31 0862.02
2015 04 09 14 15 14 .31    -250    -84    -31    264    266 251.4  -6.9  34100  288.56 0862.02
2015 04 09 14 15 14 .56    -306   -120    -46    329    333 248.6  -8.0  34056  287.81 0862.02
2015 04 09 14 15 14 .81    -302    -99    -60    318    324 251.8 -10.8  34064  287.95 0862.02
2015 04 09 14 15 15 .06    -302    -86    -54    315    320 254.1  -9.8  34126  289.00 0862.02
2015 04 09 14 15 15 .31    -274   -139    -38    308    311 243.1  -7.2  34072  288.07 0862.02
2015 04 09 14 15 15 .56    -248   -147    -63    289    296 239.3 -12.4  33988  286.65 0862.02
2015 04 09 14 15 15 .81    -242   -143    -56    282    288 239.4 -11.3  34000  286.85 0862.02
2015 04 09 14 15 16 .06    -252   -155    -69    297    306 238.4 -13.2  34026  287.29 0862.01
2015 04 09 14 15 16 .31    -243   -161    -58    292    298 236.5 -11.3  34020  287.19 0862.01
2015 04 09 14 15 16 .57    -246   -178    -16    304    305 234.0  -3.2  34034  287.44 0862.01
2015 04 09 14 15 16 .82    -281   -142    -34    316    318 243.1  -6.3  34028  287.33 0862.01
2015 04 09 14 15 17 .07    -265   -155    -27    308    310 239.6  -5.1  34030  287.38 0862.01
2015 04 09 14 15 17 .32    -278   -142    -54    313    318 242.9  -9.8  34032  287.41 0862.01
2015 04 09 14 15 17 .58    -222   -163    -46    276    280 233.8  -9.6  34036  287.46 0862.01
2015 04 09 14 15 17 .83    -234   -164    -11    286    287 234.9  -2.2  34052  287.73 0862.01
2015 04 09 14 15 18 .07    -242   -157    -25    289    291 236.9  -5.1  34028  287.33 0862.01
2015 04 09 14 15 18 .33    -249   -142    -36    287    290 240.2  -7.3  34020  287.19 0862.01
2015 04 09 14 15 18 .58    -243   -161    -26    292    294 236.5  -5.2  34020  287.19 0862.01
2015 04 09 14 15 18 .83    -241   -130    -35    275    278 241.6  -7.3  34026  287.29 0862.01
2015 04 09 14 15 19 .07    -267   -138    -25    301    303 242.7  -4.9  34068  288.00 0862.01
2015 04 09 14 15 19 .33    -248   -168    -16    300    301 235.8  -3.2  34020  287.19 0862.01
2015 04 09 14 15 19 .58    -233   -162    -33    284    286 235.1  -6.7  33994  286.77 0862.01
2015 04 09 14 15 19 .83    -228   -144    -24    270    272 237.8  -5.2  34006  286.95 0862.01
2015 04 09 14 15 20 .08    -226   -126    -18    259    260 240.9  -4.1  34006  286.95 0862.01
2015 04 09 14 15 20 .33    -205   -128    -20    242    243 238.0  -4.9  34004  286.92 0862.01
2015 04 09 14 15 20 .58    -217   -142    -14    260    261 236.7  -3.1  34014  287.11 0862.01
2015 04 09 14 15 20 .83    -221   -139    -15    262    263 237.8  -3.3  34018  287.17 0862.01
2015 04 09 14 15 21 .08    -223   -142    -24    265    267 237.5  -5.4  34010  287.04 0862.01
2015 04 09 14 15 21 .33    -218   -126    -43    252    256 240.0  -9.8  33996  286.79 0862.02
2015 04 09 14 15 21 .58    -208   -116    -40    239    243 240.9  -9.6  34012  287.07 0862.02
2015 04 09 14 15 21 .83    -205   -105    -55    231    238 242.9 -13.4  34000  286.87 0862.02
2015 04 09 14 15 22 .09    -187   -117    -43    221    226 238.0 -11.1  34016  287.15 0862.02
2015 04 09 14 15 22 .33    -178   -128    -19    220    221 234.3  -5.2  34024  287.28 0862.02
2015 04 09 14 15 22 .59    -169   -107    -21    201    203 237.6  -6.0  34048  287.67 0862.02
2015 04 09 14 15 22 .84    -163    -91    -23    188    190 240.7  -7.2  34040  287.54 0862.02
2015 04 09 14 15 23 .09    -165    -77    -10    183    184 244.8  -3.1  34076  288.16 0862.02
2015 04 09 14 15 23 .35    -200    -84    -21    217    219 247.2  -5.6  34058  287.84 0862.02
2015 04 09 14 15 23 .60    -181   -115    -19    215    216 237.6  -5.2  34062  287.92 0862.02
2015 04 09 14 15 23 .85    -163   -133     -2    211    212 230.9  -0.7  34092  288.42 0862.02
2015 04 09 14 15 24 .10    -159   -121     -7    201    202 232.7  -2.2  34096  288.50 0862.02
2015 04 09 14 15 24 .35    -180   -123    -14    219    220 235.6  -3.7  34078  288.18 0862.02
2015 04 09 14 15 24 .60    -188   -146    -17    239    240 232.2  -4.1  34068  288.02 0862.02
2015 04 09 14 15 24 .85    -184    -44    -26    190    192 256.3  -8.0  34078  288.20 0862.02
2015 04 09 14 15 25 .10    -152    -31     -6    156    157 258.5  -2.2  34096  288.48 0862.02
2015 04 09 14 15 25 .35    -238   -131    -38    272    275 241.2  -8.0  34070  288.05 0862.02
2015 04 09 14 15 25 .60    -212    -90    -27    231    233 246.9  -6.7  34096  288.48 0862.02
2015 04 09 14 15 25 .86    -265   -115    -31    290    292 246.5  -6.2  34102  288.58 0862.02
2015 04 09 14 15 26 .10    -231    -77    -20    244    245 251.4  -4.9  34128  289.03 0862.02
2015 04 09 14 15 26 .35    -244   -111    -54    269    275 245.6 -11.5  34106  288.65 0862.02
2015 04 09 14 15 26 .61    -190   -103    -12    217    218 241.6  -3.2  34112  288.75 0862.02
2015 04 09 14 15 26 .86    -145   -175     19    228    229 219.7   5.0  34178  289.87 0862.01
2015 04 09 14 15 27 .11    -155   -200      2    254    255 217.8   0.5  34218  290.56 0862.01
2015 04 09 14 15 27 .36    -181   -198     44    269    273 222.3   9.3  34258  291.22 0862.01
2015 04 09 14 15 27 .60    -153   -229     33    276    279 213.8   6.9  34232  290.80 0862.01
2015 04 09 14 15 27 .86     -89   -196     78    216    230 204.5  19.9  34224  290.67 0862.01
2015 04 09 14 15 28 .10    -149   -156     -4    216    217 223.7  -1.3  34248  291.08 0862.01
2015 04 09 14 15 28 .36    -158   -207     27    261    263 217.4   5.9  34108  288.68 0862.01
2015 04 09 14 15 28 .61    -226   -238    -30    329    331 223.5  -5.3  33994  286.78 0862.01
2015 04 09 14 15 28 .86    -198   -248    -36    318    321 218.7  -6.5  34024  287.28 0862.01
2015 04 09 14 15 29 .11    -217   -254    -48    335    339 220.5  -8.2  34024  287.27 0862.01
2015 04 09 14 15 29 .36    -214   -256    -60    335    341 219.9 -10.3  33998  286.83 0862.01
2015 04 09 14 15 29 .61    -208   -257    -47    331    335 219.0  -8.1  33990  286.69 0862.02
2015 04 09 14 15 29 .86    -165   -253    -50    303    308 213.2  -9.4  33992  286.72 0862.02
2015 04 09 14 15 30 .11    -164   -254    -42    303    307 213.0  -8.0  33998  286.82 0862.02
2015 04 09 14 15 30 .37    -143   -248    -36    287    290 209.9  -7.3  34002  286.90 0862.02
2015 04 09 14 15 30 .62    -145   -246    -36    286    289 210.7  -7.3  34004  286.92 0862.02
2015 04 09 14 15 30 .87    -167   -262    -51    311    316 212.5  -9.4  33996  286.79 0862.02
2015 04 09 14 15 31 .13    -182   -245    -56    306    312 216.5 -10.4  33986  286.63 0862.02
2015 04 09 14 15 31 .37    -180   -244    -55    304    309 216.5 -10.3  33988  286.65 0862.01
2015 04 09 14 15 31 .62    -182   -245    -56    306    312 216.5 -10.4  33986  286.63 0862.01
2015 04 09 14 15 31 .88    -178   -253    -44    310    314 215.2  -8.2  33992  286.72 0862.01
2015 04 09 14 15 32 .13    -129   -234    -13    268    269 208.9  -2.8  34004  286.94 0862.01
2015 04 09 14 15 32 .37    -136   -239     -1    276    277 209.6  -0.3  34024  287.26 0862.01
2015 04 09 14 15 32 .63    -130   -204    -27    243    245 212.6  -6.5  33996  286.79 0862.01
2015 04 09 14 15 32 .88    -113   -204    -25    234    236 208.9  -6.2  33996  286.79 0862.01
2015 04 09 14 15 33 .13    -104   -183    -22    211    213 209.6  -6.0  34000  286.88 0862.01
2015 04 09 14 15 33 .38     -97   -172    -14    198    199 209.4  -4.1  34000  286.86 0862.01
2015 04 09 14 15 33 .63    -111   -171    -22    204    206 213.0  -6.2  34004  286.93 0862.01
2015 04 09 14 15 33 .88    -108   -170    -11    202    203 212.5  -3.1  34008  287.01 0862.01
2015 04 09 14 15 34 .13    -104   -172     -7    202    203 211.2  -2.2  34016  287.15 0862.01
2015 04 09 14 15 34 .38    -107   -185     -4    215    216 210.1  -1.2  34014  287.10 0862.01
2015 04 09 14 15 34 .64    -112   -193      8    224    225 210.1   2.1  34058  287.84 0862.01
2015 04 09 14 15 34 .88     -90   -216      4    235    236 202.7   1.0  34054  287.78 0862.01
2015 04 09 14 15 35 .13    -120   -219     10    250    251 208.7   2.3  34066  287.97 0862.01
2015 04 09 14 15 35 .39    -118   -240      3    268    269 206.3   0.8  34080  288.22 0862.01
2015 04 09 14 15 35 .64     -95   -217     16    238    239 203.7   3.9  34094  288.44 0862.01
2015 04 09 14 15 35 .88     -83   -248    -35    262    265 198.7  -7.7  34060  287.88 0862.01
2015 04 09 14 15 36 .14     -80   -233    -35    247    250 199.1  -8.3  34076  288.15 0862.01
2015 04 09 14 15 36 .39     -68   -224    -28    235    237 196.9  -6.9  34130  289.07 0862.01
2015 04 09 14 15 36 .64     -86   -226    -32    243    246 200.9  -7.7  34122  288.92 0862.01
2015 04 09 14 15 36 .89    -139   -258     25    294    296 208.3   4.9  34124  288.95 0862.01
2015 04 09 14 15 37 .14    -145   -267     14    304    305 208.5   2.8  34100  288.54 0862.01
2015 04 09 14 15 37 .40    -103   -236     13    258    259 203.6   2.9  34116  288.81 0862.01
2015 04 09 14 15 37 .65    -161   -230    -36    281    284 215.0  -7.3  34092  288.41 0862.00
2015 04 09 14 15 37 .90    -122   -165     10    206    207 216.5   2.9  34122  288.94 0862.00
2015 04 09 14 15 38 .15     -78   -153    100    172    198 207.0  32.9  34128  289.02 0862.00
2015 04 09 14 15 38 .40    -119   -201    -38    234    238 210.8  -9.3  34062  287.90 0862.00
2015 04 09 14 15 38 .65     -41   -161    -28    167    170 194.3  -9.6  34072  288.08 0862.00
2015 04 09 14 15 38 .90     -51   -117     26    128    131 203.6  11.6  34082  288.25 0862.00
2015 04 09 14 15 39 .16     -10   -141     63    142    155 184.4  25.2  34142  289.28 0862.00
2015 04 09 14 15 39 .40     -38   -142     57    148    158 195.2  22.0  34158  289.53 0862.01
2015 04 09 14 15 39 .65     -77   -202    -16    217    218 200.9  -4.4  34004  286.94 0862.01
2015 04 09 14 15 39 .90     -88   -205    -28    224    226 203.2  -7.2  34014  287.10 0862.01
2015 04 09 14 15 40 .16    -124   -210    -53    245    251 210.7 -12.4  34042  287.56 0862.01
2015 04 09 14 15 40 .41    -144   -259    -76    297    307 209.0 -14.5  34044  287.61 0862.01
2015 04 09 14 15 40 .66    -124   -263    -49    292    297 205.3  -9.6  34080  288.22 0862.01
2015 04 09 14 15 40 .91    -143   -268    -61    304    311 208.1 -11.3  34032  287.39 0862.01
2015 04 09 14 15 41 .16    -118   -270     34    295    298 203.6   6.7  34096  288.49 0862.01
2015 04 09 14 15 41 .40    -157   -215     23    267    269 216.1   5.0  34074  288.10 0862.01
2015 04 09 14 15 41 .66    -120   -199    -13    233    234 211.2  -3.3  34012  287.07 0862.01
2015 04 09 14 15 41 .91    -115   -190    -10    223    224 211.2  -2.6  34012  287.06 0862.01
2015 04 09 14 15 42 .16    -126   -216    -28    251    253 210.3  -6.5  34024  287.26 0862.01
2015 04 09 14 15 42 .41    -147   -246    -47    287    291 210.8  -9.3  34018  287.16 0862.01
2015 04 09 14 15 42 .66    -138   -244    -54    281    287 209.6 -10.9  34022  287.24 0862.01
2015 04 09 14 15 42 .91    -141   -255     -6    292    293 209.0  -1.3  34022  287.22 0862.01
2015 04 09 14 15 43 .16    -124   -248    -45    278    282 206.5  -9.4  34030  287.38 0862.01
2015 04 09 14 15 43 .41    -152   -234    -36    280    283 213.0  -7.3  34026  287.29 0862.01
2015 04 09 14 15 43 .66    -140   -212    -39    255    259 213.4  -8.8  34028  287.33 0862.01
2015 04 09 14 15 43 .92    -156   -201    -66    255    264 217.8 -14.5  34028  287.33 0862.02
2015 04 09 14 15 44 .17    -129   -233    -12    267    268 209.0  -2.6  34042  287.56 0862.02
2015 04 09 14 15 44 .43    -196   -157    -14    252    253 231.4  -3.3  34044  287.61 0862.02
2015 04 09 14 15 44 .68    -156   -190     -9    246    247 219.4  -2.2  34050  287.71 0862.02
2015 04 09 14 15 44 .92    -188   -200    -25    275    277 223.3  -5.2  34040  287.53 0862.02
2015 04 09 14 15 45 .18    -194   -180    -10    265    266 227.1  -2.2  34014  287.11 0862.02
2015 04 09 14 15 45 .43    -189   -162    -39    250    254 229.3  -9.0  34028  287.34 0862.02
2015 04 09 14 15 45 .68    -164   -212    -25    269    271 217.8  -5.4  34048  287.66 0862.02
2015 04 09 14 15 45 .93    -116   -205     -8    236    237 209.6  -2.1  34066  287.99 0862.02
2015 04 09 14 15 46 .18    -100   -193     -8    218    219 207.4  -2.3  34084  288.30 0862.02
2015 04 09 14 15 46 .43     -87   -184     -4    204    205 205.3  -1.2  34096  288.48 0862.02
2015 04 09 14 15 46 .68    -101   -194     10    219    220 207.6   2.8  34084  288.30 0862.02
2015 04 09 14 15 46 .93    -111   -201      8    230    231 208.9   2.1  34082  288.26 0862.02
2015 04 09 14 15 47 .18     -88   -219      7    237    238 201.8   1.8  34108  288.68 0862.02
2015 04 09 14 15 47 .43     -93   -221     16    240    241 202.9   3.9  34108  288.68 0862.02
2015 04 09 14 15 47 .68     -89   -187     37    208    212 205.4  10.1  34112  288.75 0862.02
2015 04 09 14 15 47 .93     -94   -182     46    205    211 207.4  12.6  34090  288.40 0862.02
2015 04 09 14 15 48 .18     -71   -174     48    189    196 202.3  14.3  34098  288.53 0862.02
2015 04 09 14 15 48 .44     -35   -176     28    180    183 191.5   9.0  34086  288.33 0862.02
2015 04 09 14 15 48 .68     -31   -154     56    158    167 191.6  20.2  34096  288.50 0862.02
2015 04 09 14 15 48 .94     -64   -116     46    133    141 209.0  19.2  34112  288.77 0862.02
2015 04 09 14 15 49 .19     -83    -88    -11    122    123 223.2  -5.2  34118  288.87 0862.02
2015 04 09 14 15 49 .44     -64    -64     17     91     93 224.7  11.1  34132  289.11 0862.02
2015 04 09 14 15 49 .69     -51    -31     15     60     62 238.5  14.3  34132  289.11 0862.02
2015 04 09 14 15 49 .94     -35    -40     -3     54     55 221.4  -3.1  34138  289.19 0862.02
2015 04 09 14 15 50 .19     -62    -58      8     85     86 226.9   5.4  34138  289.19 0862.02
2015 04 09 14 15 50 .44     -75   -135      7    155    156 209.0   2.9  34134  289.13 0862.02
2015 04 09 14 15 50 .69     -91   -211     34    230    233 203.4   8.5  34160  289.57 0862.02
2015 04 09 14 15 50 .94    -107   -258     59    280    287 202.5  12.0  34170  289.73 0862.02
2015 04 09 14 15 51 .20    -135   -253     51    287    292 208.1  10.1  34164  289.64 0862.02
2015 04 09 14 15 51 .45    -146   -237    -29    279    281 211.6  -6.1  34146  289.34 0862.02
2015 04 09 14 15 51 .70    -173   -262    -22    315    316 213.4  -4.1  34126  289.00 0862.02
2015 04 09 14 15 51 .95    -157   -309     -5    347    348 207.0  -0.9  34074  288.13 0862.02
2015 04 09 14 15 52 .21    -158   -302     16    342    343 207.7   2.8  34006  286.96 0862.02
2015 04 09 14 15 52 .46    -151   -262     26    303    305 209.9   5.0  34052  287.75 0862.02
2015 04 09 14 15 52 .70    -132   -230     -5    266    267 209.9  -1.2  34020  287.19 0862.02
2015 04 09 14 15 52 .96    -147   -238    -29    280    282 211.7  -6.1  34028  287.33 0862.02
2015 04 09 14 15 53 .21    -170   -277     15    326    327 211.5   2.8  34086  288.31 0862.02
2015 04 09 14 15 53 .45    -167   -314     74    356    364 208.0  11.8  34092  288.42 0862.02
2015 04 09 14 15 53 .71    -198   -289    -22    351    352 214.5  -3.7  33994  286.75 0862.02
2015 04 09 14 15 53 .96    -222   -305    -42    378    381 216.1  -6.5  33988  286.66 0862.02
2015 04 09 14 15 54 .21    -223   -339    -28    407    408 213.4  -4.0  34030  287.38 0862.02
2015 04 09 14 15 54 .46    -191   -370     52    417    421 207.4   7.1  34002  286.91 0862.02
2015 04 09 14 15 54 .71    -164   -344     18    382    383 205.5   2.8  33994  286.78 0862.02
2015 04 09 14 15 54 .96    -147   -307    -37    341    344 205.7  -6.2  33994  286.78 0862.02
2015 04 09 14 15 55 .21    -140   -275    -62    309    316 207.0 -11.5  33992  286.74 0862.02
2015 04 09 14 15 55 .46    -143   -274    -62    310    317 207.6 -11.3  33994  286.77 0862.02
2015 04 09 14 15 55 .71    -136   -266    -38    299    302 207.1  -7.3  34002  286.89 0862.02
2015 04 09 14 15 55 .96    -139   -272    -51    306    311 207.1  -9.6  34002  286.90 0862.02
2015 04 09 14 15 56 .21    -125   -265    -37    294    297 205.3  -7.3  34016  287.14 0862.02
2015 04 09 14 15 56 .46     -99   -257    -28    276    278 201.2  -6.0  34026  287.29 0862.02
2015 04 09 14 15 56 .72    -127   -245    -32    277    279 207.4  -6.7  34038  287.51 0862.02
2015 04 09 14 15 56 .97    -149   -271    -17    310    311 208.9  -3.3  34056  287.80 0862.02
2015 04 09 14 15 57 .21    -153   -266    -53    307    312 209.9  -9.8  34026  287.31 0862.02
2015 04 09 14 15 57 .46    -176   -259    -81    314    325 214.3 -14.6  34014  287.09 0862.02
2015 04 09 14 15 57 .71    -177   -245    -54    303    308 215.8 -10.1  34016  287.12 0862.02
2015 04 09 14 15 57 .96    -208   -250    -64    326    333 219.7 -11.1  34022  287.23 0862.02
2015 04 09 14 15 58 .22    -205   -238    -43    315    318 220.8  -7.9  34034  287.44 0862.03
2015 04 09 14 15 58 .48    -217   -263    -43    342    345 219.5  -7.2  34042  287.56 0862.03
2015 04 09 14 15 58 .73    -197   -287    -49    349    353 214.5  -8.0  34044  287.62 0862.03
2015 04 09 14 15 58 .98    -126   -198     73    235    247 212.5  17.3  34092  288.41 0862.03
2015 04 09 14 15 59 .23    -154   -268     15    310    311 209.9   2.9  34044  287.60 0862.03
2015 04 09 14 15 59 .48    -226   -256    -31    342    344 221.4  -5.2  34014  287.10 0862.03
2015 04 09 14 15 59 .74    -240   -224    -43    329    332 227.0  -7.5  34022  287.25 0862.03
2015 04 09 14 15 59 .98    -104   -232     46    255    260 204.1  10.3  34118  288.85 0862.03
2015 04 09 14 16 00 .23    -132   -146     83    198    214 222.1  23.8  34102  288.60 0862.03
2015 04 09 14 16 00 .48    -146   -214    -10    260    261 214.3  -2.2  34000  286.85 0862.03
2015 04 09 14 16 00 .73    -138   -203    -22    246    248 214.3  -5.2  34002  286.90 0862.03
2015 04 09 14 16 00 .98    -159   -204    -36    259    262 217.9  -8.0  34006  286.97 0862.03
2015 04 09 14 16 01 .23    -107   -210     -4    236    237 207.1  -1.1  34012  287.06 0862.03
2015 04 09 14 16 01 .48     -89   -215     -2    233    234 202.5  -0.5  34012  287.07 0862.03
2015 04 09 14 16 01 .74     -93   -182     -6    205    206 207.2  -1.8  34012  287.06 0862.03
2015 04 09 14 16 01 .98     -94   -160    -19    186    188 210.5  -6.0  34012  287.08 0862.02
2015 04 09 14 16 02 .24    -103   -181    -42    209    214 209.6 -11.5  34004  286.93 0862.02
2015 04 09 14 16 02 .48    -106   -169    -63    200    210 212.1 -17.6  33996  286.81 0862.02
2015 04 09 14 16 02 .74     -77   -154    -55    173    181 206.7 -22.8  34000  286.86 0862.02
2015 04 09 14 16 02 .99     -94   -143    -33    172    176 213.2 -11.1  34002  286.91 0862.02
2015 04 09 14 16 03 .24     -64   -135    -19    150    152 205.3  -7.3  34034  287.45 0862.02
2015 04 09 14 16 03 .49     -70   -130    -28    148    151 208.5 -10.9  34018  287.18 0862.02
2015 04 09 14 16 03 .74     -82   -136    -34    159    163 211.2 -12.2  34012  287.06 0862.02
2015 04 09 14 16 03 .99     -70   -126    -19    145    147 209.0  -7.7  34052  287.76 0862.02
2015 04 09 14 16 04 .24    -100   -125     -1    161    162 218.7  -0.5  34076  288.16 0862.02
2015 04 09 14 16 04 .49     -71   -127    -21    146    148 209.4  -8.2  34034  287.43 0862.02
2015 04 09 14 16 04 .74     -92   -130    -22    160    162 215.2  -8.0  34066  287.98 0862.02
2015 04 09 14 16 05 .00    -107   -138    -15    175    176 217.8  -5.2  34030  287.37 0862.02
2015 04 09 14 16 05 .26     -75   -124     -8    146    147 211.2  -3.1  34050  287.72 0862.02
2015 04 09 14 16 05 .51     -72   -112     10    134    135 212.6   4.4  34088  288.35 0862.02
2015 04 09 14 16 05 .75     -58    -89     -5    107    108 213.4  -3.1  34038  287.52 0862.02
2015 04 09 14 16 06 .01     -51    -76      0     92     93 213.8  -0.3  34050  287.70 0862.02
2015 04 09 14 16 06 .25     -50    -80     -4     95     96 212.1  -2.6  34014  287.11 0862.02
2015 04 09 14 16 06 .50     -57    -86    -20    104    106 213.4 -10.9  34006  286.96 0862.02
2015 04 09 14 16 06 .75     -64    -76     -6    100    101 220.1  -3.7  34006  286.98 0862.02
2015 04 09 14 16 07 .00     -76    -96     -5    123    124 218.3  -2.6  34006  286.96 0862.02
2015 04 09 14 16 07 .26     -91    -96     -5    133    134 223.3  -2.2  34008  287.01 0862.02
2015 04 09 14 16 07 .51     -89   -109      2    141    142 219.2   0.8  34028  287.33 0862.02
2015 04 09 14 16 07 .76    -103   -105     -3    148    149 224.5  -1.2  34030  287.38 0862.02
2015 04 09 14 16 08 .01    -134   -114      5    176    177 229.6   1.8  34022  287.23 0862.02
2015 04 09 14 16 08 .25    -124   -116      8    170    171 226.9   2.8  34016  287.13 0862.02
2015 04 09 14 16 08 .52    -129   -113      5    172    173 228.9   1.8  34054  287.77 0862.02
2015 04 09 14 16 08 .76    -140   -109     14    178    179 232.0   4.6  34102  288.60 0862.02
2015 04 09 14 16 09 .01    -172   -136     -4    220    221 231.6  -1.2  34058  287.84 0862.02
2015 04 09 14 16 09 .26    -166   -155    -37    228    232 226.9  -9.3  34004  286.93 0862.02
2015 04 09 14 16 09 .51    -161   -147    -16    219    220 227.6  -4.4  34010  287.03 0862.02
2015 04 09 14 16 09 .76    -154   -135     -8    205    206 228.7  -2.2  34012  287.06 0862.02
2015 04 09 14 16 10 .01    -188   -156    -19    245    246 230.2  -4.6  34020  287.19 0862.02
2015 04 09 14 16 10 .27    -193   -206    -15    283    284 223.2  -3.1  34030  287.38 0862.02
2015 04 09 14 16 10 .51    -183   -228    -10    293    294 218.8  -2.1  34030  287.36 0862.02
2015 04 09 14 16 10 .77    -210   -210     -6    297    298 225.0  -1.2  34060  287.88 0862.02
2015 04 09 14 16 11 .02    -120   -243     18    271    272 206.3   3.8  34048  287.66 0862.02
2015 04 09 14 16 11 .27    -137   -223    -14    262    263 211.6  -3.2  34056  287.82 0862.02
2015 04 09 14 16 11 .52    -151   -273      5    313    314 209.0   1.0  34074  288.10 0862.02
2015 04 09 14 16 11 .77    -166   -273     13    320    321 211.4   2.3  34074  288.12 0862.02
2015 04 09 14 16 12 .03    -206   -252     26    326    328 219.2   4.6  34082  288.24 0862.02
2015 04 09 14 16 12 .28    -174   -265     38    318    321 213.4   6.8  34068  288.02 0862.02
2015 04 09 14 16 12 .53    -188   -227     -1    295    296 219.6  -0.3  34102  288.58 0862.02
2015 04 09 14 16 12 .78    -165   -244      4    295    296 214.2   0.8  34110  288.71 0862.02
2015 04 09 14 16 13 .03    -169   -249     36    302    305 214.2   6.9  34104  288.63 0862.02
2015 04 09 14 16 13 .28    -179   -275     23    329    330 213.0   4.0  34094  288.44 0862.02
2015 04 09 14 16 13 .53    -185   -275     27    332    334 213.9   4.7  34110  288.72 0862.02
2015 04 09 14 16 13 .78    -153   -270    -12    311    312 209.6  -2.2  34090  288.39 0862.02
2015 04 09 14 16 14 .03    -160   -260      5    306    307 211.6   1.0  34064  287.93 0862.02
2015 04 09 14 16 14 .28    -208   -354     43    411    414 210.4   6.0  34060  287.89 0862.02
2015 04 09 14 16 14 .54    -170   -283     46    331    335 211.0   7.9  34092  288.42 0862.02
2015 04 09 14 16 14 .79    -251   -283     73    379    387 221.5  11.0  34168  289.72 0862.02
2015 04 09 14 16 15 .04    -235   -268     20    357    358 221.2   3.2  34188  290.06 0862.02
2015 04 09 14 16 15 .28    -246   -245     -7    348    349 225.2  -1.3  34218  290.54 0862.02
2015 04 09 14 16 15 .53    -252   -275      6    374    375 222.5   1.0  34086  288.33 0862.01
2015 04 09 14 16 15 .79    -231   -330     25    404    405 215.0   3.6  34024  287.28 0862.01
2015 04 09 14 16 16 .04    -220   -357     12    420    421 211.7   1.7  34058  287.85 0862.01
2015 04 09 14 16 16 .29    -197   -360    -16    411    412 208.8  -2.2  34064  287.94 0862.01
2015 04 09 14 16 16 .53    -186   -357    -30    403    405 207.5  -4.4  34064  287.95 0862.01
2015 04 09 14 16 16 .79    -214   -365    -50    424    427 210.4  -6.8  33996  286.79 0862.01
2015 04 09 14 16 17 .04    -214   -376    -38    433    435 209.6  -5.1  34018  287.16 0862.01
2015 04 09 14 16 17 .29    -232   -363    -60    431    436 212.6  -8.0  34022  287.23 0862.00
2015 04 09 14 16 17 .54    -223   -371    -26    434    435 211.0  -3.5  34060  287.89 0862.00
2015 04 09 14 16 17 .79    -234   -344     22    417    418 214.3   3.1  34108  288.70 0862.00
2015 04 09 14 16 18 .04    -189   -336     73    386    393 209.4  10.7  34134  289.13 0862.00
2015 04 09 14 16 18 .29    -174   -288     32    337    339 211.2   5.4  34132  289.10 0862.00
2015 04 09 14 16 18 .55    -195   -278     42    340    343 215.0   7.1  34142  289.25 0862.00
2015 04 09 14 16 18 .79    -210   -296      4    364    365 215.4   0.7  34174  289.81 0862.00
2015 04 09 14 16 19 .06    -189   -295    -16    351    352 212.7  -2.7  34010  287.05 0861.99
2015 04 09 14 16 19 .31    -253   -305    -31    397    399 219.7  -4.5  34016  287.15 0861.99
2015 04 09 14 16 19 .56    -216   -377    -21    435    436 209.9  -2.8  34092  288.43 0861.99
2015 04 09 14 16 19 .80    -194   -297      3    355    356 213.2   0.5  34032  287.42 0861.99
2015 04 09 14 16 20 .06    -166   -265    -30    313    315 212.1  -5.6  33992  286.74 0861.99
2015 04 09 14 16 20 .31    -195   -281    -40    343    346 214.7  -6.8  33994  286.78 0861.99
2015 04 09 14 16 20 .56    -202   -274    -43    341    344 216.4  -7.3  33994  286.76 0861.99
2015 04 09 14 16 20 .81    -209   -265    -65    338    345 218.3 -10.9  33994  286.75 0862.00
2015 04 09 14 16 21 .06    -215   -243    -22    325    326 221.4  -4.0  34000  286.87 0862.00
2015 04 09 14 16 21 .31    -233   -223    -30    323    325 226.2  -5.5  34018  287.17 0862.00
2015 04 09 14 16 21 .56    -244   -233    -34    338    340 226.4  -5.9  34036  287.47 0862.00
2015 04 09 14 16 21 .81    -121   -261     -6    288    289 204.9  -1.3  34046  287.65 0862.00
2015 04 09 14 16 22 .06    -176   -228     44    289    293 217.8   8.8  34050  287.70 0862.00
2015 04 09 14 16 22 .31    -142   -240     -6    279    280 210.7  -1.3  34020  287.21 0862.00
2015 04 09 14 16 22 .56    -143   -241    -26    281    283 210.7  -5.4  34014  287.09 0862.00
2015 04 09 14 16 22 .81    -162   -257    -27    304    306 212.3  -5.1  34018  287.16 0862.00
2015 04 09 14 16 23 .07    -149   -260     -6    300    301 209.9  -1.3  34024  287.28 0862.00
2015 04 09 14 16 23 .31    -149   -259    -23    299    300 209.9  -4.6  34036  287.48 0862.00
2015 04 09 14 16 23 .56    -139   -245    -25    283    285 209.6  -5.1  34042  287.58 0862.00
2015 04 09 14 16 23 .82    -172   -236    -37    293    296 216.1  -7.3  34038  287.51 0862.00
2015 04 09 14 16 24 .07    -181   -240    -38    301    304 217.0  -7.2  34042  287.56 0862.00
2015 04 09 14 16 24 .32    -180   -255    -14    313    314 215.2  -2.7  34036  287.48 0862.00
2015 04 09 14 16 24 .57    -157   -232    -26    281    283 214.1  -5.4  34042  287.56 0862.00
2015 04 09 14 16 24 .82    -123   -216    -13    249    250 209.8  -3.1  34040  287.53 0862.00
2015 04 09 14 16 25 .07    -147   -265     15    304    305 209.0   2.9  34050  287.70 0862.00
2015 04 09 14 16 25 .32    -148   -267     20    306    307 209.0   3.9  34030  287.38 0862.00
2015 04 09 14 16 25 .57    -180   -233    -21    295    296 217.8  -4.1  34026  287.29 0862.00
2015 04 09 14 16 25 .82    -167   -234    -63    288    295 215.6 -12.4  34028  287.33 0862.00
2015 04 09 14 16 26 .08    -150   -180    -79    235    247 219.9 -23.3  34036  287.48 0862.00
2015 04 09 14 16 26 .33    -160   -170    -52    234    240 223.2 -12.6  34092  288.41 0862.00
2015 04 09 14 16 26 .58    -139   -188    -54    235    242 216.5 -12.9  34084  288.27 0862.00
2015 04 09 14 16 26 .83    -122   -239     13    269    270 207.2   2.9  34074  288.12 0862.00
2015 04 09 14 16 27 .08    -129   -206      3    244    245 212.1   0.7  34070  288.04 0862.00
2015 04 09 14 16 27 .33    -134   -210     16    250    251 212.6   3.8  34060  287.88 0862.00
2015 04 09 14 16 27 .58    -157   -209     30    262    264 216.9   6.7  34072  288.07 0862.00
2015 04 09 14 16 27 .84    -129   -170      1    214    215 217.4   0.5  34086  288.33 0862.00
2015 04 09 14 16 28 .09    -139   -155    -36    209    213 221.9  -9.8  34096  288.48 0862.00
2015 04 09 14 16 28 .33    -130   -164    -34    210    213 218.5  -9.4  34090  288.40 0862.00
2015 04 09 14 16 28 .59    -128   -187    -46    227    232 214.5 -11.6  34048  287.69 0862.00
2015 04 09 14 16 28 .84     -92   -160    -37    185    189 210.1 -11.5  34066  287.99 0862.00
2015 04 09 14 16 29 .09     -98   -155    -44    184    190 212.5 -13.7  34056  287.81 0862.00
2015 04 09 14 16 29 .34    -110   -130    -52    171    178 220.3 -21.7  34066  287.99 0862.00
2015 04 09 14 16 29 .58    -143   -114    -74    184    198 231.4 -27.4  34068  288.01 0862.00
2015 04 09 14 16 29 .84    -111   -122    -59    165    175 222.3 -24.4  34058  287.86 0862.01
2015 04 09 14 16 30 .09    -103   -106    -41    148    154 224.1 -15.5  34064  287.94 0862.01
2015 04 09 14 16 30 .34     -56   -131    -35    143    148 203.2 -13.9  34070  288.04 0862.01
2015 04 09 14 16 30 .59     -61   -120    -12    135    136 207.1  -5.1  34080  288.23 0862.01
2015 04 09 14 16 30 .85     -97   -115    -25    151    154 220.1  -9.4  34096  288.50 0862.01
2015 04 09 14 16 31 .09    -113   -124    -11    168    169 222.3  -3.9  34166  289.67 0862.01
2015 04 09 14 16 31 .34     -86   -131     -4    157    158 213.4  -1.6  34128  289.04 0862.01
2015 04 09 14 16 31 .59     -78   -131     -6    153    154 210.7  -2.6  34120  288.89 0862.01
2015 04 09 14 16 31 .84     -86   -138      3    163    164 212.1   1.2  34126  289.01 0862.01
2015 04 09 14 16 32 .09     -69   -146     61    162    173 205.3  21.3  34126  288.99 0862.01
2015 04 09 14 16 32 .35     -75   -158     42    176    182 205.5  13.5  34120  288.91 0862.01
2015 04 09 14 16 32 .60     -73   -149     24    167    169 206.3   8.2  34120  288.91 0862.01
2015 04 09 14 16 32 .84     -68   -138      7    154    155 206.3   2.9  34070  288.04 0862.01
2015 04 09 14 16 33 .11     -65   -115    -19    133    135 209.4  -8.2  34072  288.08 0862.01
2015 04 09 14 16 33 .36     -63   -123    -41    139    144 207.2 -21.7  34078  288.18 0862.01
2015 04 09 14 16 33 .61     -69   -106     -4    127    128 213.4  -2.2  34098  288.53 0862.01
2015 04 09 14 16 33 .86     -85   -110    -21    140    142 217.8  -8.8  34096  288.50 0862.01
2015 04 09 14 16 34 .10    -108   -116    -25    159    162 222.8  -9.0  34092  288.42 0862.01
2015 04 09 14 16 34 .36     -93   -132    -21    162    164 215.2  -7.7  34112  288.77 0862.01
2015 04 09 14 16 34 .61     -53   -112     17    125    127 205.5   8.0  34150  289.41 0862.01
2015 04 09 14 16 34 .86     -24    -62     77     67    102 201.8  54.3  34152  289.45 0862.01
2015 04 09 14 16 35 .11     -12    -73     61     75     96 189.8  43.7  34164  289.63 0862.01
2015 04 09 14 16 35 .36     -32    -78     40     85     93 202.7  27.1  34156  289.50 0862.01
2015 04 09 14 16 35 .61     -83   -131     21    156    158 212.5   8.0  34162  289.62 0862.01
2015 04 09 14 16 35 .86     -67   -185     29    197    200 200.0   8.5  34164  289.63 0862.01
2015 04 09 14 16 36 .11    -128   -190      4    230    231 214.1   1.0  34170  289.75 0862.02
2015 04 09 14 16 36 .36    -155   -151    -33    217    220 225.6  -8.8  34120  288.91 0862.02
2015 04 09 14 16 36 .62    -129   -122    -34    178    182 226.7 -10.9  34106  288.67 0862.02
2015 04 09 14 16 36 .87    -155    -94     -7    182    183 238.9  -2.2  34178  289.87 0862.02
2015 04 09 14 16 37 .12    -125   -137    -53    186    193 222.3 -20.7  34184  289.97 0862.02
2015 04 09 14 16 37 .37     -96   -101    -48    140    149 223.7 -19.1  34190  290.09 0862.02
2015 04 09 14 16 37 .62     -44    -53     52     69     86 219.6  40.7  34204  290.33 0862.02
2015 04 09 14 16 37 .87     -28    -85     92     90    128 198.3  50.1  34224  290.65 0862.01
2015 04 09 14 16 38 .12     -22   -135     37    137    143 189.3  15.3  34226  290.70 0862.01
2015 04 09 14 16 38 .37     -74   -120     41    142    148 211.6  16.3  34218  290.57 0862.01
2015 04 09 14 16 38 .62     -62   -142     16    156    157 203.7   5.9  34166  289.69 0862.01
2015 04 09 14 16 38 .87     -60   -167     -6    178    179 199.8  -2.2  34044  287.62 0862.01
2015 04 09 14 16 39 .12    -111   -211      6    239    240 207.9   1.6  34066  287.97 0862.01
2015 04 09 14 16 39 .37    -104   -232     -4    255    256 204.1  -1.1  34048  287.66 0862.01
2015 04 09 14 16 39 .62    -101   -215     -4    238    239 205.3  -1.1  34078  288.17 0862.01
2015 04 09 14 16 39 .88     -87   -180    -34    201    205 205.9  -9.8  34018  287.16 0862.01
2015 04 09 14 16 40 .14    -117   -197    -62    230    239 210.7 -15.2  34036  287.48 0862.01
2015 04 09 14 16 40 .38     -97   -197    -45    220    225 206.3 -11.6  34082  288.25 0862.01
2015 04 09 14 16 40 .64    -117   -197    -29    230    232 210.7  -7.2  34092  288.43 0862.02
2015 04 09 14 16 40 .88    -131   -182      4    225    226 215.6   1.2  34146  289.35 0862.02
2015 04 09 14 16 41 .14    -122   -168     37    208    212 216.1  10.1  34104  288.64 0862.02
2015 04 09 14 16 41 .38    -100   -175     11    202    203 209.9   3.1  34076  288.16 0862.02
2015 04 09 14 16 41 .63     -88   -152     53    176    184 210.1  16.8  34118  288.86 0862.02
2015 04 09 14 16 41 .88     -94   -155     17    182    183 211.2   5.4  33998  286.83 0862.02
2015 04 09 14 16 42 .14     -82   -153      2    174    175 208.1   0.8  33996  286.79 0862.02
2015 04 09 14 16 42 .39     -86   -148     -7    172    173 210.1  -2.6  33996  286.79 0862.02
2015 04 09 14 16 42 .64     -82   -162    -13    182    183 207.0  -4.4  34000  286.86 0862.02
2015 04 09 14 16 42 .89     -87   -182    -18    202    203 205.6  -5.2  34000  286.86 0862.02
2015 04 09 14 16 43 .14     -95   -184    -42    208    213 207.4 -11.6  33992  286.73 0862.02
2015 04 09 14 16 43 .39     -92   -180    -25    203    205 207.0  -7.2  34000  286.86 0862.02
2015 04 09 14 16 43 .64    -102   -169    -47    198    204 211.2 -13.4  33988  286.67 0862.02
2015 04 09 14 16 43 .89    -105   -174    -55    204    212 211.2 -15.2  33988  286.67 0862.02
2015 04 09 14 16 44 .15    -109   -184    -51    215    222 210.7 -13.4  33994  286.76 0862.02
2015 04 09 14 16 44 .39    -105   -178    -23    207    209 210.7  -6.5  34044  287.62 0862.02
2015 04 09 14 16 44 .64    -112   -155    -35    192    196 215.8 -10.5  34004  286.93 0862.02
2015 04 09 14 16 44 .89    -112   -156    -44    193    198 215.8 -12.9  33990  286.69 0862.02
2015 04 09 14 16 45 .15     -67   -143    -41    159    165 205.3 -14.7  34074  288.11 0862.02
2015 04 09 14 16 45 .39    -123   -148      9    193    194 219.6   2.9  34064  287.96 0862.02
2015 04 09 14 16 45 .65     -76   -167      0    184    185 204.5   0.2  34056  287.81 0862.02
2015 04 09 14 16 45 .90     -62   -155     19    167    169 201.8   6.5  34116  288.84 0862.02
2015 04 09 14 16 46 .14     -53   -162     16    171    172 198.3   5.4  34068  288.03 0862.02
2015 04 09 14 16 46 .40     -66   -139      7    155    156 205.5   2.9  34026  287.30 0862.02
2015 04 09 14 16 46 .64     -54   -153      8    163    164 199.6   2.9  33998  286.83 0862.02
2015 04 09 14 16 46 .91     -45   -159     -6    166    167 195.8  -2.1  33998  286.84 0862.01
2015 04 09 14 16 47 .16     -49   -136     -6    145    146 200.0  -2.6  34008  287.01 0862.01
2015 04 09 14 16 47 .41     -60   -129    -18    143    145 204.9  -7.2  34012  287.06 0862.01
2015 04 09 14 16 47 .66     -89   -143    -12    169    170 212.1  -4.4  34006  286.96 0862.01
2015 04 09 14 16 47 .91     -94   -117    -17    151    153 218.7  -6.7  34006  286.96 0862.01
2015 04 09 14 16 48 .16    -108   -108    -22    154    156 225.0  -8.2  34000  286.88 0862.01
2015 04 09 14 16 48 .41    -102   -116     -6    155    156 221.4  -2.2  34014  287.10 0862.01
2015 04 09 14 16 48 .66    -106   -138    -23    175    177 217.6  -7.5  34022  287.23 0862.01
2015 04 09 14 16 48 .91    -103   -125    -12    163    164 219.6  -4.4  34012  287.06 0862.01
2015 04 09 14 16 49 .17     -75   -117    -18    140    142 212.6  -7.7  34010  287.05 0862.01
2015 04 09 14 16 49 .41     -81   -112      8    139    140 216.1   3.3  34030  287.37 0862.01
2015 04 09 14 16 49 .67     -51   -109      4    121    122 205.3   2.3  34034  287.45 0862.01
2015 04 09 14 16 49 .91     -77   -105      0    131    132 216.1   0.2  34022  287.25 0862.01
2015 04 09 14 16 50 .17    -113    -98    -23    150    152 229.1  -8.8  34028  287.35 0862.01
2015 04 09 14 16 50 .42    -103   -117    -20    157    159 221.4  -7.5  34050  287.72 0862.01
2015 04 09 14 16 50 .66    -146    -79    -19    167    169 241.6  -6.7  34054  287.79 0862.01
2015 04 09 14 16 50 .92     -74    -89    -14    116    117 219.6  -7.3  34052  287.76 0862.01
2015 04 09 14 16 51 .17     -93   -159      1    185    186 210.5   0.5  34058  287.84 0862.01
2015 04 09 14 16 51 .42     -87   -148     30    172    175 210.5   9.9  34054  287.77 0862.01
2015 04 09 14 16 51 .67     -84    -84     28    120    124 224.9  13.2  34046  287.65 0862.01
2015 04 09 14 16 51 .92     -83    -94     10    126    127 221.4   4.9  34038  287.52 0862.01
2015 04 09 14 16 52 .17     -86   -118     28    147    150 216.0  11.0  34066  287.98 0862.01
2015 04 09 14 16 52 .43     -95   -164     -7    190    191 210.3  -2.2  34136  289.18 0862.01
2015 04 09 14 16 52 .67    -109   -171     -3    203    204 212.5  -1.1  34158  289.53 0862.01
2015 04 09 14 16 52 .92    -133   -122     19    181    183 227.6   6.1  34112  288.77 0862.01
2015 04 09 14 16 53 .18    -154   -135     -4    205    206 228.7  -1.2  34036  287.47 0862.00
2015 04 09 14 16 53 .43    -141   -130     -4    193    194 227.3  -1.3  34060  287.87 0862.00
2015 04 09 14 16 53 .67    -120   -120     20    170    172 225.0   6.9  34056  287.81 0862.00
2015 04 09 14 16 53 .93    -132   -122      5    180    181 227.3   1.8  34018  287.16 0862.00
2015 04 09 14 16 54 .19    -110   -161    -28    196    199 214.3  -8.2  34024  287.28 0862.00
2015 04 09 14 16 54 .44    -105   -166      0    197    198 212.5   0.0  34060  287.87 0862.00
2015 04 09 14 16 54 .68    -114   -118     -7    165    166 224.1  -2.6  34018  287.18 0862.00
2015 04 09 14 16 54 .93    -101   -122    -24    159    161 219.6  -8.6  34010  287.05 0862.00
2015 04 09 14 16 55 .19     -99   -120    -38    156    161 219.7 -13.9  34012  287.06 0862.00
2015 04 09 14 16 55 .44     -85   -134    -15    160    161 212.5  -5.4  34028  287.35 0862.00
2015 04 09 14 16 55 .69     -85   -134    -23    159    161 212.5  -8.2  34034  287.43 0862.00
2015 04 09 14 16 55 .94    -109   -116    -17    160    161 223.2  -6.2  34022  287.23 0862.00
2015 04 09 14 16 56 .19    -104   -126    -27    164    167 219.6  -9.6  34030  287.38 0862.00
2015 04 09 14 16 56 .44    -106   -113    -31    156    160 223.2 -11.3  34026  287.30 0862.00
2015 04 09 14 16 56 .69     -97   -104    -34    143    148 222.8 -13.4  34036  287.47 0862.00
2015 04 09 14 16 56 .94     -97   -104    -18    143    145 223.2  -7.3  34038  287.52 0862.00
2015 04 09 14 16 57 .19     -79   -102    -23    130    133 217.8 -10.3  34036  287.47 0862.00
2015 04 09 14 16 57 .44     -58    -88     -2    106    107 213.8  -1.3  34036  287.49 0862.00
2015 04 09 14 16 57 .69     -50    -82    -12     97     98 211.6  -7.2  34034  287.45 0862.00
2015 04 09 14 16 57 .94     -61    -77     -9     99    100 218.7  -5.2  34036  287.49 0862.00
2015 04 09 14 16 58 .19     -63    -73    -12     97     98 221.0  -7.3  34038  287.50 0862.00
2015 04 09 14 16 58 .45     -78    -87     -5    118    119 221.9  -2.6  34052  287.76 0862.00
2015 04 09 14 16 58 .69     -80    -94     -1    124    125 220.5  -0.7  34072  288.08 0862.00
2015 04 09 14 16 58 .94     -74    -86    -12    114    115 220.5  -6.2  34074  288.13 0862.00
2015 04 09 14 16 59 .19     -89   -101    -10    136    137 221.4  -4.6  34068  288.03 0862.00
2015 04 09 14 16 59 .45     -72    -87      5    114    115 219.6   2.9  34080  288.21 0862.00
2015 04 09 14 16 59 .70     -69    -72    -10    100    101 223.7  -6.2  34066  287.98 0862.00
2015 04 09 14 16 59 .95      -8    -36     36     38     52 193.4  50.0  34124  288.96 0862.00
2015 04 09 14 17 00 .19     -38    -60     63     72     95 212.5  45.8  34124  288.96 0862.00
2015 04 09 14 17 00 .44     -59    -53     21     80     83 228.2  14.7  34096  288.50 0862.00
2015 04 09 14 17 00 .71     -70    -70    -12    100    101 225.1  -7.3  34064  287.94 0862.00
2015 04 09 14 17 00 .96     -66    -68     -6     95     96 224.1  -4.1  34080  288.21 0862.00
2015 04 09 14 17 01 .21     -62    -62    -24     88     92 225.0 -15.5  34074  288.13 0862.00
2015 04 09 14 17 01 .46      -3    -47    -13     48     50 183.6 -15.4  34090  288.40 0862.00
2015 04 09 14 17 01 .71       4    -56     25     57     62 175.5  25.1  34106  288.67 0862.00
2015 04 09 14 17 01 .96     -24    -36     16     44     46 214.3  20.0  34110  288.72 0862.00
2015 04 09 14 17 02 .21     -37    -45     23     59     63 219.7  22.0  34104  288.64 0862.00
2015 04 09 14 17 02 .46     -49    -64     16     81     83 217.4  11.6  34076  288.14 0862.00
2015 04 09 14 17 02 .71     -29    -74      7     80     81 201.9   5.4  34072  288.09 0862.00
2015 04 09 14 17 02 .96     -32    -68      3     76     77 205.5   2.9  34072  288.08 0862.00
2015 04 09 14 17 03 .22     -29    -81      0     87     88 200.0  -0.3  34084  288.30 0862.00
2015 04 09 14 17 03 .47     -58    -89      5    107    108 213.4   2.9  34088  288.36 0862.00
2015 04 09 14 17 03 .71     -51    -92      5    106    107 209.0   2.9  34088  288.36 0862.00
2015 04 09 14 17 03 .97     -35    -97     -5    104    105 200.0  -3.1  34122  288.94 0862.00
2015 04 09 14 17 04 .21     -35   -106    -21    112    115 198.5 -10.9  34148  289.36 0862.00
2015 04 09 14 17 04 .47       6   -121     -6    122    123 176.9  -3.1  34158  289.55 0862.00
2015 04 09 14 17 04 .72     -11   -112     -3    113    114 185.8  -1.8  34172  289.77 0862.00
2015 04 09 14 17 04 .97      25   -127      6    130    131 168.5   2.9  34176  289.85 0862.00
2015 04 09 14 17 05 .22      32   -116     -4    121    122 164.4  -2.2  34134  289.14 0862.00
2015 04 09 14 17 05 .47      40    -94      1    103    104 156.8   0.8  34156  289.50 0862.00
2015 04 09 14 17 05 .72      39    -95      0    103    104 157.7   0.2  34148  289.38 0862.00
2015 04 09 14 17 05 .97      50    -95      4    108    109 152.4   2.3  34110  288.72 0862.00
2015 04 09 14 17 06 .23      22   -108    -14    111    112 168.5  -7.7  34168  289.72 0862.00
2015 04 09 14 17 06 .47       1    -98    -14     99    101 179.1  -8.2  34156  289.52 0862.00
2015 04 09 14 17 06 .72       2   -108     -2    109    110 178.6  -1.2  34164  289.63 0862.00
2015 04 09 14 17 06 .98      16   -107     25    109    112 171.1  13.2  34162  289.62 0862.00
2015 04 09 14 17 07 .23       7    -96     21     97    100 175.5  12.6  34178  289.87 0862.00
2015 04 09 14 17 07 .47       0    -60     32     61     68 180.9  29.3  34196  290.19 0862.00
2015 04 09 14 17 07 .74       0    -76     38     77     85 180.0  28.2  34178  289.89 0862.00
2015 04 09 14 17 07 .99      15    -74     34     76     83 168.5  25.7  34196  290.18 0862.00
2015 04 09 14 17 08 .23      12   -101     52    102    114 172.9  29.3  34176  289.84 0862.00
2015 04 09 14 17 08 .49     -14    -77     39     79     88 190.7  28.2  34196  290.18 0862.00
2015 04 09 14 17 08 .73     -42    -79     28     90     95 208.5  17.3  34198  290.21 0862.00
2015 04 09 14 17 08 .99     -49    -89      8    102    103 209.0   4.9  34160  289.58 0862.00
2015 04 09 14 17 09 .24     -49   -123     12    133    134 201.9   5.4  34156  289.50 0862.00
2015 04 09 14 17 09 .49     -42   -118     -5    126    127 200.0  -2.6  34148  289.36 0862.00
2015 04 09 14 17 09 .74     -40    -73     11     84     85 209.0   8.0  34164  289.65 0862.00
2015 04 09 14 17 09 .99     -28    -69     32     75     81 202.7  24.1  34168  289.70 0862.00
2015 04 09 14 17 10 .24      -6    -79     33     80     86 184.5  23.0  34198  290.21 0862.00
2015 04 09 14 17 10 .49     -12   -104     11    105    106 186.7   6.5  34186  290.02 0862.00
2015 04 09 14 17 10 .75      -7    -88     30     89     95 184.9  18.9  34200  290.25 0862.00
2015 04 09 14 17 11 .00     -27    -88     34     93     99 197.4  20.4  34258  291.25 0862.00
2015 04 09 14 17 11 .24      -9    -77     50     78     92 187.1  35.6  34270  291.43 0862.00
2015 04 09 14 17 11 .49      -5    -93     48     94    105 183.1  29.3  34296  291.89 0862.00
2015 04 09 14 17 11 .74     -32    -87     74     93    118 200.5  42.2  34262  291.30 0862.00
2015 04 09 14 17 12 .00     -18    -96     77     98    124 190.7  41.7  34190  290.09 0862.00
2015 04 09 14 17 12 .24     -42    -93     38    103    109 204.5  20.4  34194  290.16 0862.00
2015 04 09 14 17 12 .49      30   -148     22    152    154 168.4   8.5  34172  289.79 0862.00
2015 04 09 14 17 12 .74      19   -141    -18    143    145 172.0  -7.3  34014  287.10 0862.00
2015 04 09 14 17 13 .00      20   -166    -12    168    169 172.9  -4.4  34050  287.70 0862.00
2015 04 09 14 17 13 .25      21   -152    -23    154    156 172.0  -8.6  34126  289.01 0862.00
2015 04 09 14 17 13 .49      17   -168    -15    169    170 174.2  -5.2  34044  287.62 0862.00
2015 04 09 14 17 13 .75       5   -168    -15    169    170 178.2  -5.2  34030  287.37 0862.00
2015 04 09 14 17 14 .01     -12   -155     -1    156    157 184.5  -0.5  34102  288.58 0862.00
2015 04 09 14 17 14 .25     -10   -139    -17    140    142 184.4  -7.2  34084  288.30 0862.00
2015 04 09 14 17 14 .50       2   -138    -25    139    142 179.1 -10.3  34042  287.57 0862.00
2015 04 09 14 17 14 .76       7   -153    -35    154    159 177.3 -12.9  34048  287.69 0862.00
2015 04 09 14 17 15 .01     -10   -134    -35    135    140 184.5 -14.5  34054  287.79 0862.00
2015 04 09 14 17 15 .26     -32   -138    -33    142    146 193.3 -13.3  34062  287.91 0862.00
2015 04 09 14 17 15 .52     -20   -155    -10    157    158 187.6  -3.9  34090  288.40 0862.00
2015 04 09 14 17 15 .76     -37   -146     -6    151    152 194.3  -2.6  34090  288.40 0862.00
2015 04 09 14 17 16 .02      -8   -158     -7    159    160 183.1  -2.8  34120  288.89 0862.00
2015 04 09 14 17 16 .26     -15   -149     14    150    151 185.8   5.4  34104  288.64 0862.00
2015 04 09 14 17 16 .52     -39   -148      6    154    155 194.7   2.3  34108  288.70 0862.00
2015 04 09 14 17 16 .77     -38   -172     25    177    179 192.5   8.2  34110  288.72 0862.00
2015 04 09 14 17 17 .02     -34   -167     44    171    177 191.8  14.7  34126  289.01 0862.00
2015 04 09 14 17 17 .27     -38   -141     40    147    153 195.1  15.2  34132  289.09 0862.00
2015 04 09 14 17 17 .51       0   -164     -6    165    166 180.2  -2.3  34116  288.84 0862.00
2015 04 09 14 17 17 .77       0   -176     -6    177    178 180.2  -2.2  34128  289.02 0862.00
2015 04 09 14 17 18 .02     -76   -160    -21    178    180 205.3  -6.9  34150  289.40 0862.00
2015 04 09 14 17 18 .28       0   -177    -46    178    185 180.2 -14.7  34136  289.18 0862.00
2015 04 09 14 17 18 .52     -16   -213     -8    214    215 184.4  -2.3  34134  289.14 0862.00
2015 04 09 14 17 18 .77     -72   -184    -55    198    206 201.6 -15.5  34084  288.30 0862.00
2015 04 09 14 17 19 .02     -89   -164    -51    187    195 208.5 -15.4  34050  287.70 0862.00
2015 04 09 14 17 19 .28     -58   -153    -23    164    166 200.9  -8.2  34094  288.47 0862.00
2015 04 09 14 17 19 .52     -72   -170    -65    185    197 202.9 -19.6  34194  290.14 0862.00
2015 04 09 14 17 19 .77     -66   -169    -40    182    187 201.6 -12.6  34166  289.67 0862.00
2015 04 09 14 17 20 .02     -71   -168      5    183    184 202.9   1.8  34188  290.06 0862.00
2015 04 09 14 17 20 .27     -63   -181      6    192    193 199.4   1.8  34156  289.52 0861.99
2015 04 09 14 17 20 .53      -3   -126    -31    127    131 181.4 -13.9  34072  288.08 0861.99
2015 04 09 14 17 20 .78     -41   -126    -14    133    134 198.3  -6.2  34066  287.99 0861.99
2015 04 09 14 17 21 .03     -58   -119    -36    133    139 206.3 -15.4  34070  288.06 0861.99
2015 04 09 14 17 21 .27     -73   -115     -3    137    138 212.5  -1.3  34178  289.89 0861.99
2015 04 09 14 17 21 .53     -85   -143      6    167    168 210.7   2.1  34170  289.74 0861.99
2015 04 09 14 17 21 .78       0   -150     -5    151    152 180.4  -2.2  34032  287.42 0861.99
2015 04 09 14 17 22 .04     -47   -142     -5    150    151 198.5  -2.2  34030  287.37 0862.00
2015 04 09 14 17 22 .29     -56   -184      0    193    194 196.9   0.0  34072  288.08 0862.00
2015 04 09 14 17 22 .54     -41   -186    -13    191    192 192.7  -3.9  34036  287.49 0862.00
2015 04 09 14 17 22 .79     -43   -189    -24    194    196 192.9  -7.3  34024  287.28 0862.00
2015 04 09 14 17 23 .04     -39   -195    -15    199    200 191.5  -4.6  34086  288.31 0862.00
2015 04 09 14 17 23 .29     -41   -226    -13    230    231 190.5  -3.3  34046  287.65 0862.00
2015 04 09 14 17 23 .54     -32   -224    -28    227    229 188.1  -7.2  34026  287.32 0862.00
2015 04 09 14 17 23 .79     -44   -217     -6    222    223 191.6  -1.6  34022  287.23 0861.99
2015 04 09 14 17 24 .05     -32   -216      0    219    220 188.5   0.2  34042  287.59 0861.99
2015 04 09 14 17 24 .29     -46   -233      0    238    239 191.3   0.0  34048  287.68 0861.99
2015 04 09 14 17 24 .54     -30   -235    -10    237    238 187.3  -2.6  34044  287.61 0861.99
2015 04 09 14 17 24 .80     -46   -250    -21    255    256 190.5  -4.9  34060  287.88 0861.99
2015 04 09 14 17 25 .04     -58   -230    -17    238    239 194.3  -4.1  34080  288.22 0861.99
2015 04 09 14 17 25 .29     -55   -242    -31    249    251 192.9  -7.2  34044  287.61 0861.99
2015 04 09 14 17 25 .54     -68   -240    -29    250    252 195.8  -6.7  34058  287.85 0861.99
2015 04 09 14 17 25 .79     -16   -213    -51    214    221 184.5 -13.4  34040  287.55 0861.99
2015 04 09 14 17 26 .05      15   -256    -51    257    263 176.5 -11.3  34010  287.02 0861.99
2015 04 09 14 17 26 .30      27   -271    -67    273    282 174.2 -13.9  34032  287.39 0861.99
2015 04 09 14 17 26 .55     -11   -284    -22    285    286 182.2  -4.6  34034  287.44 0861.99
2015 04 09 14 17 26 .80     -23   -275     -1    277    278 184.9  -0.3  34036  287.48 0861.99
2015 04 09 14 17 27 .05     -21   -255    -18    256    257 184.9  -4.1  34034  287.43 0861.99
2015 04 09 14 17 27 .30     -10   -250    -30    251    253 182.5  -6.9  34026  287.31 0861.99
2015 04 09 14 17 27 .55     -24   -235     -7    237    238 186.0  -1.8  34020  287.19 0861.99
2015 04 09 14 17 27 .81     -18   -235     -9    236    237 184.5  -2.2  34028  287.33 0861.99
2015 04 09 14 17 28 .05      -4   -232     -9    233    234 181.0  -2.2  34026  287.29 0861.99
2015 04 09 14 17 28 .30     -36   -233      3    236    237 188.9   0.8  34042  287.56 0861.99
2015 04 09 14 17 28 .56     -30   -240     -8    242    243 187.3  -2.1  34022  287.24 0861.99
2015 04 09 14 17 28 .82     -49   -234     -5    240    241 192.0  -1.3  34030  287.38 0861.99
2015 04 09 14 17 29 .07     -62   -210     14    220    221 196.5   3.8  34054  287.79 0861.99
2015 04 09 14 17 29 .32     -67   -193     13    205    206 199.2   3.8  34060  287.87 0862.00
2015 04 09 14 17 29 .57     -61   -175     -7    186    187 199.2  -2.2  34080  288.21 0862.00
2015 04 09 14 17 29 .82    -132   -143    -46    195    201 222.8 -13.3  34128  289.04 0862.00
2015 04 09 14 17 30 .06     -90   -126      1    156    157 215.6   0.5  34120  288.89 0862.00
2015 04 09 14 17 30 .32    -117   -162     89    200    218 215.8  25.3  34082  288.26 0862.00
2015 04 09 14 17 30 .57    -151   -225     25    272    274 213.8   5.4  34152  289.42 0862.00
2015 04 09 14 17 30 .82    -143   -195     16    242    243 216.3   3.8  34180  289.90 0862.00
2015 04 09 14 17 31 .07    -139   -209     -7    252    253 213.6  -1.8  34174  289.81 0861.99
2015 04 09 14 17 31 .32    -154   -196    -16    250    251 218.1  -3.7  34196  290.19 0861.99
2015 04 09 14 17 31 .57    -101   -155      9    186    187 213.2   2.9  34212  290.45 0861.99
2015 04 09 14 17 31 .82     -58   -182     72    192    205 197.8  21.0  34134  289.13 0861.99
2015 04 09 14 17 32 .07     -45   -123     31    132    136 200.1  13.2  34140  289.24 0861.99
2015 04 09 14 17 32 .32    -138   -130     -7    190    191 226.7  -2.2  34044  287.62 0861.99
2015 04 09 14 17 32 .58    -147   -139    -31    203    206 226.7  -8.8  34058  287.84 0861.99
2015 04 09 14 17 32 .82    -139   -163    -21    215    217 220.5  -5.6  34096  288.48 0861.99
2015 04 09 14 17 33 .07    -146   -150    -37    210    214 224.1 -10.1  34076  288.16 0861.99
2015 04 09 14 17 33 .32    -153   -161    -36    223    227 223.4  -9.3  34032  287.40 0861.99
2015 04 09 14 17 33 .58     -60   -153     10    165    166 201.4   3.6  34100  288.55 0861.99
2015 04 09 14 17 33 .82     -85   -143     65    167    179 210.7  22.5  34122  288.92 0861.99
2015 04 09 14 17 34 .08     -59    -57     70     83    108 226.0  44.3  34132  289.09 0861.99
2015 04 09 14 17 34 .32     -27    -69     65     75     99 201.8  45.4  34144  289.31 0861.99
2015 04 09 14 17 34 .58     -31   -113     -1    118    119 195.6  -0.7  34126  288.99 0861.99
2015 04 09 14 17 34 .83    -150   -243     33    286    288 211.6   6.7  34164  289.64 0861.99
2015 04 09 14 17 35 .08    -172   -257     15    310    311 213.8   2.9  34178  289.86 0861.99
2015 04 09 14 17 35 .33    -129   -284    -21    313    314 204.5  -3.9  34128  289.03 0861.99
2015 04 09 14 17 35 .59    -130   -312    -31    339    341 202.7  -5.3  34088  288.35 0861.99
2015 04 09 14 17 35 .84    -220   -368     -6    429    430 210.9  -0.9  34052  287.75 0861.99
2015 04 09 14 17 36 .09    -123   -384     46    404    407 197.8   6.6  34192  290.12 0861.99
2015 04 09 14 17 36 .34    -123   -327     10    350    351 200.6   1.8  34012  287.07 0861.99
2015 04 09 14 17 36 .59    -137   -303    -21    333    334 204.3  -3.7  33996  286.80 0861.99
2015 04 09 14 17 36 .84    -159   -320    -41    358    361 206.5  -6.6  34000  286.88 0861.99
2015 04 09 14 17 37 .09    -181   -348    -59    393    398 207.5  -8.6  33998  286.83 0861.99
2015 04 09 14 17 37 .35    -188   -398    -19    441    442 205.3  -2.5  34012  287.08 0862.00
2015 04 09 14 17 37 .59    -195   -345     21    397    398 209.4   3.1  33994  286.78 0862.00
2015 04 09 14 17 37 .84    -153   -331    -33    365    367 204.8  -5.2  33994  286.75 0862.00
2015 04 09 14 17 38 .10    -138   -309    -20    339    340 204.1  -3.5  33994  286.75 0862.00
2015 04 09 14 17 38 .34    -146   -295    -46    330    334 206.3  -8.0  33990  286.69 0862.00
2015 04 09 14 17 38 .60    -134   -278    -20    309    310 205.9  -3.7  33996  286.79 0862.00
2015 04 09 14 17 38 .85    -123   -263    -15    291    292 205.2  -3.1  33992  286.74 0862.00
2015 04 09 14 17 39 .10    -139   -273    -20    307    308 207.1  -3.9  33996  286.80 0862.00
2015 04 09 14 17 39 .35    -159   -278    -40    321    324 209.8  -7.2  33992  286.72 0862.00
2015 04 09 14 17 39 .60    -146   -273    -27    310    312 208.3  -5.1  33992  286.74 0862.00
2015 04 09 14 17 39 .85    -137   -287    -19    319    320 205.6  -3.5  33994  286.77 0862.00
2015 04 09 14 17 40 .10    -140   -295    -26    327    329 205.5  -4.6  33996  286.79 0862.00
2015 04 09 14 17 40 .35    -157   -300    -68    339    346 207.7 -11.5  33990  286.69 0862.00
2015 04 09 14 17 40 .61    -141   -302    -34    334    336 205.0  -5.9  34026  287.30 0862.00
2015 04 09 14 17 40 .85     -97   -323    -55    338    343 196.7  -9.3  34032  287.40 0862.00
2015 04 09 14 17 41 .10    -117   -237     -1    265    266 206.3  -0.3  34052  287.75 0862.00
2015 04 09 14 17 41 .35     -91   -281    -59    296    302 197.9 -11.3  33996  286.80 0862.00
2015 04 09 14 17 41 .60    -112   -304    -66    325    332 200.3 -11.5  33994  286.78 0862.00
2015 04 09 14 17 41 .85    -121   -304    -12    328    329 201.8  -2.2  33998  286.84 0862.00
2015 04 09 14 17 42 .10    -109   -298    -56    318    324 200.1 -10.1  33998  286.82 0862.00
2015 04 09 14 17 42 .35    -137   -290    -68    321    329 205.3 -12.0  34012  287.06 0862.00
2015 04 09 14 17 42 .62    -149   -292    -83    329    340 207.1 -14.3  34006  286.98 0862.00
2015 04 09 14 17 42 .87    -179   -321    -70    368    375 209.1 -10.9  34012  287.08 0862.00
2015 04 09 14 17 43 .12    -147   -306    -26    340    341 205.7  -4.4  34012  287.07 0862.00
2015 04 09 14 17 43 .37    -129   -315    -29    341    343 202.3  -4.9  34002  286.91 0862.00
2015 04 09 14 17 43 .62    -132   -304      0    332    333 203.5   0.1  34002  286.91 0862.00
2015 04 09 14 17 43 .87    -109   -271    -16    293    294 201.9  -3.1  33996  286.79 0862.00
2015 04 09 14 17 44 .12     -95   -261    -32    278    280 200.1  -6.7  33994  286.77 0862.00
2015 04 09 14 17 44 .37     -95   -269    -33    286    288 199.4  -6.7  33990  286.70 0862.00
2015 04 09 14 17 44 .62     -99   -249    -19    269    270 201.8  -4.1  33996  286.80 0862.00
2015 04 09 14 17 44 .87    -135   -268    -73    301    310 206.7 -13.7  34008  287.01 0862.00
2015 04 09 14 17 45 .12    -155   -219    -64    269    277 215.2 -13.4  34000  286.87 0862.00
2015 04 09 14 17 45 .37    -138   -208    -59    250    258 213.6 -13.4  33998  286.84 0862.00
2015 04 09 14 17 45 .62    -156   -238    -41    285    288 213.2  -8.2  34008  287.01 0862.00
2015 04 09 14 17 45 .87    -151   -237    -42    282    286 212.5  -8.6  34020  287.19 0862.00
2015 04 09 14 17 46 .12    -129   -232    -10    266    267 209.0  -2.2  34016  287.12 0862.00
2015 04 09 14 17 46 .37    -145   -228    -30    271    273 212.5  -6.5  34004  286.94 0862.00
2015 04 09 14 17 46 .62    -154   -176    -45    235    240 221.2 -10.9  33990  286.70 0862.00
2015 04 09 14 17 46 .87    -146   -166    -44    222    227 221.4 -11.3  33994  286.76 0862.00
2015 04 09 14 17 47 .13    -133   -181    -44    225    230 216.3 -11.1  34010  287.03 0862.00
2015 04 09 14 17 47 .37    -137   -189    -38    234    238 216.1  -9.3  34042  287.58 0862.00
2015 04 09 14 17 47 .62    -142   -192    -48    239    244 216.5 -11.5  34006  286.95 0862.00
2015 04 09 14 17 47 .87    -152   -176    -51    233    239 220.8 -12.4  33984  286.60 0862.00
2015 04 09 14 17 48 .12    -139   -171    -52    221    228 219.2 -13.4  33986  286.62 0862.00
2015 04 09 14 17 48 .38    -128   -166    -48    210    216 217.6 -12.9  33988  286.67 0862.00
2015 04 09 14 17 48 .63    -126   -153    -45    199    205 219.6 -12.9  33996  286.79 0862.00
2015 04 09 14 17 48 .89    -113   -147    -44    186    192 217.8 -13.4  34030  287.38 0862.00
2015 04 09 14 17 49 .12    -107   -153    -15    187    188 215.0  -4.9  34022  287.25 0862.00
2015 04 09 14 17 49 .39    -105   -155    -30    188    191 214.1  -9.3  34022  287.25 0862.00
2015 04 09 14 17 49 .64    -109   -172    -25    204    206 212.5  -7.2  34036  287.49 0862.00
2015 04 09 14 17 49 .89     -91   -167    -27    191    194 208.5  -8.2  34040  287.55 0862.00
2015 04 09 14 17 50 .14     -88   -155     -9    179    180 209.6  -3.2  34052  287.74 0862.00
2015 04 09 14 17 50 .39     -50   -138    -13    147    148 200.0  -5.2  34050  287.72 0862.00
2015 04 09 14 17 50 .64     -88   -122    -23    151    153 216.0  -8.8  34050  287.72 0862.00
2015 04 09 14 17 50 .89     -72   -128    -40    147    153 209.4 -15.4  34042  287.59 0862.00
2015 04 09 14 17 51 .14     -68   -111    -32    131    135 211.6 -13.9  34040  287.55 0862.00
2015 04 09 14 17 51 .39     -82   -100     -2    130    131 219.2  -1.2  34048  287.69 0862.00
2015 04 09 14 17 51 .64     -91    -91    -14    129    130 225.1  -6.2  34038  287.52 0862.00
2015 04 09 14 17 51 .90     -77   -114    -21    138    140 214.3  -8.8  34052  287.76 0862.00
2015 04 09 14 17 52 .15     -70    -63      1     95     96 228.2   0.8  34080  288.21 0862.00
2015 04 09 14 17 52 .40     -37    -50     21     63     67 216.1  18.9  34094  288.47 0862.00
2015 04 09 14 17 52 .64     -15    -31     30     35     46 207.2  45.8  34096  288.50 0862.00
2015 04 09 14 17 52 .90     -10    -45     43     47     63 192.5  47.9  34096  288.50 0862.00
2015 04 09 14 17 53 .15     -42    -61     32     75     81 214.3  24.1  34108  288.69 0862.00
2015 04 09 14 17 53 .40     -29    -72     23     78     82 201.9  16.8  34106  288.65 0862.00
2015 04 09 14 17 53 .65     -18    -52     61     56     82 199.2  52.2  34118  288.87 0862.00
2015 04 09 14 17 53 .90     -17    -82     63     84    105 192.0  40.1  34120  288.91 0862.00
2015 04 09 14 17 54 .15     -92   -122     65    153    166 217.0  24.6  34132  289.09 0862.00
2015 04 09 14 17 54 .40     -72   -131      4    150    151 209.0   1.8  34108  288.69 0862.00
2015 04 09 14 17 54 .65     -90   -118      2    149    150 217.4   0.8  34088  288.35 0862.00
2015 04 09 14 17 54 .90     -85   -110    -21    140    142 217.8  -8.8  34062  287.91 0862.00
2015 04 09 14 17 55 .16     -94   -131    -38    162    167 215.6 -13.2  34084  288.28 0862.00
2015 04 09 14 17 55 .40     -77   -136    -36    157    162 209.4 -12.9  34086  288.31 0862.00
2015 04 09 14 17 55 .66     -62   -159      8    171    172 201.4   2.9  34098  288.53 0862.00
2015 04 09 14 17 55 .91     -76   -135     -6    155    156 209.4  -2.2  34112  288.75 0862.00
2015 04 09 14 17 56 .16    -114   -145      9    185    186 218.1   2.9  34126  288.99 0862.00
2015 04 09 14 17 56 .42    -112   -176     46    209    215 212.6  12.6  34142  289.28 0862.00
2015 04 09 14 17 56 .67     -74   -131     32    151    155 209.4  12.0  34144  289.31 0862.00
2015 04 09 14 17 56 .92     -85   -134      5    159    160 212.5   2.1  34112  288.77 0862.00
2015 04 09 14 17 57 .17     -56   -110     -6    124    125 207.2  -3.1  34128  289.04 0862.00
2015 04 09 14 17 57 .42     -90   -161     27    185    188 209.4   8.5  34190  290.09 0862.00
2015 04 09 14 17 57 .67    -114   -151      7    190    191 217.0   2.1  34190  290.09 0862.00
2015 04 09 14 17 57 .92    -132   -200     20    240    241 213.4   4.9  34188  290.05 0862.00
2015 04 09 14 17 58 .17    -130   -194     15    234    235 213.8   3.9  34204  290.32 0862.00
2015 04 09 14 17 58 .42    -127   -191     33    230    233 213.6   8.2  34212  290.45 0862.00
2015 04 09 14 17 58 .67    -137   -141     17    197    198 224.1   5.0  34180  289.92 0862.00
2015 04 09 14 17 58 .92    -124   -110     21    166    168 228.4   7.2  34184  289.97 0862.00
2015 04 09 14 17 59 .18    -137   -112     -5    178    179 230.7  -1.6  34220  290.60 0862.00
2015 04 09 14 17 59 .42    -149   -133    -16    201    202 228.2  -4.6  34242  290.96 0862.00
2015 04 09 14 17 59 .68    -118   -164    -19    203    204 215.8  -5.4  34150  289.41 0862.00
2015 04 09 14 17 59 .93    -167   -201    -20    262    263 219.7  -4.6  34142  289.27 0862.00
2015 04 09 14 18 00 .17    -143   -109    -12    180    181 232.7  -3.9  34170  289.74 0862.00
2015 04 09 14 18 00 .43    -172   -159     -1    235    236 227.3  -0.3  34092  288.41 0862.00
2015 04 09 14 18 00 .68    -139   -185    -19    232    233 217.0  -4.9  34106  288.66 0862.00
2015 04 09 14 18 00 .93    -114   -177    -33    211    214 212.7  -9.0  34134  289.13 0862.00
2015 04 09 14 18 01 .18    -146   -165     -1    221    222 221.4  -0.3  34116  288.84 0862.00
2015 04 09 14 18 01 .43    -163   -143     10    218    219 228.7   2.8  34116  288.82 0862.00
2015 04 09 14 18 01 .67    -172   -146     -6    226    227 229.6  -1.6  34018  287.18 0862.00
2015 04 09 14 18 01 .94    -164   -159      0    229    230 225.8   0.2  34052  287.74 0862.00
2015 04 09 14 18 02 .18    -145   -175      6    228    229 219.7   1.6  34090  288.38 0862.00
2015 04 09 14 18 02 .43    -139   -180     41    228    232 217.8  10.3  34096  288.48 0862.00
2015 04 09 14 18 02 .68    -162   -162     18    230    231 225.1   4.6  34006  286.96 0862.00
2015 04 09 14 18 02 .93    -128   -154     38    201    205 219.9  10.8  34016  287.15 0862.00
2015 04 09 14 18 03 .18    -140   -181     26    229    231 217.8   6.5  34008  287.00 0862.00
2015 04 09 14 18 03 .44    -150   -189     15    242    243 218.5   3.6  34008  286.99 0862.00
2015 04 09 14 18 03 .69    -164   -179      8    243    244 222.5   2.1  34006  286.97 0862.00
2015 04 09 14 18 03 .94    -177   -175      9    249    250 225.3   2.1  34006  286.97 0862.00
2015 04 09 14 18 04 .20    -168   -172     16    241    242 224.3   3.9  34026  287.29 0862.00
2015 04 09 14 18 04 .45    -159   -188     19    247    248 220.3   4.6  34046  287.63 0861.99
2015 04 09 14 18 04 .70    -147   -197     19    246    247 216.7   4.6  34034  287.43 0861.99
2015 04 09 14 18 04 .95    -163   -182      0    245    246 221.9   0.0  34074  288.12 0861.99
2015 04 09 14 18 05 .20    -167   -167      2    237    238 225.1   0.7  34088  288.36 0861.99
2015 04 09 14 18 05 .45    -124   -148    -23    194    196 220.1  -6.9  34096  288.48 0861.99
2015 04 09 14 18 05 .70    -121   -140    -15    186    187 220.8  -4.9  34106  288.65 0861.99
2015 04 09 14 18 05 .94    -160   -147    -47    218    224 227.6 -12.2  34048  287.69 0861.99
2015 04 09 14 18 06 .20    -145   -138    -47    201    207 226.4 -13.3  34004  286.94 0861.99
2015 04 09 14 18 06 .45    -128   -142    -24    192    194 222.1  -7.2  34046  287.65 0861.99
2015 04 09 14 18 06 .70    -121   -146    -16    190    191 219.6  -4.9  34060  287.89 0861.99
2015 04 09 14 18 06 .95    -110   -142    -17    180    181 217.8  -5.6  34072  288.08 0861.99
2015 04 09 14 18 07 .20    -121   -153    -15    196    197 218.3  -4.6  34074  288.11 0861.99
2015 04 09 14 18 07 .45    -109   -169    -25    202    204 213.0  -7.3  34074  288.11 0861.99
2015 04 09 14 18 07 .70    -121   -166    -32    206    209 216.3  -9.0  34080  288.21 0861.99
2015 04 09 14 18 07 .95    -105   -152    -45    185    191 214.7 -13.9  34062  287.92 0861.99
2015 04 09 14 18 08 .20    -112   -164    -44    199    204 214.3 -12.6  34046  287.65 0861.99
2015 04 09 14 18 08 .46     -95   -168    -34    194    198 209.4 -10.1  34036  287.49 0861.99
2015 04 09 14 18 08 .70     -97   -164    -27    191    194 210.7  -8.2  34034  287.43 0861.99
2015 04 09 14 18 08 .95     -82   -155    -11    176    177 208.1  -3.7  34040  287.55 0861.99
2015 04 09 14 18 09 .21     -93   -146      0    174    175 212.5  -0.3  34042  287.57 0861.99
2015 04 09 14 18 09 .46     -77   -172     30    189    192 204.1   9.0  34034  287.43 0861.99
2015 04 09 14 18 09 .71     -95   -118    -19    152    154 218.7  -7.2  34036  287.49 0861.99
2015 04 09 14 18 09 .96    -112   -129    -12    171    172 221.0  -4.1  34038  287.50 0861.99
2015 04 09 14 18 10 .21    -115   -137    -17    180    181 220.1  -5.6  34038  287.50 0861.99
2015 04 09 14 18 10 .47    -126   -133    -16    184    185 223.3  -5.2  34074  288.11 0861.99
2015 04 09 14 18 10 .72    -114   -154      3    192    193 216.5   1.0  34070  288.04 0861.99
2015 04 09 14 18 10 .97    -106   -147     -1    182    183 215.8  -0.5  34076  288.14 0861.99
2015 04 09 14 18 11 .22     -83   -143     -6    166    167 210.1  -2.3  34078  288.20 0861.99
2015 04 09 14 18 11 .47     -69   -181    -36    194    198 200.9 -10.5  34038  287.52 0861.99
2015 04 09 14 18 11 .72     -55   -218     -8    226    227 194.3  -2.2  34038  287.52 0861.99
2015 04 09 14 18 11 .97     -55   -182     23    191    193 196.9   6.9  34058  287.84 0861.99
2015 04 09 14 18 12 .22    -117   -150      0    191    192 218.1   0.0  34054  287.77 0861.99
2015 04 09 14 18 12 .48    -116   -163    -34    201    205 215.4  -9.8  34052  287.76 0861.99
2015 04 09 14 18 12 .72     -95   -179    -51    203    210 208.1 -14.3  34060  287.87 0861.99
2015 04 09 14 18 12 .98     -78   -206    -66    221    231 200.9 -16.6  34096  288.48 0861.99
2015 04 09 14 18 13 .22     -62   -175     -7    186    187 199.6  -2.2  34096  288.48 0861.99
2015 04 09 14 18 13 .47     -17   -200    -34    201    204 184.9  -9.6  34068  288.03 0861.99
2015 04 09 14 18 13 .73     -53   -167    -49    176    183 197.8 -15.8  34104  288.62 0861.99
2015 04 09 14 18 13 .97     -39   -118    -15    125    127 198.3  -7.2  34080  288.23 0861.99
2015 04 09 14 18 14 .22     -66   -120     -9    138    139 208.9  -3.7  34082  288.26 0861.99
2015 04 09 14 18 14 .48     -54   -163    -21    172    174 198.3  -7.2  34086  288.31 0861.99
2015 04 09 14 18 14 .73     -38   -191    -57    195    203 191.5 -21.5  34066  287.99 0861.99
2015 04 09 14 18 14 .98     -86   -200    -74    218    231 203.4 -18.7  34092  288.42 0861.99
2015 04 09 14 18 15 .23     -95   -193    -44    216    221 206.3 -11.5  34076  288.16 0861.99
2015 04 09 14 18 15 .48     -45   -211    -27    216    218 192.3  -7.3  34098  288.53 0861.99
2015 04 09 14 18 15 .73     -18   -234    -45    235    240 184.5 -10.9  34072  288.09 0861.99
2015 04 09 14 18 15 .98       0   -240    -23    241    243 180.0  -5.6  34108  288.70 0861.99
2015 04 09 14 18 16 .24     -38   -202     13    206    207 190.7   3.6  34104  288.64 0861.99
2015 04 09 14 18 16 .48     -16   -219    -10    220    221 184.4  -2.6  34056  287.81 0861.99
2015 04 09 14 18 16 .73     -14   -194    -47    195    201 184.4 -13.7  34022  287.25 0861.99
2015 04 09 14 18 16 .98       0   -180    -43    181    187 180.0 -13.4  34040  287.55 0861.99
2015 04 09 14 18 17 .24     -15   -186    -30    187    190 184.7  -9.3  34042  287.57 0861.99
2015 04 09 14 18 17 .50     -21   -192    -47    194    200 186.5 -13.7  34036  287.47 0861.99
2015 04 09 14 18 17 .75     -10   -177    -49    178    185 183.4 -15.5  34044  287.60 0861.99
2015 04 09 14 18 17 .99     -26   -160    -29    163    166 189.3 -10.1  34044  287.60 0861.99
2015 04 09 14 18 18 .25     -32   -156    -27    160    163 191.6  -9.6  34066  287.98 0861.99
2015 04 09 14 18 18 .50     -29   -179    -27    182    185 189.3  -8.6  34124  288.96 0861.99
2015 04 09 14 18 18 .75     -11   -143    -28    144    147 184.5 -11.3  34138  289.19 0861.99
2015 04 09 14 18 19 .00      32   -159     -6    163    164 168.4  -2.2  34178  289.87 0861.99
2015 04 09 14 18 19 .25       6   -138    -17    139    141 177.3  -7.3  34074  288.11 0861.99
2015 04 09 14 18 19 .50      29   -143     -9    147    148 168.4  -3.7  34070  288.04 0861.99
2015 04 09 14 18 19 .75      59   -128    -20    142    144 155.1  -8.2  34068  288.03 0861.99
2015 04 09 14 18 20 .01      58   -145     -4    157    158 158.1  -1.6  34122  288.94 0861.99
2015 04 09 14 18 20 .25      30   -121     29    125    129 165.7  13.2  34140  289.24 0861.99
2015 04 09 14 18 20 .50      28   -138     -5    141    142 168.5  -2.2  34082  288.26 0861.99
2015 04 09 14 18 20 .76      10   -124    -14    125    126 175.1  -6.7  34086  288.31 0861.99
2015 04 09 14 18 21 .00       0   -106    -12    107    108 179.5  -6.7  34140  289.24 0861.99
2015 04 09 14 18 21 .25      -3   -151     -8    152    153 181.4  -3.2  34088  288.36 0861.99
2015 04 09 14 18 21 .50       2   -148     -8    149    150 179.1  -3.2  34134  289.13 0861.99
2015 04 09 14 18 21 .76     -18   -145      4    147    148 187.1   1.8  34142  289.28 0861.99
2015 04 09 14 18 22 .01       2   -132      6    133    134 179.1   2.8  34172  289.77 0861.99
2015 04 09 14 18 22 .25      -1   -112      5    113    114 181.0   2.8  34184  289.97 0861.99
2015 04 09 14 18 22 .50       1   -123    -15    124    125 179.5  -7.2  34176  289.84 0861.99
2015 04 09 14 18 22 .76       6   -133    -12    134    135 177.3  -5.2  34194  290.16 0861.99
2015 04 09 14 18 23 .01      18   -122     14    124    125 171.5   6.9  34232  290.79 0861.99
2015 04 09 14 18 23 .25     -22   -157     -8    159    160 188.1  -3.1  34152  289.45 0861.99
2015 04 09 14 18 23 .51     -23   -155     12    157    158 188.5   4.4  34150  289.41 0861.99
2015 04 09 14 18 23 .76       3   -183      0    184    185 178.9   0.2  34174  289.80 0861.99
2015 04 09 14 18 24 .01     -13   -170     24    171    173 184.5   8.0  34190  290.09 0861.99
2015 04 09 14 18 24 .27     -18   -181      8    182    183 185.8   2.8  34134  289.13 0861.99
2015 04 09 14 18 24 .52     -47   -198      0    204    205 193.4   0.0  34136  289.16 0861.99
2015 04 09 14 18 24 .77     -57   -248    -27    255    257 193.1  -6.1  34062  287.92 0861.99
2015 04 09 14 18 25 .03     -90   -257    -15    273    274 199.4  -3.3  34072  288.09 0861.99
2015 04 09 14 18 25 .27     -37   -242    -26    245    247 188.9  -6.2  34136  289.15 0861.99
2015 04 09 14 18 25 .52     -12   -223    -28    224    226 183.1  -7.3  34100  288.57 0861.99
2015 04 09 14 18 25 .78     -17   -232    -12    233    234 184.4  -3.2  34078  288.17 0861.99
2015 04 09 14 18 26 .02     -16   -300     -6    301    302 183.1  -1.3  34050  287.70 0861.99
2015 04 09 14 18 26 .28     -29   -283     -6    285    286 186.0  -1.3  34004  286.94 0861.99
2015 04 09 14 18 26 .53     -26   -256      3    258    259 186.0   0.8  34020  287.21 0861.99
2015 04 09 14 18 26 .77     -47   -250    -21    255    256 190.7  -4.9  34014  287.09 0861.99
2015 04 09 14 18 27 .03     -70   -245     -5    256    257 196.1  -1.3  34024  287.26 0861.99
2015 04 09 14 18 27 .28     -75   -235    -21    247    248 197.8  -4.9  34022  287.24 0861.99
2015 04 09 14 18 27 .53     -14   -193     -1    194    195 184.2  -0.5  34068  288.01 0861.99
2015 04 09 14 18 27 .78     -27   -241     -1    243    244 186.5  -0.3  34086  288.31 0861.99
2015 04 09 14 18 28 .02     -31   -219     21    222    224 188.2   5.4  34082  288.26 0861.99
2015 04 09 14 18 28 .28     -53   -267     -8    273    274 191.3  -1.8  34028  287.34 0861.99
2015 04 09 14 18 28 .53     -74   -260    -14    271    272 196.0  -3.1  34044  287.60 0861.99
2015 04 09 14 18 28 .78     -45   -241     -9    246    247 190.7  -2.2  34020  287.19 0861.99
2015 04 09 14 18 29 .03     -34   -220      8    223    224 188.9   2.1  34080  288.21 0861.99
2015 04 09 14 18 29 .28     -36   -257    -18    260    261 188.0  -4.1  34012  287.06 0861.99
2015 04 09 14 18 29 .53     -39   -222      9    226    227 190.0   2.5  34100  288.57 0861.99
2015 04 09 14 18 29 .79     -35   -200     43    204    209 190.0  12.0  34098  288.53 0861.99
2015 04 09 14 18 30 .04     -57   -230     -9    238    239 194.0  -2.2  34070  288.04 0861.99
2015 04 09 14 18 30 .28     -55   -259      3    265    266 192.0   0.8  34018  287.16 0861.99
2015 04 09 14 18 30 .53     -40   -256    -14    260    261 188.9  -3.3  33994  286.77 0861.99
2015 04 09 14 18 30 .78     -34   -248    -27    251    253 188.0  -6.2  33994  286.75 0861.99
2015 04 09 14 18 31 .03     -50   -258    -27    263    265 191.1  -6.0  33994  286.77 0861.99
2015 04 09 14 18 31 .29     -32   -260    -38    263    266 187.2  -8.3  34002  286.90 0861.99
2015 04 09 14 18 31 .55     -51   -242    -17    248    249 192.0  -4.1  34014  287.11 0861.99
2015 04 09 14 18 31 .80     -42   -238    -26    242    244 190.2  -6.2  34014  287.09 0861.99
2015 04 09 14 18 32 .05     -24   -236    -27    238    240 185.8  -6.7  34024  287.26 0861.99
2015 04 09 14 18 32 .30     -37   -265    -28    268    270 188.0  -6.1  34038  287.50 0861.99
2015 04 09 14 18 32 .55     -56   -278    -35    284    287 191.6  -7.2  34008  287.01 0861.99
2015 04 09 14 18 32 .80     -35   -287    -36    290    293 187.1  -7.2  34002  286.89 0861.99
2015 04 09 14 18 33 .06     -50   -282    -26    287    289 190.2  -5.2  34006  286.97 0861.99
2015 04 09 14 18 33 .30     -64   -314    -52    321    326 191.6  -9.3  34030  287.38 0861.99
2015 04 09 14 18 33 .56     -54   -266    -24    272    274 191.6  -5.2  34066  287.97 0861.99
2015 04 09 14 18 33 .80    -137   -224     -1    263    264 211.4  -0.3  34106  288.66 0861.99
2015 04 09 14 18 34 .05     -99   -237     -3    257    258 202.7  -0.7  34116  288.83 0861.98
2015 04 09 14 18 34 .30     -58   -287    -42    293    297 191.5  -8.3  34026  287.29 0861.98
2015 04 09 14 18 34 .55      18   -287    -27    288    290 176.4  -5.4  34036  287.46 0861.98
2015 04 09 14 18 34 .80      13   -286    -37    287    290 177.4  -7.5  34018  287.16 0861.98
2015 04 09 14 18 35 .05      24   -283    -41    285    288 175.1  -8.3  34008  286.99 0861.98
2015 04 09 14 18 35 .31       0   -286    -24    287    289 180.0  -4.9  34002  286.90 0861.98
2015 04 09 14 18 35 .56      -4   -275    -67    276    285 180.9 -13.7  33998  286.82 0861.98
2015 04 09 14 18 35 .81       1   -280    -61    281    288 179.8 -12.4  34012  287.06 0861.98
2015 04 09 14 18 36 .06      12   -297    -50    298    303 177.5  -9.6  34006  286.95 0861.98
2015 04 09 14 18 36 .31      14   -289    -37    290    293 177.1  -7.3  34016  287.12 0861.98
2015 04 09 14 18 36 .56      13   -287    -26    288    290 177.3  -5.2  34008  287.01 0861.98
2015 04 09 14 18 36 .81      46   -295    -36    299    302 171.1  -6.9  34018  287.16 0861.98
2015 04 09 14 18 37 .06      51   -296    -45    301    305 170.2  -8.6  34014  287.11 0861.98
2015 04 09 14 18 37 .31      57   -283    -52    289    294 168.5 -10.4  34016  287.12 0861.98
2015 04 09 14 18 37 .56      25   -278    -39    280    283 174.7  -8.0  34018  287.16 0861.98
2015 04 09 14 18 37 .81       8   -277    -30    278    280 178.2  -6.2  34018  287.16 0861.98
2015 04 09 14 18 38 .06       2   -281    -30    282    284 179.5  -6.2  34020  287.21 0861.98
2015 04 09 14 18 38 .32       7   -226    -29    227    229 178.2  -7.3  34018  287.18 0861.98
2015 04 09 14 18 38 .57     -26   -264    -38    266    269 185.8  -8.2  34034  287.43 0861.97
2015 04 09 14 18 38 .83     -14   -229    -54    230    237 183.6 -13.4  34036  287.48 0861.97
2015 04 09 14 18 39 .07     -97   -211     -2    233    234 204.7  -0.5  34050  287.71 0861.97
2015 04 09 14 18 39 .32     -32   -197    -35    200    204 189.3 -10.1  34014  287.10 0861.97
2015 04 09 14 18 39 .57     -40   -198    -42    202    207 191.5 -11.9  34030  287.37 0861.97
2015 04 09 14 18 39 .83     -47   -197      0    203    204 193.6   0.0  34040  287.55 0861.97
2015 04 09 14 18 40 .08     -60   -199    -16    209    210 196.9  -4.6  34042  287.57 0861.97
2015 04 09 14 18 40 .33     -55   -185    -27    194    196 196.7  -8.0  34058  287.86 0861.97
2015 04 09 14 18 40 .58     -20   -190    -62    192    202 186.2 -18.1  34054  287.79 0861.97
2015 04 09 14 18 40 .83     -81   -175    -18    193    194 204.9  -5.4  34062  287.91 0861.97
2015 04 09 14 18 41 .08     -26   -177    -27    179    182 188.5  -8.8  34058  287.86 0861.97
2015 04 09 14 18 41 .33     -39   -148     -3    154    155 195.1  -1.3  34074  288.13 0861.97
2015 04 09 14 18 41 .58     -45   -133     -1    141    142 198.7  -0.7  34080  288.21 0861.97
2015 04 09 14 18 41 .83     -51   -125     -7    136    137 202.3  -3.1  34094  288.47 0861.97
2015 04 09 14 18 42 .08     -53   -147    -19    157    159 200.1  -6.9  34080  288.21 0861.97
2015 04 09 14 18 42 .33     -31   -129      6    133    134 193.8   2.8  34082  288.26 0861.97
2015 04 09 14 18 42 .58     -36   -146    -13    151    152 193.8  -5.2  34086  288.31 0861.97
2015 04 09 14 18 42 .83     -11   -147      2    148    149 184.4   0.8  34090  288.38 0861.97
2015 04 09 14 18 43 .08      -9   -179      3    180    181 183.1   1.0  34090  288.38 0861.97
2015 04 09 14 18 43 .34     -16   -205     18    206    207 184.5   5.2  34112  288.77 0861.97
2015 04 09 14 18 43 .58     -50   -152      5    161    162 198.3   2.1  34110  288.74 0861.97
2015 04 09 14 18 43 .84      49   -146     -7    155    156 161.3  -2.6  34136  289.16 0861.97
2015 04 09 14 18 44 .09      16   -168    -21    169    171 174.4  -7.3  34134  289.14 0861.97
2015 04 09 14 18 44 .34     -29   -178      9    181    182 189.3   2.9  34154  289.48 0861.97
2015 04 09 14 18 44 .58       0   -183     30    184    187 180.0   9.5  34138  289.21 0861.97
2015 04 09 14 18 44 .84      24   -191     30    193    196 172.7   8.8  34136  289.18 0861.97
2015 04 09 14 18 45 .10     -14   -183     22    184    186 184.4   6.9  34124  288.96 0861.97
2015 04 09 14 18 45 .35      -8   -175     13    176    177 182.7   4.2  34112  288.75 0861.97
2015 04 09 14 18 45 .60       3   -204      8    205    206 179.0   2.5  34108  288.69 0861.97
2015 04 09 14 18 45 .85      92   -201     27    222    224 155.3   7.1  34142  289.28 0861.97
2015 04 09 14 18 46 .10      20   -222     28    224    226 174.7   7.2  34112  288.77 0861.97
2015 04 09 14 18 46 .35      53   -242     25    248    250 167.5   5.9  34094  288.44 0861.97
2015 04 09 14 18 46 .60      17   -226     66    227    237 175.5  16.3  34096  288.48 0861.96
2015 04 09 14 18 46 .85      60   -271     18    278    279 167.5   3.8  34082  288.24 0861.96
2015 04 09 14 18 47 .11      91   -268    -19    284    285 161.3  -3.9  34074  288.12 0861.96
2015 04 09 14 18 47 .35      63   -256    -17    264    265 166.0  -3.7  34054  287.78 0861.96
2015 04 09 14 18 47 .61      90   -250     33    266    269 160.2   7.1  34142  289.27 0861.96
2015 04 09 14 18 47 .86     107   -268     -1    289    290 158.2  -0.3  34170  289.75 0861.96
2015 04 09 14 18 48 .10     165   -228     34    282    285 144.0   6.9  34166  289.68 0861.96
2015 04 09 14 18 48 .35     128   -124     74    179    193 134.2  23.4  34192  290.13 0861.96
2015 04 09 14 18 48 .61      78   -192     17    208    209 157.9   4.9  34174  289.80 0861.96
2015 04 09 14 18 48 .86      95   -140     49    170    178 145.8  16.3  34196  290.18 0861.96
2015 04 09 14 18 49 .10      99   -140     60    172    183 144.6  19.4  34174  289.82 0861.96
2015 04 09 14 18 49 .36      52   -184     50    192    199 164.2  14.7  34136  289.18 0861.96
2015 04 09 14 18 49 .61      61   -195     48    205    211 162.4  13.2  34140  289.23 0861.96
2015 04 09 14 18 49 .86      -4   -140     17    141    143 181.8   6.9  34116  288.82 0861.96
2015 04 09 14 18 50 .11      -2   -120     57    121    133 181.4  27.2  34160  289.57 0861.96
2015 04 09 14 18 50 .36      20   -182     33    184    188 173.5  10.3  34122  288.92 0861.95
2015 04 09 14 18 50 .61      39   -223      3    227    228 170.0   0.8  34056  287.82 0861.95
2015 04 09 14 18 50 .86      39   -223     -4    227    228 170.0  -1.2  34070  288.04 0861.95
2015 04 09 14 18 51 .11      46   -229     -9    234    235 168.4  -2.3  34050  287.71 0861.95
2015 04 09 14 18 51 .37      58   -173     41    183    188 161.3  12.9  34094  288.45 0861.95
2015 04 09 14 18 51 .61       9   -204     41    205    210 177.3  11.4  34054  287.79 0861.95
2015 04 09 14 18 51 .86      27   -194     22    196    198 172.0   6.5  34092  288.43 0861.95
2015 04 09 14 18 52 .12      51   -214     16    221    222 166.6   4.4  34104  288.64 0861.96
2015 04 09 14 18 52 .38      31   -221     -1    224    225 172.0  -0.3  34098  288.53 0861.96
2015 04 09 14 18 52 .63      55   -236      5    243    244 166.7   1.2  34020  287.21 0861.96
2015 04 09 14 18 52 .88      49   -149     46    157    164 161.7  16.6  34042  287.57 0861.96
2015 04 09 14 18 53 .13      15   -156     62    157    168 174.2  22.5  34070  288.04 0861.96
2015 04 09 14 18 53 .38      39   -167     24    172    174 166.6   8.0  34082  288.25 0861.96
2015 04 09 14 18 53 .63      35   -179     -4    183    184 168.7  -1.3  34056  287.81 0861.96
2015 04 09 14 18 53 .87       9   -176     -3    177    178 176.9  -1.3  34066  287.98 0861.95
2015 04 09 14 18 54 .13      11   -148     79    149    168 175.5  30.3  34088  288.35 0861.95
2015 04 09 14 18 54 .38      21   -179      9    181    182 173.3   2.9  34094  288.45 0861.95
2015 04 09 14 18 54 .63      -3   -179     11    180    181 181.1   3.6  34058  287.84 0861.95
2015 04 09 14 18 54 .88      51   -187      9    194    195 164.6   2.9  34006  286.96 0861.95
2015 04 09 14 18 55 .13      43   -191      9    196    197 167.1   2.9  34024  287.28 0861.95
2015 04 09 14 18 55 .39      51   -219      0    226    227 166.7   0.0  34036  287.47 0861.95
2015 04 09 14 18 55 .64      63   -208     -8    218    219 163.1  -2.2  34054  287.79 0861.95
2015 04 09 14 18 55 .88       7   -202     45    203    209 177.8  12.6  34100  288.55 0861.95
2015 04 09 14 18 56 .14      15   -184      7    185    186 175.1   2.3  34062  287.91 0861.95
2015 04 09 14 18 56 .38      22   -225      0    227    228 174.2   0.0  34030  287.37 0861.95
2015 04 09 14 18 56 .63      20   -241     -7    242    243 175.1  -1.8  34070  288.04 0861.95
2015 04 09 14 18 56 .88      25   -230    -11    232    233 173.8  -2.8  34050  287.70 0861.95
2015 04 09 14 18 57 .14      32   -227    -10    230    231 172.0  -2.6  34044  287.60 0861.95
2015 04 09 14 18 57 .38      31   -194     -9    197    198 170.7  -2.8  34040  287.55 0861.96
2015 04 09 14 18 57 .64       7   -160     28    161    164 177.5   9.9  34102  288.60 0861.96
2015 04 09 14 18 57 .89      60   -162      9    173    174 159.7   3.1  34112  288.77 0861.96
2015 04 09 14 18 58 .14      32   -170     -2    174    175 169.1  -0.7  34092  288.43 0861.96
2015 04 09 14 18 58 .39      -6   -143     50    144    153 182.7  19.4  34112  288.77 0861.96
2015 04 09 14 18 58 .64      22   -186     36    188    192 173.1  10.8  34130  289.08 0861.96
2015 04 09 14 18 58 .88      77   -157     39    176    181 153.7  12.6  34096  288.50 0861.96
2015 04 09 14 18 59 .15     104   -221     24    245    247 154.7   5.7  34142  289.27 0861.96
2015 04 09 14 18 59 .40      66   -172     21    185    187 158.8   6.7  34162  289.62 0861.96
2015 04 09 14 18 59 .65      37   -181     17    185    186 168.4   5.4  34164  289.65 0861.96
2015 04 09 14 18 59 .90      90   -155     28    180    183 149.9   8.8  34176  289.85 0861.96
2015 04 09 14 19 00 .15      71   -199     13    212    213 160.2   3.6  34192  290.11 0861.96
2015 04 09 14 19 00 .40      -4   -168     43    169    175 181.6  14.3  34192  290.11 0861.96
2015 04 09 14 19 00 .65      26   -208     17    210    211 172.7   4.9  34164  289.65 0861.96
2015 04 09 14 19 00 .91      32   -196      3    199    200 170.7   1.0  34164  289.63 0861.96
2015 04 09 14 19 01 .15      29   -199     10    202    203 171.5   2.9  34158  289.53 0861.96
2015 04 09 14 19 01 .41       0   -220    -18    221    222 179.8  -4.9  34118  288.87 0861.96
2015 04 09 14 19 01 .65     -16   -221     18    222    223 184.2   4.9  34098  288.52 0861.96
2015 04 09 14 19 01 .91     -26   -241     27    243    245 186.2   6.5  34120  288.90 0861.96
2015 04 09 14 19 02 .16     -47   -304     43    308    312 188.9   8.1  34128  289.02 0861.96
2015 04 09 14 19 02 .41     -41   -292     36    296    299 188.1   7.1  34100  288.54 0861.96
2015 04 09 14 19 02 .66      29   -249    -26    251    253 173.3  -6.0  34158  289.53 0861.96
2015 04 09 14 19 02 .91      17   -222     37    223    227 175.5   9.5  34136  289.18 0861.96
2015 04 09 14 19 03 .16     -19   -261    -10    262    263 184.2  -2.3  34060  287.87 0861.96
2015 04 09 14 19 03 .41     -20   -245    -56    246    253 184.7 -12.9  34006  286.97 0861.96
2015 04 09 14 19 03 .66     -36   -271    -26    274    276 187.6  -5.6  34006  286.97 0861.96
2015 04 09 14 19 03 .91     -46   -272    -30    276    278 189.7  -6.2  34012  287.06 0861.96
2015 04 09 14 19 04 .16     -46   -273    -21    277    278 189.7  -4.4  34006  286.97 0861.96
2015 04 09 14 19 04 .41     -52   -269    -10    275    276 191.1  -2.2  34010  287.02 0861.96
2015 04 09 14 19 04 .66     -50   -282    -13    287    288 190.2  -2.6  34036  287.46 0861.96
2015 04 09 14 19 04 .91     -43   -312    -12    316    317 188.0  -2.2  34040  287.53 0861.96
2015 04 09 14 19 05 .16     -26   -295    -11    297    298 185.1  -2.2  34028  287.33 0861.96
2015 04 09 14 19 05 .42      -2   -303     -5    304    305 180.5  -1.1  34066  287.97 0861.95
2015 04 09 14 19 05 .67      18   -310    -36    311    314 176.6  -6.7  34056  287.80 0861.95
2015 04 09 14 19 05 .93      15   -280    -39    281    284 176.9  -8.0  34050  287.70 0861.95
2015 04 09 14 19 06 .18      15   -259    -92    260    277 176.5 -19.6  34058  287.85 0861.95
2015 04 09 14 19 06 .43      -4   -265    -14    266    267 180.9  -3.1  34086  288.32 0861.95
2015 04 09 14 19 06 .68       2   -267    -30    268    270 179.5  -6.5  34118  288.87 0861.95
2015 04 09 14 19 06 .93     -22   -288      2    289    290 184.5   0.5  34150  289.39 0861.95
2015 04 09 14 19 07 .18      -2   -276     33    277    280 180.5   6.9  34158  289.54 0861.95
2015 04 09 14 19 07 .43       8   -234     30    235    237 178.0   7.5  34144  289.29 0861.95
2015 04 09 14 19 07 .68       0   -307     -1    308    309 180.1  -0.3  34072  288.09 0861.95
2015 04 09 14 19 07 .93       0   -296     -6    297    298 180.0  -1.2  34064  287.93 0861.95
2015 04 09 14 19 08 .18       0   -283    -11    284    285 179.9  -2.2  34058  287.83 0861.95
2015 04 09 14 19 08 .43       3   -315      4    316    317 179.3   0.8  34010  287.02 0861.95
2015 04 09 14 19 08 .68       2   -299     -3    300    301 179.5  -0.7  34006  286.95 0861.95
2015 04 09 14 19 08 .93       0   -290     -8    291    292 180.1  -1.6  34002  286.89 0861.95
2015 04 09 14 19 09 .18       0   -282     -8    283    284 180.0  -1.8  34002  286.89 0861.95
2015 04 09 14 19 09 .43      -4   -286    -15    287    288 180.9  -3.1  34000  286.85 0861.95
2015 04 09 14 19 09 .68      -8   -277    -35    278    281 181.8  -7.3  33998  286.84 0861.95
2015 04 09 14 19 09 .94      -2   -265    -34    266    269 180.5  -7.3  34006  286.95 0861.95
2015 04 09 14 19 10 .18       8   -284    -20    285    286 178.2  -4.1  34004  286.94 0861.95
2015 04 09 14 19 10 .43       8   -287    -15    288    289 178.2  -3.1  34002  286.89 0861.95
2015 04 09 14 19 10 .69      16   -276    -22    277    278 176.5  -4.6  34010  287.02 0861.95
2015 04 09 14 19 10 .94      20   -266    -33    267    270 175.6  -7.2  34006  286.97 0861.95
2015 04 09 14 19 11 .19      -2   -275    -12    276    277 180.5  -2.6  34010  287.02 0861.95
2015 04 09 14 19 11 .44       7   -263    -19    264    265 178.4  -4.1  34042  287.56 0861.95
2015 04 09 14 19 11 .69      19   -269     -9    270    271 175.8  -2.1  34036  287.48 0861.95
2015 04 09 14 19 11 .94      -5   -299    -11    300    301 181.1  -2.2  34040  287.53 0861.95
2015 04 09 14 19 12 .19     -23   -300      4    301    302 184.5   0.8  34058  287.83 0861.95
2015 04 09 14 19 12 .44       9   -296     28    297    299 178.2   5.4  34066  287.97 0861.95
2015 04 09 14 19 12 .69      -4   -296     14    297    298 180.9   2.8  34062  287.90 0861.95
2015 04 09 14 19 12 .95       0   -283      4    284    285 179.9   1.0  34066  287.99 0861.95
2015 04 09 14 19 13 .20      14   -280    -10    281    282 177.1  -2.2  34062  287.92 0861.95
2015 04 09 14 19 13 .45      -5   -302     15    303    304 181.1   2.9  34080  288.22 0861.95
2015 04 09 14 19 13 .71      -8   -279      8    280    281 181.8   1.8  34074  288.12 0861.95
2015 04 09 14 19 13 .96      10   -268     -5    269    270 177.8  -1.3  34100  288.54 0861.95
2015 04 09 14 19 14 .21       0   -280    -10    281    282 179.9  -2.2  34124  288.97 0861.95
2015 04 09 14 19 14 .45      39   -277    -15    280    281 171.9  -3.2  34108  288.68 0861.95
2015 04 09 14 19 14 .71      30   -253     -7    255    256 173.1  -1.6  34108  288.68 0861.95
2015 04 09 14 19 14 .96      23   -303      0    305    306 175.5   0.0  34156  289.49 0861.95
2015 04 09 14 19 15 .21      -5   -232     50    233    239 181.4  12.1  34186  290.02 0861.95
2015 04 09 14 19 15 .46      -3   -224     30    225    228 180.9   7.8  34180  289.92 0861.95
2015 04 09 14 19 15 .70     -12   -255    -10    256    257 182.7  -2.2  34122  288.92 0861.95
2015 04 09 14 19 15 .96     -24   -245     22    247    249 185.8   5.2  34152  289.42 0861.95
2015 04 09 14 19 16 .21       2   -251      7    252    253 179.5   1.7  34108  288.68 0861.95
2015 04 09 14 19 16 .46     -32   -301     25    303    305 186.2   4.9  34120  288.90 0861.95
2015 04 09 14 19 16 .71     -27   -284     29    286    288 185.6   5.9  34106  288.65 0861.95
2015 04 09 14 19 16 .96      -4   -279     14    280    281 180.9   2.9  34084  288.27 0861.95
2015 04 09 14 19 17 .21      29   -383    -26    385    386 175.6  -3.9  34096  288.49 0861.95
2015 04 09 14 19 17 .46      10   -353    -77    354    363 178.3 -12.4  34086  288.33 0861.95
2015 04 09 14 19 17 .71      24   -337     -5    338    339 175.9  -0.9  34066  287.98 0861.95
2015 04 09 14 19 17 .97      78   -276     10    287    288 164.2   2.1  34146  289.32 0861.95
2015 04 09 14 19 18 .22       9   -313     22    314    315 178.2   4.0  34156  289.51 0861.94
2015 04 09 14 19 18 .47      57   -285     14    291    292 168.5   2.9  34204  290.32 0861.94
2015 04 09 14 19 18 .71      52   -164     76    173    188 162.4  25.1  34204  290.31 0861.94
2015 04 09 14 19 18 .96      62   -304      9    311    312 168.4   1.7  34048  287.66 0861.94
2015 04 09 14 19 19 .22      45   -348     -9    351    352 172.6  -1.6  34106  288.67 0861.94
2015 04 09 14 19 19 .47     -33   -340     47    342    346 185.6   7.9  34116  288.82 0861.94
2015 04 09 14 19 19 .71       5   -349     15    350    351 179.1   2.5  34106  288.67 0861.94
2015 04 09 14 19 19 .98      36   -346    -19    348    349 174.0  -3.1  34036  287.49 0861.94
2015 04 09 14 19 20 .23      17   -376     13    377    378 177.4   2.1  34032  287.42 0861.94
2015 04 09 14 19 20 .49      20   -365      0    366    367 176.8   0.1  34048  287.66 0861.94
2015 04 09 14 19 20 .73      17   -381    -18    382    383 177.3  -2.8  34072  288.08 0861.94
2015 04 09 14 19 20 .98      55   -388     -2    392    393 171.9  -0.4  34036  287.49 0861.94
2015 04 09 14 19 21 .23      59   -364    -22    369    370 170.7  -3.5  34058  287.86 0861.94
2015 04 09 14 19 21 .48      38   -368    -33    370    372 174.1  -5.2  34064  287.93 0861.94
2015 04 09 14 19 21 .73      28   -393    -64    394    400 175.9  -9.3  34040  287.54 0861.94
2015 04 09 14 19 21 .99      11   -372     -3    373    374 178.3  -0.6  34094  288.44 0861.94
2015 04 09 14 19 22 .23      23   -365     -1    366    367 176.4  -0.3  34092  288.42 0861.94
2015 04 09 14 19 22 .48      35   -338    -11    340    341 173.9  -1.9  34076  288.16 0861.94
2015 04 09 14 19 22 .73      10   -395    -25    396    397 178.5  -3.7  34026  287.29 0861.95
2015 04 09 14 19 22 .98       5   -365    -39    366    369 179.2  -6.2  34000  286.86 0861.95
2015 04 09 14 19 23 .23      30   -385    -21    387    388 175.5  -3.2  34000  286.86 0861.95
2015 04 09 14 19 23 .48      22   -351    -23    352    353 176.3  -3.8  33994  286.78 0861.95
2015 04 09 14 19 23 .74      27   -356    -14    358    359 175.5  -2.2  34000  286.88 0861.95
2015 04 09 14 19 23 .99      30   -336    -10    338    339 174.8  -1.7  34000  286.86 0861.95
2015 04 09 14 19 24 .24      25   -321    -43    323    326 175.5  -7.6  33998  286.82 0861.95
2015 04 09 14 19 24 .49      17   -320    -29    321    323 176.9  -5.2  34022  287.24 0861.95
2015 04 09 14 19 24 .74      53   -343    -22    348    349 171.2  -3.7  34052  287.76 0861.95
2015 04 09 14 19 24 .99      50   -363    -14    367    368 172.1  -2.2  34060  287.89 0861.95
2015 04 09 14 19 25 .24      52   -387      0    391    392 172.3   0.0  34014  287.10 0861.95
2015 04 09 14 19 25 .49      40   -347      7    350    351 173.3   1.2  34008  287.00 0861.95
2015 04 09 14 19 25 .75      60   -356    -14    362    363 170.4  -2.3  34052  287.74 0861.95
2015 04 09 14 19 25 .99      88   -343      5    355    356 165.5   0.9  34062  287.91 0861.95
2015 04 09 14 19 26 .24      55   -305    -34    310    312 169.8  -6.3  33994  286.77 0861.94
2015 04 09 14 19 26 .49      47   -301    -33    305    307 171.1  -6.2  33998  286.82 0861.94
2015 04 09 14 19 26 .74      42   -303    -27    307    309 172.0  -5.1  34000  286.85 0861.94
2015 04 09 14 19 27 .00      35   -297    -16    300    301 173.1  -3.1  33998  286.84 0861.94
2015 04 09 14 19 27 .25      33   -291    -39    293    296 173.5  -7.7  34000  286.85 0861.94
2015 04 09 14 19 27 .51      14   -268     14    269    270 176.9   3.1  34080  288.21 0861.94
2015 04 09 14 19 27 .76      22   -261    -10    263    264 175.1  -2.2  34006  286.95 0861.94
2015 04 09 14 19 28 .01      24   -240    -34    242    245 174.2  -8.0  34002  286.90 0861.94
2015 04 09 14 19 28 .25      44   -233    -43    238    242 169.3 -10.3  34004  286.94 0861.94
2015 04 09 14 19 28 .51      25   -237    -46    239    244 173.8 -10.9  34010  287.02 0861.94
2015 04 09 14 19 28 .76      16   -267    -35    268    271 176.5  -7.5  34028  287.34 0861.94
2015 04 09 14 19 29 .00      28   -259    -36    261    264 173.7  -8.0  34028  287.34 0861.94
2015 04 09 14 19 29 .26      43   -247     -7    251    252 170.0  -1.8  34032  287.39 0861.94
2015 04 09 14 19 29 .51      14   -238    -25    239    241 176.6  -6.0  34040  287.53 0861.94
2015 04 09 14 19 29 .76      17   -222     54    223    230 175.5  13.7  34096  288.48 0861.94
2015 04 09 14 19 30 .01      24   -181     54    183    191 172.4  16.6  34126  289.01 0861.94
2015 04 09 14 19 30 .26      16   -244    -20    245    246 176.2  -4.9  34020  287.19 0861.94
2015 04 09 14 19 30 .51      30   -246    -19    248    249 172.9  -4.6  34020  287.19 0861.94
2015 04 09 14 19 30 .76       8   -222      0    223    224 177.8   0.2  34030  287.37 0861.94
2015 04 09 14 19 31 .01      32   -218      3    221    222 171.5   0.8  34050  287.70 0861.94
2015 04 09 14 19 31 .27      33   -232     -9    235    236 171.9  -2.2  34050  287.70 0861.94
2015 04 09 14 19 31 .51      34   -201    -16    204    205 170.4  -4.6  34038  287.52 0861.94
2015 04 09 14 19 31 .76      15   -200     -8    201    202 175.5  -2.3  34040  287.55 0861.94
2015 04 09 14 19 32 .02      -8   -214     -4    215    216 182.2  -1.3  34070  288.06 0861.94
2015 04 09 14 19 32 .26      30   -167     -5    170    171 169.8  -1.8  34098  288.52 0861.94
2015 04 09 14 19 32 .51      18   -175      5    176    177 174.0   1.8  34056  287.81 0861.94
2015 04 09 14 19 32 .76      21   -206     -1    208    209 174.2  -0.5  34058  287.86 0861.94
2015 04 09 14 19 33 .02      14   -229    -46    230    235 176.4 -11.3  34060  287.88 0861.94
2015 04 09 14 19 33 .27      -3   -245    -44    246    250 180.9 -10.3  34050  287.70 0861.94
2015 04 09 14 19 33 .52      19   -221    -14    222    223 174.9  -3.7  34056  287.82 0861.94
2015 04 09 14 19 33 .78       0   -224     12    225    226 180.0   3.1  34068  288.03 0861.94
2015 04 09 14 19 34 .03     -31   -224      0    227    228 188.0   0.2  34054  287.79 0861.94
2015 04 09 14 19 34 .28     -26   -240     37    242    245 186.2   8.8  34086  288.32 0861.94
2015 04 09 14 19 34 .53     -37   -261     14    264    265 188.2   3.1  34112  288.75 0861.94
2015 04 09 14 19 34 .78     -26   -266     17    268    269 185.6   3.8  34112  288.76 0861.94
2015 04 09 14 19 35 .03      -7   -248     34    249    252 181.8   7.8  34098  288.53 0861.94
2015 04 09 14 19 35 .28     -38   -220     -1    224    225 189.8  -0.3  34068  288.01 0861.94
2015 04 09 14 19 35 .53       1   -219     -1    220    221 179.5  -0.3  34052  287.74 0861.94
2015 04 09 14 19 35 .78     -45   -226    -12    231    232 191.5  -3.2  34052  287.74 0861.94
2015 04 09 14 19 36 .03     -55   -194     -7    202    203 196.0  -2.2  34052  287.74 0861.94
2015 04 09 14 19 36 .28     -26   -191    -29    193    196 188.0  -8.6  34052  287.76 0861.94
2015 04 09 14 19 36 .54     -78   -147     -2    167    168 208.1  -0.7  34072  288.09 0861.94
2015 04 09 14 19 36 .79     -54   -182     16    190    191 196.5   4.9  34076  288.16 0861.94
2015 04 09 14 19 37 .04     -41   -186      8    191    192 192.7   2.5  34070  288.06 0861.94
2015 04 09 14 19 37 .29      11   -149     29    150    153 175.6  11.1  34076  288.16 0861.94
2015 04 09 14 19 37 .54      14   -187    -24    188    190 175.5  -7.3  34104  288.64 0861.94
2015 04 09 14 19 37 .79      63   -136     69    150    165 155.1  26.4  34152  289.43 0861.94
2015 04 09 14 19 38 .03      38   -161     24    166    168 166.6   8.2  34150  289.41 0861.94
2015 04 09 14 19 38 .29      34   -183    -13    187    188 169.3  -4.1  34104  288.62 0861.94
2015 04 09 14 19 38 .54      16   -148    -17    149    151 173.8  -6.7  34094  288.45 0861.94
2015 04 09 14 19 38 .79      23   -185    -18    187    188 172.7  -5.6  34082  288.25 0861.94
2015 04 09 14 19 39 .05       4   -175    -15    176    177 178.4  -4.9  34092  288.43 0861.94
2015 04 09 14 19 39 .30      18   -122     30    124    128 171.5  13.7  34106  288.65 0861.94
2015 04 09 14 19 39 .54       0   -186     15    187    188 180.2   4.9  34162  289.62 0861.94
2015 04 09 14 19 39 .79       6   -228     11    229    230 178.4   2.9  34132  289.11 0861.94
2015 04 09 14 19 40 .04       0   -308     26    309    311 180.0   5.0  34080  288.22 0861.94
2015 04 09 14 19 40 .29       4   -274    -24    275    277 179.1  -5.1  34036  287.46 0861.94
2015 04 09 14 19 40 .55      14   -278    -47    279    283 177.1  -9.6  34032  287.41 0861.94
2015 04 09 14 19 40 .81      27   -254    -46    256    261 173.8 -10.3  34048  287.66 0861.94
2015 04 09 14 19 41 .06      19   -212    -13    214    215 174.7  -3.7  34056  287.82 0861.94
2015 04 09 14 19 41 .30      11   -207      0    208    209 176.9   0.0  34078  288.18 0861.94
2015 04 09 14 19 41 .56      -5   -245     36    246    249 181.4   8.5  34104  288.61 0861.94
2015 04 09 14 19 41 .81      78   -306     24    316    317 165.7   4.4  34128  289.02 0861.94
2015 04 09 14 19 42 .06       6   -313     -3    314    315 178.9  -0.6  34116  288.81 0861.94
2015 04 09 14 19 42 .31      50   -338    -24    342    343 171.5  -4.0  34014  287.10 0861.94
2015 04 09 14 19 42 .56      34   -285    -11    288    289 173.1  -2.2  34074  288.12 0861.94
2015 04 09 14 19 42 .81     100   -304    -34    321    323 161.7  -6.2  34020  287.19 0861.94
2015 04 09 14 19 43 .06      68   -288     55    297    303 166.6  10.6  34138  289.19 0861.94
2015 04 09 14 19 43 .31     113   -286    -12    308    309 158.4  -2.2  34008  287.01 0861.93
2015 04 09 14 19 43 .56      98   -270    -11    288    289 160.0  -2.2  34058  287.85 0861.93
2015 04 09 14 19 43 .81     126   -255      3    285    286 153.7   0.7  33996  286.79 0861.93
2015 04 09 14 19 44 .06      29   -295     -2    297    298 174.2  -0.5  34090  288.39 0861.93
2015 04 09 14 19 44 .31      74   -234     23    246    248 162.4   5.4  34066  287.99 0861.93
2015 04 09 14 19 44 .57     112   -280      3    302    303 158.1   0.7  34056  287.80 0861.93
2015 04 09 14 19 44 .82     126   -256     12    286    287 153.7   2.5  34064  287.93 0861.93
2015 04 09 14 19 45 .07      66   -264    -18    273    274 166.0  -3.9  34080  288.22 0861.93
2015 04 09 14 19 45 .31      72   -266     14    276    277 164.9   2.9  34100  288.54 0861.93
2015 04 09 14 19 45 .57     125   -287     10    314    315 156.4   1.9  34010  287.02 0861.93
2015 04 09 14 19 45 .82      47   -278     72    282    292 170.4  14.3  34116  288.81 0861.93
2015 04 09 14 19 46 .06      44   -219     87    224    240 168.7  22.1  34124  288.95 0861.93
2015 04 09 14 19 46 .32      85   -256     28    271    273 161.5   5.9  34028  287.34 0861.93
2015 04 09 14 19 46 .57      70   -259     24    269    271 164.9   5.2  34064  287.95 0861.93
2015 04 09 14 19 46 .82      69   -240    -26    250    252 164.0  -6.1  34082  288.26 0861.93
2015 04 09 14 19 47 .07      75   -319      6    328    329 166.7   1.2  34084  288.29 0861.93
2015 04 09 14 19 47 .32      57   -361    -17    366    367 170.9  -2.8  34078  288.20 0861.93
2015 04 09 14 19 47 .57      19   -347    -35    348    350 176.8  -5.9  34022  287.25 0861.93
2015 04 09 14 19 47 .83      54   -314    -41    319    322 170.2  -7.3  34036  287.48 0861.93
2015 04 09 14 19 48 .08     101   -262      8    282    283 158.8   1.8  34052  287.73 0861.93
2015 04 09 14 19 48 .34      -2   -275     41    276    280 180.5   8.5  34078  288.17 0861.93
2015 04 09 14 19 48 .58      80   -197     46    213    219 157.9  12.4  34110  288.72 0861.93
2015 04 09 14 19 48 .83      55   -295      0    301    302 169.4   0.0  34082  288.26 0861.93
2015 04 09 14 19 49 .08      49   -288      9    293    294 170.3   1.8  34092  288.41 0861.93
2015 04 09 14 19 49 .34      85   -319      1    331    332 165.0   0.2  34052  287.76 0861.93
2015 04 09 14 19 49 .59     121   -304     40    328    331 158.2   7.1  34076  288.16 0861.93
2015 04 09 14 19 49 .84       3   -247     73    248    259 179.1  16.4  34144  289.31 0861.93
2015 04 09 14 19 50 .09      -8   -225     27    226    228 182.2   6.9  34118  288.86 0861.93
2015 04 09 14 19 50 .34       9   -254     16    255    256 177.8   3.8  34098  288.53 0861.93
2015 04 09 14 19 50 .59      18   -235     18    236    237 175.5   4.4  34118  288.85 0861.93
2015 04 09 14 19 50 .84      25   -323    -19    325    326 175.5  -3.5  34086  288.32 0861.93
2015 04 09 14 19 51 .09      20   -332    -13    333    334 176.5  -2.2  34038  287.51 0861.93
2015 04 09 14 19 51 .34      61   -356    -23    362    363 170.3  -3.7  34066  287.98 0861.92
2015 04 09 14 19 51 .59      30   -337      5    339    340 174.9   1.0  34054  287.78 0861.92
2015 04 09 14 19 51 .84     101   -344    -59    359    364 163.6  -9.4  34004  286.93 0861.92
2015 04 09 14 19 52 .10     145   -249    -15    289    290 149.9  -3.1  34078  288.17 0861.92
2015 04 09 14 19 52 .34      70   -299     40    308    311 166.7   7.5  34092  288.41 0861.92
2015 04 09 14 19 52 .59      47   -303    -12    307    308 171.1  -2.2  33992  286.74 0861.92
2015 04 09 14 19 52 .84      43   -306    -47    310    314 172.0  -8.7  33992  286.74 0861.92
2015 04 09 14 19 53 .09      52   -292    -35    297    300 169.8  -6.9  33992  286.74 0861.92
2015 04 09 14 19 53 .34      50   -275    -22    280    281 169.5  -4.6  34012  287.07 0861.92
2015 04 09 14 19 53 .59      58   -272     -8    279    280 168.0  -1.8  34022  287.24 0861.92
2015 04 09 14 19 53 .85      85   -303    -17    315    316 164.2  -3.2  34074  288.10 0861.92
2015 04 09 14 19 54 .10      68   -224     33    235    238 163.1   8.0  34132  289.09 0861.92
2015 04 09 14 19 54 .34      84   -265    -20    279    280 162.4  -4.1  34100  288.54 0861.92
2015 04 09 14 19 54 .61      95   -328     -6    342    343 163.9  -1.1  34094  288.47 0861.92
2015 04 09 14 19 54 .86      92   -330    -26    343    345 164.3  -4.5  34120  288.88 0861.92
2015 04 09 14 19 55 .11     134   -364    -15    389    390 159.7  -2.2  34108  288.69 0861.92
2015 04 09 14 19 55 .36     103   -337     -2    353    354 163.0  -0.4  34128  289.03 0861.92
2015 04 09 14 19 55 .61      57   -327     12    332    333 170.1   2.1  33996  286.80 0861.92
2015 04 09 14 19 55 .86      48   -342     -7    346    347 172.0  -1.3  33992  286.73 0861.92
2015 04 09 14 19 56 .11      83   -338    -33    349    351 166.1  -5.5  33992  286.73 0861.92
2015 04 09 14 19 56 .36      93   -324    -25    338    339 163.9  -4.2  34000  286.88 0861.92
2015 04 09 14 19 56 .61      94   -316    -23    330    331 163.4  -4.1  34004  286.93 0861.92
2015 04 09 14 19 56 .86      49   -348    -78    352    361 171.9 -12.5  34018  287.18 0861.92
2015 04 09 14 19 57 .11      92   -349    -77    361    370 165.2 -12.2  34002  286.91 0861.92
2015 04 09 14 19 57 .37     102   -321    -51    337    341 162.3  -8.7  34010  287.02 0861.92
2015 04 09 14 19 57 .61      91   -322     -6    335    336 164.2  -1.2  34010  287.05 0861.92
2015 04 09 14 19 57 .86      50   -335    -45    339    343 171.4  -7.7  33996  286.80 0861.92
2015 04 09 14 19 58 .11      38   -310    -82    313    324 172.9 -14.8  33992  286.74 0861.92
2015 04 09 14 19 58 .37      60   -297    -16    304    305 168.4  -3.2  34016  287.14 0861.92
2015 04 09 14 19 58 .62      75   -278    -31    289    291 164.9  -6.2  34022  287.22 0861.92
2015 04 09 14 19 58 .87     116   -254     -5    280    281 155.5  -1.2  34042  287.58 0861.92
2015 04 09 14 19 59 .11      37   -252    -32    255    258 171.5  -7.3  34024  287.26 0861.92
2015 04 09 14 19 59 .37      46   -256    -28    261    263 169.8  -6.2  34020  287.19 0861.92
2015 04 09 14 19 59 .62      17   -211     34    212    215 175.1   9.3  34078  288.20 0861.92
2015 04 09 14 19 59 .87       8   -160     51    161    169 176.9  17.7  34082  288.26 0861.92
2015 04 09 14 20 00 .12      33   -152     26    156    159 167.5   9.5  34108  288.69 0861.92
2015 04 09 14 20 00 .37      82   -227     55    242    249 160.0  12.9  34090  288.37 0861.92
2015 04 09 14 20 00 .62     121   -201     26    235    237 148.8   6.5  34058  287.85 0861.92
2015 04 09 14 20 00 .87     140   -200     48    245    250 145.0  11.1  34036  287.48 0861.92
2015 04 09 14 20 01 .12      98   -194     75    218    231 153.3  19.2  34068  288.03 0861.92
2015 04 09 14 20 01 .37     128   -203     65    241    250 147.7  15.2  34068  288.02 0861.92
2015 04 09 14 20 01 .63     109   -155     76    190    204 144.8  23.0  34066  287.99 0861.92
2015 04 09 14 20 01 .88     120   -176     80    214    228 145.7  21.3  34032  287.42 0861.92
2015 04 09 14 20 02 .14     176   -204     63    270    278 139.2  13.1  34072  288.07 0861.93
2015 04 09 14 20 02 .38     122   -193     69    229    240 147.7  16.8  34130  289.05 0861.93
2015 04 09 14 20 02 .64      92   -179     80    202    217 152.6  23.0  34086  288.31 0861.93
2015 04 09 14 20 02 .88      91   -144    100    171    198 147.5  33.1  34100  288.57 0861.93
2015 04 09 14 20 03 .13      82    -93     99    125    159 138.6  42.4  34172  289.77 0861.93
2015 04 09 14 20 03 .38      64   -102     87    121    149 147.5  39.5  34140  289.24 0861.93
2015 04 09 14 20 03 .64      59    -76     97     97    137 142.2  50.1  34150  289.41 0861.93
2015 04 09 14 20 03 .89      24    -21     72     33     79 131.3  74.5  34148  289.38 0861.93
2015 04 09 14 20 04 .14       0    -93     39     94    101 180.5  23.1  34148  289.36 0861.93
2015 04 09 14 20 04 .39      49   -130     42    140    147 159.1  16.8  34124  288.96 0861.93
2015 04 09 14 20 04 .64      47   -166     -3    173    174 164.2  -1.3  34156  289.52 0861.93
2015 04 09 14 20 04 .89      29   -166    -23    169    171 169.8  -8.0  34164  289.65 0861.93
2015 04 09 14 20 05 .14      21   -146     11    148    149 171.5   4.4  34192  290.11 0861.93
2015 04 09 14 20 05 .39      21   -128     43    130    137 170.7  18.4  34190  290.09 0861.93
2015 04 09 14 20 05 .64     133   -144     42    197    202 137.2  12.0  34072  288.08 0861.93
2015 04 09 14 20 05 .89     104   -157     51    189    196 146.4  15.2  34080  288.21 0861.92
2015 04 09 14 20 06 .14      77   -122     65    145    158 147.9  25.9  34082  288.25 0861.92
2015 04 09 14 20 06 .40      60   -128     57    142    153 154.6  23.0  34142  289.26 0861.92
2015 04 09 14 20 06 .64      17    -94     43     96    105 169.8  25.7  34166  289.69 0861.92
2015 04 09 14 20 06 .90      19   -121     23    123    126 171.1  10.6  34192  290.11 0861.92
2015 04 09 14 20 07 .15      54   -170     21    179    181 162.2   6.7  34188  290.06 0861.92
2015 04 09 14 20 07 .40      53   -147     21    157    159 159.9   7.8  34142  289.26 0861.92
2015 04 09 14 20 07 .64      74   -160      2    177    178 155.1   0.8  34114  288.80 0861.92
2015 04 09 14 20 07 .90      74   -147      5    165    166 153.3   1.8  34090  288.40 0861.92
2015 04 09 14 20 08 .15      86   -183     13    203    204 154.7   3.8  34134  289.14 0861.92
2015 04 09 14 20 08 .40      79   -167     47    185    191 154.6  14.3  34144  289.30 0861.92
2015 04 09 14 20 08 .66     -29   -123     38    127    133 193.4  16.8  34218  290.55 0861.92
2015 04 09 14 20 08 .91      13   -120     42    121    129 173.7  19.2  34222  290.62 0861.92
2015 04 09 14 20 09 .16      32   -171     -3    175    176 169.3  -1.2  34190  290.09 0861.92
2015 04 09 14 20 09 .42      78   -164    -17    182    183 154.5  -5.6  34170  289.74 0861.92
2015 04 09 14 20 09 .66      83   -288    -63    300    307 163.9 -12.0  34118  288.85 0861.92
2015 04 09 14 20 09 .92      45   -270     34    274    277 170.4   7.1  34174  289.80 0861.92
2015 04 09 14 20 10 .16      -6   -197      0    198    199 181.8   0.0  34182  289.96 0861.92
2015 04 09 14 20 10 .41      32   -219     10    222    223 171.5   2.8  34180  289.92 0861.92
2015 04 09 14 20 10 .66      38   -237     47    241    246 170.9  11.1  34176  289.83 0861.92
2015 04 09 14 20 10 .92      90   -233     16    250    251 158.8   3.8  34160  289.58 0861.92
2015 04 09 14 20 11 .16      89   -242     40    259    263 159.7   8.8  34072  288.07 0861.92
2015 04 09 14 20 11 .42      22   -217      8    219    220 174.2   2.3  34072  288.08 0861.92
2015 04 09 14 20 11 .67      46   -208    -33    214    217 167.5  -8.8  34048  287.69 0861.92
2015 04 09 14 20 11 .91      86   -243     50    258    263 160.4  11.1  34062  287.90 0861.92
2015 04 09 14 20 12 .17     111   -283     36    305    308 158.6   6.9  34108  288.68 0861.92
2015 04 09 14 20 12 .42      66   -368    -41    374    377 169.8  -6.3  34074  288.11 0861.92
2015 04 09 14 20 12 .67       3   -378    -11    379    380 179.5  -1.7  34080  288.23 0861.92
2015 04 09 14 20 12 .92      93   -360    -19    372    373 165.5  -3.0  34098  288.52 0861.92
2015 04 09 14 20 13 .17      46   -245     24    250    252 169.3   5.7  34126  288.98 0861.92
2015 04 09 14 20 13 .42      84   -330    -36    341    343 165.7  -6.1  34012  287.08 0861.92
2015 04 09 14 20 13 .68      73   -306    -15    315    316 166.6  -2.8  34050  287.70 0861.92
2015 04 09 14 20 13 .92      53   -273      2    279    280 168.9   0.5  34140  289.22 0861.93
2015 04 09 14 20 14 .17      52   -328     -2    333    334 170.9  -0.4  34120  288.91 0861.93
2015 04 09 14 20 14 .42      89   -322     13    335    336 164.4   2.4  34130  289.06 0861.93
2015 04 09 14 20 14 .67      56   -283    -26    289    291 168.7  -5.2  34050  287.70 0861.93
2015 04 09 14 20 14 .93       4   -233     18    234    235 179.0   4.6  34164  289.64 0861.93
2015 04 09 14 20 15 .18     -27   -236     64    238    247 186.7  15.2  34174  289.81 0861.93
2015 04 09 14 20 15 .42      45   -196     20    202    203 167.1   5.7  34176  289.84 0861.93
2015 04 09 14 20 15 .69     -12   -191     54    192    200 183.8  15.8  34162  289.60 0861.93
2015 04 09 14 20 15 .93      16   -270     38    271    274 176.5   8.0  34120  288.88 0861.93
2015 04 09 14 20 16 .19      41   -254     19    258    259 170.7   4.2  34116  288.81 0861.93
2015 04 09 14 20 16 .43      21   -206     20    208    210 174.2   5.7  34118  288.86 0861.93
2015 04 09 14 20 16 .69      41   -201     53    206    213 168.5  14.5  34128  289.04 0861.92
2015 04 09 14 20 16 .94      60   -253      9    261    262 166.6   2.1  34118  288.87 0861.92
2015 04 09 14 20 17 .19     143   -324     15    355    356 156.1   2.5  34198  290.23 0861.92
2015 04 09 14 20 17 .44     136   -267    -11    300    301 153.0  -2.2  34138  289.19 0861.92
2015 04 09 14 20 17 .70      81   -242     30    256    258 161.5   6.9  34144  289.31 0861.92
2015 04 09 14 20 17 .94     151   -322     11    356    357 154.8   1.9  34096  288.50 0861.92
2015 04 09 14 20 18 .19     110   -318      5    337    338 160.8   0.9  34164  289.64 0861.92
2015 04 09 14 20 18 .44     140   -308     14    339    340 155.5   2.5  34020  287.20 0861.92
2015 04 09 14 20 18 .70     133   -248     44    282    286 151.7   9.0  34116  288.81 0861.92
2015 04 09 14 20 18 .95      41   -292      3    296    297 171.9   0.7  34176  289.83 0861.92
2015 04 09 14 20 19 .19       8   -298     14    299    300 178.4   2.8  34176  289.83 0861.92
2015 04 09 14 20 19 .44      87   -327     25    339    340 165.0   4.4  34182  289.96 0861.92
2015 04 09 14 20 19 .70     125   -300      6    326    327 157.3   1.1  34126  288.98 0861.92
2015 04 09 14 20 19 .95     102   -381    -14    395    396 165.0  -2.1  34172  289.77 0861.92
2015 04 09 14 20 20 .20     102   -355     14    370    371 164.0   2.2  34198  290.20 0861.93
2015 04 09 14 20 20 .45     162   -332     43    370    373 153.9   6.7  34202  290.28 0861.93
2015 04 09 14 20 20 .69     153   -321     22    356    357 154.5   3.6  34106  288.66 0861.93
2015 04 09 14 20 20 .95     186   -339     -7    387    388 151.2  -1.2  34044  287.61 0861.93
2015 04 09 14 20 21 .20     135   -306     72    335    343 156.2  12.2  34194  290.16 0861.92
2015 04 09 14 20 21 .44     119   -322     60    344    350 159.7   9.9  34110  288.72 0861.92
2015 04 09 14 20 21 .70     131   -303     -7    331    332 156.6  -1.3  34064  287.96 0861.92
2015 04 09 14 20 21 .95      95   -312     -3    327    328 163.1  -0.6  34064  287.95 0861.92
2015 04 09 14 20 22 .20      90   -295    -14    309    310 163.0  -2.6  34070  288.04 0861.92
2015 04 09 14 20 22 .46     100   -281     12    299    300 160.4   2.3  34104  288.63 0861.92
2015 04 09 14 20 22 .71     104   -259     33    280    283 158.1   6.9  34110  288.73 0861.92
2015 04 09 14 20 22 .96      92   -261     18    277    278 160.6   3.8  34100  288.54 0861.92
2015 04 09 14 20 23 .21      86   -255     13    270    271 161.3   2.8  34118  288.85 0861.92
2015 04 09 14 20 23 .47     129   -248     11    280    281 152.4   2.3  34126  289.00 0861.92
2015 04 09 14 20 23 .71     122   -147    109    192    220 140.3  31.9  34170  289.74 0861.92
2015 04 09 14 20 23 .96      80   -212     29    227    229 159.3   7.5  34116  288.82 0861.92
2015 04 09 14 20 24 .22     115   -234     27    261    263 153.7   6.0  34108  288.68 0861.92
2015 04 09 14 20 24 .47     139   -259     45    295    299 151.7   8.8  34072  288.07 0861.92
2015 04 09 14 20 24 .72      92   -273     14    289    290 161.3   2.8  34074  288.12 0861.92
2015 04 09 14 20 24 .97     126   -255     -3    285    286 153.7  -0.7  34050  287.71 0861.92
2015 04 09 14 20 25 .22     149   -235     13    279    280 147.7   2.8  34072  288.09 0861.92
2015 04 09 14 20 25 .47     129   -201     37    240    243 147.3   8.9  34098  288.51 0861.92
2015 04 09 14 20 25 .72     112   -215     34    243    246 152.4   8.0  34124  288.95 0861.92
2015 04 09 14 20 25 .96     117   -167     40    204    208 145.0  11.1  34146  289.33 0861.92
2015 04 09 14 20 26 .22      33   -206     58    209    218 170.7  15.6  34194  290.14 0861.92
2015 04 09 14 20 26 .47     -13   -178     15    179    180 184.4   4.9  34204  290.33 0861.92
2015 04 09 14 20 26 .72     -91   -192     49    213    219 205.3  13.1  34234  290.82 0861.92
2015 04 09 14 20 26 .97     -19   -231     49    232    238 184.9  12.1  34186  290.02 0861.92
2015 04 09 14 20 27 .22      67   -267    -49    276    281 165.8 -10.1  34098  288.51 0861.92
2015 04 09 14 20 27 .47      40   -287     -6    290    291 172.0  -1.3  34144  289.29 0861.92
2015 04 09 14 20 27 .72      91   -226    -44    244    248 157.9 -10.3  34156  289.51 0861.92
2015 04 09 14 20 27 .97      89   -180     -9    201    202 153.7  -2.6  34160  289.58 0861.92
2015 04 09 14 20 28 .22      62   -175     31    186    189 160.4   9.5  34162  289.60 0861.92
2015 04 09 14 20 28 .48      61   -187     17    197    198 161.7   5.0  34196  290.19 0861.92
2015 04 09 14 20 28 .72     -24   -149     57    152    162 189.3  21.3  34234  290.82 0861.92
2015 04 09 14 20 28 .98     -12   -153     74    154    170 184.5  27.3  34242  290.98 0861.92
2015 04 09 14 20 29 .22      -2   -168     58    169    179 180.9  19.2  34242  290.98 0861.92
2015 04 09 14 20 29 .48      21   -180     18    182    183 173.1   5.7  34196  290.19 0861.92
2015 04 09 14 20 29 .74      10   -220     10    221    222 177.3   2.8  34136  289.18 0861.92
2015 04 09 14 20 29 .99     -10   -219    -19    220    221 182.7  -5.2  34052  287.76 0861.92
2015 04 09 14 20 30 .23       3   -216     -4    217    218 179.0  -1.2  34114  288.80 0861.92
2015 04 09 14 20 30 .49       8   -271     14    272    273 178.2   3.1  34048  287.68 0861.92
2015 04 09 14 20 30 .74       0   -272     18    273    274 180.0   3.8  34030  287.36 0861.92
2015 04 09 14 20 30 .98      -2   -267     -5    268    269 180.5  -1.3  34018  287.16 0861.92
2015 04 09 14 20 31 .24      16   -257      3    258    259 176.4   0.7  34038  287.50 0861.92
2015 04 09 14 20 31 .49      14   -239    -16    240    241 176.6  -3.9  34012  287.07 0861.92
2015 04 09 14 20 31 .74       7   -243     -9    244    245 178.2  -2.2  34018  287.16 0861.92
2015 04 09 14 20 31 .99       0   -258      7    259    260 179.8   1.7  34012  287.07 0861.92
2015 04 09 14 20 32 .24      -4   -279    -10    280    281 180.9  -2.1  34006  286.97 0861.92
2015 04 09 14 20 32 .49     -22   -269     45    271    275 184.9   9.5  34126  288.98 0861.92
2015 04 09 14 20 32 .74     -20   -239     33    240    243 184.9   8.0  34012  287.07 0861.92
2015 04 09 14 20 32 .99     -30   -240     -1    242    243 187.3  -0.3  34018  287.16 0861.92
2015 04 09 14 20 33 .24     -26   -257    -10    259    260 185.8  -2.2  34022  287.22 0861.92
2015 04 09 14 20 33 .50     -24   -259     13    261    262 185.3   2.9  34010  287.04 0861.92
2015 04 09 14 20 33 .75     -23   -275     14    277    278 184.9   2.9  34014  287.11 0861.92
2015 04 09 14 20 33 .99      -7   -303    -11    304    305 181.4  -2.2  34026  287.29 0861.92
2015 04 09 14 20 34 .25       4   -311     -9    312    313 179.1  -1.7  34030  287.38 0861.92
2015 04 09 14 20 34 .50       7   -275    -15    276    277 178.4  -3.2  34028  287.34 0861.92
2015 04 09 14 20 34 .75      -4   -275    -15    276    277 181.0  -3.2  34028  287.34 0861.92
2015 04 09 14 20 35 .00       0   -246    -31    247    249 180.0  -7.2  34032  287.39 0861.92
2015 04 09 14 20 35 .25      -3   -232    -12    233    234 180.9  -3.2  34030  287.38 0861.92
2015 04 09 14 20 35 .50     -16   -210     -2    211    212 184.4  -0.7  34026  287.30 0861.92
2015 04 09 14 20 35 .75     -23   -235     -1    237    238 185.6  -0.3  34024  287.28 0861.92
2015 04 09 14 20 36 .00     -34   -243     12    246    247 188.0   2.9  34022  287.24 0861.92
2015 04 09 14 20 36 .26     -51   -250    -10    256    257 191.6  -2.3  34056  287.82 0861.92
2015 04 09 14 20 36 .51     -13   -262    -47    263    268 182.9 -10.3  34082  288.26 0861.92
2015 04 09 14 20 36 .76     -33   -261    -39    264    267 187.2  -8.6  34044  287.60 0861.92
2015 04 09 14 20 37 .02     -42   -269    -25    273    275 188.9  -5.4  34028  287.34 0861.92
2015 04 09 14 20 37 .27     -32   -252    -23    255    257 187.3  -5.2  34034  287.43 0861.92
2015 04 09 14 20 37 .51     -29   -220    -17    222    223 187.6  -4.4  34042  287.57 0861.92
2015 04 09 14 20 37 .77     -44   -228     -9    233    234 191.1  -2.2  34038  287.50 0861.92
2015 04 09 14 20 38 .01     -41   -216     -8    221    222 190.9  -2.2  34048  287.69 0861.92
2015 04 09 14 20 38 .27     -32   -232      0    235    236 188.0   0.0  34050  287.70 0861.92
2015 04 09 14 20 38 .51     -30   -211     10    214    215 188.1   2.9  34042  287.57 0861.92
2015 04 09 14 20 38 .77       0   -216    -12    217    218 180.2  -3.2  34116  288.84 0861.92
2015 04 09 14 20 39 .01       0   -191      9    192    193 180.2   2.8  34096  288.48 0861.92
2015 04 09 14 20 39 .27     -12   -224     37    225    229 183.1   9.5  34082  288.26 0861.91
2015 04 09 14 20 39 .52     -18   -212     45    213    218 184.9  12.0  34082  288.25 0861.91
2015 04 09 14 20 39 .78     -52   -178     48    186    193 196.5  14.5  34096  288.48 0861.91
2015 04 09 14 20 40 .02       0   -187     40    188    193 179.8  12.0  34110  288.72 0861.91
2015 04 09 14 20 40 .27       1   -195    -25    196    198 179.5  -7.5  34082  288.26 0861.91
2015 04 09 14 20 40 .52      92   -151    -12    177    178 148.6  -3.9  34132  289.09 0861.91
2015 04 09 14 20 40 .77     131   -112     43    173    179 130.7  13.9  34122  288.94 0861.91
2015 04 09 14 20 41 .02      89   -146     27    172    175 148.6   9.0  34122  288.92 0861.91
2015 04 09 14 20 41 .27      90   -135     38    163    168 146.2  13.2  34126  288.99 0861.91
2015 04 09 14 20 41 .53      81   -148     58    169    179 151.1  18.9  34140  289.23 0861.91
2015 04 09 14 20 41 .77     117   -184      2    219    220 147.5   0.7  34166  289.67 0861.91
2015 04 09 14 20 42 .03     102   -210      8    234    235 153.9   2.1  34160  289.58 0861.91
2015 04 09 14 20 42 .27     104   -182     33    210    213 150.1   9.0  34174  289.82 0861.91
2015 04 09 14 20 42 .53      60   -191     -4    201    202 162.4  -1.3  34078  288.18 0861.91
2015 04 09 14 20 42 .78     104   -183    -20    211    213 150.4  -5.6  34114  288.79 0861.91
2015 04 09 14 20 43 .03      73   -180     23    195    197 157.9   6.9  34176  289.84 0861.91
2015 04 09 14 20 43 .28      80   -138    -30    160    163 149.7 -10.9  34042  287.57 0861.91
2015 04 09 14 20 43 .54      67   -156    -22    171    173 156.6  -7.5  34018  287.18 0861.91
2015 04 09 14 20 43 .79      80   -158    -15    178    179 153.0  -4.9  34020  287.20 0861.91
2015 04 09 14 20 44 .04      69   -146    -13    162    163 154.6  -4.6  34022  287.23 0861.91
2015 04 09 14 20 44 .29      45   -136    -20    144    146 161.7  -8.2  34030  287.38 0861.91
2015 04 09 14 20 44 .54      40   -133    -12    140    141 163.1  -5.2  34038  287.50 0861.91
2015 04 09 14 20 44 .79      54   -135     -6    146    147 158.1  -2.6  34046  287.64 0861.91
2015 04 09 14 20 45 .04      51   -123     20    134    136 157.3   8.5  34044  287.62 0861.91
2015 04 09 14 20 45 .30      67   -154     38    169    174 156.3  12.9  34068  288.01 0861.91
2015 04 09 14 20 45 .54      89   -140     52    167    175 147.4  17.3  34098  288.53 0861.91
2015 04 09 14 20 45 .79      83   -152     50    174    182 151.5  16.0  34098  288.52 0861.91
2015 04 09 14 20 46 .04      85   -197     43    215    220 156.6  11.4  34066  287.99 0861.91
2015 04 09 14 20 46 .29      84   -187     36    206    210 155.7  10.1  34044  287.60 0861.92
2015 04 09 14 20 46 .54      78   -174     28    191    194 155.9   8.5  34036  287.47 0861.92
2015 04 09 14 20 46 .80      73   -176      9    191    192 157.5   2.9  34046  287.65 0861.92
2015 04 09 14 20 47 .05      76   -183     11    199    200 157.3   3.3  34158  289.55 0861.92
2015 04 09 14 20 47 .30      52   -193     21    200    202 164.9   6.1  34140  289.23 0861.92
2015 04 09 14 20 47 .55      10   -164     21    165    167 176.2   7.5  34128  289.04 0861.92
2015 04 09 14 20 47 .80      32   -156     22    160    162 168.4   8.0  34140  289.24 0861.92
2015 04 09 14 20 48 .05      30   -150     10    154    155 168.4   3.8  34164  289.63 0861.91
2015 04 09 14 20 48 .30       0   -192     -7    193    194 180.2  -2.1  34126  289.01 0861.91
2015 04 09 14 20 48 .54      35   -162     -3    166    167 167.5  -1.3  34128  289.02 0861.91
2015 04 09 14 20 48 .80      24   -236     -5    238    239 174.0  -1.3  34062  287.90 0861.91
2015 04 09 14 20 49 .05      74   -260    -19    271    272 164.0  -4.1  34112  288.76 0861.91
2015 04 09 14 20 49 .30      48   -240     43    245    249 168.5  10.1  34118  288.87 0861.91
2015 04 09 14 20 49 .55      53   -224    -10    231    232 166.6  -2.6  34094  288.47 0861.91
2015 04 09 14 20 49 .80      50   -224     -1    230    231 167.3  -0.3  34082  288.25 0861.91
2015 04 09 14 20 50 .05      30   -206    -26    209    211 171.5  -7.3  34076  288.16 0861.92
2015 04 09 14 20 50 .32      70   -228    -23    239    241 162.8  -5.6  34102  288.59 0861.92
2015 04 09 14 20 50 .56      46   -204     10    210    211 167.3   2.9  34124  288.97 0861.92
2015 04 09 14 20 50 .81       2   -143     39    144    150 179.0  15.2  34128  289.04 0861.92
2015 04 09 14 20 51 .07       6   -125     60    126    139 176.9  27.3  34152  289.43 0861.92
2015 04 09 14 20 51 .32     -11   -156     26    157    160 184.4   9.5  34154  289.46 0861.92
2015 04 09 14 20 51 .57      -3   -182     49    183    190 181.1  15.2  34120  288.91 0861.92
2015 04 09 14 20 51 .82      78   -193      8    209    210 158.1   2.3  34166  289.67 0861.92
2015 04 09 14 20 52 .07      83   -251      9    265    266 161.5   2.1  34094  288.44 0861.92
2015 04 09 14 20 52 .32      84   -228     34    244    247 159.7   8.0  34114  288.78 0861.92
2015 04 09 14 20 52 .57      56   -185     47    194    200 163.1  13.7  34112  288.77 0861.91
2015 04 09 14 20 52 .82     -13   -176     67    177    189 184.4  21.7  34150  289.40 0861.91
2015 04 09 14 20 53 .07      -2   -156     73    157    173 180.9  26.6  34130  289.06 0861.91
2015 04 09 14 20 53 .32      19   -245     -3    246    247 175.5  -0.7  34088  288.36 0861.91
2015 04 09 14 20 53 .57      -3   -246     39    247    251 180.9   9.0  34078  288.19 0861.91
2015 04 09 14 20 53 .83      27   -249     12    251    252 173.8   2.8  34012  287.07 0861.91
2015 04 09 14 20 54 .07      21   -265      7    266    267 175.3   1.7  34026  287.29 0861.91
2015 04 09 14 20 54 .32      54   -248    -32    254    257 167.6  -7.2  34004  286.92 0861.91
2015 04 09 14 20 54 .58      51   -245     -7    251    252 168.2  -1.8  34006  286.97 0861.91
2015 04 09 14 20 54 .83      54   -261    -10    267    268 168.2  -2.2  34020  287.21 0861.91
2015 04 09 14 20 55 .07      72   -266      4    276    277 164.8   1.0  34028  287.34 0861.91
2015 04 09 14 20 55 .33      44   -313    -42    317    320 171.9  -7.6  34028  287.34 0861.91
2015 04 09 14 20 55 .58       4   -342    -30    343    345 179.3  -5.1  34036  287.47 0861.91
2015 04 09 14 20 55 .83      16   -301    -24    302    303 176.9  -4.6  34054  287.78 0861.91
2015 04 09 14 20 56 .08      21   -206     93    208    227 174.2  25.7  34080  288.21 0861.91
2015 04 09 14 20 56 .33      53   -243     17    249    250 167.5   3.9  34076  288.14 0861.91
2015 04 09 14 20 56 .58      50   -297     15    302    303 170.3   2.9  34056  287.80 0861.91
2015 04 09 14 20 56 .83      49   -341      4    345    346 171.8   0.8  34050  287.72 0861.91
2015 04 09 14 20 57 .08      22   -333    -40    334    337 176.1  -6.9  34054  287.79 0861.91
2015 04 09 14 20 57 .34      24   -308    -56    310    316 175.5 -10.3  34046  287.63 0861.91
2015 04 09 14 20 57 .59      25   -301    -58    303    309 175.1 -10.9  34056  287.80 0861.91
2015 04 09 14 20 57 .84      15   -278    -77    279    290 176.9 -15.4  34080  288.22 0861.91
2015 04 09 14 20 58 .09      35   -311    -46    314    318 173.5  -8.4  34074  288.12 0861.91
2015 04 09 14 20 58 .34     -17   -339    -20    340    341 182.9  -3.5  34066  287.98 0861.91
2015 04 09 14 20 58 .59      -8   -267    -40    268    272 181.8  -8.6  34040  287.55 0861.91
2015 04 09 14 20 58 .84      34   -255    -80    258    270 172.4 -22.5  34034  287.43 0861.91
2015 04 09 14 20 59 .09       6   -229    -86    230    245 178.4 -25.7  34032  287.39 0861.91
2015 04 09 14 20 59 .34       0   -210    -49    211    217 180.2 -13.2  34028  287.33 0861.91
2015 04 09 14 20 59 .59     -12   -234     -1    235    236 183.1  -0.3  34026  287.31 0861.91
2015 04 09 14 20 59 .84      17   -224     -8    225    226 175.5  -2.2  34034  287.43 0861.90
2015 04 09 14 21 00 .10      36   -264     11    267    268 172.2   2.5  34060  287.88 0861.90
2015 04 09 14 21 00 .34      18   -220     -1    221    222 175.1  -0.5  34096  288.50 0861.90
2015 04 09 14 21 00 .60      29   -206     32    209    212 172.0   8.8  34126  289.01 0861.90
2015 04 09 14 21 00 .85      78   -202     35    217    220 158.8   9.3  34128  289.04 0861.90
2015 04 09 14 21 01 .10      66    -99     76    120    142 146.2  35.5  34146  289.33 0861.90
2015 04 09 14 21 01 .35     103   -125     56    163    173 140.4  19.2  34168  289.72 0861.90
2015 04 09 14 21 01 .60      62   -134     40    148    154 155.1  15.2  34160  289.58 0861.90
2015 04 09 14 21 01 .85      30   -144     46    148    156 168.0  17.3  34150  289.41 0861.90
2015 04 09 14 21 02 .10      29   -150     49    153    161 168.9  17.9  34160  289.57 0861.90
2015 04 09 14 21 02 .35      42   -185    -21    190    192 167.1  -6.5  34086  288.31 0861.90
2015 04 09 14 21 02 .60      70   -162    -12    177    178 156.6  -3.9  34116  288.82 0861.90
2015 04 09 14 21 02 .85      41   -151     -1    157    158 164.9  -0.5  34120  288.91 0861.90
2015 04 09 14 21 03 .11      55   -177     10    186    187 162.6   3.1  34152  289.45 0861.90
2015 04 09 14 21 03 .35      72   -131     18    150    152 151.1   6.9  34148  289.36 0861.90
2015 04 09 14 21 03 .61      26   -130     48    133    141 168.4  20.9  34176  289.85 0861.90
2015 04 09 14 21 03 .86      12   -161     31    162    166 175.5  11.1  34172  289.79 0861.90
2015 04 09 14 21 04 .12     -28   -187     51    190    197 188.5  15.0  34154  289.46 0861.90
2015 04 09 14 21 04 .37      26   -185     53    187    195 172.0  16.0  34202  290.28 0861.90
2015 04 09 14 21 04 .62      11   -125     45    126    133 174.7  20.0  34206  290.36 0861.90
2015 04 09 14 21 04 .87     -36   -111     69    117    135 198.3  33.5  34150  289.41 0861.90
2015 04 09 14 21 05 .12     -27   -122     10    125    126 192.5   4.9  34186  290.02 0861.90
2015 04 09 14 21 05 .37       9   -118      0    119    120 175.5  -0.3  34212  290.47 0861.90
2015 04 09 14 21 05 .61      59   -115     20    130    132 152.8   9.0  34256  291.20 0861.90
2015 04 09 14 21 05 .87     -23   -114     41    117    125 191.5  19.4  34166  289.69 0861.90
2015 04 09 14 21 06 .12      -1   -116    -29    117    121 180.9 -13.9  34196  290.19 0861.90
2015 04 09 14 21 06 .37      24   -130     -2    133    134 169.3  -1.3  34214  290.48 0861.90
2015 04 09 14 21 06 .63       0   -168     23    169    171 180.0   8.0  34206  290.35 0861.90
2015 04 09 14 21 06 .87      57   -125      7    138    139 155.5   3.3  34282  291.66 0861.90
2015 04 09 14 21 07 .12      64   -128     61    144    156 153.3  24.1  34278  291.57 0861.89
2015 04 09 14 21 07 .37      56   -128     59    140    151 156.4  24.1  34244  291.01 0861.89
2015 04 09 14 21 07 .62      31   -130     36    134    139 166.2  15.2  34232  290.79 0861.89
2015 04 09 14 21 07 .87      12   -159     -6    160    161 175.6  -2.2  34042  287.57 0861.89
2015 04 09 14 21 08 .12       9   -151    -19    152    154 176.4  -7.2  34040  287.55 0861.89
2015 04 09 14 21 08 .38      17   -160     -2    161    162 173.8  -0.7  34038  287.52 0861.89
2015 04 09 14 21 08 .62       0   -159     -6    160    161 180.0  -2.2  34030  287.37 0861.89
2015 04 09 14 21 08 .87       5   -164      0    165    166 178.0   0.2  34050  287.70 0861.89
2015 04 09 14 21 09 .13      11   -148     -3    149    150 175.6  -1.2  34032  287.42 0861.89
2015 04 09 14 21 09 .38     -11   -126     -4    127    128 185.3  -2.2  34042  287.57 0861.89
2015 04 09 14 21 09 .62     -15   -129     -2    130    131 186.7  -1.3  34052  287.76 0861.89
2015 04 09 14 21 09 .88      -4   -126     -2    127    128 182.2  -1.3  34024  287.28 0861.89
2015 04 09 14 21 10 .13     -10   -139     -7    140    141 184.4  -3.2  34026  287.30 0861.89
2015 04 09 14 21 10 .39     -37   -141     -8    146    147 195.1  -3.2  34064  287.94 0861.89
2015 04 09 14 21 10 .63      -6   -143    -29    144    147 182.7 -11.5  34080  288.21 0861.89
2015 04 09 14 21 10 .88       9   -119     -6    120    121 175.5  -3.2  34136  289.16 0861.89
2015 04 09 14 21 11 .14     -24   -133     11    136    137 190.2   5.0  34068  288.03 0861.89
2015 04 09 14 21 11 .40     -21   -168     -3    170    171 187.3  -1.1  34038  287.52 0861.89
2015 04 09 14 21 11 .64     -59   -155     -9    166    167 200.9  -3.1  34048  287.67 0861.89
2015 04 09 14 21 11 .90      12   -125      7    126    127 174.2   3.3  34154  289.48 0861.89
2015 04 09 14 21 12 .14     -45    -97     56    107    120 204.9  29.3  34084  288.30 0861.89
2015 04 09 14 21 12 .39      -6    -99     19    100    102 183.6  11.0  34084  288.30 0861.89
2015 04 09 14 21 12 .64       0   -126     -4    127    128 180.0  -2.2  34048  287.67 0861.89
2015 04 09 14 21 12 .90      20   -141      2    143    144 171.9   0.8  34122  288.94 0861.89
2015 04 09 14 21 13 .15     -25   -138      6    141    142 190.2   2.8  34096  288.48 0861.89
2015 04 09 14 21 13 .40     -52   -158    -18    167    169 198.5  -6.2  34084  288.30 0861.89
2015 04 09 14 21 13 .65     -67   -205    -29    216    218 198.3  -7.7  34100  288.57 0861.89
2015 04 09 14 21 13 .90     -70   -210    -35    222    225 198.5  -9.0  34120  288.89 0861.89
2015 04 09 14 21 14 .15      27   -178    -13    181    182 171.1  -4.4  34106  288.67 0861.89
2015 04 09 14 21 14 .40      25   -178      0    180    181 171.8   0.2  34106  288.65 0861.89
2015 04 09 14 21 14 .65      16   -193     -2    194    195 175.1  -0.7  34162  289.60 0861.89
2015 04 09 14 21 14 .90      32   -170      7    174    175 169.1   2.3  34166  289.69 0861.89
2015 04 09 14 21 15 .15       9   -167    -33    168    172 176.9 -11.1  34164  289.63 0861.90
2015 04 09 14 21 15 .40     -41   -155      8    161    162 195.1   3.1  34150  289.40 0861.90
2015 04 09 14 21 15 .65     -48   -148     40    156    162 198.3  14.5  34152  289.43 0861.90
2015 04 09 14 21 15 .91     -41   -125     45    132    140 198.3  18.9  34160  289.58 0861.90
2015 04 09 14 21 16 .15     -27   -135     47    138    146 191.6  18.9  34204  290.33 0861.90
2015 04 09 14 21 16 .41     -63   -179     20    190    192 199.4   6.1  34144  289.31 0861.90
2015 04 09 14 21 16 .66     -55   -205     42    213    218 195.2  11.1  34168  289.72 0861.90
2015 04 09 14 21 16 .90     -66   -208     61    219    228 197.6  15.6  34136  289.18 0861.90
2015 04 09 14 21 17 .16     -54   -215     17    222    223 194.3   4.6  34108  288.69 0861.90
2015 04 09 14 21 17 .41     -31   -186     23    189    191 189.6   7.2  34128  289.04 0861.90
2015 04 09 14 21 17 .65      -9   -194     51    195    202 182.9  14.7  34132  289.09 0861.90
2015 04 09 14 21 17 .91      -9   -209    -50    210    216 182.7 -13.4  34050  287.70 0861.90
2015 04 09 14 21 18 .17      36   -173     20    177    179 168.2   6.5  34112  288.75 0861.90
2015 04 09 14 21 18 .42      24   -161     29    163    166 171.5  10.3  34138  289.21 0861.90
2015 04 09 14 21 18 .67     -11   -151      7    152    153 184.5   2.9  34124  288.96 0861.90
2015 04 09 14 21 18 .92     -35   -145    -21    150    152 193.8  -8.2  34014  287.11 0861.90
2015 04 09 14 21 19 .17      -9   -154    -41    155    161 183.6 -15.0  34026  287.32 0861.90
2015 04 09 14 21 19 .43     -26   -176    -21    178    180 188.5  -6.9  34048  287.67 0861.90
2015 04 09 14 21 19 .67      -1   -196     36    197    201 180.5  10.6  34084  288.30 0861.90
2015 04 09 14 21 19 .92      17   -208    -16    209    210 175.3  -4.6  34066  287.99 0861.90
2015 04 09 14 21 20 .18     -38   -181      3    186    187 192.0   1.0  34082  288.26 0861.90
2015 04 09 14 21 20 .42     -47   -198      7    204    205 193.4   2.1  34080  288.21 0861.90
2015 04 09 14 21 20 .67     -17   -168     -4    169    170 186.0  -1.6  34100  288.57 0861.90
2015 04 09 14 21 20 .93     -15   -196    -16    197    198 184.5  -4.9  34130  289.08 0861.90
2015 04 09 14 21 21 .18     -14   -185    -10    186    187 184.5  -3.2  34166  289.67 0861.90
2015 04 09 14 21 21 .43      32   -157     10    161    162 168.4   3.8  34168  289.72 0861.90
2015 04 09 14 21 21 .68      60   -101      5    118    119 149.3   2.8  34162  289.60 0861.90
2015 04 09 14 21 21 .93      61   -115      8    131    132 151.9   3.8  34194  290.14 0861.90
2015 04 09 14 21 22 .17      31   -127      4    131    132 166.2   1.8  34212  290.47 0861.90
2015 04 09 14 21 22 .43     100   -142     31    175    178 144.8  10.3  34234  290.82 0861.90
2015 04 09 14 21 22 .68      70   -130     22    148    150 151.5   8.5  34230  290.75 0861.90
2015 04 09 14 21 22 .92       3   -152     30    153    156 178.6  11.1  34174  289.82 0861.90
2015 04 09 14 21 23 .18     -15   -174     57    175    185 185.1  18.1  34202  290.28 0861.90
2015 04 09 14 21 23 .43      16   -165     19    166    168 174.2   6.7  34212  290.47 0861.90
2015 04 09 14 21 23 .67      25   -160     37    162    167 171.1  12.9  34150  289.41 0861.90
2015 04 09 14 21 23 .93      44   -198    -11    203    204 167.3  -3.3  34044  287.62 0861.90
2015 04 09 14 21 24 .18      79   -244    -66    257    266 162.0 -14.5  34080  288.22 0861.90
2015 04 09 14 21 24 .43     100   -250    -41    270    274 158.1  -8.8  34042  287.56 0861.90
2015 04 09 14 21 24 .68      58   -228    -34    236    239 165.7  -8.3  34048  287.66 0861.90
2015 04 09 14 21 24 .93      83   -257    -12    271    272 162.1  -2.6  34048  287.66 0861.89
2015 04 09 14 21 25 .19      70   -225    -58    236    244 162.6 -13.9  34026  287.31 0861.89
2015 04 09 14 21 25 .45     134   -201     25    242    244 146.2   6.0  34084  288.27 0861.89
2015 04 09 14 21 25 .70     118   -198     11    231    232 149.2   2.8  34102  288.58 0861.89
2015 04 09 14 21 25 .95     105   -173     72    203    215 148.8  20.0  34124  288.97 0861.89
2015 04 09 14 21 26 .19      -3    -91     96     92    132 182.2  50.7  34178  289.89 0861.89
2015 04 09 14 21 26 .45     -31   -134     47    138    146 193.3  18.9  34162  289.60 0861.89
2015 04 09 14 21 26 .69      24   -169     20    171    173 171.8   6.7  34144  289.30 0861.89
2015 04 09 14 21 26 .94      15   -209      0    210    211 175.8   0.0  34132  289.09 0861.89
2015 04 09 14 21 27 .20      36   -226    -20    229    230 170.9  -5.1  34072  288.08 0861.89
2015 04 09 14 21 27 .45      55   -176     -7    185    186 162.6  -2.2  34128  289.04 0861.89
2015 04 09 14 21 27 .70      44   -217    -32    222    225 168.4  -8.2  34082  288.26 0861.89
2015 04 09 14 21 27 .95      71   -204    -27    217    219 160.8  -7.2  34052  287.74 0861.89
2015 04 09 14 21 28 .20      30   -175     -9    178    179 170.2  -3.2  34052  287.74 0861.89
2015 04 09 14 21 28 .45      61   -114     -7    130    131 151.9  -3.1  34090  288.40 0861.89
2015 04 09 14 21 28 .71     124   -142     19    189    190 138.8   5.9  34142  289.28 0861.89
2015 04 09 14 21 28 .95      93   -119     61    152    163 142.1  22.8  34160  289.58 0861.89
2015 04 09 14 21 29 .20      57    -98     88    114    144 149.7  41.7  34160  289.58 0861.89
2015 04 09 14 21 29 .46      29   -108     28    112    116 164.9  14.3  34152  289.45 0861.89
2015 04 09 14 21 29 .70      11   -150     52    151    160 175.5  19.2  34182  289.96 0861.89
2015 04 09 14 21 29 .96      32   -160     34    164    168 168.5  12.0  34188  290.04 0861.89
2015 04 09 14 21 30 .20      17   -177     13    178    179 174.4   4.2  34168  289.70 0861.89
2015 04 09 14 21 30 .45      78   -195    -19    211    212 158.2  -5.2  34022  287.23 0861.88
2015 04 09 14 21 30 .71      88   -195    -16    215    216 155.7  -4.4  34026  287.32 0861.88
2015 04 09 14 21 30 .95     102   -214     -5    238    239 154.5  -1.3  34058  287.85 0861.88
2015 04 09 14 21 31 .21     106   -197     -4    224    225 151.7  -1.3  34058  287.86 0861.88
2015 04 09 14 21 31 .46     130   -192     -6    232    233 145.9  -1.6  34056  287.82 0861.88
2015 04 09 14 21 31 .71      97   -188     -8    212    213 152.6  -2.2  34058  287.84 0861.88
2015 04 09 14 21 31 .97     123   -192      3    229    230 147.3   0.8  34062  287.92 0861.88
2015 04 09 14 21 32 .22      80   -159    -35    178    182 153.3 -11.3  34098  288.52 0861.88
2015 04 09 14 21 32 .47      69   -141     -6    158    159 153.7  -2.2  34110  288.74 0861.88
2015 04 09 14 21 32 .72      -1   -172     13    173    174 180.4   4.6  34154  289.48 0861.88
2015 04 09 14 21 32 .97      32   -165     46    169    176 168.9  15.3  34168  289.72 0861.88
2015 04 09 14 21 33 .22     113   -221     -2    249    250 153.0  -0.5  34078  288.19 0861.88
2015 04 09 14 21 33 .48      89   -231     -5    248    249 158.8  -1.3  34074  288.12 0861.88
2015 04 09 14 21 33 .73      54   -246     -3    253    254 167.5  -0.7  34090  288.39 0861.88
2015 04 09 14 21 33 .97      81   -247     13    261    262 161.7   2.9  34094  288.44 0861.88
2015 04 09 14 21 34 .23      82   -229    -13    244    245 160.2  -3.2  34120  288.88 0861.88
2015 04 09 14 21 34 .48     142   -236     -6    276    277 148.8  -1.3  34110  288.73 0861.88
2015 04 09 14 21 34 .72     121   -245     18    274    275 153.7   3.9  34112  288.76 0861.88
2015 04 09 14 21 34 .98     136   -212     -1    253    254 147.3  -0.3  34122  288.92 0861.88
2015 04 09 14 21 35 .22     129   -217     -7    253    254 149.3  -1.8  34038  287.50 0861.88
2015 04 09 14 21 35 .48     123   -191     -9    228    229 147.3  -2.3  34034  287.43 0861.88
2015 04 09 14 21 35 .73     131   -165     20    211    212 141.5   5.4  34096  288.50 0861.87
2015 04 09 14 21 35 .98      81   -177     60    195    205 155.3  17.1  34078  288.18 0861.87
2015 04 09 14 21 36 .23      75   -164     61    181    192 155.5  18.6  34116  288.84 0861.87
2015 04 09 14 21 36 .48      34   -145     41    150    156 166.6  15.3  34158  289.53 0861.87
2015 04 09 14 21 36 .73      -6    -80     79     81    113 184.5  50.0  34150  289.41 0861.87
2015 04 09 14 21 36 .98     -43   -127     45    135    143 198.7  18.4  34188  290.04 0861.87
2015 04 09 14 21 37 .23     -19   -140     33    142    146 188.0  13.2  34176  289.84 0861.87
2015 04 09 14 21 37 .48      49   -146     24    155    157 161.5   9.0  34170  289.75 0861.87
2015 04 09 14 21 37 .73      -9   -124     57    125    137 184.5  26.2  34210  290.43 0861.87
2015 04 09 14 21 37 .98      17   -122     51    124    134 171.9  23.1  34178  289.89 0861.87
2015 04 09 14 21 38 .23      99   -156     62    185    196 147.5  18.6  34130  289.08 0861.87
2015 04 09 14 21 38 .49      70   -175     15    189    190 158.1   4.6  34170  289.74 0861.88
2015 04 09 14 21 38 .73       0   -152    -27    153    156 180.0 -10.3  34170  289.74 0861.88
2015 04 09 14 21 39 .00      28   -141    -23    144    146 168.5  -9.3  34178  289.87 0861.88
2015 04 09 14 21 39 .25      -2   -152     27    153    156 181.0  10.1  34186  290.01 0861.88
2015 04 09 14 21 39 .50      -1   -141     73    142    159 180.5  29.3  34212  290.47 0861.88
2015 04 09 14 21 39 .75      36   -136     61    141    153 164.9  25.1  34208  290.40 0861.88
2015 04 09 14 21 40 .00      77   -151     22    170    172 152.8   7.5  34220  290.60 0861.88
2015 04 09 14 21 40 .24      35   -135     50    140    148 165.3  20.4  34224  290.65 0861.87
2015 04 09 14 21 40 .50      -4   -180     21    181    183 181.4   6.9  34194  290.14 0861.87
2015 04 09 14 21 40 .76      41   -189      0    194    195 167.5   0.2  34170  289.74 0861.87
2015 04 09 14 21 41 .00      98   -250     40    269    272 158.4   8.5  34232  290.80 0861.87
2015 04 09 14 21 41 .25     115   -208     51    238    244 151.0  12.2  34224  290.66 0861.87
2015 04 09 14 21 41 .49     116   -209     89    240    255 151.0  21.0  34100  288.54 0861.87
2015 04 09 14 21 41 .76      75   -203     36    217    221 159.5   9.5  34144  289.31 0861.87
2015 04 09 14 21 42 .01      94   -214      9    234    235 156.2   2.3  34048  287.66 0861.87
2015 04 09 14 21 42 .25     118   -215     31    246    248 151.3   7.2  34140  289.22 0861.87
2015 04 09 14 21 42 .51     129   -174     75    217    230 143.5  19.2  34136  289.18 0861.87
2015 04 09 14 21 42 .75     111   -164     81    199    214 145.9  23.1  34092  288.42 0861.87
2015 04 09 14 21 43 .00      48   -168     60    175    186 164.0  18.9  34108  288.70 0861.87
2015 04 09 14 21 43 .26      59   -167     31    178    181 160.6   9.9  34124  288.96 0861.87
2015 04 09 14 21 43 .51      40   -232     -5    236    237 170.2  -1.3  34146  289.34 0861.87
2015 04 09 14 21 43 .76      63   -234      5    243    244 164.8   1.2  34116  288.81 0861.87
2015 04 09 14 21 44 .01      50   -210     22    216    218 166.6   5.9  34148  289.38 0861.87
2015 04 09 14 21 44 .26       1   -173    -11    174    175 179.5  -3.7  34168  289.70 0861.87
2015 04 09 14 21 44 .51     123   -182     16    220    221 145.8   4.2  34092  288.43 0861.87
2015 04 09 14 21 44 .76     108   -229     18    254    255 154.8   4.2  34188  290.05 0861.87
2015 04 09 14 21 45 .01      73   -193     48    207    213 159.1  13.2  34222  290.62 0861.87
2015 04 09 14 21 45 .26      38   -190     16    194    195 168.5   4.9  34200  290.25 0861.87
2015 04 09 14 21 45 .51      42   -139     70    146    161 163.1  27.4  34218  290.55 0861.87
2015 04 09 14 21 45 .76      85   -243     36    258    261 160.6   8.0  34216  290.53 0861.87
2015 04 09 14 21 46 .02      43   -200     10    205    206 167.7   2.9  34230  290.77 0861.87
2015 04 09 14 21 46 .27       0   -241    -13    242    243 180.1  -3.3  34100  288.56 0861.87
2015 04 09 14 21 46 .52      -8   -239     -9    240    241 182.0  -2.3  34082  288.26 0861.87
2015 04 09 14 21 46 .78      28   -303    -23    305    306 174.6  -4.4  34130  289.05 0861.87
2015 04 09 14 21 47 .03      -8   -261      4    262    263 181.8   1.0  34136  289.17 0861.87
2015 04 09 14 21 47 .28      16   -182     10    183    184 174.9   3.1  34156  289.52 0861.87
2015 04 09 14 21 47 .53      33   -122     72    127    145 164.9  31.9  34194  290.14 0861.87
2015 04 09 14 21 47 .77      38   -223    -26    227    229 170.2  -6.7  34166  289.69 0861.87
2015 04 09 14 21 48 .03     -20   -317      9    318    319 183.6   1.8  34146  289.32 0861.87
2015 04 09 14 21 48 .28     -24   -376     -1    377    378 183.8  -0.3  34120  288.89 0861.87
2015 04 09 14 21 48 .53     -36   -410    -16    412    413 185.1  -2.3  34126  288.99 0861.87
2015 04 09 14 21 48 .78       6   -376     -3    377    378 179.0  -0.5  34152  289.43 0861.87
2015 04 09 14 21 49 .03      -6   -310     -6    311    312 181.1  -1.3  34162  289.59 0861.87
2015 04 09 14 21 49 .28      42   -300     11    304    305 172.0   2.1  34196  290.19 0861.87
2015 04 09 14 21 49 .53      32   -324     21    326    327 174.3   3.8  34164  289.63 0861.87
2015 04 09 14 21 49 .78      -3   -326     29    327    329 180.6   5.1  34166  289.66 0861.87
2015 04 09 14 21 50 .03     -43   -349     58    352    357 187.1   9.5  34172  289.76 0861.87
2015 04 09 14 21 50 .28      40   -292     46    295    299 172.2   9.0  34212  290.46 0861.87
2015 04 09 14 21 50 .53     -43   -285     54    289    294 188.7  10.6  34186  290.00 0861.87
2015 04 09 14 21 50 .78     -34   -311     17    313    314 186.3   3.3  34160  289.56 0861.87
2015 04 09 14 21 51 .04     -48   -280      3    285    286 189.8   0.7  34166  289.66 0861.87
2015 04 09 14 21 51 .28      -3   -249     30    250    252 180.9   6.9  34176  289.83 0861.87
2015 04 09 14 21 51 .54     -57   -257     15    264    265 192.5   3.3  34186  290.02 0861.87
2015 04 09 14 21 51 .79     -95   -292     58    308    314 198.0  10.8  34242  290.97 0861.87
2015 04 09 14 21 52 .03    -104   -280     77    300    310 200.5  14.4  34256  291.21 0861.87
2015 04 09 14 21 52 .28    -111   -312     16    332    333 199.6   2.9  34242  290.98 0861.87
2015 04 09 14 21 52 .54     -90   -314     32    327    329 196.0   5.7  34246  291.02 0861.87
2015 04 09 14 21 52 .80     -95   -348      3    361    362 195.3   0.5  34258  291.22 0861.87
2015 04 09 14 21 53 .05     -62   -309     20    316    317 191.5   3.7  34266  291.38 0861.86
2015 04 09 14 21 53 .29     -95   -332    -13    346    347 196.0  -2.2  34264  291.35 0861.86
2015 04 09 14 21 53 .55     -88   -287      6    301    302 197.2   1.2  34254  291.16 0861.86
2015 04 09 14 21 53 .80     -77   -287    -11    298    299 195.1  -2.2  34266  291.38 0861.86
2015 04 09 14 21 54 .05    -122   -304      9    328    329 201.9   1.6  34284  291.68 0861.86
2015 04 09 14 21 54 .30    -103   -218     -5    242    243 205.3  -1.3  34280  291.61 0861.86
2015 04 09 14 21 54 .55     -48   -148      6    156    157 198.3   2.5  34278  291.59 0861.86
2015 04 09 14 21 54 .80    -101   -122     56    159    168 219.6  20.0  34280  291.60 0861.86
2015 04 09 14 21 55 .05    -221   -277     13    355    356 218.5   2.1  34278  291.56 0861.86
2015 04 09 14 21 55 .31    -211   -299     18    366    367 215.2   2.9  34248  291.06 0861.86
2015 04 09 14 21 55 .55    -209   -329     12    390    391 212.4   1.8  34292  291.83 0861.86
2015 04 09 14 21 55 .80    -185   -264    106    323    340 215.0  18.2  34298  291.91 0861.86
2015 04 09 14 21 56 .06    -305   -310     12    435    436 224.5   1.7  34208  290.38 0861.86
2015 04 09 14 21 56 .30    -221   -269     35    349    351 219.4   5.8  34188  290.04 0861.86
2015 04 09 14 21 56 .56    -258   -285     18    385    386 222.1   2.8  34198  290.20 0861.86
2015 04 09 14 21 56 .81    -263   -263     49    373    377 225.0   7.6  34210  290.42 0861.86
2015 04 09 14 21 57 .06    -227   -296     13    374    375 217.5   2.1  34216  290.52 0861.86
2015 04 09 14 21 57 .31    -232   -332     -1    406    407 215.0  -0.3  34238  290.89 0861.86
2015 04 09 14 21 57 .56    -212   -331     40    394    397 212.6   5.9  34170  289.74 0861.85
2015 04 09 14 21 57 .81    -207   -312     39    375    378 213.6   6.1  34178  289.86 0861.85
2015 04 09 14 21 58 .06    -210   -329      4    391    392 212.6   0.7  34204  290.32 0861.85
2015 04 09 14 21 58 .31    -206   -317     52    379    383 213.0   7.8  34220  290.59 0861.85
2015 04 09 14 21 58 .56    -194   -295     51    354    358 213.4   8.3  34214  290.50 0861.85
2015 04 09 14 21 58 .81    -214   -267     -1    343    344 218.7  -0.3  34222  290.64 0861.85
2015 04 09 14 21 59 .06    -159   -287    -44    329    332 209.0  -7.7  34212  290.47 0861.85
2015 04 09 14 21 59 .31    -189   -301     26    356    357 212.1   4.3  34210  290.43 0861.85
2015 04 09 14 21 59 .56    -137   -241     14    278    279 209.6   2.9  34220  290.59 0861.85
2015 04 09 14 21 59 .82    -155   -243     -8    289    290 212.5  -1.6  34224  290.65 0861.85
2015 04 09 14 22 00 .08    -161   -262     42    308    311 211.6   7.8  34228  290.73 0861.85
2015 04 09 14 22 00 .32    -174   -272      2    324    325 212.6   0.5  34230  290.76 0861.85
2015 04 09 14 22 00 .58    -106   -235     -2    258    259 204.3  -0.5  34256  291.21 0861.85
2015 04 09 14 22 00 .83    -174   -230    138    289    320 217.2  27.3  34308  292.07 0861.85
2015 04 09 14 22 01 .07     -24   -229     64    231    240 186.2  15.6  34306  292.04 0861.85
2015 04 09 14 22 01 .32     -55   -265     53    271    277 191.8  11.1  34280  291.61 0861.85
2015 04 09 14 22 01 .58    -152   -265     35    306    309 209.9   6.6  34286  291.70 0861.85
2015 04 09 14 22 01 .82    -222   -323     16    393    394 214.5   2.4  34288  291.73 0861.85
2015 04 09 14 22 02 .08    -370   -220    -23    431    432 239.2  -3.2  34224  290.65 0861.85
2015 04 09 14 22 02 .33    -291   -173    -22    339    340 239.3  -3.7  34266  291.37 0861.85
2015 04 09 14 22 02 .58    -225   -225     48    319    323 224.9   8.7  34240  290.92 0861.85
2015 04 09 14 22 02 .83    -152   -308     48    344    348 206.4   8.0  34284  291.69 0861.85
2015 04 09 14 22 03 .08    -174   -231     40    290    293 217.0   8.0  34302  291.97 0861.85
2015 04 09 14 22 03 .33    -146   -294     70    329    337 206.5  12.2  34314  292.20 0861.85
2015 04 09 14 22 03 .59    -196   -272     17    336    337 215.9   2.9  34246  291.03 0861.85
2015 04 09 14 22 03 .83    -208   -274     33    345    347 217.2   5.5  34324  292.37 0861.85
2015 04 09 14 22 04 .08    -179   -254     29    312    314 215.2   5.5  34338  292.59 0861.85
2015 04 09 14 22 04 .33    -156   -229     70    278    287 214.2  14.3  34310  292.13 0861.85
2015 04 09 14 22 04 .58     -24   -223     48    225    231 186.2  12.0  34328  292.42 0861.85
2015 04 09 14 22 04 .84     -46   -229    -11    234    235 191.5  -2.8  34288  291.73 0861.85
2015 04 09 14 22 05 .09     -85   -149     36    172    176 209.6  12.0  34294  291.84 0861.85
2015 04 09 14 22 05 .33    -131   -171     77    216    229 217.6  20.2  34312  292.15 0861.85
2015 04 09 14 22 05 .58       8   -194     84    195    212 177.5  24.9  34296  291.89 0861.86
2015 04 09 14 22 05 .84       0   -197     84    198    215 180.2  24.6  34208  290.38 0861.86
2015 04 09 14 22 06 .09     -21   -160    -31    162    166 187.8 -10.9  34226  290.69 0861.86
2015 04 09 14 22 06 .35    -101   -159     67    189    201 212.6  19.6  34326  292.39 0861.86
2015 04 09 14 22 06 .59     -98   -205     -1    228    229 205.5  -0.5  34278  291.57 0861.86
2015 04 09 14 22 06 .85     -96   -286     12    302    303 198.7   2.3  34228  290.73 0861.86
2015 04 09 14 22 07 .10     -88   -219     24    237    239 201.8   5.9  34238  290.88 0861.86
2015 04 09 14 22 07 .35    -109   -204     46    232    237 208.3  11.4  34246  291.02 0861.86
2015 04 09 14 22 07 .60     -67   -214     58    225    233 197.6  14.5  34244  290.99 0861.86
2015 04 09 14 22 07 .85     -33   -175     14    179    180 190.7   4.6  34234  290.84 0861.86
2015 04 09 14 22 08 .10    -139   -191    104    237    258 216.0  25.2  34256  291.19 0861.86
2015 04 09 14 22 08 .35    -186   -267     22    326    327 215.0   4.0  34242  290.97 0861.86
2015 04 09 14 22 08 .61    -142   -266    -72    302    311 208.1 -13.4  34056  287.80 0861.86
2015 04 09 14 22 08 .85     -37   -203     46    207    213 190.5  12.6  34136  289.18 0861.86
2015 04 09 14 22 09 .11     -41   -178      8    183    184 193.1   2.5  34204  290.31 0861.86
2015 04 09 14 22 09 .35    -124   -233    -51    265    270 208.1 -10.9  34204  290.32 0861.86
2015 04 09 14 22 09 .61    -115   -253    -20    279    280 204.5  -4.1  34232  290.80 0861.86
2015 04 09 14 22 09 .86    -116   -234     -5    262    263 206.3  -1.2  34220  290.58 0861.86
2015 04 09 14 22 10 .10    -121   -361    -55    381    386 198.6  -8.2  34112  288.77 0861.86
2015 04 09 14 22 10 .36    -128   -426    -62    445    450 196.8  -8.0  34110  288.73 0861.86
2015 04 09 14 22 10 .61    -116   -397    -25    414    415 196.3  -3.5  34098  288.51 0861.86
2015 04 09 14 22 10 .86    -136   -316    -13    345    346 203.3  -2.2  34146  289.35 0861.86
2015 04 09 14 22 11 .11    -128   -444     -9    463    464 196.1  -1.1  34126  288.99 0861.86
2015 04 09 14 22 11 .36    -157   -410    -88    440    449 200.9 -11.3  34030  287.38 0861.86
2015 04 09 14 22 11 .61    -162   -431     23    461    462 200.7   2.9  34128  289.04 0861.86
2015 04 09 14 22 11 .86    -201   -423      4    469    470 205.4   0.5  34020  287.20 0861.85
2015 04 09 14 22 12 .11    -155   -429    -25    457    458 200.0  -3.2  34008  286.99 0861.85
2015 04 09 14 22 12 .36    -180   -451    -35    486    488 201.9  -4.1  34020  287.20 0861.85
2015 04 09 14 22 12 .61    -159   -458    -69    485    491 199.2  -8.1  34006  286.95 0861.85
2015 04 09 14 22 12 .86    -163   -449    -87    478    486 200.0 -10.4  34022  287.24 0861.85
2015 04 09 14 22 13 .11    -208   -453    -63    499    503 204.7  -7.2  34020  287.20 0861.85
2015 04 09 14 22 13 .37    -239   -406    -44    472    475 210.5  -5.4  34054  287.78 0861.85
2015 04 09 14 22 13 .61    -185   -443     27    481    482 202.7   3.3  34042  287.58 0861.85
2015 04 09 14 22 13 .88    -187   -380     -9    424    425 206.3  -1.3  34008  287.01 0861.85
2015 04 09 14 22 14 .13    -178   -407      3    445    446 203.7   0.5  34016  287.14 0861.85
2015 04 09 14 22 14 .37    -220   -401     22    458    459 208.8   2.8  34030  287.36 0861.85
2015 04 09 14 22 14 .63    -155   -343     34    377    379 204.4   5.2  34038  287.51 0861.85
2015 04 09 14 22 14 .88    -134   -418     -9    440    441 197.8  -1.3  34036  287.48 0861.85
2015 04 09 14 22 15 .13    -112   -403    -28    419    420 195.6  -3.9  34014  287.11 0861.85
2015 04 09 14 22 15 .38    -121   -422    -72    440    446 196.0  -9.3  34042  287.58 0861.85
2015 04 09 14 22 15 .63    -135   -348    -44    374    377 201.2  -6.8  34042  287.56 0861.85
2015 04 09 14 22 15 .88    -191   -405    -24    448    449 205.3  -3.1  34052  287.75 0861.85
2015 04 09 14 22 16 .13    -155   -466     -9    492    493 198.5  -1.1  34022  287.24 0861.85
2015 04 09 14 22 16 .38    -123   -431    -35    449    451 195.9  -4.5  34018  287.16 0861.85
2015 04 09 14 22 16 .63    -113   -395    -31    411    413 196.0  -4.4  34020  287.21 0861.85
2015 04 09 14 22 16 .88    -128   -503    -16    520    521 194.3  -1.8  34038  287.50 0861.85
2015 04 09 14 22 17 .13    -106   -538    -28    549    550 191.2  -3.0  34020  287.20 0861.85
2015 04 09 14 22 17 .38     -99   -532    -36    542    544 190.6  -3.8  34018  287.16 0861.85
2015 04 09 14 22 17 .64     -75   -508    -24    514    515 188.5  -2.7  34064  287.95 0861.85
2015 04 09 14 22 17 .88    -181   -459    -42    494    496 201.6  -4.9  34064  287.93 0861.85
2015 04 09 14 22 18 .14    -180   -471     33    505    507 201.0   3.8  34066  287.98 0861.85
2015 04 09 14 22 18 .38    -203   -437     36    482    484 204.9   4.3  34026  287.31 0861.85
2015 04 09 14 22 18 .64    -167   -408      6    441    442 202.3   0.8  34012  287.06 0861.85
2015 04 09 14 22 18 .89    -177   -380    -46    420    423 204.9  -6.3  34016  287.14 0861.85
2015 04 09 14 22 19 .14    -153   -482     12    506    507 197.7   1.4  34058  287.83 0861.85
2015 04 09 14 22 19 .39    -177   -442     19    477    478 201.8   2.3  34072  288.07 0861.85
2015 04 09 14 22 19 .64    -164   -423     52    454    458 201.2   6.6  34096  288.48 0861.85
2015 04 09 14 22 19 .89    -157   -416     13    445    446 200.7   1.8  34108  288.68 0861.85
2015 04 09 14 22 20 .14    -174   -385     34    423    425 204.3   4.7  34126  288.99 0861.85
2015 04 09 14 22 20 .40    -146   -407     13    433    434 199.8   1.8  34128  289.04 0861.85
2015 04 09 14 22 20 .65    -136   -391     16    415    416 199.2   2.3  34092  288.41 0861.85
2015 04 09 14 22 20 .90    -239   -452     20    512    513 207.9   2.3  34134  289.13 0861.85
2015 04 09 14 22 21 .15    -272   -445    -99    522    532 211.4 -10.8  34002  286.91 0861.85
2015 04 09 14 22 21 .40    -198   -421     -9    466    467 205.2  -1.2  34054  287.78 0861.85
2015 04 09 14 22 21 .65    -181   -348    -50    393    397 207.5  -7.3  34002  286.91 0861.84
2015 04 09 14 22 21 .91    -187   -371    -23    416    417 206.8  -3.2  34002  286.91 0861.84
2015 04 09 14 22 22 .16    -204   -389    -46    440    443 207.7  -6.1  34014  287.09 0861.84
2015 04 09 14 22 22 .41    -256   -412   -106    486    498 211.9 -12.4  34022  287.22 0861.84
2015 04 09 14 22 22 .65    -263   -431     42    505    507 211.4   4.9  34006  286.98 0861.84
2015 04 09 14 22 22 .91    -190   -370     -1    416    417 207.2  -0.3  34004  286.92 0861.84
2015 04 09 14 22 23 .16    -191   -373    -60    420    425 207.2  -8.2  34000  286.87 0861.84
2015 04 09 14 22 23 .41    -186   -374    -72    418    425 206.5  -9.8  34014  287.09 0861.84
2015 04 09 14 22 23 .66    -192   -445     32    485    487 203.4   3.8  34088  288.34 0861.84
2015 04 09 14 22 23 .91    -165   -328      4    368    369 206.7   0.7  34004  286.93 0861.84
2015 04 09 14 22 24 .16    -170   -338    -60    379    384 206.8  -9.1  34000  286.86 0861.84
2015 04 09 14 22 24 .41    -205   -340    -86    398    408 211.1 -12.3  33998  286.84 0861.84
2015 04 09 14 22 24 .66    -198   -343    -81    397    406 210.0 -11.6  34016  287.13 0861.84
2015 04 09 14 22 24 .91    -202   -317    -72    377    384 212.5 -10.9  34038  287.51 0861.84
2015 04 09 14 22 25 .16    -250   -288    -41    382    385 221.0  -6.3  34044  287.62 0861.84
2015 04 09 14 22 25 .41    -191   -364     61    412    417 207.7   8.5  34046  287.65 0861.84
2015 04 09 14 22 25 .66    -153   -355     44    387    390 203.4   6.6  34048  287.67 0861.84
2015 04 09 14 22 25 .91    -217   -348    -63    411    416 212.0  -8.8  34028  287.33 0861.84
2015 04 09 14 22 26 .17    -240   -368    -31    440    442 213.1  -4.1  34074  288.11 0861.85
2015 04 09 14 22 26 .41    -195   -366    -27    415    416 208.1  -3.7  34072  288.07 0861.85
2015 04 09 14 22 26 .66    -225   -365      5    430    431 211.7   0.7  34044  287.60 0861.85
2015 04 09 14 22 26 .91    -207   -351    -12    408    409 210.6  -1.7  34010  287.03 0861.85
2015 04 09 14 22 27 .16    -219   -322    -15    390    391 214.2  -2.2  34010  287.03 0861.85
2015 04 09 14 22 27 .42    -237   -288    -41    374    377 219.5  -6.3  34000  286.88 0861.85
2015 04 09 14 22 27 .68    -236   -282    -72    368    376 219.9 -11.1  34006  286.98 0861.85
2015 04 09 14 22 27 .93    -286   -315    -30    426    428 222.3  -4.1  34092  288.43 0861.84
2015 04 09 14 22 28 .17    -296   -342    -40    453    455 220.9  -5.1  34090  288.39 0861.84
2015 04 09 14 22 28 .44    -289   -301    -23    418    419 223.9  -3.2  34064  287.94 0861.84
2015 04 09 14 22 28 .68    -250   -380     28    456    457 213.4   3.6  34154  289.46 0861.84
2015 04 09 14 22 28 .93    -228   -333    102    404    417 214.4  14.2  34192  290.11 0861.84
2015 04 09 14 22 29 .18    -263   -357     89    444    453 216.4  11.4  34224  290.65 0861.84
2015 04 09 14 22 29 .43    -106   -291    142    310    340 200.1  26.3  34168  289.71 0861.84
2015 04 09 14 22 29 .68    -154   -333     21    367    368 204.8   3.3  34038  287.52 0861.84
2015 04 09 14 22 29 .93    -176   -363     12    404    405 205.9   1.7  34006  286.96 0861.85
2015 04 09 14 22 30 .18    -169   -375     33    412    414 204.3   4.7  34006  286.97 0861.85
2015 04 09 14 22 30 .43    -178   -333      5    378    379 208.1   0.8  34010  287.02 0861.85
2015 04 09 14 22 30 .68    -181   -330    -47    377    381 208.7  -7.2  34010  287.05 0861.85
2015 04 09 14 22 30 .93    -176   -340    -45    383    386 207.4  -6.8  34012  287.07 0861.85
2015 04 09 14 22 31 .18    -171   -331    -39    373    376 207.3  -6.0  34012  287.08 0861.85
2015 04 09 14 22 31 .44    -176   -337    -41    381    384 207.6  -6.3  34010  287.03 0861.85
2015 04 09 14 22 31 .69    -165   -319    -46    360    363 207.4  -7.3  34010  287.05 0861.85
2015 04 09 14 22 31 .94    -182   -334    -73    381    389 208.6 -10.9  34008  287.00 0861.85
2015 04 09 14 22 32 .19    -149   -315    -36    349    351 205.3  -6.0  34010  287.05 0861.85
2015 04 09 14 22 32 .44    -143   -300    -60    333    339 205.6 -10.3  34008  287.00 0861.85
2015 04 09 14 22 32 .69    -150   -283    -83    321    332 207.9 -14.5  34004  286.92 0861.85
2015 04 09 14 22 32 .94    -126   -264    -64    293    301 205.5 -12.4  34006  286.97 0861.85
2015 04 09 14 22 33 .19    -105   -275    -59    295    301 200.9 -11.3  34006  286.95 0861.85
2015 04 09 14 22 33 .44     -67   -288    -70    296    305 193.3 -13.4  34000  286.87 0861.85
2015 04 09 14 22 33 .69     -75   -253    -68    264    273 196.5 -14.5  34004  286.92 0861.85
2015 04 09 14 22 33 .94     -95   -209    -36    230    233 204.5  -9.0  34012  287.06 0861.85
2015 04 09 14 22 34 .20    -110   -199      8    228    229 208.9   2.1  34084  288.28 0861.85
2015 04 09 14 22 34 .44     -72   -234     88    245    261 197.2  19.9  34116  288.81 0861.85
2015 04 09 14 22 34 .70     -25   -181     76    183    198 188.0  23.6  34108  288.70 0861.85
2015 04 09 14 22 34 .95     -80   -280     24    292    294 196.0   4.9  34040  287.53 0861.85
2015 04 09 14 22 35 .20     -98   -341    -33    355    357 196.0  -5.5  34004  286.93 0861.86
2015 04 09 14 22 35 .45    -120   -350    -21    371    372 198.9  -3.3  34010  287.02 0861.86
2015 04 09 14 22 35 .70    -108   -333    -22    351    352 198.1  -3.7  34006  286.96 0861.86
2015 04 09 14 22 35 .95    -115   -333    -47    353    357 199.2  -7.6  34008  287.00 0861.86
2015 04 09 14 22 36 .21    -120   -327    -29    349    351 200.2  -4.9  34016  287.15 0861.86
2015 04 09 14 22 36 .46     -78   -320    -66    330    337 193.7 -11.3  34022  287.25 0861.86
2015 04 09 14 22 36 .71     -59   -295    -60    301    307 191.3 -11.3  34046  287.63 0861.86
2015 04 09 14 22 36 .95     -81   -286     -9    298    299 195.8  -1.8  34022  287.24 0861.86
2015 04 09 14 22 37 .21    -106   -266    -32    287    289 201.8  -6.5  34016  287.14 0861.86
2015 04 09 14 22 37 .46     -88   -265    -42    280    284 198.5  -8.6  34026  287.29 0861.86
2015 04 09 14 22 37 .71     -81   -159     -9    179    180 207.2  -3.1  34060  287.89 0861.86
2015 04 09 14 22 37 .96    -139   -188     41    235    239 216.5  10.0  34052  287.75 0861.86
2015 04 09 14 22 38 .21    -178   -230     56    291    297 217.8  11.0  34088  288.36 0861.86
2015 04 09 14 22 38 .46    -202   -231     -6    307    308 221.2  -1.2  34058  287.83 0861.86
2015 04 09 14 22 38 .71    -212   -280     33    352    354 217.1   5.4  34052  287.74 0861.86
2015 04 09 14 22 38 .96    -174   -272     32    323    325 212.6   5.8  34054  287.78 0861.86
2015 04 09 14 22 39 .21    -151   -237     73    282    292 212.6  14.5  34040  287.53 0861.86
2015 04 09 14 22 39 .47    -148   -233     23    277    279 212.5   4.9  34064  287.95 0861.86
2015 04 09 14 22 39 .72    -133   -216     -5    254    255 211.6  -1.2  34066  287.99 0861.86
2015 04 09 14 22 39 .96    -131   -206    -18    245    246 212.6  -4.4  34062  287.92 0861.86
2015 04 09 14 22 40 .22    -147   -235    -77    278    288 212.1 -20.0  34038  287.50 0861.86
2015 04 09 14 22 40 .47     -84   -155     28    177    180 208.5   9.0  34066  287.99 0861.86
2015 04 09 14 22 40 .72    -136   -150      2    203    204 222.3   0.7  34082  288.26 0861.86
2015 04 09 14 22 40 .97    -133   -159     74    208    220 220.1  20.2  34084  288.30 0861.86
2015 04 09 14 22 41 .22    -101   -167     84    196    213 211.2  24.6  34102  288.58 0861.86
2015 04 09 14 22 41 .48    -125   -197     67    234    244 212.5  16.0  34102  288.58 0861.86
2015 04 09 14 22 41 .73    -151   -236     12    281    282 212.6   2.5  34120  288.90 0861.86
2015 04 09 14 22 41 .98    -114   -191     17    223    224 210.8   4.6  34128  289.04 0861.86
2015 04 09 14 22 42 .23    -160   -218     95    271    288 216.3  19.4  34132  289.09 0861.86
2015 04 09 14 22 42 .48    -118   -151    108    192    220 218.1  31.6  34140  289.23 0861.86
2015 04 09 14 22 42 .73     -32   -134     94    138    166 193.8  37.6  34146  289.33 0861.86
2015 04 09 14 22 42 .98     -93   -147     72    175    189 212.5  23.4  34114  288.80 0861.86
2015 04 09 14 22 43 .23    -151   -231     27    277    279 213.2   5.7  34050  287.71 0861.87
2015 04 09 14 22 43 .48    -160   -240     73    289    299 213.8  14.3  34068  288.02 0861.87
2015 04 09 14 22 43 .73    -165   -259     60    308    314 212.6  11.1  34044  287.61 0861.87
2015 04 09 14 22 43 .99    -155   -244     39    290    293 212.5   7.8  34074  288.12 0861.87
2015 04 09 14 22 44 .24    -165   -257     47    306    310 212.7   8.8  34122  288.92 0861.87
2015 04 09 14 22 44 .48     -97   -258     68    276    285 200.7  13.9  34138  289.19 0861.87
2015 04 09 14 22 44 .74    -134   -251    -33    285    287 208.1  -6.7  34016  287.14 0861.87
2015 04 09 14 22 44 .99    -159   -268    -14    312    313 210.7  -2.7  34028  287.33 0861.87
2015 04 09 14 22 45 .24    -152   -268    -39    309    312 209.6  -7.3  34030  287.38 0861.87
2015 04 09 14 22 45 .49    -188   -253    -29    316    318 216.7  -5.4  34026  287.31 0861.87
2015 04 09 14 22 45 .74    -161   -251    -38    299    302 212.7  -7.3  34030  287.36 0861.87
2015 04 09 14 22 45 .99    -166   -232    -31    286    288 215.6  -6.2  34042  287.58 0861.87
2015 04 09 14 22 46 .24    -155   -220    -34    270    273 215.1  -7.2  34050  287.71 0861.87
2015 04 09 14 22 46 .49    -198   -216    -35    294    297 222.5  -6.9  34058  287.85 0861.87
2015 04 09 14 22 46 .74    -151   -233    -21    278    279 213.0  -4.4  34044  287.61 0861.87
2015 04 09 14 22 46 .99    -131   -234    -26    269    271 209.2  -5.6  34062  287.92 0861.88
2015 04 09 14 22 47 .24     -94   -222    -17    242    243 202.9  -4.1  34056  287.80 0861.88
2015 04 09 14 22 47 .49     -43   -204     62    209    219 192.0  16.6  34068  288.01 0861.88
2015 04 09 14 22 47 .74     -74   -203     42    217    222 200.0  11.1  34056  287.82 0861.88
2015 04 09 14 22 47 .99     -83   -193     12    211    212 203.4   3.3  34046  287.65 0861.88
2015 04 09 14 22 48 .24    -142   -209    -18    253    254 214.3  -4.1  34088  288.34 0861.88
2015 04 09 14 22 48 .50    -165   -233     -8    286    287 215.4  -1.8  34132  289.10 0861.88
2015 04 09 14 22 48 .75    -182   -246     38    307    310 216.5   7.1  34142  289.27 0861.87
2015 04 09 14 22 49 .01    -166   -211     69    269    278 218.3  14.5  34160  289.56 0861.87
2015 04 09 14 22 49 .26     -89   -222     37    240    243 201.9   8.8  34138  289.19 0861.87
2015 04 09 14 22 49 .50     -94   -231     21    250    251 202.3   5.0  34066  287.99 0861.87
2015 04 09 14 22 49 .76     -68   -206     10    217    218 198.3   2.8  34058  287.86 0861.87
2015 04 09 14 22 50 .00    -134   -211     15    251    252 212.5   3.6  34124  288.95 0861.87
2015 04 09 14 22 50 .26     -94   -204     -8    225    226 204.9  -2.3  34050  287.70 0861.87
2015 04 09 14 22 50 .51    -126   -209     12    245    246 211.2   2.9  34040  287.55 0861.87
2015 04 09 14 22 50 .76    -126   -212     -9    247    248 210.8  -2.2  34056  287.80 0861.87
2015 04 09 14 22 51 .01    -147   -208     25    255    257 215.2   5.7  34048  287.68 0861.87
2015 04 09 14 22 51 .26    -153   -193     12    247    248 218.5   2.9  34070  288.04 0861.87
2015 04 09 14 22 51 .51    -153   -197     26    250    252 217.8   6.0  34068  288.00 0861.87
2015 04 09 14 22 51 .76    -147   -202     10    251    252 216.1   2.5  34074  288.12 0861.87
2015 04 09 14 22 52 .01    -148   -203      3    252    253 216.1   0.8  34070  288.04 0861.87
2015 04 09 14 22 52 .26    -164   -227     14    281    282 215.8   2.9  34088  288.36 0861.87
2015 04 09 14 22 52 .51    -159   -215      3    268    269 216.5   0.8  34046  287.65 0861.87
2015 04 09 14 22 52 .76    -162   -212     37    268    271 217.4   8.0  34056  287.82 0861.87
2015 04 09 14 22 53 .02    -159   -238     54    287    293 213.8  10.8  34094  288.44 0861.87
2015 04 09 14 22 53 .27    -126   -189     54    228    235 213.8  13.5  34172  289.79 0861.87
2015 04 09 14 22 53 .52     -12   -176     51    177    185 184.0  16.0  34162  289.62 0861.87
2015 04 09 14 22 53 .77     -11   -150     39    151    157 184.5  14.7  34170  289.75 0861.87
2015 04 09 14 22 54 .02    -104   -126     44    164    170 219.4  15.2  34190  290.09 0861.88
2015 04 09 14 22 54 .26     -57   -169     79    179    195 198.7  25.2  34214  290.50 0861.88
2015 04 09 14 22 54 .52      -8   -264    -19    265    266 181.8  -4.1  34106  288.66 0861.88
2015 04 09 14 22 54 .77     -34   -249      0    252    253 187.8   0.0  34108  288.70 0861.88
2015 04 09 14 22 55 .02     -91   -269      8    285    286 198.7   1.7  34132  289.09 0861.88
2015 04 09 14 22 55 .27    -101   -277     57    295    301 200.1  11.0  34168  289.70 0861.88
2015 04 09 14 22 55 .53    -129   -256      8    287    288 206.7   1.8  34080  288.22 0861.88
2015 04 09 14 22 55 .78    -133   -256      4    289    290 207.4   0.8  34090  288.39 0861.88
2015 04 09 14 22 56 .03    -142   -256     -6    293    294 209.0  -1.3  34096  288.49 0861.88
2015 04 09 14 22 56 .28    -140   -263    -26    299    301 208.1  -5.1  34072  288.07 0861.88
2015 04 09 14 22 56 .53    -150   -276    -66    315    322 208.5 -11.9  34026  287.31 0861.88
2015 04 09 14 22 56 .78    -132   -280    -94    310    325 205.3 -16.9  34030  287.38 0861.88
2015 04 09 14 22 57 .04     -90   -236    -55    253    260 201.0 -12.4  34058  287.85 0861.88
2015 04 09 14 22 57 .29    -160   -215     25    269    271 216.7   5.4  34160  289.58 0861.88
2015 04 09 14 22 57 .53    -134   -233      7    269    270 209.9   1.6  34108  288.70 0861.88
2015 04 09 14 22 57 .78    -148   -211     63    259    267 215.1  13.7  34122  288.93 0861.88
2015 04 09 14 22 58 .03    -123   -287    -36    313    316 203.2  -6.7  34080  288.22 0861.88
2015 04 09 14 22 58 .29     -98   -299    -52    315    320 198.3  -9.5  34046  287.65 0861.88
2015 04 09 14 22 58 .54    -119   -266     -5    292    293 204.1  -1.2  34102  288.58 0861.88
2015 04 09 14 22 58 .79    -135   -269     -6    302    303 206.7  -1.3  34116  288.81 0861.88
2015 04 09 14 22 59 .04    -163   -254     36    302    305 212.7   6.9  34126  289.00 0861.88
2015 04 09 14 22 59 .29    -184   -311     56    362    367 210.7   8.9  34010  287.02 0861.88
2015 04 09 14 22 59 .54    -131   -301    -12    329    330 203.6  -2.1  34014  287.10 0861.88
2015 04 09 14 22 59 .79    -129   -332    -86    357    368 201.3 -13.6  34006  286.96 0861.88
2015 04 09 14 23 00 .04     -55   -347    -36    352    354 189.1  -5.9  34080  288.22 0861.88
2015 04 09 14 23 00 .29     -79   -276    -58    288    294 196.1 -11.5  34004  286.92 0861.88
2015 04 09 14 23 00 .54     -93   -290      9    305    306 197.9   1.8  34114  288.78 0861.89
2015 04 09 14 23 00 .79     -55   -241     -1    248    249 192.9  -0.3  34026  287.29 0861.89
2015 04 09 14 23 01 .05    -133   -241     23    276    278 209.0   4.9  34052  287.75 0861.89
2015 04 09 14 23 01 .29    -120   -243    -39    272    275 206.3  -8.2  34078  288.17 0861.89
2015 04 09 14 23 01 .55    -120   -263     55    290    296 204.5  10.8  34104  288.61 0861.89
2015 04 09 14 23 01 .79    -118   -264     12    290    291 204.1   2.5  34058  287.83 0861.89
2015 04 09 14 23 02 .05    -120   -247      3    275    276 205.9   0.8  34056  287.80 0861.89
2015 04 09 14 23 02 .30    -120   -263     10    290    291 204.5   2.1  34044  287.61 0861.89
2015 04 09 14 23 02 .56    -117   -237    -30    265    267 206.3  -6.5  34024  287.26 0861.89
2015 04 09 14 23 02 .81    -125   -235      3    267    268 208.0   0.8  34068  288.00 0861.89
2015 04 09 14 23 03 .06    -113   -257      2    281    282 203.7   0.5  34076  288.14 0861.89
2015 04 09 14 23 03 .31    -100   -247     -5    267    268 202.1  -1.3  34062  287.90 0861.89
2015 04 09 14 23 03 .56    -114   -241      3    267    268 205.5   0.8  34072  288.07 0861.89
2015 04 09 14 23 03 .81     -73   -219      9    231    232 198.5   2.3  34096  288.50 0861.89
2015 04 09 14 23 04 .06     -64   -198     15    209    210 198.0   4.2  34096  288.50 0861.89
2015 04 09 14 23 04 .31     -86   -192     31    211    214 204.3   8.5  34076  288.16 0861.89
2015 04 09 14 23 04 .56     -19   -148     18    150    152 187.6   6.9  34094  288.45 0861.89
2015 04 09 14 23 04 .81       9   -208    -11    209    210 177.4  -3.2  34060  287.89 0861.89
2015 04 09 14 23 05 .06     -37   -193     12    197    198 190.9   3.6  34098  288.53 0861.89
2015 04 09 14 23 05 .31     -58   -174     -1    184    185 198.5  -0.5  34092  288.42 0861.89
2015 04 09 14 23 05 .56     -61   -262     17    269    270 193.1   3.8  34096  288.49 0861.89
2015 04 09 14 23 05 .82     -55   -298    -33    304    306 190.6  -6.2  34052  287.73 0861.89
2015 04 09 14 23 06 .06     -65   -273    -36    281    284 193.4  -7.3  34012  287.06 0861.89
2015 04 09 14 23 06 .32     -44   -247    -11    252    253 190.2  -2.6  34036  287.46 0861.89
2015 04 09 14 23 06 .57     -65   -243      3    252    253 195.1   0.8  34076  288.15 0861.89
2015 04 09 14 23 06 .82     -72   -279      2    289    290 194.5   0.5  34118  288.85 0861.89
2015 04 09 14 23 07 .06     -91   -298    -12    312    313 197.0  -2.2  34094  288.44 0861.89
2015 04 09 14 23 07 .32     -80   -301    -36    312    315 194.9  -6.7  34086  288.32 0861.89
2015 04 09 14 23 07 .57     -68   -281    -53    290    295 193.6 -10.5  34104  288.63 0861.89
2015 04 09 14 23 07 .82     -85   -317    -73    329    338 195.0 -12.6  34036  287.49 0861.89
2015 04 09 14 23 08 .06     -85   -317    -83    329    340 195.0 -14.3  34028  287.35 0861.89
2015 04 09 14 23 08 .32     -87   -302    -88    315    328 196.0 -15.7  34026  287.31 0861.89
2015 04 09 14 23 08 .56     -97   -278    -59    295    301 199.4 -11.5  34106  288.65 0861.89
2015 04 09 14 23 08 .82     -87   -265    -77    280    291 198.3 -15.4  34126  289.00 0861.89
2015 04 09 14 23 09 .07     -70   -254    -63    264    272 195.6 -13.4  34140  289.22 0861.89
2015 04 09 14 23 09 .33     -60   -298    -39    305    308 191.5  -7.3  34016  287.14 0861.89
2015 04 09 14 23 09 .58     -55   -290    -32    296    298 190.9  -6.2  34006  286.97 0861.89
2015 04 09 14 23 09 .83     -59   -282    -20    289    290 191.8  -4.1  34010  287.02 0861.89
2015 04 09 14 23 10 .08     -61   -273     -5    280    281 192.7  -1.2  34020  287.21 0861.89
2015 04 09 14 23 10 .33     -68   -273    -16    282    283 194.0  -3.3  34014  287.09 0861.88
2015 04 09 14 23 10 .58     -66   -265    -25    274    276 194.0  -5.4  34012  287.07 0861.88
2015 04 09 14 23 10 .83     -73   -269    -37    279    282 195.2  -7.7  34012  287.07 0861.88
2015 04 09 14 23 11 .09     -69   -260    -39    270    273 194.9  -8.2  34018  287.16 0861.88
2015 04 09 14 23 11 .34     -54   -264     27    270    272 191.6   5.9  34070  288.04 0861.88
2015 04 09 14 23 11 .58     -69   -243     -3    253    254 196.0  -0.7  34022  287.24 0861.88
2015 04 09 14 23 11 .84     -72   -254    -10    265    266 195.8  -2.2  34020  287.19 0861.88
2015 04 09 14 23 12 .09     -70   -275    -35    284    287 194.3  -7.2  34012  287.07 0861.88
2015 04 09 14 23 12 .33     -83   -289    -16    301    302 196.1  -3.1  34024  287.28 0861.88
2015 04 09 14 23 12 .59     -67   -279    -47    287    291 193.6  -9.3  34008  287.01 0861.88
2015 04 09 14 23 12 .84     -75   -279    -26    290    292 195.2  -5.2  34014  287.11 0861.88
2015 04 09 14 23 13 .09     -79   -291    -20    302    303 195.2  -3.9  34018  287.17 0861.88
2015 04 09 14 23 13 .34     -76   -283     -8    293    294 195.1  -1.6  34022  287.24 0861.88
2015 04 09 14 23 13 .59     -69   -298    -11    306    307 193.1  -2.2  34022  287.22 0861.88
2015 04 09 14 23 13 .84     -66   -283    -20    291    292 193.1  -4.1  34018  287.16 0861.88
2015 04 09 14 23 14 .09     -61   -279    -16    286    287 192.5  -3.3  34020  287.19 0861.88
2015 04 09 14 23 14 .34     -75   -283     -9    293    294 194.9  -1.8  34022  287.24 0861.88
2015 04 09 14 23 14 .59     -75   -291      6    301    302 194.5   1.2  34034  287.44 0861.88
2015 04 09 14 23 14 .85     -80   -327     -5    337    338 193.9  -0.9  34034  287.45 0861.88
2015 04 09 14 23 15 .09     -97   -311    -39    327    330 197.4  -6.9  34052  287.73 0861.88
2015 04 09 14 23 15 .35    -142   -324     -9    354    355 203.7  -1.6  34064  287.96 0861.88
2015 04 09 14 23 15 .60    -103   -311     10    328    329 198.5   1.9  34038  287.51 0861.88
2015 04 09 14 23 15 .85    -127   -321      6    346    347 201.6   1.0  34034  287.44 0861.88
2015 04 09 14 23 16 .09    -117   -277     -8    301    302 202.9  -1.6  34032  287.41 0861.88
2015 04 09 14 23 16 .36    -101   -252    -23    272    274 201.8  -4.9  34022  287.24 0861.88
2015 04 09 14 23 16 .61    -101   -254    -38    274    277 201.8  -8.0  34022  287.24 0861.88
2015 04 09 14 23 16 .86     -91   -258    -32    274    276 199.4  -6.7  34028  287.34 0861.88
2015 04 09 14 23 17 .11     -84   -302    -41    314    317 195.6  -7.5  34062  287.92 0861.88
2015 04 09 14 23 17 .36     -85   -294    -39    307    310 196.1  -7.3  34058  287.85 0861.88
2015 04 09 14 23 17 .61     -40   -282    -25    285    287 188.1  -5.1  34100  288.54 0861.88
2015 04 09 14 23 17 .86     -42   -253    -33    257    260 189.6  -7.3  34104  288.61 0861.88
2015 04 09 14 23 18 .12      -2   -276     -6    277    278 180.5  -1.3  34100  288.54 0861.88
2015 04 09 14 23 18 .36     -25   -230     13    232    233 186.2   3.3  34118  288.86 0861.88
2015 04 09 14 23 18 .61     -36   -258    -10    261    262 188.0  -2.3  34094  288.46 0861.88
2015 04 09 14 23 18 .87     -45   -266      8    270    271 189.7   1.8  34086  288.31 0861.88
2015 04 09 14 23 19 .12     -64   -275      0    283    284 193.3   0.0  34072  288.09 0861.88
2015 04 09 14 23 19 .36     -61   -275     -6    282    283 192.7  -1.3  34068  288.02 0861.88
2015 04 09 14 23 19 .62     -17   -263     -2    264    265 183.8  -0.5  34094  288.44 0861.88
2015 04 09 14 23 19 .87     -29   -213     -8    215    216 187.8  -2.3  34116  288.82 0861.88
2015 04 09 14 23 20 .12     -40   -184     66    189    201 192.5  19.4  34156  289.52 0861.88
2015 04 09 14 23 20 .37     -25   -261     13    263    264 185.6   2.9  34084  288.27 0861.88
2015 04 09 14 23 20 .62     -50   -290    -28    295    297 189.8  -5.6  34028  287.34 0861.88
2015 04 09 14 23 20 .87     -67   -303     -1    311    312 192.5  -0.4  34058  287.85 0861.88
2015 04 09 14 23 21 .12     -60   -306      4    312    313 191.1   0.9  34054  287.78 0861.88
2015 04 09 14 23 21 .37     -48   -278     13    283    284 189.8   2.8  34056  287.82 0861.88
2015 04 09 14 23 21 .62     -58   -286    -36    292    295 191.5  -7.2  34030  287.38 0861.88
2015 04 09 14 23 21 .87     -54   -289    -26    295    297 190.7  -5.1  34022  287.22 0861.88
2015 04 09 14 23 22 .12     -51   -298    -17    303    304 189.7  -3.3  34020  287.21 0861.88
2015 04 09 14 23 22 .37     -37   -293    -16    296    297 187.3  -3.1  34024  287.26 0861.88
2015 04 09 14 23 22 .63     -30   -284    -11    286    287 186.2  -2.3  34038  287.51 0861.88
2015 04 09 14 23 22 .87     -55   -250    -23    257    259 192.5  -5.2  34036  287.48 0861.88
2015 04 09 14 23 23 .12     -73   -246    -33    257    260 196.5  -7.3  34040  287.53 0861.88
2015 04 09 14 23 23 .39     -66   -235    -26    245    247 195.8  -6.2  34042  287.56 0861.88
2015 04 09 14 23 23 .63     -60   -226    -26    234    236 195.1  -6.5  34094  288.46 0861.88
2015 04 09 14 23 23 .89     -73   -232    -32    244    247 197.4  -7.5  34078  288.17 0861.88
2015 04 09 14 23 24 .14     -70   -208     -4    220    221 198.7  -1.2  34102  288.58 0861.88
2015 04 09 14 23 24 .39     -70   -218     20    229    230 197.8   5.2  34114  288.80 0861.88
2015 04 09 14 23 24 .64     -69   -226     13    237    238 197.0   3.1  34118  288.85 0861.89
2015 04 09 14 23 24 .89     -58   -198     10    207    208 196.5   2.9  34096  288.48 0861.89
2015 04 09 14 23 25 .14     -29   -180     29    183    186 189.3   9.0  34114  288.79 0861.89
2015 04 09 14 23 25 .39     -45   -152     27    159    162 196.5   9.9  34106  288.67 0861.89
2015 04 09 14 23 25 .63     -33   -173      9    177    178 190.9   2.9  34088  288.36 0861.89
2015 04 09 14 23 25 .90     -19   -159      5    161    162 186.9   2.1  34082  288.26 0861.89
2015 04 09 14 23 26 .14     -20   -142     49    144    153 188.1  18.9  34106  288.67 0861.89
2015 04 09 14 23 26 .39     -52   -176     -5    184    185 196.7  -1.6  34148  289.36 0861.89
2015 04 09 14 23 26 .64     -34   -184      6    188    189 190.5   2.1  34132  289.09 0861.89
2015 04 09 14 23 26 .89     -33   -238    -23    241    243 188.0  -5.6  34148  289.36 0861.89
2015 04 09 14 23 27 .14     -21   -255     -5    257    258 184.9  -1.3  34090  288.39 0861.89
2015 04 09 14 23 27 .39      -2   -237    -25    238    240 180.5  -6.1  34148  289.37 0861.89
2015 04 09 14 23 27 .64     -58   -216     -8    224    225 195.1  -2.3  34150  289.41 0861.89
2015 04 09 14 23 27 .89     -24   -237    -20    239    240 185.8  -4.9  34132  289.10 0861.89
2015 04 09 14 23 28 .15     -58   -261    -14    268    269 192.7  -3.1  34172  289.78 0861.89
2015 04 09 14 23 28 .39     -90   -200     -1    220    221 204.3  -0.3  34166  289.69 0861.89
2015 04 09 14 23 28 .64     -58   -219     -8    227    228 194.9  -2.2  34110  288.74 0861.89
2015 04 09 14 23 28 .90     -20   -203    -14    205    206 185.8  -3.9  34104  288.62 0861.89
2015 04 09 14 23 29 .15     -24   -188      0    190    191 187.3   0.2  34108  288.69 0861.89
2015 04 09 14 23 29 .40       3   -217     18    218    219 179.1   4.9  34138  289.19 0861.89
2015 04 09 14 23 29 .65      14   -225     75    226    239 176.2  18.5  34156  289.49 0861.89
2015 04 09 14 23 29 .90    -101   -241    -62    262    270 202.7 -13.4  34158  289.54 0861.89
2015 04 09 14 23 30 .16     -82   -285    -22    297    298 196.1  -4.4  34192  290.12 0861.89
2015 04 09 14 23 30 .41     -90   -290      3    304    305 197.4   0.7  34172  289.78 0861.89
2015 04 09 14 23 30 .66     -10   -309     67    310    318 182.0  12.3  34168  289.71 0861.89
2015 04 09 14 23 30 .91     -16   -241     13    242    243 183.8   3.3  34166  289.66 0861.89
2015 04 09 14 23 31 .16     -15   -244     56    245    252 183.6  12.9  34186  290.00 0861.89
2015 04 09 14 23 31 .42     -20   -245    -23    246    248 184.7  -5.4  34210  290.42 0861.89
2015 04 09 14 23 31 .66     -59   -186     -5    196    197 197.8  -1.6  34230  290.77 0861.89
2015 04 09 14 23 31 .91     -63   -177     -3    189    190 199.8  -1.1  34246  291.04 0861.89
2015 04 09 14 23 32 .16     -91   -208     19    228    229 203.6   5.0  34226  290.69 0861.89
2015 04 09 14 23 32 .42    -100   -213    -22    236    238 205.2  -5.4  34262  291.29 0861.89
2015 04 09 14 23 32 .66    -157   -223    -24    273    275 215.2  -5.2  34268  291.41 0861.89
2015 04 09 14 23 32 .91    -137   -205    -44    247    252 213.8 -10.3  34258  291.24 0861.89
2015 04 09 14 23 33 .17    -112   -173    -35    207    211 213.0  -9.8  34258  291.23 0861.89
2015 04 09 14 23 33 .41     -70   -181     14    195    196 201.2   4.2  34230  290.77 0861.89
2015 04 09 14 23 33 .67     -98   -156      0    185    186 212.3   0.0  34246  291.04 0861.89
2015 04 09 14 23 33 .92     -92   -151     35    178    182 211.4  11.1  34248  291.08 0861.89
2015 04 09 14 23 34 .17     -54   -188      7    196    197 196.0   2.1  34234  290.84 0861.89
2015 04 09 14 23 34 .42      -6   -145     28    146    149 182.7  11.1  34196  290.19 0861.89
2015 04 09 14 23 34 .67    -109   -174     58    206    215 212.1  15.8  34208  290.38 0861.89
2015 04 09 14 23 34 .92    -113   -237     -3    263    264 205.5  -0.7  34062  287.92 0861.89
2015 04 09 14 23 35 .17    -110   -258    -30    281    283 203.2  -6.2  34022  287.22 0861.89
2015 04 09 14 23 35 .42     -81   -272    -52    284    289 196.7 -10.5  34032  287.39 0861.88
2015 04 09 14 23 35 .67     -61   -262    -46    269    274 193.1  -9.8  34010  287.02 0861.88
2015 04 09 14 23 35 .93     -86   -249    -50    264    269 199.1 -10.9  34036  287.48 0861.88
2015 04 09 14 23 36 .17     -77   -230    -36    243    246 198.7  -8.6  34034  287.44 0861.88
2015 04 09 14 23 36 .42     -69   -235    -23    246    248 196.5  -5.4  34078  288.17 0861.88
2015 04 09 14 23 36 .67     -79   -237    -26    250    252 198.5  -6.1  34054  287.77 0861.88
2015 04 09 14 23 36 .92     -71   -239    -41    250    254 196.7  -9.3  34022  287.24 0861.88
2015 04 09 14 23 37 .18     -65   -242    -41    251    255 195.1  -9.3  34006  286.97 0861.88
2015 04 09 14 23 37 .43     -56   -238    -40    245    249 193.4  -9.4  34010  287.02 0861.88
2015 04 09 14 23 37 .69     -74   -241    -45    253    258 197.2 -10.1  34012  287.06 0861.88
2015 04 09 14 23 37 .94     -79   -251    -34    264    267 197.6  -7.3  34012  287.06 0861.88
2015 04 09 14 23 38 .19     -69   -260    -39    270    273 194.9  -8.2  34018  287.16 0861.88
2015 04 09 14 23 38 .44     -65   -243    -41    252    256 195.1  -9.4  34016  287.14 0861.88
2015 04 09 14 23 38 .69     -63   -250    -42    259    263 194.3  -9.3  34022  287.24 0861.88
2015 04 09 14 23 38 .94     -73   -247    -42    258    262 196.5  -9.3  34048  287.66 0861.88
2015 04 09 14 23 39 .19     -78   -231    -23    244    246 198.7  -5.6  34040  287.53 0861.88
2015 04 09 14 23 39 .44     -81   -242      4    256    257 198.5   1.0  34040  287.55 0861.88
2015 04 09 14 23 39 .69     -82   -222    -30    237    239 200.3  -7.3  34042  287.56 0861.88
2015 04 09 14 23 39 .94     -98   -218    -34    240    243 204.3  -8.3  34044  287.60 0861.87
2015 04 09 14 23 40 .19    -105   -233    -32    256    259 204.3  -7.2  34064  287.93 0861.87
2015 04 09 14 23 40 .44    -129   -259    -49    290    295 206.5  -9.6  34040  287.53 0861.87
2015 04 09 14 23 40 .69    -118   -231    -61    260    268 207.2 -13.3  34058  287.85 0861.87
2015 04 09 14 23 40 .95     -96   -241    -72    260    270 201.9 -15.5  34056  287.80 0861.87
2015 04 09 14 23 41 .19    -125   -253    -70    283    292 206.3 -13.9  34058  287.83 0861.87
2015 04 09 14 23 41 .45    -116   -231    -37    259    262 206.7  -8.2  34058  287.83 0861.87
2015 04 09 14 23 41 .70    -101   -217    -40    240    244 204.9  -9.6  34056  287.82 0861.87
2015 04 09 14 23 41 .95    -102   -214    -52    238    244 205.5 -12.4  34050  287.71 0861.88
2015 04 09 14 23 42 .20    -110   -217    -45    244    249 207.0 -10.5  34042  287.58 0861.88
2015 04 09 14 23 42 .45     -86   -217    -40    234    238 201.8  -9.8  34060  287.87 0861.88
2015 04 09 14 23 42 .69     -79   -214    -44    229    234 200.3 -10.9  34060  287.87 0861.88
2015 04 09 14 23 42 .95     -79   -244    -56    257    264 198.0 -12.4  34042  287.56 0861.88
2015 04 09 14 23 43 .20     -76   -237    -52    249    255 197.8 -11.9  34022  287.22 0861.88
2015 04 09 14 23 43 .45     -48   -221    -37    227    231 192.3  -9.3  34026  287.30 0861.88
2015 04 09 14 23 43 .70     -35   -208    -32    212    215 189.7  -8.6  34048  287.67 0861.88
2015 04 09 14 23 43 .96     -20   -192     19    194    195 186.2   5.7  34090  288.40 0861.88
2015 04 09 14 23 44 .21     -37   -214     16    218    219 190.0   4.2  34080  288.21 0861.88
2015 04 09 14 23 44 .46     -40   -200    -21    205    207 191.5  -6.0  34020  287.20 0861.87
2015 04 09 14 23 44 .72     -47   -198     -7    204    205 193.4  -2.2  34022  287.25 0861.87
2015 04 09 14 23 44 .96     -56   -217    -22    225    227 194.5  -5.6  34036  287.47 0861.87
2015 04 09 14 23 45 .22     -72   -214    -26    226    228 198.7  -6.7  34038  287.50 0861.87
2015 04 09 14 23 45 .47     -94   -202     17    223    224 204.9   4.6  34038  287.50 0861.87
2015 04 09 14 23 45 .72    -101   -213     -8    236    237 205.5  -2.1  34098  288.51 0861.87
2015 04 09 14 23 45 .97     -97   -204     -1    227    228 205.5  -0.5  34104  288.62 0861.87
2015 04 09 14 23 46 .22     -81   -226    -52    241    247 199.8 -12.2  34086  288.31 0861.88
2015 04 09 14 23 46 .47    -101   -201    -16    226    227 206.7  -4.1  34112  288.75 0861.88
2015 04 09 14 23 46 .72     -67   -248    -22    258    260 195.2  -4.9  34142  289.27 0861.88
2015 04 09 14 23 46 .97     -75   -208    -44    222    227 199.8 -11.3  34134  289.13 0861.88
2015 04 09 14 23 47 .22    -110   -152    -27    189    191 216.0  -8.2  34136  289.16 0861.88
2015 04 09 14 23 47 .47     -97   -159     31    187    190 211.4   9.5  34138  289.19 0861.88
2015 04 09 14 23 47 .72     -93   -181     31    204    207 207.2   8.8  34120  288.91 0861.88
2015 04 09 14 23 47 .97     -73   -147     32    165    169 206.3  11.0  34150  289.41 0861.88
2015 04 09 14 23 48 .22     -65   -138     13    153    154 205.3   5.0  34152  289.45 0861.88
2015 04 09 14 23 48 .47     -87   -116    -33    146    150 217.0 -12.9  34164  289.63 0861.88
2015 04 09 14 23 48 .72     -54    -97     -4    112    113 209.0  -2.2  34170  289.75 0861.88
2015 04 09 14 23 48 .97     -67   -160     39    174    179 202.7  12.6  34174  289.82 0861.88
2015 04 09 14 23 49 .22    -118   -152     81    193    209 217.8  24.3  34174  289.82 0861.88
2015 04 09 14 23 49 .47    -116   -172     44    208    213 214.2  12.0  34150  289.41 0861.88
2015 04 09 14 23 49 .73    -106   -205     40    231    235 207.4   9.9  34156  289.49 0861.88
2015 04 09 14 23 49 .98    -136   -207     48    248    253 213.4  11.1  34056  287.80 0861.88
2015 04 09 14 23 50 .22    -149   -189     51    241    247 218.3  12.0  34026  287.31 0861.88
2015 04 09 14 23 50 .47    -125   -178     42    218    223 215.0  11.0  34020  287.20 0861.88
2015 04 09 14 23 50 .72    -111   -169     13    203    204 213.2   3.8  34024  287.28 0861.88
2015 04 09 14 23 50 .98    -103   -151    -23    183    185 214.3  -7.2  34020  287.20 0861.88
2015 04 09 14 23 51 .24    -123   -168    -18    209    210 216.1  -5.2  34028  287.33 0861.88
2015 04 09 14 23 51 .48    -122   -158    -25    200    202 217.8  -7.3  34022  287.25 0861.88
2015 04 09 14 23 51 .74    -130   -138    -35    190    194 223.3 -10.5  34022  287.23 0861.88
2015 04 09 14 23 51 .99    -114   -113    -18    161    163 225.1  -6.5  34022  287.23 0861.88
2015 04 09 14 23 52 .24     -65   -125     -7    142    143 207.6  -3.2  34028  287.35 0861.88
2015 04 09 14 23 52 .49     -89   -157     -7    181    182 209.6  -2.2  34030  287.37 0861.88
2015 04 09 14 23 52 .74    -114   -143    -47    184    191 218.5 -14.5  34016  287.15 0861.88
2015 04 09 14 23 52 .99     -87   -169    -50    191    198 207.2 -14.7  34024  287.27 0861.88
2015 04 09 14 23 53 .24     -76   -168    -72    185    198 204.3 -26.7  34014  287.11 0861.88
2015 04 09 14 23 53 .49     -49   -143    -64    152    164 199.2 -28.5  34014  287.11 0861.88
2015 04 09 14 23 53 .74     -36   -146    -61    151    162 193.8 -27.4  34016  287.15 0861.88
2015 04 09 14 23 53 .99     -14   -109    -75    110    133 187.6 -41.8  34020  287.20 0861.88
2015 04 09 14 23 54 .24     -16    -97    -70     99    121 189.8 -43.5  34020  287.20 0861.88
2015 04 09 14 23 54 .49     -29    -92    -41     97    105 197.4 -28.5  34018  287.16 0861.89
2015 04 09 14 23 54 .75     -42   -105    -34    114    120 201.8 -16.6  34018  287.18 0861.89
2015 04 09 14 23 55 .00     -56   -110    -20    124    126 207.2  -9.4  34018  287.16 0861.89
2015 04 09 14 23 55 .24     -34   -128      0    133    134 195.2   0.2  34020  287.20 0861.89
2015 04 09 14 23 55 .50     -77   -120     14    143    144 212.6   5.9  34022  287.25 0861.89
2015 04 09 14 23 55 .74     -39   -146    -12    152    153 195.2  -4.6  34022  287.23 0861.89
2015 04 09 14 23 56 .00     -44   -148      7    155    156 196.5   2.8  34020  287.21 0861.89
2015 04 09 14 23 56 .25     -79   -141     19    162    164 209.2   6.9  34030  287.37 0861.89
2015 04 09 14 23 56 .50     -86   -126     19    153    155 214.2   7.2  34026  287.30 0861.89
2015 04 09 14 23 56 .75     -79   -124      2    148    149 212.6   0.8  34030  287.37 0861.89
2015 04 09 14 23 57 .00     -75   -117      2    140    141 212.6   0.8  34034  287.43 0861.89
2015 04 09 14 23 57 .25     -87   -120     11    149    150 216.0   4.4  34046  287.65 0861.88
2015 04 09 14 23 57 .50     -91   -111     -2    144    145 219.2  -1.2  34046  287.64 0861.88
2015 04 09 14 23 57 .76     -93   -113     23    147    149 219.6   9.0  34074  288.11 0861.88
2015 04 09 14 23 58 .01     -85   -131     38    157    162 213.0  13.7  34104  288.64 0861.88
2015 04 09 14 23 58 .26     -65   -108     -2    127    128 211.2  -1.2  34104  288.62 0861.88
2015 04 09 14 23 58 .52     -92   -115    -21    148    150 218.7  -8.2  34102  288.60 0861.88
2015 04 09 14 23 58 .76    -114   -126    -40    171    176 222.1 -13.2  34116  288.84 0861.88
2015 04 09 14 23 59 .02    -125   -149    -39    195    199 219.9 -11.3  34130  289.08 0861.89
2015 04 09 14 23 59 .26    -114   -145      9    185    186 218.1   2.9  34126  288.99 0861.89
2015 04 09 14 23 59 .52    -127   -153     32    200    203 219.7   9.3  34104  288.64 0861.89
2015 04 09 14 23 59 .76    -118   -137     49    182    189 220.8  15.3  34092  288.42 0861.89
2015 04 09 14 24 00 .02    -113   -144     61    184    194 218.1  18.4  34104  288.62 0861.89
2015 04 09 14 24 00 .27    -115   -162     53    199    207 215.4  15.0  34134  289.13 0861.89
2015 04 09 14 24 00 .52    -112   -140     42    180    185 218.7  13.2  34134  289.13 0861.89
2015 04 09 14 24 00 .77    -103   -146     70    179    192 215.2  22.5  34122  288.92 0861.88
2015 04 09 14 24 01 .02     -98    -82     60    128    141 230.0  27.1  34122  288.92 0861.88
2015 04 09 14 24 01 .27     -84   -116     48    144    152 216.0  18.6  34148  289.38 0861.88
2015 04 09 14 24 01 .52     -81   -101     77    130    151 218.7  33.5  34118  288.86 0861.88
2015 04 09 14 24 01 .77     -81   -147     26    169    172 209.0   9.0  34110  288.72 0861.88
2015 04 09 14 24 02 .03     -91   -151     27    177    180 211.2   8.8  34080  288.21 0861.88
2015 04 09 14 24 02 .27     -85   -132     31    158    162 213.0  11.1  34078  288.18 0861.88
2015 04 09 14 24 02 .52    -102   -123     29    160    163 219.6  10.6  34098  288.52 0861.88
2015 04 09 14 24 02 .78     -82   -113     38    140    146 216.0  15.2  34126  288.99 0861.88
2015 04 09 14 24 03 .02    -105   -127     20    165    167 219.6   7.2  34078  288.18 0861.88
2015 04 09 14 24 03 .28     -88   -135     15    162    163 213.0   5.4  34106  288.67 0861.88
2015 04 09 14 24 03 .53     -98   -150     11    180    181 213.2   3.8  34108  288.69 0861.88
2015 04 09 14 24 03 .78     -95   -123     11    156    157 217.9   4.4  34090  288.38 0861.88
2015 04 09 14 24 04 .03     -57   -125     15    138    139 204.5   6.5  34108  288.69 0861.88
2015 04 09 14 24 04 .27     -40   -107    -10    115    116 200.5  -5.2  34108  288.70 0861.88
2015 04 09 14 24 04 .53     -43    -94     -5    104    105 204.9  -3.1  34112  288.77 0861.88
2015 04 09 14 24 04 .78      -6    -87      2     88     89 184.5   1.8  34114  288.79 0861.88
2015 04 09 14 24 05 .04      -8    -77     29     78     83 186.2  21.0  34134  289.14 0861.88
2015 04 09 14 24 05 .28     -16    -79     44     81     92 191.6  30.8  34146  289.35 0861.88
2015 04 09 14 24 05 .54     -15    -68     45     70     83 192.5  36.0  34142  289.28 0861.88
2015 04 09 14 24 05 .79     -16    -49     23     52     56 198.5  25.1  34130  289.06 0861.88
2015 04 09 14 24 06 .04     -16    -49     22     52     56 198.3  24.1  34130  289.06 0861.88
2015 04 09 14 24 06 .29     -41    -56     33     70     77 216.0  27.1  34128  289.04 0861.88
2015 04 09 14 24 06 .54     -47    -60     47     77     90 217.8  35.0  34132  289.09 0861.88
2015 04 09 14 24 06 .80     -51    -73     39     90     98 214.7  24.6  34134  289.13 0861.88
2015 04 09 14 24 07 .04     -52    -71     31     89     95 216.1  19.4  34182  289.94 0861.88
2015 04 09 14 24 07 .29     -58    -79     28     99    103 216.1  15.8  34172  289.79 0861.88
2015 04 09 14 24 07 .54     -60    -97      5    115    116 211.6   2.8  34148  289.38 0861.88
2015 04 09 14 24 07 .80     -65   -101     21    121    123 212.6  10.1  34162  289.60 0861.88
2015 04 09 14 24 08 .04     -66   -132     33    148    152 206.7  12.6  34174  289.80 0861.88
2015 04 09 14 24 08 .29     -26   -169     -6    172    173 188.9  -2.2  34108  288.69 0861.88
2015 04 09 14 24 08 .55     -22   -169     36    171    175 187.6  12.2  34104  288.62 0861.88
2015 04 09 14 24 08 .80     -49   -136     28    145    148 200.0  11.1  34130  289.08 0861.88
2015 04 09 14 24 09 .05     -87   -161     25    184    186 208.5   7.8  34104  288.62 0861.88
2015 04 09 14 24 09 .30    -106   -177     25    207    209 210.8   7.1  34096  288.48 0861.88
2015 04 09 14 24 09 .55    -114   -192     23    224    226 210.7   6.1  34068  288.03 0861.88
2015 04 09 14 24 09 .80    -121   -181    -34    219    222 213.8  -8.8  34064  287.94 0861.88
2015 04 09 14 24 10 .05     -95   -157     -4    184    185 211.2  -1.3  34072  288.08 0861.88
2015 04 09 14 24 10 .30     -89   -145      9    171    172 211.4   3.1  34078  288.18 0861.88
2015 04 09 14 24 10 .55    -113   -168     -3    203    204 214.1  -1.1  34086  288.31 0861.88
2015 04 09 14 24 10 .81    -118   -199      7    232    233 210.8   1.8  34112  288.75 0861.88
2015 04 09 14 24 11 .05    -139   -188     47    235    240 216.5  11.4  34096  288.48 0861.88
2015 04 09 14 24 11 .30    -109   -170      7    203    204 212.6   2.1  34074  288.11 0861.88
2015 04 09 14 24 11 .55     -95   -128     -8    160    161 216.5  -3.1  34064  287.94 0861.88
2015 04 09 14 24 11 .80     -95   -143      2    172    173 213.6   0.8  34060  287.89 0861.88
2015 04 09 14 24 12 .06     -89   -143    -12    169    170 212.1  -4.4  34044  287.60 0861.88
2015 04 09 14 24 12 .31    -109   -126    -32    167    171 220.8 -11.1  34034  287.43 0861.88
2015 04 09 14 24 12 .56    -101   -124    -29    161    164 219.2 -10.5  34028  287.35 0861.88
2015 04 09 14 24 12 .82     -98   -120    -20    156    158 219.2  -7.3  34038  287.50 0861.88
2015 04 09 14 24 13 .06     -90   -122    -30    152    156 216.5 -11.3  34036  287.47 0861.88
2015 04 09 14 24 13 .32     -75   -136    -27    156    159 209.0 -10.1  34034  287.43 0861.88
2015 04 09 14 24 13 .56     -95   -124    -32    157    161 217.4 -11.6  34028  287.33 0861.88
2015 04 09 14 24 13 .82     -87   -130    -23    157    159 213.8  -8.6  34032  287.42 0861.88
2015 04 09 14 24 14 .07    -100   -153     -4    184    185 213.2  -1.3  34040  287.55 0861.88
2015 04 09 14 24 14 .32     -89   -147    -11    172    173 211.2  -3.9  34054  287.79 0861.88
2015 04 09 14 24 14 .57     -85   -157     -3    179    180 208.5  -1.1  34066  287.99 0861.88
2015 04 09 14 24 14 .82    -107   -138    -23    175    177 217.8  -7.5  34050  287.70 0861.88
2015 04 09 14 24 15 .07    -128   -155    -18    202    203 219.7  -5.2  34050  287.70 0861.88
2015 04 09 14 24 15 .32    -122   -149     -4    193    194 219.4  -1.3  34072  288.08 0861.88
2015 04 09 14 24 15 .58    -127   -147     38    195    199 221.0  11.1  34090  288.38 0861.88
2015 04 09 14 24 15 .82    -131   -170      0    215    216 217.6   0.2  34092  288.43 0861.88
2015 04 09 14 24 16 .08     -91   -150     34    176    180 211.2  11.1  34122  288.94 0861.88
2015 04 09 14 24 16 .32    -105   -152     19    185    187 214.7   6.1  34064  287.96 0861.88
2015 04 09 14 24 16 .57    -120   -165     15    205    206 216.1   4.2  34070  288.06 0861.88
2015 04 09 14 24 16 .82    -106   -178     17    208    209 210.8   4.9  34080  288.23 0861.88
2015 04 09 14 24 17 .08    -117   -176      0    212    213 213.8   0.0  34082  288.25 0861.88
2015 04 09 14 24 17 .33    -120   -163    -16    203    204 216.5  -4.6  34082  288.26 0861.88
2015 04 09 14 24 17 .58     -75   -156    -19    174    176 205.6  -6.2  34096  288.50 0861.88
2015 04 09 14 24 17 .83    -114   -176     -4    210    211 213.0  -1.1  34112  288.75 0861.88
2015 04 09 14 24 18 .07    -105   -152      8    186    187 214.7   2.5  34100  288.57 0861.88
2015 04 09 14 24 18 .33     -96   -146     17    175    176 213.4   5.7  34088  288.35 0861.88
2015 04 09 14 24 18 .58    -107   -140     25    177    179 217.4   8.2  34094  288.45 0861.88
2015 04 09 14 24 18 .84     -84   -140     21    164    166 211.0   7.5  34118  288.87 0861.88
2015 04 09 14 24 19 .09    -113   -168     32    203    206 214.1   9.0  34136  289.18 0861.88
2015 04 09 14 24 19 .34    -124   -160     21    203    205 217.8   6.1  34172  289.77 0861.88
2015 04 09 14 24 19 .59    -164   -152      1    224    225 227.1   0.5  34060  287.89 0861.88
2015 04 09 14 24 19 .84    -150   -166    -12    225    226 222.1  -3.1  34068  288.01 0861.88
2015 04 09 14 24 20 .09    -139   -167    -17    218    219 219.7  -4.6  34064  287.96 0861.88
2015 04 09 14 24 20 .34    -132   -158    -35    206    210 219.9  -9.8  34032  287.42 0861.88
2015 04 09 14 24 20 .59    -132   -143    -44    195    201 222.8 -12.9  34018  287.18 0861.88
2015 04 09 14 24 20 .85    -136   -156    -47    208    214 221.2 -12.9  34042  287.57 0861.88
2015 04 09 14 24 21 .09    -104   -143     -6    178    179 216.1  -2.2  34170  289.75 0861.88
2015 04 09 14 24 21 .34    -113   -117    -38    163    168 224.1 -13.2  34036  287.49 0861.88
2015 04 09 14 24 21 .60    -108   -134    -18    173    175 219.0  -6.2  34062  287.91 0861.88
2015 04 09 14 24 21 .85    -118   -127    -21    174    176 223.0  -6.9  34070  288.04 0861.88
2015 04 09 14 24 22 .10     -87   -128     -3    155    156 214.2  -1.3  34090  288.40 0861.88
2015 04 09 14 24 22 .35    -125   -129    -28    180    183 224.1  -8.8  34030  287.38 0861.88
2015 04 09 14 24 22 .60    -108   -134     -9    173    174 219.0  -3.3  34054  287.79 0861.88
2015 04 09 14 24 22 .85    -120   -115    -38    167    172 226.2 -12.9  34058  287.86 0861.88
2015 04 09 14 24 23 .10    -113   -106    -23    156    158 226.9  -8.6  34054  287.79 0861.88
2015 04 09 14 24 23 .35    -110   -110    -24    156    158 225.0  -8.8  34048  287.67 0861.88
2015 04 09 14 24 23 .61    -118   -118    -25    167    169 225.0  -8.8  34068  288.03 0861.88
2015 04 09 14 24 23 .85    -154   -113    -10    192    193 233.6  -3.1  34092  288.43 0861.88
2015 04 09 14 24 24 .11    -125   -117     12    172    173 226.9   4.2  34114  288.80 0861.88
2015 04 09 14 24 24 .35    -125   -116      8    171    172 227.1   2.8  34078  288.20 0861.88
2015 04 09 14 24 24 .61    -133   -134     15    189    190 224.8   4.6  34082  288.25 0861.88
2015 04 09 14 24 24 .85    -155   -160     23    224    226 224.1   6.1  34080  288.23 0861.88
2015 04 09 14 24 25 .11    -145   -148     21    208    210 224.5   5.9  34108  288.70 0861.88
2015 04 09 14 24 25 .35    -165   -152     16    225    226 227.3   4.2  34140  289.23 0861.88
2015 04 09 14 24 25 .61    -175   -145     -1    228    229 230.5  -0.5  34128  289.04 0861.88
2015 04 09 14 24 25 .87    -164   -102     -8    194    195 238.2  -2.6  34154  289.46 0861.88
2015 04 09 14 24 26 .12    -108    -67    -11    128    129 238.0  -5.2  34178  289.89 0861.88
2015 04 09 14 24 26 .37     -94   -117     52    151    160 218.7  19.2  34196  290.19 0861.88
2015 04 09 14 24 26 .61    -116   -152     64    192    203 217.4  18.4  34120  288.91 0861.88
2015 04 09 14 24 26 .87    -120   -169     17    208    209 215.4   4.9  34050  287.70 0861.88
2015 04 09 14 24 27 .12    -130   -163     38    209    213 218.5  10.3  34032  287.42 0861.88
2015 04 09 14 24 27 .37    -122   -156     17    199    200 218.1   5.0  34048  287.67 0861.88
2015 04 09 14 24 27 .62    -125   -137     15    186    187 222.5   4.9  34046  287.65 0861.88
2015 04 09 14 24 27 .87    -122   -133      3    181    182 222.5   1.0  34048  287.69 0861.88
2015 04 09 14 24 28 .12    -122   -133     -4    181    182 222.5  -1.3  34044  287.60 0861.88
2015 04 09 14 24 28 .37    -149   -123    -16    194    195 230.5  -4.9  34036  287.47 0861.88
2015 04 09 14 24 28 .62    -147   -112    -28    185    188 232.7  -8.6  34034  287.43 0861.88
2015 04 09 14 24 28 .87    -152   -127    -26    199    201 230.2  -7.5  34032  287.40 0861.88
2015 04 09 14 24 29 .12    -144   -121    -32    189    192 229.8  -9.6  34030  287.38 0861.88
2015 04 09 14 24 29 .37    -139    -93    -37    168    173 236.3 -12.4  34030  287.38 0861.88
2015 04 09 14 24 29 .62    -123   -102    -32    160    164 230.4 -11.6  34024  287.28 0861.88
2015 04 09 14 24 29 .88    -121    -99    -22    157    159 230.5  -8.2  34034  287.45 0861.88
2015 04 09 14 24 30 .12    -110    -98    -45    148    154 228.2 -22.3  34030  287.38 0861.88
2015 04 09 14 24 30 .37    -114   -107    -49    157    165 226.9 -17.6  34030  287.38 0861.88
2015 04 09 14 24 30 .62    -120   -129    -38    177    182 222.8 -12.2  34022  287.23 0861.88
2015 04 09 14 24 30 .88    -119   -134    -28    180    183 221.4  -9.0  34018  287.16 0861.88
2015 04 09 14 24 31 .13    -130   -129    -36    184    188 225.4 -11.1  34022  287.23 0861.88
2015 04 09 14 24 31 .37    -119   -115    -38    166    171 225.8 -13.2  34020  287.21 0861.88
2015 04 09 14 24 31 .63    -116   -110    -35    161    165 226.4 -12.4  34020  287.20 0861.88
2015 04 09 14 24 31 .88    -110   -103    -39    152    157 226.9 -14.5  34014  287.11 0861.88
2015 04 09 14 24 32 .13    -114    -97    -33    151    155 229.6 -12.4  34018  287.16 0861.88
2015 04 09 14 24 32 .38    -118   -100    -20    155    157 229.6  -7.3  34014  287.10 0861.88
2015 04 09 14 24 32 .63    -118   -100    -27    155    158 229.6 -10.1  34014  287.11 0861.88
2015 04 09 14 24 32 .89    -121   -118    -33    170    174 225.6 -11.1  34014  287.11 0861.88
2015 04 09 14 24 33 .14    -113   -126    -15    170    171 222.1  -5.2  34044  287.62 0861.88
2015 04 09 14 24 33 .40    -109   -116    -32    160    164 223.2 -11.3  34046  287.65 0861.88
2015 04 09 14 24 33 .65     -78   -123     -1    147    148 212.5  -0.7  34116  288.84 0861.88
2015 04 09 14 24 33 .89     -95   -113     18    149    151 220.1   6.9  34124  288.97 0861.88
2015 04 09 14 24 34 .14     -87   -105     -3    137    138 219.7  -1.3  34050  287.70 0861.88
2015 04 09 14 24 34 .39     -92    -92    -27    131    134 225.2 -11.9  34026  287.30 0861.88
2015 04 09 14 24 34 .64     -88    -99    -17    133    135 221.4  -7.3  34014  287.10 0861.88
2015 04 09 14 24 34 .89     -90   -109     -9    142    143 219.6  -3.7  34014  287.11 0861.88
2015 04 09 14 24 35 .15     -76   -106    -16    131    133 215.6  -7.2  34016  287.15 0861.88
2015 04 09 14 24 35 .39     -77   -106    -14    132    133 216.1  -6.2  34016  287.15 0861.88
2015 04 09 14 24 35 .65     -74   -100     -4    125    126 216.5  -2.2  34020  287.20 0861.88
2015 04 09 14 24 35 .90     -74   -100     -4    125    126 216.5  -2.2  34020  287.20 0861.89
2015 04 09 14 24 36 .15     -89    -91     -5    128    129 224.1  -2.2  34020  287.20 0861.89
2015 04 09 14 24 36 .40     -95    -81    -11    125    126 229.6  -5.2  34018  287.16 0861.89
2015 04 09 14 24 36 .65     -92    -85     -8    126    127 227.3  -3.7  34020  287.20 0861.89
2015 04 09 14 24 36 .90     -97    -94    -15    136    137 226.0  -6.7  34020  287.20 0861.89
2015 04 09 14 24 37 .15     -94    -88    -18    130    132 226.8  -8.2  34020  287.20 0861.89
2015 04 09 14 24 37 .40     -92    -85    -16    126    128 227.3  -7.2  34014  287.11 0861.89
2015 04 09 14 24 37 .65     -96    -91    -17    133    135 226.8  -7.3  34014  287.11 0861.89
2015 04 09 14 24 37 .90     -92    -85    -16    126    128 227.3  -7.2  34014  287.11 0861.89
2015 04 09 14 24 38 .16     -91    -82    -20    123    125 227.8  -9.3  34022  287.23 0861.89
2015 04 09 14 24 38 .40     -93    -82    -16    125    127 228.7  -7.7  34022  287.25 0861.89
2015 04 09 14 24 38 .66     -99    -79    -20    127    129 231.4  -9.3  34024  287.28 0861.88
2015 04 09 14 24 38 .90     -90    -71    -10    115    116 231.8  -5.2  34030  287.38 0861.88
2015 04 09 14 24 39 .16     -94    -60    -21    112    115 237.6 -10.9  34026  287.32 0861.88
2015 04 09 14 24 39 .41     -93   -105      1    141    142 221.5   0.7  34104  288.62 0861.89
2015 04 09 14 24 39 .66    -112   -106     15    155    156 226.4   5.7  34096  288.50 0861.89
2015 04 09 14 24 39 .92    -108   -102      4    149    150 226.8   1.8  34094  288.47 0861.89
2015 04 09 14 24 40 .17     -99    -97     11    139    140 225.6   4.9  34062  287.92 0861.89
2015 04 09 14 24 40 .42     -90    -83     14    123    124 227.3   6.9  34060  287.89 0861.89
2015 04 09 14 24 40 .67     -74    -89     18    116    118 219.6   8.9  34036  287.49 0861.89
2015 04 09 14 24 40 .92     -71    -86     29    112    116 219.6  14.7  34090  288.40 0861.89
2015 04 09 14 24 41 .17     -86    -82     -2    120    121 226.4  -1.3  34084  288.28 0861.89
2015 04 09 14 24 41 .42     -87    -89     12    125    126 224.1   5.9  34062  287.92 0861.89
2015 04 09 14 24 41 .67    -119    -75    -19    141    143 237.6  -7.7  34044  287.60 0861.89
2015 04 09 14 24 41 .92     -97    -56    -22    113    116 239.8 -11.3  34038  287.52 0861.89
2015 04 09 14 24 42 .17    -129    -43    -27    137    140 251.4 -11.3  34046  287.65 0861.89
2015 04 09 14 24 42 .43    -113     -8    -34    114    119 265.6 -16.6  34050  287.70 0861.89
2015 04 09 14 24 42 .67    -114     21     -7    116    117 280.6  -3.7  34054  287.77 0861.89
2015 04 09 14 24 42 .93    -135    -10    -17    136    138 265.7  -7.2  34058  287.84 0861.88
2015 04 09 14 24 43 .18    -137     -6    -20    138    140 267.4  -8.2  34058  287.86 0861.88
2015 04 09 14 24 43 .43    -130    -27    -17    133    135 258.1  -7.3  34058  287.84 0861.88
2015 04 09 14 24 43 .68    -135    -12    -14    136    137 264.8  -6.2  34066  287.98 0861.88
2015 04 09 14 24 43 .93    -129    -36    -17    135    137 254.1  -7.3  34058  287.84 0861.88
2015 04 09 14 24 44 .18    -147    -53    -24    157    159 250.0  -9.0  34058  287.86 0861.88
2015 04 09 14 24 44 .43    -129    -41    -43    136    143 252.3 -17.5  34070  288.04 0861.88
2015 04 09 14 24 44 .68    -144    -57    -51    156    165 248.3 -18.3  34040  287.55 0861.88
2015 04 09 14 24 44 .93    -146    -58    -44    158    165 248.3 -15.5  34032  287.42 0861.88
2015 04 09 14 24 45 .18    -132    -57    -46    145    153 246.5 -17.5  34030  287.37 0861.88
2015 04 09 14 24 45 .43    -153    -38    -49    158    165 255.8 -22.5  34034  287.43 0861.88
2015 04 09 14 24 45 .68    -158    -32    -42    162    168 258.3 -14.5  34028  287.33 0861.88
2015 04 09 14 24 45 .93    -167    -54    -36    176    180 251.8 -11.6  34044  287.60 0861.88
2015 04 09 14 24 46 .18    -157    -81    -32    177    181 242.5 -10.5  34030  287.38 0861.88
2015 04 09 14 24 46 .43    -170    -62    -15    182    183 250.0  -4.9  34026  287.30 0861.88
2015 04 09 14 24 46 .69    -163    -55    -18    173    175 251.4  -6.2  34032  287.40 0861.88
2015 04 09 14 24 46 .95    -146    -34    -13    150    151 256.7  -5.1  34034  287.45 0861.88
2015 04 09 14 24 47 .20    -149    -16    -19    150    152 263.8  -7.3  34044  287.62 0861.88
2015 04 09 14 24 47 .45    -164    -72    -21    180    182 246.3  -6.9  34066  287.99 0861.88
2015 04 09 14 24 47 .69    -160    -26    -14    163    164 260.5  -5.2  34024  287.28 0861.88
2015 04 09 14 24 47 .95    -154    -36    -42    159    165 256.7 -15.0  34028  287.33 0861.88
2015 04 09 14 24 48 .20    -127      9    -24    128    131 274.3 -10.9  34062  287.92 0861.88
2015 04 09 14 24 48 .45    -132    -37    -30    138    142 254.1 -12.4  34062  287.92 0861.88
2015 04 09 14 24 48 .70    -128    -46    -22    137    139 250.0  -9.4  34070  288.06 0861.88
2015 04 09 14 24 48 .95    -160    -36    -23    165    167 257.2  -8.0  34074  288.11 0861.88
2015 04 09 14 24 49 .20    -149    -54    -18    159    161 250.1  -6.5  34090  288.40 0861.88
2015 04 09 14 24 49 .45    -157    -61    -21    169    171 248.5  -7.3  34100  288.55 0861.88
2015 04 09 14 24 49 .70    -160    -57    -31    171    174 250.3 -10.3  34070  288.04 0861.88
2015 04 09 14 24 49 .95    -138    -61    -25    152    155 246.0  -9.3  34076  288.16 0861.88
2015 04 09 14 24 50 .20    -161    -66    -18    175    176 247.6  -6.0  34072  288.08 0861.88
2015 04 09 14 24 50 .45    -158    -58    -17    169    170 249.8  -6.0  34056  287.81 0861.88
2015 04 09 14 24 50 .70    -152    -62    -32    165    169 247.6 -11.1  34058  287.86 0861.88
2015 04 09 14 24 50 .95    -146    -53    -39    156    162 250.1 -14.3  34066  287.99 0861.88
2015 04 09 14 24 51 .20    -147     25    -16    150    151 279.6  -6.2  34100  288.55 0861.88
2015 04 09 14 24 51 .45    -150    -30    -21    154    156 258.6  -8.0  34090  288.40 0861.88
2015 04 09 14 24 51 .70    -145    -39     -9    151    152 255.0  -3.7  34084  288.30 0861.88
2015 04 09 14 24 51 .96    -131    -43    -27    138    141 251.8 -11.3  34070  288.06 0861.88
2015 04 09 14 24 52 .21    -150      3    -23    151    153 271.3  -9.0  34102  288.60 0861.88
2015 04 09 14 24 52 .46    -139      0    -23    140    142 269.6  -9.4  34104  288.64 0861.88
2015 04 09 14 24 52 .71    -134    -48     -7    143    144 250.0  -3.1  34084  288.30 0861.88
2015 04 09 14 24 52 .95    -116    -50    -33    127    132 246.5 -14.5  34056  287.81 0861.89
2015 04 09 14 24 53 .21    -118    -51    -22    129    131 246.5  -9.8  34050  287.72 0861.89
2015 04 09 14 24 53 .46    -100    -42     -8    109    110 246.9  -4.6  34062  287.91 0861.89
2015 04 09 14 24 53 .73     -90    -30    -26     95     99 251.4 -15.5  34080  288.21 0861.89
2015 04 09 14 24 53 .97     -61     24      5     66     67 291.7   4.9  34122  288.92 0861.89
2015 04 09 14 24 54 .22     -52     13     -2     54     55 284.2  -2.2  34116  288.84 0861.89
2015 04 09 14 24 54 .47     -36     36     19     51     54 315.0  20.0  34126  289.01 0861.89
2015 04 09 14 24 54 .72     -52    -49     -1     72     73 226.9  -1.3  34114  288.79 0861.89
2015 04 09 14 24 54 .97     -18     -4     20     19     27 254.9  48.2  34134  289.14 0861.89
2015 04 09 14 24 55 .22    -113      8    -34    114    118 274.4 -21.7  34142  289.28 0861.89
2015 04 09 14 24 55 .48     -51      8     43     52     67 279.7  43.8  34154  289.46 0861.89
2015 04 09 14 24 55 .72     -10     16     -3     19     20 327.5  -9.3  34158  289.53 0861.89
2015 04 09 14 24 55 .97      22    -14     21     27     34 122.4  43.7  34154  289.46 0861.89
2015 04 09 14 24 56 .22      -2     -7      2      8      9 198.5  19.2  34160  289.57 0861.89
2015 04 09 14 24 56 .48      14      1      0     15     16  85.7   2.9  34160  289.58 0861.89
2015 04 09 14 24 56 .73       0     -3     -1      4      5 191.6 -15.5  34162  289.62 0861.89
2015 04 09 14 24 56 .98     -19    -17      1     26     27 228.7   2.9  34168  289.72 0861.89
2015 04 09 14 24 57 .23     -15    -21     -8     26     27 216.1 -23.8  34188  290.04 0861.89
2015 04 09 14 24 57 .48     -92    -12    -21     93     96 262.1 -12.9  34180  289.91 0861.89
2015 04 09 14 24 57 .73    -150    -62    -48    163    171 247.6 -16.6  34182  289.96 0861.89
2015 04 09 14 24 57 .98     -35    -32     -2     48     49 226.9  -3.1  34170  289.74 0861.89
2015 04 09 14 24 58 .23     -63     12    -20     65     68 281.5 -22.8  34152  289.45 0861.89
2015 04 09 14 24 58 .48      13      4     14     14     19  71.6  50.1  34162  289.60 0861.89
2015 04 09 14 24 58 .73      27    -14     18     31     35 117.1  35.5  34168  289.72 0861.89
2015 04 09 14 24 58 .98    -119     20    -38    121    127 279.7 -17.6  34108  288.70 0861.89
2015 04 09 14 24 59 .23    -186      7    -47    187    193 272.4 -14.3  34078  288.18 0861.89
2015 04 09 14 24 59 .48    -141    -19    -34    143    147 262.0 -13.4  34106  288.65 0861.89
2015 04 09 14 24 59 .73    -126      0    -13    127    128 270.0  -6.2  34102  288.58 0861.89
2015 04 09 14 24 59 .98    -205     -8    -48    206    212 267.5 -13.2  34052  287.76 0861.89
2015 04 09 14 25 00 .23    -181    -10    -52    182    190 266.7 -16.0  34046  287.65 0861.89
2015 04 09 14 25 00 .49    -169    -12    -28    170    173 265.7  -9.3  34066  287.98 0861.89
2015 04 09 14 25 00 .75    -148     -9    -24    149    152 266.5  -9.4  34056  287.82 0861.89
2015 04 09 14 25 01 .00     -81     -1      5     82     83 269.2   3.8  34088  288.35 0861.89
2015 04 09 14 25 01 .25     -51    -12    -23     53     57 255.8 -29.5  34084  288.30 0861.89
2015 04 09 14 25 01 .50     -20    -14     34     25     42 234.0  59.4  34094  288.45 0861.89
2015 04 09 14 25 01 .75    -133    -11    -42    134    141 265.2 -17.6  34054  287.79 0861.89
2015 04 09 14 25 02 .00    -134    -10    -26    135    138 265.7 -10.9  34058  287.86 0861.88
2015 04 09 14 25 02 .25    -145    -11    -29    146    149 265.6 -11.5  34056  287.82 0861.88
2015 04 09 14 25 02 .50    -136      5     -9    137    138 272.1  -4.1  34056  287.81 0861.88
2015 04 09 14 25 02 .75    -134    -25    -46    137    145 259.4 -18.7  34052  287.76 0861.88
2015 04 09 14 25 03 .00    -119     -1    -33    120    125 269.2 -15.4  34066  287.99 0861.88
2015 04 09 14 25 03 .25    -144      0    -23    145    147 270.4  -9.3  34062  287.91 0861.88
2015 04 09 14 25 03 .50    -134     -1    -26    135    138 269.2 -10.9  34066  287.98 0861.88
2015 04 09 14 25 03 .75    -118      1    -29    119    123 270.8 -13.9  34068  288.03 0861.88
2015 04 09 14 25 04 .00    -103      3    -20    104    106 272.1 -10.9  34072  288.08 0861.88
2015 04 09 14 25 04 .25    -104      1    -29    105    109 270.9 -15.5  34072  288.08 0861.88
2015 04 09 14 25 04 .50     -58     13     -5     60     61 283.3  -5.2  34086  288.31 0861.88
2015 04 09 14 25 04 .75     -54    -32     -8     63     64 239.3  -7.2  34098  288.53 0861.88
2015 04 09 14 25 05 .00     -37    -12     -4     39     40 251.8  -6.2  34098  288.53 0861.88
2015 04 09 14 25 05 .26     -14     -3     11     15     18 254.9  39.7  34106  288.65 0861.88
2015 04 09 14 25 05 .50       0    -18     -1     19     20 180.9  -3.1  34106  288.67 0861.88
2015 04 09 14 25 05 .76      -3     21    -16     22     27 352.0 -44.1  34114  288.79 0861.88
2015 04 09 14 25 06 .01      -1     13    -18     14     22 353.8 -60.8  34118  288.87 0861.88
2015 04 09 14 25 06 .26       0     44      2     45     46 359.1   2.9  34146  289.35 0861.88
2015 04 09 14 25 06 .51     -29     -9    -23     31     38 251.4 -46.1  34154  289.46 0861.88
2015 04 09 14 25 06 .76     -32     21     -9     39     41 303.3 -13.4  34148  289.38 0861.88
2015 04 09 14 25 07 .01     -28    -13     -1     32     33 244.8  -3.1  34150  289.41 0861.88
2015 04 09 14 25 07 .26     -12    -12    -23     18     29 225.0 -60.8  34146  289.35 0861.88
2015 04 09 14 25 07 .52     -20     20      3     29     30 315.0   6.9  34142  289.28 0861.88
2015 04 09 14 25 07 .77      -7     -8     12     11     16 219.6  48.2  34154  289.46 0861.88
2015 04 09 14 25 08 .02       7     -7     17     11     20 135.0  62.6  34160  289.57 0861.88
2015 04 09 14 25 08 .27      -9     -5     24     11     26 241.1  75.0  34156  289.50 0861.88
2015 04 09 14 25 08 .52     -15      8     -7     18     19 298.9 -23.3  34178  289.87 0861.88
2015 04 09 14 25 08 .77     -37    -17     25     42     48 244.7  34.4  34204  290.33 0861.88
2015 04 09 14 25 09 .02     -21      0     18     22     28 270.0  45.8  34206  290.35 0861.88
2015 04 09 14 25 09 .27     -25     36     27     45     52 324.8  34.4  34210  290.41 0861.88
2015 04 09 14 25 09 .52     -24     16     16     30     34 304.2  29.3  34188  290.06 0861.88
2015 04 09 14 25 09 .78     -29     53     15     61     63 331.0  14.3  34170  289.74 0861.88
2015 04 09 14 25 10 .03     -48     45      3     67     68 313.1   2.8  34174  289.82 0861.88
2015 04 09 14 25 10 .28     -72     14     -6     74     75 281.4  -5.2  34174  289.80 0861.88
2015 04 09 14 25 10 .52    -133     21     -5    135    136 279.2  -2.2  34126  288.99 0861.88
2015 04 09 14 25 10 .78    -130    -15    -36    131    136 263.0 -15.5  34110  288.72 0861.88
2015 04 09 14 25 11 .03     -70      1    -21     71     74 270.8 -22.8  34130  289.06 0861.88
2015 04 09 14 25 11 .28     -73     40    -32     84     89 298.9 -25.9  34128  289.04 0861.88
2015 04 09 14 25 11 .53     -16     -7    -10     18     20 244.7 -35.8  34154  289.46 0861.88
2015 04 09 14 25 11 .78       4    -23     -8     24     26 168.4 -19.7  34158  289.55 0861.88
2015 04 09 14 25 12 .03      -5      1    -25      6     25 288.4 -90.0  34162  289.60 0861.88
2015 04 09 14 25 12 .28      30     -7     -9     31     33 103.3 -17.6  34168  289.70 0861.88
2015 04 09 14 25 12 .53     -56    -20    -27     60     65 250.0 -30.6  34154  289.46 0861.88
2015 04 09 14 25 12 .78     -84      0      1     85     86 270.0   1.2  34130  289.08 0861.88
2015 04 09 14 25 13 .04    -126    -36    -35    132    137 254.1 -15.0  34086  288.31 0861.88
2015 04 09 14 25 13 .28    -123    -73    -28    144    147 239.4 -11.3  34094  288.45 0861.88
2015 04 09 14 25 13 .53    -128   -103    -29    165    168 231.1 -10.1  34082  288.26 0861.88
2015 04 09 14 25 13 .78    -129   -113     -3    172    173 228.9  -1.1  34090  288.40 0861.88
2015 04 09 14 25 14 .04    -181    -86      2    201    202 244.6   0.7  34080  288.21 0861.88
2015 04 09 14 25 14 .29    -208   -113    -22    238    240 241.4  -5.4  34094  288.44 0861.88
2015 04 09 14 25 14 .54    -188   -124    -12    226    227 236.5  -3.1  34102  288.58 0861.88
2015 04 09 14 25 14 .80    -176   -132    -15    221    222 233.1  -4.1  34092  288.42 0861.88
2015 04 09 14 25 15 .05    -192   -131    -25    233    235 235.6  -6.2  34102  288.58 0861.88
2015 04 09 14 25 15 .30    -172   -141     -4    223    224 230.7  -1.3  34126  288.99 0861.88
2015 04 09 14 25 15 .55    -159   -159     -1    226    227 225.0  -0.3  34122  288.94 0861.88
2015 04 09 14 25 15 .80    -222   -141    -41    264    268 237.5  -8.8  34086  288.31 0861.88
2015 04 09 14 25 16 .05    -232   -130    -56    267    273 240.7 -11.9  34054  287.77 0861.88
2015 04 09 14 25 16 .30    -244   -111    -54    269    275 245.6 -11.3  34050  287.70 0861.88
2015 04 09 14 25 16 .55    -222   -122    -36    254    257 241.1  -8.3  34052  287.75 0861.88
2015 04 09 14 25 16 .80    -222   -105    -48    246    251 244.6 -11.1  34056  287.80 0861.88
2015 04 09 14 25 17 .06    -227   -116    -46    256    261 242.9 -10.3  34060  287.88 0861.88
2015 04 09 14 25 17 .31    -235   -107    -37    259    262 245.6  -8.3  34076  288.14 0861.88
2015 04 09 14 25 17 .55    -215    -99    -25    237    239 245.2  -6.2  34084  288.27 0861.88
2015 04 09 14 25 17 .81    -208   -123    -15    242    243 239.4  -3.7  34082  288.26 0861.88
2015 04 09 14 25 18 .06    -260   -113    -41    284    287 246.5  -8.3  34080  288.21 0861.88
2015 04 09 14 25 18 .31    -239    -79    -78    252    264 251.6 -17.3  34078  288.17 0861.88
2015 04 09 14 25 18 .56    -251    -68    -53    261    267 254.9 -11.5  34094  288.44 0861.88
2015 04 09 14 25 18 .81    -233    -71    -35    244    247 252.9  -8.3  34092  288.41 0861.88
2015 04 09 14 25 19 .06    -210    -49    -27    216    218 256.8  -7.2  34102  288.58 0861.88
2015 04 09 14 25 19 .31    -210    -95    -33    231    234 245.6  -8.3  34126  288.98 0861.88
2015 04 09 14 25 19 .56    -225    -88    -35    242    245 248.5  -8.2  34136  289.15 0861.88
2015 04 09 14 25 19 .81    -197    -80    -27    213    215 247.8  -7.3  34152  289.45 0861.88
2015 04 09 14 25 20 .06    -152    -57    -19    163    165 249.2  -6.9  34146  289.33 0861.87
2015 04 09 14 25 20 .31    -215   -113    -26    243    245 242.2  -6.2  34166  289.66 0861.87
2015 04 09 14 25 20 .56    -225   -107    -32    250    253 244.5  -7.3  34192  290.10 0861.87
2015 04 09 14 25 20 .81    -206   -153     -7    257    258 233.4  -1.6  34200  290.24 0861.87
2015 04 09 14 25 21 .06    -239   -197     40    310    313 230.5   7.5  34158  289.54 0861.87
2015 04 09 14 25 21 .31    -218   -199     19    296    297 227.6   3.8  34086  288.32 0861.87
2015 04 09 14 25 21 .58    -223   -189      4    293    294 229.8   0.8  34090  288.39 0861.87
2015 04 09 14 25 21 .83    -227   -189      3    296    297 230.2   0.7  34102  288.59 0861.87
2015 04 09 14 25 22 .07    -232   -202      3    308    309 228.9   0.7  34108  288.70 0861.87
2015 04 09 14 25 22 .32    -231   -182     -1    295    296 231.8  -0.3  34090  288.39 0861.87
2015 04 09 14 25 22 .58    -209   -173    -10    272    273 230.4  -2.2  34088  288.36 0861.87
2015 04 09 14 25 22 .82    -225   -180    -20    289    290 231.3  -4.1  34082  288.26 0861.87
2015 04 09 14 25 23 .08    -231   -182     -8    295    296 231.8  -1.6  34086  288.31 0861.87
2015 04 09 14 25 23 .33    -229   -196      5    302    303 229.5   1.0  34098  288.53 0861.87
2015 04 09 14 25 23 .58    -214   -184      8    283    284 229.3   1.8  34092  288.43 0861.87
2015 04 09 14 25 23 .83    -218   -163    -24    273    275 233.1  -5.2  34082  288.26 0861.87
2015 04 09 14 25 24 .08    -221   -138    -33    261    264 238.0  -7.2  34086  288.31 0861.87
2015 04 09 14 25 24 .33    -221   -122    -54    253    259 241.1 -12.2  34090  288.37 0861.87
2015 04 09 14 25 24 .58    -219   -139    -52    260    266 237.6 -11.5  34090  288.39 0861.87
2015 04 09 14 25 24 .83    -213   -154    -27    263    265 234.1  -6.0  34088  288.36 0861.87
2015 04 09 14 25 25 .08    -239   -173    -38    296    299 234.0  -7.5  34106  288.66 0861.87
2015 04 09 14 25 25 .33    -255   -168    -32    306    308 236.7  -6.1  34108  288.68 0861.87
2015 04 09 14 25 25 .58    -242   -163    -35    293    296 236.0  -6.9  34110  288.71 0861.87
2015 04 09 14 25 25 .84    -247   -192    -30    314    316 232.2  -5.6  34120  288.88 0861.87
2015 04 09 14 25 26 .08    -256   -165    -44    305    309 237.1  -8.3  34138  289.19 0861.87
2015 04 09 14 25 26 .33    -258   -169    -39    309    312 236.7  -7.3  34132  289.09 0861.87
2015 04 09 14 25 26 .58    -246   -144    -40    286    289 239.6  -8.0  34140  289.24 0861.87
2015 04 09 14 25 26 .83    -238   -146    -26    280    282 238.5  -5.4  34140  289.22 0861.87
2015 04 09 14 25 27 .08    -221   -145    -24    265    267 236.7  -5.2  34150  289.39 0861.87
2015 04 09 14 25 27 .34    -200   -113     -5    230    231 240.5  -1.3  34142  289.26 0861.87
2015 04 09 14 25 27 .59    -227   -117    -18    256    257 242.7  -4.1  34140  289.24 0861.87
2015 04 09 14 25 27 .84    -241   -118    -19    269    270 243.8  -4.1  34178  289.88 0861.87
2015 04 09 14 25 28 .09    -260   -134    -25    293    295 242.7  -4.9  34186  290.00 0861.87
2015 04 09 14 25 28 .34    -263   -139    -27    298    300 242.0  -5.2  34152  289.44 0861.87
2015 04 09 14 25 28 .60    -247   -136    -25    283    285 241.1  -5.2  34154  289.46 0861.87
2015 04 09 14 25 28 .85    -261   -113    -36    285    288 246.5  -7.2  34150  289.41 0861.87
2015 04 09 14 25 29 .10    -249   -117    -28    276    278 244.8  -6.0  34160  289.56 0861.87
2015 04 09 14 25 29 .35    -240    -90    -23    257    259 249.4  -5.2  34156  289.51 0861.87
2015 04 09 14 25 29 .60    -196   -141    -13    242    243 234.3  -3.3  34196  290.19 0861.87
2015 04 09 14 25 29 .85    -227    -66    -34    237    240 253.6  -8.3  34170  289.75 0861.87
2015 04 09 14 25 30 .10    -253    -72    -43    264    268 254.1  -9.4  34176  289.83 0861.87
2015 04 09 14 25 30 .36    -246    -70    -43    256    260 254.1  -9.6  34194  290.15 0861.87
2015 04 09 14 25 30 .60    -260    -46    -44    265    269 259.9  -9.6  34236  290.85 0861.87
2015 04 09 14 25 30 .85    -252    -17    -41    253    257 266.1  -9.4  34236  290.85 0861.87
2015 04 09 14 25 31 .11    -229    -32    -31    232    235 261.9  -7.7  34236  290.87 0861.87
2015 04 09 14 25 31 .36    -182    -78    -49    199    206 246.7 -13.9  34278  291.59 0861.87
2015 04 09 14 25 31 .61     -77    -28     -3     83     84 249.6  -2.2  34264  291.33 0861.87
2015 04 09 14 25 31 .86     -32      1      6     33     34 272.6  11.1  34272  291.47 0861.87
2015 04 09 14 25 32 .11     -16    -16      2     23     24 225.0   4.9  34278  291.57 0861.87
2015 04 09 14 25 32 .36    -301     -8    -26    302    304 268.3  -5.1  34092  288.43 0861.87
2015 04 09 14 25 32 .61    -408     31    -96    410    422 274.5 -13.3  34084  288.29 0861.87
2015 04 09 14 25 32 .86    -402      7    -93    403    414 271.0 -13.1  34082  288.26 0861.87
2015 04 09 14 25 33 .11    -362     16    -62    363    369 272.6  -9.8  34130  289.06 0861.87
2015 04 09 14 25 33 .36    -302    -13    -52    303    308 267.4  -9.8  34138  289.20 0861.87
2015 04 09 14 25 33 .61    -267     31    -19    269    270 276.8  -4.1  34144  289.31 0861.87
2015 04 09 14 25 33 .86    -322    -21    -82    323    334 266.1 -14.3  34136  289.16 0861.87
2015 04 09 14 25 34 .11    -282    -32    -62    284    291 263.4 -12.4  34136  289.17 0861.87
2015 04 09 14 25 34 .36    -305    119    -43    328    331 291.4  -7.6  34152  289.43 0861.87
2015 04 09 14 25 34 .61    -251     50    -10    257    258 281.4  -2.2  34130  289.05 0861.87
2015 04 09 14 25 34 .86    -334     89    -81    346    356 285.1 -13.3  34110  288.71 0861.87
2015 04 09 14 25 35 .11    -317     60    -40    323    326 280.7  -7.2  34068  288.00 0861.87
2015 04 09 14 25 35 .37    -374     11    -89    375    386 271.8 -13.4  34054  287.79 0861.87
2015 04 09 14 25 35 .63    -402     74    -83    409    418 280.5 -11.5  34036  287.46 0861.87
2015 04 09 14 25 35 .88    -358     43    -47    361    365 276.9  -7.5  34054  287.79 0861.87
2015 04 09 14 25 36 .13    -354     26    -50    355    359 274.3  -8.1  34060  287.89 0861.87
2015 04 09 14 25 36 .38    -383    -36    -82    385    394 264.5 -12.2  34088  288.35 0861.87
2015 04 09 14 25 36 .63    -262     52    -63    268    276 281.2 -13.3  34102  288.59 0861.87
2015 04 09 14 25 36 .88    -331     15    -70    332    340 272.7 -11.9  34090  288.38 0861.87
2015 04 09 14 25 37 .13    -362    -26    -74    363    371 265.9 -11.6  34090  288.38 0861.87
2015 04 09 14 25 37 .38    -369    -26    -86    370    380 265.9 -13.1  34086  288.33 0861.87
2015 04 09 14 25 37 .63    -321    -31    -86    323    335 264.3 -15.0  34094  288.45 0861.87
2015 04 09 14 25 37 .88    -372      0    -61    373    379 269.9  -9.4  34072  288.08 0861.87
2015 04 09 14 25 38 .13    -333     15    -64    334    341 272.6 -10.9  34096  288.49 0861.87
2015 04 09 14 25 38 .38    -337    -56    -93    342    355 260.5 -15.2  34076  288.15 0861.87
2015 04 09 14 25 38 .63    -390    -55    -95    395    407 261.9 -13.6  34060  287.89 0861.87
2015 04 09 14 25 38 .88    -372    -26    -88    373    384 265.9 -13.3  34052  287.74 0861.87
2015 04 09 14 25 39 .13    -361    -22    -90    362    374 266.4 -14.1  34052  287.76 0861.87
2015 04 09 14 25 39 .39    -356    -53    -86    360    371 261.5 -13.4  34050  287.71 0861.87
2015 04 09 14 25 39 .64    -354    -39    -84    357    367 263.6 -13.3  34048  287.69 0861.87
2015 04 09 14 25 39 .89    -383     -5    -95    384    396 269.1 -13.9  34052  287.74 0861.87
2015 04 09 14 25 40 .14    -328     24    -18    329    330 274.3  -3.2  34064  287.94 0861.87
2015 04 09 14 25 40 .39    -403      0    -73    404    411 270.0 -10.3  34066  287.99 0861.87
2015 04 09 14 25 40 .64    -362    -56    -74    367    375 261.1 -11.5  34060  287.89 0861.87
2015 04 09 14 25 40 .89    -360    -35    -92    362    374 264.4 -14.3  34050  287.71 0861.87
2015 04 09 14 25 41 .14    -389     10    -79    390    399 271.6 -11.6  34110  288.72 0861.87
2015 04 09 14 25 41 .39    -375     28    -88    376    387 274.3 -13.3  34086  288.32 0861.87
2015 04 09 14 25 41 .64    -371    -31    -71    373    380 265.1 -10.8  34050  287.72 0861.87
2015 04 09 14 25 41 .89    -372    -48    -89    376    387 262.5 -13.4  34054  287.79 0861.87
2015 04 09 14 25 42 .14    -383     -9    -65    384    390 268.5  -9.7  34058  287.84 0861.87
2015 04 09 14 25 42 .40    -380     -5    -55    381    386 269.1  -8.2  34100  288.54 0861.86
2015 04 09 14 25 42 .65    -377     11    -52    378    382 271.8  -7.9  34128  289.03 0861.86
2015 04 09 14 25 42 .90    -357    -25    -70    358    365 265.9 -11.1  34080  288.22 0861.86
2015 04 09 14 25 43 .16    -337     11    -93    338    351 271.9 -15.4  34098  288.52 0861.86
2015 04 09 14 25 43 .40    -290    -13    -35    291    294 267.4  -6.9  34108  288.70 0861.86
2015 04 09 14 25 43 .66    -336   -119    -76    357    366 250.4 -12.0  34080  288.23 0861.86
2015 04 09 14 25 43 .90    -372   -109    -77    388    396 253.6 -11.3  34064  287.94 0861.86
2015 04 09 14 25 44 .16    -370    -84    -76    380    388 257.1 -11.3  34052  287.74 0861.87
2015 04 09 14 25 44 .41    -355    -29   -107    357    373 265.3 -16.7  34092  288.42 0861.87
2015 04 09 14 25 44 .66    -312    -63    -61    319    325 258.6 -10.8  34132  289.09 0861.87
2015 04 09 14 25 44 .91    -327    -95    -61    341    347 253.8 -10.2  34090  288.40 0861.87
2015 04 09 14 25 45 .16    -348   -110    -60    366    371 252.4  -9.4  34048  287.69 0861.87
2015 04 09 14 25 45 .41    -359   -120    -75    379    387 251.5 -11.2  34044  287.61 0861.87
2015 04 09 14 25 45 .66    -343    -97    -64    357    363 254.2 -10.3  34048  287.67 0861.87
2015 04 09 14 25 45 .91    -386    -88    -65    396    402 257.1  -9.3  34094  288.47 0861.87
2015 04 09 14 25 46 .16    -387   -115    -74    404    411 253.4 -10.4  34120  288.90 0861.86
2015 04 09 14 25 46 .41    -384   -113    -51    401    405 253.6  -7.3  34122  288.92 0861.86
2015 04 09 14 25 46 .66    -381   -160    -47    414    417 247.2  -6.6  34124  288.97 0861.86
2015 04 09 14 25 46 .91    -381   -166    -60    416    421 246.5  -8.2  34136  289.16 0861.86
2015 04 09 14 25 47 .16    -370   -146    -53    399    403 248.4  -7.6  34132  289.11 0861.86
2015 04 09 14 25 47 .42    -370   -113    -75    388    396 252.9 -11.0  34104  288.62 0861.86
2015 04 09 14 25 47 .66    -367   -110    -41    384    387 253.3  -6.2  34100  288.54 0861.86
2015 04 09 14 25 47 .92    -333   -155    -58    368    373 245.0  -9.0  34090  288.40 0861.86
2015 04 09 14 25 48 .16    -374   -125    -59    395    400 251.4  -8.6  34048  287.66 0861.86
2015 04 09 14 25 48 .42    -384   -127    -73    405    412 251.7 -10.2  34038  287.50 0861.86
2015 04 09 14 25 48 .67    -348   -118    -68    368    375 251.2 -10.5  34052  287.76 0861.86
2015 04 09 14 25 48 .91    -362   -124    -69    383    390 251.0 -10.3  34036  287.49 0861.86
2015 04 09 14 25 49 .16    -367    -89    -79    378    387 256.3 -11.9  34060  287.89 0861.86
2015 04 09 14 25 49 .43    -383    -77    -82    391    400 258.6 -11.9  34084  288.30 0861.86
2015 04 09 14 25 49 .68    -333    -75    -62    342    348 257.3 -10.4  34084  288.28 0861.86
2015 04 09 14 25 49 .93    -353   -124    -73    375    383 250.6 -11.1  34068  288.03 0861.86
2015 04 09 14 25 50 .18    -368    -74    -89    376    387 258.5 -13.4  34074  288.10 0861.86
2015 04 09 14 25 50 .43    -358    -46    -79    362    371 262.6 -12.4  34076  288.16 0861.86
2015 04 09 14 25 50 .68    -307    -23    -55    308    314 265.7 -10.2  34082  288.24 0861.86
2015 04 09 14 25 50 .93    -291     -9    -52    292    297 268.1 -10.3  34082  288.26 0861.86
2015 04 09 14 25 51 .18    -173     15    -32    174    177 275.2 -10.5  34090  288.40 0861.86
2015 04 09 14 25 51 .43    -318     -4    -63    319    326 269.1 -11.2  34082  288.26 0861.86
2015 04 09 14 25 51 .68    -344     39    -67    347    354 276.6 -11.0  34096  288.50 0861.86
2015 04 09 14 25 51 .93    -376     28   -107    377    391 274.3 -20.5  34058  287.84 0861.86
2015 04 09 14 25 52 .18    -376      6   -104    377    392 271.0 -15.5  34084  288.28 0861.86
2015 04 09 14 25 52 .43    -373     -5    -92    374    386 269.1 -13.8  34084  288.30 0861.85
2015 04 09 14 25 52 .68    -348    -16    -72    349    357 267.3 -11.8  34084  288.27 0861.85
2015 04 09 14 25 52 .94    -235      4    -42    236    240 271.0 -10.3  34090  288.37 0861.85
2015 04 09 14 25 53 .19    -185    -29    -25    188    190 261.0  -7.7  34110  288.72 0861.85
2015 04 09 14 25 53 .44    -261     -2    -57    262    269 269.4 -12.4  34100  288.54 0861.85
2015 04 09 14 25 53 .69    -276    -24    -56    278    284 265.0 -11.6  34074  288.12 0861.85
2015 04 09 14 25 53 .94    -277      0    -54    278    284 270.0 -11.1  34086  288.32 0861.85
2015 04 09 14 25 54 .19    -267    -54    -69    273    282 258.5 -14.3  34078  288.17 0861.85
2015 04 09 14 25 54 .44    -288    -35    -78    291    302 263.0 -15.0  34082  288.26 0861.85
2015 04 09 14 25 54 .69    -242     18    -59    243    251 274.4 -13.7  34094  288.44 0861.85
2015 04 09 14 25 54 .94    -291    -38    -75    294    304 262.5 -14.3  34066  287.97 0861.85
2015 04 09 14 25 55 .19    -269    -61    -50    276    281 257.2 -10.4  34092  288.41 0861.85
2015 04 09 14 25 55 .44    -242    -33    -31    245    248 262.1  -7.3  34102  288.59 0861.85
2015 04 09 14 25 55 .69    -234    -47    -30    239    241 258.5  -7.2  34108  288.68 0861.85
2015 04 09 14 25 55 .94    -306   -102    -59    323    329 251.6 -10.4  34102  288.58 0861.85
2015 04 09 14 25 56 .21    -298    -85    -60    311    317 254.0 -11.0  34128  289.03 0861.85
2015 04 09 14 25 56 .45    -252    -77    -57    264    271 252.9 -12.2  34170  289.75 0861.85
2015 04 09 14 25 56 .71    -322   -114    -47    342    346 250.4  -7.9  34116  288.81 0861.85
2015 04 09 14 25 56 .95    -378   -110    -60    394    399 253.7  -8.7  34140  289.23 0861.85
2015 04 09 14 25 57 .21    -356    -90    -60    368    373 255.7  -9.3  34152  289.45 0861.85
2015 04 09 14 25 57 .46    -346   -107    -65    363    369 252.7 -10.3  34164  289.65 0861.85
2015 04 09 14 25 57 .71    -387   -102    -78    401    409 255.2 -11.1  34160  289.56 0861.85
2015 04 09 14 25 57 .96    -357   -103    -72    372    379 253.9 -11.0  34174  289.82 0861.85
2015 04 09 14 25 58 .21    -335    -40    -53    338    343 263.1  -8.9  34204  290.32 0861.85
2015 04 09 14 25 58 .46    -290    -87    -38    303    306 253.2  -7.2  34164  289.64 0861.85
2015 04 09 14 25 58 .71    -245    -85    -32    260    263 250.7  -7.2  34186  290.02 0861.85
2015 04 09 14 25 58 .96    -335   -113    -58    354    359 251.3  -9.4  34162  289.59 0861.85
2015 04 09 14 25 59 .21    -307   -119    -60    330    336 248.7 -10.4  34160  289.57 0861.85
2015 04 09 14 25 59 .46    -263    -78    -55    275    281 253.4 -11.5  34180  289.92 0861.85
2015 04 09 14 25 59 .71    -277    -53    -62    283    290 259.0 -12.4  34126  289.00 0861.85
2015 04 09 14 25 59 .96    -246   -164    -19    296    297 236.3  -3.7  34182  289.93 0861.85
2015 04 09 14 26 00 .21    -216   -187    -20    286    287 229.1  -4.1  34246  291.02 0861.85
2015 04 09 14 26 00 .46    -252   -176    -68    308    316 235.0 -12.5  34284  291.67 0861.85
2015 04 09 14 26 00 .72    -312   -148    -36    346    348 244.5  -6.0  34270  291.44 0861.85
2015 04 09 14 26 00 .96    -321   -143    -24    352    353 245.9  -4.0  34230  290.76 0861.85
2015 04 09 14 26 01 .21    -292   -239     -8    378    379 230.8  -1.3  34156  289.52 0861.85
2015 04 09 14 26 01 .47    -275   -190    -43    335    338 235.4  -7.5  34242  290.96 0861.85
2015 04 09 14 26 01 .71    -274   -258     -8    377    378 226.8  -1.3  34192  290.10 0861.85
2015 04 09 14 26 01 .97    -262   -261     44    370    373 225.1   6.9  34188  290.03 0861.85
2015 04 09 14 26 02 .22    -222   -150    -28    269    271 235.9  -6.1  34228  290.71 0861.84
2015 04 09 14 26 02 .47    -229   -202    -19    306    307 228.6  -3.7  34258  291.24 0861.84
2015 04 09 14 26 02 .72    -232   -138    -24    271    273 239.3  -5.2  34278  291.56 0861.84
2015 04 09 14 26 02 .97    -285   -181    -59    338    344 237.6  -9.9  34218  290.57 0861.84
2015 04 09 14 26 03 .23    -227   -149    -30    272    274 236.7  -6.5  34220  290.58 0861.84
2015 04 09 14 26 03 .48    -180   -134    -25    225    227 233.4  -6.5  34220  290.58 0861.84
2015 04 09 14 26 03 .73    -282   -145    -40    318    321 242.7  -7.2  34248  291.05 0861.84
2015 04 09 14 26 03 .99    -315   -197    -53    372    376 238.0  -8.2  34142  289.26 0861.85
2015 04 09 14 26 04 .23    -365   -173    -48    404    407 244.6  -6.8  34192  290.11 0861.85
2015 04 09 14 26 04 .48    -318   -113    -61    338    344 250.3 -10.2  34244  291.01 0861.85
2015 04 09 14 26 04 .73    -368    -27    -84    369    379 265.7 -12.9  34292  291.81 0861.85
2015 04 09 14 26 04 .98    -237    -38    -62    241    249 260.8 -14.5  34266  291.36 0861.84
2015 04 09 14 26 05 .23    -279    -61    -89    286    300 257.6 -17.3  34182  289.93 0861.84
2015 04 09 14 26 05 .48    -157    -53    -35    166    170 251.2 -11.9  34206  290.36 0861.84
2015 04 09 14 26 05 .73    -289   -159    -39    330    333 241.2  -6.8  34182  289.93 0861.84
2015 04 09 14 26 05 .98    -232   -100    -68    253    263 246.5 -15.2  34306  292.04 0861.84
2015 04 09 14 26 06 .23    -357   -127    -58    380    385 250.4  -8.7  34198  290.23 0861.84
2015 04 09 14 26 06 .48    -313    -54    -25    318    320 260.1  -4.6  34106  288.66 0861.84
2015 04 09 14 26 06 .74    -356    -72    -77    364    373 258.5 -12.0  34058  287.83 0861.84
2015 04 09 14 26 06 .99    -391    -91    -85    402    412 256.8 -12.0  34036  287.48 0861.84
2015 04 09 14 26 07 .24    -357   -103    -53    372    376 253.9  -8.1  34086  288.32 0861.84
2015 04 09 14 26 07 .49    -365   -133    -90    389    400 250.0 -13.1  34028  287.34 0861.84
2015 04 09 14 26 07 .74    -363   -132    -69    387    394 249.9 -10.1  34022  287.23 0861.84
2015 04 09 14 26 07 .99    -339   -124    -66    362    368 249.8 -10.4  34032  287.42 0861.84
2015 04 09 14 26 08 .24    -333   -121    -72    355    363 249.9 -11.5  34026  287.29 0861.84
2015 04 09 14 26 08 .49    -334   -120    -57    356    361 250.2  -9.1  34026  287.29 0861.84
2015 04 09 14 26 08 .74    -330   -109    -60    348    354 251.6  -9.9  34022  287.23 0861.84
2015 04 09 14 26 08 .99    -332   -131    -59    358    363 248.4  -9.4  34020  287.20 0861.84
2015 04 09 14 26 09 .24    -323   -136    -61    351    357 247.2  -9.9  34022  287.22 0861.84
2015 04 09 14 26 09 .49    -334   -136    -48    361    365 247.8  -7.7  34026  287.30 0861.84
2015 04 09 14 26 09 .75    -355   -188    -50    402    406 242.0  -7.2  34088  288.36 0861.84
2015 04 09 14 26 09 .99    -352   -171    -50    392    396 244.1  -7.4  34060  287.89 0861.84
2015 04 09 14 26 10 .26    -324   -165    -47    364    368 243.0  -7.5  34048  287.67 0861.84
2015 04 09 14 26 10 .51    -329   -188    -48    380    384 240.3  -7.2  34104  288.64 0861.84
2015 04 09 14 26 10 .76    -384   -211    -48    439    442 241.2  -6.3  34116  288.82 0861.84
2015 04 09 14 26 11 .01    -392   -125    -64    412    418 252.3  -8.9  34098  288.53 0861.84
2015 04 09 14 26 11 .26    -402   -183    -55    442    446 245.5  -7.2  34124  288.97 0861.84
2015 04 09 14 26 11 .51    -432   -247    -50    498    501 240.2  -5.8  34188  290.06 0861.84
2015 04 09 14 26 11 .76    -460   -137    -81    481    488 253.4  -9.6  34182  289.96 0861.84
2015 04 09 14 26 12 .01    -447    -56    -94    451    461 262.8 -11.9  34198  290.22 0861.84
2015 04 09 14 26 12 .26    -130    -43     20    138    140 251.4   8.5  34196  290.19 0861.84
2015 04 09 14 26 12 .51    -271   -138    -44    305    309 243.0  -8.2  34188  290.03 0861.84
2015 04 09 14 26 12 .76    -318    -73    -59    327    333 257.0 -10.4  34102  288.60 0861.84
2015 04 09 14 26 13 .01    -437    -74   -127    444    462 260.3 -16.0  34102  288.58 0861.85
2015 04 09 14 26 13 .26    -387   -128    -64    408    414 251.7  -9.0  34136  289.17 0861.85
2015 04 09 14 26 13 .51    -466    -68    -99    472    483 261.7 -11.9  34102  288.59 0861.85
2015 04 09 14 26 13 .76    -383    -94    -71    395    402 256.1 -10.2  34168  289.72 0861.85
2015 04 09 14 26 14 .02    -387    -45    -95    390    402 263.3 -13.7  34120  288.91 0861.85
2015 04 09 14 26 14 .26    -438   -171    -60    471    475 248.7  -7.3  34062  287.91 0861.85
2015 04 09 14 26 14 .51    -387   -107    -97    402    414 254.4 -13.6  34046  287.65 0861.85
2015 04 09 14 26 14 .76    -380    -60   -103    385    399 260.9 -15.0  34032  287.39 0861.84
2015 04 09 14 26 15 .02    -349    -80    -96    359    372 257.0 -15.1  34036  287.47 0861.84
2015 04 09 14 26 15 .27    -337    -48    -58    341    346 261.9  -9.7  34052  287.74 0861.84
2015 04 09 14 26 15 .52    -348   -197    -58    400    405 240.5  -8.3  34048  287.67 0861.84
2015 04 09 14 26 15 .77    -408   -186    -53    449    453 245.4  -6.8  34034  287.43 0861.84
2015 04 09 14 26 16 .02    -399   -203    -63    448    453 243.0  -8.1  34036  287.48 0861.84
2015 04 09 14 26 16 .27    -411   -195    -54    455    459 244.6  -6.9  34022  287.23 0861.84
2015 04 09 14 26 16 .52    -401   -182    -80    441    449 245.6 -10.4  34022  287.24 0861.84
2015 04 09 14 26 16 .77    -380   -136    -92    404    415 250.3 -12.9  34024  287.26 0861.84
2015 04 09 14 26 17 .02    -346   -107    -86    363    374 252.7 -13.4  34032  287.39 0861.84
2015 04 09 14 26 17 .28    -386   -151    -75    415    422 248.6 -10.3  34028  287.35 0861.84
2015 04 09 14 26 17 .53    -390   -122    -73    409    416 252.6 -10.1  34030  287.38 0861.83
2015 04 09 14 26 17 .78    -385    -78    -78    394    402 258.4 -11.3  34034  287.45 0861.83
2015 04 09 14 26 18 .03    -359    -92    -73    371    379 255.5 -11.2  34032  287.39 0861.83
2015 04 09 14 26 18 .28    -361   -158    -57    395    400 246.3  -8.2  34020  287.20 0861.83
2015 04 09 14 26 18 .53    -369   -122    -60    389    394 251.6  -8.8  34022  287.25 0861.83
2015 04 09 14 26 18 .79    -394   -165    -70    428    434 247.3  -9.3  34034  287.45 0861.83
2015 04 09 14 26 19 .03    -385   -197    -44    433    436 242.9  -5.9  34036  287.46 0861.83
2015 04 09 14 26 19 .29    -403   -192    -53    447    451 244.5  -6.9  34018  287.18 0861.83
2015 04 09 14 26 19 .53    -389   -167    -66    424    430 246.8  -8.9  34016  287.14 0861.83
2015 04 09 14 26 19 .79    -357   -205    -47    412    415 240.1  -6.6  34024  287.26 0861.83
2015 04 09 14 26 20 .04    -339   -196    -41    392    395 239.9  -6.1  34046  287.64 0861.83
2015 04 09 14 26 20 .29    -391   -175    -50    429    432 245.8  -6.7  34022  287.24 0861.83
2015 04 09 14 26 20 .54    -365   -171    -45    404    407 244.9  -6.5  34026  287.30 0861.83
2015 04 09 14 26 20 .79    -360   -169    -47    398    401 244.8  -6.8  34020  287.20 0861.83
2015 04 09 14 26 21 .04    -339   -178    -32    383    385 242.3  -4.9  34022  287.23 0861.83
2015 04 09 14 26 21 .29    -328   -182    -26    376    377 240.9  -4.0  34026  287.29 0861.83
2015 04 09 14 26 21 .54    -311   -182    -34    361    363 239.7  -5.5  34032  287.42 0861.83
2015 04 09 14 26 21 .79    -316   -190    -14    369    370 239.0  -2.2  34060  287.89 0861.83
2015 04 09 14 26 22 .04    -308   -195    -24    365    366 237.6  -3.9  34036  287.47 0861.83
2015 04 09 14 26 22 .29    -303   -193    -26    360    361 237.4  -4.2  34028  287.34 0861.83
2015 04 09 14 26 22 .55    -287   -175    -23    337    338 238.7  -4.0  34036  287.47 0861.83
2015 04 09 14 26 22 .79    -278   -159    -21    321    322 240.3  -3.9  34026  287.31 0861.83
2015 04 09 14 26 23 .04    -284   -152    -27    323    325 241.8  -4.9  34026  287.29 0861.82
2015 04 09 14 26 23 .29    -260   -165    -28    308    310 237.6  -5.2  34022  287.24 0861.82
2015 04 09 14 26 23 .54    -247   -168    -25    299    301 235.8  -4.9  34036  287.48 0861.82
2015 04 09 14 26 23 .80    -278   -153    -38    318    321 241.2  -6.9  34054  287.77 0861.82
2015 04 09 14 26 24 .06    -207    -59    -29    216    218 254.1  -7.7  34070  288.06 0861.82
2015 04 09 14 26 24 .31    -221    -12    -30    222    225 266.7  -7.7  34108  288.69 0861.82
2015 04 09 14 26 24 .56    -163    -46     24    170    172 254.1   8.2  34086  288.33 0861.82
2015 04 09 14 26 24 .81    -214    -53    -63    221    230 256.1 -16.0  34072  288.08 0861.82
2015 04 09 14 26 25 .06    -205    -68    -27    217    219 251.6  -7.2  34074  288.11 0861.82
2015 04 09 14 26 25 .31    -309      4    -57    310    316 270.8 -10.5  34066  287.99 0861.82
2015 04 09 14 26 25 .56    -353    -74    -61    361    367 258.1  -9.6  34100  288.55 0861.82
2015 04 09 14 26 25 .81    -255     -8    -60    256    263 268.1 -13.3  34110  288.73 0861.82
2015 04 09 14 26 26 .07    -354     61    -69    360    367 279.9 -11.0  34092  288.42 0861.82
2015 04 09 14 26 26 .31    -319     56    -41    324    327 280.0  -7.3  34104  288.63 0861.82
2015 04 09 14 26 26 .56    -332     32    -22    334    335 275.6  -3.9  34100  288.54 0861.82
2015 04 09 14 26 26 .81    -284     59    -61    291    298 281.9 -11.9  34122  288.93 0861.82
2015 04 09 14 26 27 .06    -150    -34     -6    154    155 257.2  -2.2  34138  289.19 0861.82
2015 04 09 14 26 27 .32    -256    -40    -52    260    266 261.0 -11.5  34160  289.56 0861.82
2015 04 09 14 26 27 .56    -125     60      2    139    140 295.8   1.2  34192  290.11 0861.82
2015 04 09 14 26 27 .81    -327     25    -66    328    335 274.4 -11.5  34114  288.79 0861.82
2015 04 09 14 26 28 .06    -428     39   -100    431    443 275.3 -13.2  34052  287.73 0861.82
2015 04 09 14 26 28 .32    -471     35    -99    473    484 274.3 -11.9  34040  287.54 0861.83
2015 04 09 14 26 28 .57    -457     37    -83    459    467 274.7 -10.3  34056  287.82 0861.83
2015 04 09 14 26 28 .82    -396     59    -72    401    408 278.6 -10.2  34060  287.87 0861.83
2015 04 09 14 26 29 .07    -147      2      2    148    149 270.8   0.8  34090  288.40 0861.83
2015 04 09 14 26 29 .32    -101     40      4    109    110 291.7   2.3  34106  288.67 0861.83
2015 04 09 14 26 29 .57    -387     -5    -92    388    399 269.2 -13.4  34076  288.15 0861.83
2015 04 09 14 26 29 .82    -472     24   -131    473    491 273.0 -15.5  34014  287.09 0861.83
2015 04 09 14 26 30 .07    -463     18    -90    464    473 272.3 -11.0  34032  287.42 0861.83
2015 04 09 14 26 30 .32    -386      6    -85    387    397 270.9 -12.5  34032  287.39 0861.83
2015 04 09 14 26 30 .57    -246     31    -49    248    253 277.2 -11.3  34062  287.90 0861.83
2015 04 09 14 26 30 .82    -362     -2   -100    363    377 269.6 -15.4  34018  287.17 0861.83
2015 04 09 14 26 31 .08    -260     19    -10    261    262 274.4  -2.2  34034  287.44 0861.83
2015 04 09 14 26 31 .33    -348     26    -71    349    357 274.3 -11.6  34034  287.45 0861.83
2015 04 09 14 26 31 .58    -319     25    -50    321    326 274.6  -9.0  34038  287.50 0861.83
2015 04 09 14 26 31 .83    -251     48    -32    256    259 281.0  -7.2  34034  287.44 0861.83
2015 04 09 14 26 32 .08    -400     46    -80    403    412 276.6 -11.3  34022  287.23 0861.83
2015 04 09 14 26 32 .34    -401     54    -73    405    412 277.8 -10.2  34020  287.19 0861.83
2015 04 09 14 26 32 .59    -396     71    -74    403    410 280.3 -10.5  34014  287.11 0861.83
2015 04 09 14 26 32 .84    -343     43    -41    346    349 277.2  -6.8  34022  287.23 0861.83
2015 04 09 14 26 33 .09    -385     78    -50    393    397 281.5  -7.4  34018  287.18 0861.83
2015 04 09 14 26 33 .34    -395     73    -66    402    408 280.6  -9.3  34014  287.11 0861.83
2015 04 09 14 26 33 .59    -383     77    -79    391    399 281.4 -11.5  34012  287.08 0861.83
2015 04 09 14 26 33 .84    -343     87    -49    355    359 284.3  -7.9  34016  287.12 0861.83
2015 04 09 14 26 34 .09    -366     74    -64    374    380 281.5  -9.7  34014  287.10 0861.83
2015 04 09 14 26 34 .34    -369     90    -64    380    386 283.8  -9.6  34016  287.13 0861.83
2015 04 09 14 26 34 .59    -330     43    -52    333    338 277.5  -8.9  34016  287.15 0861.83
2015 04 09 14 26 34 .84    -352     72    -71    360    368 281.7 -11.2  34016  287.13 0861.83
2015 04 09 14 26 35 .09    -317     14    -49    318    322 272.6  -8.8  34018  287.16 0861.83
2015 04 09 14 26 35 .34    -303     60    -72    309    318 281.2 -13.2  34020  287.19 0861.83
2015 04 09 14 26 35 .59    -255     36    -38    258    261 278.1  -8.6  34022  287.24 0861.83
2015 04 09 14 26 35 .84    -261     -3    -51    262    268 269.2 -11.1  34020  287.19 0861.83
2015 04 09 14 26 36 .09    -245     45    -36    250    253 280.4  -8.3  34026  287.31 0861.83
2015 04 09 14 26 36 .35    -263     23    -38    265    268 275.2  -8.3  34028  287.34 0861.84
2015 04 09 14 26 36 .60    -298     87    -37    311    314 286.4  -6.8  34036  287.46 0861.84
2015 04 09 14 26 36 .84    -326     76    -28    335    337 283.3  -4.8  34042  287.57 0861.84
2015 04 09 14 26 37 .10    -334     72    -57    342    347 282.2  -9.5  34084  288.30 0861.84
2015 04 09 14 26 37 .35    -271     83    -35    284    287 287.1  -7.2  34122  288.92 0861.84
2015 04 09 14 26 37 .60    -239     53    -19    245    246 282.6  -4.6  34120  288.90 0861.84
2015 04 09 14 26 37 .84    -294     62    -60    301    307 281.9 -11.3  34028  287.33 0861.84
2015 04 09 14 26 38 .11    -303     86    -62    316    323 285.9 -11.2  34016  287.14 0861.84
2015 04 09 14 26 38 .35    -307     80    -67    318    326 284.6 -11.9  34014  287.09 0861.84
2015 04 09 14 26 38 .61    -288     67    -51    296    301 283.2  -9.8  34022  287.24 0861.84
2015 04 09 14 26 38 .86    -279     44    -48    283    288 279.0  -9.8  34014  287.11 0861.84
2015 04 09 14 26 39 .11    -305     56    -45    311    315 280.5  -8.4  34016  287.14 0861.84
2015 04 09 14 26 39 .36    -309     53    -81    314    325 279.9 -14.5  34012  287.06 0861.84
2015 04 09 14 26 39 .61    -297     74    -55    307    312 284.1 -10.3  34014  287.11 0861.84
2015 04 09 14 26 39 .86    -306     71    -48    315    319 283.2  -8.7  34016  287.14 0861.84
2015 04 09 14 26 40 .11    -261     61    -60    269    276 283.3 -12.6  34012  287.07 0861.84
2015 04 09 14 26 40 .36    -256     63    -63    264    272 283.9 -13.4  34012  287.06 0861.84
2015 04 09 14 26 40 .62    -257     60    -63    264    272 283.2 -13.4  34018  287.17 0861.84
2015 04 09 14 26 40 .87    -227     27    -32    229    232 277.0  -8.0  34054  287.77 0861.84
2015 04 09 14 26 41 .11    -215     35    -43    218    223 279.5 -11.3  34018  287.18 0861.84
2015 04 09 14 26 41 .36    -211     43    -38    216    220 281.7 -10.1  34012  287.06 0861.84
2015 04 09 14 26 41 .62    -205     43    -41    210    215 281.9 -11.1  34014  287.10 0861.84
2015 04 09 14 26 41 .87    -193     55    -31    201    204 285.9  -9.0  34016  287.15 0861.84
2015 04 09 14 26 42 .12    -180     41    -15    185    186 283.0  -4.9  34020  287.20 0861.84
2015 04 09 14 26 42 .37    -198     52    -29    205    208 284.8  -8.2  34016  287.15 0861.84
2015 04 09 14 26 42 .62    -190     66    -26    202    204 289.3  -7.5  34012  287.06 0861.84
2015 04 09 14 26 42 .87    -203     72    -27    216    218 289.7  -7.2  34054  287.79 0861.84
2015 04 09 14 26 43 .12    -177     49    -10    184    185 285.5  -3.1  34072  288.09 0861.84
2015 04 09 14 26 43 .37    -166     31    -14    169    170 280.8  -4.9  34092  288.43 0861.84
2015 04 09 14 26 43 .62    -112     34     -4    118    119 286.8  -2.2  34092  288.43 0861.84
2015 04 09 14 26 43 .87    -125    -16    -44    127    135 262.5 -19.1  34096  288.48 0861.84
2015 04 09 14 26 44 .12     -59      0      8     60     61 269.2   8.0  34092  288.42 0861.84
2015 04 09 14 26 44 .37     -44     44    -12     63     65 315.0 -11.3  34118  288.87 0861.84
2015 04 09 14 26 44 .62    -147     64    -23    161    163 293.5  -8.2  34118  288.86 0861.85
2015 04 09 14 26 44 .89     -92     24     -2     96     97 285.1  -1.3  34132  289.09 0861.85
2015 04 09 14 26 45 .14     -86     -7     -1     87     88 264.8  -1.3  34140  289.24 0861.85
2015 04 09 14 26 45 .38     -18    -28     -6     34     35 212.5 -11.3  34148  289.36 0861.85
2015 04 09 14 26 45 .63     -26      5     -5     27     28 281.5 -11.3  34146  289.35 0861.85
2015 04 09 14 26 45 .89    -132     47    -31    141    145 289.9 -12.4  34132  289.09 0861.85
2015 04 09 14 26 46 .13    -100      6      5    101    102 273.5   2.9  34136  289.18 0861.85
2015 04 09 14 26 46 .39    -138     -1    -10    139    140 269.2  -4.1  34096  288.50 0861.84
2015 04 09 14 26 46 .64    -144     37    -19    149    151 284.6  -7.3  34078  288.18 0861.84
2015 04 09 14 26 46 .89     -40     34     24     53     58 310.4  26.2  34094  288.47 0861.84
2015 04 09 14 26 47 .14     -76     16    -27     78     83 281.9 -19.1  34086  288.33 0861.84
2015 04 09 14 26 47 .39    -113     52      6    125    126 294.8   2.9  34098  288.53 0861.84
2015 04 09 14 26 47 .64    -160     53      0    169    170 288.6   0.0  34076  288.14 0861.84
2015 04 09 14 26 47 .89    -211     32    -27    214    216 278.8  -7.3  34040  287.54 0861.84
2015 04 09 14 26 48 .14    -222     39    -62    226    235 280.1 -15.5  34022  287.23 0861.84
2015 04 09 14 26 48 .39    -230      9    -33    231    234 272.4  -8.2  34078  288.18 0861.84
2015 04 09 14 26 48 .64    -121    -12    -15    122    123 263.9  -7.3  34088  288.35 0861.84
2015 04 09 14 26 48 .89     -89     76      1    118    119 310.4   0.7  34094  288.47 0861.84
2015 04 09 14 26 49 .14    -216    128    -13    252    253 300.7  -3.1  34074  288.12 0861.84
2015 04 09 14 26 49 .39    -214     80     11    229    230 290.6   2.9  34090  288.40 0861.84
2015 04 09 14 26 49 .64    -263     36    -71    266    276 277.9 -15.0  34088  288.36 0861.84
2015 04 09 14 26 49 .89     -30      4     49     31     57 277.9  64.7  34082  288.26 0861.84
2015 04 09 14 26 50 .15    -230    151    -50    276    281 303.3 -10.4  34086  288.31 0861.84
2015 04 09 14 26 50 .40    -286    108    -53    306    311 290.8  -9.9  34096  288.48 0861.84
2015 04 09 14 26 50 .65    -348    121    -75    369    377 289.2 -11.6  34082  288.25 0861.84
2015 04 09 14 26 50 .90    -335    123    -46    357    360 290.2  -7.4  34072  288.08 0861.84
2015 04 09 14 26 51 .15    -327    131    -83    353    363 291.9 -13.3  34068  288.03 0861.84
2015 04 09 14 26 51 .40    -327    143    -94    358    371 293.7 -14.7  34052  287.76 0861.84
2015 04 09 14 26 51 .65    -245    183    -52    307    312 306.8  -9.6  34066  287.99 0861.84
2015 04 09 14 26 51 .91    -295    202    -68    358    365 304.4 -10.8  34072  288.08 0861.84
2015 04 09 14 26 52 .16    -262    123    -52    290    295 295.2 -10.3  34060  287.88 0861.84
2015 04 09 14 26 52 .41    -354     92    -37    366    368 284.6  -5.9  34074  288.13 0861.84
2015 04 09 14 26 52 .66    -351    107    -60    368    373 286.9  -9.3  34052  287.74 0861.84
2015 04 09 14 26 52 .91    -381    114    -80    398    406 286.7 -11.5  34030  287.38 0861.84
2015 04 09 14 26 53 .16    -399    167   -116    433    449 292.7 -15.1  34020  287.19 0861.84
2015 04 09 14 26 53 .41    -409    201    -66    456    461 296.2  -8.3  34022  287.23 0861.84
2015 04 09 14 26 53 .67    -382    154    -67    412    418 292.0  -9.3  34022  287.23 0861.84
2015 04 09 14 26 53 .91    -361    114    -82    379    388 287.6 -12.3  34018  287.18 0861.84
2015 04 09 14 26 54 .16    -374    142    -73    401    408 290.8 -10.4  34026  287.30 0861.84
2015 04 09 14 26 54 .42    -350    117    -71    370    377 288.5 -10.9  34026  287.30 0861.84
2015 04 09 14 26 54 .67    -347    124   -100    369    383 289.7 -15.2  34016  287.15 0861.84
2015 04 09 14 26 54 .92    -356    152   -112    388    404 293.1 -16.2  34016  287.13 0861.84
2015 04 09 14 26 55 .17    -341    135    -93    368    380 291.7 -14.3  34016  287.12 0861.84
2015 04 09 14 26 55 .42    -353    124    -97    375    388 289.4 -14.6  34018  287.18 0861.84
2015 04 09 14 26 55 .66    -321    127   -102    346    361 291.7 -16.5  34018  287.18 0861.84
2015 04 09 14 26 55 .92    -302    141   -104    334    349 295.1 -22.5  34016  287.13 0861.84
2015 04 09 14 26 56 .17    -313    128    -98    339    352 292.3 -20.9  34026  287.30 0861.84
2015 04 09 14 26 56 .42    -341    120    -99    362    376 289.4 -15.4  34030  287.37 0861.84
2015 04 09 14 26 56 .67    -329    126   -112    353    371 291.1 -17.6  34028  287.34 0861.84
2015 04 09 14 26 56 .92    -301    112    -91    322    334 290.4 -20.4  34026  287.32 0861.84
2015 04 09 14 26 57 .17    -291    116   -111    314    333 291.7 -24.6  34030  287.36 0861.84
2015 04 09 14 26 57 .42    -322    133   -103    349    363 292.4 -21.4  34022  287.25 0861.84
2015 04 09 14 26 57 .68    -322    119   -100    344    358 290.3 -21.1  34038  287.51 0861.84
2015 04 09 14 26 57 .92    -357    120    -65    377    383 288.6  -9.9  34050  287.72 0861.84
2015 04 09 14 26 58 .18    -273    120    -21    299    300 293.7  -4.1  34070  288.04 0861.84
2015 04 09 14 26 58 .42    -274    209    -45    345    348 307.4  -7.5  34078  288.18 0861.84
2015 04 09 14 26 58 .67    -345    126    -51    368    372 290.1  -8.0  34060  287.88 0861.84
2015 04 09 14 26 58 .94    -345    138    -71    372    379 291.8 -10.9  34038  287.52 0861.84
2015 04 09 14 26 59 .19    -333    138    -73    361    369 292.5 -11.6  34038  287.52 0861.84
2015 04 09 14 26 59 .44    -243    181    -11    304    305 306.6  -2.2  34056  287.82 0861.84
2015 04 09 14 26 59 .69    -253    172    -12    307    308 304.2  -2.2  34046  287.63 0861.84
2015 04 09 14 26 59 .94    -260     93    -30    277    279 289.7  -6.2  34044  287.60 0861.84
2015 04 09 14 27 00 .19    -271    127    -60    300    306 295.1 -11.3  34036  287.46 0861.84
2015 04 09 14 27 00 .44    -319     92    -43    333    336 286.1  -7.5  34026  287.29 0861.84
2015 04 09 14 27 00 .69    -290    115    -12    313    314 291.7  -2.2  34040  287.55 0861.85
2015 04 09 14 27 00 .94    -269     37    -13    272    273 277.9  -2.8  34034  287.43 0861.85
2015 04 09 14 27 01 .19    -350     94    -70    363    370 285.1 -11.0  34016  287.15 0861.85
2015 04 09 14 27 01 .44    -348    117    -63    368    374 288.6  -9.8  34016  287.15 0861.85
2015 04 09 14 27 01 .69    -359    107    -54    375    379 286.6  -8.2  34014  287.10 0861.85
2015 04 09 14 27 01 .94    -320     83   -105    331    347 284.6 -22.9  34016  287.13 0861.85
2015 04 09 14 27 02 .19    -297     84    -90    309    321 285.9 -21.1  34014  287.09 0861.85
2015 04 09 14 27 02 .44    -262     65    -91    271    286 284.1 -18.6  34014  287.09 0861.85
2015 04 09 14 27 02 .69    -256     50    -86    261    275 281.2 -18.3  34018  287.16 0861.85
2015 04 09 14 27 02 .94    -270     46    -92    274    290 279.7 -18.7  34020  287.19 0861.85
2015 04 09 14 27 03 .20    -276     46   -100    280    298 279.5 -19.7  34026  287.29 0861.85
2015 04 09 14 27 03 .44    -293     59    -92    299    312 281.5 -22.1  34030  287.38 0861.85
2015 04 09 14 27 03 .70    -261     56    -83    268    280 282.2 -22.1  34022  287.22 0861.85
2015 04 09 14 27 03 .95    -213     75    -47    226    231 289.5 -11.9  34016  287.15 0861.85
2015 04 09 14 27 04 .20    -133     16    -17    134    136 277.0  -7.2  34042  287.59 0861.85
2015 04 09 14 27 04 .45     -62      0    -22     63     67 270.0 -19.6  34058  287.86 0861.85
2015 04 09 14 27 04 .70     -78    -44     -6     90     91 240.7  -4.1  34074  288.11 0861.85
2015 04 09 14 27 04 .95     -22     49     18     54     57 335.5  18.4  34086  288.31 0861.85
2015 04 09 14 27 05 .20     -37     16     64     41     76 294.4  64.7  34110  288.74 0861.85
2015 04 09 14 27 05 .45     -70     30    -23     77     81 293.5 -16.6  34080  288.23 0861.85
2015 04 09 14 27 05 .70    -102     17    -21    104    107 279.7 -11.5  34050  287.72 0861.85
2015 04 09 14 27 05 .96    -113     47    -33    123    128 292.6 -15.4  34042  287.57 0861.85
2015 04 09 14 27 06 .21    -141     47    -31    149    153 288.4 -11.9  34038  287.50 0861.85
2015 04 09 14 27 06 .46    -136     13     -9    137    138 275.7  -4.1  34034  287.43 0861.85
2015 04 09 14 27 06 .71    -160     27    -25    163    166 279.9  -9.0  34018  287.16 0861.85
2015 04 09 14 27 06 .97    -156     52    -37    165    170 288.4 -12.6  34022  287.23 0861.85
2015 04 09 14 27 07 .21    -146     16    -10    147    148 276.6  -4.1  34034  287.43 0861.85
2015 04 09 14 27 07 .47    -147     16    -22    148    150 276.2  -8.8  34034  287.45 0861.85
2015 04 09 14 27 07 .72    -221     22    -16    223    224 275.9  -4.1  34034  287.43 0861.85
2015 04 09 14 27 07 .97    -244     40    -54    248    254 279.5 -12.4  34026  287.29 0861.85
2015 04 09 14 27 08 .22    -215     43    -44    220    225 281.5 -11.3  34030  287.38 0861.85
2015 04 09 14 27 08 .47    -244     65    -72    253    263 285.0 -20.7  34034  287.44 0861.85
2015 04 09 14 27 08 .72    -229     22    -73    231    243 275.7 -17.6  34026  287.31 0861.86
2015 04 09 14 27 08 .97    -225    -25    -46    227    232 263.6 -11.5  34030  287.37 0861.86
2015 04 09 14 27 09 .22    -205     12    -21    206    208 273.5  -6.0  34028  287.35 0861.86
2015 04 09 14 27 09 .47    -138     23     10    140    141 279.6   4.4  34048  287.67 0861.86
2015 04 09 14 27 09 .72    -181     21    -32    183    186 276.8 -10.1  34040  287.54 0861.85
2015 04 09 14 27 09 .97    -194      3    -32    195    198 270.9  -9.4  34042  287.59 0861.85
2015 04 09 14 27 10 .22    -279     38    -66    282    290 277.9 -13.3  34036  287.46 0861.85
2015 04 09 14 27 10 .47    -261     51    -52    267    273 281.2 -11.1  34040  287.55 0861.85
2015 04 09 14 27 10 .72    -235     67    -41    245    249 286.0  -9.6  34036  287.48 0861.85
2015 04 09 14 27 10 .97    -230     61    -43    239    243 285.0 -10.3  34044  287.61 0861.85
2015 04 09 14 27 11 .22    -192     48    -30    199    202 284.2  -8.8  34044  287.62 0861.85
2015 04 09 14 27 11 .47    -164     40    -21    169    171 283.9  -7.3  34052  287.76 0861.85
2015 04 09 14 27 11 .73    -160     16    -22    161    163 275.9  -8.0  34060  287.89 0861.85
2015 04 09 14 27 11 .98    -179     13    -11    180    181 274.3  -3.7  34052  287.76 0861.85
2015 04 09 14 27 12 .23    -206     86    -28    224    226 292.8  -7.3  34052  287.74 0861.85
2015 04 09 14 27 12 .48    -201     66    -13    212    213 288.4  -3.7  34056  287.81 0861.85
2015 04 09 14 27 12 .74    -197     71    -27    210    212 290.0  -7.3  34052  287.76 0861.85
2015 04 09 14 27 12 .99    -215      8    -12    216    217 272.4  -3.2  34056  287.81 0861.85
2015 04 09 14 27 13 .24    -221     33    -62    224    233 278.6 -15.5  34054  287.79 0861.85
2015 04 09 14 27 13 .49    -216     31    -27    219    221 278.4  -7.2  34060  287.89 0861.85
2015 04 09 14 27 13 .74    -205     15    -38    206    210 274.4 -10.5  34072  288.08 0861.85
2015 04 09 14 27 13 .99    -187     -5    -24    188    190 268.3  -7.3  34080  288.21 0861.85
2015 04 09 14 27 14 .24    -203     21    -34    205    208 276.1  -9.6  34076  288.14 0861.85
2015 04 09 14 27 14 .49    -217     71    -34    229    232 288.2  -8.6  34084  288.30 0861.85
2015 04 09 14 27 14 .74    -173    -10    -42    174    180 266.5 -13.7  34082  288.25 0861.85
2015 04 09 14 27 14 .99    -155    -31    -19    159    161 258.6  -6.9  34088  288.36 0861.85
2015 04 09 14 27 15 .25    -193     -5    -30    194    197 268.5  -9.0  34112  288.75 0861.85
2015 04 09 14 27 15 .49    -234    -12    -38    235    239 267.0  -9.4  34148  289.37 0861.85
2015 04 09 14 27 15 .74    -266     22    -53    267    273 274.8 -11.3  34134  289.14 0861.85
2015 04 09 14 27 16 .00    -237     35    -42    240    244 278.6 -10.1  34146  289.34 0861.86
2015 04 09 14 27 16 .25    -110    110    -10    156    157 315.0  -3.9  34128  289.04 0861.86
2015 04 09 14 27 16 .50     -41     33     10     53     55 308.6  11.1  34144  289.31 0861.86
2015 04 09 14 27 16 .75     -73     77     -2    107    108 316.3  -1.3  34172  289.79 0861.86
2015 04 09 14 27 17 .00     -33    -12     21     36     41 250.0  32.4  34188  290.06 0861.86
2015 04 09 14 27 17 .25    -107     -9    -16    108    110 265.2  -8.8  34212  290.47 0861.86
2015 04 09 14 27 17 .50    -227     17    -56    228    235 274.3 -13.9  34224  290.65 0861.86
2015 04 09 14 27 17 .75    -244    -10    -31    245    248 267.6  -7.3  34130  289.07 0861.85
2015 04 09 14 27 18 .00    -131     -9      6    132    133 265.7   2.8  34132  289.11 0861.85
2015 04 09 14 27 18 .25    -306      6    -62    307    314 271.3 -11.5  34092  288.43 0861.85
2015 04 09 14 27 18 .50    -310     75    -49    319    323 283.7  -8.9  34094  288.44 0861.85
2015 04 09 14 27 18 .75    -265     49    -19    270    271 280.6  -4.1  34110  288.71 0861.85
2015 04 09 14 27 19 .00    -325     66    -70    332    340 281.5 -12.0  34110  288.72 0861.85
2015 04 09 14 27 19 .25    -293     35    -37    296    299 277.0  -7.2  34098  288.51 0861.85
2015 04 09 14 27 19 .50    -244     55    -33    251    254 282.8  -7.7  34102  288.58 0861.85
2015 04 09 14 27 19 .76    -291     40    -60    294    301 277.9 -11.6  34104  288.63 0861.85
2015 04 09 14 27 20 .02    -406     44    -60    409    414 276.2  -8.4  34050  287.70 0861.85
2015 04 09 14 27 20 .27    -337     44    -30    340    342 277.6  -5.2  34100  288.55 0861.85
2015 04 09 14 27 20 .51    -309     23    -34    310    312 274.4  -6.3  34106  288.65 0861.85
2015 04 09 14 27 20 .76    -238     44    -20    243    244 280.6  -4.9  34066  287.99 0861.85
2015 04 09 14 27 21 .01    -337    -22    -61    338    344 266.1 -10.2  34036  287.49 0861.85
2015 04 09 14 27 21 .27    -412     26    -79    413    421 273.7 -10.9  34022  287.24 0861.85
2015 04 09 14 27 21 .52    -420     14    -77    421    428 272.0 -10.4  34020  287.19 0861.85
2015 04 09 14 27 21 .77    -389      0    -64    390    396 270.1  -9.3  34026  287.30 0861.85
2015 04 09 14 27 22 .02    -395     -3    -72    396    403 269.5 -10.4  34036  287.49 0861.85
2015 04 09 14 27 22 .27    -286    -17    -26    287    289 266.5  -5.4  34070  288.04 0861.85
2015 04 09 14 27 22 .52    -285     25    -75    287    297 275.2 -14.7  34058  287.85 0861.85
2015 04 09 14 27 22 .77    -141     46     -8    149    150 288.2  -3.1  34098  288.52 0861.85
2015 04 09 14 27 23 .02    -238      7    -52    239    245 271.7 -12.4  34134  289.14 0861.85
2015 04 09 14 27 23 .27    -337     16    -75    338    347 272.8 -12.6  34068  288.03 0861.85
2015 04 09 14 27 23 .53    -354     60    -50    360    364 279.7  -8.0  34142  289.26 0861.85
2015 04 09 14 27 23 .77    -377    -11    -15    378    379 268.2  -2.3  34082  288.25 0861.85
2015 04 09 14 27 24 .02    -409     38    -83    411    420 275.3 -11.5  34064  287.94 0861.84
2015 04 09 14 27 24 .28    -424     31    -91    426    436 274.3 -12.2  34074  288.12 0861.84
2015 04 09 14 27 24 .52    -419     14    -60    420    425 272.0  -8.2  34078  288.19 0861.84
2015 04 09 14 27 24 .78    -426     28    -78    427    435 273.8 -10.4  34026  287.30 0861.84
2015 04 09 14 27 25 .02    -414     12    -91    415    425 271.7 -12.4  34030  287.38 0861.84
2015 04 09 14 27 25 .28    -365      6    -61    366    372 271.0  -9.5  34058  287.86 0861.84
2015 04 09 14 27 25 .53    -291     27    -45    293    297 275.5  -8.8  34058  287.85 0861.84
2015 04 09 14 27 25 .78    -262    -36    -38    265    268 262.0  -8.3  34056  287.82 0861.84
2015 04 09 14 27 26 .03    -368     61    -48    374    378 279.5  -7.4  34054  287.79 0861.84
2015 04 09 14 27 26 .28    -325     76     -9    334    335 283.3  -1.6  34096  288.49 0861.84
2015 04 09 14 27 26 .53    -336     75    -67    345    352 282.6 -11.0  34042  287.59 0861.84
2015 04 09 14 27 26 .79    -325     74    -65    334    341 282.9 -11.0  34038  287.52 0861.84
2015 04 09 14 27 27 .04    -320     74    -66    329    336 283.0 -11.5  34038  287.51 0861.84
2015 04 09 14 27 27 .29    -337     63    -45    344    348 280.7  -7.6  34032  287.39 0861.84
2015 04 09 14 27 27 .54    -309     53    -60    314    320 279.9 -10.8  34036  287.48 0861.84
2015 04 09 14 27 27 .79    -222     31    -51    225    231 278.0 -12.9  34102  288.58 0861.84
2015 04 09 14 27 28 .04    -223    -11    -41    224    228 267.0 -10.5  34096  288.48 0861.84
2015 04 09 14 27 28 .29    -307     46    -68    311    319 278.6 -12.4  34064  287.93 0861.84
2015 04 09 14 27 28 .54    -245      7    -27    246    248 271.7  -6.5  34078  288.17 0861.84
2015 04 09 14 27 28 .80    -298     -8    -62    299    306 268.3 -11.8  34086  288.31 0861.84
2015 04 09 14 27 29 .05    -315     23    -38    316    319 274.3  -6.9  34074  288.10 0861.84
2015 04 09 14 27 29 .29    -321     23    -55    322    327 274.1  -9.8  34062  287.92 0861.84
2015 04 09 14 27 29 .55    -332     67    -51    339    343 281.5  -8.7  34064  287.94 0861.84
2015 04 09 14 27 29 .80    -251     26    -43    253    257 275.9  -9.8  34148  289.37 0861.84
2015 04 09 14 27 30 .05     -61      4     -5     62     63 274.3  -5.2  34166  289.69 0861.84
2015 04 09 14 27 30 .30    -269     25    -49    271    276 275.3 -10.3  34094  288.46 0861.84
2015 04 09 14 27 30 .55    -290     35    -59    293    299 277.0 -11.5  34052  287.75 0861.84
2015 04 09 14 27 30 .80    -268     17    -24    269    271 273.7  -5.1  34078  288.17 0861.84
2015 04 09 14 27 31 .05    -220     30    -59    223    231 277.9 -15.0  34078  288.20 0861.84
2015 04 09 14 27 31 .30    -353     43    -91    356    368 277.0 -14.4  34028  287.34 0861.84
2015 04 09 14 27 31 .55    -351     38    -68    354    361 276.3 -10.9  34032  287.40 0861.84
2015 04 09 14 27 31 .80    -294     59    -43    300    304 281.4  -8.2  34038  287.50 0861.84
2015 04 09 14 27 32 .05    -261     36    -31    264    266 277.9  -6.7  34050  287.71 0861.84
2015 04 09 14 27 32 .30    -247     13    -29    248    250 273.0  -6.9  34072  288.09 0861.84
2015 04 09 14 27 32 .55    -282     47    -52    287    292 279.6 -10.3  34048  287.66 0861.84
2015 04 09 14 27 32 .80    -298     35    -61    301    308 276.8 -11.5  34038  287.51 0861.84
2015 04 09 14 27 33 .05    -220     64    -24    230    232 286.2  -6.1  34046  287.65 0861.84
2015 04 09 14 27 33 .30    -307     54    -54    312    317 280.1  -9.9  34024  287.26 0861.84
2015 04 09 14 27 33 .57    -330     43    -52    333    338 277.5  -8.9  34024  287.27 0861.84
2015 04 09 14 27 33 .82    -336     47    -61    340    346 278.0 -10.3  34026  287.29 0861.84
2015 04 09 14 27 34 .07    -354     52    -68    358    365 278.5 -10.9  34018  287.17 0861.84
2015 04 09 14 27 34 .32    -292     50    -49    297    302 279.9  -9.4  34044  287.61 0861.84
2015 04 09 14 27 34 .57    -325     20    -62    326    333 273.6 -10.9  34022  287.25 0861.84
2015 04 09 14 27 34 .82    -321     43    -65    324    331 277.7 -11.5  34028  287.34 0861.84
2015 04 09 14 27 35 .07    -308     38    -59    311    317 277.2 -10.9  34022  287.22 0861.84
2015 04 09 14 27 35 .32    -193      8     32    194    197 272.6   9.5  34084  288.30 0861.84
2015 04 09 14 27 35 .57    -277     58    -43    284    288 281.9  -8.6  34056  287.80 0861.84
2015 04 09 14 27 35 .82    -285     48    -58    290    296 279.6 -11.3  34044  287.61 0861.84
2015 04 09 14 27 36 .07    -287     26    -64    289    297 275.3 -12.6  34038  287.50 0861.84
2015 04 09 14 27 36 .32    -277      0    -35    278    281 270.0  -7.2  34036  287.48 0861.84
2015 04 09 14 27 36 .57    -276     47    -61    280    287 279.7 -12.4  34036  287.46 0861.84
2015 04 09 14 27 36 .82    -262     48    -53    267    273 280.5 -11.3  34048  287.68 0861.84
2015 04 09 14 27 37 .07    -309     29    -59    311    317 275.5 -10.9  34024  287.28 0861.84
2015 04 09 14 27 37 .32    -311     33    -70    313    321 276.2 -12.6  34024  287.28 0861.84
2015 04 09 14 27 37 .57    -285     48    -58    290    296 279.7 -11.3  34022  287.24 0861.84
2015 04 09 14 27 37 .82    -282     47    -52    287    292 279.6 -10.3  34026  287.29 0861.84
2015 04 09 14 27 38 .07    -276     26    -56    278    284 275.5 -11.6  34018  287.16 0861.84
2015 04 09 14 27 38 .32    -246     16    -73    247    258 273.9 -16.5  34016  287.12 0861.84
2015 04 09 14 27 38 .58    -241     27    -51    243    249 276.6 -11.9  34014  287.11 0861.84
2015 04 09 14 27 38 .83    -239     36    -47    242    247 278.6 -11.1  34024  287.26 0861.84
2015 04 09 14 27 39 .08    -266     48    -52    271    276 280.4 -10.9  34036  287.46 0861.84
2015 04 09 14 27 39 .33    -240     17    -16    241    242 274.3  -3.9  34036  287.46 0861.83
2015 04 09 14 27 39 .58    -250     45    -33    255    258 280.4  -7.5  34032  287.39 0861.83
2015 04 09 14 27 39 .83    -232     47    -39    237    241 281.5  -9.3  34042  287.56 0861.83
2015 04 09 14 27 40 .08    -202     28    -24    204    206 277.9  -6.7  34066  287.98 0861.83
2015 04 09 14 27 40 .33    -172      8    -13    173    174 272.8  -4.4  34088  288.35 0861.83
2015 04 09 14 27 40 .59    -193    -59    -27    202    204 252.9  -7.7  34106  288.67 0861.83
2015 04 09 14 27 40 .84    -195    -73    -35    209    212 249.4  -9.6  34092  288.42 0861.83
2015 04 09 14 27 41 .09    -163    -54    -24    172    174 251.4  -8.0  34092  288.42 0861.83
2015 04 09 14 27 41 .34    -160    -57     -4    171    172 250.3  -1.6  34092  288.43 0861.83
2015 04 09 14 27 41 .60    -145    -47    -37    153    158 251.8 -13.7  34122  288.94 0861.83
2015 04 09 14 27 41 .84     -14     17     18     23     29 320.4  43.7  34140  289.23 0861.83
2015 04 09 14 27 42 .09     -43    -17    -24     47     52 248.3 -32.6  34140  289.23 0861.83
2015 04 09 14 27 42 .34       5     17    -18     18     25  18.7 -54.5  34144  289.30 0861.83
2015 04 09 14 27 42 .60      33    -45     15     56     59 143.9  15.3  34158  289.53 0861.83
2015 04 09 14 27 42 .84      -3    -16     -9     17     19 191.6 -35.8  34150  289.41 0861.83
2015 04 09 14 27 43 .10      30     16     23     35     41  61.1  36.5  34162  289.60 0861.83
2015 04 09 14 27 43 .35    -138    -55     -8    149    150 248.3  -3.1  34178  289.87 0861.83
2015 04 09 14 27 43 .60    -126    -60    -20    140    142 244.6  -8.2  34196  290.18 0861.83
2015 04 09 14 27 43 .85     -74     -9      7     75     76 263.0   5.9  34174  289.80 0861.83
2015 04 09 14 27 44 .10    -235     17    -60    236    244 274.3 -14.4  34164  289.64 0861.83
2015 04 09 14 27 44 .35    -176    -16     -7    177    178 264.5  -2.3  34170  289.74 0861.83
2015 04 09 14 27 44 .60     -83     -5    -11     84     85 266.1  -7.7  34190  290.09 0861.83
2015 04 09 14 27 44 .85    -108    -16    -25    110    113 261.2 -12.9  34188  290.06 0861.83
2015 04 09 14 27 45 .10    -186     12    -37    187    191 273.9 -11.3  34118  288.87 0861.83
2015 04 09 14 27 45 .35    -239    -19    -36    240    243 265.4  -8.6  34078  288.17 0861.83
2015 04 09 14 27 45 .60    -252    -15    -66    253    262 266.6 -14.7  34086  288.31 0861.83
2015 04 09 14 27 45 .85    -235     -5    -70    236    247 268.7 -16.6  34064  287.95 0861.83
2015 04 09 14 27 46 .10    -236     -9    -62    237    245 267.6 -14.7  34050  287.70 0861.83
2015 04 09 14 27 46 .35    -201      0    -60    202    211 270.0 -16.8  34038  287.52 0861.83
2015 04 09 14 27 46 .61    -245    -45    -54    250    256 259.4 -12.4  34088  288.36 0861.83
2015 04 09 14 27 46 .86    -233    -47    -39    238    242 258.6  -9.4  34102  288.58 0861.83
2015 04 09 14 27 47 .11    -181    -65    -29    193    196 250.3  -8.6  34160  289.58 0861.83
2015 04 09 14 27 47 .36    -199    -15    -26    200    202 265.7  -7.5  34170  289.74 0861.83
2015 04 09 14 27 47 .62    -234    -17    -50    235    241 265.6 -12.2  34190  290.07 0861.83
2015 04 09 14 27 47 .87    -235     32    -39    238    242 277.9  -9.4  34192  290.12 0861.83
2015 04 09 14 27 48 .12    -102     -7      5    103    104 265.6   3.3  34202  290.28 0861.83
2015 04 09 14 27 48 .37    -107      8    -13    108    109 274.4  -7.3  34198  290.21 0861.83
2015 04 09 14 27 48 .62     -12    -37     32     40     51 198.3  43.7  34196  290.19 0861.83
2015 04 09 14 27 48 .87     -57    -67      9     89     90 220.5   5.9  34182  289.94 0861.83
2015 04 09 14 27 49 .12     -76    -98     77    125    146 217.8  35.5  34202  290.30 0861.83
2015 04 09 14 27 49 .37    -118   -114     12    165    166 226.0   4.4  34146  289.33 0861.83
2015 04 09 14 27 49 .62    -216    -57    -30    224    227 255.0  -7.7  34136  289.18 0861.83
2015 04 09 14 27 49 .87    -239    -52    -45    245    250 257.6 -10.4  34148  289.37 0861.83
2015 04 09 14 27 50 .12    -191    -69    -13    204    205 250.0  -3.9  34144  289.31 0861.83
2015 04 09 14 27 50 .37    -255    -69    -60    265    272 254.9 -12.9  34154  289.47 0861.83
2015 04 09 14 27 50 .63    -142     -8    -35    143    148 266.5 -13.9  34164  289.63 0861.83
2015 04 09 14 27 50 .87    -169     33    -27    173    176 281.2  -9.0  34134  289.14 0861.83
2015 04 09 14 27 51 .12     -71     69     13    100    101 314.4   7.5  34128  289.04 0861.82
2015 04 09 14 27 51 .38    -111      0    -30    112    116 269.6 -15.0  34074  288.13 0861.82
2015 04 09 14 27 51 .62    -207      3    -22    208    210 271.0  -6.2  34054  287.79 0861.82
2015 04 09 14 27 51 .88    -132     14    -12    133    134 276.1  -5.2  34064  287.94 0861.82
2015 04 09 14 27 52 .13    -155    -37    -35    160    164 256.3 -12.6  34048  287.69 0861.82
2015 04 09 14 27 52 .38    -184     35    -29    188    191 281.0  -9.0  34042  287.57 0861.82
2015 04 09 14 27 52 .63    -193     48    -43    200    205 284.2 -12.2  34044  287.60 0861.82
2015 04 09 14 27 52 .88    -236     34    -61    239    247 278.4 -14.5  34046  287.65 0861.82
2015 04 09 14 27 53 .13    -204     31    -38    207    211 278.8 -10.5  34044  287.60 0861.82
2015 04 09 14 27 53 .38    -260     36    -56    263    270 277.9 -12.2  34034  287.43 0861.82
2015 04 09 14 27 53 .63    -246     -9    -31    247    249 267.9  -7.2  34034  287.44 0861.82
2015 04 09 14 27 53 .88    -270     20    -74    271    282 274.3 -15.4  34024  287.28 0861.82
2015 04 09 14 27 54 .13    -268     17    -59    269    276 273.7 -12.4  34024  287.28 0861.82
2015 04 09 14 27 54 .38    -256      4    -52    257    263 270.9 -11.6  34024  287.28 0861.82
2015 04 09 14 27 54 .64    -238     23    -34    240    243 275.7  -8.3  34030  287.38 0861.82
2015 04 09 14 27 54 .89    -257     11    -65    258    267 272.6 -14.3  34020  287.19 0861.82
2015 04 09 14 27 55 .14    -248     26    -31    250    252 276.1  -7.2  34030  287.36 0861.82
2015 04 09 14 27 55 .39    -255     17    -50    256    261 273.9 -11.1  34022  287.24 0861.82
2015 04 09 14 27 55 .65    -234      3    -42    235    239 270.8 -10.3  34026  287.31 0861.82
2015 04 09 14 27 55 .90    -245     15    -47    246    251 273.7 -10.9  34024  287.26 0861.82
2015 04 09 14 27 56 .14    -263      0    -53    264    270 270.0 -11.3  34028  287.33 0861.82
2015 04 09 14 27 56 .40    -232     11    -49    233    239 272.8 -11.9  34028  287.34 0861.82
2015 04 09 14 27 56 .65    -249      0    -54    250    256 270.0 -12.4  34040  287.53 0861.82
2015 04 09 14 27 56 .90    -268      3    -49    269    274 270.8 -10.4  34044  287.60 0861.82
2015 04 09 14 27 57 .15    -225    -12    -35    226    229 266.7  -8.8  34048  287.67 0861.82
2015 04 09 14 27 57 .40    -213     -2    -18    214    215 269.4  -4.9  34050  287.70 0861.82
2015 04 09 14 27 57 .65    -230      8    -34    231    234 272.1  -8.6  34056  287.82 0861.82
2015 04 09 14 27 57 .90    -122    -41    -16    129    131 251.4  -7.3  34070  288.04 0861.82
2015 04 09 14 27 58 .15    -201     31    -53    204    211 278.8 -14.7  34044  287.60 0861.82
2015 04 09 14 27 58 .40    -250    -14    -65    251    260 266.6 -14.5  34022  287.22 0861.82
2015 04 09 14 27 58 .65    -269     -5    -49    270    275 268.7 -10.4  34022  287.24 0861.82
2015 04 09 14 27 58 .90    -248    -21    -59    249    256 265.0 -13.4  34022  287.24 0861.82
2015 04 09 14 27 59 .15    -256    -24    -52    258    264 264.5 -11.5  34024  287.26 0861.82
2015 04 09 14 27 59 .40    -248    -24    -50    250    255 264.3 -11.3  34026  287.29 0861.82
2015 04 09 14 27 59 .66    -243    -11    -43    244    248 267.2 -10.1  34066  287.97 0861.82
2015 04 09 14 27 59 .91    -211      7    -35    212    215 272.1  -9.4  34076  288.14 0861.82
2015 04 09 14 28 00 .15    -227    -13    -41    228    232 266.5 -10.4  34026  287.32 0861.82
2015 04 09 14 28 00 .41    -239    -25    -46    241    246 263.9 -10.9  34024  287.26 0861.82
2015 04 09 14 28 00 .66    -245    -14    -54    246    252 266.6 -12.4  34022  287.24 0861.82
2015 04 09 14 28 00 .91    -245    -16    -45    246    251 266.1 -10.4  34028  287.34 0861.82
2015 04 09 14 28 01 .16    -241      0    -49    242    248 270.0 -11.6  34042  287.56 0861.82
2015 04 09 14 28 01 .42    -219      5    -27    220    222 271.5  -7.2  34048  287.69 0861.82
2015 04 09 14 28 01 .67    -201    -16    -31    202    205 265.4  -8.8  34058  287.84 0861.82
2015 04 09 14 28 01 .92    -209    -22    -43    211    216 263.9 -11.5  34034  287.43 0861.81
2015 04 09 14 28 02 .17    -192     -5    -31    193    196 268.3  -9.3  34044  287.62 0861.81
2015 04 09 14 28 02 .42    -160      0    -23    161    163 270.1  -8.2  34044  287.62 0861.81
2015 04 09 14 28 02 .67    -154    -16    -44    155    162 263.9 -15.8  34048  287.67 0861.81
2015 04 09 14 28 02 .92    -185     -5    -40    186    191 268.3 -12.4  34042  287.57 0861.81
2015 04 09 14 28 03 .17    -232    -17    -49    233    239 265.7 -11.9  34038  287.51 0861.81
2015 04 09 14 28 03 .42    -234    -17    -47    235    240 265.7 -11.3  34038  287.50 0861.81
2015 04 09 14 28 03 .67    -218     -5    -44    219    224 268.5 -11.6  34036  287.47 0861.81
2015 04 09 14 28 03 .92    -222    -13    -44    223    228 266.5 -11.3  34034  287.45 0861.81
2015 04 09 14 28 04 .17    -208    -10    -53    209    216 267.2 -14.3  34036  287.49 0861.81
2015 04 09 14 28 04 .42    -209      0    -33    210    213 269.9  -9.0  34036  287.49 0861.81
2015 04 09 14 28 04 .67    -199    -13    -40    200    205 266.3 -11.5  34036  287.47 0861.81
2015 04 09 14 28 04 .92    -170    -16    -36    171    175 264.5 -11.9  34036  287.49 0861.81
2015 04 09 14 28 05 .18    -158    -21    -39    160    165 262.3 -13.9  34044  287.62 0861.81
2015 04 09 14 28 05 .43    -109    -22    -20    112    114 258.6 -10.3  34052  287.76 0861.81
2015 04 09 14 28 05 .68    -150    -30    -21    154    156 258.6  -8.0  34056  287.82 0861.81
2015 04 09 14 28 05 .92     -94    -31    -16    100    102 251.4  -9.3  34086  288.33 0861.81
2015 04 09 14 28 06 .18     -60    -24    -13     65     67 248.3 -11.3  34084  288.28 0861.81
2015 04 09 14 28 06 .43    -102    -64    -19    121    123 237.6  -9.3  34102  288.60 0861.81
2015 04 09 14 28 06 .68    -145    -78    -51    165    173 241.6 -17.3  34120  288.91 0861.81
2015 04 09 14 28 06 .93    -162    -50    -15    170    171 252.7  -5.4  34118  288.86 0861.81
2015 04 09 14 28 07 .18    -199    -63    -35    209    212 252.3  -9.6  34086  288.31 0861.81
2015 04 09 14 28 07 .43    -222   -106    -17    247    248 244.5  -4.1  34052  287.75 0861.81
2015 04 09 14 28 07 .68    -212   -108    -30    238    240 243.0  -7.2  34050  287.71 0861.81
2015 04 09 14 28 07 .93    -196    -86    -43    215    220 246.3 -11.3  34054  287.79 0861.81
2015 04 09 14 28 08 .18    -180    -89    -52    201    208 243.6 -14.7  34064  287.94 0861.81
2015 04 09 14 28 08 .45    -201   -102    -55    226    233 242.9 -13.7  34084  288.30 0861.81
2015 04 09 14 28 08 .70    -185   -101    -38    211    215 241.4 -10.3  34172  289.77 0861.81
2015 04 09 14 28 08 .95    -186   -118    -15    221    222 237.6  -3.9  34234  290.82 0861.81
2015 04 09 14 28 09 .20    -187   -130    -10    228    229 235.1  -2.6  34256  291.20 0861.81
2015 04 09 14 28 09 .44    -146   -158     13    216    217 222.8   3.6  34262  291.32 0861.81
2015 04 09 14 28 09 .69    -138   -146      0    202    203 223.4   0.2  34186  290.01 0861.81
2015 04 09 14 28 09 .95    -122   -158     32    200    203 217.6   9.3  34206  290.36 0861.81
2015 04 09 14 28 10 .19    -136   -145     28    200    203 223.2   8.0  34152  289.45 0861.81
2015 04 09 14 28 10 .45    -159   -132      2    207    208 230.2   0.7  34098  288.53 0861.81
2015 04 09 14 28 10 .70    -172   -151      8    230    231 228.7   2.1  34108  288.69 0861.81
2015 04 09 14 28 10 .95    -168   -140     -8    219    220 230.2  -2.2  34082  288.26 0861.81
2015 04 09 14 28 11 .20    -188   -120     -4    224    225 237.4  -1.3  34108  288.70 0861.81
2015 04 09 14 28 11 .45    -181   -115     -8    215    216 237.4  -2.3  34098  288.52 0861.81
2015 04 09 14 28 11 .70    -197   -108    -17    225    226 241.1  -4.4  34092  288.43 0861.81
2015 04 09 14 28 11 .95    -194    -99    -24    218    220 242.9  -6.5  34072  288.08 0861.81
2015 04 09 14 28 12 .20    -187    -96    -17    211    212 242.7  -4.9  34080  288.21 0861.81
2015 04 09 14 28 12 .45    -178    -98     -7    204    205 241.1  -2.2  34070  288.06 0861.81
2015 04 09 14 28 12 .70    -169   -120    -16    208    209 234.5  -4.6  34080  288.21 0861.81
2015 04 09 14 28 12 .95    -190   -104    -14    217    218 241.1  -3.7  34066  287.99 0861.81
2015 04 09 14 28 13 .21    -192   -108    -18    221    222 240.7  -4.9  34094  288.45 0861.81
2015 04 09 14 28 13 .45    -168    -70    -31    183    186 247.4  -9.8  34074  288.13 0861.81
2015 04 09 14 28 13 .71    -128    -36    -26    134    137 254.1 -11.3  34106  288.65 0861.81
2015 04 09 14 28 13 .95    -148    -63    -25    161    164 246.9  -9.0  34090  288.40 0861.81
2015 04 09 14 28 14 .21    -154    -78    -31    173    176 243.1 -10.3  34080  288.21 0861.81
2015 04 09 14 28 14 .46    -160    -53    -21    169    171 251.4  -7.2  34086  288.31 0861.81
2015 04 09 14 28 14 .71    -179      5    -31    180    183 271.9  -9.8  34078  288.18 0861.81
2015 04 09 14 28 14 .96    -180     -3    -42    181    186 268.7 -13.2  34072  288.08 0861.81
2015 04 09 14 28 15 .21    -216      7    -27    217    219 272.1  -7.2  34064  287.96 0861.81
2015 04 09 14 28 15 .47    -274     73    -29    284    286 285.1  -6.0  34094  288.44 0861.81
2015 04 09 14 28 15 .72    -271     98     -5    289    290 289.9  -1.1  34094  288.46 0861.81
2015 04 09 14 28 15 .97    -329    111    -39    348    351 288.7  -6.5  34086  288.32 0861.81
2015 04 09 14 28 16 .22    -296     86    -22    309    310 286.2  -4.1  34142  289.27 0861.81
2015 04 09 14 28 16 .47    -360     50    -33    364    366 278.0  -5.3  34120  288.91 0861.81
2015 04 09 14 28 16 .72    -165      4     23    166    168 271.5   8.0  34144  289.31 0861.81
2015 04 09 14 28 16 .97      -1      8     12      9     15 348.4  56.4  34146  289.35 0861.81
2015 04 09 14 28 17 .22    -332     35    -48    334    338 276.1  -8.2  34136  289.18 0861.80
2015 04 09 14 28 17 .48    -292     12    -25    293    295 272.5  -4.9  34176  289.83 0861.80
2015 04 09 14 28 17 .72    -189     -4     -7    190    191 268.5  -2.1  34158  289.55 0861.80
2015 04 09 14 28 17 .98    -195    -58    -56    204    212 253.2 -15.4  34146  289.33 0861.80
2015 04 09 14 28 18 .22    -205    -76    -51    219    225 249.6 -13.2  34148  289.36 0861.80
2015 04 09 14 28 18 .47    -145     34     -9    149    150 283.3  -3.7  34138  289.19 0861.80
2015 04 09 14 28 18 .73    -144     33      2    148    149 283.2   0.8  34094  288.45 0861.80
2015 04 09 14 28 18 .98    -246     12    -56    247    254 273.0 -12.9  34034  287.43 0861.81
2015 04 09 14 28 19 .23    -262     35    -62    265    273 277.7 -13.3  34024  287.28 0861.81
2015 04 09 14 28 19 .48    -249     54    -72    255    266 282.3 -15.8  34026  287.31 0861.81
2015 04 09 14 28 19 .74    -253     72    -58    264    271 285.9 -12.4  34056  287.80 0861.81
2015 04 09 14 28 19 .98    -244     87    -36    260    263 289.7  -8.0  34082  288.26 0861.81
2015 04 09 14 28 20 .24    -209     56    -23    217    219 285.1  -6.2  34126  288.99 0861.81
2015 04 09 14 28 20 .48    -178     72    -17    193    194 292.2  -5.2  34192  290.11 0861.81
2015 04 09 14 28 20 .73    -183     75    -32    198    201 292.4  -9.4  34202  290.28 0861.81
2015 04 09 14 28 20 .98    -141     56     -8    152    153 291.8  -3.1  34164  289.63 0861.81
2015 04 09 14 28 21 .23    -123     95    -42    156    162 307.8 -15.2  34192  290.11 0861.81
2015 04 09 14 28 21 .48    -235     68    -40    245    249 286.2  -9.4  34052  287.75 0861.81
2015 04 09 14 28 21 .73    -229     92     -9    248    249 292.0  -2.2  34066  287.99 0861.81
2015 04 09 14 28 21 .99    -213    100     -9    236    237 295.2  -2.2  34066  287.99 0861.81
2015 04 09 14 28 22 .25    -150     30    -11    153    154 281.4  -4.1  34078  288.18 0861.81
2015 04 09 14 28 22 .50    -146      2    -22    147    149 270.9  -8.8  34066  287.99 0861.81
2015 04 09 14 28 22 .75    -253    -36    -37    256    259 261.9  -8.2  34052  287.75 0861.81
2015 04 09 14 28 23 .00    -278     -9    -56    279    285 268.1 -11.3  34032  287.39 0861.81
2015 04 09 14 28 23 .25    -285     -8    -74    286    296 268.3 -14.5  34024  287.28 0861.81
2015 04 09 14 28 23 .50    -262      3    -43    263    267 270.8  -9.3  34034  287.43 0861.81
2015 04 09 14 28 23 .75    -255     17    -50    256    261 273.9 -11.1  34048  287.66 0861.81
2015 04 09 14 28 24 .00    -237     25    -43    239    243 276.1 -10.3  34084  288.27 0861.81
2015 04 09 14 28 24 .25    -153     35    -22    158    160 283.2  -8.2  34090  288.38 0861.81
2015 04 09 14 28 24 .50    -146     39    -43    152    159 285.1 -15.8  34104  288.64 0861.81
2015 04 09 14 28 24 .75     -60     73     -3     95     96 320.4  -2.2  34118  288.86 0861.81
2015 04 09 14 28 25 .00     -52     65     -6     84     85 321.7  -4.6  34132  289.11 0861.81
2015 04 09 14 28 25 .25     -66     22     -9     70     71 288.4  -7.3  34150  289.41 0861.80
2015 04 09 14 28 25 .50     -61     40      3     73     74 303.3   2.9  34144  289.31 0861.80
2015 04 09 14 28 25 .75     -67     37    -25     77     80 298.9 -23.3  34158  289.55 0861.80
2015 04 09 14 28 26 .00     -34     41     27     54     60 320.4  28.2  34182  289.94 0861.80
2015 04 09 14 28 26 .26    -131      0    -36    132    137 270.0 -15.5  34202  290.30 0861.80
2015 04 09 14 28 26 .51     -73     39    -16     83     85 298.4 -10.9  34220  290.58 0861.80
2015 04 09 14 28 26 .76    -208     75    -12    222    223 290.0  -3.3  34134  289.14 0861.80
2015 04 09 14 28 27 .01    -308     71    -66    317    324 283.0 -11.9  34070  288.04 0861.80
2015 04 09 14 28 27 .26    -291     67    -65    299    307 283.0 -12.4  34072  288.07 0861.80
2015 04 09 14 28 27 .51    -256     59    -47    263    268 283.0 -10.1  34070  288.05 0861.80
2015 04 09 14 28 27 .76    -209     83    -39    226    230 291.7  -9.8  34102  288.58 0861.80
2015 04 09 14 28 28 .01    -223    107    -44    248    252 295.8 -10.1  34140  289.24 0861.80
2015 04 09 14 28 28 .26    -223     59    -33    231    234 285.0  -8.3  34126  289.00 0861.80
2015 04 09 14 28 28 .51     -52    -24     32     58     66 244.6  31.4  34146  289.33 0861.80
2015 04 09 14 28 28 .76       4    -40    -21     41     46 173.8 -33.7  34156  289.50 0861.80
2015 04 09 14 28 29 .01    -232     33    -18    235    236 278.1  -4.4  34120  288.90 0861.80
2015 04 09 14 28 29 .27     -78    122     12    146    147 327.4   4.9  34132  289.09 0861.80
2015 04 09 14 28 29 .52    -139     34      7    144    145 283.7   2.8  34138  289.19 0861.80
2015 04 09 14 28 29 .77    -252     78    -73    264    275 287.3 -15.5  34118  288.87 0861.80
2015 04 09 14 28 30 .02    -349     94    -57    362    367 285.2  -9.0  34090  288.40 0861.80
2015 04 09 14 28 30 .27    -297     54     -9    302    303 280.4  -1.8  34108  288.68 0861.80
2015 04 09 14 28 30 .53    -324     76    -42    333    336 283.3  -7.3  34108  288.69 0861.80
2015 04 09 14 28 30 .78    -263     81    -33    276    279 287.1  -6.9  34112  288.76 0861.80
2015 04 09 14 28 31 .03    -291     78    -16    302    303 285.0  -3.1  34104  288.63 0861.80
2015 04 09 14 28 31 .28    -152      4      7    153    154 271.7   2.9  34098  288.53 0861.80
2015 04 09 14 28 31 .53    -144      0     -3    145    146 269.6  -1.3  34118  288.87 0861.80
2015 04 09 14 28 31 .78     -20    -32     18     39     42 212.5  26.2  34136  289.18 0861.80
2015 04 09 14 28 32 .03     -31      0     29     32     43 269.2  47.9  34142  289.26 0861.80
2015 04 09 14 28 32 .28    -162     43    -54    168    177 285.1 -18.1  34204  290.31 0861.80
2015 04 09 14 28 32 .53     -78    -78      5    111    112 225.1   2.9  34222  290.62 0861.80
2015 04 09 14 28 32 .78    -233    -95    -60    252    260 247.8 -13.4  34142  289.27 0861.80
2015 04 09 14 28 33 .04    -288    -72    -69    297    305 255.8 -13.2  34162  289.61 0861.80
2015 04 09 14 28 33 .28    -268   -115    -38    292    295 246.7  -7.5  34214  290.48 0861.80
2015 04 09 14 28 33 .53    -268   -148    -55    307    312 241.1 -10.3  34218  290.54 0861.80
2015 04 09 14 28 33 .78    -200    -21    -21    202    204 263.8  -6.0  34228  290.74 0861.80
2015 04 09 14 28 34 .03    -189     32    -39    192    197 279.7 -11.6  34200  290.25 0861.80
2015 04 09 14 28 34 .28    -148     24    -19    150    152 279.2  -7.2  34190  290.08 0861.80
2015 04 09 14 28 34 .53    -123      6     -8    124    125 273.0  -4.1  34178  289.89 0861.80
2015 04 09 14 28 34 .78    -262     60    -24    269    271 283.0  -5.2  34256  291.21 0861.80
2015 04 09 14 28 35 .04    -126    -69    -51    144    153 241.1 -19.7  34262  291.30 0861.80
2015 04 09 14 28 35 .28    -137    -55    -45    148    154 247.8 -22.3  34250  291.09 0861.80
2015 04 09 14 28 35 .53    -178   -156     -9    237    238 228.7  -2.2  34110  288.73 0861.80
2015 04 09 14 28 35 .79    -172    -95    -39    197    201 241.1 -11.3  34090  288.40 0861.80
2015 04 09 14 28 36 .04     -99    -26    -36    103    110 255.0 -19.6  34144  289.30 0861.80
2015 04 09 14 28 36 .30     -27     56     12     63     65 334.6  11.1  34144  289.31 0861.80
2015 04 09 14 28 36 .55     -16     -7     49     18     52 244.7  80.2  34148  289.38 0861.80
2015 04 09 14 28 36 .80      -4     61     21     62     66 355.5  19.2  34164  289.63 0861.80
2015 04 09 14 28 37 .05     -74    -17    -37     77     85 256.7 -32.2  34160  289.58 0861.80
2015 04 09 14 28 37 .30    -117     29    -26    121    124 284.2 -12.4  34164  289.65 0861.80
2015 04 09 14 28 37 .55     -44    -17     -3     48     49 249.2  -4.1  34162  289.60 0861.80
2015 04 09 14 28 37 .80    -157     24    -45    159    166 278.8 -16.0  34144  289.30 0861.80
2015 04 09 14 28 38 .05    -199     57    -11    208    209 286.2  -3.3  34154  289.46 0861.80
2015 04 09 14 28 38 .30    -176     28    -22    179    181 279.2  -7.2  34198  290.21 0861.80
2015 04 09 14 28 38 .55    -205    101    -36    229    232 296.2  -9.0  34168  289.72 0861.80
2015 04 09 14 28 38 .81    -113     30      5    117    118 285.0   2.8  34194  290.14 0861.80
2015 04 09 14 28 39 .05     -47     32      3     57     58 304.2   3.8  34198  290.23 0861.80
2015 04 09 14 28 39 .31     -73     39     -9     84     85 298.4  -6.2  34210  290.43 0861.80
2015 04 09 14 28 39 .56    -155     35    -24    159    161 282.8  -8.8  34216  290.52 0861.80
2015 04 09 14 28 39 .80    -222     41     -4    226    227 280.6  -1.3  34096  288.48 0861.80
2015 04 09 14 28 40 .06    -263     76    -42    274    278 286.2  -8.8  34090  288.39 0861.80
2015 04 09 14 28 40 .31    -216     97    -27    237    239 294.2  -6.7  34124  288.97 0861.80
2015 04 09 14 28 40 .56    -241    100    -14    262    263 292.6  -3.1  34136  289.17 0861.80
2015 04 09 14 28 40 .81    -230     75    -25    243    245 288.2  -6.1  34102  288.58 0861.80
2015 04 09 14 28 41 .06    -219     23    -37    221    225 276.1  -9.6  34078  288.18 0861.80
2015 04 09 14 28 41 .31    -223     35    -28    226    228 279.0  -7.2  34064  287.94 0861.80
2015 04 09 14 28 41 .56    -202     54     -4    210    211 285.0  -1.1  34060  287.89 0861.80
2015 04 09 14 28 41 .81    -260     44    -35    264    267 279.6  -7.7  34042  287.58 0861.80
2015 04 09 14 28 42 .06    -275     47    -35    279    282 279.7  -7.2  34052  287.75 0861.80
2015 04 09 14 28 42 .31    -295     79    -39    306    309 285.1  -7.3  34034  287.43 0861.80
2015 04 09 14 28 42 .56    -282     66    -40    290    293 283.3  -8.0  34032  287.39 0861.80
2015 04 09 14 28 42 .81    -275     88    -40    289    292 287.8  -8.0  34048  287.66 0861.80
2015 04 09 14 28 43 .07    -280    107    -28    300    302 290.9  -5.4  34056  287.80 0861.80
2015 04 09 14 28 43 .33    -270    123    -26    297    299 294.6  -5.1  34070  288.04 0861.80
2015 04 09 14 28 43 .58    -261    110    -21    284    285 292.8  -4.4  34076  288.15 0861.80
2015 04 09 14 28 43 .83    -172      8    -49    173    179 272.8 -20.7  34202  290.30 0861.80
2015 04 09 14 28 44 .07    -326     24    -27    327    329 274.3  -4.9  34256  291.21 0861.80
2015 04 09 14 28 44 .33    -270     33    -57    273    280 277.0 -11.9  34256  291.19 0861.80
2015 04 09 14 28 44 .58    -226     47    -51    231    237 281.9 -12.6  34226  290.70 0861.80
2015 04 09 14 28 44 .83    -198     35    -45    202    208 280.1 -12.6  34258  291.23 0861.80
2015 04 09 14 28 45 .08     -59    -49     15     77     79 230.4  11.1  34252  291.15 0861.80
2015 04 09 14 28 45 .33     -20    -71     -2     74     75 196.0  -2.2  34232  290.81 0861.80
2015 04 09 14 28 45 .58     -67    -99     29    120    124 214.2  13.7  34242  290.98 0861.80
2015 04 09 14 28 45 .83     -95    -43     17    105    107 245.6   9.5  34226  290.69 0861.80
2015 04 09 14 28 46 .08     -63    -93     12    113    114 214.3   6.5  34216  290.52 0861.79
2015 04 09 14 28 46 .33    -202    -83    -58    219    227 247.6 -15.0  34156  289.50 0861.79
2015 04 09 14 28 46 .58    -183    -49    -45    190    196 255.0 -13.4  34146  289.33 0861.79
2015 04 09 14 28 46 .83     -50      8      0     51     52 279.7  -0.3  34162  289.62 0861.79
2015 04 09 14 28 47 .08    -125      0    -14    126    127 270.4  -6.7  34148  289.38 0861.79
2015 04 09 14 28 47 .33    -202    -15    -64    203    213 265.6 -17.5  34100  288.57 0861.79
2015 04 09 14 28 47 .59    -225      3    -28    226    228 270.9  -7.2  34112  288.75 0861.79
2015 04 09 14 28 47 .83    -247    -26    -36    249    252 263.9  -8.3  34122  288.92 0861.80
2015 04 09 14 28 48 .08    -273    -15    -55    274    280 266.7 -11.5  34098  288.51 0861.80
2015 04 09 14 28 48 .34    -242    -44    -57    246    253 259.6 -13.2  34112  288.76 0861.80
2015 04 09 14 28 48 .59    -156    -13      5    157    158 265.2   2.1  34154  289.46 0861.80
2015 04 09 14 28 48 .84    -168     13    -30    169    172 274.6 -10.3  34162  289.62 0861.80
2015 04 09 14 28 49 .09     -87     20    -11     90     91 283.3  -7.3  34172  289.77 0861.80
2015 04 09 14 28 49 .34    -245    -25    -31    247    250 264.1  -7.3  34194  290.15 0861.80
2015 04 09 14 28 49 .59     -57     -4     46     58     74 265.6  43.7  34196  290.19 0861.80
2015 04 09 14 28 49 .84     -77    -51    -13     93     94 236.3  -8.2  34202  290.28 0861.80
2015 04 09 14 28 50 .10       6     -7     32     10     33 140.4  80.7  34212  290.47 0861.80
2015 04 09 14 28 50 .35    -147      0    -73    148    165 270.0 -32.6  34202  290.28 0861.80
2015 04 09 14 28 50 .60    -137    -25    -18    140    142 259.4  -7.3  34236  290.86 0861.80
2015 04 09 14 28 50 .85    -173     -7    -39    174    179 267.6 -12.9  34248  291.06 0861.80
2015 04 09 14 28 51 .10    -185     -1    -17    186    187 269.4  -5.4  34240  290.92 0861.80
2015 04 09 14 28 51 .35    -111     39    -19    118    120 289.5  -9.4  34250  291.09 0861.80
2015 04 09 14 28 51 .60     -14     28      0     32     33 332.8  -1.3  34246  291.04 0861.80
2015 04 09 14 28 51 .85       7    -36     61     37     71 168.4  64.7  34264  291.35 0861.80
2015 04 09 14 28 52 .10    -115    -77    -42    139    146 236.3 -17.0  34296  291.89 0861.80
2015 04 09 14 28 52 .35     -66   -141     27    156    159 205.3  10.1  34306  292.06 0861.80
2015 04 09 14 28 52 .60     -44    -61     45     76     88 216.1  33.5  34306  292.05 0861.80
2015 04 09 14 28 52 .86     -93     -8    -28     94     98 264.8 -21.2  34266  291.37 0861.80
2015 04 09 14 28 53 .11    -112     46    -41    122    129 292.6 -18.7  34218  290.55 0861.80
2015 04 09 14 28 53 .36     -20     -8      5     22     23 248.3  13.2  34206  290.36 0861.80
2015 04 09 14 28 53 .61    -102    -68    -24    123    126 236.3 -11.3  34178  289.89 0861.80
2015 04 09 14 28 53 .86    -146   -105    -23    180    182 234.3  -7.3  34176  289.84 0861.80
2015 04 09 14 28 54 .11    -200    -95    -29    222    224 244.5  -7.7  34162  289.60 0861.80
2015 04 09 14 28 54 .37    -229    -90    -44    247    251 248.5 -10.1  34132  289.09 0861.80
2015 04 09 14 28 54 .61    -201   -136    -17    243    244 235.8  -4.1  34194  290.15 0861.80
2015 04 09 14 28 54 .86    -196   -178      2    265    266 227.8   0.5  34146  289.32 0861.80
2015 04 09 14 28 55 .11    -179   -127    -19    220    221 234.5  -5.1  34158  289.53 0861.80
2015 04 09 14 28 55 .36    -189     58    -47    198    204 287.1 -13.4  34210  290.43 0861.80
2015 04 09 14 28 55 .61     -70      5     13     71     73 274.3  11.0  34216  290.52 0861.80
2015 04 09 14 28 55 .86     -68    -82      4    107    108 219.6   2.3  34202  290.28 0861.80
2015 04 09 14 28 56 .11     -77    -51    -21     93     96 236.7 -12.9  34214  290.50 0861.80
2015 04 09 14 28 56 .36    -119    -57     -5    133    134 244.2  -2.2  34236  290.87 0861.80
2015 04 09 14 28 56 .61     -43    -13    -20     46     50 252.3 -30.6  34246  291.04 0861.80
2015 04 09 14 28 56 .86     -65    -25     11     70     71 248.3   9.0  34240  290.92 0861.80
2015 04 09 14 28 57 .12    -318   -209    -34    381    383 236.6  -5.2  34058  287.83 0861.80
2015 04 09 14 28 57 .38    -307   -178    -33    356    358 239.9  -5.4  34042  287.56 0861.80
2015 04 09 14 28 57 .62    -287   -182    -17    340    341 237.6  -3.0  34110  288.72 0861.80
2015 04 09 14 28 57 .88    -317   -172    -28    361    363 241.5  -4.5  34120  288.91 0861.80
2015 04 09 14 28 58 .13    -251   -195    -22    318    319 232.2  -4.1  34222  290.63 0861.80
2015 04 09 14 28 58 .38    -227    -90    -57    245    252 248.3 -13.3  34094  288.44 0861.80
2015 04 09 14 28 58 .63    -292    -41    -37    295    298 262.0  -7.3  34060  287.88 0861.80
2015 04 09 14 28 58 .88    -298    -71    -61    307    314 256.5 -11.3  34028  287.34 0861.80
2015 04 09 14 28 59 .13    -307    -94    -64    322    329 252.9 -11.3  34026  287.29 0861.80
2015 04 09 14 28 59 .38    -281   -101    -42    299    303 250.1  -8.0  34034  287.44 0861.80
2015 04 09 14 28 59 .63    -295   -104    -53    314    319 250.5  -9.6  34028  287.34 0861.80
2015 04 09 14 28 59 .88    -275   -100    -50    293    298 250.0  -9.8  34022  287.24 0861.80
2015 04 09 14 29 00 .13    -296   -110    -42    316    319 249.6  -7.7  34016  287.12 0861.80
2015 04 09 14 29 00 .38    -301   -119    -46    324    328 248.3  -8.2  34016  287.14 0861.80
2015 04 09 14 29 00 .63    -297   -118    -50    320    324 248.2  -8.9  34018  287.16 0861.80
2015 04 09 14 29 00 .88    -304   -155    -37    342    345 242.9  -6.3  34022  287.23 0861.80
2015 04 09 14 29 01 .13    -314   -129    -50    340    344 247.7  -8.4  34018  287.17 0861.80
2015 04 09 14 29 01 .38    -306   -130    -47    333    337 246.9  -8.1  34022  287.25 0861.80
2015 04 09 14 29 01 .63    -323   -117    -51    344    348 250.0  -8.6  34018  287.17 0861.80
2015 04 09 14 29 01 .89    -284   -133    -41    314    317 244.8  -7.5  34028  287.33 0861.80
2015 04 09 14 29 02 .14    -295    -69    -47    303    307 256.8  -8.8  34032  287.39 0861.80
2015 04 09 14 29 02 .39    -306    -75    -62    316    323 256.1 -11.1  34036  287.46 0861.80
2015 04 09 14 29 02 .64    -294    -41    -59    297    303 262.0 -11.3  34040  287.53 0861.80
2015 04 09 14 29 02 .89    -284    -48    -55    289    295 260.3 -10.9  34052  287.75 0861.80
2015 04 09 14 29 03 .14    -270    -70    -51    280    285 255.4 -10.5  34050  287.71 0861.80
2015 04 09 14 29 03 .39    -267    -65    -55    275    281 256.3 -11.5  34048  287.66 0861.80
2015 04 09 14 29 03 .64    -298    -84    -60    310    316 254.1 -11.0  34036  287.48 0861.80
2015 04 09 14 29 03 .89    -307    -77    -55    317    322 255.8  -9.9  34030  287.38 0861.80
2015 04 09 14 29 04 .15    -295    -84    -55    307    312 254.0 -10.2  34030  287.38 0861.80
2015 04 09 14 29 04 .40    -296    -93    -55    311    316 252.5 -10.1  34028  287.33 0861.80
2015 04 09 14 29 04 .65    -285    -95    -49    301    306 251.6  -9.3  34034  287.43 0861.80
2015 04 09 14 29 04 .90    -267    -97    -52    285    290 250.0 -10.4  34038  287.50 0861.80
2015 04 09 14 29 05 .15    -264   -108    -36    286    289 247.8  -7.2  34042  287.58 0861.80
2015 04 09 14 29 05 .40    -265   -143    -29    302    304 241.6  -5.6  34046  287.65 0861.80
2015 04 09 14 29 05 .65    -242   -131    -29    276    278 241.6  -6.1  34048  287.68 0861.80
2015 04 09 14 29 05 .91    -253    -88    -49    269    274 250.7 -10.5  34070  288.04 0861.80
2015 04 09 14 29 06 .16    -269    -54    -61    275    282 258.5 -12.6  34076  288.14 0861.80
2015 04 09 14 29 06 .41    -289    -44    -70    293    302 261.2 -13.4  34074  288.12 0861.80
2015 04 09 14 29 06 .66    -329    -53    -67    334    341 260.8 -11.3  34078  288.18 0861.80
2015 04 09 14 29 06 .91    -293   -127    -30    320    322 246.5  -5.5  34080  288.22 0861.80
2015 04 09 14 29 07 .16    -274    -64    -46    282    286 256.7  -9.3  34086  288.31 0861.80
2015 04 09 14 29 07 .41    -194     27    -39    197    201 278.1 -11.3  34078  288.20 0861.80
2015 04 09 14 29 07 .66    -295    -13    -59    296    302 267.4 -11.3  34050  287.70 0861.80
2015 04 09 14 29 07 .91    -304     23    -68    305    313 274.4 -12.7  34064  287.95 0861.80
2015 04 09 14 29 08 .16    -217     48    -28    223    225 282.6  -7.2  34090  288.38 0861.80
2015 04 09 14 29 08 .41    -257     27    -25    259    261 276.1  -5.6  34088  288.36 0861.80
2015 04 09 14 29 08 .66    -306     52    -65    311    318 279.7 -11.9  34100  288.54 0861.80
2015 04 09 14 29 08 .91    -214     -9    -30    215    218 267.5  -8.0  34098  288.53 0861.80
2015 04 09 14 29 09 .16    -259     36    -57    262    269 277.9 -12.4  34080  288.22 0861.80
2015 04 09 14 29 09 .41    -217     30    -18    220    221 278.0  -4.9  34106  288.67 0861.80
2015 04 09 14 29 09 .67    -109     -1     34    110    116 269.2  17.3  34124  288.96 0861.80
2015 04 09 14 29 09 .91     -94    -77    -42    122    129 230.5 -23.3  34146  289.35 0861.80
2015 04 09 14 29 10 .16    -298    -37    -71    301    310 262.9 -13.4  34038  287.51 0861.80
2015 04 09 14 29 10 .42    -248     27    -29    250    252 276.4  -6.7  34066  287.99 0861.80
2015 04 09 14 29 10 .67    -319      3    -72    320    329 270.7 -12.7  34074  288.10 0861.80
2015 04 09 14 29 10 .93    -281    -12    -46    282    286 267.4  -9.3  34082  288.26 0861.80
2015 04 09 14 29 11 .18    -277      0    -54    278    284 270.0 -11.1  34096  288.49 0861.80
2015 04 09 14 29 11 .43    -263     -9    -50    264    269 267.9 -10.9  34098  288.51 0861.80
2015 04 09 14 29 11 .68    -251      4    -36    252    255 271.0  -8.2  34086  288.31 0861.80
2015 04 09 14 29 11 .93    -234    -24    -48    236    241 263.9 -11.6  34088  288.36 0861.80
2015 04 09 14 29 12 .18    -250     -7    -55    251    258 268.3 -12.4  34078  288.19 0861.80
2015 04 09 14 29 12 .43    -273    -61    -36    280    283 257.4  -7.3  34046  287.65 0861.80
2015 04 09 14 29 12 .68    -261    -40    -58    265    272 261.2 -12.4  34034  287.43 0861.80
2015 04 09 14 29 12 .93    -211      3     -8    212    213 270.8  -2.3  34050  287.70 0861.81
2015 04 09 14 29 13 .18    -297      0    -71    298    307 270.0 -13.4  34032  287.39 0861.81
2015 04 09 14 29 13 .43    -291    -53    -53    296    301 259.5 -10.3  34040  287.53 0861.81
2015 04 09 14 29 13 .68    -252     -2    -53    253    259 269.4 -11.9  34040  287.55 0861.81
2015 04 09 14 29 13 .94    -248    -25    -36    250    253 264.1  -8.2  34048  287.68 0861.81
2015 04 09 14 29 14 .19    -215     19    -51    216    223 275.2 -13.4  34070  288.04 0861.81
2015 04 09 14 29 14 .43    -291     -8    -37    292    295 268.3  -7.3  34038  287.51 0861.81
2015 04 09 14 29 14 .68    -297    -32    -82    299    311 263.8 -15.4  34016  287.14 0861.81
2015 04 09 14 29 14 .93    -289    -37    -81    292    304 262.5 -15.5  34014  287.09 0861.81
2015 04 09 14 29 15 .18    -285     -4    -76    286    297 269.0 -15.0  34016  287.14 0861.81
2015 04 09 14 29 15 .44    -282     -8    -67    283    291 268.3 -13.4  34014  287.11 0861.81
2015 04 09 14 29 15 .69    -273    -19    -59    274    281 265.9 -12.2  34034  287.43 0861.81
2015 04 09 14 29 15 .94    -276    -25    -30    278    280 264.8  -6.2  34086  288.31 0861.81
2015 04 09 14 29 16 .19    -271    -82    -56    284    290 253.2 -11.3  34098  288.51 0861.81
2015 04 09 14 29 16 .43    -221     -4    -28    222    224 268.7  -7.3  34064  287.94 0861.81
2015 04 09 14 29 16 .69    -198    -45    -56    204    212 257.0 -15.5  34080  288.21 0861.81
2015 04 09 14 29 16 .94    -249    -47    -61    254    262 259.2 -13.7  34064  287.95 0861.81
2015 04 09 14 29 17 .19    -244    -33    -64    247    256 262.1 -14.7  34020  287.19 0861.81
2015 04 09 14 29 17 .44    -269    -20    -69    270    279 265.6 -14.5  34016  287.12 0861.81
2015 04 09 14 29 17 .69    -263    -28    -53    265    271 263.9 -11.3  34018  287.16 0861.81
2015 04 09 14 29 17 .95    -242    -44    -44    247    251 259.5 -10.1  34020  287.21 0861.81
2015 04 09 14 29 18 .20    -261    -53    -62    267    275 258.5 -13.2  34016  287.12 0861.81
2015 04 09 14 29 18 .45    -249    -51    -51    255    261 258.3 -11.5  34018  287.16 0861.81
2015 04 09 14 29 18 .71    -260    -65    -39    269    272 255.8  -8.3  34034  287.43 0861.81
2015 04 09 14 29 18 .96    -261    -11    -46    262    267 267.4 -10.1  34032  287.41 0861.81
2015 04 09 14 29 19 .21    -246    -40    -29    250    252 260.8  -6.7  34042  287.56 0861.81
2015 04 09 14 29 19 .45    -269    -40    -60    273    280 261.4 -12.4  34020  287.19 0861.81
2015 04 09 14 29 19 .71    -253    -51    -77    259    271 258.5 -16.5  34024  287.26 0861.81
2015 04 09 14 29 19 .95    -270    -39    -54    273    279 261.6 -11.3  34024  287.28 0861.81
2015 04 09 14 29 20 .21    -280    -18    -47    281    285 266.3  -9.6  34030  287.38 0861.80
2015 04 09 14 29 20 .46    -266    -17    -43    267    271 266.3  -9.3  34058  287.85 0861.80
2015 04 09 14 29 20 .71    -272    -20    -55    273    279 265.6 -11.5  34022  287.24 0861.80
2015 04 09 14 29 20 .96    -256    -60    -43    264    268 256.7  -9.3  34028  287.33 0861.80
2015 04 09 14 29 21 .21    -267    -55    -47    273    278 258.3  -9.8  34042  287.58 0861.80
2015 04 09 14 29 21 .46    -256    -48    -53    261    267 259.2 -11.5  34024  287.28 0861.80
2015 04 09 14 29 21 .71    -260    -64    -64    268    276 256.1 -13.4  34028  287.34 0861.80
2015 04 09 14 29 21 .96    -261    -75    -55    272    278 254.0 -11.5  34060  287.87 0861.81
2015 04 09 14 29 22 .21    -253    -26    -40    255    259 264.1  -9.0  34058  287.83 0861.81
2015 04 09 14 29 22 .46    -246    -41    -36    250    253 260.5  -8.3  34062  287.90 0861.81
2015 04 09 14 29 22 .71    -232    -24    -36    234    237 263.9  -8.8  34048  287.68 0861.81
2015 04 09 14 29 22 .97    -212    -43    -27    217    219 258.3  -7.3  34052  287.76 0861.81
2015 04 09 14 29 23 .21    -211    -43    -35    216    219 258.3  -9.4  34064  287.94 0861.81
2015 04 09 14 29 23 .47    -161     12    -35    162    166 274.6 -12.4  34066  287.99 0861.81
2015 04 09 14 29 23 .72    -212    -34    -39    215    219 260.8 -10.3  34068  288.03 0861.80
2015 04 09 14 29 23 .96    -224    -20    -51    225    231 264.8 -12.9  34072  288.09 0861.80
2015 04 09 14 29 24 .22    -211      1    -35    212    215 270.4  -9.4  34074  288.11 0861.80
2015 04 09 14 29 24 .47    -220    -10    -20    221    223 267.4  -5.4  34086  288.31 0861.80
2015 04 09 14 29 24 .72    -190     25    -18    192    193 277.7  -5.6  34106  288.67 0861.80
2015 04 09 14 29 24 .98    -232     -2    -36    233    236 269.4  -9.0  34096  288.49 0861.80
2015 04 09 14 29 25 .23    -233    -17    -46    234    239 265.6 -11.3  34074  288.10 0861.80
2015 04 09 14 29 25 .48    -231    -15    -25    232    234 266.3  -6.2  34096  288.49 0861.80
2015 04 09 14 29 25 .73    -241    -48    -38    246    249 258.5  -8.8  34104  288.63 0861.80
2015 04 09 14 29 25 .98    -226    -53    -36    233    236 256.7  -8.8  34074  288.12 0861.80
2015 04 09 14 29 26 .23    -215    -65    -38    225    229 253.2  -9.8  34074  288.13 0861.80
2015 04 09 14 29 26 .48    -221    -66    -36    231    234 253.4  -9.0  34070  288.05 0861.80
2015 04 09 14 29 26 .73    -233    -58    -44    241    245 255.9 -10.4  34082  288.26 0861.80
2015 04 09 14 29 26 .98    -254    -67    -48    263    268 255.2 -10.4  34080  288.22 0861.80
2015 04 09 14 29 27 .23    -252    -72    -43    263    267 254.0  -9.3  34062  287.90 0861.80
2015 04 09 14 29 27 .48    -252    -68    -53    262    268 254.9 -11.5  34074  288.12 0861.80
2015 04 09 14 29 27 .73    -257    -65    -54    266    272 255.8 -11.5  34062  287.90 0861.80
2015 04 09 14 29 27 .98    -263    -59    -63    270    278 257.2 -13.2  34070  288.04 0861.80
2015 04 09 14 29 28 .24    -232    -88    -37    249    252 249.2  -8.6  34176  289.83 0861.80
2015 04 09 14 29 28 .49    -215    -71    -11    227    228 251.6  -2.8  34164  289.63 0861.80
2015 04 09 14 29 28 .74    -187   -111    -19    218    219 239.3  -5.2  34170  289.75 0861.80
2015 04 09 14 29 28 .98    -236    -90    -26    253    255 248.9  -6.0  34094  288.46 0861.80
2015 04 09 14 29 29 .24    -228    -90    -50    246    252 248.5 -11.6  34054  287.78 0861.80
2015 04 09 14 29 29 .49    -221    -76    -33    234    237 250.9  -8.2  34056  287.82 0861.80
2015 04 09 14 29 29 .74    -215    -70    -46    227    232 251.8 -11.5  34060  287.89 0861.80
2015 04 09 14 29 29 .99    -229    -87    -44    246    250 249.2 -10.3  34060  287.88 0861.80
2015 04 09 14 29 30 .24    -228    -74    -52    240    246 251.8 -12.4  34052  287.73 0861.80
2015 04 09 14 29 30 .49    -216    -95    -32    237    240 246.3  -7.7  34048  287.68 0861.80
2015 04 09 14 29 30 .74    -250    -51    -52    256    262 258.3 -11.6  34062  287.90 0861.80
2015 04 09 14 29 30 .99    -227    -39    -60    231    239 260.1 -14.7  34066  287.97 0861.80
2015 04 09 14 29 31 .24    -226    -35    -49    229    235 261.0 -12.2  34066  287.97 0861.80
2015 04 09 14 29 31 .49    -210    -76    -30    224    227 250.0  -7.7  34058  287.84 0861.80
2015 04 09 14 29 31 .75    -225    -41    -46    229    234 259.6 -11.5  34074  288.11 0861.80
2015 04 09 14 29 32 .00    -223    -40    -54    227    234 259.6 -13.4  34082  288.25 0861.79
2015 04 09 14 29 32 .25    -212     -9    -59    213    222 267.4 -15.5  34080  288.23 0861.79
2015 04 09 14 29 32 .50    -202      3    -64    203    213 271.0 -17.5  34082  288.25 0861.79
2015 04 09 14 29 32 .76    -204    -23    -56    206    214 263.4 -15.4  34080  288.21 0861.79
2015 04 09 14 29 33 .01    -234    -15    -59    235    243 266.3 -14.3  34078  288.19 0861.79
2015 04 09 14 29 33 .26    -227     13    -32    228    231 273.3  -8.0  34092  288.43 0861.79
2015 04 09 14 29 33 .51    -223     -1    -53    224    231 269.6 -13.4  34094  288.47 0861.79
2015 04 09 14 29 33 .76    -234      3    -69    235    245 270.8 -16.4  34096  288.48 0861.80
2015 04 09 14 29 34 .01    -189      3    -17    190    191 271.0  -5.4  34120  288.91 0861.80
2015 04 09 14 29 34 .26    -141     11    -23    142    144 274.8  -9.3  34126  289.01 0861.80
2015 04 09 14 29 34 .51    -102     30     -5    107    108 286.4  -3.1  34110  288.74 0861.80
2015 04 09 14 29 34 .76    -137    -12    -34    138    143 264.8 -13.9  34114  288.80 0861.80
2015 04 09 14 29 35 .01    -165    -54    -10    174    175 251.8  -3.3  34086  288.31 0861.80
2015 04 09 14 29 35 .26    -195    -63    -37    205    209 252.1 -10.3  34088  288.35 0861.80
2015 04 09 14 29 35 .51    -203    -55    -26    211    213 254.9  -7.2  34086  288.31 0861.80
2015 04 09 14 29 35 .76    -183    -53    -42    191    196 253.6 -12.6  34090  288.40 0861.80
2015 04 09 14 29 36 .01    -196    -59    -33    205    208 253.2  -9.3  34084  288.30 0861.80
2015 04 09 14 29 36 .27    -210    -81    -29    226    228 248.9  -7.3  34094  288.45 0861.80
2015 04 09 14 29 36 .52    -206    -95    -42    228    232 245.2 -10.5  34098  288.53 0861.80
2015 04 09 14 29 36 .77    -234    -63    -35    243    246 254.9  -8.3  34144  289.31 0861.80
2015 04 09 14 29 37 .01    -209    -52    -31    216    219 255.8  -8.2  34134  289.13 0861.80
2015 04 09 14 29 37 .27    -194    -37    -30    198    201 259.2  -8.6  34136  289.16 0861.81
2015 04 09 14 29 37 .52    -162     -2     -6    163    164 269.2  -2.3  34132  289.09 0861.81
2015 04 09 14 29 37 .77    -148     -9      1    149    150 266.5   0.7  34146  289.33 0861.81
2015 04 09 14 29 38 .02    -197    -14    -35    198    202 265.9 -10.1  34158  289.55 0861.81
2015 04 09 14 29 38 .27    -114     -4     22    115    118 267.9  11.1  34166  289.69 0861.81
2015 04 09 14 29 38 .52     -76      0      3     77     78 270.0   2.8  34168  289.72 0861.81
2015 04 09 14 29 38 .78     -32    -20     11     38     40 237.5  17.3  34176  289.84 0861.81
2015 04 09 14 29 39 .03    -123    -12    -28    124    128 264.3 -12.9  34190  290.09 0861.80
2015 04 09 14 29 39 .28     -91     22      2     94     95 283.7   1.8  34196  290.19 0861.80
2015 04 09 14 29 39 .53     -58     -9      7     59     60 260.3   6.9  34206  290.35 0861.80
2015 04 09 14 29 39 .78     -10     22     20     25     32 334.6  43.7  34210  290.43 0861.80
2015 04 09 14 29 40 .03     -62     20      3     66     67 288.2   2.9  34218  290.57 0861.80
2015 04 09 14 29 40 .28       0    -28     32     29     43 180.9  52.2  34218  290.57 0861.80
2015 04 09 14 29 40 .53     -71    -55    -41     90     98 232.2 -30.6  34188  290.04 0861.80
2015 04 09 14 29 40 .78     -98    -86     -5    131    132 228.7  -2.2  34156  289.52 0861.80
2015 04 09 14 29 41 .04     -62    -46      5     78     79 233.1   3.8  34182  289.96 0861.80
2015 04 09 14 29 41 .28     -21    -23     65     32     72 221.4  72.8  34214  290.48 0861.80
2015 04 09 14 29 41 .54     -33    -12     41     36     54 250.0  53.3  34222  290.64 0861.80
2015 04 09 14 29 41 .79     -23    -23     25     33     41 225.0  41.7  34226  290.70 0861.80
2015 04 09 14 29 42 .04     -50    -59     24     78     82 220.5  17.3  34248  291.06 0861.80
2015 04 09 14 29 42 .28     -48    -48     -3     69     70 225.0  -3.1  34194  290.16 0861.80
2015 04 09 14 29 42 .54    -102    -83     -8    132    133 230.9  -3.7  34124  288.96 0861.80
2015 04 09 14 29 42 .79     -31     -6      6     32     33 258.6  11.1  34172  289.79 0861.81
2015 04 09 14 29 43 .04     -14      8     -8     17     18 298.9 -27.4  34184  289.97 0861.81
2015 04 09 14 29 43 .29     -41      9    -35     43     55 282.4 -48.1  34190  290.09 0861.81
2015 04 09 14 29 43 .54       7    -11     14     14     19 147.5  50.1  34202  290.30 0861.81
2015 04 09 14 29 43 .79       0     -3     18      4     18 189.7  84.9  34232  290.79 0861.81
2015 04 09 14 29 44 .04     -17     22     36     28     45 322.2  58.5  34254  291.16 0861.81
2015 04 09 14 29 44 .29      -7     -8      0     11     12 223.2  -3.1  34262  291.30 0861.81
2015 04 09 14 29 44 .54     -18    -27      6     33     34 214.3  11.1  34246  291.04 0861.81
2015 04 09 14 29 44 .79     -24    -58     46     63     78 202.7  39.7  34212  290.45 0861.81
2015 04 09 14 29 45 .04     -28    -38     52     48     70 217.0  52.2  34226  290.70 0861.81
2015 04 09 14 29 45 .29     -35     11     25     37     44 288.2  36.5  34242  290.98 0861.81
2015 04 09 14 29 45 .55     -20    -19     34     28     44 226.7  55.4  34258  291.25 0861.81
2015 04 09 14 29 45 .81       2      5     67      6     67  25.4  90.0  34278  291.57 0861.81
2015 04 09 14 29 46 .05     -21     29     46     37     59 323.9  56.4  34266  291.38 0861.81
2015 04 09 14 29 46 .30     -96     72    -27    120    124 306.9 -12.9  34194  290.14 0861.81
2015 04 09 14 29 46 .56    -112     62    -41    129    136 298.9 -17.6  34186  290.01 0861.81
2015 04 09 14 29 46 .81    -124     90    -36    154    159 306.0 -13.2  34188  290.06 0861.81
2015 04 09 14 29 47 .06     -72     64     26     97    101 311.3  15.3  34178  289.87 0861.81
2015 04 09 14 29 47 .31     -88    -33     -6     95     96 249.2  -4.1  34172  289.77 0861.81
2015 04 09 14 29 47 .56     -27     25     12     37     39 313.1  18.4  34186  290.01 0861.81
2015 04 09 14 29 47 .81     -30     -9     23     32     39 253.2  39.7  34212  290.47 0861.81
2015 04 09 14 29 48 .06     -61      0     -8     62     63 270.8  -7.3  34230  290.75 0861.81
2015 04 09 14 29 48 .31     -32    -36     -8     49     50 222.3  -9.3  34236  290.87 0861.81
2015 04 09 14 29 48 .56     -94     -4    -26     95     99 267.4 -15.5  34232  290.79 0861.81
2015 04 09 14 29 48 .81     -78     26     35     83     90 288.4  24.6  34228  290.74 0861.81
2015 04 09 14 29 49 .06    -149     -9    -34    150    154 266.5 -12.9  34238  290.91 0861.81
2015 04 09 14 29 49 .31     -47     32    -19     58     61 304.2 -23.8  34246  291.03 0861.81
2015 04 09 14 29 49 .56     -42    -65     -7     78     79 212.6  -5.2  34246  291.03 0861.81
2015 04 09 14 29 49 .82    -135     -9     -6    136    137 266.1  -2.6  34208  290.38 0861.81
2015 04 09 14 29 50 .07    -107    -24    -25    110    113 257.2 -12.9  34240  290.92 0861.81
2015 04 09 14 29 50 .31     -27     17    -14     33     35 302.4 -27.4  34210  290.43 0861.81
2015 04 09 14 29 50 .56      -9     10    -16     14     21 316.6 -56.6  34196  290.18 0861.81
2015 04 09 14 29 50 .82     -82     54     34     99    105 303.7  18.9  34146  289.33 0861.81
2015 04 09 14 29 51 .07      -4     12     29     13     31 341.3  73.1  34170  289.74 0861.81
2015 04 09 14 29 51 .32     -19     65     -8     68     69 343.1  -7.2  34176  289.84 0861.81
2015 04 09 14 29 51 .57    -141    -11    -33    142    146 265.2 -13.3  34130  289.06 0861.81
2015 04 09 14 29 51 .82    -141     75    -53    160    169 298.0 -18.3  34088  288.35 0861.81
2015 04 09 14 29 52 .07    -150     15      4    151    152 276.1   1.8  34064  287.94 0861.81
2015 04 09 14 29 52 .32    -233      1    -45    234    239 270.4 -10.9  34050  287.70 0861.81
2015 04 09 14 29 52 .57    -275     12    -70    276    285 272.6 -14.3  34038  287.50 0861.81
2015 04 09 14 29 52 .83    -273    -21    -65    274    282 265.4 -13.4  34048  287.66 0861.81
2015 04 09 14 29 53 .08    -246     -5    -40    247    251 268.7  -9.3  34054  287.77 0861.81
2015 04 09 14 29 53 .33    -272     -4    -55    273    279 269.1 -11.5  34044  287.61 0861.81
2015 04 09 14 29 53 .58    -257     15    -61    258    266 273.5 -13.4  34036  287.48 0861.80
2015 04 09 14 29 53 .83    -266     19    -56    267    273 274.3 -11.9  34038  287.50 0861.80
2015 04 09 14 29 54 .08    -244     18    -65    245    254 274.3 -15.0  34038  287.51 0861.80
2015 04 09 14 29 54 .34    -241      7    -49    242    248 271.7 -11.6  34042  287.56 0861.80
2015 04 09 14 29 54 .59    -234     -2    -41    235    239 269.4 -10.1  34046  287.65 0861.80
2015 04 09 14 29 54 .84    -218     23    -45    220    225 276.1 -11.6  34042  287.57 0861.80
2015 04 09 14 29 55 .09    -179     36    -12    183    184 281.5  -3.9  34056  287.81 0861.80
2015 04 09 14 29 55 .34    -220     40    -50    224    230 280.4 -12.6  34044  287.62 0861.80
2015 04 09 14 29 55 .59    -241     52    -38    247    250 282.3  -8.8  34038  287.50 0861.80
2015 04 09 14 29 55 .84    -239     55    -31    246    248 283.0  -7.2  34038  287.51 0861.80
2015 04 09 14 29 56 .09    -235     32    -52    238    244 277.9 -12.4  34036  287.48 0861.80
2015 04 09 14 29 56 .34    -225     45    -56    230    237 281.5 -13.7  34036  287.46 0861.80
2015 04 09 14 29 56 .59    -246     39    -49    250    255 279.0 -11.1  34040  287.53 0861.80
2015 04 09 14 29 56 .84    -253     48    -30    258    260 280.8  -6.7  34044  287.61 0861.80
2015 04 09 14 29 57 .09    -269     49    -29    274    276 280.4  -6.1  34044  287.60 0861.81
2015 04 09 14 29 57 .34    -278     40    -46    281    285 278.4  -9.3  34042  287.56 0861.81
2015 04 09 14 29 57 .59    -248     22    -59    250    257 275.2 -13.4  34042  287.56 0861.81
2015 04 09 14 29 57 .84    -251     67    -50    260    265 285.0 -10.9  34038  287.50 0861.81
2015 04 09 14 29 58 .10    -264     53    -44    270    274 281.5  -9.4  34034  287.44 0861.81
2015 04 09 14 29 58 .35    -242     36    -26    245    247 278.6  -6.1  34038  287.50 0861.81
2015 04 09 14 29 58 .60    -271     35    -45    274    278 277.5  -9.4  34032  287.39 0861.81
2015 04 09 14 29 58 .84    -261     40    -38    265    268 278.8  -8.3  34034  287.44 0861.81
2015 04 09 14 29 59 .10    -269     39    -50    272    277 278.4 -10.5  34034  287.44 0861.81
2015 04 09 14 29 59 .35    -271     68    -46    280    284 284.1  -9.3  34032  287.39 0861.81
2015 04 09 14 29 59 .61    -296     60    -38    302    305 281.5  -7.3  34028  287.34 0861.81
2015 04 09 14 29 59 .86    -252     47    -56    257    264 280.6 -12.4  34030  287.38 0861.80
2015 04 09 14 30 00 .11    -221     37    -41    225    229 279.5 -10.5  34042  287.57 0861.80
2015 04 09 14 30 00 .36    -204     44    -26    209    211 282.4  -7.3  34042  287.59 0861.80
2015 04 09 14 30 00 .61    -239     11    -46    240    245 272.8 -10.9  34040  287.53 0861.80
2015 04 09 14 30 00 .86    -256     51    -67    262    271 281.4 -14.4  34032  287.41 0861.80
2015 04 09 14 30 01 .11    -258     38    -61    261    269 278.6 -13.3  34026  287.31 0861.80
2015 04 09 14 30 01 .36    -201     43    -42    206    211 282.2 -11.6  34034  287.43 0861.80
2015 04 09 14 30 01 .61    -154      4    -24    155    157 271.7  -8.8  34082  288.26 0861.80
2015 04 09 14 30 01 .86    -141     33    -34    145    149 283.3 -13.3  34108  288.70 0861.80
2015 04 09 14 30 02 .11    -143     -2     -8    144    145 269.2  -3.2  34088  288.36 0861.80
2015 04 09 14 30 02 .36    -139     45    -41    147    153 288.2 -15.8  34068  288.03 0861.80
2015 04 09 14 30 02 .61    -206    -33    -21    209    211 260.8  -6.0  34058  287.84 0861.81
2015 04 09 14 30 02 .87    -196      0    -16    197    198 270.0  -4.9  34060  287.89 0861.81
2015 04 09 14 30 03 .12    -193      1    -50    194    201 270.4 -14.7  34058  287.84 0861.81
2015 04 09 14 30 03 .37    -207     19    -41    208    213 275.5 -11.3  34044  287.62 0861.81
2015 04 09 14 30 03 .62    -231     36    -36    234    237 279.0  -8.8  34042  287.58 0861.81
2015 04 09 14 30 03 .87    -219     49    -38    225    229 282.6  -9.8  34078  288.20 0861.81
2015 04 09 14 30 04 .12    -232     35    -29    235    237 278.6  -7.2  34056  287.82 0861.81
2015 04 09 14 30 04 .37    -229     34    -44    232    237 278.6 -10.9  34038  287.51 0861.81
2015 04 09 14 30 04 .62    -242     44    -50    247    253 280.4 -11.6  34034  287.43 0861.81
2015 04 09 14 30 04 .87    -218     43    -49    223    229 281.4 -12.4  34034  287.43 0861.81
2015 04 09 14 30 05 .12    -216     37    -36    220    223 279.7  -9.3  34036  287.47 0861.81
2015 04 09 14 30 05 .37    -184     65    -37    196    200 289.5 -10.9  34038  287.50 0861.81
2015 04 09 14 30 05 .62    -181     61    -53    192    200 288.6 -15.5  34024  287.28 0861.81
2015 04 09 14 30 05 .87    -208     77    -52    223    230 290.4 -13.2  34026  287.30 0861.81
2015 04 09 14 30 06 .12    -198     90    -37    218    222 294.6  -9.8  34028  287.33 0861.80
2015 04 09 14 30 06 .37    -193     78    -25    209    211 292.2  -6.9  34034  287.43 0861.80
2015 04 09 14 30 06 .63    -179     86    -24    199    201 295.8  -6.9  34034  287.45 0861.80
2015 04 09 14 30 06 .88    -183     79    -34    200    204 293.5  -9.8  34026  287.30 0861.80
2015 04 09 14 30 07 .13    -167     76    -23    184    186 294.4  -7.3  34030  287.37 0861.80
2015 04 09 14 30 07 .38    -166     75    -32    183    186 294.4 -10.1  34030  287.38 0861.80
2015 04 09 14 30 07 .63    -172     82    -30    191    194 295.5  -9.0  34030  287.37 0861.80
2015 04 09 14 30 07 .89    -176     74    -34    192    196 292.8 -10.3  34026  287.30 0861.81
2015 04 09 14 30 08 .14    -174     70    -32    188    191 292.0  -9.8  34024  287.28 0861.81
2015 04 09 14 30 08 .39    -187     66    -24    199    201 289.5  -6.9  34028  287.33 0861.81
2015 04 09 14 30 08 .64    -177     58    -28    187    190 288.2  -8.6  34028  287.35 0861.81
2015 04 09 14 30 08 .89    -169     39    -19    174    176 283.3  -6.2  34030  287.37 0861.81
2015 04 09 14 30 09 .14    -129     48     -3    138    139 290.4  -1.3  34036  287.47 0861.81
2015 04 09 14 30 09 .39    -116     34    -11    121    122 286.4  -5.2  34040  287.54 0861.81
2015 04 09 14 30 09 .64    -138     32    -12    142    143 283.3  -5.2  34038  287.52 0861.81
2015 04 09 14 30 09 .89    -115     45    -13    124    125 291.7  -6.2  34042  287.59 0861.81
2015 04 09 14 30 10 .14    -117     29    -14    121    122 284.2  -6.7  34042  287.57 0861.81
2015 04 09 14 30 10 .39    -140     36    -18    145    147 284.6  -7.2  34030  287.38 0861.81
2015 04 09 14 30 10 .64    -144     63    -23    158    160 293.5  -8.6  34028  287.35 0861.81
2015 04 09 14 30 10 .89    -125     67     -7    143    144 298.4  -3.2  34044  287.62 0861.81
2015 04 09 14 30 11 .15    -118     61    -17    134    136 297.5  -7.2  34052  287.76 0861.81
2015 04 09 14 30 11 .39    -120     52    -25    131    134 293.5 -10.9  34056  287.81 0861.81
2015 04 09 14 30 11 .65    -105     57     -6    120    121 298.8  -3.1  34064  287.94 0861.81
2015 04 09 14 30 11 .90     -90     40    -21     99    102 294.0 -11.9  34074  288.11 0861.81
2015 04 09 14 30 12 .15     -86     28      5     91     92 288.2   3.3  34082  288.26 0861.81
2015 04 09 14 30 12 .40     -88      8    -23     89     92 275.2 -14.5  34090  288.38 0861.81
2015 04 09 14 30 12 .65     -93     35     -9    100    101 290.8  -5.2  34094  288.45 0861.81
2015 04 09 14 30 12 .90    -121     53    -26    133    136 293.5 -11.3  34074  288.13 0861.81
2015 04 09 14 30 13 .15    -110     37    -23    117    120 288.6 -11.3  34096  288.48 0861.81
2015 04 09 14 30 13 .40    -143     56     -6    154    155 291.7  -2.2  34060  287.89 0861.81
2015 04 09 14 30 13 .66    -140     56    -16    151    152 291.8  -6.2  34036  287.47 0861.81
2015 04 09 14 30 13 .91    -151     24    -20    153    155 279.2  -7.7  34044  287.60 0861.81
2015 04 09 14 30 14 .16    -165     39    -28    170    173 283.3  -9.3  34038  287.52 0861.81
2015 04 09 14 30 14 .41    -159     53    -21    168    170 288.4  -7.2  34036  287.49 0861.81
2015 04 09 14 30 14 .66    -167     44    -31    173    176 285.1 -10.3  34034  287.43 0861.81
2015 04 09 14 30 14 .91    -152     38     -5    157    158 284.2  -2.1  34044  287.62 0861.81
2015 04 09 14 30 15 .16    -150     50    -18    159    161 288.6  -6.7  34042  287.57 0861.81
2015 04 09 14 30 15 .41    -141     55    -25    152    155 291.3  -9.3  34036  287.49 0861.81
2015 04 09 14 30 15 .67    -111     52     -6    123    124 295.2  -3.2  34042  287.57 0861.81
2015 04 09 14 30 15 .92    -121     58    -26    135    138 295.8 -10.9  34034  287.45 0861.81
2015 04 09 14 30 16 .17     -89     31     -2     95     96 289.1  -1.8  34054  287.77 0861.81
2015 04 09 14 30 16 .41     -76     24      4     80     81 288.2   3.3  34052  287.76 0861.81
2015 04 09 14 30 16 .67     -95     32    -19    101    103 288.6 -10.9  34042  287.59 0861.81
2015 04 09 14 30 16 .92    -102     34    -26    108    112 288.6 -13.9  34042  287.57 0861.81
2015 04 09 14 30 17 .17     -90     28    -19     95     97 287.7 -11.5  34056  287.81 0861.81
2015 04 09 14 30 17 .42     -66      0     -2     67     68 269.2  -2.2  34066  287.99 0861.81
2015 04 09 14 30 17 .67     -70     13    -10     72     73 280.6  -8.2  34058  287.86 0861.81
2015 04 09 14 30 17 .92     -75     36     -4     84     85 295.8  -3.1  34072  288.08 0861.81
2015 04 09 14 30 18 .17     -40     49     -2     64     65 320.3  -2.2  34086  288.33 0861.81
2015 04 09 14 30 18 .42     -83     33    -11     90     91 291.7  -7.3  34104  288.64 0861.81
2015 04 09 14 30 18 .67    -115     -8    -14    116    117 265.7  -7.2  34102  288.60 0861.81
2015 04 09 14 30 18 .93     -93      7    -26     94     98 274.4 -15.5  34088  288.36 0861.81
2015 04 09 14 30 19 .17     -50     41      8     66     67 309.5   6.9  34130  289.08 0861.81
2015 04 09 14 30 19 .42     -22     17      1     28     29 307.8   2.9  34122  288.94 0861.81
2015 04 09 14 30 19 .67     -83    -34    -14     90     92 247.4  -9.3  34102  288.58 0861.81
2015 04 09 14 30 19 .92     -95      7    -19     96     98 274.4 -11.3  34094  288.45 0861.81
2015 04 09 14 30 20 .18     -99     20    -34    101    107 281.5 -18.7  34064  287.96 0861.81
2015 04 09 14 30 20 .42     -88     19    -19     91     94 282.4 -11.9  34074  288.13 0861.81
2015 04 09 14 30 20 .69     -80     25    -18     84     87 287.7 -12.4  34080  288.23 0861.81
2015 04 09 14 30 20 .94     -64     49      0     81     82 307.3  -0.3  34110  288.72 0861.81
2015 04 09 14 30 21 .19     -39     32    -16     51     53 309.6 -23.8  34122  288.94 0861.81
2015 04 09 14 30 21 .44    -101      8    -15    102    104 274.8  -8.8  34114  288.80 0861.82
2015 04 09 14 30 21 .68    -129     -5    -10    130    131 267.5  -4.6  34080  288.23 0861.82
2015 04 09 14 30 21 .93    -126    -31    -44    130    138 255.8 -18.7  34028  287.35 0861.82
2015 04 09 14 30 22 .19    -146    -29    -32    149    153 258.5 -12.2  34096  288.50 0861.82
2015 04 09 14 30 22 .44    -149     -4    -35    150    155 268.3 -13.4  34098  288.52 0861.82
2015 04 09 14 30 22 .69    -155    -21    -25    157    160 262.1  -9.3  34074  288.13 0861.82
2015 04 09 14 30 22 .94    -143     12    -28    144    147 274.8 -11.3  34044  287.62 0861.82
2015 04 09 14 30 23 .19    -137     -1    -38    138    144 269.2 -15.5  34030  287.37 0861.81
2015 04 09 14 30 23 .44    -132    -10    -38    133    139 265.7 -16.0  34034  287.43 0861.81
2015 04 09 14 30 23 .69    -110    -15    -27    112    116 262.0 -13.9  34060  287.89 0861.81
2015 04 09 14 30 23 .95    -178     41    -10    183    184 283.0  -3.1  34086  288.31 0861.81
2015 04 09 14 30 24 .19    -180     16    -42    181    186 275.2 -13.2  34098  288.52 0861.81
2015 04 09 14 30 24 .44    -172     -9    -22    173    175 267.0  -7.3  34104  288.62 0861.81
2015 04 09 14 30 24 .69    -160      4    -20    161    163 271.7  -7.3  34112  288.77 0861.81
2015 04 09 14 30 24 .95    -134    -10      0    135    136 265.7   0.2  34114  288.79 0861.81
2015 04 09 14 30 25 .20    -116     23    -18    119    121 281.5  -8.8  34110  288.74 0861.81
2015 04 09 14 30 25 .45     -59      7     -2     60     61 277.0  -2.2  34118  288.86 0861.81
2015 04 09 14 30 25 .70     -77    -44     -1     89     90 240.2  -0.7  34126  288.99 0861.81
2015 04 09 14 30 25 .95     -94    -22    -44     97    106 256.3 -30.6  34142  289.28 0861.81
2015 04 09 14 30 26 .20     -36    -43      0     57     58 219.6   0.8  34162  289.62 0861.81
2015 04 09 14 30 26 .45     -22     47     17     53     56 334.6  18.4  34166  289.69 0861.81
2015 04 09 14 30 26 .70     -25     69     -2     74     75 340.0  -2.2  34168  289.72 0861.81
2015 04 09 14 30 26 .95     -69     18    -21     72     75 285.0 -21.7  34172  289.77 0861.81
2015 04 09 14 30 27 .20     -18      8     14     21     25 295.3  35.6  34184  289.97 0861.81
2015 04 09 14 30 27 .46       7      4      1      9     10  61.1  11.1  34186  290.01 0861.81
2015 04 09 14 30 27 .71     -65     -4    -36     66     75 266.5 -35.8  34156  289.50 0861.81
2015 04 09 14 30 27 .96     -44     87     13     98     99 332.8   8.0  34172  289.79 0861.81
2015 04 09 14 30 28 .21    -173     88    -33    195    198 296.9  -9.6  34076  288.14 0861.81
2015 04 09 14 30 28 .46    -156     55    -19    166    168 289.7  -6.7  34068  288.01 0861.81
2015 04 09 14 30 28 .71    -152     88     -6    176    177 300.2  -2.2  34062  287.92 0861.81
2015 04 09 14 30 28 .97    -158     66    -22    172    174 292.8  -7.3  34074  288.13 0861.81
2015 04 09 14 30 29 .22    -131     17     -5    133    134 277.5  -2.2  34112  288.75 0861.81
2015 04 09 14 30 29 .47     -89     20    -11     92     93 282.8  -7.3  34120  288.91 0861.81
2015 04 09 14 30 29 .72     -64     25     14     69     71 291.7  12.2  34140  289.24 0861.81
2015 04 09 14 30 29 .97     -33    -45     34     56     65 216.1  35.5  34158  289.53 0861.81
2015 04 09 14 30 30 .22      -9      1     16     10     18 281.5  64.7  34144  289.31 0861.81
2015 04 09 14 30 30 .47       0    -20     38     21     43 182.7  68.8  34164  289.63 0861.81
2015 04 09 14 30 30 .71     -30    -22     18     38     42 234.0  27.2  34168  289.70 0861.81
2015 04 09 14 30 30 .97     -18    -59     12     62     64 196.9  11.1  34164  289.65 0861.81
2015 04 09 14 30 31 .22       6      0      7      7      9  85.6  50.1  34182  289.96 0861.80
2015 04 09 14 30 31 .47      -9    -21    -10     24     26 203.6 -27.4  34198  290.23 0861.80
2015 04 09 14 30 31 .72    -195     31    -42    198    203 279.2 -12.2  34062  287.92 0861.80
2015 04 09 14 30 31 .97    -139      0    -44    140    146 270.0 -23.3  34082  288.26 0861.80
2015 04 09 14 30 32 .22     -65     30      4     72     73 295.4   3.8  34158  289.53 0861.80
2015 04 09 14 30 32 .48    -148      4    -25    149    152 271.7  -9.8  34100  288.55 0861.80
2015 04 09 14 30 32 .72    -175      7     -6    176    177 272.4  -2.2  34120  288.89 0861.80
2015 04 09 14 30 32 .98    -130     77      1    152    153 300.6   0.7  34128  289.02 0861.80
2015 04 09 14 30 33 .22    -162     45    -21    169    171 285.7  -7.2  34088  288.36 0861.81
2015 04 09 14 30 33 .47    -135     45    -18    143    145 288.4  -7.2  34088  288.36 0861.81
2015 04 09 14 30 33 .72    -144     12     -2    145    146 274.8  -1.2  34080  288.23 0861.81
2015 04 09 14 30 33 .98    -148     32    -16    152    153 282.4  -6.2  34082  288.25 0861.81
2015 04 09 14 30 34 .23    -109     22     -4    112    113 281.4  -2.2  34112  288.75 0861.81
2015 04 09 14 30 34 .49     -96     39    -20    104    106 292.2 -10.9  34106  288.65 0861.81
2015 04 09 14 30 34 .74    -112     37     -6    119    120 288.6  -3.2  34108  288.69 0861.81
2015 04 09 14 30 34 .99    -161     56    -17    171    172 289.3  -6.0  34090  288.40 0861.80
2015 04 09 14 30 35 .24    -153     68    -24    168    170 294.0  -8.2  34058  287.84 0861.80
2015 04 09 14 30 35 .49    -103     16     -3    105    106 279.2  -1.8  34074  288.11 0861.80
2015 04 09 14 30 35 .74     -42     -5    -14     43     45 262.1 -23.8  34090  288.40 0861.80
2015 04 09 14 30 35 .99      11    -35      5     37     38 161.7   9.0  34124  288.97 0861.80
2015 04 09 14 30 36 .24      -8    -25     11     27     29 198.7  21.0  34122  288.92 0861.80
2015 04 09 14 30 36 .49     -82     29    -32     88     93 289.5 -24.4  34122  288.92 0861.80
2015 04 09 14 30 36 .74     -27     48     -4     56     57 331.0  -4.1  34126  288.99 0861.81
2015 04 09 14 30 36 .99     -34     62    -28     72     77 331.0 -26.4  34116  288.82 0861.81
2015 04 09 14 30 37 .24       2     17    -16     18     24   8.0 -54.4  34120  288.91 0861.81
2015 04 09 14 30 37 .50     -73     10    -15     74     76 277.9 -11.5  34124  288.96 0861.81
2015 04 09 14 30 37 .74    -131     27    -20    134    136 281.9  -8.8  34094  288.45 0861.81
2015 04 09 14 30 37 .99    -190     39    -39    195    199 281.7 -11.3  34078  288.20 0861.81
2015 04 09 14 30 38 .24    -173     40    -32    178    181 283.0 -10.3  34062  287.92 0861.81
2015 04 09 14 30 38 .50    -130     15    -37    131    137 277.0 -16.0  34064  287.94 0861.81
2015 04 09 14 30 38 .74    -119      5    -41    120    126 272.6 -23.3  34046  287.65 0861.81
2015 04 09 14 30 39 .00    -100     20    -28    103    107 281.5 -15.4  34042  287.57 0861.81
2015 04 09 14 30 39 .25    -141     -5    -39    142    148 267.9 -15.4  34032  287.40 0861.81
2015 04 09 14 30 39 .49    -138      1    -38    139    145 270.8 -15.5  34034  287.43 0861.81
2015 04 09 14 30 39 .75    -127     20    -35    129    134 279.2 -15.4  34030  287.38 0861.81
2015 04 09 14 30 40 .00    -122      7    -39    123    130 273.5 -17.6  34034  287.43 0861.81
2015 04 09 14 30 40 .25    -135     -6    -27    136    139 267.4 -11.5  34032  287.42 0861.81
2015 04 09 14 30 40 .50    -140    -17    -38    142    148 263.0 -15.0  34034  287.43 0861.81
2015 04 09 14 30 40 .75    -144     -2    -41    145    151 269.2 -15.8  34034  287.43 0861.81
2015 04 09 14 30 41 .00    -150      3    -39    151    156 271.3 -14.5  34038  287.52 0861.81
2015 04 09 14 30 41 .25    -180    -28    -49    183    190 261.0 -15.2  34044  287.62 0861.81
2015 04 09 14 30 41 .51    -196    -44    -28    202    205 257.2  -8.0  34046  287.65 0861.81
2015 04 09 14 30 41 .76    -217    -30    -39    220    224 262.1 -10.1  34058  287.86 0861.81
2015 04 09 14 30 42 .02    -200    -41    -43    205    210 258.3 -11.9  34070  288.04 0861.81
2015 04 09 14 30 42 .26    -231      7    -46    232    237 271.9 -11.3  34064  287.95 0861.81
2015 04 09 14 30 42 .52    -222     35    -62    225    234 279.0 -15.4  34058  287.84 0861.81
2015 04 09 14 30 42 .77    -202     32    -59    205    213 279.2 -21.2  34052  287.76 0861.81
2015 04 09 14 30 43 .02    -176      0    -48    177    184 269.9 -15.4  34066  287.98 0861.81
2015 04 09 14 30 43 .27    -115     17     33    117    122 278.4  15.8  34082  288.26 0861.81
2015 04 09 14 30 43 .52    -184     15    -48    185    192 274.8 -14.5  34052  287.76 0861.81
2015 04 09 14 30 43 .77    -190     15    -45    191    197 274.8 -13.3  34058  287.84 0861.81
2015 04 09 14 30 44 .02    -178     14    -37    179    183 274.8 -11.9  34062  287.92 0861.81
2015 04 09 14 30 44 .27    -165     -6    -21    166    168 267.6  -7.3  34066  287.98 0861.81
2015 04 09 14 30 44 .52    -157     20    -28    159    162 277.5 -10.3  34070  288.04 0861.81
2015 04 09 14 30 44 .77    -168     30    -23    171    173 280.1  -7.7  34070  288.06 0861.81
2015 04 09 14 30 45 .02    -156      8    -25    157    160 273.0  -9.3  34074  288.13 0861.81
2015 04 09 14 30 45 .27    -176      3    -14    177    178 271.0  -4.6  34076  288.14 0861.81
2015 04 09 14 30 45 .52    -163     -6    -16    164    165 267.9  -5.6  34082  288.25 0861.81
2015 04 09 14 30 45 .77    -174     64    -23    186    188 290.2  -7.3  34082  288.26 0861.80
2015 04 09 14 30 46 .02    -156     25    -25    159    161 279.2  -9.0  34078  288.20 0861.80
2015 04 09 14 30 46 .27    -180     44    -32    186    189 283.9  -9.8  34076  288.14 0861.80
2015 04 09 14 30 46 .52    -158     36    -13    163    164 282.8  -4.9  34088  288.36 0861.80
2015 04 09 14 30 46 .77     -92     28     14     97     99 286.8   8.5  34106  288.67 0861.80
2015 04 09 14 30 47 .03     -52      8     -2     53     54 279.7  -2.2  34114  288.79 0861.80
2015 04 09 14 30 47 .28     -88     64      5    109    110 306.0   2.8  34112  288.77 0861.80
2015 04 09 14 30 47 .53     -86     12    -12     87     88 278.4  -8.2  34128  289.04 0861.80
2015 04 09 14 30 47 .78    -106    -51    -15    118    119 244.2  -7.3  34128  289.04 0861.80
2015 04 09 14 30 48 .03    -143     -2    -28    144    147 269.2 -11.3  34114  288.80 0861.80
2015 04 09 14 30 48 .29    -171     47    -48    178    185 285.5 -15.2  34082  288.25 0861.80
2015 04 09 14 30 48 .54    -229     32    -33    232    235 278.0  -8.3  34102  288.58 0861.80
2015 04 09 14 30 48 .79    -223     19    -32    224    227 275.0  -8.2  34112  288.77 0861.80
2015 04 09 14 30 49 .04    -143     12    -28    144    147 274.8 -11.3  34118  288.86 0861.80
2015 04 09 14 30 49 .29    -188     26    -35    190    194 278.0 -10.5  34064  287.94 0861.80
2015 04 09 14 30 49 .54    -144     49    -35    153    157 289.1 -12.9  34074  288.11 0861.80
2015 04 09 14 30 49 .79    -151    -12    -21    152    154 265.2  -8.0  34074  288.13 0861.80
2015 04 09 14 30 50 .04     -69     23     14     73     75 288.6  11.1  34088  288.36 0861.80
2015 04 09 14 30 50 .30    -224     12    -32    225    228 273.3  -8.2  34078  288.18 0861.80
2015 04 09 14 30 50 .54    -250     55    -45    257    262 282.4 -10.1  34050  287.71 0861.80
2015 04 09 14 30 50 .79    -271     77    -78    282    293 286.0 -15.5  34058  287.85 0861.80
2015 04 09 14 30 51 .04    -241     61    -69    249    259 284.4 -15.5  34064  287.93 0861.80
2015 04 09 14 30 51 .29    -242     53    -63    248    257 282.4 -14.4  34066  287.97 0861.80
2015 04 09 14 30 51 .55    -189     47    -46    195    201 284.2 -13.3  34070  288.06 0861.80
2015 04 09 14 30 51 .80    -217     18    -56    218    226 274.8 -14.5  34064  287.94 0861.80
2015 04 09 14 30 52 .05    -230     46    -55    235    242 281.5 -13.3  34060  287.88 0861.80
2015 04 09 14 30 52 .30    -200     58    -18    209    210 286.2  -5.2  34060  287.87 0861.80
2015 04 09 14 30 52 .54    -216     66    -63    227    236 287.1 -15.5  34036  287.49 0861.80
2015 04 09 14 30 52 .79    -225     67    -55    235    242 286.8 -13.3  34034  287.44 0861.80
2015 04 09 14 30 53 .05    -192     51    -47    199    205 285.0 -13.4  34028  287.33 0861.80
2015 04 09 14 30 53 .30    -184     56    -42    193    198 287.1 -12.4  34036  287.49 0861.80
2015 04 09 14 30 53 .55    -171     41    -11    176    177 283.5  -3.7  34052  287.76 0861.80
2015 04 09 14 30 53 .80    -135      0     -3    136    137 270.0  -1.3  34058  287.86 0861.80
2015 04 09 14 30 54 .05    -141     41    -24    147    150 286.4  -9.4  34046  287.65 0861.80
2015 04 09 14 30 54 .30    -134     53      3    145    146 291.7   1.2  34058  287.86 0861.80
2015 04 09 14 30 54 .55    -213     31    -49    216    222 278.4 -12.9  34044  287.60 0861.80
2015 04 09 14 30 54 .80    -215     41    -36    219    222 280.8  -9.3  34034  287.43 0861.80
2015 04 09 14 30 55 .05    -225     39    -29    229    231 279.9  -7.3  34030  287.38 0861.80
2015 04 09 14 30 55 .31    -217     25    -36    219    222 276.8  -9.3  34022  287.25 0861.80
2015 04 09 14 30 55 .56    -201      1    -33    202    205 270.4  -9.3  34030  287.38 0861.80
2015 04 09 14 30 55 .82    -197     15    -55    198    206 274.4 -15.5  34044  287.62 0861.80
2015 04 09 14 30 56 .07    -154     -4     -7    155    156 268.3  -2.6  34068  288.03 0861.80
2015 04 09 14 30 56 .32    -168     -2    -44    169    175 269.2 -14.7  34054  287.79 0861.80
2015 04 09 14 30 56 .57    -170     -5    -47    171    178 268.3 -15.5  34082  288.25 0861.80
2015 04 09 14 30 56 .82    -174    -13    -31    175    178 265.6 -10.3  34040  287.54 0861.80
2015 04 09 14 30 57 .07    -158    -24    -29    160    163 261.2 -10.3  34044  287.62 0861.80
2015 04 09 14 30 57 .32    -122     17    -39    124    131 277.9 -17.5  34102  288.60 0861.80
2015 04 09 14 30 57 .57    -155     -2    -38    156    161 269.1 -13.7  34068  288.03 0861.80
2015 04 09 14 30 57 .82     -83     13      4     85     86 279.2   3.3  34086  288.33 0861.80
2015 04 09 14 30 58 .07    -135     -6    -27    136    139 267.4 -11.5  34050  287.72 0861.80
2015 04 09 14 30 58 .32    -120      3    -16    121    123 271.7  -7.7  34048  287.67 0861.80
2015 04 09 14 30 58 .57    -148      4    -25    149    152 271.7  -9.8  34050  287.70 0861.80
2015 04 09 14 30 58 .82    -164      0    -36    165    169 270.0 -12.4  34040  287.54 0861.80
2015 04 09 14 30 59 .07    -161      0    -42    162    168 270.1 -14.7  34026  287.30 0861.80
2015 04 09 14 30 59 .32    -164      4    -38    165    170 271.5 -13.2  34026  287.30 0861.80
2015 04 09 14 30 59 .57    -160     19    -34    162    166 277.0 -11.9  34028  287.35 0861.80
2015 04 09 14 30 59 .82    -152      9    -41    153    159 273.5 -15.0  34028  287.33 0861.80
2015 04 09 14 31 00 .07    -145     -7    -41    146    152 267.0 -15.8  34028  287.33 0861.80
2015 04 09 14 31 00 .32    -134    -11    -35    135    140 265.2 -14.5  34030  287.38 0861.80
2015 04 09 14 31 00 .57    -139     -6    -42    140    147 267.4 -17.0  34030  287.37 0861.80
2015 04 09 14 31 00 .82    -139     -6    -42    140    147 267.4 -17.0  34030  287.37 0861.80
2015 04 09 14 31 01 .07    -136     -9    -38    137    143 266.1 -15.5  34028  287.35 0861.80
2015 04 09 14 31 01 .33    -135     -6    -27    136    139 267.4 -11.5  34032  287.42 0861.80
2015 04 09 14 31 01 .58    -141      2    -45    142    150 270.8 -17.6  34034  287.43 0861.80
2015 04 09 14 31 01 .83    -127     11    -35    128    133 275.2 -15.5  34044  287.60 0861.80
2015 04 09 14 31 02 .08    -149     21    -24    151    154 278.0  -9.3  34036  287.49 0861.80
2015 04 09 14 31 02 .34    -129      7    -30    130    134 273.5 -13.3  34040  287.55 0861.80
2015 04 09 14 31 02 .59    -132      1    -35    133    138 270.8 -15.0  34040  287.54 0861.80
2015 04 09 14 31 02 .84    -139     19    -28    141    144 278.0 -11.5  34040  287.54 0861.80
2015 04 09 14 31 03 .09    -136     27    -31    139    143 281.4 -12.9  34050  287.70 0861.80
2015 04 09 14 31 03 .34    -139     32    -13    143    144 283.2  -5.6  34066  287.99 0861.80
2015 04 09 14 31 03 .59    -145     29    -13    148    149 281.4  -5.2  34070  288.04 0861.80
2015 04 09 14 31 03 .84    -137     33    -28    141    144 283.7 -11.3  34064  287.94 0861.80
2015 04 09 14 31 04 .09    -128     36    -27    134    137 285.9 -11.5  34060  287.89 0861.80
2015 04 09 14 31 04 .34    -133     25    -22    136    138 281.0  -9.4  34054  287.79 0861.80
2015 04 09 14 31 04 .60    -121     16    -22    123    125 277.9 -10.3  34050  287.72 0861.80
2015 04 09 14 31 04 .84    -119     25    -21    122    124 281.9  -9.8  34054  287.79 0861.80
2015 04 09 14 31 05 .09    -106     27    -24    110    113 284.6 -12.4  34064  287.96 0861.80
2015 04 09 14 31 05 .34    -103     25    -21    106    109 283.7 -11.5  34054  287.79 0861.80
2015 04 09 14 31 05 .59    -100     20    -19    103    105 281.5 -10.9  34056  287.81 0861.79
2015 04 09 14 31 05 .85     -84     24    -23     88     92 285.9 -15.0  34058  287.86 0861.79
2015 04 09 14 31 06 .10     -83     23    -24     87     91 285.9 -15.5  34068  288.03 0861.79
2015 04 09 14 31 06 .35     -74     24    -15     79     81 288.4 -10.9  34072  288.09 0861.79
2015 04 09 14 31 06 .60     -93     12    -14     94     96 277.9  -8.8  34058  287.84 0861.79
2015 04 09 14 31 06 .85     -96     12      4     97     98 277.5   2.9  34072  288.08 0861.79
2015 04 09 14 31 07 .10    -102     26    -10    106    107 284.6  -5.6  34062  287.91 0861.79
2015 04 09 14 31 07 .35    -109     38    -19    116    118 289.5  -9.4  34058  287.86 0861.80
2015 04 09 14 31 07 .60    -107     40    -14    115    116 290.8  -7.2  34068  288.03 0861.80
2015 04 09 14 31 07 .85    -121     24     -8    124    125 281.4  -3.7  34060  287.89 0861.80
2015 04 09 14 31 08 .10    -121     29    -16    125    127 283.7  -7.7  34058  287.84 0861.80
2015 04 09 14 31 08 .35     -90     30    -12     95     96 288.6  -7.3  34070  288.04 0861.80
2015 04 09 14 31 08 .60    -105     33     -2    111    112 287.7  -1.2  34068  288.03 0861.80
2015 04 09 14 31 08 .85    -108     16    -19    110    112 278.8  -9.8  34066  287.98 0861.80
2015 04 09 14 31 09 .10    -115      3     -1    116    117 271.7  -0.7  34066  287.98 0861.81
2015 04 09 14 31 09 .37    -112     29    -14    116    117 284.6  -7.3  34102  288.60 0861.81
2015 04 09 14 31 09 .62     -33     21     25     40     47 303.3  35.5  34122  288.92 0861.81
2015 04 09 14 31 09 .87    -122     49    -26    132    135 291.8 -11.3  34120  288.89 0861.81
2015 04 09 14 31 10 .12    -169     20    -16    171    172 277.0  -5.6  34076  288.14 0861.81
2015 04 09 14 31 10 .37    -188     26    -35    190    194 278.0 -10.5  34070  288.06 0861.81
2015 04 09 14 31 10 .62    -181     44    -24    187    189 283.9  -7.3  34070  288.06 0861.81
2015 04 09 14 31 10 .87    -188     39    -32    193    196 281.9  -9.6  34072  288.08 0861.81
2015 04 09 14 31 11 .12    -188     33    -32    191    194 280.1  -9.6  34074  288.13 0861.81
2015 04 09 14 31 11 .37    -168     34    -24    172    174 281.7  -8.0  34082  288.26 0861.81
2015 04 09 14 31 11 .62    -200     40    -13    205    206 281.5  -3.7  34088  288.35 0861.81
2015 04 09 14 31 11 .87    -180     31    -35    183    187 279.9 -10.9  34108  288.70 0861.81
2015 04 09 14 31 12 .12    -172     55    -22    181    183 287.7  -7.2  34098  288.52 0861.81
2015 04 09 14 31 12 .37    -161     40    -18    167    169 284.2  -6.2  34100  288.57 0861.81
2015 04 09 14 31 12 .62    -166     40    -22    171    173 283.7  -7.3  34110  288.72 0861.80
2015 04 09 14 31 12 .87    -134      4    -17    135    137 272.1  -7.3  34110  288.74 0861.80
2015 04 09 14 31 13 .12    -108     -1     -4    109    110 269.1  -2.2  34106  288.65 0861.80
2015 04 09 14 31 13 .38    -191     14    -49    192    199 274.3 -14.3  34062  287.92 0861.80
2015 04 09 14 31 13 .63    -200     27    -51    202    209 277.9 -14.3  34064  287.94 0861.80
2015 04 09 14 31 13 .88    -195     22    -42    197    202 276.6 -12.2  34068  288.03 0861.80
2015 04 09 14 31 14 .13    -213     58    -21    221    223 285.3  -5.6  34066  287.99 0861.80
2015 04 09 14 31 14 .37    -167     66    -62    180    191 291.7 -19.1  34054  287.79 0861.80
2015 04 09 14 31 14 .63    -204     75    -35    218    221 290.2  -9.3  34054  287.79 0861.80
2015 04 09 14 31 14 .88    -202     58    -19    211    212 286.2  -5.2  34062  287.91 0861.80
2015 04 09 14 31 15 .13    -186     49    -40    193    198 284.8 -11.9  34048  287.67 0861.80
2015 04 09 14 31 15 .38    -186     42    -50    191    198 282.8 -14.7  34060  287.89 0861.80
2015 04 09 14 31 15 .63    -204     40    -38    208    212 281.2 -10.5  34090  288.40 0861.80
2015 04 09 14 31 15 .88    -181     48    -34    188    192 285.1 -10.3  34056  287.82 0861.80
2015 04 09 14 31 16 .14    -185     56    -47    194    200 286.8 -13.7  34058  287.86 0861.80
2015 04 09 14 31 16 .39    -185     52    -30    193    196 285.9  -8.8  34060  287.89 0861.80
2015 04 09 14 31 16 .64    -173     40    -39    178    183 283.0 -12.4  34048  287.67 0861.80
2015 04 09 14 31 16 .89    -165     44    -33    171    175 285.1 -10.9  34050  287.70 0861.80
2015 04 09 14 31 17 .14    -159     29    -42    162    168 280.4 -14.7  34046  287.65 0861.80
2015 04 09 14 31 17 .39    -142     23    -39    144    150 279.2 -15.4  34048  287.67 0861.80
2015 04 09 14 31 17 .64    -140     40    -40    146    152 285.9 -15.5  34050  287.70 0861.80
2015 04 09 14 31 17 .89    -133     53    -51    144    153 291.7 -19.7  34052  287.76 0861.80
2015 04 09 14 31 18 .15    -127     11    -46    128    137 275.2 -19.7  34050  287.72 0861.80
2015 04 09 14 31 18 .40    -133     12    -17    134    136 275.2  -7.3  34070  288.04 0861.80
2015 04 09 14 31 18 .65    -118     16    -21    120    122 277.9 -10.3  34060  287.89 0861.80
2015 04 09 14 31 18 .90    -114     44     -2    123    124 291.3  -1.2  34088  288.35 0861.80
2015 04 09 14 31 19 .15    -100     40    -23    108    111 291.8 -12.4  34084  288.30 0861.80
2015 04 09 14 31 19 .40     -86     32    -15     92     94 290.4  -9.8  34114  288.80 0861.80
2015 04 09 14 31 19 .65     -59     -8    -16     60     63 262.0 -15.5  34122  288.92 0861.80
2015 04 09 14 31 19 .90     -92      0    -34     93     99 269.6 -24.8  34108  288.70 0861.80
2015 04 09 14 31 20 .15     -76     48    -14     90     92 302.4  -8.8  34112  288.77 0861.80
2015 04 09 14 31 20 .40     -36     37     15     53     56 315.8  16.3  34124  288.96 0861.80
2015 04 09 14 31 20 .65     -53      0     -2     54     55 270.0  -2.2  34108  288.70 0861.80
2015 04 09 14 31 20 .90    -110     17    -13    112    113 278.8  -6.7  34092  288.43 0861.80
2015 04 09 14 31 21 .15    -107     12    -23    108    111 276.6 -12.4  34068  288.03 0861.80
2015 04 09 14 31 21 .40     -52     36     12     64     66 305.1  11.1  34086  288.31 0861.80
2015 04 09 14 31 21 .65     -39     35     -2     53     54 312.2  -2.2  34092  288.42 0861.79
2015 04 09 14 31 21 .90    -133     72    -37    152    157 298.4 -13.7  34046  287.65 0861.79
2015 04 09 14 31 22 .16    -164     63    -30    176    179 291.1  -9.8  34060  287.89 0861.79
2015 04 09 14 31 22 .40    -179     66    -26    191    193 290.4  -8.0  34066  287.98 0861.79
2015 04 09 14 31 22 .66    -189     64    -32    200    203 288.8  -9.3  34068  288.03 0861.79
2015 04 09 14 31 22 .91    -173     63    -32    185    188 290.2 -10.1  34072  288.08 0861.79
2015 04 09 14 31 23 .17    -183     83    -25    201    203 294.4  -7.2  34066  287.99 0861.79
2015 04 09 14 31 23 .42    -180     92    -25    203    205 297.0  -7.2  34060  287.89 0861.79
2015 04 09 14 31 23 .67    -180     64    -60    192    202 289.5 -17.5  34052  287.74 0861.79
2015 04 09 14 31 23 .92    -170     58    -46    180    186 288.8 -14.5  34052  287.74 0861.79
2015 04 09 14 31 24 .17    -159     66    -43    173    179 292.6 -13.9  34044  287.60 0861.79
2015 04 09 14 31 24 .42    -168     63    -36    180    184 290.6 -11.3  34048  287.69 0861.79
2015 04 09 14 31 24 .67    -178     71    -22    192    194 291.8  -6.7  34044  287.60 0861.79
2015 04 09 14 31 24 .92    -192     61    -21    202    204 287.7  -6.0  34048  287.69 0861.79
2015 04 09 14 31 25 .17    -172     68    -28    186    189 291.7  -8.8  34044  287.62 0861.79
2015 04 09 14 31 25 .42    -169     72    -20    184    186 293.3  -6.2  34048  287.67 0861.79
2015 04 09 14 31 25 .67    -160     86    -24    182    184 298.2  -7.7  34048  287.69 0861.79
2015 04 09 14 31 25 .92    -144     85    -32    168    172 300.7 -10.9  34050  287.70 0861.79
2015 04 09 14 31 26 .17    -143     83    -29    166    169 300.2 -10.1  34048  287.69 0861.79
2015 04 09 14 31 26 .42    -134     92    -27    163    166 304.4  -9.6  34046  287.65 0861.79
2015 04 09 14 31 26 .67    -149     83    -27    171    174 299.3  -9.0  34046  287.65 0861.79
2015 04 09 14 31 26 .92    -147     54    -52    157    166 290.2 -18.3  34050  287.70 0861.79
2015 04 09 14 31 27 .18    -153     68    -23    168    170 294.0  -8.0  34048  287.69 0861.79
2015 04 09 14 31 27 .43    -131     72    -30    150    154 298.8 -11.5  34050  287.70 0861.79
2015 04 09 14 31 27 .68    -120     67    -26    138    141 299.3 -10.9  34056  287.81 0861.79
2015 04 09 14 31 27 .93    -116     68    -12    135    136 300.6  -5.2  34060  287.89 0861.79
2015 04 09 14 31 28 .18     -99     59     -1    116    117 301.1  -0.7  34062  287.91 0861.79
2015 04 09 14 31 28 .43     -60     81     11    101    102 323.5   6.5  34072  288.09 0861.79
2015 04 09 14 31 28 .68     -46     89      5    101    102 332.8   2.9  34080  288.23 0861.79
2015 04 09 14 31 28 .93    -113     80    -42    139    146 305.5 -17.0  34068  288.03 0861.79
2015 04 09 14 31 29 .18    -131     92     -6    161    162 305.1  -2.2  34066  287.98 0861.79
2015 04 09 14 31 29 .44    -120     99    -16    156    157 309.5  -6.0  34078  288.18 0861.79
2015 04 09 14 31 29 .68    -148     78     -9    168    169 298.0  -3.3  34078  288.20 0861.79
2015 04 09 14 31 29 .93    -127     58    -42    140    147 294.8 -17.0  34072  288.09 0861.79
2015 04 09 14 31 30 .19    -128     57    -44    141    148 294.0 -17.5  34066  287.99 0861.79
2015 04 09 14 31 30 .44    -132     67    -41    149    154 297.1 -20.2  34064  287.96 0861.79
2015 04 09 14 31 30 .70    -111     72    -13    133    134 302.9  -5.6  34076  288.16 0861.79
2015 04 09 14 31 30 .95     -80     73     -6    109    110 312.7  -3.1  34076  288.14 0861.79
2015 04 09 14 31 31 .20     -95     55     -4    111    112 300.2  -2.2  34068  288.01 0861.79
2015 04 09 14 31 31 .45     -79     50    -24     94     98 302.5 -14.5  34058  287.86 0861.79
2015 04 09 14 31 31 .70     -97     61    -28    115    119 302.4 -13.9  34056  287.81 0861.79
2015 04 09 14 31 31 .94    -107     89    -49    140    148 309.6 -23.8  34052  287.76 0861.79
2015 04 09 14 31 32 .19     -94    107    -39    143    149 318.5 -15.5  34048  287.67 0861.79
2015 04 09 14 31 32 .45    -110     92    -24    144    147 310.0  -9.8  34046  287.65 0861.79
2015 04 09 14 31 32 .70    -110     92    -24    144    147 310.0  -9.8  34046  287.65 0861.79
2015 04 09 14 31 32 .95    -103     77     -5    129    130 306.9  -2.2  34050  287.70 0861.79
2015 04 09 14 31 33 .20     -87     72     -4    114    115 309.6  -2.2  34060  287.89 0861.79
2015 04 09 14 31 33 .45     -77     69     -4    104    105 312.2  -2.2  34056  287.81 0861.79
2015 04 09 14 31 33 .70     -65     72      5     98     99 318.1   3.3  34076  288.14 0861.79
2015 04 09 14 31 33 .95     -71     69     13    100    101 314.0   7.5  34080  288.23 0861.79
2015 04 09 14 31 34 .20    -109     85    -10    139    140 307.8  -4.1  34072  288.08 0861.79
2015 04 09 14 31 34 .45     -79     80     -3    113    114 315.3  -1.8  34088  288.36 0861.79
2015 04 09 14 31 34 .70     -63     77     -3    100    101 320.4  -2.2  34094  288.45 0861.79
2015 04 09 14 31 34 .95     -50     69      2     86     87 324.4   1.8  34098  288.53 0861.79
2015 04 09 14 31 35 .20     -91     85     -4    125    126 313.1  -2.2  34088  288.35 0861.79
2015 04 09 14 31 35 .46    -102    102    -23    145    147 315.1  -9.3  34086  288.31 0861.79
2015 04 09 14 31 35 .70    -105     81     -7    133    134 307.8  -3.1  34092  288.43 0861.79
2015 04 09 14 31 35 .96     -90     73     -6    117    118 309.1  -3.1  34092  288.42 0861.79
2015 04 09 14 31 36 .21     -99     86      6    132    133 310.9   2.8  34094  288.47 0861.79
2015 04 09 14 31 36 .46     -68     77     -2    103    104 318.6  -1.3  34088  288.36 0861.79
2015 04 09 14 31 36 .71     -46     73     21     87     90 327.9  13.7  34104  288.64 0861.79
2015 04 09 14 31 36 .97     -48     58     26     76     81 320.4  19.4  34096  288.50 0861.79
2015 04 09 14 31 37 .22     -67     67     26     95     99 315.0  15.3  34096  288.48 0861.79
2015 04 09 14 31 37 .47     -80     90      4    121    122 318.1   2.3  34090  288.38 0861.79
2015 04 09 14 31 37 .72    -127     80    -19    151    153 302.4  -7.2  34098  288.53 0861.79
2015 04 09 14 31 37 .97    -100     68    -14    121    122 304.2  -6.7  34096  288.50 0861.78
2015 04 09 14 31 38 .22     -97     64      1    117    118 303.3   0.8  34114  288.79 0861.78
2015 04 09 14 31 38 .47    -117     60    -14    132    133 297.1  -6.2  34136  289.18 0861.78
2015 04 09 14 31 38 .72    -100     63    -24    119    122 302.5 -11.5  34138  289.21 0861.78
2015 04 09 14 31 38 .97     -39     83     -4     92     93 334.6  -2.6  34142  289.26 0861.78
2015 04 09 14 31 39 .22     -46     89      5    101    102 332.8   2.9  34144  289.30 0861.78
2015 04 09 14 31 39 .48     -97     48      8    109    110 296.6   4.4  34150  289.41 0861.78
2015 04 09 14 31 39 .73     -94     60    -31    112    117 302.5 -15.5  34152  289.43 0861.78
2015 04 09 14 31 39 .98     -89     58    -28    107    111 303.3 -15.0  34174  289.82 0861.78
2015 04 09 14 31 40 .23    -115     55    -11    128    129 295.8  -5.1  34162  289.62 0861.78
2015 04 09 14 31 40 .48    -113     89     -5    145    146 308.2  -2.2  34176  289.84 0861.78
2015 04 09 14 31 40 .73    -142    104    -20    177    179 306.4  -6.5  34162  289.60 0861.78
2015 04 09 14 31 40 .98    -176    108    -20    207    209 301.5  -5.6  34126  289.01 0861.78
2015 04 09 14 31 41 .23    -153     87    -26    177    180 299.8  -8.6  34090  288.40 0861.78
2015 04 09 14 31 41 .48    -170     95    -59    196    204 299.3 -21.7  34116  288.82 0861.78
2015 04 09 14 31 41 .73    -149    114     18    188    189 307.5   5.7  34130  289.08 0861.78
2015 04 09 14 31 41 .98     -84     89     14    123    124 316.7   6.9  34136  289.18 0861.78
2015 04 09 14 31 42 .23     -41     57      8     71     72 323.9   6.9  34122  288.92 0861.78
2015 04 09 14 31 42 .48     -71     45    -36     85     92 302.4 -28.5  34120  288.89 0861.78
2015 04 09 14 31 42 .73     -84     -5    -34     85     91 266.5 -26.9  34136  289.18 0861.78
2015 04 09 14 31 42 .98     -21    -21     42     31     52 225.0  59.4  34164  289.65 0861.78
2015 04 09 14 31 43 .23     -96    -61    -27    114    118 237.6 -13.4  34140  289.23 0861.78
2015 04 09 14 31 43 .48     -93     -7    -17     94     96 265.2 -10.3  34114  288.79 0861.78
2015 04 09 14 31 43 .74    -125    -65      8    142    143 242.5   3.3  34102  288.58 0861.78
2015 04 09 14 31 44 .00    -213    -44    -49    218    224 258.3 -12.9  34078  288.18 0861.78
2015 04 09 14 31 44 .25    -177    -48    -27    184    187 254.7  -8.6  34104  288.62 0861.78
2015 04 09 14 31 44 .50    -153    -64    -32    167    171 247.2 -11.1  34136  289.16 0861.78
2015 04 09 14 31 44 .75    -149    -50    -34    158    162 251.4 -12.2  34132  289.11 0861.78
2015 04 09 14 31 45 .00     -56    -42     -2     70     71 233.1  -2.2  34136  289.18 0861.78
2015 04 09 14 31 45 .25     -95    -46    -25    106    109 243.8 -13.4  34142  289.26 0861.78
2015 04 09 14 31 45 .50     -86    -94    -15    128    129 222.3  -6.7  34158  289.55 0861.78
2015 04 09 14 31 45 .75     -90    -83     -4    123    124 227.3  -2.2  34156  289.52 0861.78
2015 04 09 14 31 46 .00    -125    -85    -14    152    153 235.8  -5.6  34142  289.28 0861.78
2015 04 09 14 31 46 .25     -82    -37     15     91     93 245.6   9.5  34172  289.79 0861.78
2015 04 09 14 31 46 .50     -33    -12     27     36     45 250.0  40.7  34186  290.02 0861.78
2015 04 09 14 31 46 .75    -114    -71    -15    135    136 238.0  -6.7  34146  289.33 0861.78
2015 04 09 14 31 47 .00    -101    -52    -16    114    116 242.5  -8.2  34146  289.33 0861.78
2015 04 09 14 31 47 .25    -119    -65    -22    136    138 241.2  -9.3  34154  289.46 0861.78
2015 04 09 14 31 47 .50     -71    -77      7    105    106 222.8   3.8  34158  289.53 0861.78
2015 04 09 14 31 47 .75    -103    -41    -22    111    114 248.3 -11.3  34158  289.53 0861.78
2015 04 09 14 31 48 .00    -131   -101     -9    166    167 232.2  -3.1  34196  290.19 0861.78
2015 04 09 14 31 48 .25     -69    -58    -10     91     92 230.0  -6.7  34170  289.74 0861.78
2015 04 09 14 31 48 .51     -18     -7     31     20     36 248.3  64.7  34178  289.89 0861.78
2015 04 09 14 31 48 .75     -47     31     12     57     59 303.3  12.2  34208  290.40 0861.78
2015 04 09 14 31 49 .01     -99     33    -34    105    110 288.4 -23.8  34194  290.14 0861.78
2015 04 09 14 31 49 .26     -22     17     43     28     51 307.8  64.6  34230  290.75 0861.78
2015 04 09 14 31 49 .51       5     47     18     48     51   7.1  21.0  34218  290.57 0861.78
2015 04 09 14 31 49 .76     -21     29     -3     36     37 323.9  -5.2  34226  290.70 0861.78
2015 04 09 14 31 50 .01    -101      1      9    102    103 270.8   5.4  34210  290.43 0861.78
2015 04 09 14 31 50 .26     -81     -8    -22     82     86 264.3 -15.4  34180  289.92 0861.78
2015 04 09 14 31 50 .51     -18      6     24     19     30 288.6  56.4  34220  290.60 0861.78
2015 04 09 14 31 50 .76     -71      6     -3     72     73 275.2  -3.1  34218  290.55 0861.78
2015 04 09 14 31 51 .02     -30      5     -4     31     32 279.7  -7.3  34244  290.99 0861.78
2015 04 09 14 31 51 .27     -26    -17     -1     32     33 235.8  -2.2  34272  291.49 0861.78
2015 04 09 14 31 51 .52     -33      1    -19     34     38 272.6 -35.8  34240  290.92 0861.77
2015 04 09 14 31 51 .78     -41     34    -34     54     63 309.5 -39.9  34212  290.47 0861.77
2015 04 09 14 31 52 .02       0      1    -14      2     14 341.5 -90.0  34236  290.87 0861.77
2015 04 09 14 31 52 .28      26     17     11     32     34  57.5  18.9  34248  291.08 0861.77
2015 04 09 14 31 52 .53       0    -28     45     29     53 180.9  64.6  34244  291.01 0861.77
2015 04 09 14 31 52 .77     -30     20    -10     37     38 304.2 -21.7  34234  290.82 0861.77
2015 04 09 14 31 53 .02     -21     24      9     33     35 318.6  15.3  34212  290.47 0861.77
2015 04 09 14 31 53 .27    -122     -1    -16    123    125 269.2  -7.7  34158  289.53 0861.78
2015 04 09 14 31 53 .52     -56      7    -21     57     60 277.9 -25.4  34142  289.28 0861.78
2015 04 09 14 31 53 .78     -67      7    -11     68     69 276.1  -9.3  34142  289.28 0861.78
2015 04 09 14 31 54 .03     -74     33    -14     82     84 294.0  -9.8  34186  290.02 0861.78
2015 04 09 14 31 54 .28     -34     40     41     53     67 319.5  41.7  34212  290.45 0861.78
2015 04 09 14 31 54 .53     -47      8     34     48     58 280.6  38.6  34226  290.70 0861.78
2015 04 09 14 31 54 .78     -49     31     59     59     83 302.4  50.1  34202  290.30 0861.78
2015 04 09 14 31 55 .03     -55     51     86     76    114 313.1  53.7  34158  289.55 0861.78
2015 04 09 14 31 55 .28     -29     46     50     55     74 327.4  47.9  34164  289.65 0861.78
2015 04 09 14 31 55 .53      -6     46     32     47     56 352.0  36.5  34168  289.70 0861.78
2015 04 09 14 31 55 .78     -48     48     48     69     84 315.0  38.0  34156  289.52 0861.78
2015 04 09 14 31 56 .03     -40     64     27     76     80 327.4  20.0  34164  289.65 0861.78
2015 04 09 14 31 56 .28     -86    110     19    140    142 322.1   8.0  34158  289.55 0861.78
2015 04 09 14 31 56 .53    -113     76     -2    137    138 303.7  -1.2  34144  289.31 0861.78
2015 04 09 14 31 56 .79     -74     79     27    109    113 316.8  14.3  34152  289.43 0861.78
2015 04 09 14 31 57 .03    -142     79    -33    163    167 299.3 -11.6  34138  289.21 0861.78
2015 04 09 14 31 57 .29    -137     80    -20    159    161 300.4  -7.5  34142  289.26 0861.78
2015 04 09 14 31 57 .54    -152     56    -22    163    165 290.4  -7.7  34140  289.24 0861.78
2015 04 09 14 31 57 .79    -184     76    -17    200    201 292.4  -5.1  34134  289.14 0861.78
2015 04 09 14 31 58 .05    -159     64    -23    172    174 292.2  -7.7  34130  289.08 0861.78
2015 04 09 14 31 58 .30    -164     88    -29    187    190 298.2  -8.8  34120  288.91 0861.78
2015 04 09 14 31 58 .55    -180     71    -31    194    197 291.7  -9.3  34114  288.80 0861.78
2015 04 09 14 31 58 .80    -199     66    -26    210    212 288.6  -7.2  34146  289.35 0861.78
2015 04 09 14 31 59 .05    -202     72    -35    215    218 289.7  -9.3  34156  289.52 0861.78
2015 04 09 14 31 59 .30    -194     72    -24    207    209 290.4  -6.7  34162  289.62 0861.78
2015 04 09 14 31 59 .55    -193     81    -24    210    212 292.8  -6.7  34158  289.53 0861.78
2015 04 09 14 31 59 .80    -176     90    -27    198    201 297.1  -8.0  34128  289.04 0861.78
2015 04 09 14 32 00 .06    -191    107    -28    219    221 299.3  -7.3  34122  288.92 0861.78
2015 04 09 14 32 00 .30    -182    116    -17    217    218 302.5  -4.6  34128  289.04 0861.78
2015 04 09 14 32 00 .55    -163     91    -21    187    189 299.3  -6.5  34118  288.86 0861.78
2015 04 09 14 32 00 .80    -213      8    -87    214    231 272.4 -27.5  34066  287.99 0861.78
2015 04 09 14 32 01 .05    -174     32    -79    177    193 280.6 -30.3  34048  287.69 0861.78
2015 04 09 14 32 01 .30    -161    -12    -46    162    168 265.6 -20.7  34134  289.14 0861.78
2015 04 09 14 32 01 .55    -156    -11    -54    157    166 265.6 -23.6  34082  288.25 0861.78
2015 04 09 14 32 01 .81    -136    -12    -49    137    146 264.8 -19.7  34108  288.69 0861.78
2015 04 09 14 32 02 .06    -148    -25    -34    151    155 260.4 -12.9  34150  289.40 0861.78
2015 04 09 14 32 02 .30    -141    -41    -29    147    150 253.6 -11.5  34094  288.45 0861.78
2015 04 09 14 32 02 .56    -115    -32    -28    120    124 254.5 -13.3  34096  288.48 0861.78
2015 04 09 14 32 02 .81     -95      7     -5     96     97 274.4  -3.1  34110  288.74 0861.78
2015 04 09 14 32 03 .06    -104     28     -4    108    109 285.5  -2.2  34160  289.58 0861.79
2015 04 09 14 32 03 .31    -197     46    -35    203    207 283.3  -9.8  34130  289.06 0861.79
2015 04 09 14 32 03 .56    -209      7    -42    210    215 272.1 -11.5  34106  288.67 0861.79
2015 04 09 14 32 03 .81    -224     16    -55    225    232 274.3 -13.9  34030  287.37 0861.79
2015 04 09 14 32 04 .06    -214     21    -68    216    227 275.7 -17.6  34022  287.25 0861.78
2015 04 09 14 32 04 .31    -221     44    -61    226    235 281.4 -15.2  34024  287.27 0861.78
2015 04 09 14 32 04 .56    -245     26    -44    247    252 276.1 -10.3  34054  287.77 0861.78
2015 04 09 14 32 04 .83    -232     13    -36    233    236 273.3  -9.0  34044  287.60 0861.78
2015 04 09 14 32 05 .07    -243      0    -43    244    248 270.0 -10.1  34068  288.00 0861.78
2015 04 09 14 32 05 .33    -204    -30    -32    207    210 261.6  -8.8  34078  288.18 0861.78
2015 04 09 14 32 05 .58    -222      3    -20    223    224 270.9  -5.2  34082  288.26 0861.78
2015 04 09 14 32 05 .83    -177    -24    -21    179    181 262.1  -6.7  34080  288.21 0861.78
2015 04 09 14 32 06 .07     -97      7     -5     98     99 274.4  -3.1  34094  288.45 0861.78
2015 04 09 14 32 06 .32    -164      7    -29    165    168 272.6 -10.1  34054  287.79 0861.78
2015 04 09 14 32 06 .58    -135     44    -39    143    149 288.2 -15.5  34098  288.53 0861.78
2015 04 09 14 32 06 .83    -121     17     -6    123    124 278.0  -3.2  34134  289.13 0861.78
2015 04 09 14 32 07 .08    -149      9     -8    150    151 273.5  -3.1  34120  288.91 0861.78
2015 04 09 14 32 07 .33    -110     -2    -39    111    118 268.7 -19.7  34128  289.04 0861.78
2015 04 09 14 32 07 .58     -30    -38     17     49     52 217.8  19.4  34134  289.14 0861.78
2015 04 09 14 32 07 .83      -5    -59     49     60     77 185.3  43.7  34150  289.40 0861.78
2015 04 09 14 32 08 .08    -122    -49    -26    132    135 248.2 -11.5  34126  289.01 0861.78
2015 04 09 14 32 08 .33    -185    -87    -25    205    207 244.8  -7.2  34094  288.45 0861.78
2015 04 09 14 32 08 .58    -202    -68    -27    214    216 251.2  -7.3  34096  288.50 0861.79
2015 04 09 14 32 08 .83    -198    -21     -7    200    201 263.9  -2.3  34100  288.55 0861.79
2015 04 09 14 32 09 .09    -221    -44    -58    226    234 258.6 -14.5  34056  287.81 0861.79
2015 04 09 14 32 09 .33    -214    -28    -43    216    221 262.3 -11.3  34076  288.16 0861.79
2015 04 09 14 32 09 .58    -165    -24    -19    167    169 261.4  -6.5  34108  288.69 0861.79
2015 04 09 14 32 09 .83     -65     41     10     78     79 302.5   7.5  34126  288.99 0861.79
2015 04 09 14 32 10 .09     -93    -25    -17     97     99 254.9 -10.3  34120  288.91 0861.79
2015 04 09 14 32 10 .34    -253    -83    -69    267    276 251.8 -14.7  34112  288.76 0861.78
2015 04 09 14 32 10 .59    -289    -72    -47    298    302 255.8  -9.0  34124  288.95 0861.78
2015 04 09 14 32 10 .84    -233    -24    -36    235    238 263.9  -8.8  34128  289.03 0861.78
2015 04 09 14 32 11 .09    -126    -25    -16    129    131 258.6  -7.2  34140  289.24 0861.78
2015 04 09 14 32 11 .34    -194    -12    -61    195    205 266.3 -17.6  34150  289.40 0861.78
2015 04 09 14 32 11 .59    -260     27    -45    262    266 276.1  -9.8  34132  289.10 0861.78
2015 04 09 14 32 11 .85    -261     24    -48    263    268 275.3 -10.4  34148  289.36 0861.78
2015 04 09 14 32 12 .10    -153    -46     -3    160    161 253.1  -1.3  34172  289.79 0861.79
2015 04 09 14 32 12 .35    -224      8    -57    225    233 272.1 -14.3  34124  288.96 0861.79
2015 04 09 14 32 12 .60    -171    -55     -2    180    181 252.1  -0.7  34144  289.30 0861.79
2015 04 09 14 32 12 .85    -246    -61    -55    254    261 255.9 -12.4  34108  288.68 0861.79
2015 04 09 14 32 13 .11    -225    -47    -41    230    234 258.1 -10.3  34120  288.90 0861.79
2015 04 09 14 32 13 .35    -200     -2    -52    201    208 269.2 -14.7  34138  289.21 0861.79
2015 04 09 14 32 13 .60    -196    -24    -67    198    210 263.0 -18.7  34136  289.18 0861.79
2015 04 09 14 32 13 .85    -279    -87    -41    293    296 252.7  -8.0  34164  289.64 0861.79
2015 04 09 14 32 14 .11    -341   -107    -66    358    365 252.5 -10.5  34120  288.89 0861.79
2015 04 09 14 32 14 .35    -242   -153    -20    287    288 237.6  -4.1  34236  290.87 0861.79
2015 04 09 14 32 14 .60    -306   -164    -37    348    351 241.7  -6.2  34048  287.66 0861.79
2015 04 09 14 32 14 .86    -296   -151    -36    333    336 242.9  -6.2  34018  287.17 0861.79
2015 04 09 14 32 15 .11    -314   -115    -58    335    341 249.9  -9.9  34016  287.15 0861.79
2015 04 09 14 32 15 .36    -323    -93    -56    337    342 253.9  -9.5  34018  287.18 0861.79
2015 04 09 14 32 15 .61    -305   -109    -65    324    331 250.3 -11.5  34018  287.18 0861.79
2015 04 09 14 32 15 .86    -323   -113    -68    343    350 250.6 -11.3  34016  287.15 0861.79
2015 04 09 14 32 16 .11    -342   -116    -62    362    368 251.3  -9.8  34034  287.44 0861.79
2015 04 09 14 32 16 .36    -316   -115    -49    337    341 250.0  -8.4  34126  288.99 0861.79
2015 04 09 14 32 16 .61    -320   -107    -58    338    344 251.4  -9.8  34026  287.32 0861.79
2015 04 09 14 32 16 .86    -297   -118    -50    320    324 248.2  -8.9  34018  287.16 0861.79
2015 04 09 14 32 17 .11    -294   -104    -62    312    319 250.5 -11.2  34024  287.26 0861.79
2015 04 09 14 32 17 .36    -293    -90    -53    307    312 252.9  -9.8  34020  287.19 0861.79
2015 04 09 14 32 17 .61    -284    -57    -61    290    297 258.5 -11.9  34044  287.61 0861.79
2015 04 09 14 32 17 .86    -262    -80    -59    275    282 252.9 -12.2  34022  287.22 0861.79
2015 04 09 14 32 18 .11    -260    -99    -40    279    282 249.2  -8.3  34020  287.19 0861.79
2015 04 09 14 32 18 .36    -261   -103    -36    281    284 248.3  -7.5  34018  287.17 0861.79
2015 04 09 14 32 18 .61    -272    -94    -37    288    291 250.9  -7.3  34018  287.16 0861.79
2015 04 09 14 32 18 .88    -261   -103    -36    281    284 248.3  -7.5  34018  287.17 0861.79
2015 04 09 14 32 19 .12    -261   -103    -36    281    284 248.3  -7.5  34018  287.17 0861.79
2015 04 09 14 32 19 .38    -254   -113    -35    279    282 246.0  -7.3  34020  287.19 0861.79
2015 04 09 14 32 19 .63    -274    -98    -41    292    295 250.3  -8.0  34020  287.19 0861.79
2015 04 09 14 32 19 .88    -263   -107    -41    285    289 247.8  -8.2  34016  287.14 0861.79
2015 04 09 14 32 20 .13    -253   -114    -39    278    281 245.6  -8.0  34018  287.16 0861.78
2015 04 09 14 32 20 .38    -262   -116    -36    287    290 246.0  -7.3  34020  287.19 0861.78
2015 04 09 14 32 20 .63    -259   -123    -44    287    291 244.6  -8.8  34018  287.16 0861.78
2015 04 09 14 32 20 .88    -255   -102    -41    275    279 248.2  -8.6  34020  287.19 0861.78
2015 04 09 14 32 21 .13    -261   -108    -36    283    286 247.4  -7.3  34020  287.19 0861.78
2015 04 09 14 32 21 .38    -234    -95    -39    253    256 247.8  -8.8  34024  287.26 0861.78
2015 04 09 14 32 21 .63    -241    -90    -33    258    261 249.4  -7.5  34028  287.34 0861.78
2015 04 09 14 32 21 .88    -247    -96    -31    266    268 248.7  -6.7  34032  287.39 0861.78
2015 04 09 14 32 22 .13    -248    -94    -34    266    269 249.2  -7.3  34028  287.34 0861.78
2015 04 09 14 32 22 .38    -236    -77    -47    249    254 251.8 -10.9  34034  287.43 0861.78
2015 04 09 14 32 22 .63    -215    -58    -30    223    226 254.9  -7.7  34052  287.74 0861.78
2015 04 09 14 32 22 .89    -202    -22    -33    204    207 263.8  -9.3  34062  287.91 0861.78
2015 04 09 14 32 23 .13    -188    -49    -42    195    200 255.4 -12.4  34056  287.81 0861.78
2015 04 09 14 32 23 .39    -185     -9    -37    186    190 267.0 -11.3  34042  287.59 0861.78
2015 04 09 14 32 23 .64    -213   -101    -63    236    245 244.5 -15.0  34062  287.90 0861.78
2015 04 09 14 32 23 .89    -220    -30    -29    223    225 262.1  -7.5  34080  288.21 0861.78
2015 04 09 14 32 24 .14    -253    -95    -34    271    274 249.4  -7.2  34106  288.65 0861.78
2015 04 09 14 32 24 .39    -265    -82    -45    278    282 252.7  -9.3  34040  287.53 0861.78
2015 04 09 14 32 24 .64    -278    -96    -48    295    300 250.9  -9.3  34038  287.50 0861.78
2015 04 09 14 32 24 .89    -262   -113    -47    286    290 246.7  -9.3  34076  288.14 0861.78
2015 04 09 14 32 25 .14    -222   -122    -32    254    257 241.1  -7.2  34076  288.14 0861.78
2015 04 09 14 32 25 .39    -200    -84    -27    217    219 247.2  -7.3  34100  288.57 0861.78
2015 04 09 14 32 25 .66    -190   -104    -23    217    219 241.1  -6.2  34124  288.97 0861.78
2015 04 09 14 32 25 .90    -163   -134      4    212    213 230.5   1.2  34140  289.24 0861.78
2015 04 09 14 32 26 .15    -163   -118    -11    202    203 234.0  -3.2  34174  289.82 0861.78
2015 04 09 14 32 26 .41    -225   -106    -13    249    250 244.8  -3.2  34204  290.32 0861.78
2015 04 09 14 32 26 .65    -195   -110     -8    225    226 240.5  -2.2  34148  289.36 0861.78
2015 04 09 14 32 26 .90    -216   -132    -18    254    255 238.5  -4.1  34168  289.70 0861.78
2015 04 09 14 32 27 .15    -232    -72    -72    244    255 252.7 -16.6  34022  287.22 0861.78
2015 04 09 14 32 27 .41    -231    -64    -71    240    251 254.3 -16.6  34036  287.48 0861.77
2015 04 09 14 32 27 .65    -312    -78    -46    322    326 255.8  -8.2  34108  288.68 0861.77
2015 04 09 14 32 27 .90    -294    -54    -38    299    302 259.5  -7.3  34056  287.80 0861.77
2015 04 09 14 32 28 .16    -302    -61   -106    309    327 258.6 -19.0  34068  288.02 0861.77
2015 04 09 14 32 28 .41    -188     -2    -12    189    190 269.1  -3.7  34156  289.52 0861.77
2015 04 09 14 32 28 .65    -265    -58    -35    272    275 257.6  -7.5  34060  287.88 0861.77
2015 04 09 14 32 28 .91    -300    -85    -52    312    317 254.1  -9.5  34064  287.93 0861.77
2015 04 09 14 32 29 .16    -302    -68    -56    310    316 257.2 -10.4  34092  288.43 0861.78
2015 04 09 14 32 29 .41    -294    -64    -58    302    308 257.6 -10.9  34088  288.36 0861.78
2015 04 09 14 32 29 .66    -286    -49    -53    291    296 260.3 -10.5  34118  288.87 0861.78
2015 04 09 14 32 29 .91    -278    -39    -25    281    283 261.9  -5.1  34154  289.46 0861.78
2015 04 09 14 32 30 .16    -288   -111    -42    309    312 248.9  -7.9  34190  290.09 0861.78
2015 04 09 14 32 30 .41    -211   -145    -18    257    258 235.4  -4.1  34186  290.00 0861.78
2015 04 09 14 32 30 .66    -144   -123      9    190    191 229.3   2.9  34176  289.84 0861.78
2015 04 09 14 32 30 .91    -166    -46     -3    173    174 254.5  -1.3  34198  290.21 0861.77
2015 04 09 14 32 31 .16    -280    -73    -58    290    296 255.4 -11.3  34022  287.24 0861.77
2015 04 09 14 32 31 .41    -303    -99    -63    319    326 251.8 -11.2  34026  287.29 0861.77
2015 04 09 14 32 31 .66    -298   -104    -66    316    323 250.7 -11.9  34022  287.22 0861.77
2015 04 09 14 32 31 .91    -306   -100    -54    323    328 251.8  -9.5  34020  287.19 0861.77
2015 04 09 14 32 32 .16    -309   -101    -56    326    331 251.9  -9.8  34018  287.18 0861.77
2015 04 09 14 32 32 .41    -321    -89    -67    334    341 254.5 -11.3  34016  287.12 0861.77
2015 04 09 14 32 32 .67    -303    -61    -75    310    320 258.6 -13.7  34018  287.16 0861.77
2015 04 09 14 32 32 .92    -295    -46    -69    299    308 261.0 -13.1  34016  287.12 0861.77
2015 04 09 14 32 33 .18    -290    -53    -60    295    302 259.5 -11.6  34016  287.14 0861.77
2015 04 09 14 32 33 .43    -275    -48    -56    280    286 260.1 -11.5  34040  287.53 0861.77
2015 04 09 14 32 33 .68    -243     -8    -37    244    247 267.9  -8.8  34068  288.02 0861.77
2015 04 09 14 32 33 .93    -229    -51    -42    235    239 257.2 -10.3  34080  288.22 0861.77
2015 04 09 14 32 34 .18    -223    -31    -54    226    233 262.0 -13.4  34034  287.43 0861.77
2015 04 09 14 32 34 .43    -186      7    -32    187    190 272.4  -9.8  34036  287.49 0861.77
2015 04 09 14 32 34 .68    -203    -25    -34    205    208 262.8  -9.6  34042  287.57 0861.77
2015 04 09 14 32 34 .93    -218    -16    -47    219    225 265.6 -12.2  34040  287.54 0861.77
2015 04 09 14 32 35 .18    -191    -15    -20    192    194 265.4  -6.2  34048  287.67 0861.77
2015 04 09 14 32 35 .43    -217    -29    -33    219    222 262.3  -8.6  34044  287.60 0861.77
2015 04 09 14 32 35 .68    -239    -37    -57    242    249 261.2 -13.3  34036  287.48 0861.77
2015 04 09 14 32 35 .94    -199    -20    -48    201    207 264.1 -13.4  34046  287.64 0861.77
2015 04 09 14 32 36 .19    -122    -24    -16    125    127 258.5  -7.7  34064  287.94 0861.77
2015 04 09 14 32 36 .43    -132    -21    -22    134    136 260.8  -9.4  34052  287.74 0861.77
2015 04 09 14 32 36 .69     -78    -38    -17     88     90 243.8 -10.9  34064  287.94 0861.77
2015 04 09 14 32 36 .94     -27    -22     12     35     38 230.5  19.4  34078  288.18 0861.77
2015 04 09 14 32 37 .19    -199    -28    -48    202    208 261.9 -13.4  34066  287.98 0861.77
2015 04 09 14 32 37 .44    -198    -33    -39    201    205 260.3 -11.1  34036  287.49 0861.76
2015 04 09 14 32 37 .69    -199    -24    -39    201    205 263.0 -11.1  34056  287.81 0861.76
2015 04 09 14 32 37 .94    -177    -16    -25    178    180 264.8  -8.0  34066  287.98 0861.76
2015 04 09 14 32 38 .19    -145     29    -13    148    149 281.4  -5.2  34080  288.21 0861.76
2015 04 09 14 32 38 .44    -202     32    -25    205    207 279.0  -7.2  34088  288.36 0861.76
2015 04 09 14 32 38 .69    -197     23    -28    199    202 276.8  -8.0  34106  288.67 0861.76
2015 04 09 14 32 38 .94    -143      0     -2    144    145 269.6  -1.2  34110  288.72 0861.76
2015 04 09 14 32 39 .19     -82     -8     -3     83     84 263.9  -2.2  34108  288.69 0861.76
2015 04 09 14 32 39 .44    -132     -4    -39    133    138 267.9 -21.2  34114  288.79 0861.76
2015 04 09 14 32 39 .70     -86     21     -1     89     90 284.2  -0.7  34122  288.94 0861.76
2015 04 09 14 32 39 .95    -154    -58     -6    165    166 249.2  -2.2  34134  289.13 0861.76
2015 04 09 14 32 40 .20    -160    -57    -38    170    175 250.3 -12.6  34140  289.24 0861.76
2015 04 09 14 32 40 .46    -141    -10    -39    142    148 265.6 -15.4  34156  289.50 0861.76
2015 04 09 14 32 40 .71     -69     32     -9     77     78 295.2  -7.3  34168  289.70 0861.76
2015 04 09 14 32 40 .96     -24     29     -1     38     39 320.4  -2.2  34178  289.89 0861.76
2015 04 09 14 32 41 .21     -97      5    -21     98    101 273.5 -12.4  34178  289.87 0861.76
2015 04 09 14 32 41 .46    -102    -29     -9    107    108 254.1  -5.2  34154  289.46 0861.76
2015 04 09 14 32 41 .71     -68    -32     -6     76     77 244.8  -5.2  34142  289.28 0861.76
2015 04 09 14 32 41 .95    -196    -20    -55    198    206 263.9 -15.5  34060  287.89 0861.76
2015 04 09 14 32 42 .21    -196     -7    -16    197    198 267.9  -4.9  34084  288.28 0861.76
2015 04 09 14 32 42 .46    -220    -30    -30    223    226 262.1  -7.7  34060  287.89 0861.76
2015 04 09 14 32 42 .70    -216    -33    -44    219    224 261.2 -11.3  34062  287.91 0861.76
2015 04 09 14 32 42 .96    -202    -68    -31    214    217 251.4  -8.2  34060  287.89 0861.76
2015 04 09 14 32 43 .21    -185    -58    -38    195    199 252.5 -11.1  34080  288.23 0861.76
2015 04 09 14 32 43 .46    -202    -33    -42    205    210 260.5 -11.6  34082  288.25 0861.76
2015 04 09 14 32 43 .71    -177    -21    -23    179    181 263.0  -7.3  34114  288.79 0861.76
2015 04 09 14 32 43 .96    -172     59    -37    183    187 289.1 -11.6  34096  288.50 0861.76
2015 04 09 14 32 44 .21    -189     -9    -43    190    195 267.2 -12.9  34110  288.72 0861.76
2015 04 09 14 32 44 .46    -138      6     -5    139    140 272.5  -2.2  34114  288.80 0861.76
2015 04 09 14 32 44 .72    -156     -6    -26    157    160 267.5  -9.6  34110  288.72 0861.76
2015 04 09 14 32 44 .97     -93     -5    -28     94     99 266.5 -16.6  34118  288.86 0861.76
2015 04 09 14 32 45 .22     -18    -13      7     23     25 234.0  17.3  34132  289.09 0861.76
2015 04 09 14 32 45 .46    -180    -33    -32    184    187 259.4 -10.1  34068  288.03 0861.76
2015 04 09 14 32 45 .72    -150    -59     -7    162    163 248.3  -2.6  34082  288.25 0861.76
2015 04 09 14 32 45 .96    -136    -36    -36    141    146 254.9 -14.5  34060  287.87 0861.76
2015 04 09 14 32 46 .22    -134      0    -35    135    140 270.4 -14.5  34080  288.23 0861.76
2015 04 09 14 32 46 .46    -169    -28    -47    172    179 260.5 -15.5  34022  287.23 0861.76
2015 04 09 14 32 46 .73    -181    -39    -52    186    194 257.8 -15.8  34022  287.23 0861.76
2015 04 09 14 32 46 .98    -176    -31    -49    179    186 259.9 -15.4  34022  287.23 0861.76
2015 04 09 14 32 47 .23    -173    -22    -48    175    182 262.5 -15.5  34026  287.30 0861.76
2015 04 09 14 32 47 .48    -176    -24    -53    178    186 262.1 -16.8  34028  287.35 0861.76
2015 04 09 14 32 47 .73    -171    -25    -50    173    180 261.4 -21.0  34030  287.38 0861.76
2015 04 09 14 32 47 .98    -170    -28    -47    173    180 260.5 -15.4  34034  287.43 0861.76
2015 04 09 14 32 48 .23    -154    -31    -44    158    165 258.3 -15.5  34038  287.52 0861.77
2015 04 09 14 32 48 .48    -151    -41    -38    157    162 254.9 -13.9  34038  287.52 0861.77
2015 04 09 14 32 48 .73    -136    -32    -30    140    144 256.7 -12.4  34034  287.43 0861.77
2015 04 09 14 32 48 .98    -129    -36    -37    135    141 254.1 -15.5  34036  287.47 0861.77
2015 04 09 14 32 49 .23    -113    -38    -33    120    125 251.4 -15.5  34034  287.45 0861.77
2015 04 09 14 32 49 .48    -111    -26    -22    115    118 256.7 -10.9  34032  287.42 0861.77
2015 04 09 14 32 49 .74    -114    -30    -18    119    121 255.0  -8.8  34032  287.42 0861.77
2015 04 09 14 32 49 .98    -113    -30    -24    118    121 255.0 -11.5  34036  287.49 0861.77
2015 04 09 14 32 50 .23    -114    -12    -23    115    118 263.9 -11.5  34036  287.49 0861.77
2015 04 09 14 32 50 .49    -120      1    -21    121    123 270.8 -10.3  34036  287.47 0861.77
2015 04 09 14 32 50 .74    -128     17    -16    130    132 277.9  -7.3  34036  287.47 0861.77
2015 04 09 14 32 50 .99    -137     10    -20    138    140 274.3  -8.2  34040  287.54 0861.77
2015 04 09 14 32 51 .24    -142     31    -25    146    149 282.4  -9.8  34088  288.35 0861.77
2015 04 09 14 32 51 .49    -180     25    -23    182    184 277.9  -7.2  34096  288.50 0861.77
2015 04 09 14 32 51 .74    -182     36    -23    186    188 281.2  -7.3  34096  288.48 0861.77
2015 04 09 14 32 51 .99    -168     32    -34    172    176 281.0 -11.3  34098  288.53 0861.77
2015 04 09 14 32 52 .24    -146     49    -30    155    158 288.6 -11.1  34102  288.60 0861.77
2015 04 09 14 32 52 .49    -167     44    -23    173    175 285.1  -7.7  34088  288.36 0861.77
2015 04 09 14 32 52 .74    -156    -47     -6    163    164 253.2  -2.3  34104  288.62 0861.77
2015 04 09 14 32 52 .99     -74     12    -18     76     79 279.7 -13.4  34094  288.45 0861.77
2015 04 09 14 32 53 .24     -32    -16      8     37     39 242.9  13.2  34104  288.64 0861.77
2015 04 09 14 32 53 .50     -18    -13      7     23     25 234.0  17.3  34118  288.87 0861.77
2015 04 09 14 32 53 .75     -12     -4      0     13     14 251.6  -3.1  34116  288.82 0861.77
2015 04 09 14 32 54 .00      -8    -45     29     46     54 190.7  35.5  34110  288.72 0861.77
2015 04 09 14 32 54 .26     -80      6    -24     81     84 274.4 -21.7  34104  288.62 0861.77
2015 04 09 14 32 54 .51     -46    -38      5     60     61 230.5   4.9  34132  289.09 0861.78
2015 04 09 14 32 54 .76     -11     13      8     18     19 320.4  23.0  34140  289.24 0861.78
2015 04 09 14 32 55 .01     -57     45    -13     73     75 308.6 -10.3  34142  289.26 0861.78
2015 04 09 14 32 55 .26     -47     42     -1     64     65 312.2  -1.3  34168  289.70 0861.78
2015 04 09 14 32 55 .51    -122    -62     -3    137    138 243.0  -1.3  34178  289.89 0861.78
2015 04 09 14 32 55 .76    -114    -45    -20    123    125 248.3  -9.4  34182  289.96 0861.78
2015 04 09 14 32 56 .01     -24    -24     26     34     42 225.0  41.7  34200  290.26 0861.78
2015 04 09 14 32 56 .26     -26     23     41     35     53 311.3  54.3  34206  290.36 0861.77
2015 04 09 14 32 56 .51     -87     -9    -26     88     92 263.9 -16.6  34152  289.45 0861.77
2015 04 09 14 32 56 .76      -8    -49     38     50     62 189.8  41.7  34204  290.33 0861.77
2015 04 09 14 32 57 .01      15      1     36     16     39  85.6  75.0  34200  290.25 0861.77
2015 04 09 14 32 57 .26     -32      2    -25     33     41 274.3 -46.1  34178  289.87 0861.77
2015 04 09 14 32 57 .51     -24    -33     47     41     62 216.1  53.3  34160  289.58 0861.77
2015 04 09 14 32 57 .76     -65     30    -20     72     75 295.3 -15.5  34154  289.48 0861.77
2015 04 09 14 32 58 .01     -69     -8    -19     70     73 263.0 -15.5  34146  289.33 0861.77
2015 04 09 14 32 58 .26      -2    -33     16     34     37 184.5  27.2  34164  289.63 0861.77
2015 04 09 14 32 58 .51     -25     25     -1     36     37 314.9  -2.2  34164  289.63 0861.77
2015 04 09 14 32 58 .77    -125    -59    -22    139    141 244.6  -9.3  34094  288.45 0861.77
2015 04 09 14 32 59 .01    -150    -56    -33    161    165 249.6 -11.9  34088  288.36 0861.77
2015 04 09 14 32 59 .27     -81    -63      5    103    104 232.2   2.9  34114  288.80 0861.77
2015 04 09 14 32 59 .52     -88    -56    -21    105    108 237.5 -11.5  34110  288.72 0861.77
2015 04 09 14 32 59 .77    -144      4    -18    145    147 271.7  -7.3  34100  288.55 0861.77
2015 04 09 14 33 00 .02    -254    -32    -47    257    262 262.8 -10.4  34062  287.90 0861.77
2015 04 09 14 33 00 .26    -251    -34    -65    254    263 262.1 -14.5  34028  287.34 0861.77
2015 04 09 14 33 00 .53    -247    -61    -63    255    263 256.1 -13.9  34048  287.68 0861.77
2015 04 09 14 33 00 .78    -201    -62    -35    211    214 252.7  -9.6  34136  289.18 0861.77
2015 04 09 14 33 01 .03    -185    -49    -38    192    196 255.0 -11.3  34074  288.13 0861.77
2015 04 09 14 33 01 .28    -204    -21    -40    206    210 263.9 -11.1  34074  288.13 0861.77
2015 04 09 14 33 01 .53    -230    -37    -34    234    237 260.8  -8.3  34066  287.99 0861.77
2015 04 09 14 33 01 .78    -245    -60    -55    253    260 256.1 -12.4  34050  287.71 0861.77
2015 04 09 14 33 02 .03    -231    -58    -52    239    245 255.9 -12.4  34036  287.48 0861.77
2015 04 09 14 33 02 .28    -221    -73    -38    233    237 251.6  -9.3  34034  287.43 0861.77
2015 04 09 14 33 02 .53    -238    -90    -32    255    258 249.2  -7.2  34032  287.39 0861.77
2015 04 09 14 33 02 .79    -229    -94    -31    248    251 247.6  -7.3  34028  287.33 0861.77
2015 04 09 14 33 03 .04    -236   -125    -40    268    272 242.0  -8.6  34028  287.34 0861.77
2015 04 09 14 33 03 .29    -228    -74    -43    240    244 251.8 -10.4  34028  287.34 0861.77
2015 04 09 14 33 03 .54    -224    -60    -53    233    240 254.9 -12.9  34034  287.43 0861.77
2015 04 09 14 33 03 .79    -222    -74    -50    235    241 251.4 -12.2  34034  287.44 0861.77
2015 04 09 14 33 04 .04    -192   -122    -13    228    229 237.6  -3.3  34038  287.50 0861.77
2015 04 09 14 33 04 .29    -165   -135    -11    214    215 230.7  -3.2  34026  287.30 0861.77
2015 04 09 14 33 04 .54    -181   -123     -8    219    220 235.8  -2.2  34036  287.47 0861.77
2015 04 09 14 33 04 .79    -208   -114    -15    238    239 241.1  -3.7  34028  287.34 0861.77
2015 04 09 14 33 05 .04    -214   -108    -21    240    241 243.1  -5.2  34036  287.48 0861.77
2015 04 09 14 33 05 .29    -198    -83    -28    215    217 247.2  -7.5  34034  287.43 0861.77
2015 04 09 14 33 05 .54    -200    -68    -27    212    214 251.2  -7.3  34030  287.38 0861.77
2015 04 09 14 33 05 .79    -197    -93    -39    219    223 244.7 -10.3  34034  287.45 0861.77
2015 04 09 14 33 06 .04    -171    -87    -22    193    195 242.9  -6.7  34030  287.38 0861.77
2015 04 09 14 33 06 .29    -174    -86    -27    195    197 243.8  -8.0  34034  287.43 0861.77
2015 04 09 14 33 06 .54    -195    -44    -25    200    202 257.2  -7.2  34034  287.43 0861.77
2015 04 09 14 33 06 .79    -205    -65    -44    216    221 252.3 -11.5  34042  287.59 0861.77
2015 04 09 14 33 07 .04    -223    -58    -33    231    234 255.2  -8.3  34026  287.29 0861.77
2015 04 09 14 33 07 .29    -208    -49    -35    214    217 256.7  -9.3  34024  287.28 0861.77
2015 04 09 14 33 07 .55    -202    -60    -31    211    214 253.4  -8.6  34024  287.27 0861.77
2015 04 09 14 33 07 .80    -206    -68    -35    218    221 251.6  -9.3  34020  287.20 0861.77
2015 04 09 14 33 08 .06    -204    -63    -33    214    217 252.7  -9.0  34022  287.23 0861.77
2015 04 09 14 33 08 .31    -201    -69    -30    213    216 250.9  -8.0  34022  287.25 0861.77
2015 04 09 14 33 08 .56    -204    -79    -28    219    221 248.7  -7.3  34028  287.33 0861.77
2015 04 09 14 33 08 .81    -175    -69    -22    189    191 248.3  -6.7  34042  287.57 0861.76
2015 04 09 14 33 09 .06    -189    -69    -21    202    204 249.8  -6.0  34060  287.89 0861.76
2015 04 09 14 33 09 .31    -139    -28    -20    142    144 258.5  -8.2  34062  287.92 0861.76
2015 04 09 14 33 09 .56    -160    -77    -21    178    180 244.2  -6.9  34064  287.94 0861.76
2015 04 09 14 33 09 .81    -166    -70    -33    181    185 246.9 -10.5  34078  288.18 0861.76
2015 04 09 14 33 10 .06    -188    -75    -18    203    204 248.3  -5.2  34084  288.30 0861.76
2015 04 09 14 33 10 .31    -200    -90    -27    220    222 245.6  -7.2  34082  288.26 0861.76
2015 04 09 14 33 10 .56    -177   -112    -13    210    211 237.5  -3.7  34094  288.45 0861.76
2015 04 09 14 33 10 .81    -174    -91    -33    197    200 242.2  -9.8  34106  288.67 0861.76
2015 04 09 14 33 11 .06    -131    -69      2    149    150 242.0   0.8  34118  288.87 0861.76
2015 04 09 14 33 11 .31    -153    -99    -20    183    185 236.9  -6.5  34112  288.75 0861.76
2015 04 09 14 33 11 .57    -159    -24    -20    161    163 261.2  -7.3  34120  288.89 0861.77
2015 04 09 14 33 11 .82    -141      8    -33    142    146 273.5 -13.3  34120  288.91 0861.77
2015 04 09 14 33 12 .07    -140     17    -24    142    145 277.0  -9.8  34112  288.77 0861.77
2015 04 09 14 33 12 .32     -93      3    -18     94     96 272.1 -10.9  34138  289.21 0861.77
2015 04 09 14 33 12 .57     -29    -18     15     35     38 237.6  23.0  34158  289.53 0861.77
2015 04 09 14 33 12 .82     -37     34    -17     51     53 312.2 -23.6  34162  289.60 0861.77
2015 04 09 14 33 13 .07    -101    -22    -33    104    109 257.6 -23.3  34176  289.85 0861.77
2015 04 09 14 33 13 .32     -73     55    -31     92     98 306.9 -18.7  34212  290.45 0861.76
2015 04 09 14 33 13 .57     -26     45     41     53     67 330.1  41.7  34210  290.41 0861.76
2015 04 09 14 33 13 .82    -112    -44    -20    121    123 248.3  -9.4  34208  290.38 0861.76
2015 04 09 14 33 14 .07    -102    -53      8    115    116 242.5   4.4  34210  290.41 0861.76
2015 04 09 14 33 14 .32     -97    -92     48    134    142 226.4  20.4  34240  290.92 0861.76
2015 04 09 14 33 14 .59    -125   -123     -6    176    177 225.6  -2.2  34184  289.97 0861.76
2015 04 09 14 33 14 .83     -81   -137     23    160    162 210.7   8.5  34206  290.35 0861.76
2015 04 09 14 33 15 .08     -40    -48      3     63     64 219.6   2.9  34208  290.38 0861.76
2015 04 09 14 33 15 .33     -86     28     -1     91     92 288.4  -0.7  34212  290.45 0861.76
2015 04 09 14 33 15 .58    -170    -57    -10    180    181 251.4  -3.2  34156  289.52 0861.76
2015 04 09 14 33 15 .83    -209     -9    -33    210    213 267.5  -9.0  34116  288.84 0861.76
2015 04 09 14 33 16 .09    -220    -36    -58    224    232 260.5 -14.5  34050  287.70 0861.76
2015 04 09 14 33 16 .33    -202     -7    -53    203    210 267.9 -14.7  34056  287.81 0861.76
2015 04 09 14 33 16 .59    -171    -25    -42    173    179 261.6 -13.7  34066  287.98 0861.76
2015 04 09 14 33 16 .83    -175    -34    -35    179    183 259.0 -11.3  34086  288.31 0861.76
2015 04 09 14 33 17 .09    -195    -28    -43    198    203 261.6 -12.4  34084  288.30 0861.76
2015 04 09 14 33 17 .34    -212    -40    -39    216    220 259.2 -10.3  34094  288.47 0861.76
2015 04 09 14 33 17 .59    -205    -48    -35    211    214 256.7  -9.6  34096  288.48 0861.76
2015 04 09 14 33 17 .84    -201    -35    -41    205    210 259.9 -11.3  34126  289.01 0861.76
2015 04 09 14 33 18 .09    -197     23    -34    199    203 276.8  -9.8  34102  288.58 0861.76
2015 04 09 14 33 18 .34    -184      4    -10    185    186 271.5  -3.1  34080  288.21 0861.76
2015 04 09 14 33 18 .60    -165     -8    -24    166    168 267.0  -8.2  34140  289.24 0861.76
2015 04 09 14 33 18 .84     -60     12     21     62     66 281.5  18.9  34160  289.58 0861.77
2015 04 09 14 33 19 .09     -74     48     -8     89     90 302.9  -5.6  34172  289.79 0861.77
2015 04 09 14 33 19 .34    -119     21    -19    121    123 280.1  -9.3  34178  289.89 0861.77
2015 04 09 14 33 19 .59     -33     33     15     48     51 314.9  17.3  34186  290.02 0861.77
2015 04 09 14 33 19 .84     -59      1    -20     60     63 271.7 -23.6  34176  289.85 0861.77
2015 04 09 14 33 20 .10     -56     -6    -12     57     59 263.0 -12.4  34162  289.62 0861.77
2015 04 09 14 33 20 .34     -24    -25     21     35     40 223.4  34.4  34182  289.96 0861.77
2015 04 09 14 33 20 .60     -88      8     -9     89     90 275.2  -6.2  34178  289.89 0861.77
2015 04 09 14 33 20 .84      14    -25    -12     29     31 151.0 -27.4  34176  289.85 0861.77
2015 04 09 14 33 21 .10      19     30     18     36     40  32.5  29.3  34178  289.87 0861.77
2015 04 09 14 33 21 .36    -111     -1    -46    112    121 269.1 -28.0  34158  289.53 0861.77
2015 04 09 14 33 21 .61     -56     27     16     63     66 296.2  14.3  34178  289.89 0861.77
2015 04 09 14 33 21 .86     -40      4     27     41     49 277.0  36.5  34184  289.97 0861.77
2015 04 09 14 33 22 .11    -166     40    -22    171    173 283.7  -7.3  34144  289.30 0861.77
2015 04 09 14 33 22 .36    -147     11    -32    148    152 274.4 -12.4  34104  288.64 0861.77
2015 04 09 14 33 22 .61     -86     40      4     96     97 295.2   2.9  34158  289.53 0861.77
2015 04 09 14 33 22 .86    -162     41    -15    168    169 284.4  -5.2  34100  288.55 0861.77
2015 04 09 14 33 23 .11    -192     32    -51    195    202 279.5 -14.7  34052  287.74 0861.77
2015 04 09 14 33 23 .36    -184    -22    -54    186    194 263.2 -16.4  34074  288.11 0861.76
2015 04 09 14 33 23 .61    -157    -21    -38    159    164 262.1 -13.4  34074  288.11 0861.76
2015 04 09 14 33 23 .86    -134     -6    -41    135    142 267.4 -17.0  34078  288.20 0861.76
2015 04 09 14 33 24 .11    -136    -25    -38    139    145 259.4 -15.5  34054  287.79 0861.76
2015 04 09 14 33 24 .36    -137    -25    -30    140    144 259.4 -12.4  34060  287.87 0861.76
2015 04 09 14 33 24 .62    -110    -33     -4    115    116 253.2  -2.2  34086  288.31 0861.76
2015 04 09 14 33 24 .86    -147    -48    -29    155    158 251.6 -10.9  34086  288.31 0861.76
2015 04 09 14 33 25 .12    -141      3    -38    142    147 271.3 -15.0  34090  288.40 0861.76
2015 04 09 14 33 25 .37    -126    -16    -21    128    130 262.5  -9.4  34104  288.64 0861.76
2015 04 09 14 33 25 .61    -133     -1    -32    134    138 269.2 -13.4  34106  288.65 0861.76
2015 04 09 14 33 25 .87    -136    -26    -17    139    141 259.0  -7.3  34114  288.80 0861.76
2015 04 09 14 33 26 .12    -103    -34      5    109    110 251.6   2.9  34136  289.16 0861.76
2015 04 09 14 33 26 .37    -138    -70     -8    155    156 242.9  -3.1  34134  289.13 0861.76
2015 04 09 14 33 26 .62    -152    -70    -21    168    170 245.2  -7.3  34122  288.94 0861.76
2015 04 09 14 33 26 .87    -186    -85    -26    205    207 245.4  -7.3  34132  289.09 0861.77
2015 04 09 14 33 27 .12    -185    -69    -16    198    199 249.4  -4.9  34168  289.72 0861.77
2015 04 09 14 33 27 .37    -207    -32    -27    210    212 261.0  -7.3  34102  288.60 0861.77
2015 04 09 14 33 27 .63    -210    -24    -54    212    219 263.4 -14.5  34118  288.87 0861.77
2015 04 09 14 33 27 .87    -222     12    -41    223    227 273.3 -10.5  34128  289.02 0861.77
2015 04 09 14 33 28 .12    -214      0    -38    215    219 269.9 -10.1  34108  288.70 0861.77
2015 04 09 14 33 28 .39    -228    -24    -39    230    234 263.8  -9.8  34074  288.13 0861.77
2015 04 09 14 33 28 .63    -213    -28    -49    215    221 262.3 -12.9  34084  288.30 0861.77
2015 04 09 14 33 28 .89    -189    -30    -33    192    195 261.0  -9.8  34142  289.26 0861.77
2015 04 09 14 33 29 .14    -162     -5    -22    163    165 267.9  -8.0  34184  289.97 0861.77
2015 04 09 14 33 29 .39    -166     -1    -12    167    168 269.4  -4.1  34154  289.46 0861.77
2015 04 09 14 33 29 .64    -183     20    -37    185    189 276.4 -11.3  34100  288.57 0861.77
2015 04 09 14 33 29 .89    -128    -65    -23    144    146 243.0  -9.4  34134  289.13 0861.77
2015 04 09 14 33 30 .14     -65     25    -22     70     73 291.7 -23.8  34160  289.58 0861.77
2015 04 09 14 33 30 .39    -180    -15    -33    181    185 265.0 -10.5  34128  289.02 0861.77
2015 04 09 14 33 30 .64    -176     16    -23    177    179 275.2  -7.5  34126  289.01 0861.77
2015 04 09 14 33 30 .89    -195     34    -46    199    205 280.1 -13.2  34124  288.96 0861.77
2015 04 09 14 33 31 .14    -175    -10    -35    176    180 266.7 -11.3  34136  289.18 0861.77
2015 04 09 14 33 31 .39    -173     29    -27    176    179 279.7  -9.0  34136  289.16 0861.77
2015 04 09 14 33 31 .64    -158     25    -12    161    162 279.2  -4.4  34142  289.26 0861.77
2015 04 09 14 33 31 .89    -187     35    -16    191    192 280.8  -4.9  34128  289.02 0861.77
2015 04 09 14 33 32 .15    -150     20    -25    152    155 277.9  -9.6  34198  290.21 0861.77
2015 04 09 14 33 32 .39    -145     76    -14    164    165 297.8  -5.2  34200  290.25 0861.77
2015 04 09 14 33 32 .64    -162      0    -22    163    165 270.1  -8.0  34174  289.82 0861.77
2015 04 09 14 33 32 .89    -152    -11    -22    153    155 265.6  -8.2  34140  289.24 0861.77
2015 04 09 14 33 33 .14    -140      0    -17    141    143 269.6  -7.2  34140  289.24 0861.77
2015 04 09 14 33 33 .40    -139      4    -46    140    147 271.7 -23.8  34144  289.31 0861.77
2015 04 09 14 33 33 .65     -27     31     10     42     44 319.5  13.2  34170  289.74 0861.77
2015 04 09 14 33 33 .90     -49     13     19     51     54 285.1  20.0  34168  289.70 0861.77
2015 04 09 14 33 34 .15    -131     27    -27    134    137 281.9 -11.5  34178  289.87 0861.76
2015 04 09 14 33 34 .40     -96     28    -36    101    108 286.4 -19.7  34202  290.30 0861.76
2015 04 09 14 33 34 .65     -42      1     52     43     67 271.7  56.3  34212  290.45 0861.76
2015 04 09 14 33 34 .90     -86     -7    -21     87     90 264.8 -13.9  34222  290.62 0861.76
2015 04 09 14 33 35 .15    -150    -59     -7    162    163 248.3  -2.6  34234  290.82 0861.76
2015 04 09 14 33 35 .41    -148    -40    -40    154    160 254.9 -14.7  34154  289.46 0861.76
2015 04 09 14 33 35 .66    -164     -8    -18    165    167 267.0  -6.5  34166  289.67 0861.76
2015 04 09 14 33 35 .91    -121    -24    -14    124    125 258.5  -6.7  34170  289.75 0861.76
2015 04 09 14 33 36 .16    -218    -19    -34    219    222 264.8  -9.0  34150  289.41 0861.76
2015 04 09 14 33 36 .42    -235    -17    -42    236    240 265.7 -10.1  34122  288.92 0861.76
2015 04 09 14 33 36 .66    -185    -25    -37    187    191 262.3 -11.3  34128  289.04 0861.76
2015 04 09 14 33 36 .91    -112      1     -5    113    114 270.8  -2.6  34154  289.46 0861.76
2015 04 09 14 33 37 .16    -137    -59     -6    150    151 246.5  -2.6  34156  289.52 0861.76
2015 04 09 14 33 37 .41    -217    -61    -49    226    232 254.3 -12.4  34162  289.62 0861.76
2015 04 09 14 33 37 .67    -251    -68    -61    261    269 254.9 -13.3  34098  288.51 0861.76
2015 04 09 14 33 37 .92    -177     -2    -42    178    183 269.1 -13.4  34134  289.13 0861.76
2015 04 09 14 33 38 .16    -196    -41     -7    201    202 258.1  -2.2  34106  288.67 0861.76
2015 04 09 14 33 38 .42    -241    -34    -63    244    253 261.9 -14.5  34052  287.73 0861.77
2015 04 09 14 33 38 .67    -267     12    -48    268    273 272.6 -10.3  34058  287.85 0861.77
2015 04 09 14 33 38 .92    -185     44    -24    191    193 283.5  -7.3  34084  288.30 0861.77
2015 04 09 14 33 39 .17    -224    -62    -16    233    234 254.5  -4.1  34064  287.95 0861.77
2015 04 09 14 33 39 .42    -290    -36    -61    293    300 262.9 -11.9  34058  287.83 0861.77
2015 04 09 14 33 39 .67    -284    -44    -64    288    296 261.2 -12.6  34034  287.43 0861.77
2015 04 09 14 33 39 .92    -266    -56    -75    272    283 258.1 -15.5  34044  287.61 0861.77
2015 04 09 14 33 40 .17    -281    -31    -25    283    285 263.6  -5.2  34086  288.32 0861.77
2015 04 09 14 33 40 .42    -348    -45    -77    351    360 262.5 -12.5  34082  288.25 0861.76
2015 04 09 14 33 40 .67    -305    -72    -30    314    316 256.7  -5.6  34078  288.19 0861.76
2015 04 09 14 33 40 .92    -307    -62    -76    314    324 258.6 -13.6  34046  287.65 0861.76
2015 04 09 14 33 41 .17    -266    -72    -72    276    286 254.9 -14.7  34048  287.66 0861.76
2015 04 09 14 33 41 .43    -248      0    -41    249    253 270.1  -9.3  34060  287.87 0861.76
2015 04 09 14 33 41 .68    -251    -96    -32    269    271 248.9  -6.9  34106  288.66 0861.76
2015 04 09 14 33 41 .93    -301    -81    -63    312    319 254.9 -11.6  34044  287.61 0861.76
2015 04 09 14 33 42 .19    -302   -101    -70    319    327 251.4 -12.5  34090  288.39 0861.76
2015 04 09 14 33 42 .44    -258      3    -53    259    265 270.8 -11.6  34146  289.34 0861.76
2015 04 09 14 33 42 .69    -231    -64    -61    240    248 254.3 -14.4  34178  289.86 0861.76
2015 04 09 14 33 42 .94    -219    -44    -47    224    229 258.5 -11.9  34134  289.13 0861.76
2015 04 09 14 33 43 .19    -143    -66     -3    158    159 245.2  -1.1  34106  288.67 0861.76
2015 04 09 14 33 43 .44    -283    -68    -68    292    300 256.5 -13.2  34066  287.99 0861.76
2015 04 09 14 33 43 .69    -306    -47    -37    310    313 261.2  -6.8  34068  288.00 0861.76
2015 04 09 14 33 43 .94    -307    -68    -56    315    320 257.4 -10.1  34068  288.02 0861.76
2015 04 09 14 33 44 .19    -313    -28    -51    315    320 264.8  -9.3  34044  287.60 0861.76
2015 04 09 14 33 44 .44    -350    -75    -84    359    369 257.8 -13.2  34038  287.52 0861.76
2015 04 09 14 33 44 .69    -368    -65    -65    374    380 259.9  -9.9  34036  287.47 0861.76
2015 04 09 14 33 44 .94    -378    -67    -78    384    392 259.9 -11.5  34034  287.45 0861.76
2015 04 09 14 33 45 .19    -367    -80    -72    376    383 257.6 -10.9  34034  287.45 0861.76
2015 04 09 14 33 45 .44    -373    -95    -62    386    392 255.6  -9.1  34040  287.54 0861.76
2015 04 09 14 33 45 .69    -364   -119    -73    384    391 251.8 -10.8  34018  287.17 0861.75
2015 04 09 14 33 45 .94    -342   -110    -62    360    366 252.1  -9.9  34018  287.18 0861.75
2015 04 09 14 33 46 .20    -304   -115    -49    326    330 249.2  -8.7  34054  287.78 0861.75
2015 04 09 14 33 46 .45    -316    -94    -54    330    335 253.3  -9.3  34080  288.22 0861.75
2015 04 09 14 33 46 .70    -330    -86    -58    342    347 255.3  -9.7  34070  288.06 0861.75
2015 04 09 14 33 46 .94    -327   -107    -49    345    349 251.9  -8.2  34108  288.69 0861.75
2015 04 09 14 33 47 .20    -291   -126    -46    318    322 246.5  -8.4  34118  288.87 0861.75
2015 04 09 14 33 47 .45    -305   -123    -51    329    333 248.0  -8.8  34026  287.29 0861.75
2015 04 09 14 33 47 .70    -308   -110    -50    328    332 250.3  -8.8  34068  288.03 0861.75
2015 04 09 14 33 47 .95    -307   -109    -51    326    331 250.4  -9.0  34056  287.81 0861.75
2015 04 09 14 33 48 .20    -325    -70    -54    333    338 257.8  -9.3  34038  287.52 0861.75
2015 04 09 14 33 48 .45    -304    -61    -59    311    317 258.5 -10.8  34026  287.31 0861.75
2015 04 09 14 33 48 .70    -306    -57    -65    312    319 259.4 -11.8  34030  287.38 0861.75
2015 04 09 14 33 48 .95    -307    -72    -66    316    323 256.8 -11.9  34020  287.21 0861.75
2015 04 09 14 33 49 .21    -294    -69    -67    302    310 256.8 -12.5  34022  287.24 0861.75
2015 04 09 14 33 49 .46    -284    -64    -56    292    298 257.2 -10.9  34026  287.31 0861.75
2015 04 09 14 33 49 .71    -280    -65    -48    288    293 256.8  -9.6  34030  287.38 0861.75
2015 04 09 14 33 49 .96    -282   -101    -55    300    306 250.3 -10.5  34038  287.50 0861.75
2015 04 09 14 33 50 .22    -273    -96    -58    290    296 250.5 -11.3  34064  287.93 0861.75
2015 04 09 14 33 50 .46    -282    -58    -49    289    294 258.3  -9.8  34062  287.90 0861.75
2015 04 09 14 33 50 .71    -274    -73    -66    284    292 255.0 -13.2  34030  287.36 0861.75
2015 04 09 14 33 50 .97    -270    -77    -50    281    286 254.0 -10.3  34028  287.34 0861.75
2015 04 09 14 33 51 .22    -283    -59    -58    290    296 258.1 -11.5  34064  287.95 0861.76
2015 04 09 14 33 51 .46    -256    -84    -45    270    274 251.8  -9.6  34088  288.36 0861.76
2015 04 09 14 33 51 .72    -263    -50    -44    268    272 259.2  -9.3  34094  288.44 0861.76
2015 04 09 14 33 51 .97    -249    -78    -48    262    267 252.5 -10.4  34110  288.71 0861.76
2015 04 09 14 33 52 .22    -244    -49    -31    249    251 258.6  -7.2  34112  288.75 0861.76
2015 04 09 14 33 52 .47    -212    -49    -38    218    222 257.0 -10.1  34072  288.08 0861.76
2015 04 09 14 33 52 .72    -239    -63    -37    248    251 255.2  -8.6  34074  288.12 0861.76
2015 04 09 14 33 52 .97    -181    -70    -53    195    203 248.9 -15.4  34138  289.19 0861.75
2015 04 09 14 33 53 .22    -213    -36    -68    217    228 260.3 -17.6  34082  288.26 0861.75
2015 04 09 14 33 53 .47    -225    -45    -50    230    236 258.6 -12.4  34056  287.82 0861.75
2015 04 09 14 33 53 .72    -236    -79    -67    250    259 251.4 -15.0  34034  287.44 0861.75
2015 04 09 14 33 53 .97    -232    -84    -44    248    252 250.0 -10.1  34034  287.43 0861.75
2015 04 09 14 33 54 .23    -208    -41    -33    213    216 258.8  -9.0  34056  287.82 0861.75
2015 04 09 14 33 54 .47    -194    -66    -29    205    208 251.2  -8.2  34062  287.91 0861.75
2015 04 09 14 33 54 .73    -197    -14    -36    198    202 265.9 -10.3  34184  289.99 0861.76
2015 04 09 14 33 54 .97    -116     16    -31    118    123 278.0 -15.0  34176  289.84 0861.76
2015 04 09 14 33 55 .22    -133    -73    -52    152    161 241.1 -19.1  34186  290.01 0861.76
2015 04 09 14 33 55 .47    -118     -5    -35    119    125 267.4 -16.6  34136  289.16 0861.76
2015 04 09 14 33 55 .72    -220    -59    -50    228    234 255.0 -12.4  34072  288.08 0861.76
2015 04 09 14 33 55 .98    -206    -69    -47    218    224 251.4 -12.2  34074  288.11 0861.76
2015 04 09 14 33 56 .24    -208    -62    -30    218    221 253.4  -8.0  34126  289.01 0861.76
2015 04 09 14 33 56 .49    -190    -64    -33    201    204 251.4  -9.3  34132  289.09 0861.76
2015 04 09 14 33 56 .74    -226    -91    -31    244    246 248.0  -7.3  34102  288.58 0861.76
2015 04 09 14 33 56 .99    -211    -42    -45    216    221 258.6 -11.9  34102  288.58 0861.76
2015 04 09 14 33 57 .24     -77    -35     -6     85     86 245.2  -4.1  34134  289.13 0861.76
2015 04 09 14 33 57 .49     -19      1     28     20     34 274.3  62.6  34156  289.50 0861.76
2015 04 09 14 33 57 .74     -10      6     29     13     31 302.4  73.1  34182  289.96 0861.76
2015 04 09 14 33 57 .99     -56    -46     10     73     74 230.5   8.0  34176  289.84 0861.76
2015 04 09 14 33 58 .25    -114    -88    -18    145    147 232.3  -7.3  34188  290.06 0861.76
2015 04 09 14 33 58 .49    -121    -62     -7    137    138 242.9  -3.2  34212  290.47 0861.76
2015 04 09 14 33 58 .75     -99    -17    -20    101    104 260.3 -11.5  34190  290.08 0861.76
2015 04 09 14 33 58 .99     -61    -57     16     84     86 226.9  11.1  34184  289.99 0861.76
2015 04 09 14 33 59 .25     -14    -37     52     40     65 201.8  58.5  34210  290.43 0861.75
2015 04 09 14 33 59 .49     -16     12     16     21     26 307.8  41.7  34220  290.58 0861.75
2015 04 09 14 33 59 .74     -12    -24    -26     27     37 207.2 -56.4  34196  290.19 0861.75
2015 04 09 14 33 59 .99       1    -24      0     25     26 177.3  -1.3  34190  290.08 0861.75
2015 04 09 14 34 00 .25     -74    -90     26    117    120 219.6  12.6  34140  289.23 0861.75
2015 04 09 14 34 00 .50     -28    -49     -7     57     58 209.9  -7.3  34160  289.57 0861.75
2015 04 09 14 34 00 .75     -15    -76     -3     78     79 191.6  -2.6  34176  289.84 0861.75
2015 04 09 14 34 01 .00     -27    -31     82     42     92 220.5  71.4  34194  290.14 0861.75
2015 04 09 14 34 01 .25    -111   -162     31    197    200 214.5   9.0  34252  291.13 0861.75
2015 04 09 14 34 01 .49    -125   -218     69    252    262 209.8  15.3  34172  289.78 0861.75
2015 04 09 14 34 01 .75     -78   -168     63    186    197 204.9  18.9  34242  290.96 0861.75
2015 04 09 14 34 02 .00    -112   -187    103    219    242 211.0  27.0  34308  292.09 0861.75
2015 04 09 14 34 02 .25    -119   -176    101    213    235 214.1  27.2  34300  291.96 0861.75
2015 04 09 14 34 02 .50    -122   -126     62    176    186 223.9  20.2  34310  292.12 0861.75
2015 04 09 14 34 02 .76    -128   -161     53    207    214 218.5  14.5  34180  289.92 0861.76
2015 04 09 14 34 03 .00    -165   -204     68    263    272 219.0  14.5  34186  290.02 0861.76
2015 04 09 14 34 03 .27    -162   -169     34    235    238 223.7   8.2  34264  291.33 0861.76
2015 04 09 14 34 03 .51    -168   -169     37    239    242 224.8   8.8  34166  289.66 0861.76
2015 04 09 14 34 03 .76    -161   -170     26    235    237 223.4   6.5  34052  287.75 0861.76
2015 04 09 14 34 04 .02    -161   -170     18    235    236 223.3   4.4  34028  287.34 0861.76
2015 04 09 14 34 04 .26    -192   -158      3    249    250 230.5   0.7  34032  287.39 0861.76
2015 04 09 14 34 04 .52    -191   -143    -11    239    240 233.1  -2.8  34024  287.28 0861.76
2015 04 09 14 34 04 .77    -168   -150     -4    226    227 228.2  -1.3  34038  287.52 0861.76
2015 04 09 14 34 05 .01    -187   -124     -4    225    226 236.3  -1.3  34062  287.91 0861.76
2015 04 09 14 34 05 .27    -188   -138     -4    234    235 233.8  -1.2  34046  287.65 0861.76
2015 04 09 14 34 05 .52    -177   -138    -22    225    227 232.2  -5.6  34052  287.74 0861.76
2015 04 09 14 34 05 .77    -177   -138    -28    225    227 232.2  -7.3  34028  287.33 0861.76
2015 04 09 14 34 06 .02    -177   -126    -27    218    220 234.5  -7.2  34020  287.20 0861.76
2015 04 09 14 34 06 .27    -174   -130    -37    218    222 233.4  -9.8  34018  287.16 0861.76
2015 04 09 14 34 06 .52    -169   -115    -48    205    211 235.8 -13.4  34028  287.33 0861.76
2015 04 09 14 34 06 .78    -166   -126    -45    209    214 232.7 -12.2  34072  288.09 0861.76
2015 04 09 14 34 07 .02    -160   -143    -36    215    219 228.2  -9.6  34098  288.53 0861.76
2015 04 09 14 34 07 .27    -154   -143     -4    211    212 227.1  -1.1  34092  288.43 0861.75
2015 04 09 14 34 07 .52    -142   -166      4    219    220 220.5   1.2  34122  288.92 0861.75
2015 04 09 14 34 07 .77    -131   -189     11    231    232 214.7   2.9  34106  288.67 0861.75
2015 04 09 14 34 08 .02    -163   -163      4    231    232 225.0   1.2  34118  288.87 0861.75
2015 04 09 14 34 08 .27    -161   -198     -2    256    257 219.2  -0.5  34056  287.82 0861.75
2015 04 09 14 34 08 .52    -148   -200     26    250    252 216.5   6.0  34058  287.85 0861.75
2015 04 09 14 34 08 .78    -166   -227     18    282    283 216.3   3.8  34072  288.07 0861.75
2015 04 09 14 34 09 .03    -179   -222     14    286    287 219.0   2.9  34074  288.12 0861.74
2015 04 09 14 34 09 .27    -193   -206    -15    283    284 223.2  -3.1  34062  287.90 0861.74
2015 04 09 14 34 09 .53    -194   -188    -15    271    272 226.0  -3.2  34058  287.83 0861.74
2015 04 09 14 34 09 .78    -195   -195    -10    276    277 225.0  -2.2  34078  288.17 0861.74
2015 04 09 14 34 10 .04    -182   -160     -9    243    244 228.7  -2.2  34072  288.09 0861.74
2015 04 09 14 34 10 .29    -192   -159    -18    250    251 230.5  -4.1  34088  288.34 0861.74
2015 04 09 14 34 10 .54    -184   -177      9    256    257 226.0   2.1  34114  288.80 0861.74
2015 04 09 14 34 10 .79    -215   -175    -27    278    280 230.9  -5.6  34090  288.39 0861.74
2015 04 09 14 34 11 .04    -187   -183     12    262    263 225.6   2.8  34120  288.90 0861.74
2015 04 09 14 34 11 .30    -212   -200      9    292    293 226.7   1.8  34150  289.41 0861.74
2015 04 09 14 34 11 .54    -215   -215     -6    305    306 225.0  -1.2  34152  289.44 0861.74
2015 04 09 14 34 11 .79    -183   -228     45    293    297 218.7   8.9  34168  289.70 0861.74
2015 04 09 14 34 12 .04    -186   -218     27    287    289 220.5   5.4  34122  288.92 0861.74
2015 04 09 14 34 12 .29    -180   -198      8    268    269 222.3   1.7  34120  288.88 0861.74
2015 04 09 14 34 12 .55    -201   -201     -8    285    286 224.9  -1.8  34124  288.95 0861.74
2015 04 09 14 34 12 .79    -175   -223    -15    284    285 218.1  -3.1  34100  288.56 0861.74
2015 04 09 14 34 13 .04    -165   -216    -14    273    274 217.4  -3.1  34094  288.44 0861.74
2015 04 09 14 34 13 .30    -179   -231     35    293    296 217.8   6.9  34090  288.39 0861.74
2015 04 09 14 34 13 .55    -156   -234     35    282    285 213.8   7.2  34138  289.20 0861.74
2015 04 09 14 34 13 .79    -161   -233     38    284    287 214.7   7.8  34138  289.19 0861.74
2015 04 09 14 34 14 .05    -163   -196    -25    256    258 219.7  -5.6  34124  288.95 0861.74
2015 04 09 14 34 14 .30    -167   -191      7    254    255 221.2   1.8  34148  289.37 0861.74
2015 04 09 14 34 14 .55    -165   -190     14    252    253 221.0   3.3  34128  289.03 0861.74
2015 04 09 14 34 14 .80    -219   -181    -11    285    286 230.5  -2.2  34150  289.39 0861.74
2015 04 09 14 34 15 .05    -199   -196     -1    280    281 225.3  -0.3  34164  289.63 0861.74
2015 04 09 14 34 15 .30    -194   -184      8    268    269 226.4   1.7  34174  289.81 0861.74
2015 04 09 14 34 15 .55    -196   -178      8    265    266 227.8   1.8  34180  289.90 0861.74
2015 04 09 14 34 15 .80    -196   -215     24    292    294 222.4   4.9  34148  289.36 0861.74
2015 04 09 14 34 16 .06    -197   -216     -1    293    294 222.3  -0.3  34176  289.83 0861.74
2015 04 09 14 34 16 .30    -217   -175    -15    280    281 231.1  -3.1  34224  290.65 0861.74
2015 04 09 14 34 16 .55    -228   -180    -22    291    292 231.6  -4.4  34226  290.68 0861.74
2015 04 09 14 34 16 .80    -226   -199    -16    302    303 228.7  -3.2  34224  290.66 0861.74
2015 04 09 14 34 17 .56    -251   -154    -53    295    300 238.5 -10.3  34184  289.97 0861.74
2015 04 09 14 34 17 .82    -207   -131    -23    246    248 237.6  -5.4  34230  290.75 0861.74
2015 04 09 14 34 18 .07    -247   -126    -37    278    281 242.9  -7.7  34236  290.87 0861.74
2015 04 09 14 34 18 .32    -254   -132    -33    287    289 242.5  -6.7  34244  290.99 0861.74
2015 04 09 14 34 18 .56    -249   -118    -45    276    280 244.5  -9.4  34114  288.78 0861.73
2015 04 09 14 34 18 .82    -263   -129    -48    294    298 243.8  -9.3  34108  288.68 0861.73
2015 04 09 14 34 19 .07    -234   -151    -61    279    286 237.1 -12.4  34122  288.92 0861.73
2015 04 09 14 34 19 .32    -237   -112    -93    263    280 244.6 -19.6  34136  289.15 0861.73
2015 04 09 14 34 19 .57    -265   -130    -25    296    298 243.8  -4.9  34128  289.03 0861.73
2015 04 09 14 34 19 .83    -234   -183    -16    298    299 232.0  -3.1  34118  288.87 0861.73
2015 04 09 14 34 20 .07    -207   -185     -1    278    279 228.2  -0.3  34148  289.36 0861.73
2015 04 09 14 34 20 .32    -189   -151     -5    242    243 231.4  -1.3  34146  289.32 0861.73
2015 04 09 14 34 20 .57    -213   -153    -10    263    264 234.3  -2.2  34184  289.97 0861.73
2015 04 09 14 34 20 .82    -196   -141    -21    242    243 234.3  -5.2  34154  289.46 0861.73
2015 04 09 14 34 21 .08    -177   -167      0    244    245 226.8   0.0  34156  289.51 0861.73
2015 04 09 14 34 21 .33    -172   -186     13    254    255 222.8   3.1  34146  289.34 0861.73
2015 04 09 14 34 21 .57    -143   -185     32    234    237 217.8   7.8  34100  288.54 0861.73
2015 04 09 14 34 21 .83    -147   -196     46    245    250 216.9  10.8  34176  289.85 0861.73
2015 04 09 14 34 22 .08    -137   -161     29    212    214 220.5   7.8  34166  289.69 0861.73
2015 04 09 14 34 22 .32    -129   -181    -12    223    224 215.6  -3.2  34108  288.69 0861.73
2015 04 09 14 34 22 .58    -135   -171    -16    218    219 218.3  -4.4  34112  288.75 0861.73
2015 04 09 14 34 22 .83    -139   -184    -10    231    232 217.0  -2.6  34098  288.52 0861.73
2015 04 09 14 34 23 .08    -141   -160    -18    214    215 221.5  -4.9  34080  288.21 0861.73
2015 04 09 14 34 23 .33    -146   -181     12    233    234 219.0   3.1  34158  289.54 0861.73
2015 04 09 14 34 23 .58    -160   -172     12    236    237 223.0   3.1  34164  289.64 0861.73
2015 04 09 14 34 23 .83    -167   -186     19    250    251 221.9   4.4  34160  289.56 0861.73
2015 04 09 14 34 24 .09    -213   -165    -21    270    271 232.2  -4.6  34184  289.97 0861.73
2015 04 09 14 34 24 .34    -188   -156     -7    245    246 230.4  -1.8  34154  289.47 0861.73
2015 04 09 14 34 24 .59    -170   -157     17    232    233 227.3   4.2  34186  290.00 0861.73
2015 04 09 14 34 24 .84    -175   -164     16    241    242 226.9   3.9  34200  290.24 0861.73
2015 04 09 14 34 25 .09    -164   -164     17    232    233 225.0   4.4  34206  290.34 0861.73
2015 04 09 14 34 25 .34    -137   -165     18    215    216 219.7   4.9  34226  290.69 0861.73
2015 04 09 14 34 25 .60    -115   -100     53    153    163 229.1  19.2  34232  290.79 0861.73
2015 04 09 14 34 25 .84    -117   -118     24    167    169 224.8   8.2  34226  290.69 0861.74
2015 04 09 14 34 26 .09    -157    -89     21    181    183 240.5   6.7  34228  290.72 0861.74
2015 04 09 14 34 26 .35    -236    -90    -32    253    256 248.9  -7.3  34126  288.98 0861.74
2015 04 09 14 34 26 .60    -214    -85    -62    231    240 248.2 -15.0  34182  289.93 0861.74
2015 04 09 14 34 26 .85    -166    -96      4    192    193 240.0   1.2  34218  290.57 0861.74
2015 04 09 14 34 27 .10    -230   -109    -24    255    257 244.6  -5.4  34248  291.07 0861.74
2015 04 09 14 34 27 .34    -241   -143     -3    281    282 239.3  -0.7  34202  290.29 0861.74
2015 04 09 14 34 27 .60    -161   -147     -8    219    220 227.6  -2.3  34218  290.55 0861.74
2015 04 09 14 34 27 .84    -205   -139     -2    249    250 235.8  -0.5  34084  288.29 0861.74
2015 04 09 14 34 28 .10    -216   -138    -18    257    258 237.5  -4.1  34058  287.85 0861.74
2015 04 09 14 34 28 .35    -245   -136    -30    281    283 240.9  -6.2  34124  288.95 0861.74
2015 04 09 14 34 28 .60    -274   -108    -44    295    299 248.5  -8.6  34128  289.02 0861.74
2015 04 09 14 34 28 .85    -221    -13    -24    222    224 266.5  -6.2  34106  288.67 0861.74
2015 04 09 14 34 29 .10     -81    -51     -3     96     97 237.6  -2.2  34158  289.53 0861.74
2015 04 09 14 34 29 .35    -166   -100    -14    195    196 238.9  -4.1  34176  289.85 0861.74
2015 04 09 14 34 29 .61    -121    -99     -1    157    158 230.5  -0.5  34216  290.52 0861.74
2015 04 09 14 34 29 .85    -114    -83     10    142    143 234.0   4.4  34242  290.96 0861.74
2015 04 09 14 34 30 .11    -119    -70     -4    139    140 239.4  -1.8  34214  290.50 0861.73
2015 04 09 14 34 30 .36     -93    -83     93    125    155 228.2  40.1  34278  291.59 0861.73
2015 04 09 14 34 30 .60     -22    -41     19     47     50 208.1  23.0  34286  291.71 0861.73
2015 04 09 14 34 30 .87     -76    -70     68    104    124 227.3  36.0  34296  291.88 0861.73
2015 04 09 14 34 31 .11    -103    -68      3    124    125 236.3   1.8  34246  291.03 0861.73
2015 04 09 14 34 31 .37    -146   -109     -4    183    184 233.4  -1.3  34140  289.24 0861.73
2015 04 09 14 34 31 .62    -114   -130     33    174    178 221.2  10.8  34218  290.57 0861.73
2015 04 09 14 34 31 .87    -115   -147      9    187    188 218.1   2.9  34102  288.60 0861.73
2015 04 09 14 34 32 .12    -133   -160     10    209    210 219.6   2.9  34184  289.97 0861.73
2015 04 09 14 34 32 .37    -146   -155     18    214    215 223.3   4.9  34202  290.30 0861.73
2015 04 09 14 34 32 .62    -120   -143     53    187    195 220.1  15.8  34222  290.64 0861.73
2015 04 09 14 34 32 .88    -103   -130     26    167    170 218.5   9.0  34274  291.50 0861.74
2015 04 09 14 34 33 .12     -75   -166     18    183    184 204.5   5.7  34314  292.20 0861.74
2015 04 09 14 34 33 .37    -100   -139     76    172    188 215.8  25.3  34280  291.62 0861.74
2015 04 09 14 34 33 .62    -120   -193     41    228    232 211.9  10.3  34282  291.66 0861.74
2015 04 09 14 34 33 .87    -156   -208     -5    261    262 216.9  -1.3  34094  288.44 0861.74
2015 04 09 14 34 34 .12    -185   -216    -20    285    286 220.5  -4.1  34084  288.27 0861.74
2015 04 09 14 34 34 .38    -213   -204    -21    296    297 226.2  -4.1  34086  288.31 0861.74
2015 04 09 14 34 34 .62    -194   -206    -15    284    285 223.2  -3.1  34088  288.34 0861.74
2015 04 09 14 34 34 .88    -205   -192    -22    282    283 226.9  -4.6  34104  288.63 0861.74
2015 04 09 14 34 35 .12    -203   -196     15    283    284 226.0   3.1  34180  289.92 0861.74
2015 04 09 14 34 35 .37    -242   -251     10    349    350 224.0   1.8  34106  288.67 0861.74
2015 04 09 14 34 35 .63    -222   -235     -5    324    325 223.3  -0.9  34088  288.36 0861.74
2015 04 09 14 34 35 .88    -208   -209     12    296    297 224.9   2.3  34078  288.19 0861.74
2015 04 09 14 34 36 .13    -229   -208     -6    310    311 227.8  -1.1  34072  288.09 0861.74
2015 04 09 14 34 36 .39    -230   -223      2    321    322 226.0   0.4  34096  288.49 0861.74
2015 04 09 14 34 36 .63    -236   -201     12    311    312 229.6   2.4  34124  288.97 0861.74
2015 04 09 14 34 36 .88    -224   -224     21    317    318 225.0   3.8  34130  289.05 0861.74
2015 04 09 14 34 37 .14    -193   -239     17    308    309 219.0   3.3  34150  289.39 0861.74
2015 04 09 14 34 37 .38    -192   -232     35    302    305 219.7   6.7  34156  289.51 0861.74
2015 04 09 14 34 37 .63    -162   -202      3    260    261 218.8   0.7  34122  288.93 0861.74
2015 04 09 14 34 37 .89    -181   -241    -24    302    303 217.0  -4.6  34104  288.63 0861.74
2015 04 09 14 34 38 .15    -210   -276      1    348    349 217.3   0.2  34136  289.15 0861.74
2015 04 09 14 34 38 .39    -198   -272     30    337    339 216.1   5.1  34140  289.23 0861.74
2015 04 09 14 34 38 .65    -200   -268      2    335    336 216.8   0.5  34044  287.62 0861.74
2015 04 09 14 34 38 .89    -205   -260    -12    332    333 218.2  -2.2  34022  287.25 0861.74
2015 04 09 14 34 39 .15    -191   -285     -8    344    345 213.9  -1.4  34062  287.91 0861.74
2015 04 09 14 34 39 .40    -204   -254     16    327    328 218.8   2.9  34074  288.12 0861.74
2015 04 09 14 34 39 .64    -203   -268     48    337    341 217.2   8.2  34060  287.88 0861.74
2015 04 09 14 34 39 .90    -219   -275     -9    352    353 218.5  -1.6  34028  287.34 0861.74
2015 04 09 14 34 40 .15    -204   -288      0    353    354 215.3   0.1  34064  287.93 0861.74
2015 04 09 14 34 40 .39    -208   -299     15    365    366 214.8   2.4  34078  288.20 0861.74
2015 04 09 14 34 40 .65    -201   -278    -22    344    345 215.8  -3.8  34042  287.57 0861.74
2015 04 09 14 34 40 .90    -205   -269    -37    339    342 217.4  -6.2  34028  287.34 0861.74
2015 04 09 14 34 41 .15    -170   -243    -13    297    298 215.1  -2.6  34086  288.31 0861.74
2015 04 09 14 34 41 .40    -212   -301     23    369    370 215.1   3.6  34120  288.89 0861.74
2015 04 09 14 34 41 .65    -212   -288     42    358    361 216.4   6.8  34140  289.23 0861.74
2015 04 09 14 34 41 .90    -165   -272    -25    319    321 211.2  -4.5  34046  287.63 0861.74
2015 04 09 14 34 42 .15    -156   -273     -7    315    316 209.8  -1.4  34050  287.70 0861.74
2015 04 09 14 34 42 .40    -146   -264     -6    303    304 209.0  -1.2  34042  287.56 0861.74
2015 04 09 14 34 42 .65    -149   -252    -37    294    297 210.7  -7.2  34036  287.48 0861.74
2015 04 09 14 34 42 .90    -148   -252    -21    293    294 210.5  -4.1  34038  287.50 0861.73
2015 04 09 14 34 43 .15    -151   -245    -27    288    290 211.6  -5.4  34038  287.50 0861.73
2015 04 09 14 34 43 .40    -156   -263    -50    306    311 210.7  -9.3  34038  287.51 0861.73
2015 04 09 14 34 43 .65    -170   -267    -36    317    320 212.6  -6.5  34040  287.53 0861.73
2015 04 09 14 34 43 .91    -225   -288    -24    366    367 218.0  -3.8  34034  287.45 0861.73
2015 04 09 14 34 44 .15    -238   -259    -44    353    356 222.6  -7.2  34034  287.44 0861.73
2015 04 09 14 34 44 .41    -198   -265    -30    332    334 216.8  -5.2  34034  287.45 0861.73
2015 04 09 14 34 44 .66    -185   -272    -21    330    331 214.3  -3.7  34062  287.91 0861.73
2015 04 09 14 34 44 .92    -156   -282     -9    323    324 209.0  -1.7  34090  288.39 0861.73
2015 04 09 14 34 45 .17    -165   -278    -37    324    327 210.7  -6.6  34062  287.90 0861.73
2015 04 09 14 34 45 .42    -157   -316    -38    354    357 206.5  -6.2  34058  287.83 0861.72
2015 04 09 14 34 45 .67    -189   -328    -19    379    380 209.9  -3.0  34094  288.45 0861.72
2015 04 09 14 34 45 .92    -185   -276     -4    333    334 213.8  -0.7  34066  287.98 0861.72
2015 04 09 14 34 46 .17    -201   -251     13    322    323 218.7   2.3  34072  288.07 0861.72
2015 04 09 14 34 46 .42    -169   -304     65    349    355 209.1  10.6  34126  289.01 0861.72
2015 04 09 14 34 46 .68    -162   -344     58    381    386 205.3   8.7  34128  289.03 0861.72
2015 04 09 14 34 46 .92    -139   -226     67    266    275 211.6  14.3  34146  289.34 0861.72
2015 04 09 14 34 47 .17    -202   -275     64    342    349 216.4  10.7  34104  288.64 0861.72
2015 04 09 14 34 47 .42    -164   -277    -12    322    323 210.7  -2.2  34032  287.39 0861.71
2015 04 09 14 34 47 .68    -175   -274     -4    326    327 212.5  -0.7  34056  287.82 0861.71
2015 04 09 14 34 47 .93    -172   -288     -1    336    337 210.9  -0.3  34068  288.00 0861.71
2015 04 09 14 34 48 .18    -170   -268    -17    318    319 212.5  -3.2  34038  287.51 0861.71
2015 04 09 14 34 48 .43    -177   -293     14    343    344 211.2   2.4  34112  288.76 0861.71
2015 04 09 14 34 48 .67    -152   -312     17    348    349 206.0   2.9  34102  288.59 0861.71
2015 04 09 14 34 48 .93    -178   -276    -13    329    330 212.8  -2.3  34048  287.69 0861.71
2015 04 09 14 34 49 .18    -176   -276    -31    328    330 212.5  -5.5  34068  288.03 0861.71
2015 04 09 14 34 49 .43    -107   -289    -39    309    312 200.3  -7.2  34176  289.85 0861.71
2015 04 09 14 34 49 .68     -76   -248     12    260    261 197.2   2.8  34218  290.56 0861.71
2015 04 09 14 34 49 .92     -90   -256     53    272    278 199.4  11.1  34132  289.09 0861.71
2015 04 09 14 34 50 .18    -139   -226     -2    266    267 211.6  -0.5  34028  287.34 0861.71
2015 04 09 14 34 50 .44    -141   -195    -16    241    242 215.8  -3.9  34070  288.04 0861.71
2015 04 09 14 34 50 .69     -98   -207     24    230    232 205.5   6.0  34138  289.21 0861.71
2015 04 09 14 34 50 .93    -115   -211    -41    241    245 208.7  -9.8  34168  289.70 0861.70
2015 04 09 14 34 51 .18     -67   -174     53    187    195 201.2  15.8  34202  290.30 0861.70
2015 04 09 14 34 51 .43       2   -188     34    189    193 179.3  10.3  34190  290.09 0861.70
2015 04 09 14 34 51 .70     -40   -121     18    128    130 198.3   8.0  34218  290.55 0861.70
2015 04 09 14 34 51 .94      -5    -93     19     94     96 183.1  11.6  34196  290.18 0861.71
2015 04 09 14 34 52 .20      43    -93     44    103    112 155.1  24.1  34184  289.99 0861.71
2015 04 09 14 34 52 .45      -2   -144      9    145    146 181.0   3.8  34192  290.11 0861.71
2015 04 09 14 34 52 .69     -31   -160     18    164    166 191.1   6.5  34190  290.09 0861.71
2015 04 09 14 34 52 .95     -44   -133     44    141    148 198.5  17.3  34126  288.99 0861.71
2015 04 09 14 34 53 .20     -87   -134     41    160    166 213.0  14.5  34140  289.24 0861.71
2015 04 09 14 34 53 .44     -92   -145     41    172    177 212.5  13.5  34096  288.50 0861.71
2015 04 09 14 34 53 .70     -97   -146      0    176    177 213.8   0.2  34078  288.18 0861.71
2015 04 09 14 34 53 .95    -101   -153     17    184    185 213.6   5.4  34076  288.16 0861.71
2015 04 09 14 34 54 .20    -133   -159     -8    208    209 219.9  -2.2  34096  288.48 0861.71
2015 04 09 14 34 54 .45    -120    -95    -19    154    156 231.8  -7.2  34108  288.69 0861.71
2015 04 09 14 34 54 .70    -117    -79     48    142    151 235.8  18.9  34110  288.74 0861.71
2015 04 09 14 34 54 .96    -181   -187    -10    261    262 224.1  -2.2  34122  288.92 0861.71
2015 04 09 14 34 55 .20    -134   -162     -8    211    212 219.6  -2.3  34154  289.46 0861.71
2015 04 09 14 34 55 .46    -122   -184      1    221    222 213.6   0.5  34166  289.67 0861.71
2015 04 09 14 34 55 .70    -131   -227     76    263    274 209.9  16.3  34178  289.86 0861.71
2015 04 09 14 34 55 .95    -123   -231     30    262    264 208.1   6.7  34154  289.46 0861.71
2015 04 09 14 34 56 .20    -125   -154     13    199    200 219.2   3.8  34198  290.23 0861.71
2015 04 09 14 34 56 .45    -132   -124     -8    182    183 226.9  -2.6  34160  289.58 0861.71
2015 04 09 14 34 56 .71    -109   -132     20    172    174 219.4   6.7  34178  289.87 0861.71
2015 04 09 14 34 56 .96    -119   -127     37    175    180 223.0  12.2  34198  290.21 0861.71
2015 04 09 14 34 57 .20    -112   -143     48    183    190 218.1  14.7  34186  290.02 0861.71
2015 04 09 14 34 57 .46    -108   -124     26    165    168 221.2   9.0  34156  289.52 0861.71
2015 04 09 14 34 57 .71    -112   -135      5    176    177 219.7   1.8  34196  290.18 0861.71
2015 04 09 14 34 57 .96    -132   -160      7    208    209 219.6   2.1  34196  290.19 0861.71
2015 04 09 14 34 58 .21    -195   -144      2    243    244 233.6   0.5  34238  290.90 0861.71
2015 04 09 14 34 58 .46    -167   -170     20    239    240 224.5   4.9  34204  290.31 0861.71
2015 04 09 14 34 58 .72    -196   -141      6    242    243 234.3   1.6  34138  289.19 0861.71
2015 04 09 14 34 58 .97    -145   -135     15    199    200 227.1   4.6  34196  290.18 0861.71
2015 04 09 14 34 59 .22     -96   -143     64    173    184 214.1  21.0  34206  290.35 0861.71
2015 04 09 14 34 59 .47    -110   -184     76    215    228 210.8  20.0  34212  290.47 0861.71
2015 04 09 14 34 59 .73    -148   -170     33    226    229 221.2   8.5  34258  291.25 0861.71
2015 04 09 14 34 59 .97    -144   -163     26    218    220 221.4   6.9  34246  291.04 0861.71
2015 04 09 14 35 00 .22    -175   -164    -17    241    242 226.9  -4.1  34178  289.88 0861.71
2015 04 09 14 35 00 .47    -203   -160    -29    259    261 231.6  -6.5  34160  289.56 0861.71
2015 04 09 14 35 00 .73    -161   -129    -14    207    208 231.4  -3.9  34172  289.79 0861.71
2015 04 09 14 35 00 .98    -127   -168     41    211    215 217.2  11.0  34218  290.55 0861.71
2015 04 09 14 35 01 .23    -121   -156     69    198    210 217.8  19.2  34258  291.23 0861.71
2015 04 09 14 35 01 .47    -143   -185     24    234    236 217.8   5.9  34124  288.95 0861.71
2015 04 09 14 35 01 .72    -151   -199    -29    251    253 217.2  -6.7  34058  287.85 0861.72
2015 04 09 14 35 01 .98    -148   -179      3    233    234 219.7   0.8  34114  288.78 0861.72
2015 04 09 14 35 02 .23    -192   -211    -13    286    287 222.3  -2.6  34124  288.95 0861.72
2015 04 09 14 35 02 .48    -172   -221     -1    281    282 217.9  -0.3  34118  288.85 0861.72
2015 04 09 14 35 02 .73    -216   -200      4    295    296 227.1   0.8  34118  288.87 0861.72
2015 04 09 14 35 02 .98    -217   -212    -19    304    305 225.8  -3.7  34034  287.43 0861.72
2015 04 09 14 35 03 .23    -193   -214     -1    289    290 222.1  -0.3  34126  288.98 0861.72
2015 04 09 14 35 03 .48    -186   -193     21    269    270 223.9   4.6  34126  289.00 0861.72
2015 04 09 14 35 03 .73    -190   -178     32    261    264 226.9   7.1  34162  289.59 0861.72
2015 04 09 14 35 03 .98    -202   -177     17    269    270 228.7   3.8  34186  290.00 0861.72
2015 04 09 14 35 04 .23    -205   -180      1    273    274 228.7   0.2  34136  289.15 0861.72
2015 04 09 14 35 04 .48    -179   -151     -8    235    236 229.8  -2.1  34104  288.61 0861.72
2015 04 09 14 35 04 .74    -165   -230     30    284    286 215.6   6.1  34172  289.78 0861.72
2015 04 09 14 35 04 .99    -146   -238     69    280    289 211.6  13.9  34192  290.10 0861.72
2015 04 09 14 35 05 .23    -147   -225     24    270    272 213.2   5.2  34148  289.36 0861.72
2015 04 09 14 35 05 .49    -226   -217    -35    314    317 226.2  -6.5  34100  288.54 0861.72
2015 04 09 14 35 05 .75    -192   -247     -1    313    314 217.9  -0.3  34130  289.05 0861.72
2015 04 09 14 35 06 .00    -222   -245    -14    331    332 222.2  -2.5  34226  290.69 0861.72
2015 04 09 14 35 06 .24    -237   -264     18    355    356 221.9   3.0  34162  289.60 0861.72
2015 04 09 14 35 06 .50    -203   -254     -6    326    327 218.7  -1.2  34092  288.41 0861.72
2015 04 09 14 35 06 .75    -239   -258      0    352    353 222.8   0.1  34094  288.45 0861.72
2015 04 09 14 35 07 .00    -272   -292    -19    400    401 223.0  -2.8  34104  288.62 0861.72
2015 04 09 14 35 07 .25    -241   -256    -38    352    355 223.3  -6.2  34088  288.35 0861.72
2015 04 09 14 35 07 .50    -249   -206    -52    324    329 230.4  -9.1  34068  288.02 0861.72
2015 04 09 14 35 07 .75    -236   -256    -11    349    350 222.6  -1.9  34090  288.37 0861.72
2015 04 09 14 35 08 .00    -243   -254     -6    352    353 223.8  -1.1  34100  288.54 0861.72
2015 04 09 14 35 08 .25    -267   -220    -24    346    347 230.5  -4.0  34054  287.79 0861.72
2015 04 09 14 35 08 .51    -243   -175    -61    300    307 234.3 -11.5  34068  288.00 0861.72
2015 04 09 14 35 08 .76    -249   -231     34    340    342 227.1   5.8  34134  289.13 0861.72
2015 04 09 14 35 09 .00    -181   -226     55    290    296 218.7  10.8  34140  289.24 0861.72
2015 04 09 14 35 09 .25    -197   -219      4    295    296 221.9   0.8  34132  289.09 0861.72
2015 04 09 14 35 09 .51    -229   -193     15    300    301 229.8   2.9  34150  289.39 0861.72
2015 04 09 14 35 09 .76    -206   -220      8    302    303 223.2   1.6  34140  289.24 0861.71
2015 04 09 14 35 10 .01    -254   -178    -16    311    312 234.9  -3.0  34140  289.24 0861.71
2015 04 09 14 35 10 .26    -283   -157    -25    324    326 240.9  -4.5  34160  289.56 0861.71
2015 04 09 14 35 10 .50    -244   -195    -12    313    314 231.3  -2.2  34148  289.37 0861.71
2015 04 09 14 35 10 .76    -213   -213      5    302    303 225.1   1.0  34142  289.27 0861.71
2015 04 09 14 35 11 .01    -244   -217     -6    327    328 228.4  -1.1  34140  289.22 0861.71
2015 04 09 14 35 11 .26    -242   -199    -17    314    315 230.5  -3.2  34154  289.47 0861.71
2015 04 09 14 35 11 .50    -275   -163    -34    320    322 239.3  -6.1  34072  288.09 0861.71
2015 04 09 14 35 11 .76    -263   -147    -26    302    304 240.7  -5.1  34062  287.92 0861.71
2015 04 09 14 35 12 .02    -262   -104    -37    282    285 248.3  -7.5  34102  288.59 0861.71
2015 04 09 14 35 12 .27    -215   -116    -28    245    247 241.6  -6.7  34198  290.20 0861.71
2015 04 09 14 35 12 .51    -205   -159      8    260    261 232.2   1.8  34158  289.54 0861.71
2015 04 09 14 35 12 .77    -178   -157    -17    238    239 228.6  -4.1  34208  290.37 0861.71
2015 04 09 14 35 13 .02    -203   -112    -32    232    235 241.1  -8.0  34156  289.51 0861.71
2015 04 09 14 35 13 .28    -170   -123    -11    211    212 234.0  -3.1  34178  289.87 0861.71
2015 04 09 14 35 13 .53    -199   -126    -43    236    241 237.6 -10.5  34190  290.07 0861.72
2015 04 09 14 35 13 .77    -212   -174      3    275    276 230.5   0.8  34188  290.05 0861.72
2015 04 09 14 35 14 .02    -164   -183     22    246    248 221.9   5.2  34196  290.19 0861.72
2015 04 09 14 35 14 .28    -160   -169     32    234    237 223.4   8.0  34190  290.07 0861.72
2015 04 09 14 35 14 .53    -145   -159     50    216    222 222.3  13.1  34198  290.23 0861.72
2015 04 09 14 35 14 .78    -151   -160     43    221    226 223.3  11.1  34310  292.12 0861.72
2015 04 09 14 35 15 .03    -186   -161     16    247    248 229.1   3.9  34286  291.70 0861.72
2015 04 09 14 35 15 .27    -220   -143      8    263    264 236.9   1.8  34126  288.98 0861.71
2015 04 09 14 35 15 .53    -257   -147    -27    297    299 240.2  -5.4  34124  288.97 0861.71
2015 04 09 14 35 15 .78    -273   -139    -32    307    309 242.9  -6.1  34134  289.14 0861.71
2015 04 09 14 35 16 .03    -280   -117    -38    304    307 247.2  -7.2  34128  289.03 0861.71
2015 04 09 14 35 16 .28    -278   -147    -43    315    318 242.0  -7.9  34114  288.78 0861.71
2015 04 09 14 35 16 .53    -257   -125    -33    287    289 244.0  -6.7  34148  289.37 0861.71
2015 04 09 14 35 16 .78    -247   -191    -20    313    314 232.3  -3.7  34162  289.61 0861.71
2015 04 09 14 35 17 .03    -235   -187     19    301    302 231.4   3.6  34182  289.93 0861.72
2015 04 09 14 35 17 .28    -271   -144    -27    307    309 242.0  -5.2  34188  290.03 0861.72
2015 04 09 14 35 17 .54    -285   -129    -45    313    317 245.6  -8.2  34192  290.10 0861.72
2015 04 09 14 35 17 .78    -312   -151    -30    347    349 244.1  -5.1  34148  289.38 0861.72
2015 04 09 14 35 18 .03    -294   -208    -20    361    362 234.8  -3.3  34126  288.98 0861.72
2015 04 09 14 35 18 .29    -288   -197    -31    349    351 235.6  -5.1  34118  288.86 0861.72
2015 04 09 14 35 18 .53    -322   -179    -27    369    370 240.8  -4.2  34122  288.94 0861.72
2015 04 09 14 35 18 .79    -310   -171    -40    355    358 241.1  -6.5  34152  289.43 0861.71
2015 04 09 14 35 19 .04    -314   -124    -53    338    343 248.4  -9.0  34136  289.18 0861.71
2015 04 09 14 35 19 .29    -301   -139    -43    332    335 245.2  -7.5  34148  289.38 0861.71
2015 04 09 14 35 19 .55    -279   -107    -36    299    302 248.9  -6.9  34178  289.88 0861.71
2015 04 09 14 35 19 .80    -356   -131    -48    380    384 249.7  -7.3  34152  289.42 0861.71
2015 04 09 14 35 20 .05    -345   -144    -61    375    381 247.3  -9.3  34174  289.82 0861.71
2015 04 09 14 35 20 .30    -390   -123    -75    410    417 252.4 -10.4  34178  289.87 0861.71
2015 04 09 14 35 20 .55    -393   -124    -71    413    420 252.5  -9.8  34144  289.31 0861.71
2015 04 09 14 35 20 .80    -374    -89    -78    385    394 256.5 -11.6  34132  289.11 0861.71
2015 04 09 14 35 21 .05    -353   -181    -51    397    401 242.8  -7.4  34202  290.30 0861.71
2015 04 09 14 35 21 .30    -387   -174    -51    425    429 245.8  -6.9  34184  289.97 0861.71
2015 04 09 14 35 21 .55    -382   -129    -63    404    410 251.3  -8.9  34178  289.87 0861.71
2015 04 09 14 35 21 .80    -322    -81    -52    333    338 255.8  -9.0  34200  290.25 0861.71
2015 04 09 14 35 22 .05    -344    -69    -68    351    358 258.5 -11.0  34202  290.28 0861.71
2015 04 09 14 35 22 .31    -287      0    -79    288    299 270.0 -15.4  34238  290.90 0861.71
2015 04 09 14 35 22 .55    -218     73    -63    231    240 288.6 -15.4  34352  292.82 0861.71
2015 04 09 14 35 22 .81    -176      9    -23    177    179 273.0  -7.5  34340  292.64 0861.71
2015 04 09 14 35 23 .05    -263     23    -55    265    271 275.2 -11.9  34282  291.65 0861.71
2015 04 09 14 35 23 .31    -151     24    -20    153    155 279.2  -7.7  34250  291.09 0861.71
2015 04 09 14 35 23 .56    -194     61    -27    204    206 287.5  -7.7  34290  291.79 0861.71
2015 04 09 14 35 23 .81    -215      0    -68    216    226 270.1 -22.8  34268  291.42 0861.71
2015 04 09 14 35 24 .06    -196    -54    -28    204    207 254.5  -8.0  34224  290.67 0861.71
2015 04 09 14 35 24 .31    -175    -15    -48    176    183 264.8 -15.4  34246  291.04 0861.71
2015 04 09 14 35 24 .56     -60     26      4     66     67 293.5   3.8  34286  291.72 0861.71
2015 04 09 14 35 24 .81    -200    -50    -45    207    212 255.8 -12.4  34200  290.26 0861.71
2015 04 09 14 35 25 .06    -232   -100    -50    253    259 246.5 -11.3  34180  289.92 0861.72
2015 04 09 14 35 25 .31    -163     -4    -44    164    170 268.3 -15.2  34206  290.36 0861.72
2015 04 09 14 35 25 .56     -48    -77     41     91     99 212.1  26.2  34244  291.01 0861.72
2015 04 09 14 35 25 .81    -161   -152    -15    222    223 226.7  -3.9  34236  290.87 0861.72
2015 04 09 14 35 26 .06    -251   -222    -13    336    337 228.5  -2.2  34154  289.47 0861.72
2015 04 09 14 35 26 .32    -205   -164     -3    263    264 231.4  -0.7  34178  289.86 0861.72
2015 04 09 14 35 26 .58    -165    -67    -23    179    181 247.8  -7.3  34252  291.15 0861.72
2015 04 09 14 35 26 .82    -154    -26    -24    157    159 260.4  -9.0  34238  290.89 0861.72
2015 04 09 14 35 27 .08    -138      0    -34    139    144 270.4 -13.9  34236  290.86 0861.72
2015 04 09 14 35 27 .33     -74    -59     15     95     97 231.4   9.0  34250  291.09 0861.72
2015 04 09 14 35 27 .58    -186    -71    -25    200    202 248.9  -7.2  34262  291.32 0861.72
2015 04 09 14 35 27 .83    -167    -65    -43    180    186 248.7 -13.4  34278  291.59 0861.72
2015 04 09 14 35 28 .08    -208   -118    -28    240    242 240.5  -6.7  34304  292.01 0861.72
2015 04 09 14 35 28 .33    -198   -131    -52    238    244 236.5 -12.4  34356  292.89 0861.72
2015 04 09 14 35 28 .57    -287   -182    -31    341    343 237.6  -5.3  34178  289.89 0861.72
2015 04 09 14 35 28 .83    -336   -219    -34    402    404 236.9  -4.9  34082  288.24 0861.71
2015 04 09 14 35 29 .08    -231   -169    -16    287    288 233.8  -3.3  34306  292.04 0861.71
2015 04 09 14 35 29 .33    -266   -168    -56    315    321 237.8 -10.2  34256  291.19 0861.71
2015 04 09 14 35 29 .58    -321   -164    -39    361    364 242.9  -6.2  34100  288.55 0861.71
2015 04 09 14 35 29 .83    -335   -197    -51    389    393 239.5  -7.5  34068  288.00 0861.71
2015 04 09 14 35 30 .08    -374   -223    -39    436    438 239.2  -5.2  34038  287.52 0861.71
2015 04 09 14 35 30 .34    -317   -214    -30    383    385 236.0  -4.5  34058  287.84 0861.71
2015 04 09 14 35 30 .59    -330   -172    -31    373    375 242.5  -4.8  34092  288.42 0861.71
2015 04 09 14 35 30 .83    -340   -113    -40    359    362 251.5  -6.5  34130  289.08 0861.71
2015 04 09 14 35 31 .08    -357   -145    -32    386    388 247.8  -4.9  34096  288.50 0861.71
2015 04 09 14 35 31 .34    -325   -179    -33    372    374 241.2  -5.1  34078  288.18 0861.71
2015 04 09 14 35 31 .59    -264   -200    -29    332    334 232.9  -5.1  34134  289.13 0861.71
2015 04 09 14 35 31 .84    -278   -182    -30    333    335 236.7  -5.2  34200  290.25 0861.71
2015 04 09 14 35 32 .08    -275    -45    -15    279    280 260.5  -3.1  34166  289.66 0861.71
2015 04 09 14 35 32 .34    -350    -94    -65    363    369 254.9 -10.2  34116  288.81 0861.71
2015 04 09 14 35 32 .59    -276    -65    -46    284    288 256.7  -9.3  34152  289.42 0861.71
2015 04 09 14 35 32 .83    -292    -97    -12    308    309 251.6  -2.2  34076  288.15 0861.71
2015 04 09 14 35 33 .09    -338   -111    -58    356    361 251.7  -9.3  34034  287.44 0861.71
2015 04 09 14 35 33 .34    -313   -110    -47    332    336 250.6  -8.1  34038  287.52 0861.71
2015 04 09 14 35 33 .60    -322   -153    -34    357    359 244.5  -5.5  34036  287.47 0861.71
2015 04 09 14 35 33 .85    -319    -76    -56    329    334 256.5  -9.7  34038  287.51 0861.71
2015 04 09 14 35 34 .10    -275   -111    -32    297    299 248.0  -6.2  34042  287.56 0861.71
2015 04 09 14 35 34 .36    -236   -148    -37    279    282 237.8  -7.7  34094  288.44 0861.71
2015 04 09 14 35 34 .60    -231   -106    -40    255    259 245.4  -9.0  34102  288.58 0861.71
2015 04 09 14 35 34 .85    -260    -89    -25    276    278 251.0  -5.2  34086  288.31 0861.71
2015 04 09 14 35 35 .10    -259    -73    -61    270    277 254.1 -12.9  34088  288.36 0861.71
2015 04 09 14 35 35 .36    -349    -94    -45    362    365 254.9  -7.2  34108  288.69 0861.71
2015 04 09 14 35 35 .60    -323   -153    -48    358    362 244.6  -7.7  34130  289.08 0861.71
2015 04 09 14 35 35 .86    -288   -183    -31    342    344 237.5  -5.3  34172  289.79 0861.71
2015 04 09 14 35 36 .11    -302   -163    -29    344    346 241.6  -4.9  34178  289.87 0861.71
2015 04 09 14 35 36 .36    -299   -196    -17    358    359 236.7  -2.8  34040  287.54 0861.71
2015 04 09 14 35 36 .61    -294   -196    -13    354    355 236.3  -2.2  34042  287.59 0861.71
2015 04 09 14 35 36 .85    -278   -214    -19    352    353 232.4  -3.1  34080  288.22 0861.71
2015 04 09 14 35 37 .11    -271   -184    -17    328    329 235.8  -3.1  34054  287.78 0861.71
2015 04 09 14 35 37 .37    -255   -216    -13    335    336 229.7  -2.2  34110  288.72 0861.71
2015 04 09 14 35 37 .61    -237   -178    -21    297    298 233.1  -4.1  34200  290.24 0861.71
2015 04 09 14 35 37 .86    -168   -120    -26    207    209 234.5  -7.2  34226  290.70 0861.71
2015 04 09 14 35 38 .10    -274    -31    -15    276    277 263.4  -3.3  34108  288.68 0861.71
2015 04 09 14 35 38 .37    -341   -127    -66    365    372 249.5 -10.4  34068  288.01 0861.71
2015 04 09 14 35 38 .61    -330   -128    -49    355    359 248.7  -7.9  34050  287.72 0861.71
2015 04 09 14 35 38 .86    -326   -102    -56    342    347 252.6  -9.3  34052  287.76 0861.71
2015 04 09 14 35 39 .11    -312   -102    -56    329    334 251.9  -9.7  34054  287.79 0861.71
2015 04 09 14 35 39 .37    -304    -86    -49    317    321 254.1  -8.9  34082  288.24 0861.71
2015 04 09 14 35 39 .61    -308    -62    -57    315    321 258.5 -10.4  34076  288.14 0861.71
2015 04 09 14 35 39 .86    -310    -78    -62    320    326 255.8 -11.0  34078  288.19 0861.71
2015 04 09 14 35 40 .12    -290    -85    -56    303    309 253.6 -10.5  34060  287.87 0861.71
2015 04 09 14 35 40 .38    -304    -43    -49    308    312 261.9  -9.1  34090  288.37 0861.71
2015 04 09 14 35 40 .62    -290    -45    -48    294    298 261.2  -9.4  34080  288.22 0861.71
2015 04 09 14 35 40 .87    -298    -65    -62    306    313 257.6 -11.5  34038  287.51 0861.71
2015 04 09 14 35 41 .13    -281    -93    -60    297    303 251.6 -11.5  34038  287.50 0861.71
2015 04 09 14 35 41 .37    -266    -85    -54    280    286 252.2 -10.9  34034  287.43 0861.71
2015 04 09 14 35 41 .63    -253   -114    -37    278    281 245.6  -7.7  34046  287.65 0861.71
2015 04 09 14 35 41 .88    -254   -102    -26    274    276 248.0  -5.6  34066  287.97 0861.71
2015 04 09 14 35 42 .13    -261   -103    -18    281    282 248.3  -3.7  34040  287.53 0861.71
2015 04 09 14 35 42 .38    -276   -105    -48    296    301 249.2  -9.3  34028  287.34 0861.71
2015 04 09 14 35 42 .63    -282   -112    -50    304    309 248.3  -9.3  34036  287.48 0861.71
2015 04 09 14 35 42 .89    -254   -112    -51    278    283 246.0 -10.5  34058  287.83 0861.71
2015 04 09 14 35 43 .13    -246   -102    -46    267    272 247.4  -9.8  34086  288.31 0861.71
2015 04 09 14 35 43 .38    -269    -77    -37    280    283 254.0  -7.7  34046  287.63 0861.71
2015 04 09 14 35 43 .63    -271    -93    -37    287    290 251.0  -7.5  34036  287.48 0861.71
2015 04 09 14 35 43 .88    -254   -112    -35    278    281 246.0  -7.3  34048  287.66 0861.71
2015 04 09 14 35 44 .14    -227    -90    -57    245    252 248.3 -13.3  34068  288.02 0861.71
2015 04 09 14 35 44 .39    -216   -108    -43    242    246 243.4 -10.3  34080  288.22 0861.71
2015 04 09 14 35 44 .64    -226   -116    -24    255    257 242.7  -5.6  34094  288.44 0861.71
2015 04 09 14 35 44 .89    -235    -82    -37    250    253 250.7  -8.6  34086  288.32 0861.71
2015 04 09 14 35 45 .13    -223    -74    -57    235    242 251.6 -13.7  34094  288.44 0861.71
2015 04 09 14 35 45 .39    -162    -59    -47    173    180 249.8 -15.4  34116  288.82 0861.71
2015 04 09 14 35 45 .64    -174    -79    -39    192    196 245.4 -11.5  34108  288.70 0861.71
2015 04 09 14 35 45 .89    -188    -45    -24    194    196 256.5  -7.3  34086  288.31 0861.71
2015 04 09 14 35 46 .14    -189    -34    -54    193    200 259.6 -20.2  34060  287.87 0861.71
2015 04 09 14 35 46 .39    -129      5     -2    130    131 272.5  -1.2  34096  288.50 0861.71
2015 04 09 14 35 46 .64    -142    -55      0    153    154 248.7  -0.3  34134  289.13 0861.71
2015 04 09 14 35 46 .89    -174    -40    -63    179    190 257.0 -19.4  34104  288.62 0861.71
2015 04 09 14 35 47 .15    -171    -36    -27    175    178 257.8  -9.0  34134  289.14 0861.71
2015 04 09 14 35 47 .40    -211    -58    -44    219    224 254.5 -11.3  34146  289.33 0861.71
2015 04 09 14 35 47 .65    -197    -49    -26    204    206 255.8  -7.3  34098  288.53 0861.71
2015 04 09 14 35 47 .91    -212   -100    -37    235    238 244.8  -9.0  34150  289.41 0861.71
2015 04 09 14 35 48 .15    -206    -76    -31    220    223 249.6  -8.2  34152  289.43 0861.71
2015 04 09 14 35 48 .40    -194    -44    -30    199    202 257.2  -8.8  34132  289.11 0861.71
2015 04 09 14 35 48 .66    -164    -60    -39    175    180 249.8 -12.6  34136  289.16 0861.71
2015 04 09 14 35 48 .90    -177    -97    -13    203    204 241.2  -3.7  34170  289.74 0861.71
2015 04 09 14 35 49 .16    -150    -96    -25    179    181 237.5  -8.0  34142  289.28 0861.71
2015 04 09 14 35 49 .41    -123    -72     -3    143    144 239.8  -1.3  34178  289.89 0861.71
2015 04 09 14 35 49 .66     -62    -12    -20     64     68 258.6 -17.6  34200  290.25 0861.71
2015 04 09 14 35 49 .91     -96    -61    -36    114    120 237.5 -17.6  34194  290.16 0861.71
2015 04 09 14 35 50 .16    -147    -49    -50    156    164 251.4 -17.9  34132  289.11 0861.71
2015 04 09 14 35 50 .41    -169    -49    -46    177    183 253.6 -14.7  34124  288.96 0861.71
2015 04 09 14 35 50 .66    -165      0    -41    166    172 270.1 -13.9  34120  288.89 0861.71
2015 04 09 14 35 50 .90    -162     -8    -45    163    170 267.0 -15.5  34100  288.55 0861.71
2015 04 09 14 35 51 .16    -186      8    -39    187    192 272.6 -11.9  34060  287.89 0861.71
2015 04 09 14 35 51 .41    -173     29    -27    176    179 279.5  -9.0  34082  288.25 0861.71
2015 04 09 14 35 51 .66    -170      8    -20    171    173 272.8  -6.9  34070  288.06 0861.71
2015 04 09 14 35 51 .91    -137     46    -29    145    148 288.6 -11.3  34060  287.89 0861.71
2015 04 09 14 35 52 .16    -109     12    -14    110    111 276.6  -7.7  34082  288.26 0861.72
2015 04 09 14 35 52 .41     -34     -5    -17     35     38 260.3 -31.6  34090  288.38 0861.72
2015 04 09 14 35 52 .66     -17      9     13     20     23 297.1  35.5  34096  288.48 0861.72
2015 04 09 14 35 52 .91     -99     -6    -61    100    117 266.1 -39.4  34080  288.21 0861.72
2015 04 09 14 35 53 .16    -111     11    -32    112    116 276.1 -21.2  34084  288.30 0861.72
2015 04 09 14 35 53 .42     -38      0     -1     39     40 269.2  -2.2  34098  288.53 0861.72
2015 04 09 14 35 53 .67    -117     -8    -38    118    125 265.7 -18.1  34106  288.67 0861.72
2015 04 09 14 35 53 .91     -26     -4     -1     27     28 260.3  -2.2  34110  288.72 0861.72
2015 04 09 14 35 54 .17     -55     13    -20     57     61 283.3 -19.6  34114  288.80 0861.72
2015 04 09 14 35 54 .43    -115    -22     -9    118    119 259.0  -4.6  34110  288.72 0861.72
2015 04 09 14 35 54 .68    -121     -1    -43    122    130 269.1 -19.7  34110  288.72 0861.72
2015 04 09 14 35 54 .93     -98     -7    -21     99    102 265.6 -12.4  34118  288.86 0861.73
2015 04 09 14 35 55 .18    -146     -4     -5    147    148 268.3  -2.2  34118  288.86 0861.73
2015 04 09 14 35 55 .43    -176     -9    -34    177    181 267.0 -11.1  34118  288.86 0861.73
2015 04 09 14 35 55 .68    -172    -40    -37    177    181 256.7 -11.9  34116  288.84 0861.73
2015 04 09 14 35 55 .93    -165    -75    -47    182    189 245.4 -14.7  34114  288.79 0861.73
2015 04 09 14 35 56 .18    -155    -29    -33    158    162 259.4 -11.9  34126  289.01 0861.73
2015 04 09 14 35 56 .43     -89    -31     25     95     99 250.9  14.7  34136  289.16 0861.73
2015 04 09 14 35 56 .68    -158    -67    -12    172    173 246.9  -4.1  34100  288.55 0861.73
2015 04 09 14 35 56 .94    -153    -57    -33    164    168 249.6 -11.3  34056  287.82 0861.73
2015 04 09 14 35 57 .18    -130      4    -19    131    133 272.1  -8.2  34100  288.57 0861.73
2015 04 09 14 35 57 .43    -113     21    -14    115    116 280.6  -7.3  34100  288.57 0861.73
2015 04 09 14 35 57 .69    -124     17    -14    126    127 277.9  -6.7  34114  288.79 0861.73
2015 04 09 14 35 57 .93    -114     29     -8    118    119 284.6  -4.1  34132  289.11 0861.73
2015 04 09 14 35 58 .19     -97     56     -4    113    114 300.2  -2.2  34134  289.14 0861.73
2015 04 09 14 35 58 .44     -85     36      0     93     94 293.1  -0.3  34134  289.14 0861.73
2015 04 09 14 35 58 .68     -87     55    -17    104    106 302.5  -9.3  34130  289.08 0861.73
2015 04 09 14 35 58 .93     -98     40      1    106    107 292.2   0.8  34136  289.18 0861.73
2015 04 09 14 35 59 .19    -135     53     -9    146    147 291.7  -3.7  34112  288.77 0861.73
2015 04 09 14 35 59 .44    -114     55    -16    127    129 295.8  -7.3  34130  289.08 0861.74
2015 04 09 14 35 59 .69    -104     86    -13    136    137 309.6  -5.6  34174  289.82 0861.74
2015 04 09 14 35 59 .94     -86     54    -32    102    107 302.4 -17.6  34172  289.77 0861.74
2015 04 09 14 36 00 .19     -53     52     13     75     77 314.1  10.1  34200  290.26 0861.74
2015 04 09 14 36 00 .44     -53     56     57     78     96 316.8  39.7  34236  290.86 0861.74
2015 04 09 14 36 00 .69     -82     54    -27     99    103 303.3 -15.5  34250  291.11 0861.74
2015 04 09 14 36 00 .94     -67     53    -16     86     88 308.6 -10.9  34226  290.69 0861.74
2015 04 09 14 36 01 .19     -84      1     -3     85     86 271.3  -2.6  34204  290.33 0861.73
2015 04 09 14 36 01 .45     -74      5    -19     75     78 274.3 -14.5  34194  290.16 0861.73
2015 04 09 14 36 01 .70     -72     27     -6     78     79 290.8  -4.6  34210  290.41 0861.73
2015 04 09 14 36 01 .95     -18     49     21     53     57 339.1  22.0  34214  290.48 0861.73
2015 04 09 14 36 02 .21     -39     40     19     57     61 315.8  18.4  34232  290.79 0861.73
2015 04 09 14 36 02 .45     -44     37     -5     58     59 309.6  -5.2  34222  290.62 0861.73
2015 04 09 14 36 02 .70     -51     73    -14     90     92 325.3  -8.8  34198  290.23 0861.73
2015 04 09 14 36 02 .95     -15     73     -2     75     76 348.4  -2.2  34180  289.91 0861.74
2015 04 09 14 36 03 .20      -4    113    -10    114    115 357.8  -5.2  34178  289.89 0861.74
2015 04 09 14 36 03 .46     -11    147     20    148    150 355.6   8.0  34180  289.92 0861.74
2015 04 09 14 36 03 .71      -3    129     20    130    132 358.6   9.0  34184  289.99 0861.74
2015 04 09 14 36 03 .96       0    117      9    118    119   0.0   4.4  34194  290.16 0861.74
2015 04 09 14 36 04 .21       9    122     25    123    126   4.4  11.6  34190  290.08 0861.74
2015 04 09 14 36 04 .46      -1    120     29    121    125 359.1  13.7  34188  290.06 0861.74
2015 04 09 14 36 04 .71      13    100     12    101    102   7.6   7.1  34192  290.13 0861.74
2015 04 09 14 36 04 .96       0     78     34     79     86   0.0  24.6  34204  290.33 0861.74
2015 04 09 14 36 05 .21     -27    100     65    104    122 344.4  35.0  34210  290.43 0861.74
2015 04 09 14 36 05 .46      -1    102     43    103    111 359.1  23.6  34220  290.60 0861.74
2015 04 09 14 36 05 .71     -38     93     37    101    107 337.7  20.4  34254  291.16 0861.74
2015 04 09 14 36 05 .96     -34     84     17     91     93 337.7  11.0  34260  291.28 0861.74
2015 04 09 14 36 06 .21     -66     93     57    115    128 324.4  28.2  34266  291.37 0861.74
2015 04 09 14 36 06 .46     -85    103     13    134    135 320.3   5.9  34262  291.30 0861.74
2015 04 09 14 36 06 .72     -53     83     38     99    106 327.4  22.0  34244  290.99 0861.74
2015 04 09 14 36 06 .97     -74     79     34    109    115 317.2  17.3  34224  290.65 0861.74
2015 04 09 14 36 07 .22     -77    105    -36    131    136 323.5 -15.5  34204  290.33 0861.74
2015 04 09 14 36 07 .47    -131     52    -19    142    144 291.7  -7.7  34218  290.55 0861.74
2015 04 09 14 36 07 .71    -155    129      0    203    204 309.8   0.0  34154  289.48 0861.74
2015 04 09 14 36 07 .97    -157    113    -18    194    195 305.7  -5.6  34052  287.74 0861.74
2015 04 09 14 36 08 .23    -144    105    -11    179    180 306.0  -3.7  34096  288.50 0861.74
2015 04 09 14 36 08 .48    -153     94     -9    180    181 301.5  -3.1  34088  288.36 0861.74
2015 04 09 14 36 08 .73    -125    105     -6    164    165 310.2  -2.2  34106  288.67 0861.74
2015 04 09 14 36 08 .98    -131     94    -28    162    165 305.5  -9.8  34104  288.64 0861.74
2015 04 09 14 36 09 .23    -125     80    -13    149    150 302.5  -5.2  34104  288.64 0861.74
2015 04 09 14 36 09 .48     -67     69     33     97    103 315.9  18.9  34144  289.30 0861.74
2015 04 09 14 36 09 .73     -67     85     29    109    113 321.7  15.2  34132  289.09 0861.74
2015 04 09 14 36 09 .98     -41     97     15    106    108 336.8   8.5  34102  288.58 0861.74
2015 04 09 14 36 10 .23     -60     94     -1    112    113 327.5  -0.7  34088  288.35 0861.74
2015 04 09 14 36 10 .48     -24    101      5    104    105 346.2   2.8  34096  288.50 0861.74
2015 04 09 14 36 10 .73     -39     77      5     87     88 333.3   3.3  34106  288.67 0861.74
2015 04 09 14 36 10 .98     -47     99     -4    110    111 334.6  -2.2  34130  289.08 0861.74
2015 04 09 14 36 11 .24     -59    126    -16    140    141 334.7  -6.7  34110  288.72 0861.74
2015 04 09 14 36 11 .48     -99    131    -21    165    167 323.0  -7.3  34094  288.45 0861.74
2015 04 09 14 36 11 .73     -85    133    -37    159    164 327.4 -13.2  34096  288.50 0861.74
2015 04 09 14 36 11 .99     -64    111    -30    129    133 330.1 -13.3  34050  287.72 0861.74
2015 04 09 14 36 12 .25     -57    123    -19    136    138 335.1  -8.2  34126  288.99 0861.74
2015 04 09 14 36 12 .49     -84    145    -26    168    170 329.9  -8.8  34142  289.26 0861.74
2015 04 09 14 36 12 .74     -77    141    -27    161    164 331.1  -9.6  34134  289.14 0861.74
2015 04 09 14 36 12 .99    -105    109    -20    152    154 316.3  -7.7  34126  288.99 0861.74
2015 04 09 14 36 13 .24     -76    148    -12    167    168 332.8  -4.1  34112  288.77 0861.74
2015 04 09 14 36 13 .49     -26    131     36    134    139 348.5  15.3  34132  289.11 0861.74
2015 04 09 14 36 13 .74     -49    144     32    153    157 341.3  12.0  34122  288.94 0861.74
2015 04 09 14 36 13 .99      13    168    -52    169    178   4.5 -17.3  34080  288.23 0861.74
2015 04 09 14 36 14 .25      22    161    -40    163    168   8.1 -13.9  34096  288.48 0861.74
2015 04 09 14 36 14 .49      32    116    -27    121    125  15.6 -12.9  34112  288.75 0861.74
2015 04 09 14 36 14 .74      49    157      2    165    166  17.6   1.0  34128  289.04 0861.74
2015 04 09 14 36 14 .99      59    178     -5    188    189  18.3  -1.8  34120  288.91 0861.74
2015 04 09 14 36 15 .25      36    168     24    172    174  12.3   8.2  34114  288.79 0861.74
2015 04 09 14 36 15 .50      41    166     22    172    174  14.0   7.5  34078  288.18 0861.74
2015 04 09 14 36 15 .76      64    193     -7    204    205  18.5  -2.2  34066  287.98 0861.74
2015 04 09 14 36 16 .00      20    172     69    174    187   6.9  23.0  34094  288.47 0861.74
2015 04 09 14 36 16 .26      -3    159     49    160    168 358.6  17.1  34134  289.14 0861.74
2015 04 09 14 36 16 .51      20    151     30    153    156   7.6  11.1  34096  288.48 0861.75
2015 04 09 14 36 16 .75      37    154     56    159    169  13.8  19.6  34120  288.91 0861.75
2015 04 09 14 36 17 .01      16    188     48    189    196   4.9  14.3  34062  287.92 0861.75
2015 04 09 14 36 17 .26      34    201      9    204    205   9.6   2.8  34024  287.28 0861.75
2015 04 09 14 36 17 .51      40    199     -7    204    205  11.5  -2.2  34024  287.28 0861.75
2015 04 09 14 36 17 .76      46    197    -18    203    204  13.1  -5.2  34022  287.23 0861.75
2015 04 09 14 36 18 .01      42    213    -24    218    220  11.1  -6.5  34024  287.28 0861.75
2015 04 09 14 36 18 .26      23    187    -20    189    191   7.1  -6.2  34028  287.35 0861.75
2015 04 09 14 36 18 .51      24    181    -23    183    185   7.6  -7.3  34022  287.25 0861.75
2015 04 09 14 36 18 .76     -12    163     -6    164    165 355.5  -2.2  34036  287.49 0861.75
2015 04 09 14 36 19 .01     -11    151     -3    152    153 355.5  -1.3  34032  287.40 0861.75
2015 04 09 14 36 19 .26      11    138    -12    139    140   4.9  -5.2  34038  287.52 0861.75
2015 04 09 14 36 19 .52       8    108     -2    109    110   4.5  -1.2  34036  287.49 0861.75
2015 04 09 14 36 19 .77     -22    109     16    112    114 348.5   8.5  34082  288.26 0861.75
2015 04 09 14 36 20 .02     -11    144     67    145    159 355.5  26.6  34128  289.02 0861.75
2015 04 09 14 36 20 .26     -31    132     42    136    143 346.6  17.4  34128  289.04 0861.75
2015 04 09 14 36 20 .51      -2    171     18    172    173 359.1   6.1  34044  287.62 0861.75
2015 04 09 14 36 20 .77      21    155     -6    157    158   8.0  -2.2  34024  287.28 0861.75
2015 04 09 14 36 21 .02      25    154     -3    157    158   9.3  -1.3  34030  287.38 0861.75
2015 04 09 14 36 21 .27      21    152      3    154    155   8.1   1.2  34034  287.43 0861.75
2015 04 09 14 36 21 .52      25    154      4    157    158   9.3   1.8  34036  287.47 0861.75
2015 04 09 14 36 21 .77       7    157      9    158    159   2.7   3.3  34042  287.57 0861.75
2015 04 09 14 36 22 .02       2    128      4    129    130   0.9   1.8  34044  287.60 0861.75
2015 04 09 14 36 22 .28      48    175    -28    182    185  15.6  -9.0  34042  287.57 0861.75
2015 04 09 14 36 22 .53      41    164     -1    170    171  14.0  -0.5  34042  287.57 0861.75
2015 04 09 14 36 22 .78      80    154     -3    174    175  27.6  -1.1  34040  287.54 0861.75
2015 04 09 14 36 23 .03      69    149     -1    165    166  24.9  -0.5  34038  287.52 0861.75
2015 04 09 14 36 23 .28      67    143    -15    159    160  25.3  -5.6  34040  287.55 0861.75
2015 04 09 14 36 23 .53      84    130    -23    156    158  33.0  -8.6  34038  287.52 0861.75
2015 04 09 14 36 23 .78      77    109    -42    134    141  35.2 -17.5  34044  287.62 0861.75
2015 04 09 14 36 24 .03      62    127    -33    142    146  26.3 -13.3  34044  287.62 0861.75
2015 04 09 14 36 24 .28      55    108    -47    122    130  27.2 -26.4  34052  287.74 0861.75
2015 04 09 14 36 24 .54      49     89    -36    102    109  29.0 -19.7  34056  287.82 0861.75
2015 04 09 14 36 24 .78      65    117    -38    134    139  29.0 -20.7  34064  287.94 0861.75
2015 04 09 14 36 25 .04      77    113    -48    137    145  34.3 -23.3  34060  287.89 0861.75
2015 04 09 14 36 25 .28      89     84    -61    123    137  46.4 -32.6  34072  288.09 0861.75
2015 04 09 14 36 25 .54      32     99     21    105    108  18.3  11.6  34060  287.89 0861.75
2015 04 09 14 36 25 .79      67    112      5    131    132  30.8   2.3  34054  287.77 0861.75
2015 04 09 14 36 26 .04      74    100     -2    125    126  36.5  -1.2  34072  288.08 0861.75
2015 04 09 14 36 26 .29      73     98    -15    123    124  36.5  -7.2  34072  288.08 0861.75
2015 04 09 14 36 26 .54      64     67    -21     93     96  43.7 -12.9  34070  288.06 0861.75
2015 04 09 14 36 26 .79      58     75    -19     96     98  37.8 -11.3  34066  287.98 0861.75
2015 04 09 14 36 27 .04      88     79    -40    119    126  47.8 -18.7  34068  288.03 0861.75
2015 04 09 14 36 27 .29      94     52    -24    108    111  61.1 -12.9  34072  288.08 0861.75
2015 04 09 14 36 27 .54      86      5    -26     87     91  86.1 -16.6  34072  288.08 0861.75
2015 04 09 14 36 27 .79      76     16    -25     78     83  77.6 -18.1  34074  288.13 0861.75
2015 04 09 14 36 28 .04      91     44     -1    102    103  64.2  -0.7  34062  287.91 0861.75
2015 04 09 14 36 28 .29     113     57     21    127    129  62.9   9.5  34074  288.11 0861.75
2015 04 09 14 36 28 .54     117     57     25    131    134  63.8  11.0  34086  288.31 0861.75
2015 04 09 14 36 28 .79      77     77     37    109    116  45.0  18.9  34080  288.21 0861.75
2015 04 09 14 36 29 .04      70     73     16    102    104  43.7   9.0  34076  288.16 0861.75
2015 04 09 14 36 29 .31      97     99    -12    139    140  44.5  -5.2  34086  288.31 0861.75
2015 04 09 14 36 29 .56     116     96      7    151    152  50.5   2.8  34084  288.28 0861.75
2015 04 09 14 36 29 .81      93     71     23    118    121  52.7  11.1  34080  288.21 0861.74
2015 04 09 14 36 30 .06     109     84      7    138    139  52.3   2.9  34062  287.92 0861.74
2015 04 09 14 36 30 .30      98     70     10    121    122  54.5   4.9  34052  287.74 0861.74
2015 04 09 14 36 30 .56      91     75     10    119    120  50.5   5.0  34054  287.79 0861.74
2015 04 09 14 36 30 .81      78     83      4    115    116  43.3   2.3  34064  287.96 0861.74
2015 04 09 14 36 31 .06      81     67      0    106    107  50.5  -0.3  34054  287.79 0861.74
2015 04 09 14 36 31 .31      67     67      8     96     97  45.0   4.9  34058  287.86 0861.74
2015 04 09 14 36 31 .57      87     71     -4    113    114  50.5  -2.2  34060  287.89 0861.74
2015 04 09 14 36 31 .81     107     94     17    143    145  48.7   7.1  34102  288.60 0861.74
2015 04 09 14 36 32 .06     111     91      7    144    145  50.5   2.9  34106  288.67 0861.74
2015 04 09 14 36 32 .31     113     52     32    125    130  65.2  14.3  34098  288.52 0861.74
2015 04 09 14 36 32 .56     102     91     37    138    144  48.2  15.2  34126  289.01 0861.74
2015 04 09 14 36 32 .81      87     93     57    128    140  43.3  25.2  34112  288.77 0861.74
2015 04 09 14 36 33 .06      85    131     54    157    167  33.0  19.2  34122  288.94 0861.74
2015 04 09 14 36 33 .31      67    111     26    130    133  31.2  11.6  34126  289.01 0861.74
2015 04 09 14 36 33 .56      57    111     43    125    133  27.2  18.9  34122  288.94 0861.74
2015 04 09 14 36 33 .82     104    110     35    152    157  43.3  13.2  34124  288.96 0861.74
2015 04 09 14 36 34 .07      79     94     19    124    126  40.1   8.9  34128  289.04 0861.74
2015 04 09 14 36 34 .31      45     77     31     90     96  30.3  19.2  34122  288.94 0861.74
2015 04 09 14 36 34 .57      59     96     10    113    114  31.6   5.4  34110  288.74 0861.74
2015 04 09 14 36 34 .82      36    117      5    123    124  17.4   2.3  34122  288.92 0861.74
2015 04 09 14 36 35 .07      24     88     -6     92     93  15.6  -4.1  34120  288.91 0861.74
2015 04 09 14 36 35 .32      38    116      1    123    124  18.3   0.7  34102  288.58 0861.74
2015 04 09 14 36 35 .57      23    116      1    119    120  11.5   0.8  34106  288.67 0861.74
2015 04 09 14 36 35 .82      33    110      1    116    117  16.9   0.8  34110  288.74 0861.74
2015 04 09 14 36 36 .08      86    111    -11    141    142  37.8  -4.6  34126  288.99 0861.74
2015 04 09 14 36 36 .33      44     69     36     82     89  32.6  25.7  34130  289.08 0861.73
2015 04 09 14 36 36 .59      50    153     42    162    168  18.3  14.7  34150  289.40 0861.73
2015 04 09 14 36 36 .83     125    124     45    177    183  45.1  14.3  34178  289.89 0861.73
2015 04 09 14 36 37 .08      53    183      0    191    192  16.3   0.0  34178  289.87 0861.74
2015 04 09 14 36 37 .33      14    136    -13    137    138   6.3  -5.6  34112  288.75 0861.74
2015 04 09 14 36 37 .59      73    194     18    208    209  20.7   5.2  34114  288.79 0861.74
2015 04 09 14 36 37 .83      94    185    -29    208    211  27.1  -8.0  34064  287.94 0861.74
2015 04 09 14 36 38 .08      87    200    -54    219    226  23.6 -13.9  34034  287.43 0861.74
2015 04 09 14 36 38 .34      94    174    -52    199    206  28.5 -14.7  34034  287.43 0861.74
2015 04 09 14 36 38 .59     106    223     -9    248    249  25.5  -2.2  34134  289.14 0861.74
2015 04 09 14 36 38 .84     128    189     13    229    230  34.3   3.3  34122  288.92 0861.74
2015 04 09 14 36 39 .09     131    172     53    217    224  37.4  13.9  34138  289.21 0861.74
2015 04 09 14 36 39 .34     111    142     16    181    182  38.1   5.2  34098  288.52 0861.74
2015 04 09 14 36 39 .58      79    161     -9    180    181  26.1  -3.1  34056  287.82 0861.74
2015 04 09 14 36 39 .84      78    165    -12    183    184  25.3  -3.9  34024  287.28 0861.74
2015 04 09 14 36 40 .09      94    156    -12    183    184  31.0  -3.9  34024  287.28 0861.74
2015 04 09 14 36 40 .34      80    158    -10    178    179  27.0  -3.3  34036  287.47 0861.74
2015 04 09 14 36 40 .60      77    163    -20    181    183  25.5  -6.5  34090  288.38 0861.74
2015 04 09 14 36 40 .84     108    172     28    204    207  32.1   8.0  34070  288.06 0861.74
2015 04 09 14 36 41 .09      97    162     18    190    191  31.0   5.4  34078  288.18 0861.74
2015 04 09 14 36 41 .34     152    172    -52    230    236  41.5 -12.9  34040  287.53 0861.74
2015 04 09 14 36 41 .59     138    186    -39    232    236  36.5  -9.6  34026  287.29 0861.74
2015 04 09 14 36 41 .84     122    222    -14    254    255  28.7  -3.2  34044  287.61 0861.74
2015 04 09 14 36 42 .09     127    250    -21    281    282  27.1  -4.4  34024  287.26 0861.74
2015 04 09 14 36 42 .35     137    232    -20    270    271  30.5  -4.4  34058  287.85 0861.74
2015 04 09 14 36 42 .60     108    227    -24    252    254  25.6  -5.6  34106  288.66 0861.74
2015 04 09 14 36 42 .85      95    245    -38    263    266  21.2  -8.3  34108  288.68 0861.74
2015 04 09 14 36 43 .11      69    250     13    260    261  15.4   2.9  34172  289.76 0861.74
2015 04 09 14 36 43 .35      44    231      7    236    237  10.9   1.8  34154  289.46 0861.74
2015 04 09 14 36 43 .62      74    216     -5    229    230  18.9  -1.3  34100  288.57 0861.74
2015 04 09 14 36 43 .86     104    222      7    246    247  25.2   1.8  34098  288.51 0861.74
2015 04 09 14 36 44 .11      89    210     -8    229    230  22.9  -2.2  34066  287.98 0861.74
2015 04 09 14 36 44 .35      79    198    -19    214    215  21.8  -5.2  34050  287.72 0861.74
2015 04 09 14 36 44 .61      89    199     -4    218    219  24.1  -1.3  34034  287.43 0861.74
2015 04 09 14 36 44 .86      96    187     -4    211    212  27.1  -1.3  34028  287.33 0861.74
2015 04 09 14 36 45 .11      89    179     -7    201    202  26.5  -2.2  34024  287.28 0861.74
2015 04 09 14 36 45 .36      73    174     -5    189    190  22.9  -1.6  34024  287.28 0861.74
2015 04 09 14 36 45 .61      59    177     -6    187    188  18.5  -2.1  34022  287.25 0861.74
2015 04 09 14 36 45 .86      62    179    -20    190    192  19.2  -6.2  34024  287.27 0861.74
2015 04 09 14 36 46 .11      58    165    -27    176    179  19.6  -9.0  34022  287.25 0861.74
2015 04 09 14 36 46 .36      54    164    -34    173    177  18.5 -11.1  34026  287.30 0861.74
2015 04 09 14 36 46 .61      33    168    -22    172    174  11.3  -7.3  34028  287.33 0861.74
2015 04 09 14 36 46 .86      26    175    -21    177    179   8.5  -6.9  34028  287.33 0861.74
2015 04 09 14 36 47 .12      20    193    -14    195    196   6.0  -4.1  34032  287.40 0861.74
2015 04 09 14 36 47 .37      12    161     -3    162    163   4.4  -1.1  34068  288.03 0861.74
2015 04 09 14 36 47 .61      12    191     28    192    195   3.8   8.5  34116  288.84 0861.74
2015 04 09 14 36 47 .87      33    183    -23    186    188  10.2  -7.3  34118  288.86 0861.74
2015 04 09 14 36 48 .12      68    144      4    160    161  25.3   1.6  34060  287.89 0861.74
2015 04 09 14 36 48 .37      45    171     16    177    178  14.9   5.4  34062  287.91 0861.74
2015 04 09 14 36 48 .62      57    200     28    209    211  16.0   7.8  34098  288.53 0861.74
2015 04 09 14 36 48 .87      29    209     14    212    213   8.1   3.8  34100  288.55 0861.73
2015 04 09 14 36 49 .12      51    224      8    230    231  12.9   2.1  34064  287.94 0861.73
2015 04 09 14 36 49 .38      44    220      0    225    226  11.5   0.0  34066  287.98 0861.73
2015 04 09 14 36 49 .63      36    245    -14    248    249   8.5  -3.3  34054  287.77 0861.73
2015 04 09 14 36 49 .87      56    241     12    248    249  13.3   2.8  34096  288.49 0861.73
2015 04 09 14 36 50 .13      37    234     -9    238    239   9.1  -2.2  34034  287.43 0861.73
2015 04 09 14 36 50 .38      46    236    -13    241    242  11.1  -3.3  34038  287.51 0861.73
2015 04 09 14 36 50 .63      64    245    -30    254    256  14.7  -6.9  34070  288.04 0861.73
2015 04 09 14 36 50 .89      49    234    -26    240    242  12.0  -6.2  34064  287.95 0861.73
2015 04 09 14 36 51 .14      70    215     -2    227    228  18.0  -0.7  34156  289.50 0861.73
2015 04 09 14 36 51 .38      53    227     -9    234    235  13.1  -2.3  34090  288.37 0861.73
2015 04 09 14 36 51 .63      70    230     -4    241    242  17.0  -1.1  34074  288.12 0861.73
2015 04 09 14 36 51 .89      62    231    -11    240    241  15.1  -2.8  34068  288.00 0861.73
2015 04 09 14 36 52 .14      89    205    -10    224    225  23.4  -2.8  34110  288.74 0861.73
2015 04 09 14 36 52 .39     108    182    -34    212    215  30.7  -9.3  34078  288.18 0861.73
2015 04 09 14 36 52 .64     102    133    -15    168    169  37.6  -5.4  34152  289.43 0861.73
2015 04 09 14 36 52 .89      99    144    -19    175    177  34.5  -6.5  34168  289.72 0861.73
2015 04 09 14 36 53 .14      90    185    -14    206    207  26.1  -3.9  34092  288.43 0861.73
2015 04 09 14 36 53 .39      42    206    -16    211    212  11.5  -4.4  34070  288.06 0861.73
2015 04 09 14 36 53 .64      89    192     -8    212    213  24.9  -2.2  34058  287.86 0861.73
2015 04 09 14 36 53 .89      70    196     15    209    210  19.8   4.2  34052  287.76 0861.73
2015 04 09 14 36 54 .14      54    198     11    206    207  15.4   3.3  34060  287.89 0861.73
2015 04 09 14 36 54 .39      81    185    -28    203    206  23.6  -8.0  34058  287.84 0861.73
2015 04 09 14 36 54 .65      76    135    -13    156    157  29.4  -4.9  34054  287.79 0861.73
2015 04 09 14 36 54 .89      87    116    -47    146    154  37.0 -18.1  34072  288.09 0861.73
2015 04 09 14 36 55 .15      64    103    -34    122    126  31.6 -20.7  34080  288.21 0861.74
2015 04 09 14 36 55 .39      24    139    -18    142    144   9.8  -7.3  34100  288.55 0861.74
2015 04 09 14 36 55 .65      19    140      7    142    143   8.0   2.9  34138  289.19 0861.74
2015 04 09 14 36 55 .90       9    119     42    120    128   4.5  19.4  34166  289.69 0861.74
2015 04 09 14 36 56 .14     -10    140     64    141    154 355.6  26.6  34218  290.57 0861.74
2015 04 09 14 36 56 .40     -12    121     44    122    129 354.2  20.4  34070  288.06 0861.74
2015 04 09 14 36 56 .65       3    115     41    116    123   1.8  20.0  34090  288.38 0861.74
2015 04 09 14 36 56 .90      18    131     31    133    137   8.1  13.1  34116  288.84 0861.73
2015 04 09 14 36 57 .16      20    170     13    172    173   6.7   4.4  34114  288.80 0861.73
2015 04 09 14 36 57 .41      27    213      4    215    216   7.3   1.2  34160  289.58 0861.73
2015 04 09 14 36 57 .66      50    261     36    266    269  10.9   7.8  34194  290.14 0861.73
2015 04 09 14 36 57 .92      82    232     34    247    250  19.4   8.0  34210  290.42 0861.73
2015 04 09 14 36 58 .16     114    252     18    277    278  24.5   3.8  34196  290.17 0861.73
2015 04 09 14 36 58 .41      88    263     59    278    285  18.5  12.1  34236  290.87 0861.73
2015 04 09 14 36 58 .66      72    349     25    357    358  11.8   4.0  34074  288.11 0861.73
2015 04 09 14 36 58 .91      90    295     60    309    315  17.0  11.1  34084  288.29 0861.73
2015 04 09 14 36 59 .17     105    288    -23    307    308  20.1  -4.4  34036  287.48 0861.73
2015 04 09 14 36 59 .41     125    255     61    285    292  26.1  12.1  34038  287.51 0861.73
2015 04 09 14 36 59 .67     143    310     86    342    353  24.7  14.2  34058  287.84 0861.73
2015 04 09 14 36 59 .92      96    360     12    373    374  15.1   1.9  34072  288.08 0861.73
2015 04 09 14 37 00 .17      89    384     88    395    405  13.1  12.6  34068  288.01 0861.73
2015 04 09 14 37 00 .42      81    385     51    394    398  11.9   7.4  34102  288.59 0861.73
2015 04 09 14 37 00 .66      67    396     91    402    413   9.6  12.8  34096  288.48 0861.73
2015 04 09 14 37 00 .92      65    385     61    391    396   9.6   8.9  34064  287.94 0861.73
2015 04 09 14 37 01 .17      62    382     58    388    393   9.3   8.5  34072  288.08 0861.73
2015 04 09 14 37 01 .42      75    406     51    413    417  10.6   7.1  34064  287.95 0861.73
2015 04 09 14 37 01 .67     102    411     16    424    425  14.0   2.2  34048  287.67 0861.73
2015 04 09 14 37 01 .92     120    402     50    420    424  16.7   6.9  34074  288.12 0861.73
2015 04 09 14 37 02 .17      95    435     90    446    455  12.4  11.4  34080  288.23 0861.73
2015 04 09 14 37 02 .43     105    412     35    426    428  14.3   4.7  34098  288.53 0861.72
2015 04 09 14 37 02 .67     107    412     26    426    427  14.7   3.6  34030  287.38 0861.72
2015 04 09 14 37 02 .93     113    422     49    437    440  15.0   6.5  34026  287.31 0861.72
2015 04 09 14 37 03 .17     100    409     43    422    425  13.8   5.9  34042  287.58 0861.72
2015 04 09 14 37 03 .43      84    421     18    430    431  11.3   2.5  34030  287.38 0861.72
2015 04 09 14 37 03 .68      87    426     61    436    441  11.6   8.0  34098  288.53 0861.72
2015 04 09 14 37 03 .93      59    419     68    424    430   8.0   9.2  34076  288.16 0861.72
2015 04 09 14 37 04 .19      84    403     20    412    413  11.9   2.9  34060  287.89 0861.72
2015 04 09 14 37 04 .43      26    395     71    396    403   3.9  10.2  34096  288.49 0861.72
2015 04 09 14 37 04 .68      50    417     21    421    422   6.9   2.9  34038  287.50 0861.72
2015 04 09 14 37 04 .94      38    411     49    413    417   5.4   6.9  34028  287.33 0861.72
2015 04 09 14 37 05 .19      49    434     58    437    441   6.5   7.6  34026  287.30 0861.72
2015 04 09 14 37 05 .44      58    417     69    422    428   8.0   9.3  34022  287.24 0861.72
2015 04 09 14 37 05 .69      51    398     70    402    409   7.3   9.9  34020  287.19 0861.72
2015 04 09 14 37 05 .94      55    404     72    408    415   7.8  10.0  34030  287.36 0861.73
2015 04 09 14 37 06 .19      54    412     71    416    423   7.6   9.7  34018  287.16 0861.73
2015 04 09 14 37 06 .44      56    410     73    414    421   7.9  10.1  34020  287.19 0861.73
2015 04 09 14 37 06 .69      50    400     84    404    413   7.2  11.8  34020  287.19 0861.73
2015 04 09 14 37 06 .94      67    392     79    398    406   9.8  11.3  34020  287.19 0861.73
2015 04 09 14 37 07 .19      66    411     44    417    420   9.1   6.1  34042  287.58 0861.73
2015 04 09 14 37 07 .45      74    383     49    391    395  11.0   7.2  34044  287.61 0861.73
2015 04 09 14 37 07 .69      43    364     71    367    374   6.8  11.0  34050  287.71 0861.73
2015 04 09 14 37 07 .94      58    383     69    388    395   8.7  10.1  34032  287.39 0861.73
2015 04 09 14 37 08 .20      44    376     63    379    385   6.8   9.5  34036  287.49 0861.73
2015 04 09 14 37 08 .44      55    361     67    366    373   8.7  10.4  34028  287.35 0861.73
2015 04 09 14 37 08 .70      57    342     94    347    360   9.6  15.3  34048  287.69 0861.73
2015 04 09 14 37 08 .95      54    344     76    349    358   9.0  12.3  34040  287.54 0861.73
2015 04 09 14 37 09 .20      65    322     74    329    338  11.6  12.8  34074  288.11 0861.73
2015 04 09 14 37 09 .45      72    307     74    316    325  13.3  13.2  34108  288.68 0861.73
2015 04 09 14 37 09 .69      57    332     78    337    347   9.8  13.1  34038  287.52 0861.73
2015 04 09 14 37 09 .95      57    332     88    337    349   9.8  14.6  34040  287.54 0861.73
2015 04 09 14 37 10 .20      60    322     78    328    338  10.7  13.5  34050  287.71 0861.73
2015 04 09 14 37 10 .46      52    306     84    311    323   9.7  15.1  34058  287.85 0861.74
2015 04 09 14 37 10 .71      57    280    100    286    304  11.6  19.4  34102  288.58 0861.74
2015 04 09 14 37 10 .96      22    291    103    292    310   4.5  19.6  34152  289.42 0861.74
2015 04 09 14 37 11 .21      16    267     94    268    284   3.6  20.0  34142  289.25 0861.74
2015 04 09 14 37 11 .46      30    292     83    294    306   6.0  15.8  34096  288.49 0861.74
2015 04 09 14 37 11 .71      43    281     97    285    302   8.7  18.9  34056  287.82 0861.74
2015 04 09 14 37 11 .97      34    306    105    308    326   6.5  18.9  34090  288.39 0861.74
2015 04 09 14 37 12 .21      41    351     67    354    361   6.8  10.8  34060  287.89 0861.73
2015 04 09 14 37 12 .46      60    319     65    325    332  10.7  11.4  34072  288.08 0861.73
2015 04 09 14 37 12 .72      51    329     47    334    338   8.9   8.1  34068  288.00 0861.73
2015 04 09 14 37 12 .96      -2    321     21    322    323 359.5   3.8  34072  288.09 0861.73
2015 04 09 14 37 13 .22      47    288     30    292    294   9.3   6.0  34066  287.97 0861.73
2015 04 09 14 37 13 .47      77    261     11    273    274  16.5   2.3  34088  288.34 0861.73
2015 04 09 14 37 13 .71      44    245     17    249    250  10.2   3.9  34070  288.05 0861.73
2015 04 09 14 37 13 .97      52    260     30    266    268  11.5   6.5  34048  287.66 0861.73
2015 04 09 14 37 14 .22      35    254     43    257    261   8.0   9.5  34094  288.44 0861.73
2015 04 09 14 37 14 .47      57    214     31    222    225  15.1   8.0  34134  289.14 0861.73
2015 04 09 14 37 14 .72      54    208     67    216    227  14.7  17.3  34130  289.06 0861.73
2015 04 09 14 37 14 .97      29    316     27    318    320   5.4   4.9  34126  289.00 0861.73
2015 04 09 14 37 15 .22      61    353     14    359    360   9.9   2.3  34080  288.23 0861.73
2015 04 09 14 37 15 .47      23    328     31    329    331   4.0   5.5  34148  289.38 0861.73
2015 04 09 14 37 15 .72      41    295     22    298    299   8.0   4.4  34070  288.05 0861.73
2015 04 09 14 37 15 .98      56    312     32    318    320  10.2   5.8  34074  288.10 0861.73
2015 04 09 14 37 16 .23      21    253     30    254    256   4.9   6.9  34104  288.63 0861.73
2015 04 09 14 37 16 .47     -25    273     54    275    281 354.7  11.1  34104  288.63 0861.73
2015 04 09 14 37 16 .73       7    246     55    247    254   1.8  12.6  34120  288.90 0861.73
2015 04 09 14 37 16 .98      -9    319     29    320    322 358.2   5.2  34224  290.65 0861.73
2015 04 09 14 37 17 .22     -42    302     72    306    315 352.0  13.3  34168  289.71 0861.73
2015 04 09 14 37 17 .47       8    264     -1    265    266   1.8  -0.3  34066  287.99 0861.73
2015 04 09 14 37 17 .74      -7    313     17    314    315 358.6   3.2  34082  288.26 0861.74
2015 04 09 14 37 17 .99      -7    313     17    314    315 358.6   3.2  34072  288.09 0861.74
2015 04 09 14 37 18 .24      -9    306     -1    307    308 358.2  -0.3  34118  288.87 0861.74
2015 04 09 14 37 18 .49      17    286     22    287    288   3.5   4.4  34134  289.14 0861.74
2015 04 09 14 37 18 .74     -28    260     36    262    265 353.8   8.0  34112  288.75 0861.73
2015 04 09 14 37 18 .99       0    225     39    226    230   0.2   9.9  34130  289.06 0861.73
2015 04 09 14 37 19 .24     -70    260     17    270    271 344.9   3.6  34086  288.31 0861.73
2015 04 09 14 37 19 .49     -69    265     28    274    276 345.3   5.9  34104  288.63 0861.73
2015 04 09 14 37 19 .75     -44    281     24    285    287 351.1   4.9  34124  288.97 0861.73
2015 04 09 14 37 19 .99     -52    258     36    264    267 348.4   7.8  34128  289.02 0861.73
2015 04 09 14 37 20 .24     -23    203     40    205    209 353.5  11.1  34150  289.41 0861.73
2015 04 09 14 37 20 .50     -39    221     43    225    230 350.0  11.0  34134  289.14 0861.73
2015 04 09 14 37 20 .75      21    253     45    254    259   4.9  10.1  34098  288.53 0861.73
2015 04 09 14 37 21 .00       5    180     46    181    187   1.8  14.5  34140  289.23 0861.73
2015 04 09 14 37 21 .25     -20    257     65    258    267 355.5  14.3  34250  291.10 0861.73
2015 04 09 14 37 21 .50     -20    214     93    216    235 354.4  24.9  34268  291.42 0861.73
2015 04 09 14 37 21 .75     -13    214     76    215    229 356.4  19.4  34272  291.47 0861.73
2015 04 09 14 37 22 .00     -41    222     96    226    245 349.5  24.6  34326  292.38 0861.73
2015 04 09 14 37 22 .25     -35    228     75    231    244 351.1  18.1  34326  292.38 0861.73
2015 04 09 14 37 22 .50     -33    263     37    266    269 352.7   8.0  34256  291.19 0861.73
2015 04 09 14 37 22 .75     -19    236     53    237    243 355.3  12.6  34256  291.19 0861.73
2015 04 09 14 37 23 .00      -1    225     44    226    231 359.5  11.1  34356  292.92 0861.73
2015 04 09 14 37 23 .25       0    223     11    224    225 359.8   2.9  34346  292.75 0861.74
2015 04 09 14 37 23 .50      -4    222     23    223    225 358.9   6.1  34318  292.27 0861.74
2015 04 09 14 37 23 .75       0    216     46    217    222 359.8  12.0  34354  292.86 0861.74
2015 04 09 14 37 24 .00     -30    245     34    247    250 352.9   8.0  34244  290.99 0861.74
2015 04 09 14 37 24 .26     -26    233     47    235    240 353.5  11.4  34210  290.41 0861.74
2015 04 09 14 37 24 .50     -28    210     73    212    225 352.2  19.2  34340  292.64 0861.74
2015 04 09 14 37 24 .77     -22    228     67    230    240 354.4  16.4  34308  292.09 0861.74
2015 04 09 14 37 25 .01     -24    240     63    242    251 354.2  14.7  34322  292.33 0861.74
2015 04 09 14 37 25 .27     -19    243     85    244    259 355.5  19.2  34368  293.10 0861.74
2015 04 09 14 37 25 .51      -9    218     94    219    238 357.5  24.6  34314  292.18 0861.74
2015 04 09 14 37 25 .76     -29    205    121    208    240 351.9  32.7  34336  292.58 0861.74
2015 04 09 14 37 26 .01    -126    227    -10    260    261 331.0  -2.2  34094  288.44 0861.74
2015 04 09 14 37 26 .27     -82    216      9    232    233 339.1   2.3  34126  289.01 0861.74
2015 04 09 14 37 26 .52     -63    153     59    166    176 337.5  20.0  34174  289.82 0861.74
2015 04 09 14 37 26 .77     -52    107     27    120    124 334.1  12.6  34184  289.97 0861.74
2015 04 09 14 37 27 .02     -67    213     17    224    225 342.6   4.6  34152  289.45 0861.73
2015 04 09 14 37 27 .27     -58    266     23    273    275 347.7   4.9  34210  290.42 0861.73
2015 04 09 14 37 27 .52     -47    273      4    278    279 350.2   1.0  34172  289.78 0861.73
2015 04 09 14 37 27 .77     -34    244      7    247    248 352.0   1.7  34236  290.87 0861.73
2015 04 09 14 37 28 .01     -52    261     64    267    275 348.7  13.5  34116  288.83 0861.73
2015 04 09 14 37 28 .28     -61    247     16    255    256 346.0   3.8  34064  287.95 0861.73
2015 04 09 14 37 28 .52    -112    242    -22    267    269 335.1  -4.9  34080  288.22 0861.73
2015 04 09 14 37 28 .77     -94    228     -9    247    248 337.5  -2.3  34080  288.22 0861.72
2015 04 09 14 37 29 .02     -87    264     -7    279    280 341.7  -1.6  34058  287.83 0861.72
2015 04 09 14 37 29 .27     -75    268     -1    279    280 344.2  -0.3  34058  287.83 0861.72
2015 04 09 14 37 29 .54     -81    233      7    247    248 340.8   1.7  34056  287.80 0861.72
2015 04 09 14 37 29 .78     -55    250     26    257    259 347.5   5.9  34062  287.90 0861.72
2015 04 09 14 37 30 .02     -57    245     12    252    253 346.9   2.8  34068  288.00 0861.72
2015 04 09 14 37 30 .28     -43    213      3    218    219 348.4   1.0  34072  288.08 0861.72
2015 04 09 14 37 30 .52     -22    178     54    180    189 352.7  16.8  34094  288.45 0861.72
2015 04 09 14 37 30 .78     -60    256     22    263    265 346.7   5.0  34050  287.71 0861.72
2015 04 09 14 37 31 .03     -61    244     21    252    253 346.0   4.9  34056  287.80 0861.72
2015 04 09 14 37 31 .28     -54    240     21    247    248 347.3   5.0  34052  287.75 0861.72
2015 04 09 14 37 31 .53     -29    234     26    236    238 352.9   6.5  34066  287.97 0861.73
2015 04 09 14 37 31 .79     -19    169     23    171    173 353.3   7.8  34076  288.16 0861.73
2015 04 09 14 37 32 .04     -22     99     12    102    103 347.5   7.1  34106  288.65 0861.73
2015 04 09 14 37 32 .29     -41    153     61    159    170 344.9  22.0  34180  289.91 0861.73
2015 04 09 14 37 32 .54     -22    217     59    219    227 354.0  15.2  34130  289.08 0861.73
2015 04 09 14 37 32 .79     -38    182     48    187    194 348.0  14.5  34122  288.94 0861.73
2015 04 09 14 37 33 .04     -44    148     36    155    160 343.5  13.2  34130  289.08 0861.73
2015 04 09 14 37 33 .30     -36    113     80    119    143 342.2  37.0  34172  289.79 0861.72
2015 04 09 14 37 33 .54     -47    202     54    208    215 346.9  14.7  34210  290.41 0861.72
2015 04 09 14 37 33 .80     -71    245     97    256    273 343.9  21.5  34262  291.29 0861.72
2015 04 09 14 37 34 .04      10    300     79    301    312   2.0  14.7  34406  293.76 0861.72
2015 04 09 14 37 34 .30      34    284     78    287    298   6.9  15.3  34432  294.19 0861.72
2015 04 09 14 37 34 .54      33    263     33    266    269   7.3   7.1  34158  289.54 0861.72
2015 04 09 14 37 34 .79      28    266     63    268    276   6.2  13.2  34240  290.93 0861.72
2015 04 09 14 37 35 .04      10    285     85    286    299   2.0  16.6  34246  291.02 0861.72
2015 04 09 14 37 35 .29      23    303     74    304    313   4.4  13.7  34102  288.59 0861.72
2015 04 09 14 37 35 .55      38    312     74    315    324   7.1  13.3  34126  289.00 0861.72
2015 04 09 14 37 35 .80      55    307     98    312    328  10.2  17.5  34164  289.63 0861.72
2015 04 09 14 37 36 .05      53    283    113    289    310  10.7  22.8  34196  290.17 0861.72
2015 04 09 14 37 36 .30       3    237    111    238    262   0.9  26.6  34150  289.39 0861.72
2015 04 09 14 37 36 .55      66    323    101    330    346  11.6  17.0  34106  288.67 0861.72
2015 04 09 14 37 36 .80      61    281    101    288    306  12.3  19.4  34060  287.88 0861.72
2015 04 09 14 37 37 .05      78    307     72    317    326  14.3  12.9  34034  287.43 0861.72
2015 04 09 14 37 37 .30      67    331     73    339    347  11.6  12.3  34074  288.11 0861.72
2015 04 09 14 37 37 .55      68    364     72    371    378  10.7  11.0  34036  287.47 0861.72
2015 04 09 14 37 37 .80      73    350     65    358    364  11.9  10.4  34018  287.17 0861.72
2015 04 09 14 37 38 .05      70    338     88    346    358  11.8  14.3  34022  287.23 0861.72
2015 04 09 14 37 38 .30      70    320     88    328    340  12.5  15.1  34018  287.17 0861.72
2015 04 09 14 37 38 .55      75    293     79    303    314  14.5  14.7  34020  287.21 0861.72
2015 04 09 14 37 38 .82      81    303     67    314    322  15.1  12.2  34030  287.38 0861.73
2015 04 09 14 37 39 .07     109    289     69    309    317  20.7  12.6  34102  288.59 0861.73
2015 04 09 14 37 39 .31     123    321    113    344    363  21.0  18.1  34068  288.01 0861.73
2015 04 09 14 37 39 .57     143    309    121    341    363  24.9  19.6  34064  287.94 0861.73
2015 04 09 14 37 39 .81     108    332    124    350    372  18.0  19.6  34074  288.13 0861.73
2015 04 09 14 37 40 .07      85    325    101    336    351  14.7  16.8  34036  287.47 0861.73
2015 04 09 14 37 40 .32      73    306     51    315    320  13.6   9.2  34036  287.48 0861.73
2015 04 09 14 37 40 .56      72    287     65    296    304  14.2  12.4  34036  287.46 0861.73
2015 04 09 14 37 40 .82      93    252     47    269    274  20.3   9.9  34026  287.29 0861.73
2015 04 09 14 37 41 .07      88    266     60    281    288  18.5  12.2  34022  287.24 0861.73
2015 04 09 14 37 41 .32      95    262     60    279    286  20.0  12.2  34026  287.29 0861.73
2015 04 09 14 37 41 .57      89    276     95    291    307  17.9  18.1  34026  287.29 0861.73
2015 04 09 14 37 41 .82      56    280     81    286    298  11.5  15.8  34034  287.44 0861.73
2015 04 09 14 37 42 .07      57    265     11    272    273  12.3   2.5  34032  287.41 0861.73
2015 04 09 14 37 42 .33      60    266     14    273    274  12.9   3.1  34040  287.53 0861.73
2015 04 09 14 37 42 .57      99    273    -16    291    292  20.0  -3.2  34044  287.60 0861.73
2015 04 09 14 37 42 .83      81    259      8    272    273  17.4   1.8  34042  287.56 0861.73
2015 04 09 14 37 43 .07      83    258      7    272    273  17.8   1.6  34048  287.66 0861.73
2015 04 09 14 37 43 .32     116    265      8    290    291  23.7   1.7  34016  287.14 0861.73
2015 04 09 14 37 43 .57     123    259      8    288    289  25.5   1.7  34012  287.07 0861.73
2015 04 09 14 37 43 .83     133    260      1    293    294  27.2   0.2  34016  287.14 0861.73
2015 04 09 14 37 44 .08     133    259      3    292    293  27.2   0.7  34014  287.09 0861.74
2015 04 09 14 37 44 .33     124    260     14    289    290  25.5   2.9  34014  287.11 0861.74
2015 04 09 14 37 44 .57     118    260     30    286    288  24.5   6.1  34014  287.11 0861.74
2015 04 09 14 37 44 .83     124    262     36    290    293  25.4   7.2  34020  287.21 0861.74
2015 04 09 14 37 45 .08     103    269     45    289    293  21.0   9.0  34014  287.11 0861.74
2015 04 09 14 37 45 .33     104    253     11    274    275  22.3   2.3  34028  287.33 0861.74
2015 04 09 14 37 45 .59     119    237     53    266    272  26.7  11.4  34036  287.46 0861.74
2015 04 09 14 37 45 .84      68    227    104    238    259  16.7  25.1  34074  288.12 0861.74
2015 04 09 14 37 46 .10      55    203    109    211    237  15.2  29.5  34076  288.14 0861.73
2015 04 09 14 37 46 .34      80    213    111    228    253  20.7  27.8  34050  287.70 0861.73
2015 04 09 14 37 46 .59     114    220    115    248    273  27.4  26.6  34036  287.46 0861.73
2015 04 09 14 37 46 .84     101    180    141    207    250  29.4  37.4  34036  287.46 0861.73
2015 04 09 14 37 47 .09     114    172    148    207    254  33.6  39.1  34028  287.33 0861.73
2015 04 09 14 37 47 .34     127    199    132    237    271  32.5  31.4  34028  287.34 0861.73
2015 04 09 14 37 47 .60      91    211    152    231    276  23.4  36.5  34040  287.53 0861.73
2015 04 09 14 37 47 .84     108    213    191    240    306  27.0  42.7  34040  287.55 0861.73
2015 04 09 14 37 48 .10      67    200    186    212    282  18.7  45.9  34034  287.44 0861.73
2015 04 09 14 37 48 .34      94    197    191    219    290  25.6  45.8  34052  287.73 0861.73
2015 04 09 14 37 48 .59      74    200    177    214    277  20.5  43.7  34048  287.66 0861.73
2015 04 09 14 37 48 .85      30    245    175    247    302   7.1  38.8  34044  287.60 0861.73
2015 04 09 14 37 49 .10      36    289    121    292    316   7.2  23.8  34050  287.71 0861.73
2015 04 09 14 37 49 .35      23    270     77    272    283   4.9  15.8  34054  287.77 0861.73
2015 04 09 14 37 49 .60      75    213    133    226    262  19.4  33.4  34046  287.65 0861.73
2015 04 09 14 37 49 .85      41    278    106    282    301   8.5  21.5  34042  287.56 0861.73
2015 04 09 14 37 50 .10      88    278    155    292    330  17.6  30.3  34048  287.66 0861.73
2015 04 09 14 37 50 .35      57    338    153    343    375   9.6  25.7  34048  287.66 0861.73
2015 04 09 14 37 50 .60      98    324    160    339    374  17.0  27.1  34042  287.57 0861.73
2015 04 09 14 37 50 .85      95    286    138    302    332  18.5  26.4  34042  287.56 0861.73
2015 04 09 14 37 51 .10     134    262    153    295    332  27.2  29.6  34046  287.65 0861.73
2015 04 09 14 37 51 .35     142    283    113    317    336  26.7  20.3  34044  287.61 0861.73
2015 04 09 14 37 51 .60     183    318    127    367    389  29.9  19.2  34042  287.56 0861.73
2015 04 09 14 37 51 .85     171    268     79    319    329  32.6  13.9  34034  287.43 0861.73
2015 04 09 14 37 52 .11     177    282     90    333    346  32.1  15.1  34032  287.39 0861.73
2015 04 09 14 37 52 .35     161    256     73    303    312  32.1  13.7  34030  287.38 0861.73
2015 04 09 14 37 52 .62     138    301     95    332    346  24.7  16.0  34032  287.42 0861.73
2015 04 09 14 37 52 .87     124    286    106    312    330  23.4  18.9  34034  287.43 0861.73
2015 04 09 14 37 53 .12     104    303    116    321    342  18.9  19.9  34052  287.76 0861.73
2015 04 09 14 37 53 .37     131    316    114    343    362  22.5  18.5  34058  287.84 0861.73
2015 04 09 14 37 53 .62     122    326    110    349    366  20.5  17.5  34052  287.76 0861.73
2015 04 09 14 37 53 .87     104    283    105    302    320  20.3  19.2  34064  287.93 0861.73
2015 04 09 14 37 54 .12     110    292     63    313    320  20.7  11.4  34068  288.00 0861.74
2015 04 09 14 37 54 .37     110    344     50    362    366  17.8   7.9  34094  288.45 0861.74
2015 04 09 14 37 54 .62     112    327     22    346    347  18.9   3.7  34106  288.66 0861.74
2015 04 09 14 37 54 .87     108    323     -4    341    342  18.6  -0.7  34114  288.79 0861.74
2015 04 09 14 37 55 .12      89    307     -8    320    321  16.3  -1.6  34104  288.63 0861.74
2015 04 09 14 37 55 .37     131    275    -54    305    310  25.5 -10.1  34080  288.22 0861.74
2015 04 09 14 37 55 .63     106    265    -66    286    294  21.8 -13.2  34060  287.88 0861.74
2015 04 09 14 37 55 .87     115    247    -97    273    290  24.9 -19.7  34044  287.60 0861.74
2015 04 09 14 37 56 .12     132    247   -129    281    309  28.1 -31.0  34030  287.36 0861.74
2015 04 09 14 37 56 .37     122    195   -101    231    252  32.1 -29.5  34036  287.48 0861.74
2015 04 09 14 37 56 .62     105    211   -101    236    256  26.5 -28.7  34024  287.26 0861.74
2015 04 09 14 37 56 .88      84    182    -48    201    207  24.9 -13.4  34036  287.49 0861.74
2015 04 09 14 37 57 .12      67    219      2    230    231  17.0   0.7  34044  287.62 0861.74
2015 04 09 14 37 57 .38      67    187      2    199    200  19.8   0.8  34044  287.62 0861.74
2015 04 09 14 37 57 .63      73    173     -9    188    189  22.9  -2.8  34048  287.69 0861.74
2015 04 09 14 37 57 .88      51    193     31    200    203  15.1   8.9  34028  287.33 0861.74
2015 04 09 14 37 58 .13      78    206      0    221    222  20.9   0.2  34028  287.33 0861.74
2015 04 09 14 37 58 .38      84    210     -8    227    228  21.9  -2.1  34022  287.25 0861.74
2015 04 09 14 37 58 .63      68    217    -12    228    229  17.6  -3.1  34024  287.27 0861.74
2015 04 09 14 37 58 .88      63    212    -18    222    223  16.5  -4.9  34024  287.28 0861.74
2015 04 09 14 37 59 .13      58    183    -20    192    194  17.6  -6.2  34026  287.32 0861.74
2015 04 09 14 37 59 .38      56    166    -20    176    178  18.7  -6.7  34026  287.32 0861.74
2015 04 09 14 37 59 .64      56    158    -25    168    170  19.8  -8.6  34028  287.33 0861.74
2015 04 09 14 37 59 .89      63    201     -8    211    212  17.4  -2.3  34018  287.16 0861.74
2015 04 09 14 38 00 .14      47    199     10    205    206  13.4   2.9  34018  287.16 0861.74
2015 04 09 14 38 00 .39      41    202     19    207    208  11.6   5.4  34014  287.11 0861.74
2015 04 09 14 38 00 .64      37    202     32    206    209  10.5   8.8  34018  287.18 0861.74
2015 04 09 14 38 00 .89      34    196     29    200    203  10.0   8.2  34016  287.15 0861.74
2015 04 09 14 38 01 .14      34    195     32    199    202  10.0   9.3  34018  287.16 0861.74
2015 04 09 14 38 01 .40      14    207     37    208    212   4.0  10.1  34024  287.28 0861.74
2015 04 09 14 38 01 .64      13    219     19    220    221   3.4   5.2  34028  287.33 0861.74
2015 04 09 14 38 01 .90      17    213     38    214    218   4.7  10.1  34024  287.28 0861.74
2015 04 09 14 38 02 .15      17    223     44    224    229   4.5  11.1  34022  287.23 0861.74
2015 04 09 14 38 02 .40      51    209     39    216    220  13.8  10.3  34022  287.25 0861.74
2015 04 09 14 38 02 .65      52    201     31    208    211  14.7   8.5  34024  287.28 0861.74
2015 04 09 14 38 02 .90      66    161     48    175    182  22.3  15.6  34024  287.28 0861.74
2015 04 09 14 38 03 .15      19    177     72    179    192   6.2  23.0  34022  287.25 0861.74
2015 04 09 14 38 03 .40      19    185     53    187    195   6.0  16.0  34028  287.33 0861.74
2015 04 09 14 38 03 .65      91    162    -25    187    189  29.4  -7.7  34024  287.28 0861.74
2015 04 09 14 38 03 .90      88    140    -37    166    171  32.1 -12.6  34028  287.33 0861.74
2015 04 09 14 38 04 .15      95    101    -41    139    146  43.2 -16.6  34026  287.30 0861.74
2015 04 09 14 38 04 .40      95    101    -41    139    146  43.2 -16.6  34026  287.30 0861.74
2015 04 09 14 38 04 .65      84     63    -29    105    110  53.1 -15.5  34024  287.28 0861.74
2015 04 09 14 38 04 .90      78     72    -36    107    113  47.3 -18.7  34024  287.28 0861.73
2015 04 09 14 38 05 .15      94     64    -27    114    118  55.8 -13.4  34022  287.25 0861.73
2015 04 09 14 38 05 .40      89     89    -32    126    131  45.0 -14.5  34020  287.20 0861.73
2015 04 09 14 38 05 .65      91     85    -21    125    127  46.8  -9.8  34018  287.18 0861.73
2015 04 09 14 38 05 .90      74     87     -4    115    116  40.5  -2.2  34018  287.18 0861.73
2015 04 09 14 38 06 .15      69     73     -3    101    102  43.2  -2.2  34018  287.16 0861.73
2015 04 09 14 38 06 .40      74     72    -23    104    107  46.0 -12.9  34020  287.21 0861.73
2015 04 09 14 38 06 .66      83     54    -30    100    105  56.7 -16.6  34020  287.21 0861.73
2015 04 09 14 38 06 .92      70     47    -28     85     90  55.8 -18.7  34022  287.23 0861.74
2015 04 09 14 38 07 .16      66     44    -16     80     82  56.3 -11.9  34022  287.25 0861.74
2015 04 09 14 38 07 .42      91     54     -2    107    108  59.3  -1.3  34018  287.16 0861.74
2015 04 09 14 38 07 .67      96     45      5    107    108  64.6   2.8  34018  287.16 0861.74
2015 04 09 14 38 07 .92      74     45      9     87     88  58.5   6.5  34020  287.21 0861.74
2015 04 09 14 38 08 .17      50     51     27     72     76  44.2  20.0  34022  287.25 0861.74
2015 04 09 14 38 08 .42      60     56     44     83     93  46.9  30.3  34026  287.30 0861.74
2015 04 09 14 38 08 .67      78     60     61     99    116  52.7  35.5  34028  287.33 0861.73
2015 04 09 14 38 08 .92      46     60     63     76     98  37.8  43.8  34036  287.47 0861.73
2015 04 09 14 38 09 .17      24     54     63     60     87  23.6  51.2  34054  287.79 0861.73
2015 04 09 14 38 09 .42      16     60     56     63     84  15.2  46.9  34058  287.86 0861.73
2015 04 09 14 38 09 .67       0     56     54     57     78   0.0  48.5  34050  287.72 0861.73
2015 04 09 14 38 09 .92      -5     77     21     78     81 355.6  15.3  34030  287.38 0861.73
2015 04 09 14 38 10 .17     -12     79      5     80     81 351.1   3.8  34026  287.32 0861.73
2015 04 09 14 38 10 .42      -3     72      8     73     74 357.3   6.9  34028  287.35 0861.73
2015 04 09 14 38 10 .67      -1     78     10     79     80 359.1   7.5  34028  287.33 0861.73
2015 04 09 14 38 10 .92       6     83     18     84     86   4.4  12.2  34026  287.30 0861.73
2015 04 09 14 38 11 .18      12     94      9     95     96   7.6   5.4  34024  287.27 0861.73
2015 04 09 14 38 11 .42      12     94      2     95     96   7.6   1.2  34022  287.25 0861.73
2015 04 09 14 38 11 .68       8    104      5    105    106   4.5   2.8  34024  287.27 0861.73
2015 04 09 14 38 11 .93       6    108     -4    109    110   3.6  -2.2  34024  287.28 0861.73
2015 04 09 14 38 12 .18      22    108     11    111    112  11.5   5.9  34022  287.25 0861.73
2015 04 09 14 38 12 .43      12     93     18     94     96   7.6  11.1  34032  287.40 0861.73
2015 04 09 14 38 12 .68       0    102     12    103    104 359.6   6.9  34028  287.35 0861.73
2015 04 09 14 38 12 .93       0     92      4     93     94   0.0   2.9  34028  287.33 0861.73
2015 04 09 14 38 13 .18       2     87     -6     88     89   1.8  -4.1  34026  287.30 0861.73
2015 04 09 14 38 13 .44       8    112    -10    113    114   4.5  -5.2  34020  287.21 0861.73
2015 04 09 14 38 13 .69      13    110    -14    111    112   7.1  -7.2  34022  287.25 0861.73
2015 04 09 14 38 13 .94       8    112     -3    113    114   4.5  -1.8  34022  287.25 0861.73
2015 04 09 14 38 14 .20      10     99     -6    100    101   5.8  -3.7  34028  287.35 0861.73
2015 04 09 14 38 14 .45       8    112     11    113    114   4.5   5.9  34054  287.79 0861.73
2015 04 09 14 38 14 .69       0     83      4     84     85   0.0   2.9  34056  287.81 0861.73
2015 04 09 14 38 14 .94      12     94     18     95     97   7.6  11.0  34066  287.99 0861.73
2015 04 09 14 38 15 .19      20    112      5    114    115  10.2   2.9  34024  287.27 0861.73
2015 04 09 14 38 15 .45      28    107     -4    111    112  14.7  -2.2  34024  287.27 0861.73
2015 04 09 14 38 15 .70      34     99     -9    105    106  19.2  -5.2  34028  287.33 0861.73
2015 04 09 14 38 15 .95      22     87     -4     90     91  14.3  -3.1  34056  287.82 0861.73
2015 04 09 14 38 16 .19      23     59    -18     64     66  21.8 -20.7  34026  287.32 0861.73
2015 04 09 14 38 16 .45      18     55    -27     58     63  18.3 -30.6  34030  287.38 0861.73
2015 04 09 14 38 16 .70      14     44    -13     47     49  18.5 -15.5  34036  287.47 0861.73
2015 04 09 14 38 16 .95      10     24     -1     27     28  23.6  -2.2  34040  287.55 0861.73
2015 04 09 14 38 17 .20       5     18     14     19     23  18.3  41.7  34036  287.47 0861.73
2015 04 09 14 38 17 .45      18     29      5     35     36  32.5   9.0  34032  287.40 0861.73
2015 04 09 14 38 17 .71       4     29     -8     30     32   8.0 -15.5  34038  287.52 0861.73
2015 04 09 14 38 17 .95      25     53    -13     59     61  25.3 -12.4  34026  287.30 0861.73
2015 04 09 14 38 18 .20      21     60    -19     64     67  20.0 -16.6  34026  287.30 0861.73
2015 04 09 14 38 18 .45      24     67    -20     72     74  20.0 -20.7  34026  287.30 0861.73
2015 04 09 14 38 18 .70      32     68     -9     76     77  25.3  -7.3  34022  287.25 0861.73
2015 04 09 14 38 18 .95      68     58    -27     90     93  49.1 -22.3  34024  287.28 0861.73
2015 04 09 14 38 19 .20      63     60    -32     88     93  46.4 -24.4  34024  287.28 0861.73
2015 04 09 14 38 19 .46      55     59    -27     81     85  43.2 -23.6  34024  287.28 0861.73
2015 04 09 14 38 19 .71      56     78    -44     97    106  35.6 -30.6  34030  287.38 0861.73
2015 04 09 14 38 19 .96      63     62    -41     89     97  45.4 -31.0  34028  287.33 0861.73
2015 04 09 14 38 20 .21      50     75    -45     91    101  33.8 -32.6  34030  287.38 0861.73
2015 04 09 14 38 20 .47      51     92    -51    106    117  29.0 -31.6  34028  287.35 0861.73
2015 04 09 14 38 20 .72      44     89    -33    100    106  26.3 -18.7  34028  287.33 0861.73
2015 04 09 14 38 20 .97      66     56    -36     87     94  49.6 -27.4  34028  287.33 0861.73
2015 04 09 14 38 21 .22      51     51    -26     73     77  45.1 -23.3  34030  287.37 0861.73
2015 04 09 14 38 21 .47      39     17    -41     43     59  66.5 -53.4  34036  287.49 0861.73
2015 04 09 14 38 21 .72      25      1    -34     26     42  85.7 -62.9  34044  287.62 0861.73
2015 04 09 14 38 21 .97      41      5    -25     42     48  82.1 -38.8  34032  287.40 0861.73
2015 04 09 14 38 22 .22      10      0    -21     11     23  85.6 -75.2  34044  287.62 0861.72
2015 04 09 14 38 22 .47      27     35    -15     45     48  37.8 -18.7  34032  287.42 0861.72
2015 04 09 14 38 22 .72      47     64    -41     80     89  36.1 -33.1  34028  287.33 0861.72
2015 04 09 14 38 22 .97      28     62    -46     69     82  24.5 -41.4  34034  287.43 0861.72
2015 04 09 14 38 23 .22      18     59    -37     62     72  17.8 -38.8  34038  287.50 0861.72
2015 04 09 14 38 23 .47       8     46    -43     47     63  10.7 -52.3  34036  287.47 0861.72
2015 04 09 14 38 23 .72      15     53    -39     56     68  16.0 -43.0  34032  287.42 0861.72
2015 04 09 14 38 23 .97      42     59    -41     73     83  35.2 -36.8  34030  287.38 0861.72
2015 04 09 14 38 24 .23      46     46    -27     66     71  45.1 -27.4  34030  287.38 0861.72
2015 04 09 14 38 24 .48      43     40    -21     59     63  46.9 -19.7  34030  287.37 0861.72
2015 04 09 14 38 24 .73      31     42    -17     53     56  36.1 -18.7  34030  287.38 0861.72
2015 04 09 14 38 24 .98      10     46    -16     48     50  12.5 -23.6  34032  287.40 0861.72
2015 04 09 14 38 25 .23      11     54    -23     56     60  11.5 -27.5  34026  287.32 0861.72
2015 04 09 14 38 25 .48      19     46    -14     50     51  22.7 -20.7  34028  287.33 0861.72
2015 04 09 14 38 25 .73      15     46    -25     49     55  18.5 -33.7  34036  287.47 0861.72
2015 04 09 14 38 25 .98       5     46     -1     47     48   7.1  -2.2  34030  287.38 0861.72
2015 04 09 14 38 26 .24      -7     34     12     35     38 348.4  19.4  34056  287.81 0861.72
2015 04 09 14 38 26 .49       0     55     32     56     64 359.1  32.4  34142  289.26 0861.72
2015 04 09 14 38 26 .73     -16     63     38     66     76 345.7  33.5  34154  289.46 0861.72
2015 04 09 14 38 26 .99     -31     46     30     56     63 325.7  31.3  34124  288.97 0861.72
2015 04 09 14 38 27 .23     -29     62     30     69     75 334.6  25.1  34150  289.41 0861.72
2015 04 09 14 38 27 .49     -31     54     23     63     67 330.1  20.0  34136  289.18 0861.72
2015 04 09 14 38 27 .74     -21     56     32     60     68 339.1  31.3  34126  289.01 0861.72
2015 04 09 14 38 28 .00     -25     36     27     45     52 324.8  34.4  34134  289.13 0861.72
2015 04 09 14 38 28 .25     -31     37     36     49     60 320.4  39.7  34140  289.23 0861.72
2015 04 09 14 38 28 .49     -25     20     40     33     51 309.5  56.4  34152  289.43 0861.72
2015 04 09 14 38 28 .74     -29      8     19     31     36 285.1  35.5  34106  288.67 0861.72
2015 04 09 14 38 29 .00     -28      0     12     29     31 270.8  23.0  34074  288.13 0861.72
2015 04 09 14 38 29 .25     -25      5     15     26     30 281.5  33.5  34076  288.16 0861.72
2015 04 09 14 38 29 .50     -30     30     16     43     45 314.9  20.0  34104  288.62 0861.72
2015 04 09 14 38 29 .75     -16     22     37     28     46 323.9  59.4  34142  289.28 0861.72
2015 04 09 14 38 29 .99     -17     22     23     28     36 322.2  43.7  34138  289.21 0861.72
2015 04 09 14 38 30 .25     -26     16      2     31     32 302.4   4.9  34086  288.31 0861.72
2015 04 09 14 38 30 .50     -28     13      1     31     32 295.2   2.8  34070  288.06 0861.73
2015 04 09 14 38 30 .75     -27      2      4     28     29 274.4   9.0  34050  287.72 0861.73
2015 04 09 14 38 31 .00     -35      8    -11     36     38 283.3 -17.6  34036  287.49 0861.73
2015 04 09 14 38 31 .25     -41      4    -18     42     45 276.1 -28.5  34042  287.59 0861.73
2015 04 09 14 38 31 .50     -27      9    -20     29     35 288.6 -40.0  34038  287.52 0861.73
2015 04 09 14 38 31 .75     -36      7    -16     37     40 281.5 -29.5  34038  287.52 0861.73
2015 04 09 14 38 32 .00     -35      8    -11     36     38 283.3 -17.6  34044  287.60 0861.73
2015 04 09 14 38 32 .26     -30      0    -23     31     38 269.2 -46.1  34046  287.64 0861.73
2015 04 09 14 38 32 .51     -24      1    -24     25     34 274.4 -56.4  34066  287.98 0861.73
2015 04 09 14 38 32 .75      -5    -21    -25     22     33 193.4 -58.7  34064  287.94 0861.73
2015 04 09 14 38 33 .01       2    -19    -30     20     36 173.8 -69.0  34058  287.84 0861.73
2015 04 09 14 38 33 .26      21    -21    -39     30     49 135.0 -62.9  34070  288.04 0861.73
2015 04 09 14 38 33 .50      16    -30    -30     35     46 151.0 -50.2  34072  288.09 0861.73
2015 04 09 14 38 33 .76       5    -24    -41     25     48 168.4 -69.1  34066  287.98 0861.73
2015 04 09 14 38 34 .01      17      0    -34     18     38  90.8 -75.2  34060  287.89 0861.72
2015 04 09 14 38 34 .27      12     37    -46     40     60  18.3 -58.7  34050  287.70 0861.72
2015 04 09 14 38 34 .52      21      5    -56     22     60  76.7 -81.5  34062  287.92 0861.72
2015 04 09 14 38 34 .77      25     -2    -28     26     38  96.1 -52.6  34062  287.91 0861.72
2015 04 09 14 38 35 .02      15     21    -18     26     31  36.1 -42.0  34046  287.65 0861.72
2015 04 09 14 38 35 .27      14     21    -18     26     31  32.6 -42.0  34050  287.70 0861.72
2015 04 09 14 38 35 .53      21      5    -22     22     31  76.7 -54.5  34056  287.81 0861.72
2015 04 09 14 38 35 .80      34     -4    -19     35     39  97.9 -35.8  34052  287.76 0861.73
2015 04 09 14 38 36 .02      50      3    -14     51     53  85.7 -15.5  34050  287.72 0861.73
2015 04 09 14 38 36 .27      53     29    -21     61     65  61.2 -19.7  34036  287.49 0861.73
2015 04 09 14 38 36 .53      42     38    -18     57     59  47.8 -22.8  34042  287.59 0861.73
2015 04 09 14 38 36 .78       3     21    -15     22     26   9.8 -40.0  34064  287.96 0861.73
2015 04 09 14 38 37 .03     -24     33      8     41     42 323.9  11.1  34070  288.04 0861.73
2015 04 09 14 38 37 .27     -39      3     21     40     45 274.4  30.3  34100  288.55 0861.73
2015 04 09 14 38 37 .53     -45     31    -15     55     58 305.1 -15.5  34054  287.77 0861.73
2015 04 09 14 38 37 .77     -24     40      1     47     48 329.3   1.8  34052  287.76 0861.73
2015 04 09 14 38 38 .03     -32     25    -25     41     48 307.8 -39.9  34048  287.67 0861.73
2015 04 09 14 38 38 .28     -43     13    -23     46     51 287.7 -31.7  34040  287.55 0861.73
2015 04 09 14 38 38 .53     -50      9    -23     51     55 280.6 -30.6  34044  287.60 0861.72
2015 04 09 14 38 38 .78     -63     12    -27     65     70 281.5 -28.5  34044  287.60 0861.72
2015 04 09 14 38 39 .03     -75      1    -32     76     82 270.8 -28.5  34046  287.65 0861.72
2015 04 09 14 38 39 .28     -73     -1    -30     74     79 269.1 -28.0  34048  287.67 0861.72
2015 04 09 14 38 39 .53     -76    -13    -20     78     81 260.3 -15.0  34044  287.62 0861.72
2015 04 09 14 38 39 .78     -86     -7    -26     87     91 264.8 -17.0  34042  287.57 0861.72
2015 04 09 14 38 40 .03     -91     17    -31     93     98 281.0 -23.6  34042  287.57 0861.72
2015 04 09 14 38 40 .28     -88     12    -42     89     98 278.4 -31.5  34044  287.60 0861.72
2015 04 09 14 38 40 .53     -77     13    -34     79     86 279.7 -29.0  34044  287.62 0861.72
2015 04 09 14 38 40 .78     -87     12    -30     88     92 278.4 -23.3  34040  287.55 0861.72
2015 04 09 14 38 41 .03     -77      4    -22     78     82 273.5 -16.0  34042  287.59 0861.72
2015 04 09 14 38 41 .30     -85     -5    -30     86     92 266.5 -19.1  34042  287.57 0861.72
2015 04 09 14 38 41 .57     -71      1    -27     72     76 270.8 -24.4  34040  287.54 0861.72
2015 04 09 14 38 41 .80     -63    -31     -9     71     72 243.8  -7.2  34046  287.65 0861.72
2015 04 09 14 38 42 .05     -67    -46      6     82     83 235.8   4.4  34048  287.67 0861.72
2015 04 09 14 38 42 .30     -83    -40      0     93     94 244.2  -0.3  34046  287.65 0861.72
2015 04 09 14 38 42 .55    -100    -52     -3    113    114 242.5  -1.8  34044  287.62 0861.72
2015 04 09 14 38 42 .80    -104    -59      3    120    121 240.2   1.8  34042  287.59 0861.72
2015 04 09 14 38 43 .05     -46    -38    -16     60     63 230.5 -15.4  34042  287.57 0861.73
2015 04 09 14 38 43 .30     -56    -53     45     78     90 226.9  32.9  34050  287.72 0861.73
2015 04 09 14 38 43 .55     -53    -56     47     78     91 223.3  34.0  34056  287.81 0861.73
2015 04 09 14 38 43 .80     -57    -47     32     74     80 230.5  25.1  34060  287.89 0861.73
2015 04 09 14 38 44 .05     -52    -26      3     59     60 243.8   2.9  34058  287.84 0861.73
2015 04 09 14 38 44 .30     -37    -28     -5     47     48 232.2  -6.2  34060  287.89 0861.73
2015 04 09 14 38 44 .55      -8    -12      1     15     16 216.1   6.9  34084  288.30 0861.73
2015 04 09 14 38 44 .81      -2     -8     37      9     38 198.5  84.9  34102  288.58 0861.72
2015 04 09 14 38 45 .05     -18     10     34     21     39 300.7  65.7  34092  288.43 0861.72
2015 04 09 14 38 45 .30     -30     18     27     36     45 300.7  40.7  34104  288.64 0861.72
2015 04 09 14 38 45 .56     -18     25     21     31     37 323.9  35.6  34100  288.55 0861.72
2015 04 09 14 38 45 .80      -9     41     10     42     44 347.5  13.2  34108  288.69 0861.72
2015 04 09 14 38 46 .06     -21     29     19     37     41 323.9  29.3  34114  288.79 0861.72
2015 04 09 14 38 46 .31     -16     30     24     35     42 331.0  37.6  34124  288.96 0861.72
2015 04 09 14 38 46 .56     -11     12     27     17     31 316.8  64.7  34142  289.28 0861.72
2015 04 09 14 38 46 .80     -27      9     25     29     38 288.2  45.8  34138  289.19 0861.72
2015 04 09 14 38 47 .06     -36      7     -4     37     38 281.5  -7.2  34098  288.53 0861.72
2015 04 09 14 38 47 .31     -18     17     14     26     29 313.1  31.4  34108  288.69 0861.72
2015 04 09 14 38 47 .56       0     28     12     29     31 359.1  23.0  34118  288.87 0861.72
2015 04 09 14 38 47 .81      -4     25      9     26     28 350.2  19.4  34128  289.04 0861.72
2015 04 09 14 38 48 .06      -6     13     19     15     24 334.6  56.4  34136  289.16 0861.72
2015 04 09 14 38 48 .32     -19     -7     37     21     42 248.3  67.7  34140  289.23 0861.72
2015 04 09 14 38 48 .57     -35    -44     48     57     74 218.7  43.8  34078  288.18 0861.72
2015 04 09 14 38 48 .82     -15    -24     63     29     69 212.6  73.1  34092  288.42 0861.72
2015 04 09 14 38 49 .07     -19    -35     48     41     63 209.0  55.4  34068  288.03 0861.72
2015 04 09 14 38 49 .33      -6    -20     35     22     41 198.5  64.7  34090  288.38 0861.73
2015 04 09 14 38 49 .57       0      1     32      2     32 350.3  90.0  34126  289.01 0861.73
2015 04 09 14 38 49 .84       3     -3     30      5     30 133.3  90.0  34128  289.04 0861.73
2015 04 09 14 38 50 .08       0     -1     41      2     41 189.7  90.0  34132  289.11 0861.73
2015 04 09 14 38 50 .33      -4     26     48     27     55 350.2  67.7  34124  288.97 0861.73
2015 04 09 14 38 50 .59       6     26     41     27     49  13.4  63.6  34142  289.26 0861.73
2015 04 09 14 38 50 .83       2     37     36     38     52   4.4  50.0  34130  289.08 0861.73
2015 04 09 14 38 51 .08      -2     31     37     32     48 355.5  53.3  34148  289.38 0861.73
2015 04 09 14 38 51 .33      -1     40     41     41     57 357.4  50.1  34168  289.70 0861.73
2015 04 09 14 38 51 .58      17     54     57     57     80  18.3  50.1  34178  289.89 0861.73
2015 04 09 14 38 51 .83      -2     32     50     33     59 355.5  63.6  34174  289.82 0861.73
2015 04 09 14 38 52 .09       4     13     59     14     60  18.5  88.0  34222  290.64 0861.73
2015 04 09 14 38 52 .33      13     14     41     20     45  43.4  71.9  34210  290.41 0861.73
2015 04 09 14 38 52 .59      39     47     64     62     89  39.7  50.1  34264  291.33 0861.73
2015 04 09 14 38 52 .83      25     39     57     47     73  32.5  56.3  34288  291.74 0861.73
2015 04 09 14 38 53 .08      10     16     44     20     48  32.5  75.0  34268  291.40 0861.72
2015 04 09 14 38 53 .34      13     14     48     20     52  43.4  76.1  34258  291.25 0861.72
2015 04 09 14 38 53 .58      27     39     56     48     73  34.3  55.4  34282  291.64 0861.72
2015 04 09 14 38 53 .83      14     22     48     27     55  32.5  67.7  34280  291.62 0861.72
2015 04 09 14 38 54 .08      27     14     55     31     63  62.9  68.8  34302  291.98 0861.72
2015 04 09 14 38 54 .33      17     17     43     25     49  45.0  66.8  34246  291.03 0861.72
2015 04 09 14 38 54 .59     -27     29     34     40     52 316.8  44.8  34210  290.43 0861.72
2015 04 09 14 38 54 .84     -29     45      7     54     55 327.4   8.0  34188  290.04 0861.72
2015 04 09 14 38 55 .10     -45     45      2     64     65 315.0   1.8  34102  288.60 0861.72
2015 04 09 14 38 55 .35     -35     43     11     56     58 321.3  11.1  34132  289.09 0861.72
2015 04 09 14 38 55 .60     -23     33      1     41     42 324.8   1.8  34122  288.94 0861.72
2015 04 09 14 38 55 .85     -23     33      1     41     42 324.8   1.8  34116  288.82 0861.72
2015 04 09 14 38 56 .10     -19     30     -1     36     37 327.4  -2.2  34094  288.45 0861.72
2015 04 09 14 38 56 .35     -21     29    -14     37     39 323.9 -23.3  34090  288.40 0861.72
2015 04 09 14 38 56 .60       0     39    -12     40     41 359.1 -21.7  34104  288.64 0861.72
2015 04 09 14 38 56 .85       0     44      2     45     46 359.1   2.9  34132  289.11 0861.72
2015 04 09 14 38 57 .10      41     22     27     47     54  62.0  33.5  34164  289.65 0861.72
2015 04 09 14 38 57 .35      39     17     25     43     49  66.5  33.5  34150  289.41 0861.72
2015 04 09 14 38 57 .61      30     13     26     33     42  66.5  42.7  34184  289.99 0861.72
2015 04 09 14 38 57 .85     -11     43     23     45     50 345.7  29.3  34186  290.02 0861.72
2015 04 09 14 38 58 .11     -19     34     21     40     45 331.0  30.3  34188  290.06 0861.72
2015 04 09 14 38 58 .36       0     18     32     19     37 357.3  64.7  34240  290.94 0861.72
2015 04 09 14 38 58 .61       0     44     32     45     55   0.0  38.6  34250  291.11 0861.72
2015 04 09 14 38 58 .86       2     28     44     29     52   4.5  64.6  34288  291.74 0861.72
2015 04 09 14 38 59 .10      -7      4     45      9     45 302.4  89.0  34304  292.03 0861.72
2015 04 09 14 38 59 .36      -7      6     32     10     33 309.5  80.7  34280  291.60 0861.73
2015 04 09 14 38 59 .60     -41     26     25     49     55 302.4  29.3  34256  291.20 0861.73
2015 04 09 14 38 59 .86     -13     24     -2     28     29 331.0  -5.2  34240  290.92 0861.73
2015 04 09 14 39 00 .14     -65     13    -16     67     69 281.5 -13.4  34244  291.01 0861.73
2015 04 09 14 39 00 .36     -11     25     17     28     32 336.4  35.5  34238  290.91 0861.73
2015 04 09 14 39 00 .61     -67     32    -26     75     80 295.3 -19.1  34190  290.08 0861.73
2015 04 09 14 39 00 .87     -77     49    -12     92     93 302.4  -7.7  34218  290.55 0861.73
2015 04 09 14 39 01 .11     -58     54    -13     80     82 313.2  -9.8  34214  290.50 0861.73
2015 04 09 14 39 01 .36     -36     39      7     54     55 316.8   8.0  34222  290.62 0861.73
2015 04 09 14 39 01 .61     -44     32    -15     55     58 306.0 -15.4  34234  290.84 0861.73
2015 04 09 14 39 01 .86     -46     26    -19     53     56 299.8 -23.3  34234  290.82 0861.73
2015 04 09 14 39 02 .12    -128     63    -24    143    146 296.2  -9.8  34078  288.18 0861.73
2015 04 09 14 39 02 .38     -78     85    -13    116    117 317.7  -6.7  34082  288.26 0861.73
2015 04 09 14 39 02 .62     -52     91      6    105    106 330.1   3.3  34096  288.48 0861.73
2015 04 09 14 39 02 .88     -99     95     -2    138    139 313.6  -1.2  34062  287.91 0861.73
2015 04 09 14 39 03 .13     -98    118      7    154    155 320.4   2.9  34070  288.04 0861.73
2015 04 09 14 39 03 .38     -82     93     -3    125    126 318.6  -1.8  34066  287.99 0861.73
2015 04 09 14 39 03 .63     -66     83     28    107    111 321.7  14.7  34082  288.26 0861.73
2015 04 09 14 39 03 .88     -83     73     -4    111    112 311.3  -2.2  34068  288.03 0861.73
2015 04 09 14 39 04 .13     -84     89      8    123    124 316.8   3.8  34066  287.98 0861.73
2015 04 09 14 39 04 .38    -124     81    -30    149    153 303.3 -11.5  34040  287.55 0861.73
2015 04 09 14 39 04 .63    -118     97    -16    154    155 309.5  -6.2  34046  287.65 0861.73
2015 04 09 14 39 04 .88    -125     82    -23    150    152 303.3  -8.8  34042  287.57 0861.73
2015 04 09 14 39 05 .13    -116     96    -19    151    153 309.6  -7.2  34046  287.64 0861.73
2015 04 09 14 39 05 .38    -106    105      4    150    151 314.9   1.8  34048  287.67 0861.73
2015 04 09 14 39 05 .63     -87     91      5    127    128 316.3   2.3  34058  287.84 0861.73
2015 04 09 14 39 05 .88    -102    108     -8    149    150 316.8  -3.1  34050  287.72 0861.73
2015 04 09 14 39 06 .13     -98    118    -23    154    156 320.4  -8.8  34052  287.74 0861.73
2015 04 09 14 39 06 .38     -91     91     15    130    131 315.0   6.9  34064  287.96 0861.73
2015 04 09 14 39 06 .63    -110    118    -11    162    163 316.8  -3.9  34058  287.86 0861.73
2015 04 09 14 39 06 .89    -102    108     11    149    150 316.8   4.4  34068  288.03 0861.73
2015 04 09 14 39 07 .14     -59     87     43    106    114 325.7  23.0  34084  288.30 0861.73
2015 04 09 14 39 07 .39    -112    105     -6    154    155 313.2  -2.2  34062  287.92 0861.73
2015 04 09 14 39 07 .64    -120    120     -5    171    172 315.0  -1.8  34058  287.84 0861.73
2015 04 09 14 39 07 .89    -101    120    -16    157    158 319.9  -6.0  34062  287.91 0861.73
2015 04 09 14 39 08 .14    -114    118    -17    165    166 315.9  -6.0  34056  287.81 0861.73
2015 04 09 14 39 08 .39    -111    126    -35    169    173 318.6 -11.9  34050  287.72 0861.74
2015 04 09 14 39 08 .64    -114    125    -32    170    174 317.7 -10.9  34052  287.76 0861.74
2015 04 09 14 39 08 .89    -131    101    -21    166    168 307.8  -7.3  34046  287.65 0861.74
2015 04 09 14 39 09 .15    -131     96    -24    163    165 306.4  -8.6  34046  287.64 0861.74
2015 04 09 14 39 09 .40    -107     88    -29    139    143 309.5 -11.9  34046  287.64 0861.74
2015 04 09 14 39 09 .65    -108     60     -4    124    125 299.3  -2.2  34048  287.67 0861.74
2015 04 09 14 39 09 .94     -86     86     21    122    124 315.0  10.1  34060  287.89 0861.74
2015 04 09 14 39 10 .15    -105    101     -5    146    147 314.0  -2.2  34048  287.69 0861.74
2015 04 09 14 39 10 .43    -114     81      2    140    141 305.5   0.8  34046  287.65 0861.74
2015 04 09 14 39 10 .66    -125    105     -6    164    165 310.2  -2.2  34050  287.70 0861.74
2015 04 09 14 39 10 .91    -112     86     -7    142    143 307.3  -3.1  34050  287.72 0861.74
2015 04 09 14 39 11 .16    -110     90      7    143    144 309.1   2.9  34058  287.86 0861.74
2015 04 09 14 39 11 .40    -110     90      7    143    144 309.1   2.9  34058  287.86 0861.74
2015 04 09 14 39 11 .66    -133     96     -5    165    166 306.0  -1.8  34058  287.86 0861.74
2015 04 09 14 39 11 .90    -141     79    -20    162    164 299.3  -7.2  34060  287.89 0861.74
2015 04 09 14 39 12 .16    -133     93     -6    163    164 304.9  -2.2  34052  287.76 0861.74
2015 04 09 14 39 12 .41    -147     93    -19    175    177 302.4  -6.2  34038  287.50 0861.74
2015 04 09 14 39 12 .66    -158    116    -23    197    199 306.4  -6.7  34056  287.81 0861.74
2015 04 09 14 39 12 .91    -114    101     -8    153    154 311.8  -3.2  34080  288.21 0861.74
2015 04 09 14 39 13 .16    -116    112     23    162    164 314.0   8.2  34086  288.31 0861.74
2015 04 09 14 39 13 .42    -189     47    -60    195    205 284.2 -17.3  34104  288.64 0861.74
2015 04 09 14 39 13 .66    -218    111    -40    245    249 297.0  -9.4  34098  288.51 0861.74
2015 04 09 14 39 13 .91    -217     86    -54    234    241 291.7 -13.2  34060  287.87 0861.75
2015 04 09 14 39 14 .16    -203     80    -71    219    231 291.7 -18.1  34048  287.67 0861.75
2015 04 09 14 39 14 .41    -190     89    -72    210    223 295.2 -19.1  34052  287.74 0861.75
2015 04 09 14 39 14 .66    -177     84    -66    197    209 295.4 -18.7  34054  287.79 0861.75
2015 04 09 14 39 14 .91    -173     72    -52    188    195 292.6 -20.2  34052  287.74 0861.75
2015 04 09 14 39 15 .17    -174     61    -60    185    195 289.3 -18.1  34054  287.79 0861.75
2015 04 09 14 39 15 .41    -182     57    -34    191    195 287.5 -10.3  34064  287.94 0861.75
2015 04 09 14 39 15 .66    -165     48    -42    173    179 286.4 -13.7  34074  288.13 0861.75
2015 04 09 14 39 15 .92    -181     48    -14    188    189 285.1  -4.4  34064  287.96 0861.75
2015 04 09 14 39 16 .18    -171     57    -34    181    185 288.4 -10.9  34088  288.36 0861.75
2015 04 09 14 39 16 .43    -168     58    -23    178    180 289.1  -7.5  34104  288.64 0861.74
2015 04 09 14 39 16 .68    -159     58    -21    170    172 290.0  -7.3  34106  288.67 0861.74
2015 04 09 14 39 16 .93    -168     56    -35    178    182 288.6 -11.1  34098  288.53 0861.74
2015 04 09 14 39 17 .18    -167     62    -42    179    185 290.6 -13.4  34084  288.30 0861.74
2015 04 09 14 39 17 .43    -176     65    -44    188    194 290.4 -13.2  34080  288.23 0861.74
2015 04 09 14 39 17 .67    -178     83    -54    197    205 295.2 -15.5  34066  287.99 0861.74
2015 04 09 14 39 17 .93    -193     70    -50    206    213 290.0 -13.7  34066  287.99 0861.74
2015 04 09 14 39 18 .18    -176     58    -37    186    190 288.2 -11.3  34066  287.98 0861.74
2015 04 09 14 39 18 .43    -157     52    -36    166    171 288.4 -12.4  34062  287.91 0861.74
2015 04 09 14 39 18 .68    -137     63     -5    152    153 294.8  -2.2  34094  288.45 0861.74
2015 04 09 14 39 18 .94    -103     40    -22    111    114 291.3 -11.3  34086  288.31 0861.74
2015 04 09 14 39 19 .18     -94     16     -7     96     97 279.7  -4.6  34114  288.79 0861.74
2015 04 09 14 39 19 .44    -145     29    -13    148    149 281.4  -5.2  34102  288.58 0861.74
2015 04 09 14 39 19 .68    -135     41     -2    142    143 286.9  -1.2  34112  288.77 0861.74
2015 04 09 14 39 19 .94    -148     55    -23    158    160 290.4  -8.6  34108  288.70 0861.74
2015 04 09 14 39 20 .18    -164      8    -15    165    166 272.8  -5.2  34106  288.65 0861.73
2015 04 09 14 39 20 .44    -145     63    -32    159    163 293.7 -11.3  34094  288.45 0861.73
2015 04 09 14 39 20 .69     -89     83      5    122    123 313.1   2.3  34120  288.89 0861.73
2015 04 09 14 39 20 .94    -132     31    -17    136    138 283.3  -7.2  34106  288.67 0861.73
2015 04 09 14 39 21 .19    -127      8      6    128    129 273.9   2.9  34112  288.77 0861.73
2015 04 09 14 39 21 .44     -97     62    -27    116    120 302.5 -13.3  34114  288.79 0861.73
2015 04 09 14 39 21 .69    -163     92    -26    188    190 299.5  -8.0  34110  288.72 0861.73
2015 04 09 14 39 21 .94    -186     62    -48    197    203 288.4 -13.7  34100  288.57 0861.73
2015 04 09 14 39 22 .19    -122     83    -25    148    151 304.2  -9.8  34112  288.77 0861.73
2015 04 09 14 39 22 .44    -117     34    -45    122    130 286.4 -25.3  34104  288.62 0861.73
2015 04 09 14 39 22 .69    -142     61    -28    155    158 293.5 -10.3  34100  288.57 0861.73
2015 04 09 14 39 22 .95    -126    109      4    168    169 310.9   1.6  34108  288.69 0861.73
2015 04 09 14 39 23 .20    -120    106     10    161    162 311.6   3.8  34110  288.72 0861.73
2015 04 09 14 39 23 .45    -113     52    -15    125    126 294.8  -7.2  34112  288.77 0861.73
2015 04 09 14 39 23 .70     -51     61     32     80     86 320.4  22.5  34142  289.28 0861.73
2015 04 09 14 39 23 .96     -55      2      2     56     57 272.6   2.9  34150  289.40 0861.73
2015 04 09 14 39 24 .20     -38     53     13     66     68 323.9  11.1  34162  289.60 0861.73
2015 04 09 14 39 24 .45      -2     48      9     49     50 357.3  11.0  34146  289.33 0861.73
2015 04 09 14 39 24 .71     -23     70     -9     74     75 341.7  -7.2  34150  289.41 0861.74
2015 04 09 14 39 24 .96     -38     39      1     55     56 315.9   1.8  34158  289.53 0861.74
2015 04 09 14 39 25 .21      -7     45      3     46     47 350.2   3.8  34168  289.70 0861.74
2015 04 09 14 39 25 .46     -41     41     -2     58     59 315.0  -2.2  34166  289.69 0861.74
2015 04 09 14 39 25 .71     -18     56     20     59     63 342.2  19.4  34172  289.79 0861.74
2015 04 09 14 39 25 .96     -66     65     50     93    105 314.6  30.8  34180  289.92 0861.74
2015 04 09 14 39 26 .21    -123     36    -30    129    133 286.4 -13.4  34172  289.79 0861.74
2015 04 09 14 39 26 .46     -81     -1     -3     82     83 269.2  -2.2  34186  290.02 0861.74
2015 04 09 14 39 26 .71    -149    -16    -24    150    153 263.8  -9.3  34138  289.21 0861.74
2015 04 09 14 39 26 .96     -17      9     20     20     28 297.1  50.1  34160  289.58 0861.74
2015 04 09 14 39 27 .21      23      4     55     24     60  80.3  75.0  34176  289.85 0861.74
2015 04 09 14 39 27 .46     -29     33      5     45     46 318.6   6.9  34192  290.13 0861.73
2015 04 09 14 39 27 .71     -33     41     13     53     55 321.3  14.3  34216  290.52 0861.73
2015 04 09 14 39 27 .96     -35     36    -12     51     53 315.8 -13.4  34226  290.70 0861.73
2015 04 09 14 39 28 .21     -15     16     11     23     25 316.8  27.2  34240  290.92 0861.73
2015 04 09 14 39 28 .46      19     -7     24     21     31 111.7  54.3  34226  290.70 0861.73
2015 04 09 14 39 28 .72       7     17     21     19     28  21.8  50.1  34224  290.65 0861.73
2015 04 09 14 39 28 .97      23     -7      8     25     27 108.4  19.2  34254  291.16 0861.73
2015 04 09 14 39 29 .22      -7     21      0     23     24 341.7  -2.2  34204  290.33 0861.74
2015 04 09 14 39 29 .47      -1     31     15     32     35 357.3  27.2  34202  290.30 0861.74
2015 04 09 14 39 29 .72     -70    104    103    126    162 326.2  43.5  34274  291.52 0861.74
2015 04 09 14 39 29 .98     -52     88     79    103    129 329.3  41.7  34266  291.37 0861.74
2015 04 09 14 39 30 .22     -49    135     43    144    151 339.9  16.8  34226  290.70 0861.74
2015 04 09 14 39 30 .48     -51    109      0    121    122 335.1   0.2  34184  289.97 0861.74
2015 04 09 14 39 30 .73     -77    132    -19    154    156 329.7  -7.3  34148  289.38 0861.74
2015 04 09 14 39 30 .98    -130     77    -29    152    155 300.6 -10.9  34228  290.74 0861.74
2015 04 09 14 39 31 .23     -65     41     30     77     82 302.4  22.0  34230  290.75 0861.74
2015 04 09 14 39 31 .48     -45     63     70     78    104 323.9  46.9  34218  290.55 0861.74
2015 04 09 14 39 31 .73     -71     48     73     87    113 304.2  44.3  34190  290.08 0861.74
2015 04 09 14 39 31 .98     -63     53     52     83     97 310.4  35.5  34192  290.11 0861.74
2015 04 09 14 39 32 .23     -76      9    -39     77     86 277.0 -33.7  34200  290.25 0861.74
2015 04 09 14 39 32 .48     -20     61     -2     65     66 341.5  -2.2  34202  290.28 0861.74
2015 04 09 14 39 32 .74     -91     35    -33     98    104 291.3 -19.1  34202  290.30 0861.73
2015 04 09 14 39 32 .98     -94     78     -4    123    124 309.5  -2.2  34216  290.52 0861.73
2015 04 09 14 39 33 .24     -50     53      3     74     75 316.8   2.8  34232  290.79 0861.73
2015 04 09 14 39 33 .49     -39     68     20     79     82 330.1  14.7  34252  291.13 0861.73
2015 04 09 14 39 33 .74     -16     38    -24     42     48 336.4 -37.9  34258  291.25 0861.73
2015 04 09 14 39 33 .99     -43     22     24     49     54 297.1  27.2  34244  290.99 0861.73
2015 04 09 14 39 34 .24     -90     35    -19     97     99 291.7 -11.3  34204  290.33 0861.73
2015 04 09 14 39 34 .49     -58    133     47    146    154 336.3  18.1  34192  290.13 0861.73
2015 04 09 14 39 34 .74    -168    147    -15    224    225 311.1  -3.9  34160  289.57 0861.74
2015 04 09 14 39 34 .99    -156    122    -11    199    200 308.0  -3.3  34128  289.04 0861.74
2015 04 09 14 39 35 .24    -137    135    -21    193    195 314.4  -6.2  34130  289.06 0861.74
2015 04 09 14 39 35 .49    -170    159    -42    234    238 313.1 -10.4  34144  289.29 0861.74
2015 04 09 14 39 35 .74    -129    118    -41    175    180 312.4 -13.4  34104  288.64 0861.74
2015 04 09 14 39 35 .99    -141    109     -9    179    180 307.8  -3.1  34102  288.58 0861.74
2015 04 09 14 39 36 .24    -164    134      0    212    213 309.3   0.2  34104  288.62 0861.74
2015 04 09 14 39 36 .49    -172    125    -39    213    217 306.0 -10.5  34102  288.60 0861.74
2015 04 09 14 39 36 .74    -172    133    -37    218    222 307.8  -9.8  34052  287.76 0861.74
2015 04 09 14 39 37 .00    -160    151    -39    221    225 313.3 -10.1  34052  287.76 0861.74
2015 04 09 14 39 37 .25    -152    120    -46    194    200 308.4 -13.4  34052  287.74 0861.74
2015 04 09 14 39 37 .51    -155    108    -47    190    196 304.9 -13.9  34058  287.86 0861.74
2015 04 09 14 39 37 .76    -141    109     -8    179    180 307.8  -2.8  34086  288.33 0861.74
2015 04 09 14 39 38 .01    -150     98    -26    180    182 303.3  -8.2  34094  288.45 0861.74
2015 04 09 14 39 38 .26    -165    105    -15    196    197 302.4  -4.4  34096  288.48 0861.74
2015 04 09 14 39 38 .51    -121    100    -11    158    159 309.5  -4.1  34112  288.77 0861.74
2015 04 09 14 39 38 .76     -90     71     15    115    116 308.2   7.5  34132  289.11 0861.74
2015 04 09 14 39 39 .00    -188     89    -18    209    210 295.3  -5.2  34110  288.72 0861.74
2015 04 09 14 39 39 .26    -161     84    -35    182    186 297.5 -10.9  34086  288.31 0861.73
2015 04 09 14 39 39 .51    -124     54    -22    136    138 293.5  -9.4  34132  289.11 0861.73
2015 04 09 14 39 39 .76    -130     66    -29    147    150 297.1 -11.5  34160  289.58 0861.73
2015 04 09 14 39 40 .01    -124      4    -10    125    126 272.1  -4.6  34154  289.46 0861.73
2015 04 09 14 39 40 .26     -43     36      6     57     58 309.6   6.9  34162  289.60 0861.73
2015 04 09 14 39 40 .51     -75     48     74     90    116 302.9  43.7  34196  290.18 0861.73
2015 04 09 14 39 40 .76     -47     56     46     74     87 320.3  35.5  34184  289.97 0861.73
2015 04 09 14 39 41 .01     -59     77     13     98     99 322.6   8.0  34162  289.62 0861.73
2015 04 09 14 39 41 .26     -41    114      7    122    123 340.0   3.3  34132  289.09 0861.73
2015 04 09 14 39 41 .52     -48     98     -8    110    111 334.1  -4.6  34116  288.82 0861.73
2015 04 09 14 39 41 .76     -52     91     13    105    106 330.1   7.5  34126  288.99 0861.73
2015 04 09 14 39 42 .02     -36     82     15     90     92 335.9   9.5  34126  288.99 0861.73
2015 04 09 14 39 42 .26     -43     68     -5     81     82 327.4  -4.1  34088  288.36 0861.73
2015 04 09 14 39 42 .52     -59     58     -2     83     84 314.4  -1.8  34086  288.31 0861.73
2015 04 09 14 39 42 .77     -41     56     24     70     75 323.9  18.9  34102  288.60 0861.73
2015 04 09 14 39 43 .02     -85     68     -2    109    110 308.6  -1.2  34106  288.67 0861.73
2015 04 09 14 39 43 .27    -107     34    -19    113    115 287.7  -9.8  34090  288.40 0861.73
2015 04 09 14 39 43 .52     -96     29    -12    101    102 286.8  -7.3  34088  288.35 0861.73
2015 04 09 14 39 43 .78     -54     20     40     58     70 290.8  38.6  34088  288.36 0861.73
2015 04 09 14 39 44 .03     -52     66     83     85    118 321.7  49.9  34102  288.60 0861.73
2015 04 09 14 39 44 .28     -55     62     88     84    121 318.6  51.2  34122  288.92 0861.73
2015 04 09 14 39 44 .53     -47     22     65     52     83 295.2  56.9  34144  289.31 0861.73
2015 04 09 14 39 44 .78     -52     36     -1     64     65 305.1  -1.3  34134  289.13 0861.73
2015 04 09 14 39 45 .03     -37     -5      1     38     39 262.1   2.9  34138  289.19 0861.73
2015 04 09 14 39 45 .28     -90     16    -22     92     95 280.6 -13.4  34120  288.91 0861.73
2015 04 09 14 39 45 .54     -72     52    -22     89     92 306.0 -13.9  34122  288.94 0861.73
2015 04 09 14 39 45 .78     -35     34     30     50     58 314.0  35.5  34154  289.46 0861.73
2015 04 09 14 39 46 .03     -14     44     16     47     50 341.7  19.4  34154  289.46 0861.73
2015 04 09 14 39 46 .29     -27     41     39     50     63 326.6  42.7  34180  289.91 0861.73
2015 04 09 14 39 46 .56     -38     47      7     61     62 321.3   6.9  34202  290.30 0861.74
2015 04 09 14 39 46 .78     -15     44      9     47     48 340.8  11.1  34194  290.14 0861.74
2015 04 09 14 39 47 .04     -63     54     93     84    125 310.9  53.3  34192  290.11 0861.74
2015 04 09 14 39 47 .29     -35     62     52     72     88 330.1  39.7  34192  290.11 0861.74
2015 04 09 14 39 47 .54     -40     81     17     91     93 333.3  11.0  34168  289.70 0861.74
2015 04 09 14 39 47 .79     -44     48     25     66     70 317.7  22.0  34170  289.74 0861.74
2015 04 09 14 39 48 .04     -33     60     27     69     74 331.0  22.0  34164  289.65 0861.74
2015 04 09 14 39 48 .29     -61     66     62     91    110 317.2  37.6  34180  289.91 0861.73
2015 04 09 14 39 48 .54     -48     48     41     69     80 315.0  33.5  34174  289.82 0861.73
2015 04 09 14 39 48 .79     -22     67     50     71     86 341.7  38.6  34196  290.19 0861.73
2015 04 09 14 39 49 .04      -9     27     19     29     34 341.7  35.6  34180  289.91 0861.73
2015 04 09 14 39 49 .29      -8     85    -22     86     89 354.2 -14.5  34206  290.35 0861.73
2015 04 09 14 39 49 .54       0     45    -16     46     49 359.1 -19.7  34216  290.53 0861.73
2015 04 09 14 39 49 .79     -65     65    -50     93    105 315.0 -35.2  34186  290.01 0861.73
2015 04 09 14 39 50 .04    -123    119    -26    172    175 314.2  -8.8  34154  289.46 0861.73
2015 04 09 14 39 50 .29    -226    201     -6    303    304 311.6  -1.3  34116  288.83 0861.73
2015 04 09 14 39 50 .55    -179    133     14    224    225 306.6   3.8  34136  289.16 0861.73
2015 04 09 14 39 50 .81    -153    112    -24    190    192 306.2  -7.2  34146  289.35 0861.73
2015 04 09 14 39 51 .06     -86    160      3    182    183 331.7   1.2  34140  289.23 0861.73
2015 04 09 14 39 51 .31      -8    127     46    128    136 356.0  20.4  34146  289.35 0861.73
2015 04 09 14 39 51 .56    -110     51    -31    122    127 294.8 -14.5  34154  289.48 0861.73
2015 04 09 14 39 51 .81    -190    131    -54    232    239 304.6 -13.2  34140  289.24 0861.73
2015 04 09 14 39 52 .06    -271    136    -38    304    307 296.6  -7.2  34114  288.78 0861.73
2015 04 09 14 39 52 .31    -238    173    -37    295    298 306.0  -7.3  34104  288.63 0861.73
2015 04 09 14 39 52 .56    -168    168    -30    238    240 315.0  -7.2  34124  288.95 0861.73
2015 04 09 14 39 52 .81    -228    176    -16    289    290 307.7  -3.3  34128  289.03 0861.73
2015 04 09 14 39 53 .06    -225    212    -28    310    312 313.2  -5.2  34136  289.17 0861.73
2015 04 09 14 39 53 .31    -174    159     -9    237    238 312.4  -2.2  34142  289.27 0861.73
2015 04 09 14 39 53 .56     -90    198     35    218    221 335.5   9.3  34148  289.36 0861.73
2015 04 09 14 39 53 .81     -65    196     10    207    208 341.5   2.8  34144  289.31 0861.72
2015 04 09 14 39 54 .07     -32    205     23    208    210 350.9   6.5  34150  289.40 0861.72
2015 04 09 14 39 54 .31     -91    158    -50    183    190 330.1 -15.5  34140  289.23 0861.72
2015 04 09 14 39 54 .56    -119    118    -31    168    171 314.8 -10.5  34140  289.24 0861.72
2015 04 09 14 39 54 .81    -104     85    -28    135    138 309.5 -11.9  34136  289.18 0861.72
2015 04 09 14 39 55 .07     -19    169    -11    171    172 353.3  -3.9  34142  289.26 0861.72
2015 04 09 14 39 55 .31     -37    139     -2    145    146 344.9  -1.2  34138  289.19 0861.72
2015 04 09 14 39 55 .57    -172    103    -48    201    207 301.1 -13.4  34116  288.82 0861.73
2015 04 09 14 39 55 .82    -197    109    -51    226    232 299.1 -12.9  34108  288.70 0861.73
2015 04 09 14 39 56 .07    -167     88    -74    189    202 297.8 -26.7  34126  289.01 0861.73
2015 04 09 14 39 56 .32    -169    111    -53    203    210 303.5 -14.7  34118  288.86 0861.73
2015 04 09 14 39 56 .57    -160    102    -49    190    197 302.5 -14.5  34122  288.94 0861.73
2015 04 09 14 39 56 .82     -76    139     26    159    162 331.1   9.5  34144  289.31 0861.73
2015 04 09 14 39 57 .07     -67    124     -7    142    143 331.5  -3.2  34140  289.23 0861.73
2015 04 09 14 39 57 .32     -76    103     15    129    130 323.5   6.9  34162  289.60 0861.73
2015 04 09 14 39 57 .57    -103     95      6    141    142 312.7   2.8  34154  289.46 0861.73
2015 04 09 14 39 57 .83    -140    135    -12    195    196 314.0  -3.7  34180  289.91 0861.73
2015 04 09 14 39 58 .08    -142    128    -24    192    194 312.2  -7.3  34174  289.80 0861.73
2015 04 09 14 39 58 .33    -163     99    -20    191    193 301.3  -6.2  34162  289.60 0861.73
2015 04 09 14 39 58 .58    -135    105    -22    172    174 308.0  -7.5  34158  289.55 0861.73
2015 04 09 14 39 58 .83    -188     65    -31    199    202 289.1  -9.0  34144  289.31 0861.73
2015 04 09 14 39 59 .09    -162     61    -15    174    175 290.8  -5.2  34140  289.23 0861.73
2015 04 09 14 39 59 .34     -84     84    -10    119    120 315.0  -5.2  34154  289.48 0861.73
2015 04 09 14 39 59 .59    -153    128    -47    200    206 309.8 -13.3  34152  289.45 0861.73
2015 04 09 14 39 59 .84    -216    119    -50    247    252 298.9 -11.5  34136  289.15 0861.73
2015 04 09 14 40 00 .09    -217    128    -18    253    254 300.6  -4.1  34142  289.27 0861.73
2015 04 09 14 40 00 .34    -211    121    -64    244    253 299.8 -14.7  34144  289.29 0861.73
2015 04 09 14 40 00 .59    -190    121    -76    226    238 302.5 -23.6  34146  289.32 0861.73
2015 04 09 14 40 00 .84    -157     77    -56    176    185 296.2 -17.9  34148  289.38 0861.73
2015 04 09 14 40 01 .09    -160    150    -57    220    228 313.1 -14.7  34150  289.41 0861.73
2015 04 09 14 40 01 .34    -138    126    -52    187    195 312.4 -15.5  34156  289.50 0861.73
2015 04 09 14 40 01 .59    -133    133     20    189    191 315.0   6.1  34170  289.74 0861.73
2015 04 09 14 40 01 .84    -206    120    -30    239    241 300.2  -7.3  34166  289.68 0861.73
2015 04 09 14 40 02 .09    -161    118     -7    200    201 306.4  -2.2  34170  289.74 0861.73
2015 04 09 14 40 02 .34    -157     91    -52    182    190 300.0 -16.0  34182  289.96 0861.73
2015 04 09 14 40 02 .59    -178     80    -32    196    199 294.2  -9.3  34200  290.25 0861.73
2015 04 09 14 40 02 .84    -163     95    -45    189    195 300.2 -13.4  34204  290.31 0861.73
2015 04 09 14 40 03 .10    -149     30    -37    153    158 281.5 -13.7  34214  290.50 0861.73
2015 04 09 14 40 03 .34    -135     60    -19    148    150 294.0  -7.3  34222  290.64 0861.73
2015 04 09 14 40 03 .60    -113     68      0    132    133 301.1  -0.3  34246  291.03 0861.73
2015 04 09 14 40 03 .85    -193    -22    -39    195    199 263.4 -11.3  34240  290.94 0861.73
2015 04 09 14 40 04 .09    -196     -1    -47    197    203 269.6 -13.4  34220  290.58 0861.73
2015 04 09 14 40 04 .35    -173     61    -55    184    193 289.7 -16.8  34226  290.69 0861.73
2015 04 09 14 40 04 .60    -155     75    -23    173    175 295.8  -7.7  34212  290.47 0861.73
2015 04 09 14 40 04 .86    -126      5      1    127    128 272.5   0.8  34224  290.65 0861.73
2015 04 09 14 40 05 .11    -182     24    -23    184    186 277.7  -7.2  34230  290.75 0861.73
2015 04 09 14 40 05 .36    -192     27    -48    194    200 278.0 -13.9  34214  290.50 0861.73
2015 04 09 14 40 05 .61     -83    -22      1     87     88 254.9   1.2  34244  291.01 0861.73
2015 04 09 14 40 05 .86    -103      9    -38    104    110 275.2 -25.4  34228  290.74 0861.73
2015 04 09 14 40 06 .11     -66     82     -1    106    107 321.3  -0.7  34236  290.87 0861.73
2015 04 09 14 40 06 .36     -62     20    -10     66     67 288.2  -9.3  34242  290.96 0861.73
2015 04 09 14 40 06 .61    -167    -29    -21    170    172 260.1  -7.3  34204  290.33 0861.73
2015 04 09 14 40 06 .86    -100    -37     17    107    109 249.6   9.0  34222  290.64 0861.73
2015 04 09 14 40 07 .11     -68    -32     -1     76     77 244.8  -1.2  34234  290.82 0861.73
2015 04 09 14 40 07 .36     -47     -5    -19     48     51 263.0 -26.4  34236  290.87 0861.73
2015 04 09 14 40 07 .62    -206     79    -54    221    228 291.1 -13.9  34260  291.26 0861.73
2015 04 09 14 40 07 .86    -162     70     29    177    180 293.5   9.5  34256  291.21 0861.73
2015 04 09 14 40 08 .12    -172     44    -36    178    182 284.6 -11.6  34218  290.55 0861.73
2015 04 09 14 40 08 .36    -201     45    -24    207    209 282.6  -6.7  34182  289.96 0861.73
2015 04 09 14 40 08 .62    -231    147    -70    274    283 302.5 -14.5  34162  289.61 0861.73
2015 04 09 14 40 08 .87    -307    143    -57    339    344 295.0  -9.6  34154  289.47 0861.73
2015 04 09 14 40 09 .12    -292    120    -34    316    318 292.4  -6.3  34156  289.51 0861.74
2015 04 09 14 40 09 .37    -282    128    -48    310    314 294.4  -8.8  34148  289.37 0861.74
2015 04 09 14 40 09 .62    -145     92    -29    172    175 302.4  -9.6  34164  289.65 0861.74
2015 04 09 14 40 09 .87    -167     92    -24    191    193 298.9  -7.3  34184  289.97 0861.74
2015 04 09 14 40 10 .12    -173     72     -7    188    189 292.8  -2.2  34172  289.77 0861.74
2015 04 09 14 40 10 .37    -228     40    -21    232    233 280.1  -5.2  34188  290.05 0861.74
2015 04 09 14 40 10 .62    -260     57    -58    267    274 282.4 -12.4  34172  289.78 0861.74
2015 04 09 14 40 10 .87    -277     45    -25    281    283 279.2  -5.1  34172  289.78 0861.74
2015 04 09 14 40 11 .12    -353     90    -27    365    366 284.3  -4.4  34182  289.93 0861.73
2015 04 09 14 40 11 .37    -332     96    -58    346    351 286.2  -9.6  34184  289.98 0861.73
2015 04 09 14 40 11 .63    -266     43    -34    270    273 279.2  -7.3  34194  290.14 0861.73
2015 04 09 14 40 11 .89    -334     77    -32    343    345 283.0  -5.5  34218  290.57 0861.73
2015 04 09 14 40 12 .13    -383     45    -59    386    391 276.7  -8.8  34232  290.79 0861.73
2015 04 09 14 40 12 .38    -336     46   -110    340    358 277.9 -17.9  34208  290.38 0861.73
2015 04 09 14 40 12 .64    -327      7    -33    328    330 271.4  -5.9  34238  290.89 0861.73
2015 04 09 14 40 12 .88    -304      7    -78    305    315 271.5 -14.4  34190  290.09 0861.74
2015 04 09 14 40 13 .14    -170     12    -23    171    173 274.1  -7.7  34212  290.47 0861.74
2015 04 09 14 40 13 .39    -194      8    -51    195    202 272.4 -14.7  34184  289.97 0861.74
2015 04 09 14 40 13 .64    -173     24    -11    175    176 277.9  -3.9  34208  290.38 0861.74
2015 04 09 14 40 13 .89    -164      3    -46    165    172 271.3 -15.8  34214  290.48 0861.74
2015 04 09 14 40 14 .14     -54     29     28     62     68 298.9  26.2  34216  290.52 0861.74
2015 04 09 14 40 14 .39       2     46    -16     47     50   2.7 -19.7  34222  290.64 0861.74
2015 04 09 14 40 14 .64      23     30     57     39     69  37.8  62.6  34236  290.87 0861.74
2015 04 09 14 40 14 .89    -178    118    -43    214    219 303.7 -11.3  34194  290.16 0861.74
2015 04 09 14 40 15 .14    -189    104    -34    216    219 298.8  -9.0  34198  290.23 0861.74
2015 04 09 14 40 15 .39    -142     66      2    157    158 295.2   1.0  34204  290.31 0861.74
2015 04 09 14 40 15 .64    -163     57     -8    173    174 289.5  -2.8  34184  289.97 0861.74
2015 04 09 14 40 15 .89    -237     13    -43    238    242 273.3 -10.3  34156  289.51 0861.74
2015 04 09 14 40 16 .15    -193     44    -13    199    200 283.0  -3.7  34164  289.63 0861.74
2015 04 09 14 40 16 .40    -162    124    -35    205    209 307.5  -9.8  34180  289.92 0861.74
2015 04 09 14 40 16 .64    -201    100    -14    225    226 296.6  -3.7  34190  290.09 0861.74
2015 04 09 14 40 16 .90    -207     62    -49    217    223 286.6 -12.9  34180  289.91 0861.74
2015 04 09 14 40 17 .15    -296     77    -29    306    308 284.6  -5.6  34166  289.68 0861.74
2015 04 09 14 40 17 .40    -331     92    -26    344    346 285.6  -4.5  34218  290.57 0861.74
2015 04 09 14 40 17 .65    -337     88    -49    349    353 284.6  -8.0  34202  290.27 0861.74
2015 04 09 14 40 17 .90    -333     91    -61    346    352 285.4 -10.1  34192  290.13 0861.74
2015 04 09 14 40 18 .15    -285     76    -40    296    299 285.1  -7.7  34206  290.36 0861.74
2015 04 09 14 40 18 .40    -261     72    -44    271    275 285.5  -9.3  34236  290.85 0861.74
2015 04 09 14 40 18 .66    -198     59    -40    207    212 286.8 -11.1  34214  290.50 0861.74
2015 04 09 14 40 18 .91    -222     49    -25    228    230 282.6  -6.5  34204  290.33 0861.74
2015 04 09 14 40 19 .16    -220     87    -48    237    242 291.7 -11.5  34182  289.95 0861.73
2015 04 09 14 40 19 .41    -184     13    -16    185    186 274.1  -5.2  34176  289.84 0861.73
2015 04 09 14 40 19 .66    -326     91    -71    339    347 285.7 -11.9  34158  289.54 0861.73
2015 04 09 14 40 19 .91    -304     81    -64    315    322 285.0 -11.6  34138  289.19 0861.73
2015 04 09 14 40 20 .17    -220     23    -18    222    223 276.1  -4.9  34176  289.85 0861.73
2015 04 09 14 40 20 .42    -328     40    -51    331    336 277.0  -8.9  34234  290.84 0861.73
2015 04 09 14 40 20 .66    -320     41    -55    323    328 277.5  -9.7  34170  289.75 0861.73
2015 04 09 14 40 20 .92    -279     32    -25    281    283 276.6  -5.2  34164  289.64 0861.74
2015 04 09 14 40 21 .16      40     85     65     95    115  25.5  37.6  34178  289.89 0861.74
2015 04 09 14 40 21 .42    -208    167    -14    267    268 308.7  -3.2  34228  290.73 0861.74
2015 04 09 14 40 21 .66    -221    236     -1    324    325 316.8  -0.3  34134  289.14 0861.74
2015 04 09 14 40 21 .92    -312    229    -44    388    391 306.3  -6.6  34086  288.32 0861.74
2015 04 09 14 40 22 .17    -149    180     41    234    238 320.4  10.0  34206  290.36 0861.74
2015 04 09 14 40 22 .42    -141    214    -37    257    260 326.6  -8.3  34262  291.29 0861.74
2015 04 09 14 40 22 .67     -90    165     64    189    200 331.3  18.9  34204  290.31 0861.74
2015 04 09 14 40 22 .92    -197    170    -67    261    270 310.9 -14.5  34198  290.20 0861.73
2015 04 09 14 40 23 .17    -153    185    -13    241    242 320.3  -3.1  34172  289.76 0861.73
2015 04 09 14 40 23 .42    -139    131     10    192    193 313.2   3.1  34092  288.43 0861.73
2015 04 09 14 40 23 .67     -89    132     82    160    179 325.8  29.3  34132  289.11 0861.73
2015 04 09 14 40 23 .92    -151     70    -52    167    174 294.8 -22.8  34182  289.96 0861.73
2015 04 09 14 40 24 .17    -131     17    -11    133    134 277.5  -5.1  34176  289.85 0861.73
2015 04 09 14 40 24 .42    -166     15    -21    167    169 275.5  -7.2  34214  290.48 0861.73
2015 04 09 14 40 24 .67    -194     38    -19    198    199 281.2  -5.6  34216  290.52 0861.73
2015 04 09 14 40 24 .93    -318    143    -51    349    353 294.3  -8.4  34164  289.64 0861.73
2015 04 09 14 40 25 .18    -264     70    -21    274    275 285.0  -4.6  34192  290.10 0861.73
2015 04 09 14 40 25 .42    -166     36    -13    170    171 282.4  -4.6  34192  290.11 0861.73
2015 04 09 14 40 25 .69     -63      4     25     64     68 274.4  21.0  34204  290.33 0861.73
2015 04 09 14 40 25 .94    -267     85    -56    281    287 287.7 -11.3  34180  289.92 0861.73
2015 04 09 14 40 26 .19    -268    104    -31    288    290 291.3  -6.2  34154  289.47 0861.73
2015 04 09 14 40 26 .44    -230     75    -26    243    245 288.2  -6.2  34178  289.86 0861.73
2015 04 09 14 40 26 .69    -142     46    -56    150    160 288.2 -25.7  34222  290.62 0861.73
2015 04 09 14 40 26 .94     -84     85    -41    120    126 315.3 -23.3  34150  289.41 0861.73
2015 04 09 14 40 27 .19    -238    100    -19    259    260 292.7  -4.4  34140  289.22 0861.73
2015 04 09 14 40 27 .44    -235     98    -51    255    261 292.7 -11.3  34130  289.05 0861.73
2015 04 09 14 40 27 .69    -217    111    -64    244    253 297.1 -14.7  34128  289.02 0861.73
2015 04 09 14 40 27 .94    -287    172    -32    335    337 300.9  -5.5  34084  288.27 0861.73
2015 04 09 14 40 28 .19    -270    196    -50    334    338 306.0  -8.6  34094  288.45 0861.73
2015 04 09 14 40 28 .44    -251    173    -79    305    316 304.6 -14.5  34022  287.24 0861.73
2015 04 09 14 40 28 .69    -233    147    -43    276    280 302.2  -9.0  34030  287.38 0861.73
2015 04 09 14 40 28 .94    -224    149    -38    270    273 303.7  -8.0  34028  287.33 0861.73
2015 04 09 14 40 29 .19    -224    130    -56    260    267 300.2 -12.2  34016  287.14 0861.73
2015 04 09 14 40 29 .44    -224    128    -71    259    269 299.8 -15.5  34016  287.14 0861.73
2015 04 09 14 40 29 .69    -230    134    -54    267    273 300.2 -11.6  34020  287.19 0861.73
2015 04 09 14 40 29 .94    -234    125    -62    266    274 298.2 -13.3  34020  287.19 0861.73
2015 04 09 14 40 30 .19    -239    104    -37    261    264 293.5  -8.2  34068  288.00 0861.73
2015 04 09 14 40 30 .44    -215    105    -43    240    244 296.2 -10.3  34020  287.19 0861.73
2015 04 09 14 40 30 .69    -203    100    -54    227    234 296.4 -13.4  34018  287.18 0861.73
2015 04 09 14 40 30 .94    -208     97    -62    230    239 295.2 -15.2  34018  287.16 0861.73
2015 04 09 14 40 31 .19    -208     94    -59    229    237 294.4 -14.5  34020  287.19 0861.73
2015 04 09 14 40 31 .45    -212    100    -64    235    244 295.4 -15.4  34020  287.19 0861.73
2015 04 09 14 40 31 .69    -205     82    -65    221    231 291.8 -16.4  34024  287.28 0861.73
2015 04 09 14 40 31 .96    -185     76    -56    201    208 292.4 -20.2  34016  287.15 0861.74
2015 04 09 14 40 32 .20    -180     74    -68    195    207 292.4 -19.4  34014  287.11 0861.74
2015 04 09 14 40 32 .44    -186     67    -56    198    205 290.0 -20.4  34020  287.20 0861.74
2015 04 09 14 40 32 .71    -180     68    -65    193    203 290.8 -23.3  34020  287.20 0861.74
2015 04 09 14 40 32 .96    -186     73    -65    200    210 291.5 -23.6  34016  287.15 0861.74
2015 04 09 14 40 33 .21    -185     69    -63    198    207 290.6 -22.8  34014  287.11 0861.74
2015 04 09 14 40 33 .46    -181     67    -58    194    202 290.4 -21.7  34018  287.16 0861.74
2015 04 09 14 40 33 .72    -174     68    -68    188    199 291.5 -25.1  34038  287.50 0861.75
2015 04 09 14 40 33 .96    -161     73    -63    177    187 294.4 -24.6  34018  287.16 0861.75
2015 04 09 14 40 34 .22    -152     73    -61    169    179 295.8 -24.8  34022  287.25 0861.75
2015 04 09 14 40 34 .46    -148     59    -55    160    169 291.7 -23.8  34040  287.54 0861.75
2015 04 09 14 40 34 .71    -123     59    -45    137    144 295.8 -23.8  34044  287.60 0861.75
2015 04 09 14 40 34 .97    -110     60    -38    126    132 298.9 -17.0  34048  287.67 0861.75
2015 04 09 14 40 35 .22    -149     72    -63    166    177 296.0 -26.1  34050  287.70 0861.75
2015 04 09 14 40 35 .47     -80     88    -57    120    132 317.7 -31.5  34048  287.67 0861.75
2015 04 09 14 40 35 .72     -60     89    -17    108    110 325.7  -9.3  34048  287.67 0861.75
2015 04 09 14 40 35 .97     -74     89     12    116    117 320.3   5.9  34070  288.04 0861.75
2015 04 09 14 40 36 .22    -126     91     -3    156    157 306.0  -1.3  34030  287.38 0861.75
2015 04 09 14 40 36 .47    -132    109     -6    172    173 309.6  -2.2  34030  287.38 0861.75
2015 04 09 14 40 36 .72    -142     84    -29    166    169 300.7 -10.1  34038  287.52 0861.75
2015 04 09 14 40 36 .97    -169     99    -45    196    202 300.4 -12.9  34048  287.69 0861.75
2015 04 09 14 40 37 .22    -172     62    -32    184    187 290.0 -10.1  34060  287.87 0861.75
2015 04 09 14 40 37 .47    -191     78    -43    207    212 292.4 -11.9  34070  288.06 0861.75
2015 04 09 14 40 37 .72    -215     57    -24    223    225 285.1  -6.2  34050  287.70 0861.75
2015 04 09 14 40 37 .97    -183      7    -14    184    185 272.4  -4.4  34080  288.21 0861.75
2015 04 09 14 40 38 .22    -187     25    -33    189    192 277.7 -10.1  34068  288.03 0861.74
2015 04 09 14 40 38 .47    -184     65    -37    196    200 289.5 -10.9  34046  287.64 0861.74
2015 04 09 14 40 38 .72    -161     67    -35    175    179 292.6 -11.3  34048  287.69 0861.74
2015 04 09 14 40 38 .98    -161     50    -16    169    170 287.3  -5.6  34052  287.76 0861.74
2015 04 09 14 40 39 .23     -67     29     20     74     77 293.5  15.3  34072  288.08 0861.74
2015 04 09 14 40 39 .49    -142     20    -14    144    145 278.0  -5.6  34062  287.91 0861.74
2015 04 09 14 40 39 .73    -188     36    -42    192    197 280.8 -12.6  34034  287.43 0861.74
2015 04 09 14 40 39 .99    -178     35    -40    182    187 281.2 -12.4  34028  287.35 0861.74
2015 04 09 14 40 40 .24    -188     43    -35    193    197 283.0 -10.3  34042  287.57 0861.74
2015 04 09 14 40 40 .49    -171     51    -36    179    183 286.6 -11.5  34050  287.70 0861.74
2015 04 09 14 40 40 .74    -170     55    -27    179    182 288.2  -8.6  34052  287.76 0861.74
2015 04 09 14 40 40 .99    -160     31    -22    163    165 281.0  -8.0  34050  287.72 0861.74
2015 04 09 14 40 41 .24    -161     58    -34    172    176 290.0 -11.3  34052  287.74 0861.74
2015 04 09 14 40 41 .49    -182     71    -35    196    200 291.5 -10.3  34044  287.62 0861.74
2015 04 09 14 40 41 .74    -202     63    -33    212    215 287.5  -9.0  34052  287.76 0861.74
2015 04 09 14 40 41 .99    -226     81    -40    241    245 289.7  -9.6  34098  288.51 0861.74
2015 04 09 14 40 42 .24    -252    105    -71    274    284 292.7 -14.7  34076  288.15 0861.74
2015 04 09 14 40 42 .49    -272     97    -90    289    303 289.7 -17.3  34052  287.75 0861.74
2015 04 09 14 40 42 .74    -225     78    -71    239    250 289.1 -16.6  34056  287.80 0861.74
2015 04 09 14 40 42 .99    -265     89    -46    280    284 288.6  -9.3  34090  288.39 0861.74
2015 04 09 14 40 43 .25    -240     82    -60    254    262 289.1 -13.4  34114  288.80 0861.74
2015 04 09 14 40 43 .50    -258     85    -49    272    277 288.4 -10.4  34098  288.51 0861.74
2015 04 09 14 40 43 .74    -263     36    -43    266    270 277.9  -9.3  34090  288.39 0861.74
2015 04 09 14 40 44 .00    -230     52    -68    236    245 282.8 -20.8  34074  288.10 0861.74
2015 04 09 14 40 44 .25    -216     45    -74    221    234 281.9 -18.7  34082  288.25 0861.74
2015 04 09 14 40 44 .50    -207     48    -70    213    224 283.3 -23.8  34096  288.48 0861.74
2015 04 09 14 40 44 .75    -229     92    -78    248    261 292.0 -17.5  34122  288.92 0861.74
2015 04 09 14 40 45 .00    -234     92    -83    252    266 291.5 -18.3  34118  288.87 0861.74
2015 04 09 14 40 45 .25    -203    116    -45    234    239 299.8 -10.9  34114  288.78 0861.74
2015 04 09 14 40 45 .50    -192     90    -62    213    223 295.1 -16.4  34118  288.87 0861.74
2015 04 09 14 40 45 .75    -184     82    -39    202    206 294.2 -11.1  34104  288.62 0861.74
2015 04 09 14 40 46 .00    -174     69    -15    188    189 291.7  -4.6  34096  288.48 0861.74
2015 04 09 14 40 46 .25     -88    118    -42    148    154 323.5 -16.0  34120  288.91 0861.74
2015 04 09 14 40 46 .51     -94     86     -8    128    129 312.7  -3.7  34118  288.87 0861.74
2015 04 09 14 40 46 .76    -176    108    -27    207    209 301.5  -7.7  34136  289.16 0861.74
2015 04 09 14 40 47 .02    -170    108    -39    202    206 302.4 -11.1  34132  289.09 0861.74
2015 04 09 14 40 47 .26    -152     93    -32    179    182 301.5 -10.3  34140  289.24 0861.74
2015 04 09 14 40 47 .52    -177    128    -34    219    222 306.0  -8.8  34148  289.36 0861.74
2015 04 09 14 40 47 .77    -170    108    -38    202    206 302.4 -10.9  34140  289.24 0861.74
2015 04 09 14 40 48 .02    -156    156    -15    221    222 315.0  -4.1  34196  290.19 0861.74
2015 04 09 14 40 48 .27    -130    190    -29    231    233 325.7  -7.3  34188  290.04 0861.74
2015 04 09 14 40 48 .52     -68    190     -7    203    204 340.2  -2.2  34170  289.74 0861.74
2015 04 09 14 40 48 .77    -192    162    -19    252    253 310.2  -4.4  34164  289.64 0861.74
2015 04 09 14 40 49 .02    -252     76    -63    264    272 286.8 -13.4  34140  289.24 0861.74
2015 04 09 14 40 49 .27    -231     59    -65    239    248 284.4 -15.4  34148  289.37 0861.74
2015 04 09 14 40 49 .52    -162     27    -33    165    169 279.5 -11.6  34174  289.82 0861.74
2015 04 09 14 40 49 .77    -178    -20    -16    180    181 263.4  -5.4  34160  289.57 0861.74
2015 04 09 14 40 50 .02    -189     36    -43    193    198 280.8 -12.6  34204  290.33 0861.74
2015 04 09 14 40 50 .27    -162    -13    -30    163    166 265.4 -10.5  34166  289.69 0861.74
2015 04 09 14 40 50 .52    -121    -12     -7    122    123 263.9  -3.7  34142  289.28 0861.74
2015 04 09 14 40 50 .77    -141      7    -33    142    146 273.0 -13.3  34104  288.64 0861.74
2015 04 09 14 40 51 .03    -121      0    -33    122    127 270.0 -15.5  34106  288.67 0861.74
2015 04 09 14 40 51 .28     -92    -30    -30     97    102 251.8 -17.6  34140  289.24 0861.74
2015 04 09 14 40 51 .53    -106     -1    -12    107    108 269.2  -6.7  34174  289.80 0861.74
2015 04 09 14 40 51 .77     -84    -33     -8     91     92 248.3  -5.6  34208  290.38 0861.74
2015 04 09 14 40 52 .02     -73    -17     -6     76     77 256.7  -5.2  34178  289.87 0861.74
2015 04 09 14 40 52 .28     -74    -50    -22     90     93 235.8 -13.9  34170  289.75 0861.74
2015 04 09 14 40 52 .53     -83    -21    -24     86     90 255.8 -15.5  34198  290.23 0861.74
2015 04 09 14 40 52 .78     -57    -35     22     67     71 238.5  18.4  34218  290.55 0861.74
2015 04 09 14 40 53 .03     -60    -39     10     72     73 236.7   8.0  34220  290.60 0861.74
2015 04 09 14 40 53 .28     -43    -68     36     81     88 212.6  25.7  34228  290.74 0861.74
2015 04 09 14 40 53 .54     -35    -49     39     61     72 215.2  35.6  34230  290.75 0861.74
2015 04 09 14 40 53 .79     -27    -23      7     36     37 228.7  11.1  34172  289.79 0861.74
2015 04 09 14 40 54 .04     -24    -47     35     53     63 207.2  36.5  34144  289.30 0861.74
2015 04 09 14 40 54 .29     -28     42     25     51     56 326.6  27.3  34196  290.18 0861.74
2015 04 09 14 40 54 .54     -97     46    -28    108    112 295.8 -14.5  34110  288.74 0861.74
2015 04 09 14 40 54 .79    -110     27    -30    114    119 284.2 -15.0  34110  288.72 0861.74
2015 04 09 14 40 55 .04    -113      8    -23    114    117 274.4 -11.5  34106  288.67 0861.74
2015 04 09 14 40 55 .29     -48     45     12     66     68 313.1  11.0  34144  289.30 0861.74
2015 04 09 14 40 55 .54     -18     17     14     26     29 313.1  31.4  34158  289.55 0861.74
2015 04 09 14 40 55 .79     -20     24     14     32     34 320.4  27.1  34162  289.60 0861.74
2015 04 09 14 40 56 .04      -4     12     24     13     27 341.7  68.8  34162  289.60 0861.74
2015 04 09 14 40 56 .29     -22     17    -16     29     33 307.8 -35.8  34146  289.33 0861.74
2015 04 09 14 40 56 .55     -14     48      2     51     52 343.1   2.9  34152  289.45 0861.73
2015 04 09 14 40 56 .79     -12     11     21     17     27 313.3  56.4  34158  289.53 0861.73
2015 04 09 14 40 57 .04     -20    -17      4     27     28 230.5   9.0  34156  289.50 0861.73
2015 04 09 14 40 57 .30     -83    -27    -32     88     93 251.8 -24.4  34138  289.19 0861.73
2015 04 09 14 40 57 .55     -93     -1     -9     94     95 269.2  -5.6  34132  289.09 0861.73
2015 04 09 14 40 57 .80     -63      4    -23     64     69 274.4 -19.6  34118  288.87 0861.73
2015 04 09 14 40 58 .05     -18     17      6     25     26 313.1  15.3  34140  289.24 0861.73
2015 04 09 14 40 58 .30       5     18     14     19     23  18.3  41.7  34162  289.60 0861.73
2015 04 09 14 40 58 .55       0      1     -1      2      2 341.5 -23.6  34186  290.01 0861.73
2015 04 09 14 40 58 .80      -3     39      8     40     41 355.6  12.2  34194  290.14 0861.73
2015 04 09 14 40 59 .05       6     25     35     26     43  13.4  59.4  34222  290.64 0861.73
2015 04 09 14 40 59 .30      -3     49     23     50     55 355.6  27.1  34222  290.62 0861.73
2015 04 09 14 40 59 .55     -30      0    -30     31     43 269.2 -54.4  34216  290.52 0861.73
2015 04 09 14 40 59 .80       0    -20    -16     21     26 177.3 -46.1  34214  290.50 0861.73
2015 04 09 14 41 00 .05     -10    -11      5     16     18 223.4  19.4  34232  290.79 0861.73
2015 04 09 14 41 00 .32     -27      9    -10     29     31 288.6 -19.7  34218  290.57 0861.73
2015 04 09 14 41 00 .56     -76      1    -26     77     81 270.8 -23.6  34208  290.40 0861.73
2015 04 09 14 41 00 .81     -76      2     -3     77     78 271.7  -2.2  34216  290.52 0861.73
2015 04 09 14 41 01 .06     -40      0      5     41     42 269.2   8.0  34224  290.65 0861.73
2015 04 09 14 41 01 .32    -140     17    -12    142    143 277.0  -5.2  34168  289.72 0861.74
2015 04 09 14 41 01 .56    -141     -6    -15    142    143 267.4  -6.2  34140  289.23 0861.74
2015 04 09 14 41 01 .82     -96      1    -26     97    101 270.8 -15.4  34192  290.13 0861.74
2015 04 09 14 41 02 .06     -27     17     18     33     37 302.4  31.4  34196  290.19 0861.74
2015 04 09 14 41 02 .32     -90     -4    -22     91     94 267.0 -13.9  34156  289.50 0861.74
2015 04 09 14 41 02 .57     -87      7    -15     88     90 275.2  -9.8  34168  289.70 0861.74
2015 04 09 14 41 02 .82     -41      1      2     42     43 271.7   2.9  34200  290.25 0861.74
2015 04 09 14 41 03 .07      -4      2     21      5     21 302.4  86.9  34214  290.48 0861.74
2015 04 09 14 41 03 .32       4     -7      0      9     10 151.0  -3.1  34220  290.60 0861.74
2015 04 09 14 41 03 .57       5    -17      0     18     19 161.5  -2.2  34224  290.65 0861.74
2015 04 09 14 41 03 .82     -17      2      0     18     19 277.9  -2.2  34234  290.84 0861.74
2015 04 09 14 41 04 .07    -150     30    -49    154    162 281.5 -17.9  34152  289.45 0861.74
2015 04 09 14 41 04 .32    -171     54    -16    180    181 287.7  -5.2  34166  289.67 0861.74
2015 04 09 14 41 04 .58    -180     35    -34    184    188 281.2 -10.5  34170  289.74 0861.74
2015 04 09 14 41 04 .82     -52    -26      3     59     60 243.8   2.9  34194  290.14 0861.74
2015 04 09 14 41 05 .08       4     40     25     41     48   6.2  35.5  34198  290.23 0861.74
2015 04 09 14 41 05 .32     -75    -14    -25     77     80 259.4 -23.3  34196  290.19 0861.74
2015 04 09 14 41 05 .57    -133    -44    -39    141    147 251.4 -15.5  34164  289.65 0861.74
2015 04 09 14 41 05 .83    -124     37    -10    130    131 286.9  -4.6  34178  289.89 0861.74
2015 04 09 14 41 06 .08    -119     28      6    123    124 283.3   2.9  34202  290.28 0861.74
2015 04 09 14 41 06 .33    -213     26    -27    215    217 277.0  -7.3  34214  290.50 0861.74
2015 04 09 14 41 06 .58    -218     74    -44    231    236 288.8 -10.9  34224  290.66 0861.74
2015 04 09 14 41 06 .83    -207     41    -58    212    220 281.2 -15.4  34228  290.72 0861.74
2015 04 09 14 41 07 .08    -209     83    -41    226    230 291.8 -10.5  34228  290.74 0861.74
2015 04 09 14 41 07 .34    -169    139    -29    219    221 309.5  -7.7  34212  290.47 0861.74
2015 04 09 14 41 07 .59    -156    128    -11    202    203 309.3  -3.1  34216  290.52 0861.74
2015 04 09 14 41 07 .84    -154    108    -39    189    194 305.1 -11.9  34188  290.04 0861.74
2015 04 09 14 41 08 .09    -133    118    -23    179    181 311.6  -7.3  34182  289.96 0861.74
2015 04 09 14 41 08 .34    -169    150      2    227    228 311.6   0.7  34180  289.92 0861.74
2015 04 09 14 41 08 .59    -163    144    -14    218    219 311.6  -3.7  34170  289.75 0861.74
2015 04 09 14 41 08 .84    -161    134    -16    210    211 309.8  -4.6  34168  289.72 0861.74
2015 04 09 14 41 09 .09    -191     97    -64    215    225 297.0 -16.6  34164  289.63 0861.74
2015 04 09 14 41 09 .34    -172     99    -61    199    208 300.0 -22.1  34098  288.53 0861.74
2015 04 09 14 41 09 .60    -171    113    -85    206    222 303.5 -27.8  34082  288.25 0861.74
2015 04 09 14 41 09 .85    -178    142    -91    228    245 308.6 -27.4  34064  287.95 0861.74
2015 04 09 14 41 10 .09    -136    136    -71    193    205 314.8 -25.3  34110  288.74 0861.74
2015 04 09 14 41 10 .35    -156    127    -63    202    211 309.1 -22.5  34104  288.62 0861.74
2015 04 09 14 41 10 .60    -154     84    -39    176    181 298.6 -12.6  34110  288.74 0861.74
2015 04 09 14 41 10 .84    -112     86    -16    142    143 307.3  -6.7  34122  288.92 0861.74
2015 04 09 14 41 11 .10    -106     93    -40    142    147 311.3 -20.2  34094  288.45 0861.74
2015 04 09 14 41 11 .35     -59    103    -50    119    129 330.1 -28.5  34082  288.25 0861.74
2015 04 09 14 41 11 .60     -77    110    -74    135    153 324.8 -35.8  34026  287.30 0861.74
2015 04 09 14 41 11 .85     -92     86    -74    127    146 313.1 -37.8  34026  287.30 0861.74
2015 04 09 14 41 12 .10     -89     68    -67    113    131 307.3 -37.9  34030  287.38 0861.74
2015 04 09 14 41 12 .35    -101     64    -59    120    133 302.5 -32.2  34042  287.59 0861.74
2015 04 09 14 41 12 .60    -111     65    -54    129    139 300.6 -28.0  34046  287.65 0861.74
2015 04 09 14 41 12 .85     -93     67    -66    115    132 306.0 -36.8  34052  287.74 0861.74
2015 04 09 14 41 13 .10     -92     64    -63    113    129 305.1 -35.8  34068  288.01 0861.74
2015 04 09 14 41 13 .36    -132     52    -48    143    150 291.7 -23.6  34152  289.45 0861.74
2015 04 09 14 41 13 .60    -162     41    -55    168    177 284.4 -18.3  34146  289.33 0861.74
2015 04 09 14 41 13 .86    -161     46    -32    168    172 285.9 -10.9  34152  289.43 0861.75
2015 04 09 14 41 14 .10    -143     61    -47    156    164 293.3 -17.0  34106  288.67 0861.75
2015 04 09 14 41 14 .36    -143     65    -46    158    164 294.4 -21.5  34084  288.30 0861.75
2015 04 09 14 41 14 .61    -146     81    -57    168    177 299.1 -23.6  34088  288.36 0861.75
2015 04 09 14 41 14 .86    -151     80    -22    171    173 298.0  -7.3  34078  288.20 0861.75
2015 04 09 14 41 15 .12    -138     91    -32    166    170 303.5 -11.1  34110  288.72 0861.75
2015 04 09 14 41 15 .37    -160     75    -52    177    185 295.1 -16.4  34112  288.75 0861.75
2015 04 09 14 41 15 .62    -159     94    -63    185    196 300.7 -18.9  34122  288.92 0861.75
2015 04 09 14 41 15 .87    -160     91    -51    185    192 299.5 -15.5  34118  288.86 0861.75
2015 04 09 14 41 16 .12    -182     59    -54    192    199 287.9 -20.4  34126  288.99 0861.75
2015 04 09 14 41 16 .37    -164     38    -57    169    179 283.3 -18.7  34122  288.94 0861.75
2015 04 09 14 41 16 .62    -141     51    -38    150    155 290.0 -14.5  34120  288.89 0861.75
2015 04 09 14 41 16 .87     -98     52    -22    111    114 298.0 -11.5  34124  288.96 0861.75
2015 04 09 14 41 17 .12     -73     69     22    101    104 313.1  12.6  34130  289.06 0861.75
2015 04 09 14 41 17 .37     -83     84      0    119    120 315.3   0.2  34142  289.28 0861.75
2015 04 09 14 41 17 .62     -51     88     46    102    111 329.7  26.2  34146  289.33 0861.75
2015 04 09 14 41 17 .88    -152    112    -14    190    191 306.4  -4.4  34136  289.18 0861.75
2015 04 09 14 41 18 .13    -161     82     -7    181    182 297.1  -2.3  34154  289.48 0861.75
2015 04 09 14 41 18 .37    -201     73    -19    214    215 290.0  -5.2  34182  289.94 0861.75
2015 04 09 14 41 18 .62    -184     95    -34    208    211 297.3  -9.4  34190  290.09 0861.75
2015 04 09 14 41 18 .88    -205     72    -19    218    219 289.3  -5.1  34188  290.06 0861.75
2015 04 09 14 41 19 .13    -257    106    -56    279    285 292.4 -11.3  34080  288.22 0861.75
2015 04 09 14 41 19 .38    -246    112    -96    271    288 294.4 -19.6  34090  288.39 0861.75
2015 04 09 14 41 19 .63    -265     57    -96    272    289 282.2 -19.6  34098  288.53 0861.75
2015 04 09 14 41 19 .89    -237     53    -77    244    256 282.8 -17.6  34104  288.61 0861.75
2015 04 09 14 41 20 .13    -272    109    -81    294    305 291.8 -15.4  34140  289.24 0861.74
2015 04 09 14 41 20 .38    -241    117    -66    269    278 296.0 -13.9  34116  288.83 0861.74
2015 04 09 14 41 20 .63    -234    123    -58    265    272 297.8 -12.4  34126  288.98 0861.74
2015 04 09 14 41 20 .88    -229    117    -56    258    265 297.1 -12.4  34112  288.75 0861.74
2015 04 09 14 41 21 .13    -195     93    -52    217    224 295.5 -13.7  34090  288.38 0861.74
2015 04 09 14 41 21 .39    -158     71    -40    174    179 294.4 -13.2  34086  288.33 0861.74
2015 04 09 14 41 21 .65     -51    118     -5    129    130 336.3  -2.2  34126  289.01 0861.74
2015 04 09 14 41 21 .89     -60    124      2    138    139 334.1   1.2  34162  289.62 0861.74
2015 04 09 14 41 22 .15     -79     95     35    124    129 320.4  15.8  34200  290.25 0861.74
2015 04 09 14 41 22 .40     -65     89     39    111    118 324.0  19.4  34222  290.64 0861.74
2015 04 09 14 41 22 .65     -61     84     61    104    120 323.9  33.4  34230  290.75 0861.74
2015 04 09 14 41 22 .90     -46     70     27     85     90 326.6  17.9  34256  291.21 0861.74
2015 04 09 14 41 23 .14     -38     49     23     63     67 322.2  20.0  34260  291.28 0861.74
2015 04 09 14 41 23 .40     -28     45     28     54     60 328.4  30.3  34270  291.43 0861.74
2015 04 09 14 41 23 .65     -23     99      5    102    103 346.6   2.9  34276  291.55 0861.74
2015 04 09 14 41 23 .90     -42     67     39     80     89 327.5  27.3  34282  291.64 0861.74
2015 04 09 14 41 24 .15     -40    103     42    111    118 338.6  21.5  34256  291.21 0861.74
2015 04 09 14 41 24 .40     -36    183     61    187    197 348.9  18.1  34242  290.96 0861.74
2015 04 09 14 41 24 .65     -35    174     53    178    186 348.4  16.6  34252  291.15 0861.74
2015 04 09 14 41 24 .90     -37    204     41    208    213 349.5  11.1  34204  290.33 0861.74
2015 04 09 14 41 25 .15     -48    199     49    205    211 346.2  13.7  34172  289.79 0861.74
2015 04 09 14 41 25 .40     -52    204    -10    211    212 345.5  -2.8  34080  288.21 0861.74
2015 04 09 14 41 25 .65     -52    250     18    256    257 348.2   4.2  34066  287.97 0861.75
2015 04 09 14 41 25 .90     -61    240      3    248    249 345.7   0.7  34064  287.95 0861.75
2015 04 09 14 41 26 .15     -37    272      3    275    276 352.2   0.7  34070  288.05 0861.75
2015 04 09 14 41 26 .40     -33    304     -3    306    307 353.8  -0.7  34070  288.04 0861.75
2015 04 09 14 41 26 .65     -21    306     17    307    308 356.0   3.3  34084  288.29 0861.75
2015 04 09 14 41 26 .91     -19    323    -11    324    325 356.5  -2.1  34094  288.44 0861.75
2015 04 09 14 41 27 .15     -58    295     -6    301    302 348.9  -1.2  34090  288.39 0861.75
2015 04 09 14 41 27 .40     -53    302     17    307    308 350.0   3.3  34080  288.22 0861.75
2015 04 09 14 41 27 .66     -31    255      8    257    258 352.9   1.8  34044  287.61 0861.75
2015 04 09 14 41 27 .91     -55    275    -36    281    284 348.5  -7.3  34058  287.85 0861.75
2015 04 09 14 41 28 .17     -44    242    -35    247    250 349.5  -8.2  34054  287.78 0861.75
2015 04 09 14 41 28 .42     -17    259    -27    260    262 356.2  -6.0  34042  287.56 0861.75
2015 04 09 14 41 28 .67     -10    233    -42    234    238 357.3 -10.3  34046  287.63 0861.75
2015 04 09 14 41 28 .92      -3    222    -28    223    225 359.1  -7.2  34042  287.57 0861.75
2015 04 09 14 41 29 .17       0    189    -14    190    191   0.0  -4.4  34038  287.52 0861.75
2015 04 09 14 41 29 .43       0    192    -27    193    195   0.0  -8.0  34082  288.25 0861.75
2015 04 09 14 41 29 .67     -16    252    -17    253    254 356.2  -3.9  34102  288.59 0861.75
2015 04 09 14 41 29 .92     -18    290    -27    291    293 356.4  -5.4  34106  288.65 0861.75
2015 04 09 14 41 30 .17     -23    298    -17    299    300 355.5  -3.3  34096  288.49 0861.75
2015 04 09 14 41 30 .42     -27    300    -16    302    303 354.7  -3.2  34118  288.87 0861.75
2015 04 09 14 41 30 .67     -27    279    -10    281    282 354.4  -2.2  34108  288.70 0861.75
2015 04 09 14 41 30 .92     -18    274      8    275    276 356.2   1.7  34110  288.73 0861.75
2015 04 09 14 41 31 .17      -4    265      7    266    267 359.1   1.7  34110  288.71 0861.76
2015 04 09 14 41 31 .43      -4    256     13    257    258 359.0   2.9  34104  288.61 0861.76
2015 04 09 14 41 31 .67      -7    234     42    235    239 358.2  10.3  34106  288.66 0861.76
2015 04 09 14 41 31 .93      10    241     47    242    247   2.6  11.1  34084  288.27 0861.76
2015 04 09 14 41 32 .18       7    217     44    218    223   2.0  11.6  34100  288.55 0861.76
2015 04 09 14 41 32 .43     -27    231     36    233    236 353.3   9.0  34142  289.25 0861.76
2015 04 09 14 41 32 .68     -51    245     39    251    255 348.2   9.0  34152  289.42 0861.76
2015 04 09 14 41 32 .93     -41    218     23    222    224 349.3   6.1  34174  289.82 0861.76
2015 04 09 14 41 33 .18     -56    219     35    227    230 345.7   8.9  34176  289.85 0861.76
2015 04 09 14 41 33 .43     -45    222     13    227    228 348.4   3.3  34156  289.52 0861.76
2015 04 09 14 41 33 .68     -65    215     35    225    228 343.1   8.9  34192  290.11 0861.76
2015 04 09 14 41 33 .93     -74    200      3    214    215 339.7   1.0  34186  290.02 0861.76
2015 04 09 14 41 34 .18    -101    252    -19    272    273 338.1  -4.1  34124  288.95 0861.76
2015 04 09 14 41 34 .44    -126    187    -54    226    233 325.9 -13.4  34140  289.23 0861.76
2015 04 09 14 41 34 .68     -81    276      6    288    289 343.5   1.2  34120  288.88 0861.76
2015 04 09 14 41 34 .93     -93    253      9    270    271 339.7   2.1  34104  288.63 0861.76
2015 04 09 14 41 35 .19    -103    248    -54    269    275 337.3 -11.3  34134  289.14 0861.76
2015 04 09 14 41 35 .45    -107    235    -25    259    261 335.5  -5.6  34168  289.70 0861.76
2015 04 09 14 41 35 .69    -111    184      0    216    217 328.8   0.0  34128  289.04 0861.76
2015 04 09 14 41 35 .95    -125    147     12    194    195 319.7   3.8  34088  288.36 0861.76
2015 04 09 14 41 36 .19    -179    114     26    213    215 302.4   7.2  34092  288.43 0861.76
2015 04 09 14 41 36 .44    -180    127      4    221    222 305.1   1.2  34050  287.70 0861.76
2015 04 09 14 41 36 .70    -210    164    -19    267    268 308.0  -4.1  34038  287.51 0861.76
2015 04 09 14 41 36 .95    -199    153    -22    252    254 307.5  -5.2  34036  287.48 0861.76
2015 04 09 14 41 37 .20    -178    136    -38    225    229 307.3  -9.8  34046  287.65 0861.76
2015 04 09 14 41 37 .45    -181    122    -43    219    224 304.0 -11.1  34050  287.72 0861.76
2015 04 09 14 41 37 .70    -180    167    -44    246    250 312.9 -10.3  34048  287.66 0861.76
2015 04 09 14 41 37 .95    -161    159    -47    227    232 314.7 -11.9  34038  287.52 0861.76
2015 04 09 14 41 38 .20    -144    139    -34    201    205 314.0  -9.8  34042  287.57 0861.76
2015 04 09 14 41 38 .45    -150    125    -12    196    197 309.6  -3.7  34046  287.65 0861.76
2015 04 09 14 41 38 .70    -182    141    -32    231    234 307.8  -8.0  34038  287.50 0861.76
2015 04 09 14 41 38 .95    -162    124    -52    205    212 307.5 -14.3  34036  287.47 0861.76
2015 04 09 14 41 39 .20    -156    117     -8    195    196 306.9  -2.6  34042  287.57 0861.75
2015 04 09 14 41 39 .45    -163    134    -51    212    219 309.5 -13.7  34034  287.45 0861.75
2015 04 09 14 41 39 .70    -168    122    -41    208    213 306.0 -11.1  34038  287.52 0861.75
2015 04 09 14 41 39 .95    -148    130    -48    197    203 311.3 -13.9  34036  287.49 0861.75
2015 04 09 14 41 40 .20    -156    129    -59    203    212 309.6 -16.4  34038  287.50 0861.75
2015 04 09 14 41 40 .46    -142    127    -32    191    194 311.8  -9.8  34044  287.60 0861.75
2015 04 09 14 41 40 .71    -138    105    -14    174    175 307.3  -4.9  34052  287.74 0861.75
2015 04 09 14 41 40 .96    -105    101      7    146    147 314.0   2.9  34056  287.81 0861.75
2015 04 09 14 41 41 .21    -129    105    -11    167    168 309.3  -3.9  34046  287.65 0861.75
2015 04 09 14 41 41 .46    -130     92    -13    160    161 305.5  -4.9  34042  287.57 0861.75
2015 04 09 14 41 41 .71    -158     93    -39    184    189 300.7 -12.2  34046  287.64 0861.75
2015 04 09 14 41 41 .96    -166     91    -24    190    192 298.8  -7.3  34030  287.37 0861.75
2015 04 09 14 41 42 .22    -132     84    -46    157    164 302.5 -16.4  34030  287.38 0861.75
2015 04 09 14 41 42 .48    -134     73    -42    153    159 298.9 -15.5  34056  287.81 0861.75
2015 04 09 14 41 42 .72    -157    103    -26    188    190 303.3  -8.0  34100  288.57 0861.75
2015 04 09 14 41 42 .97    -118     76    -12    141    142 302.9  -5.2  34088  288.36 0861.75
2015 04 09 14 41 43 .22    -107     88    -15    139    140 309.6  -6.2  34068  288.03 0861.75
2015 04 09 14 41 43 .48    -105     82     -8    134    135 307.8  -3.7  34134  289.13 0861.75
2015 04 09 14 41 43 .72     -98     68    -15    120    121 304.6  -7.2  34148  289.36 0861.75
2015 04 09 14 41 43 .97     -36     53     26     65     70 325.7  23.0  34144  289.30 0861.75
2015 04 09 14 41 44 .22     -66     86     18    109    111 322.2   9.5  34102  288.60 0861.75
2015 04 09 14 41 44 .47     -83     65    -41    106    113 308.2 -26.4  34084  288.28 0861.75
2015 04 09 14 41 44 .72     -91     68    -34    114    118 306.9 -21.7  34050  287.72 0861.75
2015 04 09 14 41 44 .98    -108     71    -20    130    132 303.3  -8.8  34042  287.59 0861.75
2015 04 09 14 41 45 .22    -112     84     -7    141    142 306.9  -3.1  34042  287.57 0861.75
2015 04 09 14 41 45 .48    -118     86    -31    147    151 306.0 -11.9  34022  287.23 0861.75
2015 04 09 14 41 45 .72    -113     93    -18    147    149 309.5  -7.2  34024  287.28 0861.75
2015 04 09 14 41 45 .98    -105     88    -32    138    142 310.0 -13.3  34024  287.28 0861.75
2015 04 09 14 41 46 .23    -102     84    -29    133    137 309.6 -12.4  34022  287.25 0861.75
2015 04 09 14 41 46 .48     -97     91    -28    134    137 313.1 -11.9  34022  287.25 0861.75
2015 04 09 14 41 46 .73    -107     85    -27    137    140 308.6 -11.3  34024  287.28 0861.75
2015 04 09 14 41 46 .98    -106    105    -41    150    156 314.9 -15.4  34022  287.25 0861.75
2015 04 09 14 41 47 .23    -121    108    -25    163    166 311.8  -9.0  34024  287.28 0861.75
2015 04 09 14 41 47 .48    -109    102    -25    150    153 313.1  -9.8  34030  287.38 0861.76
2015 04 09 14 41 47 .73    -115    114    -25    163    166 314.8  -9.0  34030  287.38 0861.76
2015 04 09 14 41 47 .98    -113    113    -37    161    166 315.0 -12.9  34028  287.33 0861.76
2015 04 09 14 41 48 .24    -104    106    -25    149    152 315.5  -9.8  34030  287.38 0861.76
2015 04 09 14 41 48 .48     -75     97     -3    123    124 322.1  -1.8  34048  287.67 0861.76
2015 04 09 14 41 48 .74    -115    126    -17    171    172 317.5  -6.0  34042  287.59 0861.76
2015 04 09 14 41 48 .99    -109    138    -34    177    181 321.7 -10.9  34036  287.49 0861.76
2015 04 09 14 41 49 .25    -102    135    -23    170    172 322.8  -8.0  34036  287.47 0861.75
2015 04 09 14 41 49 .50    -122    121    -23    172    174 314.8  -7.7  34036  287.47 0861.75
2015 04 09 14 41 49 .75    -127    129    -23    182    184 315.5  -7.3  34030  287.38 0861.75
2015 04 09 14 41 50 .00    -132    147    -36    198    202 318.1 -10.3  34054  287.79 0861.75
2015 04 09 14 41 50 .25    -132    147    -44    198    203 318.1 -12.6  34052  287.76 0861.75
2015 04 09 14 41 50 .50    -139    140    -39    198    202 315.1 -11.3  34040  287.55 0861.75
2015 04 09 14 41 50 .75    -166    149     -8    224    225 312.0  -2.1  34044  287.62 0861.75
2015 04 09 14 41 51 .00    -154    109    -38    189    193 305.3 -11.6  34022  287.25 0861.75
2015 04 09 14 41 51 .25    -152    121    -23    195    197 308.4  -6.9  34028  287.33 0861.75
2015 04 09 14 41 51 .50    -157    120    -20    198    200 307.5  -6.0  34022  287.25 0861.75
2015 04 09 14 41 51 .75    -146    111    -19    184    186 307.3  -6.0  34020  287.21 0861.75
2015 04 09 14 41 52 .00    -138    104    -21    174    176 307.1  -6.9  34022  287.23 0861.76
2015 04 09 14 41 52 .25    -137    108    -19    175    177 308.4  -6.2  34022  287.25 0861.76
2015 04 09 14 41 52 .50    -146    134    -23    199    201 312.7  -6.7  34018  287.18 0861.76
2015 04 09 14 41 52 .75    -147    123    -27    192    195 310.0  -8.2  34022  287.25 0861.76
2015 04 09 14 41 53 .00    -142    118    -32    185    188 309.6 -10.1  34018  287.18 0861.76
2015 04 09 14 41 53 .26    -127    123    -12    177    178 314.0  -4.1  34026  287.30 0861.76
2015 04 09 14 41 53 .50    -115    114    -18    163    165 314.8  -6.5  34030  287.37 0861.76
2015 04 09 14 41 53 .76    -106    127    -21    166    168 319.9  -7.2  34034  287.43 0861.75
2015 04 09 14 41 54 .01    -111    117    -26    162    165 316.7  -9.3  34034  287.43 0861.75
2015 04 09 14 41 54 .26    -135    112    -23    176    178 309.8  -7.7  34026  287.30 0861.75
2015 04 09 14 41 54 .51    -129    120    -35    177    181 312.9 -11.3  34022  287.25 0861.75
2015 04 09 14 41 54 .76    -117    121    -35    169    173 315.9 -11.9  34022  287.25 0861.75
2015 04 09 14 41 55 .01    -104    130    -43    167    173 321.3 -14.5  34018  287.16 0861.75
2015 04 09 14 41 55 .26     -83    152    -33    174    178 331.3 -10.9  34016  287.15 0861.75
2015 04 09 14 41 55 .51     -86    164    -48    186    193 332.4 -14.7  34030  287.37 0861.75
2015 04 09 14 41 55 .77     -51    159    -37    168    173 342.2 -12.6  34134  289.14 0861.75
2015 04 09 14 41 56 .02     -48    153    -26    161    164 342.6  -9.3  34128  289.04 0861.75
2015 04 09 14 41 56 .27     -54    152    -42    162    168 340.4 -14.5  34048  287.69 0861.75
2015 04 09 14 41 56 .52     -42    163     -6    169    170 345.5  -2.2  34100  288.57 0861.76
2015 04 09 14 41 56 .78     -46    143    -16    151    152 342.2  -6.2  34052  287.76 0861.76
2015 04 09 14 41 57 .03     -47    130    -10    139    140 340.0  -4.1  34080  288.23 0861.76
2015 04 09 14 41 57 .27     -45    118     13    127    128 339.1   5.9  34090  288.40 0861.76
2015 04 09 14 41 57 .52     -30    118      6    122    123 345.7   2.9  34102  288.58 0861.76
2015 04 09 14 41 57 .78     -21     92     33     95    101 347.1  19.4  34120  288.91 0861.76
2015 04 09 14 41 58 .02     -51    109      0    121    122 335.1   0.2  34098  288.53 0861.76
2015 04 09 14 41 58 .28     -35    106     -7    112    113 341.5  -3.7  34064  287.96 0861.76
2015 04 09 14 41 58 .52     -78    127    -35    150    155 328.4 -13.4  34030  287.38 0861.76
2015 04 09 14 41 58 .77     -67    122    -23    140    142 331.1  -9.4  34020  287.20 0861.76
2015 04 09 14 41 59 .03     -56    130    -20    142    144 336.4  -8.2  34018  287.16 0861.76
2015 04 09 14 41 59 .27     -43    131    -13    138    139 341.7  -5.6  34020  287.20 0861.76
2015 04 09 14 41 59 .53     -35    127    -12    132    133 344.4  -5.2  34020  287.20 0861.76
2015 04 09 14 41 59 .77     -40    122     -5    129    130 341.7  -2.2  34018  287.16 0861.76
2015 04 09 14 42 00 .03     -42    138     -5    145    146 343.1  -2.2  34028  287.33 0861.76
2015 04 09 14 42 00 .28     -28    130      6    134    135 347.5   2.9  34040  287.54 0861.76
2015 04 09 14 42 00 .53     -14    134     39    135    141 353.8  16.3  34080  288.23 0861.76
2015 04 09 14 42 00 .78     -15    136     22    137    139 353.7   9.5  34036  287.49 0861.76
2015 04 09 14 42 01 .03     -25    142     32    145    149 349.8  12.6  34056  287.81 0861.76
2015 04 09 14 42 01 .28     -11    154     36    155    160 355.6  13.2  34042  287.57 0861.76
2015 04 09 14 42 01 .53     -12    161     16    162    163 355.5   5.9  34040  287.55 0861.76
2015 04 09 14 42 01 .78     -21    145      7    147    148 351.5   2.9  34030  287.38 0861.76
2015 04 09 14 42 02 .03     -23    138     19    141    143 350.2   8.0  34022  287.25 0861.75
2015 04 09 14 42 02 .28     -45    138     -4    146    147 341.7  -1.8  34020  287.20 0861.75
2015 04 09 14 42 02 .53     -39    156    -19    162    164 345.7  -6.7  34016  287.15 0861.75
2015 04 09 14 42 02 .78     -44    167     -8    173    174 345.1  -2.8  34016  287.15 0861.75
2015 04 09 14 42 03 .05     -12    164    -26    165    168 355.6  -9.0  34018  287.16 0861.75
2015 04 09 14 42 03 .30     -13    170    -22    171    173 355.5  -7.3  34020  287.21 0861.75
2015 04 09 14 42 03 .55     -10    169    -15    170    171 356.4  -5.2  34020  287.20 0861.75
2015 04 09 14 42 03 .80       0    138     -5    139    140   0.0  -2.2  34020  287.21 0861.75
2015 04 09 14 42 04 .05      -5    174      1    175    176 358.2   0.5  34020  287.21 0861.75
2015 04 09 14 42 04 .30     -16    193      4    194    195 355.1   1.2  34022  287.25 0861.75
2015 04 09 14 42 04 .55     -11    182     -4    183    184 356.4  -1.3  34020  287.21 0861.75
2015 04 09 14 42 04 .80     -41    195     -2    200    201 348.0  -0.7  34020  287.20 0861.75
2015 04 09 14 42 05 .05     -36    180    -17    184    185 348.4  -5.4  34018  287.16 0861.75
2015 04 09 14 42 05 .30     -39    176    -19    181    183 347.3  -6.2  34016  287.15 0861.75
2015 04 09 14 42 05 .55     -15    170     -6    171    172 354.7  -2.2  34020  287.21 0861.75
2015 04 09 14 42 05 .80     -26    144    -18    147    149 349.8  -7.2  34020  287.20 0861.75
2015 04 09 14 42 06 .05     -26    144    -18    147    149 349.8  -7.2  34020  287.20 0861.75
2015 04 09 14 42 06 .30     -33    162    -11    166    167 348.2  -4.1  34022  287.23 0861.75
2015 04 09 14 42 06 .55     -28    147    -19    150    152 348.9  -7.3  34018  287.16 0861.75
2015 04 09 14 42 06 .80     -26    153    -18    156    158 350.2  -6.7  34020  287.20 0861.75
2015 04 09 14 42 07 .05     -24    139     -7    142    143 350.2  -3.1  34022  287.25 0861.75
2015 04 09 14 42 07 .30     -18    133     -2    135    136 352.0  -1.3  34022  287.25 0861.75
2015 04 09 14 42 07 .56     -33    144    -14    148    149 347.1  -5.6  34020  287.21 0861.75
2015 04 09 14 42 07 .80     -42    115    -36    123    129 340.0 -16.6  34018  287.16 0861.75
2015 04 09 14 42 08 .05     -51    111    -44    123    131 335.1 -19.7  34016  287.15 0861.75
2015 04 09 14 42 08 .31     -44     94    -49    104    114 334.7 -31.5  34018  287.18 0861.75
2015 04 09 14 42 08 .56     -40     85    -71     95    118 334.6 -45.1  34018  287.16 0861.75
2015 04 09 14 42 08 .81     -49     77    -67     92    113 327.5 -44.1  34020  287.21 0861.75
2015 04 09 14 42 09 .06     -44     69    -76     82    111 327.4 -52.3  34020  287.21 0861.75
2015 04 09 14 42 09 .31     -36     74    -57     83    100 333.7 -42.4  34022  287.25 0861.75
2015 04 09 14 42 09 .56     -27     57    -48     64     80 334.7 -45.1  34022  287.25 0861.75
2015 04 09 14 42 09 .81     -42     50    -41     66     77 319.5 -39.9  34020  287.21 0861.75
2015 04 09 14 42 10 .07     -48     48    -25     69     73 315.0 -23.3  34020  287.20 0861.75
2015 04 09 14 42 10 .32     -59     55    -36     81     88 313.1 -30.1  34020  287.21 0861.75
2015 04 09 14 42 10 .57     -75     21    -34     79     86 285.9 -29.0  34022  287.25 0861.75
2015 04 09 14 42 10 .82     -75     32    -32     82     88 293.1 -26.4  34028  287.33 0861.75
2015 04 09 14 42 11 .07     -73     36    -30     82     87 296.6 -24.8  34028  287.35 0861.75
2015 04 09 14 42 11 .32     -65     31    -23     73     76 295.4 -23.8  34028  287.33 0861.75
2015 04 09 14 42 11 .57     -54     49    -26     74     79 312.2 -19.7  34028  287.35 0861.75
2015 04 09 14 42 11 .83     -58     40    -14     71     73 305.1 -11.3  34032  287.40 0861.75
2015 04 09 14 42 12 .08     -48     45    -18     67     70 313.1 -15.5  34044  287.60 0861.74
2015 04 09 14 42 12 .32     -45     42     -2     62     63 313.1  -2.2  34050  287.72 0861.74
2015 04 09 14 42 12 .58     -37     33      9     50     51 312.2  11.1  34064  287.94 0861.74
2015 04 09 14 42 12 .83     -37     37     13     53     55 314.9  14.3  34072  288.09 0861.74
2015 04 09 14 42 13 .08     -24     23      1     34     35 313.3   2.8  34064  287.96 0861.74
2015 04 09 14 42 13 .33     -28     20      1     35     36 306.0   2.8  34084  288.28 0861.74
2015 04 09 14 42 13 .58     -28     18     11     34     36 302.5  18.9  34080  288.23 0861.74
2015 04 09 14 42 13 .83     -25     14     14     29     32 298.9  27.2  34088  288.36 0861.74
2015 04 09 14 42 14 .08     -27      9     18     29     34 288.2  35.5  34102  288.58 0861.74
2015 04 09 14 42 14 .33     -23      1      8     24     26 272.6  18.9  34086  288.31 0861.74
2015 04 09 14 42 14 .58     -24     -1      0     25     26 267.4  -1.3  34074  288.11 0861.74
2015 04 09 14 42 14 .83     -22      0      7     23     25 270.0  17.3  34078  288.18 0861.74
2015 04 09 14 42 15 .08     -29    -14     11     33     35 244.8  18.9  34084  288.28 0861.74
2015 04 09 14 42 15 .33     -44      0      9     45     47 269.2  12.2  34064  287.94 0861.74
2015 04 09 14 42 15 .58     -59     16     -1     62     63 285.1  -1.3  34038  287.52 0861.74
2015 04 09 14 42 15 .83     -62     20     -2     66     67 288.2  -2.2  34040  287.54 0861.74
2015 04 09 14 42 16 .08     -74     24    -24     78     82 288.2 -17.6  34030  287.38 0861.74
2015 04 09 14 42 16 .34     -71     14    -12     73     74 281.4  -9.3  34036  287.49 0861.74
2015 04 09 14 42 16 .59     -84     12    -14     85     87 278.4  -9.3  34034  287.43 0861.74
2015 04 09 14 42 16 .85    -105      3    -12    106    107 272.1  -6.7  34034  287.45 0861.74
2015 04 09 14 42 17 .10     -94     10    -30     95     99 276.1 -22.8  34036  287.47 0861.74
2015 04 09 14 42 17 .35     -97      7    -11     98     99 274.4  -6.7  34044  287.62 0861.74
2015 04 09 14 42 17 .60     -71      5    -10     72     73 274.4  -8.2  34052  287.76 0861.74
2015 04 09 14 42 17 .85     -63     40    -10     75     76 302.4  -8.2  34052  287.76 0861.74
2015 04 09 14 42 18 .11     -15     49     32     52     61 342.2  35.5  34114  288.80 0861.74
2015 04 09 14 42 18 .35     -26     25     31     37     48 313.3  45.8  34114  288.80 0861.74
2015 04 09 14 42 18 .60     -67     20     -1     71     72 286.8  -1.3  34040  287.55 0861.74
2015 04 09 14 42 18 .85     -56      8    -27     57     63 278.8 -31.6  34036  287.49 0861.74
2015 04 09 14 42 19 .11     -90     -1    -11     91     92 269.2  -7.2  34066  287.99 0861.74
2015 04 09 14 42 19 .36     -64     40     30     76     81 302.4  22.5  34128  289.04 0861.74
2015 04 09 14 42 19 .60     -23     23     21     33     39 314.9  35.5  34132  289.09 0861.74
2015 04 09 14 42 19 .86     -21      5     18     22     28 283.3  45.8  34152  289.43 0861.74
2015 04 09 14 42 20 .10      -8      9     36     13     38 316.6  81.2  34202  290.30 0861.74
2015 04 09 14 42 20 .35       0     -3     32      4     32 189.7  90.0  34208  290.40 0861.74
2015 04 09 14 42 20 .61       0     -7     34      8     34 182.7  89.0  34224  290.65 0861.74
2015 04 09 14 42 20 .85     -11      0     41     12     42 270.0  83.9  34190  290.08 0861.74
2015 04 09 14 42 21 .11      -6     18     34     19     38 341.5  68.8  34194  290.16 0861.74
2015 04 09 14 42 21 .36      -2     -8     30      9     31 198.5  82.8  34242  290.98 0861.74
2015 04 09 14 42 21 .61       8      0     30      9     31  94.4  82.8  34250  291.09 0861.74
2015 04 09 14 42 21 .86       2     -4     30      5     30 147.5  90.0  34268  291.40 0861.74
2015 04 09 14 42 22 .11      -1     -4     25      5     25 191.6  89.0  34272  291.47 0861.74
2015 04 09 14 42 22 .36       2      0     19      3     19 108.4  90.0  34286  291.71 0861.74
2015 04 09 14 42 22 .61       2     -4     30      5     30 147.5  90.0  34300  291.96 0861.74
2015 04 09 14 42 22 .87       0     -7     27      8     28 182.7  80.7  34298  291.93 0861.74
2015 04 09 14 42 23 .11       0      0     27      1     27 189.7  90.0  34312  292.15 0861.74
2015 04 09 14 42 23 .36      13      0     28     14     31  90.8  72.8  34292  291.83 0861.74
2015 04 09 14 42 23 .62      11     -3     32     12     34 108.4  81.2  34280  291.60 0861.74
2015 04 09 14 42 23 .87      11      1     25     12     27  82.1  72.9  34278  291.57 0861.74
2015 04 09 14 42 24 .12       7      2     15      8     17  71.4  68.8  34266  291.38 0861.74
2015 04 09 14 42 24 .37       0     -3     19      4     19 184.5  89.0  34260  291.26 0861.74
2015 04 09 14 42 24 .62      15     -9     14     18     22 122.4  43.7  34248  291.06 0861.74
2015 04 09 14 42 24 .87      15     -5     16     16     22 108.6  50.1  34230  290.75 0861.74
2015 04 09 14 42 25 .12      25     -5     18     26     31 101.5  37.6  34196  290.19 0861.74
2015 04 09 14 42 25 .38      31      0     11     32     34  90.8  18.9  34162  289.62 0861.74
2015 04 09 14 42 25 .63      30     -4     16     31     34  97.9  29.3  34176  289.84 0861.74
2015 04 09 14 42 25 .88      33     -2     14     34     36  94.4  23.0  34184  289.97 0861.74
2015 04 09 14 42 26 .13      32     -9     11     34     36 106.8  18.9  34178  289.89 0861.74
2015 04 09 14 42 26 .38      34      0      9     35     37  90.8  15.3  34172  289.77 0861.74
2015 04 09 14 42 26 .63      32     -9     11     34     36 106.8  18.9  34178  289.89 0861.74
2015 04 09 14 42 26 .88      43      1      0     44     45  88.3   0.8  34160  289.58 0861.74
2015 04 09 14 42 27 .13      36     -2     -4     37     38  94.3  -7.2  34156  289.50 0861.74
2015 04 09 14 42 27 .38      44      0      1     45     46  90.0   1.8  34150  289.41 0861.74
2015 04 09 14 42 27 .63      53      1      2     54     55  88.3   2.9  34156  289.50 0861.74
2015 04 09 14 42 27 .88      52      1     10     53     55  88.3  11.1  34156  289.52 0861.74
2015 04 09 14 42 28 .13      52      2     10     53     54  87.4  11.0  34154  289.46 0861.74
2015 04 09 14 42 28 .38      59      0     21     60     64  89.1  19.4  34150  289.41 0861.74
2015 04 09 14 42 28 .63      48      9     -1     49     50  78.5  -2.2  34086  288.31 0861.74
2015 04 09 14 42 28 .88      46      4    -15     47     49  84.8 -23.8  34024  287.28 0861.74
2015 04 09 14 42 29 .13      44      5    -27     45     52  83.0 -38.8  34026  287.32 0861.74
2015 04 09 14 42 29 .39      48     -3    -19     49     52  94.4 -26.4  34030  287.38 0861.74
2015 04 09 14 42 29 .63      45      0    -10     46     48  90.0 -12.4  34038  287.52 0861.74
2015 04 09 14 42 29 .88      41      5     -7     42     43  82.1 -10.3  34036  287.49 0861.74
2015 04 09 14 42 30 .14      50      3     -4     51     52  85.6  -5.2  34032  287.40 0861.74
2015 04 09 14 42 30 .39      41      5    -18     42     45  82.1 -28.5  34034  287.43 0861.74
2015 04 09 14 42 30 .64      25    -24    -24     35     42 133.3 -42.0  34036  287.49 0861.74
2015 04 09 14 42 30 .90      24    -33    -30     41     50 143.9 -44.1  34040  287.55 0861.74
2015 04 09 14 42 31 .15      33    -32    -28     46     53 134.1 -39.9  34036  287.49 0861.73
2015 04 09 14 42 31 .40      44    -38    -23     59     63 130.4 -26.4  34036  287.49 0861.73
2015 04 09 14 42 31 .65      34    -41    -21     54     57 140.4 -25.4  34036  287.47 0861.73
2015 04 09 14 42 31 .90      42    -33     -7     54     55 127.8  -7.3  34036  287.49 0861.73
2015 04 09 14 42 32 .15      46     -8      2     47     48 100.6   2.9  34032  287.40 0861.73
2015 04 09 14 42 32 .40      42    -13      8     45     46 107.7  10.1  34028  287.35 0861.73
2015 04 09 14 42 32 .65      39    -13      3     42     43 108.4   4.9  34028  287.35 0861.73
2015 04 09 14 42 32 .91      42    -16      5     46     47 111.7   6.9  34036  287.49 0861.73
2015 04 09 14 42 33 .15      45    -28     21     54     57 122.4  21.0  34072  288.08 0861.73
2015 04 09 14 42 33 .40      45    -23     24     51     56 117.1  27.1  34076  288.14 0861.73
2015 04 09 14 42 33 .65      51    -30     13     60     62 120.7  12.2  34054  287.77 0861.73
2015 04 09 14 42 33 .90      45    -30      9     55     56 123.3  10.1  34050  287.72 0861.73
2015 04 09 14 42 34 .16      64    -34      8     73     74 118.0   6.9  34040  287.54 0861.73
2015 04 09 14 42 34 .41      63    -46      4     79     80 126.0   2.9  34074  288.13 0861.73
2015 04 09 14 42 34 .66      57    -47     14     75     77 129.5  11.1  34096  288.50 0861.73
2015 04 09 14 42 34 .90      66    -48      4     82     83 125.9   3.3  34066  287.98 0861.73
2015 04 09 14 42 35 .16      77    -28     11     83     84 110.4   8.0  34056  287.82 0861.73
2015 04 09 14 42 35 .41      78      9      9     79     80  83.0   6.9  34080  288.23 0861.73
2015 04 09 14 42 35 .66      66     18      3     69     70  74.9   2.8  34070  288.04 0861.73
2015 04 09 14 42 35 .91      75     19     -8     78     79  75.8  -6.2  34028  287.33 0861.73
2015 04 09 14 42 36 .16      69     23     -2     73     74  71.4  -2.2  34020  287.20 0861.73
2015 04 09 14 42 36 .41      67     19     -3     70     71  74.1  -3.1  34022  287.23 0861.73
2015 04 09 14 42 36 .66      72     14     -9     74     75  78.6  -7.3  34020  287.20 0861.73
2015 04 09 14 42 36 .91      80     18    -18     83     85  77.2 -12.4  34018  287.16 0861.73
2015 04 09 14 42 37 .16      80      9    -19     81     84  83.0 -13.4  34018  287.16 0861.73
2015 04 09 14 42 37 .41      80      9    -19     81     84  83.0 -13.4  34018  287.16 0861.73
2015 04 09 14 42 37 .67      77      5    -12     78     80  85.6  -9.3  34022  287.23 0861.73
2015 04 09 14 42 37 .92      59      4    -27     60     65  85.6 -30.6  34022  287.23 0861.73
2015 04 09 14 42 38 .17      57      2    -23     58     62  87.4 -27.4  34018  287.16 0861.73
2015 04 09 14 42 38 .42      58      4    -21     59     62  85.6 -24.4  34020  287.20 0861.73
2015 04 09 14 42 38 .67      66      1    -18     67     70  88.3 -15.5  34018  287.16 0861.73
2015 04 09 14 42 38 .92      76      2    -26     77     82  88.3 -18.7  34018  287.16 0861.73
2015 04 09 14 42 39 .17      76      2    -26     77     82  88.3 -18.7  34018  287.16 0861.73
2015 04 09 14 42 39 .43      80      9    -19     81     84  83.0 -13.4  34018  287.16 0861.73
2015 04 09 14 42 39 .68      74     13    -20     76     79  79.4 -15.4  34020  287.21 0861.73
2015 04 09 14 42 39 .93      76      2    -26     77     82  88.3 -18.7  34018  287.16 0861.73
2015 04 09 14 42 40 .18      71      9    -23     72     75  82.1 -23.8  34018  287.16 0861.73
2015 04 09 14 42 40 .43      71      9    -23     72     75  82.1 -23.8  34018  287.16 0861.73
2015 04 09 14 42 40 .68      84     17    -13     86     88  78.5  -8.8  34018  287.18 0861.73
2015 04 09 14 42 40 .93      84     17    -13     86     88  78.5  -8.8  34018  287.18 0861.73
2015 04 09 14 42 41 .18      88     22    -28     91     96  75.4 -17.0  34020  287.20 0861.73
2015 04 09 14 42 41 .43      83     31    -28     89     94  69.2 -17.6  34018  287.16 0861.73
2015 04 09 14 42 41 .68      95     17    -21     97    100  79.4 -12.4  34018  287.18 0861.73
2015 04 09 14 42 41 .93      76     36    -22     85     88  64.7 -14.5  34020  287.20 0861.73
2015 04 09 14 42 42 .18      83     28    -16     88     90  70.9 -10.3  34020  287.20 0861.72
2015 04 09 14 42 42 .43      80      9    -19     81     84  83.0 -13.4  34018  287.16 0861.72
2015 04 09 14 42 42 .69      80      1    -10     81     82  89.1  -7.7  34016  287.15 0861.72
2015 04 09 14 42 42 .94      92     22      0     95     96  76.3  -0.3  34034  287.43 0861.72
2015 04 09 14 42 43 .18      86     21     -3     89     90  75.8  -2.2  34024  287.28 0861.72
2015 04 09 14 42 43 .44      72     24     -4     77     78  71.4  -3.1  34018  287.18 0861.72
2015 04 09 14 42 43 .69      69     27     -2     75     76  68.3  -2.2  34022  287.25 0861.72
2015 04 09 14 42 43 .94      66     18     -8     69     70  74.9  -7.3  34020  287.20 0861.72
2015 04 09 14 42 44 .19      68     22    -14     72     74  71.4 -11.3  34020  287.20 0861.72
2015 04 09 14 42 44 .44      71     24    -21     76     79  70.9 -15.5  34032  287.42 0861.72
2015 04 09 14 42 44 .70      60     29    -21     67     70  63.8 -23.8  34032  287.40 0861.72
2015 04 09 14 42 44 .95      73     13      3     75     76  79.4   2.8  34044  287.62 0861.72
2015 04 09 14 42 45 .20      68      0      3     69     70  90.8   2.9  34046  287.64 0861.72
2015 04 09 14 42 45 .45      83    -12     22     84     87  98.4  14.7  34060  287.89 0861.72
2015 04 09 14 42 45 .70      90    -24     15     94     96 105.1   9.0  34052  287.76 0861.71
2015 04 09 14 42 45 .95     101     -4     18    102    104  92.6  10.1  34072  288.08 0861.71
2015 04 09 14 42 46 .21     110     -8     10    111    112  94.3   5.4  34088  288.36 0861.71
2015 04 09 14 42 46 .45     114    -13     13    115    116  96.6   6.9  34122  288.92 0861.71
2015 04 09 14 42 46 .71     101    -34     21    107    110 108.6  11.1  34134  289.14 0861.71
2015 04 09 14 42 46 .96     123    -16     24    125    128  97.5  11.1  34148  289.38 0861.71
2015 04 09 14 42 47 .21     119    -13     42    120    128  96.6  19.4  34168  289.72 0861.71
2015 04 09 14 42 47 .46     120    -24     44    123    130 101.4  20.0  34168  289.72 0861.71
2015 04 09 14 42 47 .71     116     -7     41    117    125  93.9  19.4  34214  290.48 0861.71
2015 04 09 14 42 47 .96     128    -12     40    129    136  95.7  17.3  34232  290.79 0861.71
2015 04 09 14 42 48 .21     126     -7     47    127    135  93.5  20.9  34246  291.03 0861.71
2015 04 09 14 42 48 .46     126     -8     54    127    138  93.9  24.1  34218  290.57 0861.71
2015 04 09 14 42 48 .71     126      5     48    127    135  87.4  21.0  34150  289.41 0861.71
2015 04 09 14 42 48 .97     118      9     48    119    128  85.6  23.0  34144  289.31 0861.71
2015 04 09 14 42 49 .22     124    -12     59    125    138  95.7  27.1  34226  290.69 0861.71
2015 04 09 14 42 49 .46     125     -9     60    126    139  94.3  27.3  34194  290.14 0861.71
2015 04 09 14 42 49 .72     112    -32     55    117    129 105.9  27.2  34234  290.84 0861.71
2015 04 09 14 42 49 .97      98    -58     61    115    130 120.7  30.3  34282  291.64 0861.71
2015 04 09 14 42 50 .21     105    -48     70    116    135 114.8  34.4  34316  292.22 0861.71
2015 04 09 14 42 50 .46      97    -43     71    107    128 114.0  36.5  34322  292.34 0861.71
2015 04 09 14 42 50 .71     113    -55     61    126    139 116.2  27.3  34180  289.91 0861.71
2015 04 09 14 42 50 .97      97    -43     64    107    124 114.0  33.5  34240  290.94 0861.71
2015 04 09 14 42 51 .22      76    -36     66     85    107 115.4  42.2  34280  291.60 0861.71
2015 04 09 14 42 51 .47      84    -53     64    100    118 122.4  35.6  34266  291.38 0861.71
2015 04 09 14 42 51 .72      81    -56     68     99    120 125.1  37.6  34212  290.47 0861.71
2015 04 09 14 42 51 .97      76    -57     43     96    105 126.9  25.7  34150  289.41 0861.72
2015 04 09 14 42 52 .23      94    -61     58    113    127 122.9  29.3  34124  288.96 0861.72
2015 04 09 14 42 52 .48      81    -66     56    105    119 129.5  30.3  34100  288.55 0861.72
2015 04 09 14 42 52 .73      85    -82     47    119    127 134.0  23.0  34072  288.08 0861.72
2015 04 09 14 42 52 .99     103    -88     56    136    147 130.4  23.1  34118  288.87 0861.72
2015 04 09 14 42 53 .23      99    -72     72    123    142 126.0  32.9  34118  288.86 0861.72
2015 04 09 14 42 53 .48     117    -69     49    136    144 120.7  20.0  34070  288.06 0861.72
2015 04 09 14 42 53 .73      90    -75     58    118    131 129.6  27.8  34058  287.84 0861.72
2015 04 09 14 42 53 .98      91    -85     67    125    141 133.2  30.8  34072  288.09 0861.70
2015 04 09 14 42 54 .23     100    -82     60    130    143 129.5  26.6  34036  287.49 0861.70
2015 04 09 14 42 54 .48     101    -95     56    139    149 133.1  23.0  34052  287.76 0861.70
2015 04 09 14 42 54 .73     103    -77     53    129    139 126.9  23.1  34042  287.57 0861.70
2015 04 09 14 42 54 .98     115    -89     57    146    156 127.8  22.5  34044  287.62 0861.70
2015 04 09 14 42 55 .24     101    -95     62    139    152 133.2  25.7  34082  288.26 0861.70
2015 04 09 14 42 55 .49      67   -131     63    148    160 152.9  24.3  34102  288.58 0861.70
2015 04 09 14 42 55 .73      53   -135     50    146    155 158.6  18.9  34058  287.84 0861.70
2015 04 09 14 42 55 .99      57    -97     38    113    120 149.7  18.9  34034  287.43 0861.70
2015 04 09 14 42 56 .24      69    -79     24    106    109 139.0  13.2  34034  287.43 0861.70
2015 04 09 14 42 56 .49      78    -71     27    106    110 132.2  14.7  34036  287.47 0861.70
2015 04 09 14 42 56 .74      82    -82     10    117    118 134.9   4.9  34042  287.57 0861.70
2015 04 09 14 42 56 .99      69    -95     23    118    121 143.9  11.0  34040  287.54 0861.70
2015 04 09 14 42 57 .24      71    -91     25    116    119 141.7  12.6  34042  287.57 0861.70
2015 04 09 14 42 57 .49      72   -108     25    131    134 146.2  11.0  34042  287.57 0861.70
2015 04 09 14 42 57 .74      72   -108     25    131    134 146.2  11.0  34042  287.57 0861.70
2015 04 09 14 42 57 .99      74   -114     27    136    139 147.0  11.6  34030  287.38 0861.70
2015 04 09 14 42 58 .25      86   -116     42    145    152 143.5  16.3  34032  287.42 0861.70
2015 04 09 14 42 58 .51      78   -122     42    145    152 147.4  16.3  34114  288.79 0861.70
2015 04 09 14 42 58 .75      59   -112     49    127    136 151.9  22.0  34134  289.13 0861.70
2015 04 09 14 42 59 .01      36   -108     70    115    134 161.3  35.0  34198  290.23 0861.70
2015 04 09 14 42 59 .25      54    -88     64    104    122 148.4  34.4  34084  288.30 0861.70
2015 04 09 14 42 59 .51      68    -85     78    110    134 141.3  38.6  34046  287.65 0861.69
2015 04 09 14 42 59 .76      57   -123     74    136    154 155.1  31.3  34160  289.57 0861.69
2015 04 09 14 43 00 .00      47   -100     72    111    132 154.5  35.6  34098  288.53 0861.69
2015 04 09 14 43 00 .26      67    -82     63    106    123 140.8  33.5  34060  287.89 0861.69
2015 04 09 14 43 00 .51      50    -95     67    108    127 152.4  35.5  34146  289.33 0861.69
2015 04 09 14 43 00 .76      -9   -117     77    118    140 184.5  36.0  34234  290.84 0861.69
2015 04 09 14 43 01 .00      26    -82     75     87    114 162.2  44.8  34178  289.89 0861.69
2015 04 09 14 43 01 .26      60   -127     22    141    143 154.5   9.0  34028  287.33 0861.69
2015 04 09 14 43 01 .51      51   -147     11    156    157 160.8   4.4  34058  287.86 0861.69
2015 04 09 14 43 01 .77      47   -143      7    151    152 161.7   2.9  34058  287.84 0861.69
2015 04 09 14 43 02 .01      44   -148     25    155    158 163.5   9.3  34036  287.47 0861.69
2015 04 09 14 43 02 .27      41   -137     46    144    152 163.1  17.9  34064  287.94 0861.69
2015 04 09 14 43 02 .51      29   -122     25    126    129 166.6  11.6  34028  287.35 0861.69
2015 04 09 14 43 02 .76      31   -119     29    123    127 165.3  13.2  34030  287.38 0861.69
2015 04 09 14 43 03 .01      36   -108     22    115    118 161.3  11.0  34034  287.45 0861.69
2015 04 09 14 43 03 .26      59    -93     -8    111    112 147.5  -4.1  34032  287.40 0861.69
2015 04 09 14 43 03 .51      61    -96     -5    115    116 147.5  -2.6  34034  287.43 0861.69
2015 04 09 14 43 03 .77      62    -99     15    117    118 147.9   7.5  34030  287.37 0861.69
2015 04 09 14 43 04 .01      71    -97     10    121    122 144.0   4.9  34038  287.52 0861.69
2015 04 09 14 43 04 .27      74    -74     44    105    113 134.9  23.6  34066  287.99 0861.69
2015 04 09 14 43 04 .52     101    -73     32    125    130 125.9  14.3  34048  287.67 0861.69
2015 04 09 14 43 04 .76      86    -87     19    123    125 135.3   9.0  34060  287.89 0861.69
2015 04 09 14 43 05 .02      87    -88     29    124    128 135.3  13.2  34050  287.70 0861.69
2015 04 09 14 43 05 .26      97    -80     24    126    129 129.5  11.0  34030  287.38 0861.69
2015 04 09 14 43 05 .53      93    -79     33    123    128 130.4  15.3  34030  287.38 0861.69
2015 04 09 14 43 05 .78      84    -75     35    113    119 131.8  17.3  34034  287.43 0861.69
2015 04 09 14 43 06 .03      84    -84     34    120    125 134.9  15.8  34028  287.33 0861.69
2015 04 09 14 43 06 .28     105    -87     16    137    139 129.5   6.9  34034  287.43 0861.69
2015 04 09 14 43 06 .53      87    -77     -2    117    118 131.8  -1.3  34036  287.49 0861.69
2015 04 09 14 43 06 .78      53    -67     29     86     91 141.3  18.9  34036  287.49 0861.69
2015 04 09 14 43 07 .03      77    -76     21    109    112 134.6  11.0  34030  287.37 0861.69
2015 04 09 14 43 07 .28      56    -87     33    104    110 147.4  17.9  34026  287.30 0861.69
2015 04 09 14 43 07 .53      47    -73     32     88     93 147.0  20.0  34028  287.35 0861.69
2015 04 09 14 43 07 .78      39    -93     30    101    106 157.3  16.8  34034  287.43 0861.69
2015 04 09 14 43 08 .03      64    -77     12    101    102 140.4   6.9  34036  287.47 0861.69
2015 04 09 14 43 08 .29      37    -58     24     70     75 147.4  19.4  34034  287.45 0861.69
2015 04 09 14 43 08 .54      31    -80     29     87     92 158.6  18.9  34046  287.65 0861.69
2015 04 09 14 43 08 .79      69    -79     34    106    112 139.0  17.9  34140  289.23 0861.69
2015 04 09 14 43 09 .03     -18    -92     47     94    105 191.5  28.2  34126  288.99 0861.69
2015 04 09 14 43 09 .29     -20    -81     32     84     89 194.3  21.5  34100  288.57 0861.69
2015 04 09 14 43 09 .54     -13    -49     54     51     74 195.1  51.2  34102  288.58 0861.69
2015 04 09 14 43 09 .78      27    -58     46     65     79 154.7  38.6  34086  288.33 0861.69
2015 04 09 14 43 10 .04      44    -53     24     70     75 140.4  19.4  34044  287.62 0861.69
2015 04 09 14 43 10 .29      30    -44     29     54     61 145.7  31.3  34044  287.60 0861.69
2015 04 09 14 43 10 .55       0    -51     52     52     73 180.9  50.1  34090  288.40 0861.69
2015 04 09 14 43 10 .79     -28    -70     32     76     82 201.9  24.1  34120  288.91 0861.69
2015 04 09 14 43 11 .04     -44    -82     56     94    109 208.5  34.0  34132  289.09 0861.69
2015 04 09 14 43 11 .29     -28    -89     47     94    105 197.8  28.2  34134  289.14 0861.68
2015 04 09 14 43 11 .54     -22    -95     16     98    100 193.4   9.5  34120  288.91 0861.68
2015 04 09 14 43 11 .79     -32   -104     13    110    111 197.4   6.9  34122  288.94 0861.68
2015 04 09 14 43 12 .05     -31    -94     29     99    104 198.3  16.3  34118  288.87 0861.68
2015 04 09 14 43 12 .29     -26   -101     36    105    112 194.7  18.9  34126  288.99 0861.68
2015 04 09 14 43 12 .55     -24    -90     29     94     99 195.1  17.3  34116  288.82 0861.68
2015 04 09 14 43 12 .80     -39   -112     10    119    120 199.2   5.0  34086  288.31 0861.68
2015 04 09 14 43 13 .06     -53   -100      5    114    115 208.1   2.9  34050  287.72 0861.68
2015 04 09 14 43 13 .30     -56    -85      1    103    104 213.4   0.8  34068  288.01 0861.68
2015 04 09 14 43 13 .56     -54    -82      4     99    100 213.4   2.3  34056  287.81 0861.68
2015 04 09 14 43 13 .81     -57    -90     20    107    110 212.6  11.0  34080  288.23 0861.68
2015 04 09 14 43 14 .06     -15   -108      7    110    111 188.0   3.8  34090  288.40 0861.68
2015 04 09 14 43 14 .31     -33    -98     18    104    106 198.7  10.1  34110  288.72 0861.68
2015 04 09 14 43 14 .56     -47    -82     26     95     99 209.9  15.8  34102  288.58 0861.68
2015 04 09 14 43 14 .81     -48    -75     11     90     91 212.5   7.5  34070  288.06 0861.68
2015 04 09 14 43 15 .06     -53    -56    -23     78     82 223.3 -17.0  34078  288.18 0861.68
2015 04 09 14 43 15 .31     -55    -63    -16     84     86 221.0 -10.9  34044  287.62 0861.68
2015 04 09 14 43 15 .56     -63    -56     -3     85     86 228.2  -2.6  34044  287.60 0861.68
2015 04 09 14 43 15 .81     -63    -56      1     85     86 228.2   1.2  34050  287.72 0861.68
2015 04 09 14 43 16 .06     -45    -45     -8     64     65 225.1  -7.3  34052  287.76 0861.68
2015 04 09 14 43 16 .31     -40    -48     -2     63     64 219.6  -2.2  34054  287.77 0861.68
2015 04 09 14 43 16 .56     -37    -51      0     64     65 216.0   0.8  34062  287.91 0861.68
2015 04 09 14 43 16 .81     -28    -35    -14     46     48 218.7 -23.8  34058  287.86 0861.68
2015 04 09 14 43 17 .07      -4    -52     -6     53     54 184.5  -7.3  34072  288.08 0861.68
2015 04 09 14 43 17 .31       4    -53    -18     54     58 175.5 -18.7  34062  287.91 0861.68
2015 04 09 14 43 17 .57      -2    -50    -17     51     54 182.7 -18.7  34052  287.74 0861.68
2015 04 09 14 43 17 .82     -18    -44     -1     48     49 202.7  -2.2  34066  287.99 0861.68
2015 04 09 14 43 18 .06     -20    -44      6     49     50 204.5   8.0  34068  288.01 0861.68
2015 04 09 14 43 18 .33     -19    -57      8     61     62 198.5   8.0  34094  288.47 0861.68
2015 04 09 14 43 18 .57     -29    -73     26     79     84 201.8  18.4  34128  289.02 0861.68
2015 04 09 14 43 18 .82     -19    -95     16     98    100 191.6   9.5  34140  289.23 0861.68
2015 04 09 14 43 19 .07     -15   -101     14    103    105 188.9   8.0  34144  289.31 0861.68
2015 04 09 14 43 19 .32     -34    -87     22     94     97 201.4  13.7  34154  289.46 0861.68
2015 04 09 14 43 19 .58     -27    -83     25     88     92 198.5  16.3  34170  289.74 0861.68
2015 04 09 14 43 19 .83     -25    -64     34     69     76 201.8  27.3  34170  289.74 0861.68
2015 04 09 14 43 20 .08     -36    -74     45     83     94 206.3  31.4  34158  289.55 0861.68
2015 04 09 14 43 20 .34     -26    -77     42     82     92 198.7  28.7  34188  290.06 0861.68
2015 04 09 14 43 20 .59     -30    -64     44     71     83 205.4  34.4  34216  290.52 0861.68
2015 04 09 14 43 20 .84     -30    -65     57     72     91 205.4  42.7  34246  291.04 0861.68
2015 04 09 14 43 21 .08     -41    -64     68     77    102 212.6  46.4  34234  290.84 0861.68
2015 04 09 14 43 21 .33     -38    -69     63     79    101 209.0  43.3  34184  289.97 0861.68
2015 04 09 14 43 21 .59     -38    -53     63     66     91 215.2  49.0  34216  290.52 0861.68
2015 04 09 14 43 21 .84     -32    -50     70     60     92 212.6  54.8  34234  290.82 0861.68
2015 04 09 14 43 22 .09     -20    -45     63     50     80 204.5  57.5  34216  290.53 0861.68
2015 04 09 14 43 22 .34     -23    -40     59     47     75 209.9  56.4  34254  291.16 0861.68
2015 04 09 14 43 22 .58     -19    -31     60     37     70 212.6  64.7  34242  290.98 0861.68
2015 04 09 14 43 22 .84       0    -28     52     29     59 180.9  68.8  34202  290.28 0861.68
2015 04 09 14 43 23 .09       1    -20     36     21     41 175.5  67.7  34210  290.41 0861.68
2015 04 09 14 43 23 .34      10    -16     30     20     36 147.5  64.6  34194  290.16 0861.68
2015 04 09 14 43 23 .59      -2    -32     42     33     53 184.5  56.4  34176  289.84 0861.68
2015 04 09 14 43 23 .84     -14    -22     39     27     47 212.5  62.6  34172  289.79 0861.68
2015 04 09 14 43 24 .09       3     -8     26      9     27 154.6  81.0  34200  290.26 0861.68
2015 04 09 14 43 24 .34      -2    -16     23     17     28 188.0  58.5  34196  290.19 0861.68
2015 04 09 14 43 24 .60     -13    -28     44     32     54 205.5  60.5  34194  290.14 0861.68
2015 04 09 14 43 24 .84      -9    -32     38     34     50 196.9  53.3  34194  290.16 0861.68
2015 04 09 14 43 25 .09     -11    -34     28     36     45 198.3  41.7  34164  289.65 0861.68
2015 04 09 14 43 25 .34      -8    -40     18     41     44 191.6  24.1  34174  289.80 0861.68
2015 04 09 14 43 25 .59       1    -20      9     21     22 175.5  23.0  34174  289.82 0861.68
2015 04 09 14 43 25 .84       2    -36     16     37     40 175.6  25.1  34170  289.74 0861.68
2015 04 09 14 43 26 .10       7    -37     14     38     40 168.5  21.0  34168  289.70 0861.68
2015 04 09 14 43 26 .36       0    -60     25     61     65 180.9  23.0  34192  290.11 0861.68
2015 04 09 14 43 26 .60     -19    -57     43     61     74 198.7  38.6  34208  290.38 0861.68
2015 04 09 14 43 26 .86      -8    -57     45     58     73 188.0  42.7  34202  290.30 0861.68
2015 04 09 14 43 27 .11      13    -50     34     52     62 164.9  36.5  34218  290.55 0861.68
2015 04 09 14 43 27 .36     -29    -45     32     54     62 212.5  33.5  34218  290.57 0861.68
2015 04 09 14 43 27 .61     -24      0     33     25     41 269.2  58.5  34230  290.77 0861.68
2015 04 09 14 43 27 .86     -24      1     29     25     38 274.4  54.3  34236  290.86 0861.68
2015 04 09 14 43 28 .11     -25     39     29     47     55 327.4  35.5  34230  290.77 0861.68
2015 04 09 14 43 28 .36     -52     28    -16     60     63 298.9 -15.4  34226  290.69 0861.68
2015 04 09 14 43 28 .62     -40     25     10     48     50 301.5  12.2  34232  290.81 0861.68
2015 04 09 14 43 28 .86     -41     16     12     45     47 291.7  15.3  34246  291.03 0861.68
2015 04 09 14 43 29 .11     -30     13     30     33     44 293.5  47.9  34252  291.15 0861.68
2015 04 09 14 43 29 .36     -24      1      8     25     27 274.4  18.9  34264  291.33 0861.68
2015 04 09 14 43 29 .61     -24    -14      9     28     30 239.3  19.2  34250  291.11 0861.68
2015 04 09 14 43 29 .86     -59    -23     -5     64     65 248.2  -5.2  34102  288.58 0861.68
2015 04 09 14 43 30 .11     -65    -36     -4     75     76 241.1  -3.1  34072  288.08 0861.68
2015 04 09 14 43 30 .36     -75    -47    -11     89     90 237.6  -7.2  34066  287.99 0861.68
2015 04 09 14 43 30 .61     -77    -44     -6     89     90 240.2  -4.1  34064  287.94 0861.68
2015 04 09 14 43 30 .86     -76    -43    -21     88     91 240.2 -13.9  34064  287.94 0861.68
2015 04 09 14 43 31 .12     -88    -56    -13    105    106 237.6  -7.2  34120  288.91 0861.68
2015 04 09 14 43 31 .36    -100    -42     -8    109    110 246.9  -4.6  34102  288.60 0861.68
2015 04 09 14 43 31 .62    -105    -28    -22    109    112 254.9 -11.3  34100  288.57 0861.68
2015 04 09 14 43 31 .87    -115    -24    -14    118    119 258.1  -7.2  34102  288.60 0861.68
2015 04 09 14 43 32 .13     -90    -57    -13    107    108 237.6  -7.2  34142  289.28 0861.68
2015 04 09 14 43 32 .37     -94    -42    -21    104    107 245.6 -11.3  34154  289.48 0861.68
2015 04 09 14 43 32 .62     -93    -48    -31    105    110 242.5 -16.6  34146  289.33 0861.68
2015 04 09 14 43 32 .87     -90    -57      1    107    108 237.6   0.8  34180  289.92 0861.68
2015 04 09 14 43 33 .13     -74    -40     16     85     87 241.2  11.1  34196  290.19 0861.68
2015 04 09 14 43 33 .38     -50    -55     53     75     91 222.3  39.1  34204  290.31 0861.68
2015 04 09 14 43 33 .63     -54    -52      3     76     77 225.9   2.9  34158  289.55 0861.68
2015 04 09 14 43 33 .89     -22    -21      1     31     32 226.9   2.9  34176  289.84 0861.68
2015 04 09 14 43 34 .14     -32      0      6     33     34 270.8  11.1  34214  290.48 0861.68
2015 04 09 14 43 34 .39     -51    -12    -17     53     55 255.8 -23.8  34218  290.57 0861.68
2015 04 09 14 43 34 .64     -29     -9     -4     31     32 251.6  -7.3  34210  290.41 0861.68
2015 04 09 14 43 34 .89     -18      9     14     21     25 297.1  35.6  34200  290.25 0861.68
2015 04 09 14 43 35 .14     -40     25      3     48     49 302.4   3.8  34188  290.04 0861.68
2015 04 09 14 43 35 .39     -16     38     24     42     48 336.4  33.5  34194  290.14 0861.68
2015 04 09 14 43 35 .64     -28     42     26     51     57 325.7  28.2  34236  290.87 0861.68
2015 04 09 14 43 35 .89    -103     25     -4    106    107 283.7  -2.2  34190  290.08 0861.68
2015 04 09 14 43 36 .14     -45     48     -8     67     68 316.7  -7.3  34182  289.96 0861.68
2015 04 09 14 43 36 .39     -34     53     -3     64     65 327.5  -3.1  34178  289.89 0861.68
2015 04 09 14 43 36 .64     -60     38      3     72     73 302.4   2.8  34180  289.92 0861.68
2015 04 09 14 43 36 .89    -106     26     -1    110    111 283.7  -0.7  34170  289.74 0861.68
2015 04 09 14 43 37 .14     -81     45     -9     93     94 299.3  -5.6  34180  289.91 0861.68
2015 04 09 14 43 37 .40     -22     24     10     33     35 316.8  17.3  34196  290.19 0861.68
2015 04 09 14 43 37 .64     -14     27    -19     31     36 332.8 -39.9  34194  290.16 0861.68
2015 04 09 14 43 37 .89      11     16      4     20     21  36.1  13.2  34200  290.25 0861.68
2015 04 09 14 43 38 .14      14     31    -12     35     37  25.3 -23.6  34206  290.36 0861.68
2015 04 09 14 43 38 .39     -17     83    -16     85     87 348.0 -10.9  34194  290.14 0861.68
2015 04 09 14 43 38 .65    -153     71    -43    169    175 295.1 -14.5  34148  289.36 0861.68
2015 04 09 14 43 38 .89    -168     94    -35    193    197 299.3 -10.3  34110  288.74 0861.68
2015 04 09 14 43 39 .15    -171    130    -19    215    216 307.3  -5.2  34074  288.11 0861.68
2015 04 09 14 43 39 .40    -179    132    -20    223    224 306.4  -5.2  34064  287.94 0861.68
2015 04 09 14 43 39 .65    -163    123    -28    205    208 307.1  -8.0  34066  287.98 0861.68
2015 04 09 14 43 39 .90    -154    109    -10    189    190 305.3  -3.1  34070  288.06 0861.68
2015 04 09 14 43 40 .15    -132    119    -21    179    181 312.0  -6.9  34078  288.18 0861.68
2015 04 09 14 43 40 .41    -126    102    -15    163    164 309.1  -5.4  34062  287.91 0861.68
2015 04 09 14 43 40 .66     -86    104      0    136    137 320.4  -0.3  34114  288.80 0861.68
2015 04 09 14 43 40 .91    -128     96    -11    161    162 306.9  -3.9  34074  288.13 0861.68
2015 04 09 14 43 41 .16    -135     93    -11    165    166 304.6  -3.9  34052  287.76 0861.68
2015 04 09 14 43 41 .41    -135    120    -23    181    183 311.6  -7.3  34048  287.67 0861.69
2015 04 09 14 43 41 .66    -166    128    -24    210    212 307.8  -6.7  34050  287.70 0861.69
2015 04 09 14 43 41 .91    -199     91    -29    219    221 294.6  -7.7  34070  288.04 0861.69
2015 04 09 14 43 42 .16    -180    137    -15    227    228 307.3  -3.9  34070  288.06 0861.69
2015 04 09 14 43 42 .42    -136    145     -6    200    201 316.8  -1.8  34066  287.98 0861.69
2015 04 09 14 43 42 .68     -98    178    -13    204    205 331.1  -3.7  34154  289.46 0861.69
2015 04 09 14 43 42 .92     -94    191    -19    214    215 333.7  -5.2  34196  290.18 0861.69
2015 04 09 14 43 43 .17     -51    198     -5    205    206 345.3  -1.6  34252  291.15 0861.69
2015 04 09 14 43 43 .42       1    161     57    162    172   0.5  19.6  34278  291.57 0861.69
2015 04 09 14 43 43 .67     -18    206     54    207    214 354.9  14.7  34156  289.50 0861.69
2015 04 09 14 43 43 .92     -18    267     57    268    275 356.0  12.0  34210  290.41 0861.69
2015 04 09 14 43 44 .16     -27    250     19    252    253 353.8   4.4  34114  288.80 0861.69
2015 04 09 14 43 44 .42       0    236    -24    237    239 359.8  -6.0  34088  288.36 0861.69
2015 04 09 14 43 44 .67       9    236    -28    237    239   2.2  -6.9  34088  288.36 0861.69
2015 04 09 14 43 44 .92      11    196    -25    197    199   3.4  -7.3  34096  288.48 0861.69
2015 04 09 14 43 45 .17      14    199    -24    200    202   4.0  -6.9  34102  288.60 0861.69
2015 04 09 14 43 45 .42       6    179    -14    180    181   2.0  -4.6  34098  288.53 0861.69
2015 04 09 14 43 45 .67     -13    195    -20    196    198 356.0  -6.0  34066  287.99 0861.69
2015 04 09 14 43 45 .92       2    165    -56    166    176   0.9 -18.7  34060  287.89 0861.69
2015 04 09 14 43 46 .17      -9    181    -33    182    186 357.1 -10.5  34060  287.87 0861.69
2015 04 09 14 43 46 .42     -17    193     -3    194    195 354.9  -1.2  34062  287.91 0861.69
2015 04 09 14 43 46 .67       8    205    -15    206    207   2.2  -4.4  34058  287.84 0861.69
2015 04 09 14 43 46 .92      22    205      0    207    208   6.2  -0.3  34056  287.81 0861.69
2015 04 09 14 43 47 .19      22    189      9    191    192   6.7   2.8  34090  288.38 0861.69
2015 04 09 14 43 47 .43      12    165     21    166    168   4.5   7.5  34090  288.40 0861.69
2015 04 09 14 43 47 .69      -2    153      7    154    155 359.1   2.8  34082  288.26 0861.69
2015 04 09 14 43 47 .94     -23    149     18    151    153 351.1   7.1  34094  288.47 0861.69
2015 04 09 14 43 48 .19     -30    151     20    155    157 348.5   7.5  34120  288.91 0861.69
2015 04 09 14 43 48 .44     -50    148     81    157    176 341.3  29.3  34202  290.30 0861.69
2015 04 09 14 43 48 .68     -26    155     82    158    178 350.3  29.8  34184  289.99 0861.69
2015 04 09 14 43 48 .94     -38    135     80    141    162 344.0  32.1  34166  289.67 0861.69
2015 04 09 14 43 49 .19     -36    152     86    157    179 346.7  31.3  34188  290.04 0861.69
2015 04 09 14 43 49 .44     -49    165     68    173    185 343.3  22.5  34182  289.94 0861.69
2015 04 09 14 43 49 .69     -23    164     57    166    176 351.8  19.2  34122  288.94 0861.69
2015 04 09 14 43 49 .94     -38    170     61    175    186 347.3  19.2  34112  288.77 0861.69
2015 04 09 14 43 50 .20     -48    183     63    190    201 345.3  18.4  34214  290.48 0861.69
2015 04 09 14 43 50 .44     -51    161     43    169    175 342.4  14.3  34214  290.50 0861.69
2015 04 09 14 43 50 .69     -91    161      6    186    187 330.4   2.1  34176  289.84 0861.69
2015 04 09 14 43 50 .95    -139    177    -12    226    227 321.9  -3.2  34120  288.89 0861.69
2015 04 09 14 43 51 .20    -171    169    -27    241    243 314.7  -6.5  34090  288.37 0861.69
2015 04 09 14 43 51 .44    -146    236    -45    278    282 328.3  -9.3  34084  288.27 0861.70
2015 04 09 14 43 51 .69    -144    233    -98    274    292 328.3 -19.7  34068  288.02 0861.70
2015 04 09 14 43 51 .95    -171    188    -50    255    260 317.7 -11.1  34074  288.12 0861.70
2015 04 09 14 43 52 .20    -108    202    -39    230    234 331.9  -9.8  34094  288.45 0861.70
2015 04 09 14 43 52 .45    -183    252    -40    312    315 323.9  -7.3  34090  288.39 0861.70
2015 04 09 14 43 52 .70    -160    245    -78    293    304 326.8 -15.0  34080  288.22 0861.70
2015 04 09 14 43 52 .95    -141    245    -62    283    290 330.1 -12.4  34076  288.15 0861.70
2015 04 09 14 43 53 .20    -122    247    -35    276    279 333.7  -7.3  34082  288.26 0861.70
2015 04 09 14 43 53 .45    -190    230    -70    299    308 320.4 -13.3  34068  288.02 0861.70
2015 04 09 14 43 53 .70    -229    188    -65    297    305 309.5 -12.4  34070  288.05 0861.70
2015 04 09 14 43 53 .95    -198    197    -48    280    285 314.9  -9.8  34074  288.12 0861.70
2015 04 09 14 43 54 .21    -220    181    -47    286    290 309.5  -9.3  34072  288.09 0861.70
2015 04 09 14 43 54 .46    -232    183    -69    296    304 308.4 -13.2  34070  288.05 0861.70
2015 04 09 14 43 54 .71    -246    191    -36    312    315 307.8  -6.7  34070  288.04 0861.70
2015 04 09 14 43 54 .96    -230    190    -17    299    300 309.6  -3.3  34074  288.12 0861.70
2015 04 09 14 43 55 .22    -236    177    -26    296    298 306.9  -5.2  34076  288.15 0861.69
2015 04 09 14 43 55 .47    -138    175     14    223    224 321.7   3.6  34090  288.40 0861.69
2015 04 09 14 43 55 .71    -161    188      7    248    249 319.5   1.8  34102  288.59 0861.69
2015 04 09 14 43 55 .97    -275    222    -27    354    355 309.0  -4.4  34092  288.42 0861.69
2015 04 09 14 43 56 .21    -268    184    -24    326    327 304.5  -4.4  34084  288.27 0861.69
2015 04 09 14 43 56 .47    -268    201    -56    335    340 306.9  -9.6  34078  288.18 0861.69
2015 04 09 14 43 56 .72    -264    200    -50    332    336 307.2  -8.7  34068  288.03 0861.69
2015 04 09 14 43 56 .97    -265    218    -67    344    351 309.5 -11.1  34074  288.13 0861.69
2015 04 09 14 43 57 .22    -231    192    -91    301    315 309.6 -17.0  34076  288.14 0861.69
2015 04 09 14 43 57 .47    -188    224    -93    293    308 319.9 -17.6  34082  288.24 0861.69
2015 04 09 14 43 57 .72    -219    178    -50    283    288 309.1 -10.1  34088  288.36 0861.69
2015 04 09 14 43 57 .97    -240    193    -47    309    313 308.9  -8.8  34096  288.48 0861.69
2015 04 09 14 43 58 .22    -225    211    -66    309    317 313.2 -12.2  34094  288.44 0861.69
2015 04 09 14 43 58 .47    -202    229    -73    306    315 318.6 -13.4  34088  288.36 0861.69
2015 04 09 14 43 58 .72    -203    203    -37    288    291 315.0  -7.3  34090  288.39 0861.69
2015 04 09 14 43 58 .97    -174    245    -68    301    309 324.6 -12.9  34088  288.36 0861.69
2015 04 09 14 43 59 .22    -198    230    -50    304    309 319.2  -9.3  34082  288.24 0861.69
2015 04 09 14 43 59 .47    -223    202    -60    301    308 312.2 -11.3  34032  287.39 0861.69
2015 04 09 14 43 59 .72    -227    206    -78    307    317 312.3 -14.3  34030  287.38 0861.69
2015 04 09 14 43 59 .97    -223    209    -62    306    313 313.1 -11.5  34026  287.29 0861.69
2015 04 09 14 44 00 .22    -199    225    -93    301    316 318.5 -17.3  34050  287.70 0861.69
2015 04 09 14 44 00 .47    -193    182    -78    266    277 313.2 -21.2  34030  287.38 0861.69
2015 04 09 14 44 00 .73    -177    161    -82    240    254 312.4 -18.9  34038  287.50 0861.69
2015 04 09 14 44 00 .97    -181    172    -55    250    257 313.6 -12.4  34060  287.87 0861.69
2015 04 09 14 44 01 .24    -172    145    -62    226    235 310.2 -15.4  34052  287.76 0861.69
2015 04 09 14 44 01 .48    -173    133    -81    219    233 307.7 -25.4  34052  287.76 0861.69
2015 04 09 14 44 01 .74    -171    129    -72    215    226 307.1 -23.6  34046  287.65 0861.69
2015 04 09 14 44 01 .99    -173    133    -46    219    224 307.7 -11.9  34076  288.16 0861.69
2015 04 09 14 44 02 .24    -144    158      3    215    216 317.7   0.8  34110  288.74 0861.69
2015 04 09 14 44 02 .49    -193    192    -29    273    275 314.8  -6.2  34104  288.63 0861.68
2015 04 09 14 44 02 .74    -165    225    -66    280    288 323.7 -13.4  34110  288.73 0861.68
2015 04 09 14 44 02 .99    -137    273    -44    306    310 333.3  -8.2  34094  288.44 0861.68
2015 04 09 14 44 03 .24    -103    216    -37    240    243 334.5  -8.8  34108  288.70 0861.68
2015 04 09 14 44 03 .49    -154    167    -36    228    231 317.2  -9.0  34098  288.53 0861.68
2015 04 09 14 44 03 .74    -141    164    -39    217    221 319.2 -10.3  34096  288.50 0861.68
2015 04 09 14 44 03 .99    -169    155    -17    230    231 312.7  -4.4  34082  288.26 0861.68
2015 04 09 14 44 04 .24    -146    139     15    202    203 313.6   4.4  34072  288.08 0861.68
2015 04 09 14 44 04 .50    -188    176    -25    258    260 313.1  -5.6  34072  288.09 0861.68
2015 04 09 14 44 04 .75    -147    139     26    203    205 313.6   7.5  34100  288.57 0861.68
2015 04 09 14 44 05 .00    -154    153     -4    218    219 314.9  -1.2  34066  287.99 0861.68
2015 04 09 14 44 05 .25    -194    137     -9    238    239 305.3  -2.2  34050  287.71 0861.68
2015 04 09 14 44 05 .50    -151    133     24    202    204 311.3   6.9  34060  287.89 0861.68
2015 04 09 14 44 05 .75    -154    154     28    219    221 315.0   7.5  34062  287.92 0861.68
2015 04 09 14 44 06 .00    -174    153    -29    232    234 311.3  -7.3  34086  288.32 0861.68
2015 04 09 14 44 06 .25    -108    178    -56    209    217 328.8 -15.0  34080  288.23 0861.68
2015 04 09 14 44 06 .50    -102    137     24    171    173 323.3   8.2  34096  288.48 0861.68
2015 04 09 14 44 06 .75    -113    173    -38    207    211 326.8 -10.5  34052  287.76 0861.68
2015 04 09 14 44 07 .00    -109    197    -43    226    231 331.0 -10.9  34048  287.67 0861.68
2015 04 09 14 44 07 .25    -154    174    -21    233    235 318.6  -5.4  34064  287.95 0861.68
2015 04 09 14 44 07 .50    -150    193    -49    245    250 322.1 -11.3  34034  287.43 0861.68
2015 04 09 14 44 07 .76    -136    210    -46    251    256 327.0 -10.5  34040  287.53 0861.69
2015 04 09 14 44 08 .00    -118    199    -54    232    239 329.2 -13.2  34050  287.70 0861.69
2015 04 09 14 44 08 .26     -88    182    -52    203    210 334.1 -14.5  34048  287.67 0861.69
2015 04 09 14 44 08 .51    -110    173    -42    206    211 327.5 -11.5  34046  287.64 0861.69
2015 04 09 14 44 08 .76    -103    180    -49    208    214 330.1 -13.4  34036  287.49 0861.69
2015 04 09 14 44 09 .02     -84    173    -46    193    199 333.9 -13.4  34038  287.52 0861.69
2015 04 09 14 44 09 .26     -84    173    -30    193    196 334.1  -8.8  34038  287.52 0861.69
2015 04 09 14 44 09 .51     -80    165    -33    184    187 334.1 -10.3  34034  287.43 0861.69
2015 04 09 14 44 09 .76     -80    165    -33    184    187 334.1 -10.3  34034  287.43 0861.69
2015 04 09 14 44 10 .01     -95    157    -42    184    189 328.6 -12.9  34038  287.52 0861.69
2015 04 09 14 44 10 .26     -93    161    -38    187    191 329.9 -11.5  34036  287.49 0861.69
2015 04 09 14 44 10 .52     -97    152    -36    181    185 327.5 -11.3  34042  287.57 0861.69
2015 04 09 14 44 10 .77    -122    159    -47    201    207 322.6 -13.3  34042  287.57 0861.69
2015 04 09 14 44 11 .02    -150    150    -43    213    218 315.0 -11.6  34092  288.42 0861.69
2015 04 09 14 44 11 .27    -105    143    -54    178    186 323.7 -21.7  34090  288.40 0861.69
2015 04 09 14 44 11 .52    -152     79    -45    172    178 297.5 -14.7  34110  288.74 0861.69
2015 04 09 14 44 11 .77    -114     64    -25    131    134 299.3 -10.9  34112  288.77 0861.69
2015 04 09 14 44 12 .02     -47    100     88    111    141 334.6  42.7  34134  289.14 0861.69
2015 04 09 14 44 12 .27     -53     96    100    110    148 331.0  47.9  34142  289.26 0861.69
2015 04 09 14 44 12 .52     -82    122     41    148    154 326.2  15.8  34126  289.01 0861.69
2015 04 09 14 44 12 .77     -52     82      0     98     99 327.4  -0.3  34122  288.92 0861.69
2015 04 09 14 44 13 .03    -276     81    -57    288    294 286.4 -11.3  34076  288.14 0861.69
2015 04 09 14 44 13 .28    -157     29    -29    160    163 280.6 -10.3  34102  288.58 0861.69
2015 04 09 14 44 13 .76     -18    -18     35     26     43 225.0  59.4  34118  288.86 0861.69
2015 04 09 14 44 13 .80     -84    -27    -18     89     91 251.8 -11.9  34096  288.50 0861.69
2015 04 09 14 44 14 .03    -261     49    -20    266    267 280.8  -4.4  34050  287.71 0861.69
2015 04 09 14 44 14 .30    -292     97    -47    308    312 288.4  -8.8  34026  287.29 0861.69
2015 04 09 14 44 14 .53    -256     68    -24    265    267 285.0  -5.4  34072  288.09 0861.69
2015 04 09 14 44 14 .78    -227     29    -12    229    230 277.5  -3.1  34070  288.04 0861.69
2015 04 09 14 44 15 .04    -271     77    -25    282    284 285.9  -5.2  34050  287.71 0861.69
2015 04 09 14 44 15 .29    -309     73    -25    318    320 283.3  -4.6  34044  287.60 0861.69
2015 04 09 14 44 15 .54    -315     58    -49    321    325 280.5  -8.7  34036  287.48 0861.69
2015 04 09 14 44 15 .79    -311     86    -53    323    328 285.5  -9.3  34036  287.46 0861.69
2015 04 09 14 44 16 .04    -293     87    -66    306    314 286.6 -12.3  34032  287.41 0861.68
2015 04 09 14 44 16 .29    -296     89    -53    310    315 286.8  -9.8  34050  287.71 0861.68
2015 04 09 14 44 16 .54    -271     50    -60    276    283 280.6 -12.4  34034  287.44 0861.68
2015 04 09 14 44 16 .79    -255     58    -61    262    270 283.0 -13.3  34080  288.21 0861.68
2015 04 09 14 44 17 .04    -239     23    -36    241    244 275.7  -8.6  34086  288.32 0861.68
2015 04 09 14 44 17 .29    -179     27    -11    182    183 278.8  -3.7  34094  288.45 0861.68
2015 04 09 14 44 17 .55    -181     40    -14    186    187 282.6  -4.4  34098  288.53 0861.68
2015 04 09 14 44 17 .80    -253     29    -27    255    257 276.6  -6.2  34106  288.65 0861.68
2015 04 09 14 44 18 .05    -218     57    -46    226    231 284.8 -11.6  34124  288.96 0861.68
2015 04 09 14 44 18 .30    -121     20    -16    123    125 279.7  -7.7  34126  289.01 0861.68
2015 04 09 14 44 18 .54    -170     33    -13    174    175 281.2  -4.4  34118  288.86 0861.68
2015 04 09 14 44 18 .80    -225     40    -50    229    235 280.1 -12.4  34098  288.53 0861.68
2015 04 09 14 44 19 .05    -227     41    -42    231    235 280.4 -10.5  34100  288.56 0861.68
2015 04 09 14 44 19 .30    -247     52    -87    253    268 281.9 -19.1  34046  287.65 0861.68
2015 04 09 14 44 19 .55    -271     72    -92    281    295 285.1 -23.3  34038  287.50 0861.68
2015 04 09 14 44 19 .80    -254     72    -94    265    282 285.9 -19.7  34038  287.51 0861.68
2015 04 09 14 44 20 .05    -268     85    -90    282    296 287.7 -22.9  34044  287.61 0861.68
2015 04 09 14 44 20 .30    -258     82    -98    271    288 287.7 -25.3  34060  287.88 0861.68
2015 04 09 14 44 20 .55    -236     77   -112    249    273 288.2 -30.3  34082  288.24 0861.68
2015 04 09 14 44 20 .80    -207     85    -92    224    242 292.4 -28.0  34116  288.81 0861.68
2015 04 09 14 44 21 .05    -220    116    -86    249    263 297.9 -23.8  34110  288.73 0861.68
2015 04 09 14 44 21 .30    -194    105   -101    221    242 298.4 -30.6  34112  288.76 0861.68
2015 04 09 14 44 21 .55    -153    110    -91    189    209 305.7 -31.7  34104  288.64 0861.68
2015 04 09 14 44 21 .80    -142    100    -76    174    189 305.3 -29.7  34122  288.92 0861.68
2015 04 09 14 44 22 .06    -152     67    -72    167    181 294.0 -29.0  34088  288.35 0861.68
2015 04 09 14 44 22 .32    -127     60    -56    141    151 295.2 -27.4  34096  288.48 0861.68
2015 04 09 14 44 22 .56    -162     54    -54    171    179 288.4 -22.5  34088  288.35 0861.68
2015 04 09 14 44 22 .82    -157     44    -57    164    173 285.9 -23.8  34086  288.31 0861.68
2015 04 09 14 44 23 .06    -188      3    -61    189    199 271.0 -18.1  34062  287.92 0861.68
2015 04 09 14 44 23 .31    -186     13    -50    187    194 274.1 -15.2  34060  287.89 0861.68
2015 04 09 14 44 23 .57    -184     36    -44    188    194 281.2 -13.2  34082  288.26 0861.68
2015 04 09 14 44 23 .82    -163     43    -46    169    176 285.1 -15.4  34110  288.72 0861.68
2015 04 09 14 44 24 .07    -208     43    -42    213    218 281.7 -11.3  34098  288.53 0861.68
2015 04 09 14 44 24 .32    -180     60    -34    190    194 288.4 -10.1  34096  288.50 0861.68
2015 04 09 14 44 24 .57    -204     75    -35    218    221 290.2  -9.3  34110  288.74 0861.68
2015 04 09 14 44 24 .82    -211     92    -39    231    235 293.5  -9.6  34088  288.36 0861.68
2015 04 09 14 44 25 .07    -221     66    -41    231    235 286.8 -10.3  34080  288.22 0861.68
2015 04 09 14 44 25 .33    -211     71    -36    223    227 288.6  -9.3  34098  288.53 0861.68
2015 04 09 14 44 25 .57    -232     47    -34    237    240 281.5  -8.3  34078  288.19 0861.68
2015 04 09 14 44 25 .82    -240     70    -50    251    257 286.4 -11.3  34070  288.04 0861.68
2015 04 09 14 44 26 .07    -194     84    -26    212    214 293.5  -7.2  34080  288.21 0861.68
2015 04 09 14 44 26 .32    -126     51    -14    137    138 292.2  -6.2  34084  288.30 0861.68
2015 04 09 14 44 26 .58     -75     24    -21     79     82 288.2 -15.5  34106  288.65 0861.68
2015 04 09 14 44 26 .83     -55     18    -21     59     62 288.6 -24.4  34120  288.91 0861.68
2015 04 09 14 44 27 .08     -20     12      4     24     25 302.5  11.1  34142  289.28 0861.68
2015 04 09 14 44 27 .33     -14     39     -3     42     43 339.1  -4.1  34160  289.57 0861.68
2015 04 09 14 44 27 .58     -31     93      6     99    100 341.3   3.8  34158  289.55 0861.68
2015 04 09 14 44 27 .83     -58    103     -2    119    120 330.6  -1.3  34156  289.52 0861.68
2015 04 09 14 44 28 .08    -150    125    -43    196    201 309.6 -12.6  34156  289.52 0861.68
2015 04 09 14 44 28 .33    -106    176    -68    206    217 328.8 -18.3  34108  288.70 0861.68
2015 04 09 14 44 28 .58    -116    180    -35    215    218 327.3  -9.3  34176  289.85 0861.69
2015 04 09 14 44 28 .83    -102    155    -17    186    187 326.6  -5.4  34150  289.41 0861.69
2015 04 09 14 44 29 .08     -96    175    -21    200    202 331.1  -6.2  34102  288.58 0861.69
2015 04 09 14 44 29 .34     -78    141    -44    162    168 331.1 -15.2  34046  287.65 0861.69
2015 04 09 14 44 29 .59     -81    136    -37    159    164 329.3 -13.2  34042  287.59 0861.69
2015 04 09 14 44 29 .84     -54    135    -52    146    156 338.2 -19.7  34044  287.62 0861.69
2015 04 09 14 44 30 .09     -29    142    -40    146    152 348.4 -15.4  34044  287.62 0861.69
2015 04 09 14 44 30 .34     -38    114    -32    121    126 341.3 -15.0  34046  287.65 0861.69
2015 04 09 14 44 30 .59     -49    118    -21    129    131 337.3  -9.3  34042  287.59 0861.69
2015 04 09 14 44 30 .84     -43    118     -6    126    127 339.9  -3.1  34044  287.62 0861.69
2015 04 09 14 44 31 .10     -31    116      6    121    122 344.9   2.9  34044  287.62 0861.69
2015 04 09 14 44 31 .35     -31    154     26    158    161 348.4   9.3  34050  287.72 0861.69
2015 04 09 14 44 31 .59     -40    148     25    154    157 344.9   9.3  34054  287.77 0861.69
2015 04 09 14 44 31 .85     -16    120    -15    122    123 352.0  -7.2  34052  287.76 0861.69
2015 04 09 14 44 32 .10      -3     97    -40     98    105 357.8 -27.5  34054  287.79 0861.69
2015 04 09 14 44 32 .35     -41    123    -11    130    131 341.3  -5.2  34050  287.72 0861.69
2015 04 09 14 44 32 .60     -37    129     -2    135    136 344.0  -1.2  34056  287.81 0861.69
2015 04 09 14 44 32 .85     -33    123      4    128    129 344.9   1.8  34056  287.81 0861.69
2015 04 09 14 44 33 .10     -31    128     26    132    135 346.2  11.1  34066  287.99 0861.69
2015 04 09 14 44 33 .35     -59    134      7    147    148 336.3   2.8  34060  287.89 0861.69
2015 04 09 14 44 33 .60     -47    129     17    138    140 340.0   7.1  34056  287.81 0861.69
2015 04 09 14 44 33 .85     -46     97      5    108    109 334.5   2.8  34066  287.98 0861.69
2015 04 09 14 44 34 .10     -54     69     -2     88     89 322.2  -1.8  34076  288.14 0861.69
2015 04 09 14 44 34 .35     -38     94     20    102    104 338.1  11.1  34092  288.43 0861.69
2015 04 09 14 44 34 .60     -63     86     -4    107    108 323.9  -2.2  34072  288.08 0861.69
2015 04 09 14 44 34 .85     -58     82    -19    101    103 324.8 -10.9  34064  287.96 0861.68
2015 04 09 14 44 35 .10     -46     89      5    101    102 332.8   2.9  34074  288.13 0861.68
2015 04 09 14 44 35 .36     -73     64      5     98     99 311.3   2.9  34066  287.98 0861.68
2015 04 09 14 44 35 .61     -87     72      5    114    115 309.6   2.8  34088  288.35 0861.68
2015 04 09 14 44 35 .85    -150     11    -19    151    153 274.4  -7.3  34114  288.79 0861.68
2015 04 09 14 44 36 .12     -67     44     34     81     87 303.3  23.6  34132  289.09 0861.68
2015 04 09 14 44 36 .37     -82     27    -25     87     90 288.6 -20.7  34126  289.01 0861.68
2015 04 09 14 44 36 .62     -66    -35    -26     75     80 242.0 -19.1  34124  288.96 0861.68
2015 04 09 14 44 36 .87     -11    -16      7     20     22 216.1  19.2  34140  289.24 0861.68
2015 04 09 14 44 37 .11      -2    -25     16     26     30 186.2  35.5  34132  289.09 0861.68
2015 04 09 14 44 37 .37     -13    -41     27     44     51 197.8  35.5  34128  289.02 0861.68
2015 04 09 14 44 37 .62     -13      8     25     16     29 302.4  64.7  34140  289.24 0861.68
2015 04 09 14 44 37 .87      -1     31     20     32     37 357.3  35.5  34160  289.58 0861.68
2015 04 09 14 44 38 .12     -28     49      2     57     58 330.1   2.9  34142  289.28 0861.68
2015 04 09 14 44 38 .38     -59     92    -35    110    116 327.4 -17.6  34124  288.97 0861.68
2015 04 09 14 44 38 .62     -13     71     41     73     83 349.3  32.4  34154  289.48 0861.68
2015 04 09 14 44 38 .88     -54     49     82     73    109 312.2  53.7  34216  290.52 0861.68
2015 04 09 14 44 39 .12     -67     35     -9     76     77 298.0  -7.2  34178  289.89 0861.68
2015 04 09 14 44 39 .37     -61     24     54     66     85 291.8  43.7  34208  290.40 0861.68
2015 04 09 14 44 39 .62     -47     72     37     87     94 326.6  24.6  34170  289.75 0861.68
2015 04 09 14 44 39 .87     -43     59     32     74     80 323.9  25.1  34158  289.55 0861.68
2015 04 09 14 44 40 .13     -15     49     45     52     68 343.1  44.8  34146  289.33 0861.68
2015 04 09 14 44 40 .38     -45     54    -21     71     75 320.4 -16.6  34194  290.16 0861.68
2015 04 09 14 44 40 .63     -48     65      5     82     83 323.5   3.8  34198  290.21 0861.68
2015 04 09 14 44 40 .88     -84     61     -6    105    106 306.0  -3.7  34174  289.82 0861.68
2015 04 09 14 44 41 .13    -125    105    -39    164    169 310.2 -13.4  34176  289.85 0861.68
2015 04 09 14 44 41 .37    -100    100     12    142    143 315.0   4.9  34170  289.74 0861.68
2015 04 09 14 44 41 .63    -108     76    -10    133    134 305.1  -4.6  34144  289.31 0861.68
2015 04 09 14 44 41 .88     -88    121    -47    150    158 323.9 -17.6  34080  288.23 0861.68
2015 04 09 14 44 42 .13    -134    127    -47    185    191 313.6 -14.3  34096  288.48 0861.68
2015 04 09 14 44 42 .38    -105    102    -41    147    152 314.0 -20.2  34074  288.13 0861.68
2015 04 09 14 44 42 .63     -97     81    -35    127    132 310.0 -15.5  34080  288.23 0861.68
2015 04 09 14 44 42 .89     -84     73    -34    112    117 311.3 -21.8  34054  287.79 0861.68
2015 04 09 14 44 43 .14    -110     65    -12    128    129 300.7  -5.6  34070  288.04 0861.68
2015 04 09 14 44 43 .40     -58    110      6    125    126 331.9   2.8  34108  288.69 0861.68
2015 04 09 14 44 43 .65     -73     77     13    107    108 316.8   7.1  34138  289.19 0861.68
2015 04 09 14 44 43 .89     -61     84     54    104    117 323.9  29.3  34168  289.70 0861.68
2015 04 09 14 44 44 .14     -56     88     41    105    112 327.5  22.5  34158  289.55 0861.68
2015 04 09 14 44 44 .39     -56    108      1    122    123 332.4   0.8  34100  288.57 0861.68
2015 04 09 14 44 44 .65     -54    121    -11    133    134 335.9  -5.1  34072  288.08 0861.68
2015 04 09 14 44 44 .90     -40    123      0    130    131 341.7   0.2  34060  287.89 0861.68
2015 04 09 14 44 45 .15     -54    102    -10    116    117 331.9  -5.2  34068  288.03 0861.68
2015 04 09 14 44 45 .40     -33    100     16    106    108 341.7   9.0  34076  288.14 0861.68
2015 04 09 14 44 45 .65     -36     90      6     98     99 338.2   3.8  34086  288.31 0861.68
2015 04 09 14 44 45 .90     -38     59     36     71     79 327.5  28.7  34082  288.26 0861.68
2015 04 09 14 44 46 .15     -35     63     46     73     86 331.0  35.5  34086  288.33 0861.67
2015 04 09 14 44 46 .40     -49     53     32     73     79 316.8  24.6  34092  288.42 0861.67
2015 04 09 14 44 46 .65     -61     62     -3     88     89 315.3  -2.2  34088  288.35 0861.67
2015 04 09 14 44 46 .91    -121     77    -11    144    145 302.4  -4.6  34090  288.40 0861.67
2015 04 09 14 44 47 .15    -153     84    -23    175    177 298.9  -7.7  34104  288.64 0861.67
2015 04 09 14 44 47 .40    -145     80    -32    166    170 298.9 -11.1  34088  288.35 0861.67
2015 04 09 14 44 47 .65    -136     79    -36    158    163 300.4 -12.9  34084  288.30 0861.67
2015 04 09 14 44 47 .90    -129     60    -29    143    146 294.8 -11.5  34114  288.79 0861.67
2015 04 09 14 44 48 .15    -130     52    -39    141    147 291.8 -15.4  34108  288.69 0861.67
2015 04 09 14 44 48 .40    -116     51    -35    127    132 294.0 -15.5  34110  288.72 0861.67
2015 04 09 14 44 48 .65    -124     15    -39    125    132 277.0 -17.6  34172  289.79 0861.67
2015 04 09 14 44 48 .90    -117     24      3    120    121 281.9   1.8  34160  289.57 0861.67
2015 04 09 14 44 49 .16    -114     23     -2    117    118 281.4  -1.3  34122  288.92 0861.67
2015 04 09 14 44 49 .41    -121     48     -7    131    132 291.8  -3.1  34088  288.36 0861.67
2015 04 09 14 44 49 .65     -93     38    -36    101    108 292.6 -19.7  34064  287.96 0861.67
2015 04 09 14 44 49 .92    -104     42    -40    113    121 292.2 -19.7  34062  287.91 0861.67
2015 04 09 14 44 50 .17    -104     36    -39    111    118 289.1 -19.6  34062  287.91 0861.67
2015 04 09 14 44 50 .41    -107     41    -37    115    120 291.3 -23.3  34066  287.98 0861.67
2015 04 09 14 44 50 .67     -95     22    -32     98    103 283.3 -23.8  34062  287.92 0861.67
2015 04 09 14 44 50 .92     -89     25    -25     93     96 285.9 -20.2  34064  287.94 0861.67
2015 04 09 14 44 51 .17     -87     36    -36     95    101 292.6 -25.9  34068  288.03 0861.67
2015 04 09 14 44 51 .42    -101     28    -35    105    111 285.5 -18.7  34052  287.76 0861.67
2015 04 09 14 44 51 .67    -112     34    -24    118    121 286.8 -11.9  34052  287.76 0861.67
2015 04 09 14 44 51 .92    -123     25    -11    126    127 281.5  -5.2  34072  288.09 0861.67
2015 04 09 14 44 52 .17    -122     28    -11    126    127 283.3  -5.2  34074  288.13 0861.67
2015 04 09 14 44 52 .42     -91     50    -13    104    105 298.8  -7.3  34084  288.28 0861.67
2015 04 09 14 44 52 .67     -70     54    -11     89     90 307.8  -7.3  34084  288.28 0861.67
2015 04 09 14 44 52 .93     -62     12     -2     64     65 281.5  -2.2  34100  288.57 0861.67
2015 04 09 14 44 53 .18     -31      6     16     32     35 281.4  27.3  34118  288.87 0861.67
2015 04 09 14 44 53 .43      20    -32     17     39     42 147.5  25.1  34114  288.80 0861.67
2015 04 09 14 44 53 .68     -82      2      4     83     84 271.7   2.8  34124  288.96 0861.67
2015 04 09 14 44 53 .93    -102     45    -35    112    117 294.0 -22.3  34118  288.87 0861.67
2015 04 09 14 44 54 .18    -158     52    -50    167    175 288.2 -16.8  34114  288.80 0861.66
2015 04 09 14 44 54 .43     -54     25     -2     60     61 295.4  -2.2  34128  289.02 0861.66
2015 04 09 14 44 54 .68      14     30     21     34     39  25.4  34.4  34134  289.14 0861.66
2015 04 09 14 44 54 .93    -136    -49     -5    145    146 250.0  -2.2  34100  288.55 0861.66
2015 04 09 14 44 55 .18    -238     43    -67    242    251 280.4 -20.2  34078  288.19 0861.66
2015 04 09 14 44 55 .43    -218     30    -44    221    226 278.0 -11.5  34092  288.43 0861.66
2015 04 09 14 44 55 .68    -219     58    -58    227    235 285.1 -14.3  34096  288.48 0861.66
2015 04 09 14 44 55 .93    -168     -2    -52    169    176 269.2 -22.1  34092  288.43 0861.67
2015 04 09 14 44 56 .18    -153    -17    -50    155    164 263.4 -18.1  34084  288.30 0861.67
2015 04 09 14 44 56 .43    -201     -5    -45    202    208 268.5 -12.6  34082  288.26 0861.67
2015 04 09 14 44 56 .68    -174     24      8    176    177 278.1   2.9  34096  288.48 0861.67
2015 04 09 14 44 56 .95     -78     25      5     83     84 288.2   3.8  34108  288.69 0861.67
2015 04 09 14 44 57 .19    -182     19    -23    184    186 276.1  -7.3  34086  288.31 0861.67
2015 04 09 14 44 57 .44    -181     15    -42    182    187 275.0 -13.2  34078  288.18 0861.67
2015 04 09 14 44 57 .70    -151     21    -12    153    154 278.0  -4.6  34094  288.45 0861.67
2015 04 09 14 44 57 .95    -119     11     -5    120    121 275.7  -2.6  34100  288.55 0861.66
2015 04 09 14 44 58 .20     -83     53    -12     99    100 302.4  -7.3  34100  288.55 0861.66
2015 04 09 14 44 58 .45    -179     27    -19    182    184 278.8  -6.2  34092  288.42 0861.66
2015 04 09 14 44 58 .70    -194     52    -34    201    204 285.0  -9.6  34084  288.30 0861.66
2015 04 09 14 44 58 .95    -162     79     -2    181    182 296.2  -0.7  34102  288.60 0861.66
2015 04 09 14 44 59 .20    -195     59    -26    204    206 287.1  -7.3  34092  288.43 0861.66
2015 04 09 14 44 59 .45    -202     64    -26    212    214 287.7  -7.2  34120  288.91 0861.66
2015 04 09 14 44 59 .70    -156     50    -19    164    166 287.9  -6.9  34136  289.16 0861.67
2015 04 09 14 44 59 .95    -128     51    -17    138    140 291.8  -7.2  34124  288.97 0861.67
2015 04 09 14 45 00 .20    -206     61    -21    215    217 286.6  -5.6  34114  288.80 0861.67
2015 04 09 14 45 00 .45    -243     60    -45    251    256 284.1 -10.3  34094  288.46 0861.67
2015 04 09 14 45 00 .70    -293     53    -16    298    299 280.4  -3.1  34108  288.68 0861.67
2015 04 09 14 45 00 .95    -295     45    -66    299    307 278.8 -12.6  34140  289.22 0861.67
2015 04 09 14 45 01 .20    -275     67    -30    284    286 283.7  -6.2  34120  288.90 0861.67
2015 04 09 14 45 01 .46    -249     39    -51    253    259 279.0 -11.6  34086  288.32 0861.67
2015 04 09 14 45 01 .70    -265     53    -54    271    277 281.5 -11.3  34110  288.71 0861.67
2015 04 09 14 45 01 .96    -287     91    -46    302    306 287.7  -8.8  34148  289.37 0861.67
2015 04 09 14 45 02 .21    -261     73    -20    272    273 285.7  -4.4  34162  289.59 0861.67
2015 04 09 14 45 02 .46    -224     72    -25    236    238 287.9  -6.2  34170  289.75 0861.67
2015 04 09 14 45 02 .71    -226     52    -45    232    237 283.0 -11.1  34134  289.14 0861.67
2015 04 09 14 45 02 .96    -153      0    -43    154    159 270.0 -20.4  34142  289.28 0861.67
2015 04 09 14 45 03 .21      -9    -77     77     78    109 187.1  50.5  34202  290.30 0861.67
2015 04 09 14 45 03 .46       6    -37     42     38     56 170.2  52.2  34224  290.67 0861.66
2015 04 09 14 45 03 .72     -63    -18    -22     66     69 254.1 -23.6  34172  289.77 0861.66
2015 04 09 14 45 03 .97    -140     52    -19    150    152 290.4  -7.2  34134  289.14 0861.66
2015 04 09 14 45 04 .22    -332     60    -79    338    348 280.3 -13.3  34112  288.76 0861.66
2015 04 09 14 45 04 .48    -293     40    -66    296    304 277.9 -12.6  34134  289.12 0861.66
2015 04 09 14 45 04 .72    -242     64    -23    251    253 284.8  -5.4  34136  289.17 0861.66
2015 04 09 14 45 04 .97    -306     66    -37    314    317 282.3  -6.8  34088  288.36 0861.66
2015 04 09 14 45 05 .22    -254     52    -77    260    272 281.7 -16.6  34084  288.29 0861.66
2015 04 09 14 45 05 .47    -273     63    -56    281    287 283.0 -11.3  34080  288.21 0861.66
2015 04 09 14 45 05 .72    -283     89    -69    297    305 287.5 -13.2  34076  288.14 0861.66
2015 04 09 14 45 05 .98    -285     91    -61    300    307 287.7 -11.5  34076  288.14 0861.66
2015 04 09 14 45 06 .23    -278     79    -53    290    295 285.9 -10.5  34078  288.17 0861.66
2015 04 09 14 45 06 .48    -286     62    -37    293    296 282.4  -7.3  34076  288.15 0861.66
2015 04 09 14 45 06 .73    -316    125    -57    341    346 291.7  -9.6  34074  288.11 0861.66
2015 04 09 14 45 06 .98    -288    137    -59    320    326 295.5 -10.5  34072  288.07 0861.66
2015 04 09 14 45 07 .23    -256     63    -43    264    268 283.9  -9.3  34074  288.12 0861.66
2015 04 09 14 45 07 .48    -294     96    -56    310    316 288.2 -10.4  34070  288.04 0861.66
2015 04 09 14 45 07 .73    -298     22    -51    299    304 274.4  -9.8  34070  288.04 0861.66
2015 04 09 14 45 07 .98    -284     67    -54    292    297 283.3 -10.5  34064  287.95 0861.66
2015 04 09 14 45 08 .23    -276     39    -40    279    282 278.1  -8.2  34072  288.09 0861.66
2015 04 09 14 45 08 .48    -276     62    -55    284    290 282.8 -11.1  34078  288.17 0861.66
2015 04 09 14 45 08 .73    -306     94    -71    321    329 287.2 -12.5  34078  288.17 0861.66
2015 04 09 14 45 08 .98    -248      7    -21    249    250 271.7  -4.9  34088  288.36 0861.66
2015 04 09 14 45 09 .23    -217      7    -74    218    231 271.9 -18.7  34074  288.13 0861.66
2015 04 09 14 45 09 .48     -53    -17     -2     56     57 251.4  -2.2  34104  288.64 0861.66
2015 04 09 14 45 09 .73     -65     23      1     70     71 290.0   0.8  34088  288.35 0861.66
2015 04 09 14 45 09 .99    -159     22      2    161    162 278.0   1.0  34082  288.25 0861.66
2015 04 09 14 45 10 .24    -186     20    -23    188    190 276.4  -7.2  34074  288.13 0861.66
2015 04 09 14 45 10 .49    -211    -38    -59    215    224 259.6 -15.4  34074  288.13 0861.66
2015 04 09 14 45 10 .75    -253      0    -32    254    257 270.0  -7.2  34072  288.09 0861.66
2015 04 09 14 45 11 .00    -291      8    -75    292    302 271.7 -14.4  34068  288.00 0861.66
2015 04 09 14 45 11 .25    -291      0    -75    292    302 270.0 -14.4  34068  288.00 0861.66
2015 04 09 14 45 11 .50    -276    -12    -60    277    284 267.4 -12.4  34066  287.99 0861.66
2015 04 09 14 45 11 .75    -234     17    -51    235    241 274.3 -12.4  34064  287.95 0861.66
2015 04 09 14 45 12 .00    -233     31    -65    236    245 277.7 -15.5  34068  288.00 0861.66
2015 04 09 14 45 12 .25    -224     45    -63    229    238 281.5 -15.5  34074  288.12 0861.66
2015 04 09 14 45 12 .50    -253    -18    -28    254    256 265.9  -6.5  34074  288.12 0861.66
2015 04 09 14 45 12 .75    -238     11    -74    239    251 272.8 -17.3  34066  287.99 0861.66
2015 04 09 14 45 13 .00    -205      9    -38    206    210 272.6 -10.5  34074  288.11 0861.66
2015 04 09 14 45 13 .25    -259     23    -62    261    269 275.2 -13.4  34064  287.95 0861.66
2015 04 09 14 45 13 .50    -189     -8    -56    190    199 267.4 -16.4  34074  288.11 0861.66
2015 04 09 14 45 13 .75    -140     23    -45    143    151 279.6 -17.6  34080  288.23 0861.66
2015 04 09 14 45 14 .01    -197     80    -27    213    215 292.2  -7.3  34084  288.30 0861.66
2015 04 09 14 45 14 .25    -237    102    -11    259    260 293.3  -2.6  34090  288.37 0861.66
2015 04 09 14 45 14 .50    -273     99    -59    291    297 290.0 -11.5  34078  288.17 0861.66
2015 04 09 14 45 14 .76    -285     86    -72    298    307 286.8 -13.6  34080  288.21 0861.66
2015 04 09 14 45 15 .00    -254     79    -84    267    281 287.3 -17.6  34080  288.21 0861.66
2015 04 09 14 45 15 .25    -246     78    -88    259    273 287.7 -23.6  34062  287.90 0861.66
2015 04 09 14 45 15 .50    -269     46    -75    273    284 279.7 -15.5  34056  287.80 0861.66
2015 04 09 14 45 15 .76    -242     22    -63    244    253 275.3 -14.5  34058  287.85 0861.66
2015 04 09 14 45 16 .01    -244      3    -65    245    254 270.8 -15.0  34056  287.82 0861.66
2015 04 09 14 45 16 .26    -248     50    -50    253    259 281.5 -11.3  34058  287.83 0861.66
2015 04 09 14 45 16 .51    -213     28    -25    215    217 277.7  -6.7  34062  287.92 0861.66
2015 04 09 14 45 16 .76    -164     37    -11    169    170 282.8  -3.9  34068  288.03 0861.66
2015 04 09 14 45 17 .01    -159     32    -22    163    165 281.7  -8.0  34066  287.99 0861.65
2015 04 09 14 45 17 .26     -65     37     14     75     77 299.8  11.0  34080  288.21 0861.65
2015 04 09 14 45 17 .51     -59     24      4     64     65 292.6   3.8  34080  288.23 0861.65
2015 04 09 14 45 17 .77     -31     -3     -1     32     33 263.9  -2.2  34092  288.42 0861.65
2015 04 09 14 45 18 .02     -45    -37     -8     59     60 230.5  -8.2  34100  288.57 0861.65
2015 04 09 14 45 18 .27     -19    -56     44     60     74 198.7  39.7  34106  288.65 0861.65
2015 04 09 14 45 18 .52     -32     29     -3     44     45 312.2  -4.1  34094  288.45 0861.65
2015 04 09 14 45 18 .78    -114      0    -17    115    117 270.4  -8.8  34098  288.53 0861.66
2015 04 09 14 45 19 .02     -25     -8     41     27     49 251.4  63.6  34118  288.86 0861.66
2015 04 09 14 45 19 .28       1      0     -9      2      9  71.6 -90.0  34110  288.72 0861.66
2015 04 09 14 45 19 .53     -51    -23    -12     57     59 245.6 -12.4  34104  288.62 0861.66
2015 04 09 14 45 19 .78       8    -24     50     26     56 161.7  70.8  34108  288.69 0861.66
2015 04 09 14 45 20 .03    -128     37    -57    134    145 286.4 -28.5  34080  288.21 0861.66
2015 04 09 14 45 20 .28    -125     28    -21    129    131 282.8  -9.3  34072  288.09 0861.66
2015 04 09 14 45 20 .53    -243     11    -52    244    250 272.8 -12.2  34044  287.60 0861.66
2015 04 09 14 45 20 .78    -164     19    -40    166    171 276.8 -13.7  34054  287.79 0861.66
2015 04 09 14 45 21 .03     -61      4     -6     62     63 274.3  -6.2  34070  288.06 0861.66
2015 04 09 14 45 21 .28     -35    -25    -41     44     60 234.0 -52.4  34068  288.03 0861.66
2015 04 09 14 45 21 .53     -27     17     11     33     35 302.4  18.9  34082  288.25 0861.66
2015 04 09 14 45 21 .78     -24     -4     29     25     38 258.5  54.3  34096  288.50 0861.66
2015 04 09 14 45 22 .03    -106    -35    -34    112    117 251.4 -21.8  34104  288.64 0861.66
2015 04 09 14 45 22 .28    -114     11    -27    115    119 275.7 -13.4  34086  288.31 0861.66
2015 04 09 14 45 22 .53     -96     24    -19     99    101 284.2 -11.3  34094  288.45 0861.66
2015 04 09 14 45 22 .78    -127     28     -2    131    132 282.8  -1.3  34068  288.03 0861.66
2015 04 09 14 45 23 .04    -126    -36    -47    132    141 254.1 -19.6  34068  288.03 0861.66
2015 04 09 14 45 23 .29     -15    -47      8     50     51 198.5  10.1  34080  288.21 0861.66
2015 04 09 14 45 23 .53    -159      9     -5    160    161 273.5  -2.1  34068  288.01 0861.66
2015 04 09 14 45 23 .79    -223     27    -28    225    227 277.0  -7.2  34064  287.94 0861.66
2015 04 09 14 45 24 .04    -226     31    -41    229    233 277.9 -10.3  34050  287.72 0861.66
2015 04 09 14 45 24 .29    -172     -1    -22    173    175 269.4  -7.3  34062  287.92 0861.65
2015 04 09 14 45 24 .55    -174     27    -34    177    181 279.0 -11.1  34054  287.77 0861.65
2015 04 09 14 45 24 .80    -178     15    -28    179    182 275.0  -9.0  34054  287.79 0861.65
2015 04 09 14 45 25 .05    -166     49    -14    174    175 286.6  -4.9  34070  288.04 0861.65
2015 04 09 14 45 25 .30    -182      8    -14    183    184 272.6  -4.6  34066  287.99 0861.65
2015 04 09 14 45 25 .55     -59     14     30     61     67 283.3  27.3  34082  288.25 0861.65
2015 04 09 14 45 25 .80      -1    -22      3     23     24 184.5   9.0  34086  288.33 0861.65
2015 04 09 14 45 26 .05      -7    -11     22     14     26 212.5  64.7  34084  288.28 0861.65
2015 04 09 14 45 26 .30     -74     32    -31     81     86 293.5 -25.9  34074  288.13 0861.65
2015 04 09 14 45 26 .55     -62     29      3     69     70 295.2   2.8  34096  288.48 0861.65
2015 04 09 14 45 26 .80     -76      5     -4     77     78 274.3  -3.1  34106  288.65 0861.65
2015 04 09 14 45 27 .05     -16    -16     43     23     48 225.0  69.8  34122  288.92 0861.65
2015 04 09 14 45 27 .30      28    -13     11     32     34 115.3  18.9  34138  289.21 0861.65
2015 04 09 14 45 27 .55      25    -17     16     31     34 124.2  29.3  34122  288.92 0861.65
2015 04 09 14 45 27 .80     -70      5    -71     71    100 274.3 -54.5  34086  288.33 0861.65
2015 04 09 14 45 28 .06     -18     40     -1     45     46 335.5  -1.3  34092  288.42 0861.66
2015 04 09 14 45 28 .31     -12      9     45     16     47 306.0  81.2  34104  288.64 0861.66
2015 04 09 14 45 28 .56     -33     17     -4     38     39 297.1  -7.3  34098  288.53 0861.66
2015 04 09 14 45 28 .81     -12     44     -1     46     47 344.0  -1.3  34098  288.53 0861.66
2015 04 09 14 45 29 .06     -42     33     24     54     59 308.6  25.1  34078  288.18 0861.66
2015 04 09 14 45 29 .31     -63     21     -3     67     68 288.4  -3.1  34080  288.23 0861.66
2015 04 09 14 45 29 .56     -88     25      4     92     93 285.9   2.9  34074  288.13 0861.66
2015 04 09 14 45 29 .81    -160     60    -15    172    173 290.6  -5.2  34126  289.01 0861.65
2015 04 09 14 45 30 .06     -66     73     23     99    102 317.7  13.2  34146  289.33 0861.65
2015 04 09 14 45 30 .31     -45     95     43    106    114 334.5  23.0  34160  289.58 0861.65
2015 04 09 14 45 30 .56     -58    143     57    155    165 337.7  20.7  34078  288.20 0861.65
2015 04 09 14 45 30 .81     -46    174     26    181    183 345.1   8.2  34052  287.76 0861.65
2015 04 09 14 45 31 .06     -32    181     18    184    185 349.8   5.7  34034  287.43 0861.65
2015 04 09 14 45 31 .31     -27    173      8    176    177 350.9   2.8  34034  287.43 0861.65
2015 04 09 14 45 31 .57     -27    173      8    176    177 350.9   2.8  34034  287.43 0861.65
2015 04 09 14 45 31 .82     -35    150      0    155    156 346.7   0.2  34032  287.40 0861.65
2015 04 09 14 45 32 .07     -31    152     -3    156    157 348.4  -1.3  34030  287.38 0861.65
2015 04 09 14 45 32 .32     -26    144    -10    147    148 349.8  -4.1  34030  287.38 0861.65
2015 04 09 14 45 32 .57     -18    133    -10    135    136 352.0  -4.6  34030  287.38 0861.66
2015 04 09 14 45 32 .82     -14    127    -12    128    129 353.3  -5.6  34032  287.42 0861.66
2015 04 09 14 45 33 .07     -22    131    -16    133    135 350.2  -7.2  34034  287.43 0861.66
2015 04 09 14 45 33 .32     -21    127    -14    129    130 350.2  -6.2  34038  287.52 0861.66
2015 04 09 14 45 33 .58     -99     99    -37    141    146 315.0 -15.0  34088  288.35 0861.66
2015 04 09 14 45 33 .82    -112     81    -47    139    147 306.0 -18.7  34052  287.76 0861.66
2015 04 09 14 45 34 .08     -62     85    -33    106    111 323.9 -22.3  34034  287.45 0861.66
2015 04 09 14 45 34 .33     -71     53    -12     89     90 306.9  -7.7  34046  287.64 0861.66
2015 04 09 14 45 34 .58     -81     44    -39     93    100 298.9 -28.5  34060  287.89 0861.66
2015 04 09 14 45 34 .83     -95     44    -45    105    114 295.2 -28.5  34066  287.98 0861.66
2015 04 09 14 45 35 .08     -84     33    -47     91    102 291.7 -33.7  34070  288.04 0861.66
2015 04 09 14 45 35 .33     -84     40    -34     94     99 295.8 -24.8  34112  288.75 0861.66
2015 04 09 14 45 35 .58     -72     37    -23     82     85 297.5 -20.7  34140  289.24 0861.66
2015 04 09 14 45 35 .83     -80     44    -15     92     94 298.9  -9.8  34136  289.18 0861.66
2015 04 09 14 45 36 .08     -65     31    -23     73     76 295.4 -23.8  34112  288.77 0861.66
2015 04 09 14 45 36 .33     -41     38    -20     57     61 313.1 -19.7  34108  288.69 0861.66
2015 04 09 14 45 36 .58     -24     36    -15     44     47 325.7 -19.7  34102  288.58 0861.66
2015 04 09 14 45 36 .84     -13     33    -21     36     41 338.2 -36.8  34114  288.79 0861.66
2015 04 09 14 45 37 .08       0     53    -21     54     57 359.1 -25.4  34120  288.91 0861.66
2015 04 09 14 45 37 .33       8     26    -17     28     32  18.7 -39.9  34114  288.80 0861.66
2015 04 09 14 45 37 .58       6     38    -15     39     41   9.8 -26.4  34102  288.60 0861.66
2015 04 09 14 45 37 .84      -7     38    -14     39     41 348.5 -24.4  34088  288.35 0861.66
2015 04 09 14 45 38 .09     -21     37    -21     43     47 330.1 -32.6  34088  288.36 0861.66
2015 04 09 14 45 38 .34     -15     45    -16     48     50 340.8 -23.6  34098  288.53 0861.66
2015 04 09 14 45 38 .59     -17     55    -23     58     62 342.2 -27.4  34094  288.45 0861.66
2015 04 09 14 45 38 .85      -3     58    -30     59     66 356.4 -33.7  34070  288.04 0861.66
2015 04 09 14 45 39 .10      -4     59    -16     60     63 355.5 -15.4  34088  288.36 0861.66
2015 04 09 14 45 39 .35       5     46      2     47     48   6.2   2.9  34086  288.31 0861.66
2015 04 09 14 45 39 .60      18     36      3     41     42  27.2   4.9  34076  288.16 0861.66
2015 04 09 14 45 39 .85      31     49     -4     59     60  32.5  -4.1  34072  288.09 0861.66
2015 04 09 14 45 40 .10      29     40    -13     50     52  36.1 -15.4  34068  288.03 0861.66
2015 04 09 14 45 40 .35      35     91    -28     98    103  21.4 -16.0  34040  287.54 0861.66
2015 04 09 14 45 40 .60      31    102    -29    107    112  16.9 -15.5  34048  287.69 0861.66
2015 04 09 14 45 40 .85       8    105    -29    106    111   4.5 -15.5  34062  287.91 0861.66
2015 04 09 14 45 41 .10      -9    107    -17    108    110 355.1  -9.3  34048  287.69 0861.66
2015 04 09 14 45 41 .35      -1    109     -7    110    111 359.0  -3.7  34036  287.47 0861.66
2015 04 09 14 45 41 .60      -1    110     13    111    112 359.0   6.9  34036  287.49 0861.66
2015 04 09 14 45 41 .86      37    110      0    117    118  18.7  -0.3  34040  287.54 0861.66
2015 04 09 14 45 42 .11      48     79    -27     93     96  31.6 -21.7  34040  287.54 0861.66
2015 04 09 14 45 42 .35      29     93    -16     98    100  17.8  -9.8  34044  287.62 0861.67
2015 04 09 14 45 42 .61      32     94      1    100    101  18.7   0.8  34042  287.57 0861.67
2015 04 09 14 45 42 .86      30     76     24     82     86  21.8  16.8  34044  287.62 0861.67
2015 04 09 14 45 43 .11      -6     83     65     84    106 355.5  41.7  34050  287.70 0861.67
2015 04 09 14 45 43 .36     -12     55     33     57     65 347.5  33.5  34072  288.08 0861.66
2015 04 09 14 45 43 .61     -85     52      6    100    101 301.5   3.8  34064  287.94 0861.66
2015 04 09 14 45 43 .86     -94     52    -37    108    115 298.8 -19.1  34058  287.84 0861.66
2015 04 09 14 45 44 .11     -38     59    -76     71    104 327.4 -56.5  34056  287.81 0861.66
2015 04 09 14 45 44 .36     -16     21    -56     27     62 322.2 -77.3  34060  287.89 0861.66
2015 04 09 14 45 44 .61       8     25    -72     27     76  18.7 -84.6  34074  288.13 0861.66
2015 04 09 14 45 44 .86      13     67    -61     69     92  11.5 -50.8  34066  287.99 0861.66
2015 04 09 14 45 45 .11       3     71    -70     72    100   2.7 -53.8  34070  288.04 0861.66
2015 04 09 14 45 45 .36      26     78    -76     83    112  18.7 -52.3  34066  287.98 0861.66
2015 04 09 14 45 45 .62      33     71    -67     79    103  25.3 -49.2  34068  288.03 0861.66
2015 04 09 14 45 45 .88       0     56    -65     57     86   0.9 -58.1  34066  287.99 0861.66
2015 04 09 14 45 46 .13      10     54    -70     55     89  10.7 -61.9  34076  288.16 0861.66
2015 04 09 14 45 46 .37     -68     28    -79     74    108 292.6 -56.5  34066  287.99 0861.66
2015 04 09 14 45 46 .63     -64     40    -70     76    103 302.4 -52.3  34064  287.94 0861.66
2015 04 09 14 45 46 .88     -40     54    -59     68     90 323.9 -49.8  34068  288.03 0861.66
2015 04 09 14 45 47 .13     -37     50    -43     63     76 323.0 -40.9  34066  287.99 0861.66
2015 04 09 14 45 47 .38     -30     13    -64     33     72 293.5 -76.3  34084  288.30 0861.66
2015 04 09 14 45 47 .63     -61      8    -72     62     95 277.9 -59.2  34082  288.25 0861.66
2015 04 09 14 45 47 .88     -63      4    -61     64     88 274.4 -53.8  34092  288.42 0861.66
2015 04 09 14 45 48 .13     -30     13    -57     33     65 293.5 -71.2  34080  288.21 0861.66
2015 04 09 14 45 48 .38     -27     24    -41     37     55 311.3 -57.7  34078  288.18 0861.66
2015 04 09 14 45 48 .63     -48      4    -34     49     59 275.2 -43.0  34070  288.04 0861.66
2015 04 09 14 45 48 .88     -56    -12    -27     58     63 257.6 -30.6  34068  288.03 0861.65
2015 04 09 14 45 49 .13     -30     18    -18     36     40 300.7 -33.7  34068  288.03 0861.65
2015 04 09 14 45 49 .38     -32     50    -25     60     65 327.4 -27.4  34060  287.89 0861.65
2015 04 09 14 45 49 .63     -31     46    -23     56     60 325.7 -27.5  34060  287.87 0861.65
2015 04 09 14 45 49 .88     -30     35    -43     47     63 319.5 -52.3  34064  287.94 0861.65
2015 04 09 14 45 50 .13     -44     37    -36     58     68 309.6 -39.9  34058  287.86 0861.65
2015 04 09 14 45 50 .38     -50     32    -23     60     64 302.5 -25.4  34058  287.86 0861.65
2015 04 09 14 45 50 .63     -36     24    -13     44     46 303.3 -16.6  34058  287.86 0861.66
2015 04 09 14 45 50 .88     -48     40    -12     63     65 309.5 -11.3  34056  287.81 0861.66
2015 04 09 14 45 51 .13     -57     36     -6     68     69 302.4  -5.2  34054  287.79 0861.66
2015 04 09 14 45 51 .39     -57     55    -18     80     83 314.1 -12.9  34072  288.08 0861.66
2015 04 09 14 45 51 .64     -15     74    -27     76     80 348.5 -24.4  34068  288.03 0861.66
2015 04 09 14 45 51 .89     -16     69    -43     71     83 346.6 -38.4  34060  287.89 0861.66
2015 04 09 14 45 52 .14     -36     66    -36     76     84 331.0 -31.6  34056  287.81 0861.66
2015 04 09 14 45 52 .40     -35     78    -34     86     92 335.9 -26.9  34056  287.82 0861.66
2015 04 09 14 45 52 .65     -52     35    -45     64     78 304.2 -43.0  34058  287.86 0861.66
2015 04 09 14 45 52 .90     -79      1    -36     80     87 270.8 -30.1  34056  287.81 0861.66
2015 04 09 14 45 53 .15     -55     32    -68     64     93 300.7 -55.6  34058  287.86 0861.66
2015 04 09 14 45 53 .40     -24     73    -43     78     89 341.3 -35.8  34058  287.84 0861.66
2015 04 09 14 45 53 .65     -45     45    -36     64     73 315.0 -35.8  34056  287.81 0861.66
2015 04 09 14 45 53 .90     -62     29     -3     69     70 295.2  -3.1  34060  287.87 0861.66
2015 04 09 14 45 54 .15     -43     35    -11     56     58 309.6 -11.3  34058  287.86 0861.66
2015 04 09 14 45 54 .40     -25     54    -25     60     65 334.6 -27.4  34054  287.79 0861.66
2015 04 09 14 45 54 .65     -42     50    -41     66     77 319.5 -39.9  34056  287.81 0861.66
2015 04 09 14 45 54 .90     -48     58    -25     76     80 320.3 -23.3  34054  287.79 0861.66
2015 04 09 14 45 55 .16     -39     78    -24     88     92 333.3 -15.5  34052  287.76 0861.65
2015 04 09 14 45 55 .40     -34     70    -10     79     80 333.7  -7.7  34054  287.79 0861.65
2015 04 09 14 45 55 .66       0     62     -2     63     64 359.1  -2.2  34058  287.86 0861.65
2015 04 09 14 45 55 .91     -19     65      3     68     69 343.1   2.9  34056  287.82 0861.65
2015 04 09 14 45 56 .16     -47     74      4     88     89 327.5   2.9  34052  287.76 0861.65
2015 04 09 14 45 56 .41     -50     86    -12    100    101 329.7  -7.3  34050  287.72 0861.65
2015 04 09 14 45 56 .66     -49    135    -19    144    146 340.0  -7.7  34052  287.76 0861.65
2015 04 09 14 45 56 .91     -34    143    -29    147    150 346.6 -11.3  34048  287.67 0861.65
2015 04 09 14 45 57 .16      -8    141    -44    142    149 356.4 -17.5  34054  287.79 0861.65
2015 04 09 14 45 57 .41      18    100    -57    102    116  10.2 -35.8  34060  287.89 0861.65
2015 04 09 14 45 57 .66      15     88    -45     90    100  10.2 -32.6  34058  287.86 0861.65
2015 04 09 14 45 57 .91      15    146    -43    147    153   6.2 -21.7  34058  287.84 0861.65
2015 04 09 14 45 58 .16      54    124    -74    136    154  23.7 -35.7  34058  287.84 0861.65
2015 04 09 14 45 58 .41      52    127    -49    138    146  22.3 -24.4  34056  287.81 0861.65
2015 04 09 14 45 58 .66      54     98    -34    113    118  28.9 -21.7  34054  287.77 0861.65
2015 04 09 14 45 58 .91      35     98    -29    105    110  20.0 -15.5  34056  287.81 0861.65
2015 04 09 14 45 59 .16      52     70      0     88     89  37.0  -0.3  34056  287.81 0861.65
2015 04 09 14 45 59 .42      63     83    -29    105    110  37.0 -15.5  34056  287.81 0861.65
2015 04 09 14 45 59 .67      67     79     -6    104    105  40.5  -3.7  34054  287.77 0861.65
2015 04 09 14 45 59 .93      74     74     -6    105    106  45.0  -3.7  34054  287.77 0861.65
2015 04 09 14 46 00 .18      67     65    -18     94     96  45.6 -11.3  34056  287.81 0861.65
2015 04 09 14 46 00 .43      62     62    -27     88     92  45.0 -22.3  34056  287.81 0861.65
2015 04 09 14 46 00 .68      83     54    -30    100    105  56.7 -16.6  34052  287.76 0861.65
2015 04 09 14 46 00 .93      66     49     -3     83     84  53.1  -2.2  34048  287.69 0861.65
2015 04 09 14 46 01 .18      62     58     -3     86     87  46.9  -2.2  34054  287.79 0861.65
2015 04 09 14 46 01 .43      89     90    -28    127    131  44.5 -12.4  34052  287.74 0861.65
2015 04 09 14 46 01 .68      96     93    -32    134    138  46.0 -13.4  34052  287.74 0861.65
2015 04 09 14 46 01 .93      78     94    -34    123    127  39.6 -20.2  34054  287.77 0861.65
2015 04 09 14 46 02 .18      57     87    -29    105    109  33.4 -15.5  34056  287.81 0861.65
2015 04 09 14 46 02 .43      84     82    -29    118    122  45.6 -13.9  34052  287.76 0861.65
2015 04 09 14 46 02 .68      83     82    -32    118    123  45.4 -15.5  34050  287.72 0861.65
2015 04 09 14 46 02 .93      68     68    -34     97    102  45.1 -23.8  34058  287.84 0861.65
2015 04 09 14 46 03 .18      57     66    -29     88     92  41.0 -23.8  34056  287.82 0861.65
2015 04 09 14 46 03 .43      34     62    -34     71     78  29.0 -31.6  34060  287.89 0861.65
2015 04 09 14 46 03 .69      39     32    -41     51     65  50.4 -48.1  34066  287.98 0861.65
2015 04 09 14 46 03 .93      28     26    -40     39     55  46.7 -53.5  34078  288.20 0861.65
2015 04 09 14 46 04 .19      14     21    -39     26     46  32.6 -68.0  34076  288.16 0861.64
2015 04 09 14 46 04 .44       0      7    -28      8     29 355.5 -85.1  34084  288.30 0861.64
2015 04 09 14 46 04 .69       0      4    -24      5     24 350.3 -90.0  34100  288.57 0861.64
2015 04 09 14 46 04 .93     -46      7    -32     47     56 278.8 -40.9  34072  288.08 0861.64
2015 04 09 14 46 05 .19     -53     13    -32     55     63 284.2 -36.8  34064  287.96 0861.64
2015 04 09 14 46 05 .44     -52      0    -23     53     57 270.0 -29.5  34064  287.96 0861.64
2015 04 09 14 46 05 .69     -41      4    -25     42     48 276.1 -38.8  34060  287.89 0861.64
2015 04 09 14 46 05 .94     -49     13    -28     51     58 285.1 -35.8  34062  287.91 0861.64
2015 04 09 14 46 06 .19     -42      0    -34     43     54 270.8 -47.1  34064  287.94 0861.63
2015 04 09 14 46 06 .45     -22      4    -34     23     41 281.5 -67.0  34076  288.16 0861.63
2015 04 09 14 46 06 .70       4     12    -28     13     30  18.3 -77.5  34080  288.23 0861.63
2015 04 09 14 46 06 .95      38     24    -48     46     66  57.6 -54.5  34070  288.04 0861.63
2015 04 09 14 46 07 .20      28      0    -32     29     43  90.8 -56.6  34074  288.13 0861.63
2015 04 09 14 46 07 .45      28    -18    -25     34     42 122.4 -45.1  34070  288.04 0861.63
2015 04 09 14 46 07 .70      36     -7    -23     37     43 101.5 -39.9  34066  287.98 0861.63
2015 04 09 14 46 07 .95      26    -17    -24     32     40 124.2 -45.1  34074  288.13 0861.63
2015 04 09 14 46 08 .20      21    -25    -14     33     35 140.4 -27.4  34074  288.13 0861.63
2015 04 09 14 46 08 .45      17    -22     -9     29     31 142.2 -17.6  34070  288.04 0861.63
2015 04 09 14 46 08 .71      27    -24     -4     37     38 131.3  -7.3  34064  287.96 0861.63
2015 04 09 14 46 08 .95      36    -15    -11     40     42 113.5 -15.5  34068  288.03 0861.63
2015 04 09 14 46 09 .21      42    -13    -13     45     48 107.7 -16.6  34066  287.98 0861.63
2015 04 09 14 46 09 .46      49     -9    -13     50     52 100.6 -15.4  34066  287.98 0861.63
2015 04 09 14 46 09 .71      46    -14     -1     49     50 106.8  -2.2  34064  287.94 0861.63
2015 04 09 14 46 09 .96      45     -1     -2     46     47  91.7  -3.1  34066  287.98 0861.63
2015 04 09 14 46 10 .21      31      0      5     32     33  90.8   9.0  34070  288.04 0861.63
2015 04 09 14 46 10 .46      32     -7     18     33     37 103.3  31.4  34072  288.09 0861.63
2015 04 09 14 46 10 .71      37     -7     30     38     48 101.5  42.7  34078  288.18 0861.63
2015 04 09 14 46 10 .96      37     -4     11     38     40  97.0  17.3  34068  288.03 0861.63
2015 04 09 14 46 11 .21      42    -16      5     46     47 111.7   6.9  34064  287.96 0861.63
2015 04 09 14 46 11 .46      46    -14     -1     49     50 106.8  -2.2  34064  287.94 0861.63
2015 04 09 14 46 11 .71      45    -45     16     64     67 135.0  14.3  34068  288.03 0861.63
2015 04 09 14 46 11 .96      44    -56     14     72     74 142.2  11.0  34064  287.94 0861.63
2015 04 09 14 46 12 .21      38    -38      8     54     55 135.0   9.0  34066  287.98 0861.63
2015 04 09 14 46 12 .46      29    -48     27     57     63 149.3  27.2  34064  287.94 0861.62
2015 04 09 14 46 12 .71      28    -42     27     51     57 146.6  30.3  34066  287.99 0861.62
2015 04 09 14 46 12 .99      25    -42     23     49     54 149.3  27.1  34068  288.01 0861.62
2015 04 09 14 46 13 .23      32    -26     18     42     45 129.5  24.1  34072  288.09 0861.62
2015 04 09 14 46 13 .48      21    -13     20     25     32 122.4  43.7  34078  288.18 0861.62
2015 04 09 14 46 13 .72      34    -13     26     37     45 111.7  37.6  34082  288.25 0861.62
2015 04 09 14 46 13 .97      28    -18     27     34     43 122.4  42.7  34080  288.21 0861.62
2015 04 09 14 46 14 .23      28    -20     19     35     39 126.0  31.4  34078  288.20 0861.63
2015 04 09 14 46 14 .49      41    -13     15     44     47 107.7  18.9  34084  288.30 0861.63
2015 04 09 14 46 14 .73      33    -21     23     40     46 122.5  33.5  34094  288.47 0861.63
2015 04 09 14 46 14 .98      28     -9     14     30     33 108.6  27.1  34096  288.48 0861.63
2015 04 09 14 46 15 .24      29      2     23     30     37  85.6  41.7  34114  288.80 0861.63
2015 04 09 14 46 15 .48      38     -2     45     39     59  94.4  54.3  34150  289.40 0861.63
2015 04 09 14 46 15 .73      35    -11     47     37     59 108.2  57.5  34126  288.99 0861.63
2015 04 09 14 46 15 .98      32     -8     46     34     57 105.1  59.4  34124  288.96 0861.63
2015 04 09 14 46 16 .24      13      6     41     15     43  64.7  80.2  34146  289.33 0861.62
2015 04 09 14 46 16 .48      11     12     26     17     31  43.4  64.6  34140  289.24 0861.62
2015 04 09 14 46 16 .73      17     45     24     49     54  20.9  27.2  34066  287.99 0861.62
2015 04 09 14 46 16 .99      18     38     25     43     49  25.4  33.5  34066  287.98 0861.62
2015 04 09 14 46 17 .24       8     51     28     52     59   9.8  31.3  34072  288.09 0861.62
2015 04 09 14 46 17 .48       3     52     17     53     56   3.6  18.4  34082  288.25 0861.62
2015 04 09 14 46 17 .74       4     37     11     38     40   6.2  17.3  34078  288.20 0861.62
2015 04 09 14 46 17 .98      11     33     12     35     38  18.5  19.4  34078  288.18 0861.62
2015 04 09 14 46 18 .24      15     45     14     48     51  18.7  16.3  34074  288.11 0861.62
2015 04 09 14 46 18 .49       8     45      8     46     47  10.7  10.1  34080  288.21 0861.62
2015 04 09 14 46 18 .74      15     43      8     46     47  20.0  10.1  34088  288.36 0861.62
2015 04 09 14 46 18 .99      23     43     27     49     55  28.1  32.4  34082  288.26 0861.62
2015 04 09 14 46 19 .24      44     28     18     53     57  57.5  19.4  34064  287.94 0861.62
2015 04 09 14 46 19 .49      42     30     21     52     56  54.0  22.0  34068  288.01 0861.62
2015 04 09 14 46 19 .74      16     62     21     65     69  14.3  18.4  34084  288.30 0861.62
2015 04 09 14 46 20 .00      23     71     14     75     77  18.3  11.1  34086  288.33 0861.62
2015 04 09 14 46 20 .26       0    101     61    102    118 359.6  33.5  34162  289.62 0861.62
2015 04 09 14 46 20 .50      24     89     50     93    105  15.6  30.8  34156  289.50 0861.62
2015 04 09 14 46 20 .75      33     71     66     79    102  25.3  44.3  34150  289.41 0861.62
2015 04 09 14 46 21 .01      53     81     32     98    104  33.4  18.4  34128  289.04 0861.62
2015 04 09 14 46 21 .26      38     80     56     89    105  25.4  35.5  34242  290.98 0861.62
2015 04 09 14 46 21 .51      31     93     36     99    105  18.7  20.0  34192  290.13 0861.62
2015 04 09 14 46 21 .75      59    115     35    130    135  27.1  15.2  34154  289.46 0861.62
2015 04 09 14 46 22 .01      63    128     36    143    148  26.3  14.3  34166  289.69 0861.62
2015 04 09 14 46 22 .26      53    149     28    159    162  19.6  10.1  34196  290.18 0861.62
2015 04 09 14 46 22 .51      26    139     12    142    143  10.7   5.0  34166  289.69 0861.62
2015 04 09 14 46 22 .76      10    148      3    149    150   4.0   1.2  34164  289.63 0861.62
2015 04 09 14 46 23 .02       1    103      5    104    105   0.9   2.9  34120  288.91 0861.62
2015 04 09 14 46 23 .26      25     99     18    103    105  14.3  10.1  34118  288.86 0861.62
2015 04 09 14 46 23 .51      38    116      1    123    124  18.3   0.7  34102  288.58 0861.62
2015 04 09 14 46 23 .76      37    112     -7    118    119  18.3  -3.7  34110  288.74 0861.62
2015 04 09 14 46 24 .02      42    118    -36    126    132  19.6 -16.0  34080  288.21 0861.62
2015 04 09 14 46 24 .26      37    144    -13    149    150  14.7  -5.2  34090  288.38 0861.62
2015 04 09 14 46 24 .51      39    160    -44    165    171  14.0 -15.0  34076  288.16 0861.62
2015 04 09 14 46 24 .76      22    126    -30    129    133  10.2 -13.4  34072  288.08 0861.62
2015 04 09 14 46 25 .02      25    136    -16    139    140  10.7  -6.7  34094  288.45 0861.62
2015 04 09 14 46 25 .26      24     83    -28     87     92  16.0 -18.1  34072  288.08 0861.63
2015 04 09 14 46 25 .52      23     71    -26     75     80  18.3 -19.1  34082  288.26 0861.63
2015 04 09 14 46 25 .76       8     99      5    100    101   4.9   3.3  34080  288.21 0861.63
2015 04 09 14 46 26 .03      37    113     14    119    120  18.3   6.9  34094  288.45 0861.63
2015 04 09 14 46 26 .27      12    129     59    130    142   5.3  25.7  34238  290.89 0861.63
2015 04 09 14 46 26 .52     -11    149     64    150    163 355.6  24.3  34234  290.84 0861.63
2015 04 09 14 46 26 .77       3    123     53    124    134   1.4  24.6  34252  291.13 0861.63
2015 04 09 14 46 27 .02       1    122     43    123    131   0.9  19.2  34206  290.35 0861.63
2015 04 09 14 46 27 .28      14    105     -9    107    108   8.0  -5.2  34160  289.58 0861.63
2015 04 09 14 46 27 .53      27    117     -4    121    122  12.9  -2.2  34192  290.11 0861.63
2015 04 09 14 46 27 .78      16    119      4    121    122   8.0   2.3  34140  289.23 0861.63
2015 04 09 14 46 28 .03      -8     95     -6     96     97 354.7  -4.1  34126  289.01 0861.63
2015 04 09 14 46 28 .28      -4     96      4     97     98 357.3   2.9  34080  288.23 0861.63
2015 04 09 14 46 28 .53      -7    103     36    104    111 356.0  19.4  34118  288.87 0861.63
2015 04 09 14 46 28 .78       8    100     13    101    102   4.9   7.5  34094  288.45 0861.62
2015 04 09 14 46 29 .04       8    112      5    113    114   4.5   2.8  34088  288.35 0861.62
2015 04 09 14 46 29 .28       0     77     -2     78     79   0.5  -1.8  34088  288.36 0861.62
2015 04 09 14 46 29 .54       7     77     -2     78     79   5.3  -1.8  34092  288.42 0861.62
2015 04 09 14 46 29 .78      -9     85     29     86     91 353.8  18.9  34090  288.40 0861.62
2015 04 09 14 46 30 .04      15    142     27    143    146   6.3  11.0  34120  288.91 0861.62
2015 04 09 14 46 30 .29      25    122      6    125    126  11.6   2.8  34130  289.06 0861.62
2015 04 09 14 46 30 .53      59    116      5    131    132  27.2   2.3  34114  288.80 0861.62
2015 04 09 14 46 30 .79      65    116    -17    134    136  29.4  -7.2  34062  287.92 0861.63
2015 04 09 14 46 31 .03      63    120     -5    136    137  27.6  -2.2  34088  288.35 0861.63
2015 04 09 14 46 31 .29      56    123    -26    136    139  24.5 -10.9  34068  288.01 0861.63
2015 04 09 14 46 31 .55      58    130    -23    143    145  24.1  -9.3  34058  287.84 0861.63
2015 04 09 14 46 31 .79      44    147    -23    154    156  16.9  -8.8  34118  288.86 0861.63
2015 04 09 14 46 32 .04      59    125     -3    139    140  25.5  -1.3  34122  288.92 0861.63
2015 04 09 14 46 32 .29      85    124     29    151    154  34.3  11.1  34116  288.82 0861.63
2015 04 09 14 46 32 .54      83    175     41    194    199  25.5  12.2  34122  288.94 0861.63
2015 04 09 14 46 32 .80      53    171     21    180    182  17.4   6.7  34082  288.26 0861.63
2015 04 09 14 46 33 .05      62    162     31    174    177  20.9  10.1  34092  288.42 0861.63
2015 04 09 14 46 33 .29      80    168     15    187    188  25.6   4.6  34076  288.14 0861.63
2015 04 09 14 46 33 .54      68    198     -2    210    211  18.9  -0.7  34038  287.52 0861.63
2015 04 09 14 46 33 .80      64    210    -10    220    221  16.9  -2.6  34050  287.70 0861.63
2015 04 09 14 46 34 .04      66    222     -7    232    233  16.7  -1.8  34068  288.01 0861.63
2015 04 09 14 46 34 .31      85    228    -26    244    246  20.5  -6.2  34068  288.02 0861.63
2015 04 09 14 46 34 .56      84    190    -41    208    213  23.8 -11.3  34076  288.16 0861.63
2015 04 09 14 46 34 .81      71    199    -27    212    214  19.8  -7.3  34078  288.18 0861.63
2015 04 09 14 46 35 .06      86    192    -13    211    212  24.1  -3.7  34082  288.25 0861.63
2015 04 09 14 46 35 .31      89    173    -28    195    198  27.2  -8.2  34098  288.53 0861.62
2015 04 09 14 46 35 .56      76    158     11    176    177  25.6   3.8  34090  288.40 0861.62
2015 04 09 14 46 35 .81      63    163    -19    175    177  21.2  -6.2  34108  288.69 0861.62
2015 04 09 14 46 36 .06      71    161    -11    177    178  23.8  -3.7  34116  288.82 0861.62
2015 04 09 14 46 36 .31      79    150     -6    170    171  27.9  -2.1  34114  288.80 0861.62
2015 04 09 14 46 36 .56      98    150     -2    180    181  33.2  -0.7  34124  288.96 0861.62
2015 04 09 14 46 36 .81     155    151     -8    217    218  45.8  -2.2  34142  289.26 0861.62
2015 04 09 14 46 37 .06      87    199     -8    218    219  23.6  -2.3  34130  289.06 0861.63
2015 04 09 14 46 37 .31     140    253      0    290    291  29.0   0.0  34138  289.19 0861.63
2015 04 09 14 46 37 .57     155    213     47    264    269  36.1  10.1  34124  288.95 0861.63
2015 04 09 14 46 37 .81     144    213     13    258    259  34.1   2.9  34104  288.63 0861.63
2015 04 09 14 46 38 .07     103    208     11    233    234  26.3   2.8  34092  288.41 0861.63
2015 04 09 14 46 38 .32     101    231     29    253    255  23.7   6.7  34126  289.00 0861.63
2015 04 09 14 46 38 .57      45    263    -43    267    271   9.7  -9.3  34090  288.37 0861.63
2015 04 09 14 46 38 .82      61    239    -45    247    252  14.5 -10.5  34094  288.44 0861.62
2015 04 09 14 46 39 .07      77    178    -33    194    197  23.4  -9.8  34106  288.65 0861.62
2015 04 09 14 46 39 .32      90    149      3    175    176  31.0   1.0  34134  289.13 0861.62
2015 04 09 14 46 39 .57      94    150      1    178    179  32.1   0.5  34112  288.77 0861.62
2015 04 09 14 46 39 .82      52    131     29    142    146  21.8  11.6  34128  289.04 0861.62
2015 04 09 14 46 40 .07      70    167     66    182    193  22.7  20.4  34198  290.23 0861.62
2015 04 09 14 46 40 .32      45    234     70    239    250  10.9  16.3  34132  289.09 0861.62
2015 04 09 14 46 40 .57      27    235     76    237    250   6.7  17.9  34144  289.29 0861.62
2015 04 09 14 46 40 .82     -38    194     48    198    204 348.9  13.7  34152  289.45 0861.62
2015 04 09 14 46 41 .09     -70    189    -15    202    203 339.5  -4.4  34174  289.82 0861.62
2015 04 09 14 46 41 .33     -50    154     19    162    164 342.0   6.9  34178  289.87 0861.62
2015 04 09 14 46 41 .58     -19    158     55    160    170 352.9  18.9  34172  289.77 0861.62
2015 04 09 14 46 41 .84     -28    183     37    186    190 351.1  11.4  34208  290.38 0861.62
2015 04 09 14 46 42 .09     -21    156     30    158    161 352.0  10.8  34260  291.28 0861.62
2015 04 09 14 46 42 .34     -30    166     31    169    172 349.5  10.6  34314  292.20 0861.62
2015 04 09 14 46 42 .58     -48    167     29    174    177 343.7   9.5  34334  292.54 0861.62
2015 04 09 14 46 42 .84     -49    164     16    172    173 343.3   5.4  34272  291.47 0861.62
2015 04 09 14 46 43 .08     -18    133     42    135    142 352.0  17.3  34228  290.74 0861.62
2015 04 09 14 46 43 .34     -43    172     63    178    189 346.0  19.6  34264  291.33 0861.62
2015 04 09 14 46 43 .59     -34    183     70    187    199 349.3  21.3  34316  292.22 0861.62
2015 04 09 14 46 43 .83     -21    227     51    229    235 354.7  12.6  34202  290.28 0861.62
2015 04 09 14 46 44 .09      -8    208     19    209    210 357.8   5.4  34176  289.85 0861.62
2015 04 09 14 46 44 .34      -4    177     34    178    182 358.4  10.8  34192  290.11 0861.62
2015 04 09 14 46 44 .59     -13    192     30    193    196 356.0   8.8  34200  290.26 0861.62
2015 04 09 14 46 44 .84       5    188     12    189    190   1.6   3.6  34080  288.21 0861.62
2015 04 09 14 46 45 .09       0    242     15    243    244 359.8   3.6  34100  288.56 0861.63
2015 04 09 14 46 45 .34       3    202      6    203    204   1.0   1.8  34104  288.62 0861.63
2015 04 09 14 46 45 .59     -13    231      8    232    233 356.6   2.1  34104  288.64 0861.63
2015 04 09 14 46 45 .84      11    252     -5    253    254   2.7  -1.3  34106  288.66 0861.63
2015 04 09 14 46 46 .09       5    212     -7    213    214   1.4  -2.1  34082  288.26 0861.62
2015 04 09 14 46 46 .34      20    257     -5    258    259   4.5  -1.2  34072  288.07 0861.62
2015 04 09 14 46 46 .59      29    271      5    273    274   6.2   1.2  34100  288.54 0861.62
2015 04 09 14 46 46 .84      26    285     -5    287    288   5.4  -1.2  34074  288.12 0861.62
2015 04 09 14 46 47 .10      81    256      8    269    270  17.6   1.7  34126  288.98 0861.62
2015 04 09 14 46 47 .35      38    257     20    260    261   8.5   4.6  34100  288.54 0861.62
2015 04 09 14 46 47 .60      12    218      4    219    220   3.4   1.2  34100  288.55 0861.62
2015 04 09 14 46 47 .85       2    175     27    176    179   0.9   8.8  34116  288.82 0861.62
2015 04 09 14 46 48 .11     -26    196     40    198    202 352.2  11.4  34130  289.08 0861.62
2015 04 09 14 46 48 .36     -36    189     44    193    199 349.1  12.9  34156  289.52 0861.62
2015 04 09 14 46 48 .61     -37    187     49    191    198 348.7  14.5  34162  289.60 0861.62
2015 04 09 14 46 48 .86     -31    177     62    180    191 349.8  19.2  34166  289.69 0861.62
2015 04 09 14 46 49 .11     -36    187     73    191    204 349.1  21.7  34156  289.50 0861.62
2015 04 09 14 46 49 .36     -19    243     29    244    246 355.5   6.9  34170  289.75 0861.62
2015 04 09 14 46 49 .61     -23    297     11    298    299 355.5   2.1  34088  288.34 0861.62
2015 04 09 14 46 49 .87     -23    295     25    296    298 355.5   4.9  34104  288.63 0861.62
2015 04 09 14 46 50 .12     -31    273     54    275    281 353.5  11.1  34120  288.90 0861.62
2015 04 09 14 46 50 .37     -28    263     51    265    270 353.8  11.0  34148  289.37 0861.62
2015 04 09 14 46 50 .62     -20    256     65    257    266 355.5  14.3  34174  289.80 0861.62
2015 04 09 14 46 50 .86      19    273     71    274    284   4.0  14.7  34188  290.03 0861.62
2015 04 09 14 46 51 .12      -9    292     46    293    297 358.2   9.0  34220  290.59 0861.62
2015 04 09 14 46 51 .36     -30    330     29    332    334 354.7   5.1  34110  288.72 0861.62
2015 04 09 14 46 51 .62     -43    311      2    315    316 352.0   0.4  34096  288.48 0861.62
2015 04 09 14 46 51 .87     -35    326    -12    328    329 353.8  -2.2  34096  288.49 0861.62
2015 04 09 14 46 52 .12     -26    345      6    346    347 355.6   1.0  34110  288.74 0861.62
2015 04 09 14 46 52 .37     -54    373      5    378    379 351.7   0.8  34116  288.84 0861.62
2015 04 09 14 46 52 .62     -58    344     21    349    350 350.3   3.5  34136  289.18 0861.62
2015 04 09 14 46 52 .87     -31    339      5    341    342 354.7   1.0  34120  288.91 0861.62
2015 04 09 14 46 53 .12     -69    312     23    320    321 347.5   4.2  34110  288.71 0861.62
2015 04 09 14 46 53 .37     -45    324     16    328    329 352.0   2.8  34140  289.24 0861.62
2015 04 09 14 46 53 .62     -23    299     36    300    303 355.5   6.9  34174  289.80 0861.62
2015 04 09 14 46 53 .87     -12    269     45    270    274 357.3   9.5  34168  289.70 0861.62
2015 04 09 14 46 54 .12     -24    207      8    209    210 353.1   2.3  34172  289.77 0861.62
2015 04 09 14 46 54 .37      -8    259      3    260    261 358.2   0.8  34130  289.07 0861.62
2015 04 09 14 46 54 .62     -15    287    -18    288    289 356.9  -3.7  34094  288.44 0861.62
2015 04 09 14 46 54 .88      -9    351    -11    352    353 358.4  -1.8  34158  289.55 0861.62
2015 04 09 14 46 55 .13     -52    360     -3    364    365 351.8  -0.5  34128  289.04 0861.62
2015 04 09 14 46 55 .38     -52    332     19    337    338 351.0   3.3  34116  288.81 0861.62
2015 04 09 14 46 55 .64     -35    320     16    322    323 353.7   3.0  34140  289.22 0861.62
2015 04 09 14 46 55 .89     -70    320     24    328    329 347.5   4.2  34156  289.52 0861.62
2015 04 09 14 46 56 .13     -78    308      0    318    319 345.7   0.1  34146  289.32 0861.61
2015 04 09 14 46 56 .39     -81    350     11    360    361 346.9   1.8  34146  289.35 0861.61
2015 04 09 14 46 56 .63    -109    324    -13    343    344 341.3  -2.2  34116  288.82 0861.61
2015 04 09 14 46 56 .89     -89    295    -11    309    310 343.1  -2.1  34138  289.19 0861.61
2015 04 09 14 46 57 .14    -105    289      9    308    309 340.0   1.8  34146  289.34 0861.61
2015 04 09 14 46 57 .39     -85    258    -43    272    276 341.7  -9.0  34038  287.50 0861.61
2015 04 09 14 46 57 .64     -91    249    -24    266    268 340.0  -5.2  34042  287.56 0861.61
2015 04 09 14 46 57 .89     -69    273    -11    282    283 345.8  -2.2  34074  288.12 0861.62
2015 04 09 14 46 58 .14     -71    271    -19    281    282 345.3  -3.9  34052  287.75 0861.62
2015 04 09 14 46 58 .39     -78    265    -25    277    279 343.5  -5.2  34036  287.46 0861.62
2015 04 09 14 46 58 .64     -75    266    -18    277    278 344.2  -3.9  34078  288.19 0861.62
2015 04 09 14 46 58 .90     -42    245     -7    249    250 350.2  -1.8  34146  289.34 0861.62
2015 04 09 14 46 59 .14     -54    250    -30    256    258 347.6  -6.9  34060  287.88 0861.62
2015 04 09 14 46 59 .40     -59    241    -19    249    250 346.2  -4.4  34060  287.88 0861.62
2015 04 09 14 46 59 .64     -70    231     -9    242    243 343.1  -2.2  34074  288.10 0861.61
2015 04 09 14 46 59 .90     -69    241      7    251    252 344.0   1.8  34094  288.44 0861.61
2015 04 09 14 47 00 .14     -60    253     -9    261    262 346.6  -2.1  34106  288.66 0861.61
2015 04 09 14 47 00 .40     -60    254      8    262    263 346.6   1.8  34098  288.53 0861.61
2015 04 09 14 47 00 .64     -54    250      7    256    257 347.6   1.7  34102  288.59 0861.61
2015 04 09 14 47 00 .90     -52    228     41    234    238 347.1  10.0  34082  288.26 0861.61
2015 04 09 14 47 01 .14     -66    244     25    253    255 344.9   5.7  34072  288.09 0861.61
2015 04 09 14 47 01 .40     -49    258     41    263    267 349.1   9.0  34124  288.97 0861.61
2015 04 09 14 47 01 .64     -53    239     44    245    250 347.5  10.3  34084  288.29 0861.61
2015 04 09 14 47 01 .92     -57    274     44    280    284 348.2   9.0  34112  288.76 0861.61
2015 04 09 14 47 02 .16     -36    308     46    311    315 353.3   8.5  34088  288.36 0861.61
2015 04 09 14 47 02 .41     -51    301    -11    306    307 350.4  -2.2  34074  288.10 0861.61
2015 04 09 14 47 02 .66     -39    293    -21    296    297 352.4  -4.1  34060  287.88 0861.61
2015 04 09 14 47 02 .91     -39    278    -31    281    283 351.9  -6.5  34042  287.56 0861.61
2015 04 09 14 47 03 .16     -27    268    -31    270    272 354.2  -6.7  34034  287.44 0861.61
2015 04 09 14 47 03 .41     -38    247    -28    251    253 351.1  -6.5  34036  287.48 0861.61
2015 04 09 14 47 03 .66     -48    245     -9    250    251 348.9  -2.1  34044  287.60 0861.61
2015 04 09 14 47 03 .92     -44    259      0    263    264 350.2   0.0  34048  287.68 0861.61
2015 04 09 14 47 04 .16     -33    259      7    262    263 352.7   1.7  34042  287.58 0861.61
2015 04 09 14 47 04 .42     -42    248      3    252    253 350.2   0.8  34048  287.66 0861.61
2015 04 09 14 47 04 .66     -37    247     -9    250    251 351.3  -2.1  34028  287.33 0861.61
2015 04 09 14 47 04 .91     -25    242     -9    244    245 354.0  -2.2  34026  287.31 0861.61
2015 04 09 14 47 05 .17     -31    237     -9    240    241 352.4  -2.3  34030  287.36 0861.61
2015 04 09 14 47 05 .42     -29    233     -9    235    236 352.9  -2.2  34028  287.34 0861.61
2015 04 09 14 47 05 .67     -41    225    -12    229    230 349.5  -3.1  34030  287.38 0861.61
2015 04 09 14 47 05 .93     -57    232     15    239    240 346.2   3.8  34084  288.29 0861.61
2015 04 09 14 47 06 .16     -63    200      5    210    211 342.4   1.6  34066  287.98 0861.61
2015 04 09 14 47 06 .42     -47    212    -11    218    219 347.5  -3.1  34036  287.49 0861.61
2015 04 09 14 47 06 .67     -49    216    -24    222    224 347.1  -6.2  34034  287.43 0861.61
2015 04 09 14 47 06 .92     -55    217    -20    224    225 345.7  -5.2  34036  287.47 0861.61
2015 04 09 14 47 07 .17     -52    193    -28    200    203 344.9  -8.0  34034  287.43 0861.62
2015 04 09 14 47 07 .42     -43    201    -33    206    209 347.7  -9.3  34040  287.54 0861.62
2015 04 09 14 47 07 .67     -49    190    -21    197    199 345.3  -6.2  34040  287.54 0861.62
2015 04 09 14 47 07 .92     -55    183    -25    192    194 343.3  -7.7  34040  287.54 0861.62
2015 04 09 14 47 08 .17     -47    187    -35    194    198 345.7 -10.3  34038  287.52 0861.62
2015 04 09 14 47 08 .42     -41    196    -38    201    205 348.2 -10.9  34036  287.49 0861.62
2015 04 09 14 47 08 .67     -43    178    -48    184    191 346.4 -14.7  34036  287.47 0861.62
2015 04 09 14 47 08 .93     -39    175    -36    180    184 347.3 -11.3  34034  287.45 0861.62
2015 04 09 14 47 09 .18     -32    170    -27    174    177 349.1  -8.8  34036  287.49 0861.62
2015 04 09 14 47 09 .43     -23    165    -32    167    171 351.8 -11.1  34036  287.49 0861.62
2015 04 09 14 47 09 .69     -17    162    -41    163    169 353.8 -14.3  34038  287.52 0861.62
2015 04 09 14 47 09 .94     -16    150    -36    151    156 353.8 -13.4  34040  287.54 0861.62
2015 04 09 14 47 10 .19     -14    132    -19    133    135 353.8  -8.2  34040  287.54 0861.62
2015 04 09 14 47 10 .44      -8    117      1    118    119 356.0   0.7  34042  287.57 0861.62
2015 04 09 14 47 10 .69     -18    114     27    116    120 350.7  13.2  34050  287.72 0861.62
2015 04 09 14 47 10 .94     -28    139     22    142    144 348.4   9.0  34062  287.91 0861.62
2015 04 09 14 47 11 .19     -33    122     20    127    129 344.9   9.0  34066  287.98 0861.62
2015 04 09 14 47 11 .44     -30    118     -1    122    123 345.7  -0.7  34062  287.91 0861.62
2015 04 09 14 47 11 .69     -17    125     -4    127    128 352.0  -2.2  34046  287.64 0861.62
2015 04 09 14 47 11 .94     -11    142     -3    143    144 355.5  -1.3  34048  287.67 0861.62
2015 04 09 14 47 12 .19       0    111    -24    112    115   0.0 -12.4  34042  287.59 0861.62
2015 04 09 14 47 12 .44       1    101    -21    102    105   1.0 -11.9  34044  287.62 0861.62
2015 04 09 14 47 12 .69       0     97    -24     98    101   0.0 -13.9  34052  287.76 0861.62
2015 04 09 14 47 12 .94     -15    111    -30    113    118 351.9 -15.0  34042  287.59 0861.62
2015 04 09 14 47 13 .19     -16    113    -14    115    116 352.0  -7.2  34044  287.60 0861.62
2015 04 09 14 47 13 .44     -18     99     -8    101    102 349.3  -4.6  34046  287.65 0861.62
2015 04 09 14 47 13 .70      -8     94    -12     95     96 354.7  -7.3  34050  287.70 0861.62
2015 04 09 14 47 13 .95     -11    105     20    106    108 353.8  11.0  34052  287.76 0861.62
2015 04 09 14 47 14 .20      -9    121     20    122    124 355.6   9.5  34060  287.89 0861.62
2015 04 09 14 47 14 .45     -16    120     28    122    126 352.0  13.2  34060  287.87 0861.62
2015 04 09 14 47 14 .70       9    118     13    119    120   4.5   6.5  34062  287.92 0861.62
2015 04 09 14 47 14 .95      42    136     39    143    149  17.4  15.3  34110  288.72 0861.62
2015 04 09 14 47 15 .20      24    142     39    145    151   9.8  15.3  34110  288.72 0861.62
2015 04 09 14 47 15 .45       9    178     26    179    182   3.1   8.5  34062  287.91 0861.62
2015 04 09 14 47 15 .70      18    169     30    171    174   6.2  10.1  34054  287.79 0861.62
2015 04 09 14 47 15 .96      13    162      8    163    164   4.9   3.1  34054  287.77 0861.62
2015 04 09 14 47 16 .21      19    166     -6    168    169   6.7  -2.2  34050  287.70 0861.62
2015 04 09 14 47 16 .46      19    174    -29    176    179   6.2  -9.3  34054  287.79 0861.62
2015 04 09 14 47 16 .71      -2    179     -9    180    181 359.1  -3.1  34058  287.84 0861.62
2015 04 09 14 47 16 .96       2    131     -1    132    133   1.0  -0.7  34058  287.86 0861.62
2015 04 09 14 47 17 .21      26    153     23    156    158   9.8   8.5  34056  287.81 0861.62
2015 04 09 14 47 17 .46      22    156     43    158    164   8.1  15.3  34050  287.72 0861.62
2015 04 09 14 47 17 .71      30    149     34    153    157  11.5  12.6  34052  287.76 0861.62
2015 04 09 14 47 17 .96      20    151     22    153    155   7.6   8.5  34050  287.70 0861.62
2015 04 09 14 47 18 .22      12    157      6    158    159   4.5   2.5  34048  287.69 0861.62
2015 04 09 14 47 18 .46      15    145      5    146    147   6.2   2.3  34054  287.77 0861.62
2015 04 09 14 47 18 .71      31    141     -2    145    146  12.5  -1.2  34056  287.81 0861.61
2015 04 09 14 47 18 .97      32    151    -21    155    157  12.0  -8.0  34062  287.91 0861.61
2015 04 09 14 47 19 .22      42    147    -41    153    159  16.0 -15.2  34056  287.81 0861.61
2015 04 09 14 47 19 .47      29    161    -25    164    166  10.2  -8.8  34056  287.81 0861.61
2015 04 09 14 47 19 .72      41    154     -5    160    161  15.2  -2.1  34054  287.77 0861.61
2015 04 09 14 47 19 .97       0    138     -5    139    140   0.0  -2.2  34058  287.86 0861.61
2015 04 09 14 47 20 .22      17    162      5    163    164   6.2   1.8  34044  287.62 0861.61
2015 04 09 14 47 20 .47      32    157      5    161    162  11.5   2.1  34032  287.40 0861.61
2015 04 09 14 47 20 .72      36    158     16    163    164  12.9   5.7  34030  287.38 0861.61
2015 04 09 14 47 20 .97      42    165     14    171    172  14.3   4.9  34036  287.47 0861.61
2015 04 09 14 47 21 .22      50    182      0    189    190  15.6   0.0  34044  287.60 0861.61
2015 04 09 14 47 21 .47      50    175     23    183    185  16.0   7.2  34052  287.74 0861.61
2015 04 09 14 47 21 .72      35    182     21    186    188  10.9   6.5  34052  287.76 0861.61
2015 04 09 14 47 21 .97      32    195     26    198    200   9.3   7.5  34046  287.65 0861.61
2015 04 09 14 47 22 .23      37    196     39    200    204  10.7  11.1  34058  287.84 0861.61
2015 04 09 14 47 22 .47      17    191     49    192    199   5.1  14.5  34060  287.89 0861.61
2015 04 09 14 47 22 .72      14    200     44    201    206   4.2  12.4  34060  287.89 0861.61
2015 04 09 14 47 22 .99      23    240     43    242    246   5.6  10.1  34060  287.87 0861.61
2015 04 09 14 47 23 .24      15    225    -32    226    229   4.0  -8.2  34056  287.81 0861.61
2015 04 09 14 47 23 .49      17    225    -28    226    228   4.5  -7.2  34052  287.74 0861.61
2015 04 09 14 47 23 .74       9    226    -35    227    230   2.5  -8.8  34066  287.99 0861.61
2015 04 09 14 47 23 .99       0    181    -37    182    186   0.0 -11.5  34060  287.87 0861.61
2015 04 09 14 47 24 .24      43    169     -6    175    176  14.5  -2.1  34054  287.79 0861.61
2015 04 09 14 47 24 .49      54    164     -1    173    174  18.5  -0.5  34032  287.42 0861.61
2015 04 09 14 47 24 .74      54    165    -13    174    175  18.3  -4.4  34032  287.42 0861.61
2015 04 09 14 47 24 .99      58    176    -13    186    187  18.3  -4.1  34034  287.43 0861.60
2015 04 09 14 47 25 .25      37    201    -11    205    206  10.5  -3.2  34056  287.81 0861.60
2015 04 09 14 47 25 .49      42    157    -32    163    167  15.1 -11.3  34044  287.62 0861.60
2015 04 09 14 47 25 .74       2    171     33    172    176   0.7  10.8  34058  287.86 0861.60
2015 04 09 14 47 25 .99       0    212     22    213    215 359.8   5.9  34064  287.96 0861.60
2015 04 09 14 47 26 .24       8    201     31    202    205   2.5   8.9  34062  287.91 0861.60
2015 04 09 14 47 26 .49     -25    208     15    210    211 353.1   4.2  34056  287.81 0861.60
2015 04 09 14 47 26 .75      -6    214     -8    215    216 358.4  -2.2  34046  287.65 0861.60
2015 04 09 14 47 27 .00      15    222    -15    223    224 360.0  -3.9  34044  287.62 0861.60
2015 04 09 14 47 27 .25      -1    215    -18    216    217 359.5  -4.9  34034  287.45 0861.60
2015 04 09 14 47 27 .50      -7    203    -24    204    206 357.8  -6.9  34034  287.45 0861.60
2015 04 09 14 47 27 .75      -5    172    -26    173    176 358.2  -8.8  34040  287.54 0861.61
2015 04 09 14 47 28 .00      -7    168    -21    169    171 357.4  -7.3  34034  287.43 0861.61
2015 04 09 14 47 28 .25      -2    152    -18    153    155 359.1  -6.7  34036  287.49 0861.61
2015 04 09 14 47 28 .50       1    115    -23    116    119   0.9 -11.3  34034  287.45 0861.61
2015 04 09 14 47 28 .75       0    143    -27    144    147 359.6 -10.9  34036  287.49 0861.61
2015 04 09 14 47 29 .00     -10    145    -24    146    148 356.0  -9.3  34036  287.47 0861.61
2015 04 09 14 47 29 .25     -12    155    -20    156    158 355.5  -7.3  34030  287.37 0861.61
2015 04 09 14 47 29 .50       0    128    -44    129    137   0.0 -19.1  34038  287.52 0861.61
2015 04 09 14 47 29 .76      -2    141    -39    142    148 359.1 -15.4  34038  287.52 0861.61
2015 04 09 14 47 30 .01       1    117    -42    118    126   0.5 -19.6  34040  287.55 0861.61
2015 04 09 14 47 30 .26       9    145    -40    146    152   3.6 -15.5  34040  287.54 0861.61
2015 04 09 14 47 30 .51       0    114    -32    115    119   0.0 -20.2  34042  287.59 0861.61
2015 04 09 14 47 30 .76      10    131    -38    132    138   4.5 -16.0  34038  287.52 0861.61
2015 04 09 14 47 31 .02       6    135    -12    136    137   2.6  -5.2  34038  287.52 0861.61
2015 04 09 14 47 31 .26      22    134     -9    136    137   9.7  -4.1  34062  287.91 0861.61
2015 04 09 14 47 31 .51      26    137     -7    140    141  10.7  -3.1  34058  287.84 0861.61
2015 04 09 14 47 31 .76      22    130     -7    132    133   9.7  -3.1  34044  287.60 0861.61
2015 04 09 14 47 32 .01      14    133      4    134    135   6.2   1.8  34042  287.59 0861.61
2015 04 09 14 47 32 .27      13    129      6    130    131   5.8   2.9  34046  287.64 0861.60
2015 04 09 14 47 32 .51      -7    140      7    141    142 360.0   2.9  34056  287.81 0861.60
2015 04 09 14 47 32 .77       7    112     -3    113    114   4.0  -1.8  34042  287.57 0861.60
2015 04 09 14 47 33 .02      14    106     -4    107    108   7.6  -2.2  34034  287.45 0861.60
2015 04 09 14 47 33 .27       0     92     11     93     94   0.0   6.9  34048  287.69 0861.60
2015 04 09 14 47 33 .52     -16    113     13    115    116 351.9   6.9  34052  287.76 0861.60
2015 04 09 14 47 33 .77     -39    129     -2    135    136 343.1  -1.2  34046  287.65 0861.60
2015 04 09 14 47 34 .02     -24    143     17    146    148 350.2   6.9  34052  287.76 0861.60
2015 04 09 14 47 34 .27     -24    143     17    146    148 350.2   6.9  34056  287.81 0861.60
2015 04 09 14 47 34 .52     -21    146     15    148    149 351.5   5.9  34074  288.11 0861.60
2015 04 09 14 47 34 .77     -10    156     21    157    159 356.0   7.8  34070  288.04 0861.60
2015 04 09 14 47 35 .03     -11    142      8    143    144 355.5   3.3  34066  287.99 0861.60
2015 04 09 14 47 35 .28     -10    156     21    157    159 356.0   7.8  34104  288.64 0861.60
2015 04 09 14 47 35 .53     -12    168     24    169    171 355.6   8.2  34092  288.42 0861.60
2015 04 09 14 47 35 .77     -31    153     41    157    163 348.4  14.7  34098  288.53 0861.60
2015 04 09 14 47 36 .02      -4    157      9    158    159 358.2   3.3  34054  287.77 0861.60
2015 04 09 14 47 36 .30      -2    153     -3    154    155 359.1  -1.2  34056  287.81 0861.60
2015 04 09 14 47 36 .52      -6    148     -4    149    150 357.4  -1.8  34054  287.77 0861.60
2015 04 09 14 47 36 .79      -6    148     -4    149    150 357.4  -1.8  34054  287.77 0861.60
2015 04 09 14 47 37 .04     -16    138    -17    139    141 353.3  -7.2  34046  287.65 0861.60
2015 04 09 14 47 37 .29      -7    143    -13    144    145 356.9  -5.2  34044  287.62 0861.60
2015 04 09 14 47 37 .54     -13    135    -13    136    137 354.2  -5.6  34044  287.62 0861.60
2015 04 09 14 47 37 .79       0    132      0    133    134 359.6   0.2  34114  288.79 0861.60
2015 04 09 14 47 38 .04       0    112    -10    113    114   0.5  -5.2  34128  289.04 0861.60
2015 04 09 14 47 38 .29     -21    138      0    140    141 351.1   0.2  34140  289.23 0861.60
2015 04 09 14 47 38 .54      16    156     28    157    160   6.2  10.1  34180  289.91 0861.60
2015 04 09 14 47 38 .79      41    137     39    144    150  16.9  15.2  34174  289.82 0861.60
2015 04 09 14 47 39 .04      30    131     48    135    143  12.9  20.0  34202  290.28 0861.60
2015 04 09 14 47 39 .29      -1    125     46    126    134 359.5  20.4  34162  289.60 0861.60
2015 04 09 14 47 39 .54     -28    137     38    140    146 348.4  15.3  34088  288.35 0861.60
2015 04 09 14 47 39 .80     -23    114     29    117    121 348.4  14.3  34112  288.77 0861.60
2015 04 09 14 47 40 .05      -3    126     -7    127    128 358.6  -3.2  34088  288.36 0861.60
2015 04 09 14 47 40 .30     -14    136     -5    137    138 353.8  -2.2  34106  288.67 0861.60
2015 04 09 14 47 40 .55     -26    131     -7    134    135 348.5  -3.1  34140  289.23 0861.60
2015 04 09 14 47 40 .79     -23    130     11    133    134 349.8   5.0  34134  289.14 0861.60
2015 04 09 14 47 41 .06     -28    148     45    151    158 349.3  16.8  34136  289.16 0861.60
2015 04 09 14 47 41 .30     -22    148     43    150    157 351.5  16.0  34196  290.18 0861.60
2015 04 09 14 47 41 .55       0    133     59    134    146   0.0  25.1  34172  289.77 0861.60
2015 04 09 14 47 41 .81     -11    144     62    145    157 355.5  24.3  34198  290.23 0861.60
2015 04 09 14 47 42 .06      17    163     69    164    177   6.2  23.8  34198  290.21 0861.60
2015 04 09 14 47 42 .30      11    189     66    190    202   3.4  19.2  34148  289.38 0861.60
2015 04 09 14 47 42 .56      35    172     47    176    183  11.8  15.0  34118  288.86 0861.61
2015 04 09 14 47 42 .81      24    178     64    180    191   7.8  20.0  34186  290.02 0861.61
2015 04 09 14 47 43 .05      18    167     54    169    178   6.3  17.7  34130  289.08 0861.61
2015 04 09 14 47 43 .30      24    175     50    177    184   8.0  15.8  34048  287.69 0861.61
2015 04 09 14 47 43 .55      48    173     38    180    185  15.8  12.0  34036  287.49 0861.61
2015 04 09 14 47 43 .81      43    161     48    167    174  15.1  16.0  34044  287.62 0861.61
2015 04 09 14 47 44 .06      61    153     37    165    170  21.8  12.6  34032  287.40 0861.61
2015 04 09 14 47 44 .32      72    143    -11    161    162  26.7  -4.1  34056  287.81 0861.60
2015 04 09 14 47 44 .56      51    132      7    142    143  21.4   2.9  34040  287.54 0861.60
2015 04 09 14 47 44 .82      29    124     12    128    129  13.4   5.4  34036  287.49 0861.60
2015 04 09 14 47 45 .06      46    118     13    127    128  21.4   5.9  34036  287.49 0861.60
2015 04 09 14 47 45 .32      59    111      3    126    127  28.1   1.8  34040  287.54 0861.60
2015 04 09 14 47 45 .56      49     96      9    108    109  27.2   4.9  34040  287.54 0861.60
2015 04 09 14 47 45 .82      29     87     13     92     94  18.7   8.5  34038  287.52 0861.60
2015 04 09 14 47 46 .07      54     86     -1    102    103  32.5  -0.7  34040  287.54 0861.60
2015 04 09 14 47 46 .32      25    127    -15    130    131  11.5  -6.7  34040  287.54 0861.60
2015 04 09 14 47 46 .57      12    155    -21    156    158   4.5  -8.0  34042  287.59 0861.60
2015 04 09 14 47 46 .82      28    127    -53    131    141  12.5 -27.5  34052  287.76 0861.60
2015 04 09 14 47 47 .07      47    119    -47    129    137  21.8 -25.4  34050  287.72 0861.60
2015 04 09 14 47 47 .32      62    103    -41    121    127  31.2 -23.3  34048  287.69 0861.60
2015 04 09 14 47 47 .57      37    113    -49    119    128  18.3 -28.0  34052  287.76 0861.60
2015 04 09 14 47 47 .82      40    121    -52    128    138  18.3 -27.5  34070  288.04 0861.60
2015 04 09 14 47 48 .07      34    103    -54    109    121  18.7 -32.6  34050  287.70 0861.60
2015 04 09 14 47 48 .32      54    124    -41    136    142  23.7 -21.7  34034  287.43 0861.60
2015 04 09 14 47 48 .57      38    127    -36    133    138  17.0 -15.4  34034  287.43 0861.60
2015 04 09 14 47 48 .82      30    110    -31    115    120  15.6 -15.0  34034  287.43 0861.60
2015 04 09 14 47 49 .07      29    108    -23    112    115  15.2 -11.9  34036  287.49 0861.60
2015 04 09 14 47 49 .33      20     99     -7    102    103  11.6  -4.1  34032  287.42 0861.60
2015 04 09 14 47 49 .57       9     99     -6    100    101   5.3  -3.7  34042  287.57 0861.60
2015 04 09 14 47 49 .83       7     97     -8     98     99   4.4  -5.2  34040  287.54 0861.60
2015 04 09 14 47 50 .07      -6     95      4     96     97 356.4   2.8  34042  287.59 0861.60
2015 04 09 14 47 50 .33      -8     94      4     95     96 354.7   2.9  34044  287.62 0861.60
2015 04 09 14 47 50 .58      -9    102      5    103    104 354.7   2.9  34042  287.57 0861.60
2015 04 09 14 47 50 .84     -12     96     12     97     98 352.4   7.1  34042  287.57 0861.60
2015 04 09 14 47 51 .09     -19     97      5     99    100 348.9   2.9  34040  287.54 0861.60
2015 04 09 14 47 51 .34     -21    101      8    104    105 348.0   4.4  34042  287.59 0861.60
2015 04 09 14 47 51 .59     -22    110      7    113    114 348.5   3.8  34040  287.54 0861.60
2015 04 09 14 47 51 .84     -24    114     -2    117    118 348.0  -1.3  34046  287.65 0861.60
2015 04 09 14 47 52 .10     -34    113     -3    119    120 343.1  -1.8  34050  287.72 0861.60
2015 04 09 14 47 52 .34     -41    104      1    113    114 338.2   0.8  34064  287.94 0861.60
2015 04 09 14 47 52 .59     -47    101    -14    112    113 335.1  -7.2  34048  287.69 0861.60
2015 04 09 14 47 52 .84     -47    105     -8    116    117 335.9  -4.1  34046  287.65 0861.60
2015 04 09 14 47 53 .09     -49    109     -4    120    121 335.9  -2.2  34050  287.70 0861.60
2015 04 09 14 47 53 .34     -38    106      5    113    114 340.0   2.9  34066  287.99 0861.60
2015 04 09 14 47 53 .60     -58     77      1     97     98 323.0   0.8  34068  288.03 0861.60
2015 04 09 14 47 53 .85     -69     64    -12     95     96 312.7  -7.2  34064  287.94 0861.60
2015 04 09 14 47 54 .09     -53     68     -9     87     88 322.2  -6.2  34068  288.03 0861.60
2015 04 09 14 47 54 .35     -25     77     -3     82     83 341.5  -2.2  34072  288.09 0861.60
2015 04 09 14 47 54 .60     -44     67     14     81     83 327.0  10.1  34086  288.33 0861.60
2015 04 09 14 47 54 .85     -44     87     64     98    117 332.8  35.6  34114  288.79 0861.60
2015 04 09 14 47 55 .10     -74     57    -26     94     98 307.8 -15.4  34126  288.99 0861.60
2015 04 09 14 47 55 .35     -66     43     -3     80     81 303.3  -2.2  34116  288.84 0861.60
2015 04 09 14 47 55 .60     -34     70    -10     79     80 333.7  -7.7  34104  288.64 0861.60
2015 04 09 14 47 55 .85     -39     29      6     49     50 306.9   8.0  34118  288.87 0861.60
2015 04 09 14 47 56 .10    -101     -1     -6    102    103 269.2  -3.7  34148  289.38 0861.60
2015 04 09 14 47 56 .35     -15     20      9     26     28 322.2  19.4  34156  289.50 0861.60
2015 04 09 14 47 56 .61     -42      0     12     43     45 270.8  16.3  34172  289.79 0861.60
2015 04 09 14 47 56 .85     -78     30    -27     84     88 291.3 -23.3  34168  289.72 0861.60
2015 04 09 14 47 57 .10     -76     52      1     93     94 304.6   1.2  34142  289.28 0861.59
2015 04 09 14 47 57 .36    -122     75    -49    144    153 301.5 -18.7  34158  289.53 0861.59
2015 04 09 14 47 57 .62    -178     27    -48    181    188 278.8 -15.0  34144  289.30 0861.59
2015 04 09 14 47 57 .87     -55    102    -39    117    123 331.5 -23.6  34162  289.60 0861.59
2015 04 09 14 47 58 .12     -46     77      0     90     91 329.3  -0.3  34154  289.46 0861.59
2015 04 09 14 47 58 .37     -30     64     21     71     75 334.5  16.3  34156  289.52 0861.59
2015 04 09 14 47 58 .62     -29     86     37     91     98 341.3  23.1  34142  289.28 0861.59
2015 04 09 14 47 58 .87     -48    120    -14    130    131 338.2  -6.2  34168  289.70 0861.59
2015 04 09 14 47 59 .12    -101    100    -39    143    149 314.9 -15.4  34146  289.33 0861.59
2015 04 09 14 47 59 .37    -112     71    -42    133    140 302.4 -17.5  34148  289.36 0861.59
2015 04 09 14 47 59 .62    -102     98    -18    142    144 314.0  -7.3  34152  289.45 0861.59
2015 04 09 14 47 59 .87    -111    134    -25    175    177 320.4  -8.2  34160  289.58 0861.59
2015 04 09 14 48 00 .12    -125    110    -42    167    173 311.3 -14.3  34156  289.52 0861.59
2015 04 09 14 48 00 .37    -139    168      8    219    220 320.3   2.3  34166  289.67 0861.59
2015 04 09 14 48 00 .63    -108    153    113    188    219 324.8  33.7  34220  290.58 0861.60
2015 04 09 14 48 00 .87    -125    120     62    174    184 314.0  20.0  34234  290.82 0861.60
2015 04 09 14 48 01 .12    -125    149     49    195    202 320.1  14.3  34190  290.09 0861.60
2015 04 09 14 48 01 .37    -110    161    101    196    220 325.5  29.3  34180  289.91 0861.60
2015 04 09 14 48 01 .62     -88    138     57    164    174 327.5  19.2  34102  288.58 0861.60
2015 04 09 14 48 01 .88    -158    179    -30    239    241 318.6  -7.3  34074  288.10 0861.60
2015 04 09 14 48 02 .13    -133    142    -22    195    197 316.8  -6.7  34078  288.18 0861.60
2015 04 09 14 48 02 .38    -202    111    -29    231    233 298.8  -7.2  34092  288.42 0861.60
2015 04 09 14 48 02 .63    -177    120    -27    214    216 304.2  -7.2  34140  289.23 0861.60
2015 04 09 14 48 02 .88    -174     90    -16    197    198 297.5  -4.9  34168  289.70 0861.60
2015 04 09 14 48 03 .13    -140     66    -24    156    158 295.4  -8.8  34092  288.42 0861.60
2015 04 09 14 48 03 .38    -107     97    -23    145    147 312.2  -9.3  34104  288.64 0861.59
2015 04 09 14 48 03 .63     -64     86     -4    108    109 323.5  -2.2  34096  288.50 0861.59
2015 04 09 14 48 03 .88    -142     56    -19    153    155 291.7  -7.2  34096  288.48 0861.59
2015 04 09 14 48 04 .13    -118     39    -22    125    128 288.6 -10.3  34088  288.36 0861.59
2015 04 09 14 48 04 .38    -135     63    -30    150    154 295.2 -11.3  34076  288.16 0861.59
2015 04 09 14 48 04 .64    -228     40    -21    232    233 280.1  -5.2  34058  287.83 0861.59
2015 04 09 14 48 04 .89    -223     56    -42    230    234 284.2 -10.5  34048  287.66 0861.59
2015 04 09 14 48 05 .15    -187     49    -24    194    196 284.8  -7.3  34074  288.11 0861.59
2015 04 09 14 48 05 .39    -142     46    -19    150    152 288.2  -7.2  34060  287.89 0861.59
2015 04 09 14 48 05 .64    -205     48    -29    211    214 283.2  -8.0  34054  287.79 0861.59
2015 04 09 14 48 05 .90    -197     36    -29    201    204 280.6  -8.2  34048  287.69 0861.59
2015 04 09 14 48 06 .15    -190     62    -25    201    203 288.2  -7.3  34052  287.74 0861.59
2015 04 09 14 48 06 .40    -132     53    -15    143    144 291.8  -6.2  34070  288.04 0861.59
2015 04 09 14 48 06 .65     -74     32     12     81     83 294.0   9.0  34086  288.31 0861.59
2015 04 09 14 48 06 .90     -30    -29     -7     42     43 226.0 -10.3  34094  288.47 0861.59
2015 04 09 14 48 07 .15     -76     25    -24     81     84 288.2 -21.7  34080  288.21 0861.59
2015 04 09 14 48 07 .40    -126     28    -15    130    131 282.8  -6.7  34074  288.13 0861.59
2015 04 09 14 48 07 .65    -128     -1     -7    129    130 269.2  -3.2  34070  288.04 0861.59
2015 04 09 14 48 07 .90     -73    -34    -25     81     84 244.6 -22.8  34080  288.21 0861.59
2015 04 09 14 48 08 .15     -67     -5    -24     68     73 265.7 -19.7  34072  288.09 0861.59
2015 04 09 14 48 08 .40     -38    -12     -4     40     41 251.8  -6.2  34074  288.11 0861.59
2015 04 09 14 48 08 .65       8     -5     15     10     18 122.4  64.6  34086  288.31 0861.59
2015 04 09 14 48 08 .90    -136     32    -50    140    148 283.3 -24.8  34062  287.91 0861.59
2015 04 09 14 48 09 .15     -94     60      5    112    113 302.5   2.8  34078  288.18 0861.59
2015 04 09 14 48 09 .40    -133     27     -5    136    137 281.5  -2.2  34072  288.08 0861.59
2015 04 09 14 48 09 .65     -44     24      7     51     52 298.9   8.0  34088  288.35 0861.58
2015 04 09 14 48 09 .91     -59     24     12     64     66 292.6  11.1  34080  288.21 0861.58
2015 04 09 14 48 10 .16     -72     59     22     94     97 309.6  13.2  34076  288.16 0861.58
2015 04 09 14 48 10 .41    -113     39    -40    120    127 289.1 -18.7  34072  288.08 0861.58
2015 04 09 14 48 10 .66    -194     16    -30    195    198 274.8  -8.8  34058  287.84 0861.58
2015 04 09 14 48 10 .91    -198    -15    -26    199    201 265.7  -7.7  34060  287.87 0861.58
2015 04 09 14 48 11 .16    -128    -37    -26    134    137 253.6 -11.3  34058  287.86 0861.58
2015 04 09 14 48 11 .41    -152    -11    -13    153    154 265.6  -5.2  34062  287.92 0861.58
2015 04 09 14 48 11 .67    -194      4    -53    195    203 271.3 -15.4  34058  287.86 0861.58
2015 04 09 14 48 11 .92    -183     15     -1    184    185 275.0  -0.5  34058  287.84 0861.58
2015 04 09 14 48 12 .17    -215      0    -41    216    221 270.0 -10.9  34050  287.72 0861.58
2015 04 09 14 48 12 .42    -248      0    -64    249    258 270.0 -14.5  34046  287.63 0861.58
2015 04 09 14 48 12 .67    -224    -25    -54    226    233 263.6 -13.4  34056  287.82 0861.58
2015 04 09 14 48 12 .92    -210     -3    -62    211    220 269.0 -16.4  34060  287.87 0861.58
2015 04 09 14 48 13 .17    -235      1    -51    236    242 270.4 -12.4  34056  287.80 0861.58
2015 04 09 14 48 13 .42    -222      7    -52    223    230 271.9 -13.3  34054  287.79 0861.58
2015 04 09 14 48 13 .67    -224      9    -57    225    233 272.4 -14.3  34052  287.74 0861.58
2015 04 09 14 48 13 .92    -230      1    -54    231    238 270.4 -13.3  34048  287.66 0861.58
2015 04 09 14 48 14 .17    -232     25    -55    234    241 276.2 -13.4  34042  287.58 0861.58
2015 04 09 14 48 14 .42    -240     22    -55    242    249 275.3 -12.9  34042  287.58 0861.57
2015 04 09 14 48 14 .67    -240     22    -55    242    249 275.3 -12.9  34046  287.65 0861.57
2015 04 09 14 48 14 .93    -242     30    -67    244    254 277.2 -15.5  34050  287.71 0861.57
2015 04 09 14 48 15 .19    -248     35    -69    251    261 278.1 -15.5  34054  287.77 0861.57
2015 04 09 14 48 15 .43    -233      7    -78    234    247 271.9 -18.6  34050  287.71 0861.57
2015 04 09 14 48 15 .69    -224    -12    -57    225    233 266.7 -14.3  34090  288.38 0861.57
2015 04 09 14 48 15 .92    -228     -9    -60    229    237 267.6 -14.7  34058  287.83 0861.57
2015 04 09 14 48 16 .18    -219     -5    -59    220    229 268.5 -15.2  34068  288.03 0861.57
2015 04 09 14 48 16 .43    -213    -25    -45    215    220 263.2 -11.9  34150  289.40 0861.57
2015 04 09 14 48 16 .68    -227    -17    -38    228    232 265.7  -9.6  34074  288.13 0861.57
2015 04 09 14 48 16 .93    -202      8    -53    203    210 272.4 -14.7  34050  287.70 0861.57
2015 04 09 14 48 17 .18    -192      8    -58    193    202 272.4 -16.8  34050  287.70 0861.57
2015 04 09 14 48 17 .43    -188      2    -61    189    199 270.9 -18.1  34050  287.70 0861.57
2015 04 09 14 48 17 .68    -167    -12    -60    168    179 265.7 -19.7  34050  287.70 0861.57
2015 04 09 14 48 17 .94    -159    -37    -46    164    171 256.7 -15.8  34072  288.08 0861.57
2015 04 09 14 48 18 .18    -153    -31    -51    157    166 258.3 -18.1  34056  287.81 0861.57
2015 04 09 14 48 18 .44    -135    -45    -38    143    149 251.4 -15.0  34058  287.86 0861.57
2015 04 09 14 48 18 .69    -118    -36    -32    124    129 253.1 -14.5  34050  287.70 0861.57
2015 04 09 14 48 18 .94    -121    -12    -28    122    126 263.9 -12.9  34052  287.74 0861.57
2015 04 09 14 48 19 .20    -120    -12    -33    121    126 263.9 -15.5  34056  287.81 0861.57
2015 04 09 14 48 19 .44    -127     -9    -35    128    133 265.6 -15.5  34062  287.92 0861.57
2015 04 09 14 48 19 .70    -126    -16    -21    128    130 262.5  -9.4  34066  287.99 0861.58
2015 04 09 14 48 19 .95     -49     13     39     51     64 285.1  40.7  34100  288.55 0861.58
2015 04 09 14 48 20 .20     -40      0      5     41     42 269.2   8.0  34080  288.23 0861.58
2015 04 09 14 48 20 .45      -2     23     23     24     33 353.8  52.0  34104  288.64 0861.58
2015 04 09 14 48 20 .70      -2     32     30     33     44 355.5  47.9  34112  288.77 0861.58
2015 04 09 14 48 20 .95     -19     26     21     33     39 323.9  35.5  34120  288.89 0861.58
2015 04 09 14 48 21 .20     -20     38    -15     44     46 331.9 -23.6  34116  288.82 0861.58
2015 04 09 14 48 21 .45     -26     26     52     37     63 314.9  60.6  34156  289.52 0861.58
2015 04 09 14 48 21 .70     -40     54     68     68     96 323.9  50.1  34188  290.04 0861.58
2015 04 09 14 48 21 .95     -40     34     51     53     73 310.4  50.0  34176  289.85 0861.58
2015 04 09 14 48 22 .20     -48     26     69     55     88 298.9  56.4  34168  289.70 0861.58
2015 04 09 14 48 22 .45     -41     26     73     49     87 302.4  63.2  34172  289.77 0861.58
2015 04 09 14 48 22 .70      -7    -24     32     26     41 196.9  56.4  34202  290.30 0861.58
2015 04 09 14 48 22 .95     -33     -7     -9     34     36 256.7 -15.5  34180  289.92 0861.58
2015 04 09 14 48 23 .21     -15    -32     16     36     39 205.5  25.1  34182  289.96 0861.58
2015 04 09 14 48 23 .46      -5     16     41     17     44 341.3  77.1  34202  290.28 0861.58
2015 04 09 14 48 23 .71     -48     23     80     54     96 295.2  63.2  34268  291.42 0861.58
2015 04 09 14 48 23 .95     -37     34     37     51     63 312.2  39.7  34228  290.74 0861.58
2015 04 09 14 48 24 .20     -67     54     82     87    119 308.6  48.5  34162  289.60 0861.58
2015 04 09 14 48 24 .45     -55     53     67     77    102 314.1  45.8  34126  289.01 0861.58
2015 04 09 14 48 24 .71     -24     58     63     63     89 337.3  50.1  34104  288.64 0861.58
2015 04 09 14 48 24 .96     -45     45     43     64     77 315.0  35.6  34110  288.72 0861.58
2015 04 09 14 48 25 .21     -38     59     50     71     86 327.4  38.6  34108  288.69 0861.58
2015 04 09 14 48 25 .47     -40     63     67     75    100 327.4  46.9  34086  288.31 0861.58
2015 04 09 14 48 25 .72     -37     40     50     55     74 316.8  47.9  34102  288.58 0861.58
2015 04 09 14 48 25 .97     -42     43     32     61     68 315.8  29.3  34086  288.31 0861.57
2015 04 09 14 48 26 .22     -54     46     61     71     93 310.4  45.4  34090  288.40 0861.57
2015 04 09 14 48 26 .47     -51     60     57     79     97 319.5  39.7  34094  288.45 0861.57
2015 04 09 14 48 26 .72     -38     49     57     63     84 322.2  47.5  34102  288.60 0861.57
2015 04 09 14 48 26 .97     -42     45     34     62     70 316.8  31.4  34094  288.45 0861.57
2015 04 09 14 48 27 .22     -35     54     38     65     75 326.6  33.5  34102  288.60 0861.57
2015 04 09 14 48 27 .47     -65     72     -2     98     99 318.1  -1.3  34080  288.23 0861.57
2015 04 09 14 48 27 .73     -85     68     13    110    111 308.6   7.1  34084  288.28 0861.57
2015 04 09 14 48 27 .97     -51     73     -6     90     91 325.3  -4.1  34088  288.36 0861.58
2015 04 09 14 48 28 .23     -89     44     -3    100    101 296.2  -2.2  34072  288.08 0861.58
2015 04 09 14 48 28 .47     -36     71     22     80     84 332.8  15.8  34088  288.36 0861.58
2015 04 09 14 48 28 .73     -76     48     -5     91     92 302.4  -3.7  34070  288.04 0861.58
2015 04 09 14 48 28 .98     -58     59     22     83     87 315.5  15.3  34076  288.16 0861.58
2015 04 09 14 48 29 .23     -99     77      6    126    127 307.8   2.8  34060  287.89 0861.58
2015 04 09 14 48 29 .48    -121     77    -11    144    145 302.4  -4.6  34052  287.76 0861.58
2015 04 09 14 48 29 .73    -132     84    -13    157    158 302.5  -4.9  34054  287.79 0861.58
2015 04 09 14 48 29 .98    -115     81      3    141    142 305.1   1.2  34062  287.91 0861.58
2015 04 09 14 48 30 .23    -140     88    -11    166    167 302.2  -4.1  34062  287.92 0861.58
2015 04 09 14 48 30 .48    -124    110     -6    167    168 311.6  -2.1  34060  287.89 0861.58
2015 04 09 14 48 30 .74    -125     80     -1    149    150 302.5  -0.7  34066  287.99 0861.58
2015 04 09 14 48 30 .98    -127     92     -9    158    159 306.0  -3.3  34098  288.53 0861.58
2015 04 09 14 48 31 .23    -102    102      7    145    146 315.0   2.8  34100  288.57 0861.58
2015 04 09 14 48 31 .49    -150     96    -22    179    181 302.5  -7.2  34106  288.67 0861.58
2015 04 09 14 48 31 .73    -154     75    -17    172    173 296.2  -6.0  34102  288.60 0861.58
2015 04 09 14 48 31 .98    -154     74    -23    172    174 295.8  -7.7  34124  288.97 0861.58
2015 04 09 14 48 32 .24     -74     79     11    109    110 316.8   5.9  34130  289.08 0861.58
2015 04 09 14 48 32 .49    -124     45      8    132    133 290.0   3.8  34126  289.01 0861.58
2015 04 09 14 48 32 .75    -142     71    -26    159    162 296.6  -9.3  34086  288.33 0861.58
2015 04 09 14 48 33 .00    -135     56    -16    147    148 292.6  -6.2  34100  288.55 0861.58
2015 04 09 14 48 33 .25     -75     70     24    103    106 313.1  13.2  34106  288.67 0861.59
2015 04 09 14 48 33 .50    -110     79    -21    136    138 306.0  -8.8  34094  288.45 0861.59
2015 04 09 14 48 33 .75    -103     51      1    116    117 296.6   0.8  34110  288.74 0861.59
2015 04 09 14 48 34 .00     -62     49     -5     80     81 308.2  -4.1  34118  288.86 0861.59
2015 04 09 14 48 34 .25     -52     56     -4     77     78 316.8  -3.1  34120  288.89 0861.59
2015 04 09 14 48 34 .50     -69     66     -3     96     97 314.0  -2.2  34128  289.04 0861.59
2015 04 09 14 48 34 .75     -46     56     14     73     75 320.4  11.1  34136  289.18 0861.59
2015 04 09 14 48 35 .00     -37     40      9     55     56 317.7  10.1  34134  289.13 0861.59
2015 04 09 14 48 35 .25     -93     67    -16    115    117 305.9  -8.2  34092  288.42 0861.59
2015 04 09 14 48 35 .50     -92     49     13    105    106 298.4   7.1  34096  288.50 0861.59
2015 04 09 14 48 35 .75    -101     64    -10    120    121 302.4  -5.1  34072  288.08 0861.59
2015 04 09 14 48 36 .00     -71     60      5     94     95 310.0   3.3  34088  288.36 0861.59
2015 04 09 14 48 36 .25     -71     59     14     93     95 309.6   9.0  34084  288.30 0861.59
2015 04 09 14 48 36 .51     -90     67     -4    113    114 306.9  -2.2  34064  287.96 0861.59
2015 04 09 14 48 36 .75     -88     63     -3    109    110 305.9  -1.8  34066  287.99 0861.59
2015 04 09 14 48 37 .01     -87     55      5    104    105 302.4   2.8  34068  288.03 0861.59
2015 04 09 14 48 37 .26     -99     66     -6    120    121 303.7  -3.2  34064  287.94 0861.59
2015 04 09 14 48 37 .51    -119     56    -16    132    134 295.3  -7.2  34080  288.23 0861.59
2015 04 09 14 48 37 .76    -126     68    -16    144    145 298.4  -6.7  34084  288.28 0861.59
2015 04 09 14 48 38 .01     -81     52      3     97     98 302.5   2.3  34102  288.60 0861.59
2015 04 09 14 48 38 .26     -79     77     28    111    115 314.0  14.3  34108  288.70 0861.59
2015 04 09 14 48 38 .51     -98     62     -2    117    118 302.4  -1.3  34094  288.45 0861.59
2015 04 09 14 48 38 .76    -105     71    -16    128    130 304.2  -7.3  34102  288.60 0861.58
2015 04 09 14 48 39 .01     -57     55      9     80     81 314.1   6.9  34110  288.72 0861.58
2015 04 09 14 48 39 .26     -61     62      9     88     89 315.3   5.9  34110  288.72 0861.58
2015 04 09 14 48 39 .52     -78     25     -8     83     84 288.2  -5.6  34118  288.86 0861.58
2015 04 09 14 48 39 .77     -36     43     11     57     59 320.4  11.1  34128  289.02 0861.58
2015 04 09 14 48 40 .02     -30    -25     -4     40     41 230.4  -6.2  34136  289.16 0861.58
2015 04 09 14 48 40 .27     -47      8    -19     48     51 280.6 -26.4  34140  289.24 0861.58
2015 04 09 14 48 40 .52     -18     17     14     26     29 313.1  31.4  34156  289.50 0861.58
2015 04 09 14 48 40 .77       0     -3     11      4     11 189.7  81.0  34180  289.91 0861.58
2015 04 09 14 48 41 .03     -73    -29      4     79     80 248.2   2.9  34168  289.70 0861.58
2015 04 09 14 48 41 .28    -104    -25    -13    108    109 256.3  -7.2  34174  289.82 0861.58
2015 04 09 14 48 41 .53     -24      0     23     25     33 270.8  50.0  34194  290.14 0861.58
2015 04 09 14 48 41 .78      -7      0     18      8     19 270.0  77.1  34202  290.30 0861.58
2015 04 09 14 48 42 .03     -79   -102     -9    130    131 217.9  -4.1  34180  289.92 0861.58
2015 04 09 14 48 42 .28     -43    -42     -1     61     62 226.0  -1.2  34194  290.16 0861.58
2015 04 09 14 48 42 .53      -4    -32     72     33     79 188.0  74.5  34204  290.31 0861.58
2015 04 09 14 48 42 .78     -60     -7    110     61    125 263.0  68.8  34234  290.82 0861.58
2015 04 09 14 48 43 .03     -25     22     61     34     69 311.3  68.8  34240  290.92 0861.58
2015 04 09 14 48 43 .28     -79     26     23     84     88 288.2  15.8  34238  290.91 0861.58
2015 04 09 14 48 43 .53     -17     48     -6     52     53 340.0  -7.2  34208  290.38 0861.58
2015 04 09 14 48 43 .78     -96     85    -10    129    130 311.8  -4.6  34198  290.23 0861.58
2015 04 09 14 48 44 .03     -42     43     39     61     72 315.8  35.6  34218  290.55 0861.58
2015 04 09 14 48 44 .28     -87     -7    -31     88     93 264.8 -23.8  34178  289.87 0861.58
2015 04 09 14 48 44 .53    -211     49     -8    217    218 283.3  -2.2  34160  289.58 0861.58
2015 04 09 14 48 44 .78    -291     78    -43    302    306 285.0  -8.2  34104  288.61 0861.58
2015 04 09 14 48 45 .03    -236     24    -31    238    241 275.9  -7.5  34124  288.97 0861.58
2015 04 09 14 48 45 .29    -192     76    -21    207    209 291.7  -6.0  34140  289.23 0861.58
2015 04 09 14 48 45 .54    -210    107    -34    236    239 297.1  -8.3  34132  289.10 0861.58
2015 04 09 14 48 45 .79    -232     99    -36    253    256 293.1  -8.2  34128  289.03 0861.58
2015 04 09 14 48 46 .04    -221    107    -49    246    251 296.0 -11.5  34158  289.53 0861.58
2015 04 09 14 48 46 .30    -211     58    -60    219    228 285.5 -15.5  34162  289.60 0861.58
2015 04 09 14 48 46 .55    -218    143    -14    262    263 303.3  -3.1  34150  289.41 0861.58
2015 04 09 14 48 46 .80    -220    165    -10    276    277 306.9  -2.1  34144  289.31 0861.58
2015 04 09 14 48 47 .05    -217    175    -56    279    285 308.9 -11.5  34126  289.00 0861.59
2015 04 09 14 48 47 .30    -206    135    -31    247    250 303.3  -7.3  34112  288.76 0861.59
2015 04 09 14 48 47 .55    -258    120    -20    285    286 295.1  -4.1  34124  288.95 0861.59
2015 04 09 14 48 47 .80    -240     95    -31    259    261 291.7  -6.9  34132  289.10 0861.59
2015 04 09 14 48 48 .05    -210     49    -35    216    219 283.2  -9.4  34118  288.86 0861.59
2015 04 09 14 48 48 .30    -253     24     -9    255    256 275.5  -2.2  34088  288.36 0861.59
2015 04 09 14 48 48 .55    -115     49      2    125    126 293.1   1.2  34112  288.77 0861.59
2015 04 09 14 48 48 .81    -132     43    -28    139    142 288.2 -11.5  34104  288.64 0861.58
2015 04 09 14 48 49 .05    -161     21    -14    163    164 277.7  -5.2  34118  288.86 0861.58
2015 04 09 14 48 49 .31     -21     21     52     31     60 315.0  66.8  34138  289.19 0861.58
2015 04 09 14 48 49 .56     -99     39    -25    107    110 291.7 -13.4  34158  289.53 0861.58
2015 04 09 14 48 49 .81    -168    117     -5    205    206 304.9  -1.6  34176  289.84 0861.58
2015 04 09 14 48 50 .06    -152    151    -43    215    220 314.9 -11.5  34170  289.74 0861.58
2015 04 09 14 48 50 .31    -103    169     31    199    202 328.6   8.9  34160  289.58 0861.58
2015 04 09 14 48 50 .56    -211    170     -5    272    273 308.9  -1.1  34146  289.34 0861.58
2015 04 09 14 48 50 .81    -302    170    -93    347    360 299.4 -15.0  34104  288.62 0861.58
2015 04 09 14 48 51 .05    -285    174    -67    335    342 301.4 -11.3  34034  287.44 0861.58
2015 04 09 14 48 51 .31    -309    145    -79    342    352 295.1 -13.1  34068  288.00 0861.58
2015 04 09 14 48 51 .56    -285    134    -66    316    323 295.2 -11.9  34066  287.97 0861.58
2015 04 09 14 48 51 .81    -282    134    -67    313    321 295.4 -12.2  34054  287.77 0861.58
2015 04 09 14 48 52 .06    -291    154    -61    330    336 298.0 -10.5  34120  288.88 0861.58
2015 04 09 14 48 52 .31    -296    131    -50    324    328 294.0  -8.8  34100  288.54 0861.58
2015 04 09 14 48 52 .57    -270    126    -65    299    307 295.1 -12.4  34116  288.81 0861.58
2015 04 09 14 48 52 .81    -219    127    -48    254    259 300.0 -10.9  34130  289.07 0861.58
2015 04 09 14 48 53 .06    -202    132    -23    242    244 303.3  -5.6  34130  289.05 0861.58
2015 04 09 14 48 53 .32    -197     88    -27    216    218 294.2  -7.3  34126  288.99 0861.58
2015 04 09 14 48 53 .57    -127    110    -16    169    170 310.9  -5.6  34132  289.09 0861.58
2015 04 09 14 48 53 .83    -186     75    -31    201    204 292.0  -8.8  34136  289.18 0861.58
2015 04 09 14 48 54 .08    -189     38    -35    193    197 281.4 -10.3  34132  289.11 0861.58
2015 04 09 14 48 54 .33    -120     -4    -21    121    123 267.9 -10.3  34150  289.40 0861.58
2015 04 09 14 48 54 .58    -178      8    -30    179    182 272.6  -9.8  34164  289.65 0861.58
2015 04 09 14 48 54 .83    -132     81    -23    155    157 301.5  -8.6  34168  289.72 0861.58
2015 04 09 14 48 55 .08    -195     38    -32    199    202 281.2  -9.3  34162  289.62 0861.58
2015 04 09 14 48 55 .33    -186     13    -30    187    190 274.1  -9.3  34160  289.57 0861.58
2015 04 09 14 48 55 .58     -58     59     15     84     86 315.5  10.1  34170  289.74 0861.58
2015 04 09 14 48 55 .83     -42     90     -3    100    101 334.6  -2.2  34180  289.91 0861.58
2015 04 09 14 48 56 .08      -6     54     19     55     59 352.9  19.2  34188  290.04 0861.58
2015 04 09 14 48 56 .33     -49     90     20    103    106 331.0  11.1  34172  289.77 0861.58
2015 04 09 14 48 56 .58     -84    124     35    150    155 325.8  13.2  34174  289.82 0861.58
2015 04 09 14 48 56 .83    -256     87    -24    271    273 288.8  -5.1  34084  288.27 0861.58
2015 04 09 14 48 57 .08    -206     28     -8    208    209 277.9  -2.2  34096  288.50 0861.58
2015 04 09 14 48 57 .33    -253     43    -47    257    262 279.7 -10.4  34096  288.49 0861.58
2015 04 09 14 48 57 .59    -185      1    -23    186    188 270.4  -7.3  34084  288.28 0861.58
2015 04 09 14 48 57 .83    -265     49    -44    270    274 280.5  -9.4  34070  288.04 0861.58
2015 04 09 14 48 58 .08    -197     19    -45    198    204 275.7 -12.9  34068  288.01 0861.58
2015 04 09 14 48 58 .34    -112     -1    -32    113    117 269.2 -20.7  34094  288.45 0861.58
2015 04 09 14 48 58 .58    -215     -4    -55    216    223 268.7 -14.3  34072  288.08 0861.58
2015 04 09 14 48 58 .84    -243     -6    -43    244    248 268.5 -10.1  34100  288.54 0861.58
2015 04 09 14 48 59 .09    -103    -41     -6    111    112 248.3  -3.1  34088  288.35 0861.58
2015 04 09 14 48 59 .34      57      8     36     58     68  81.2  35.5  34110  288.74 0861.58
2015 04 09 14 48 59 .59    -237     39    -65    241    250 279.5 -15.2  34060  287.88 0861.58
2015 04 09 14 48 59 .84    -267     67    -19    276    277 284.2  -4.1  34054  287.78 0861.58
2015 04 09 14 49 00 .09    -267     73    -24    277    279 285.3  -5.1  34056  287.80 0861.58
2015 04 09 14 49 00 .35    -303     92    -32    317    319 286.9  -5.9  34086  288.31 0861.58
2015 04 09 14 49 00 .60    -252    112    -10    276    277 294.0  -2.2  34098  288.51 0861.58
2015 04 09 14 49 00 .85    -237    109    -14    262    263 294.8  -3.1  34090  288.39 0861.58
2015 04 09 14 49 01 .10    -197     97    -19    220    221 296.4  -5.2  34076  288.14 0861.58
2015 04 09 14 49 01 .35    -191    152    -33    245    248 308.6  -7.7  34108  288.68 0861.58
2015 04 09 14 49 01 .60    -192    121    -45    228    233 302.2 -11.3  34110  288.74 0861.58
2015 04 09 14 49 01 .85    -168     63    -14    180    181 290.8  -4.6  34098  288.53 0861.58
2015 04 09 14 49 02 .10    -126     30    -33    130    135 283.7 -14.5  34114  288.80 0861.58
2015 04 09 14 49 02 .35    -182     20    -17    184    185 276.4  -5.4  34090  288.40 0861.58
2015 04 09 14 49 02 .61    -241     44    -31    246    249 280.5  -7.3  34086  288.32 0861.58
2015 04 09 14 49 02 .86    -212     59    -38    221    225 285.5  -9.8  34094  288.45 0861.58
2015 04 09 14 49 03 .11    -200     21    -29    202    205 276.1  -8.2  34092  288.43 0861.58
2015 04 09 14 49 03 .35    -236     77    -27    249    251 288.2  -6.2  34074  288.12 0861.58
2015 04 09 14 49 03 .61    -245    111    -40    270    274 294.4  -8.6  34058  287.83 0861.58
2015 04 09 14 49 03 .86    -226     90    -31    244    247 291.7  -7.3  34062  287.90 0861.58
2015 04 09 14 49 04 .11    -255     99    -39    274    277 291.3  -8.3  34086  288.31 0861.58
2015 04 09 14 49 04 .36    -215    118    -34    246    249 298.9  -8.0  34098  288.51 0861.58
2015 04 09 14 49 04 .61    -232     86    -48    248    253 290.4 -11.1  34102  288.59 0861.58
2015 04 09 14 49 04 .86    -220     74    -49    233    239 288.6 -11.9  34110  288.73 0861.58
2015 04 09 14 49 05 .11    -211     86    -45    228    233 292.2 -11.3  34120  288.89 0861.58
2015 04 09 14 49 05 .36    -216    131    -46    253    258 301.3 -10.3  34072  288.09 0861.58
2015 04 09 14 49 05 .61    -218    102    -31    241    244 295.2  -7.5  34068  288.02 0861.58
2015 04 09 14 49 05 .86    -207    114    -40    237    241 298.9  -9.8  34050  287.70 0861.58
2015 04 09 14 49 06 .11    -223    102    -43    246    250 294.6 -10.1  34048  287.66 0861.58
2015 04 09 14 49 06 .37    -212     93    -57    232    240 293.7 -13.9  34062  287.90 0861.58
2015 04 09 14 49 06 .61    -201     94    -41    223    227 295.2 -10.5  34110  288.74 0861.58
2015 04 09 14 49 06 .87    -159     92    -15    184    185 300.0  -4.9  34124  288.96 0861.58
2015 04 09 14 49 07 .13    -165     96     -7    192    193 300.2  -2.2  34144  289.31 0861.58
2015 04 09 14 49 07 .38    -125     84    -19    151    153 304.1  -7.2  34150  289.41 0861.58
2015 04 09 14 49 07 .63     -98     52    -14    112    113 298.0  -7.3  34160  289.58 0861.58
2015 04 09 14 49 07 .88    -112     23    -32    115    120 281.9 -15.5  34156  289.50 0861.58
2015 04 09 14 49 08 .13     -95     20    -28     98    103 281.9 -16.0  34154  289.46 0861.58
2015 04 09 14 49 08 .38     -34    -83    -11     90     91 202.7  -7.3  34156  289.50 0861.58
2015 04 09 14 49 08 .63     -48     37    -27     61     66 307.8 -29.5  34158  289.53 0861.58
2015 04 09 14 49 08 .88    -143     47    -34    151    155 288.2 -12.9  34130  289.08 0861.58
2015 04 09 14 49 09 .13    -103     13    -13    104    105 277.5  -7.2  34136  289.18 0861.58
2015 04 09 14 49 09 .38    -164      8    -36    165    169 273.0 -12.4  34120  288.89 0861.58
2015 04 09 14 49 09 .63    -177     29    -38    180    185 279.5 -12.2  34126  289.01 0861.58
2015 04 09 14 49 09 .88    -196     44    -40    201    205 282.8 -11.3  34104  288.64 0861.58
2015 04 09 14 49 10 .13    -210    -16    -27    211    213 265.6  -7.3  34096  288.48 0861.58
2015 04 09 14 49 10 .38    -222     12    -41    223    227 273.3 -10.5  34090  288.38 0861.58
2015 04 09 14 49 10 .64    -176    -13    -36    177    181 265.7 -11.6  34100  288.55 0861.58
2015 04 09 14 49 10 .89    -187     -3    -52    188    196 269.0 -15.5  34170  289.75 0861.58
2015 04 09 14 49 11 .13    -167     31    -42    170    176 280.6 -13.9  34166  289.69 0861.58
2015 04 09 14 49 11 .39    -152    -11    -28    153    156 265.6 -10.5  34180  289.92 0861.58
2015 04 09 14 49 11 .64    -138     -8    -31    139    143 266.5 -12.9  34182  289.96 0861.58
2015 04 09 14 49 11 .88     -47     32     21     58     61 304.2  20.0  34194  290.16 0861.58
2015 04 09 14 49 12 .14     -17     54    -14     57     59 342.2 -14.5  34188  290.06 0861.58
2015 04 09 14 49 12 .39     -14     39     10     42     44 340.0  13.2  34172  289.79 0861.58
2015 04 09 14 49 12 .64       0    -36     25     37     44 180.9  36.5  34202  290.28 0861.58
2015 04 09 14 49 12 .89     -94     32    -28    100    103 289.1 -20.7  34180  289.91 0861.58
2015 04 09 14 49 13 .14    -142     56     14    153    154 291.8   5.4  34188  290.04 0861.57
2015 04 09 14 49 13 .39    -152     28    -31    155    159 280.6 -11.6  34164  289.63 0861.57
2015 04 09 14 49 13 .64    -203     23    -40    205    209 276.6 -11.1  34152  289.43 0861.57
2015 04 09 14 49 13 .89    -110     36      2    116    117 288.4   1.2  34170  289.74 0861.57
2015 04 09 14 49 14 .15    -196      3    -25    197    199 270.9  -7.3  34104  288.64 0861.57
2015 04 09 14 49 14 .40    -262     39    -38    265    268 278.6  -8.3  34078  288.19 0861.57
2015 04 09 14 49 14 .65    -269     33    -44    272    276 277.0  -9.3  34084  288.27 0861.57
2015 04 09 14 49 14 .90    -225     31    -56    228    235 277.9 -13.9  34092  288.43 0861.57
2015 04 09 14 49 15 .15    -199     19    -59    200    209 275.7 -16.4  34132  289.09 0861.57
2015 04 09 14 49 15 .41    -164    -35    -43    168    174 257.8 -14.5  34164  289.63 0861.57
2015 04 09 14 49 15 .65    -208    -24    -49    210    216 263.4 -13.2  34160  289.58 0861.57
2015 04 09 14 49 15 .90    -149     30    -43    152    159 281.5 -16.0  34164  289.65 0861.57
2015 04 09 14 49 16 .16     -28      9     25     30     39 288.6  43.8  34182  289.96 0861.57
2015 04 09 14 49 16 .41     -17    -62     15     65     67 195.2  13.2  34166  289.69 0861.57
2015 04 09 14 49 16 .66     -46    -38     34     60     68 230.5  32.4  34182  289.96 0861.57
2015 04 09 14 49 16 .91    -124    -11    -42    125    132 264.8 -18.7  34176  289.84 0861.57
2015 04 09 14 49 17 .16     -61    -56    -25     83     86 227.3 -22.3  34194  290.14 0861.57
2015 04 09 14 49 17 .41    -117    -22      2    120    121 259.4   1.2  34166  289.69 0861.57
2015 04 09 14 49 17 .66    -136    -36    -37    141    146 255.0 -15.0  34156  289.52 0861.57
2015 04 09 14 49 17 .91     -69      5     33     70     77 274.3  27.1  34192  290.11 0861.57
2015 04 09 14 49 18 .16    -144    -48    -38    152    157 251.4 -14.3  34174  289.80 0861.57
2015 04 09 14 49 18 .41    -102    -40    -22    110    113 248.2 -11.5  34164  289.65 0861.57
2015 04 09 14 49 18 .66    -143      0    -18    144    146 270.0  -7.3  34138  289.21 0861.56
2015 04 09 14 49 18 .91    -111    -12    -14    112    113 263.4  -7.2  34134  289.13 0861.56
2015 04 09 14 49 19 .16     -66    -22     -6     70     71 251.4  -5.2  34104  288.64 0861.56
2015 04 09 14 49 19 .41     -18    -28     -1     34     35 212.5  -2.2  34114  288.80 0861.56
2015 04 09 14 49 19 .67     -87    -12     -8     88     89 262.1  -5.6  34116  288.82 0861.56
2015 04 09 14 49 19 .92     -85     25    -41     89     97 286.4 -31.0  34116  288.82 0861.56
2015 04 09 14 49 20 .17     -57     -4     11     58     60 265.7  11.1  34132  289.09 0861.56
2015 04 09 14 49 20 .42     -10     21      0     24     25 334.6  -2.2  34110  288.74 0861.56
2015 04 09 14 49 20 .67      32      6     32     33     45  78.6  50.0  34126  289.01 0861.56
2015 04 09 14 49 20 .91     -13    -13     -7     19     20 223.4 -25.4  34130  289.06 0861.56
2015 04 09 14 49 21 .18    -135      0    -43    136    143 270.0 -17.6  34108  288.70 0861.56
2015 04 09 14 49 21 .43    -128    -31    -43    132    139 256.3 -18.1  34076  288.16 0861.57
2015 04 09 14 49 21 .68     -97     13     12     98     99 277.9   7.1  34092  288.42 0861.57
2015 04 09 14 49 21 .93    -153    -31    -33    157    161 258.6 -12.2  34082  288.26 0861.57
2015 04 09 14 49 22 .18    -149    -11     -8    150    151 265.6  -3.1  34088  288.35 0861.57
2015 04 09 14 49 22 .43    -221      1    -72    222    234 270.4 -17.9  34072  288.09 0861.57
2015 04 09 14 49 22 .68    -182     15    -15    183    184 274.8  -4.9  34082  288.26 0861.57
2015 04 09 14 49 22 .93    -254     27    -68    256    265 276.1 -15.0  34086  288.32 0861.57
2015 04 09 14 49 23 .18    -227      3    -72    228    240 270.8 -17.5  34086  288.32 0861.57
2015 04 09 14 49 23 .43    -247    -28    -41    249    253 263.4  -9.3  34078  288.19 0861.57
2015 04 09 14 49 23 .68    -253    -40    -67    257    266 261.0 -14.7  34072  288.07 0861.57
2015 04 09 14 49 23 .93    -269    -13    -70    270    280 267.2 -14.7  34070  288.04 0861.57
2015 04 09 14 49 24 .18    -256    -18    -51    257    263 265.9 -11.3  34072  288.07 0861.57
2015 04 09 14 49 24 .43    -200     -5    -40    201    206 268.3 -11.3  34066  287.99 0861.57
2015 04 09 14 49 24 .69    -195    -29    -35    198    202 261.4 -10.1  34076  288.16 0861.57
2015 04 09 14 49 24 .94    -209      3    -33    210    213 271.0  -9.0  34080  288.23 0861.57
2015 04 09 14 49 25 .19    -223    -31    -28    226    228 262.0  -7.2  34088  288.36 0861.56
2015 04 09 14 49 25 .44    -125    -23    -16    128    130 259.4  -7.2  34106  288.65 0861.56
2015 04 09 14 49 25 .69    -175    -45    -39    181    186 255.4 -12.4  34124  288.96 0861.56
2015 04 09 14 49 25 .94     -63     12     -3     65     66 281.5  -3.1  34122  288.92 0861.56
2015 04 09 14 49 26 .19      45      8     30     46     54  79.4  35.6  34138  289.21 0861.56
2015 04 09 14 49 26 .44     -26     69     -9     74     75 339.1  -7.2  34172  289.79 0861.56
2015 04 09 14 49 26 .69      -7      6    -18     10     20 313.1 -73.2  34192  290.13 0861.56
2015 04 09 14 49 26 .94    -133     73     -8    152    153 298.8  -3.2  34124  288.96 0861.57
2015 04 09 14 49 27 .19     -78     58     43     98    107 306.4  24.6  34118  288.87 0861.57
2015 04 09 14 49 27 .46     -53     -9     20     54     57 260.3  20.0  34118  288.87 0861.57
2015 04 09 14 49 27 .69    -229     40    -55    233    240 279.9 -13.3  34060  287.88 0861.57
2015 04 09 14 49 27 .96    -253     50    -42    258    262 281.2  -9.4  34066  287.97 0861.57
2015 04 09 14 49 28 .20    -263     40    -34    267    270 278.8  -7.3  34104  288.61 0861.57
2015 04 09 14 49 28 .45    -259     48    -28    264    266 280.6  -6.1  34122  288.92 0861.57
2015 04 09 14 49 28 .70    -278     74    -63    288    295 285.1 -12.4  34036  287.48 0861.57
2015 04 09 14 49 28 .95    -293     97    -52    309    314 288.4  -9.6  34064  287.93 0861.57
2015 04 09 14 49 29 .20    -297     79    -44    308    312 285.1  -8.2  34056  287.80 0861.57
2015 04 09 14 49 29 .46    -281     56    -25    287    289 281.4  -5.1  34050  287.70 0861.57
2015 04 09 14 49 29 .71    -282     75    -61    292    299 285.0 -11.9  34036  287.46 0861.57
2015 04 09 14 49 29 .96    -270     88    -36    285    288 288.2  -7.3  34060  287.87 0861.57
2015 04 09 14 49 30 .21    -268     54    -33    274    276 281.5  -6.9  34074  288.10 0861.57
2015 04 09 14 49 30 .46    -256     67    -60    265    272 284.8 -12.9  34054  287.77 0861.57
2015 04 09 14 49 30 .71    -234     55    -31    241    244 283.3  -7.5  34064  287.95 0861.57
2015 04 09 14 49 30 .96    -242     43    -31    246    249 280.1  -7.3  34068  288.02 0861.57
2015 04 09 14 49 31 .21    -241     55    -42    248    252 283.0  -9.6  34056  287.80 0861.57
2015 04 09 14 49 31 .47    -239     59    -54    247    253 283.9 -12.4  34072  288.09 0861.56
2015 04 09 14 49 31 .71    -248     75    -52    260    266 286.8 -11.3  34084  288.29 0861.56
2015 04 09 14 49 31 .96    -229     46    -24    234    236 281.4  -6.1  34076  288.15 0861.56
2015 04 09 14 49 32 .21    -254     52    -19    260    261 281.7  -4.4  34072  288.09 0861.56
2015 04 09 14 49 32 .46    -263     72    -54    273    279 285.3 -11.3  34078  288.17 0861.56
2015 04 09 14 49 32 .72    -239     68    -48    249    254 285.9 -11.1  34084  288.27 0861.56
2015 04 09 14 49 32 .96    -247     63    -47    256    261 284.4 -10.5  34094  288.44 0861.56
2015 04 09 14 49 33 .22    -221     58    -26    229    231 284.8  -6.5  34104  288.62 0861.56
2015 04 09 14 49 33 .46    -217     86    -28    234    236 291.8  -6.9  34102  288.59 0861.56
2015 04 09 14 49 33 .72    -202     82    -28    219    221 292.2  -7.5  34104  288.64 0861.56
2015 04 09 14 49 33 .97    -169     51    -23    177    179 287.1  -7.7  34108  288.69 0861.56
2015 04 09 14 49 34 .22    -172     57    -12    182    183 288.6  -3.9  34106  288.67 0861.56
2015 04 09 14 49 34 .47    -104     28      7    108    109 285.5   3.8  34122  288.92 0861.56
2015 04 09 14 49 34 .72    -204     99    -12    228    229 296.0  -3.2  34096  288.50 0861.56
2015 04 09 14 49 34 .98    -223    115    -35    251    254 297.3  -8.0  34060  287.87 0861.56
2015 04 09 14 49 35 .23    -220    103    -47    244    249 295.1 -10.9  34032  287.41 0861.56
2015 04 09 14 49 35 .48    -239     88    -36    255    258 290.2  -8.2  34034  287.43 0861.56
2015 04 09 14 49 35 .73    -213     90    -22    232    234 293.1  -5.6  34034  287.44 0861.56
2015 04 09 14 49 35 .98    -219     95    -31    239    242 293.5  -7.5  34034  287.43 0861.57
2015 04 09 14 49 36 .23    -225     81    -48    240    245 290.0 -11.3  34030  287.38 0861.57
2015 04 09 14 49 36 .48    -216     84    -51    232    238 291.3 -12.4  34030  287.36 0861.57
2015 04 09 14 49 36 .73    -217     84    -43    233    237 291.3 -10.5  34034  287.44 0861.57
2015 04 09 14 49 36 .98    -234     74    -31    246    248 287.7  -7.2  34074  288.10 0861.57
2015 04 09 14 49 37 .23    -218    102    -31    241    244 295.2  -7.5  34068  288.02 0861.57
2015 04 09 14 49 37 .48    -212     83    -38    228    232 291.5  -9.6  34060  287.87 0861.57
2015 04 09 14 49 37 .74    -214    102    -41    238    242 295.5  -9.8  34046  287.65 0861.57
2015 04 09 14 49 37 .98    -222     89    -34    240    243 291.8  -8.2  34038  287.51 0861.57
2015 04 09 14 49 38 .23    -211     74    -44    224    229 289.5 -11.3  34028  287.35 0861.57
2015 04 09 14 49 38 .48    -217     75    -37    230    234 289.1  -9.3  34032  287.42 0861.57
2015 04 09 14 49 38 .74    -204     79    -39    219    223 291.3 -10.1  34036  287.49 0861.57
2015 04 09 14 49 38 .98    -204     74    -35    218    221 290.0  -9.3  34038  287.52 0861.57
2015 04 09 14 49 39 .24    -155     72    -19    172    174 295.1  -6.5  34104  288.64 0861.57
2015 04 09 14 49 39 .49     -95     60    -10    113    114 302.5  -5.2  34122  288.94 0861.57
2015 04 09 14 49 39 .74    -161     30    -44    164    170 280.8 -15.2  34118  288.86 0861.57
2015 04 09 14 49 39 .99    -166     84    -33    187    190 296.9 -10.1  34106  288.67 0861.57
2015 04 09 14 49 40 .24    -205     81    -31    221    224 291.5  -8.0  34066  287.99 0861.57
2015 04 09 14 49 40 .49    -211     92    -39    231    235 293.5  -9.6  34072  288.09 0861.57
2015 04 09 14 49 40 .74    -208     76    -32    222    225 290.2  -8.2  34072  288.08 0861.57
2015 04 09 14 49 40 .99    -196     57    -16    205    206 286.4  -4.6  34092  288.43 0861.57
2015 04 09 14 49 41 .24    -198     62    -18    208    209 287.5  -5.2  34090  288.40 0861.57
2015 04 09 14 49 41 .49    -211     44    -17    216    217 281.9  -4.6  34066  287.98 0861.57
2015 04 09 14 49 41 .74    -196    111    -37    226    230 299.5  -9.3  34050  287.72 0861.57
2015 04 09 14 49 42 .01    -188    113    -12    220    221 300.9  -3.1  34058  287.84 0861.57
2015 04 09 14 49 42 .26    -161    116      0    199    200 305.9  -0.3  34054  287.77 0861.56
2015 04 09 14 49 42 .51    -150    134     -6    202    203 311.8  -1.8  34058  287.84 0861.56
2015 04 09 14 49 42 .76    -167     85    -32    188    191 297.1  -9.8  34078  288.18 0861.56
2015 04 09 14 49 43 .01    -184     96    -27    208    210 297.5  -7.5  34106  288.67 0861.56
2015 04 09 14 49 43 .26    -178     76    -21    194    196 293.3  -6.2  34102  288.58 0861.56
2015 04 09 14 49 43 .51    -150    118    -13    192    193 308.2  -3.9  34112  288.77 0861.56
2015 04 09 14 49 43 .76    -118    122      2    170    171 315.9   0.8  34126  288.99 0861.56
2015 04 09 14 49 44 .01    -102    108     -3    149    150 316.8  -1.3  34122  288.92 0861.56
2015 04 09 14 49 44 .26     -83     83    -38    118    125 315.0 -18.1  34148  289.38 0861.56
2015 04 09 14 49 44 .51     -89     60     24    108    111 304.2  12.6  34148  289.36 0861.56
2015 04 09 14 49 44 .76    -129     65     -5    145    146 297.0  -2.2  34158  289.55 0861.56
2015 04 09 14 49 45 .01    -134     84    -27    159    162 302.0  -9.6  34160  289.57 0861.56
2015 04 09 14 49 45 .26    -152     99    -40    182    187 303.1 -12.6  34156  289.50 0861.56
2015 04 09 14 49 45 .51    -184     87    -26    204    206 295.4  -7.5  34132  289.09 0861.56
2015 04 09 14 49 45 .76    -185     87    -56    205    213 295.2 -15.5  34072  288.09 0861.56
2015 04 09 14 49 46 .01    -186     66    -58    198    207 289.5 -16.4  34072  288.08 0861.57
2015 04 09 14 49 46 .26    -198     83    -39    215    219 292.8 -10.3  34082  288.25 0861.57
2015 04 09 14 49 46 .51    -177     87    -28    198    201 296.2  -8.2  34082  288.26 0861.57
2015 04 09 14 49 46 .77    -194     82    -16    211    212 293.1  -4.4  34080  288.21 0861.57
2015 04 09 14 49 47 .02    -242     77    -32    254    257 287.7  -7.3  34084  288.27 0861.57
2015 04 09 14 49 47 .27    -302     92    -48    316    320 287.1  -8.7  34096  288.48 0861.57
2015 04 09 14 49 47 .52    -299     98    -35    315    318 288.2  -6.5  34102  288.59 0861.57
2015 04 09 14 49 47 .76    -269     93    -67    285    293 289.1 -13.3  34070  288.04 0861.57
2015 04 09 14 49 48 .02    -244    115    -54    270    276 295.2 -11.3  34078  288.17 0861.57
2015 04 09 14 49 48 .27    -233    100    -36    254    257 293.3  -8.3  34080  288.22 0861.57
2015 04 09 14 49 48 .52    -242    154    -26    288    290 302.5  -5.2  34092  288.41 0861.57
2015 04 09 14 49 48 .77    -286    178    -40    338    341 301.9  -6.8  34078  288.18 0861.57
2015 04 09 14 49 49 .03    -314    228    -61    389    394 306.0  -9.0  34074  288.11 0861.57
2015 04 09 14 49 49 .28    -281    204    -44    348    351 306.0  -7.3  34078  288.18 0861.57
2015 04 09 14 49 49 .53    -269    196    -19    334    335 306.1  -3.3  34078  288.20 0861.57
2015 04 09 14 49 49 .78    -253    174    -70    308    316 304.6 -12.9  34072  288.07 0861.57
2015 04 09 14 49 50 .03    -271    182    -77    327    336 304.0 -13.3  34076  288.15 0861.57
2015 04 09 14 49 50 .28    -246    202    -44    319    323 309.5  -7.9  34084  288.27 0861.57
2015 04 09 14 49 50 .53    -209    196    -65    287    295 313.1 -12.9  34080  288.22 0861.57
2015 04 09 14 49 50 .78    -226    143    -61    268    275 302.5 -12.9  34086  288.31 0861.57
2015 04 09 14 49 51 .04    -256    143    -44    294    298 299.3  -8.6  34084  288.29 0861.57
2015 04 09 14 49 51 .29    -241    163    -64    292    299 304.1 -12.4  34090  288.39 0861.57
2015 04 09 14 49 51 .54    -256    202    -55    327    332 308.3  -9.7  34096  288.50 0861.57
2015 04 09 14 49 51 .79    -211    166    -59    269    276 308.2 -12.4  34106  288.66 0861.57
2015 04 09 14 49 52 .04    -210    143    -46    255    260 304.2 -10.3  34108  288.68 0861.57
2015 04 09 14 49 52 .29    -211    143    -30    256    258 304.2  -6.9  34108  288.68 0861.57
2015 04 09 14 49 52 .54    -194    124    -29    231    233 302.5  -7.2  34104  288.64 0861.57
2015 04 09 14 49 52 .79    -189     97    -36    213    217 297.3  -9.6  34110  288.74 0861.57
2015 04 09 14 49 53 .04    -172     38    -61    177    188 282.6 -19.1  34112  288.75 0861.57
2015 04 09 14 49 53 .29     -73      1     -9     74     75 270.8  -7.3  34140  289.24 0861.57
2015 04 09 14 49 53 .54    -131     27    -20    134    136 281.9  -8.8  34132  289.09 0861.57
2015 04 09 14 49 53 .79    -139     55      0    150    151 291.8  -0.3  34130  289.08 0861.57
2015 04 09 14 49 54 .04    -183     54    -17    192    193 286.6  -5.2  34126  288.99 0861.57
2015 04 09 14 49 54 .29    -261     79    -48    273    278 286.9 -10.1  34100  288.54 0861.57
2015 04 09 14 49 54 .54    -227     45    -31    232    235 281.4  -7.7  34102  288.59 0861.57
2015 04 09 14 49 54 .80    -133     86    -15    159    160 302.9  -5.6  34116  288.82 0861.57
2015 04 09 14 49 55 .04    -277     50    -51    282    287 280.4 -10.3  34080  288.21 0861.57
2015 04 09 14 49 55 .30    -357     86    -60    368    374 283.6  -9.3  34054  287.79 0861.57
2015 04 09 14 49 55 .55    -329     39    -65    332    339 276.8 -11.1  34078  288.18 0861.57
2015 04 09 14 49 55 .81    -291     73    -39    301    304 284.2  -7.5  34098  288.53 0861.57
2015 04 09 14 49 56 .06    -250     -9    -22    251    253 267.9  -5.1  34110  288.71 0861.57
2015 04 09 14 49 56 .31    -334     82    -81    344    354 283.8 -13.3  34106  288.66 0861.57
2015 04 09 14 49 56 .56    -296    101    -83    313    324 289.0 -15.0  34108  288.68 0861.57
2015 04 09 14 49 56 .81    -279     87    -61    293    300 287.3 -11.9  34108  288.68 0861.57
2015 04 09 14 49 57 .06    -325    141    -53    355    360 293.5  -8.6  34090  288.38 0861.57
2015 04 09 14 49 57 .31    -300    105    -64    318    325 289.3 -11.5  34076  288.15 0861.57
2015 04 09 14 49 57 .56    -353    141    -70    381    388 291.8 -10.5  34074  288.11 0861.57
2015 04 09 14 49 57 .81    -323    129    -58    349    354 291.9  -9.5  34076  288.16 0861.57
2015 04 09 14 49 58 .06    -304     99    -33    320    322 288.2  -5.9  34084  288.29 0861.57
2015 04 09 14 49 58 .31    -348    131    -40    373    376 290.7  -6.2  34100  288.54 0861.57
2015 04 09 14 49 58 .56    -380    126     -1    401    402 288.5  -0.3  34112  288.76 0861.57
2015 04 09 14 49 58 .81    -367    127    -42    389    392 289.2  -6.2  34096  288.50 0861.57
2015 04 09 14 49 59 .06    -280    187    -15    337    338 303.7  -2.6  34100  288.55 0861.57
2015 04 09 14 49 59 .31    -243    201    -34    316    318 309.5  -6.3  34100  288.54 0861.57
2015 04 09 14 49 59 .56    -213    190    -60    286    293 311.8 -11.9  34100  288.54 0861.57
2015 04 09 14 49 59 .82    -178    178    -85    253    268 315.0 -18.6  34098  288.53 0861.57
2015 04 09 14 50 00 .07    -231    183    -59    295    301 308.4 -11.3  34140  289.22 0861.57
2015 04 09 14 50 00 .32    -129     93     -3    160    161 305.9  -1.3  34146  289.35 0861.57
2015 04 09 14 50 00 .57     -99    180     56    206    214 331.0  15.3  34140  289.24 0861.57
2015 04 09 14 50 00 .82     -84    172     80    192    208 333.9  23.8  34132  289.09 0861.57
2015 04 09 14 50 01 .07     -81    149      4    170    171 331.5   1.6  34158  289.55 0861.57
2015 04 09 14 50 01 .32     -34    103     36    109    115 341.3  18.4  34164  289.65 0861.57
2015 04 09 14 50 01 .57     -42    173     80    179    196 346.2  25.3  34182  289.96 0861.57
2015 04 09 14 50 01 .82    -111    193    -65    223    233 330.1 -16.4  34190  290.08 0861.57
2015 04 09 14 50 02 .07    -117    116     36    165    169 314.8  12.4  34206  290.35 0861.57
2015 04 09 14 50 02 .32     -80    125    -23    149    151 327.4  -8.8  34196  290.19 0861.57
2015 04 09 14 50 02 .57     -90    205    -20    225    226 336.3  -5.2  34220  290.58 0861.57
2015 04 09 14 50 02 .83    -163    190    -37    251    254 319.2  -8.6  34180  289.90 0861.57
2015 04 09 14 50 03 .08    -162    187    -45    248    253 319.0 -10.3  34100  288.56 0861.57
2015 04 09 14 50 03 .33    -108    238    -28    262    264 335.5  -6.2  34096  288.49 0861.57
2015 04 09 14 50 03 .59     -95    293     -6    309    310 342.0  -1.3  34076  288.14 0861.57
2015 04 09 14 50 03 .83    -129    323    -10    348    349 338.2  -1.8  34048  287.67 0861.57
2015 04 09 14 50 04 .09    -100    312      6    328    329 342.2   1.2  34042  287.56 0861.57
2015 04 09 14 50 04 .34     -74    315      0    324    325 346.7   0.0  34068  288.00 0861.57
2015 04 09 14 50 04 .59    -119    293    -50    317    321 337.9  -9.0  34084  288.27 0861.57
2015 04 09 14 50 04 .84    -118    231    -30    260    262 332.8  -6.7  34092  288.41 0861.57
2015 04 09 14 50 05 .09     -80    249     17    262    263 342.2   3.8  34082  288.26 0861.57
2015 04 09 14 50 05 .34     -87    199      1    218    219 336.4   0.5  34092  288.42 0861.57
2015 04 09 14 50 05 .59     -79    231     64    245    254 341.1  14.7  34112  288.75 0861.57
2015 04 09 14 50 05 .84     -68    263     65    272    280 345.5  13.5  34108  288.70 0861.57
2015 04 09 14 50 06 .09     -76    237     -1    249    250 342.2  -0.3  34092  288.41 0861.57
2015 04 09 14 50 06 .34    -127    213    -17    249    250 329.2  -3.9  34080  288.22 0861.57
2015 04 09 14 50 06 .59    -165    286    -67    331    338 330.1 -11.5  34098  288.52 0861.57
2015 04 09 14 50 06 .84     -89    326     34    338    340 344.7   5.8  34116  288.82 0861.57
2015 04 09 14 50 07 .09     -86    298     -1    311    312 343.9  -0.2  34132  289.09 0861.57
2015 04 09 14 50 07 .34    -104    257     -5    278    279 337.9  -1.2  34142  289.27 0861.57
2015 04 09 14 50 07 .59    -183    214     -5    282    283 319.5  -1.2  34166  289.66 0861.57
2015 04 09 14 50 07 .84    -160    150     11    220    221 313.3   2.9  34158  289.55 0861.57
2015 04 09 14 50 08 .09    -126    256    -26    286    288 333.7  -5.2  34132  289.10 0861.57
2015 04 09 14 50 08 .35     -97    286      1    303    304 341.3   0.2  34152  289.44 0861.57
2015 04 09 14 50 08 .60    -121    319    -16    342    343 339.2  -2.7  34154  289.47 0861.57
2015 04 09 14 50 08 .85    -160    180      7    242    243 318.3   1.8  34182  289.93 0861.57
2015 04 09 14 50 09 .10    -124    182    124    221    253 325.7  31.9  34206  290.34 0861.57
2015 04 09 14 50 09 .35     -85    170     69    191    203 333.5  20.7  34240  290.94 0861.57
2015 04 09 14 50 09 .60    -276    136    -39    308    311 296.2  -7.3  34178  289.86 0861.57
2015 04 09 14 50 09 .86    -189    196    -15    273    274 316.1  -3.2  34178  289.86 0861.57
2015 04 09 14 50 10 .11    -148    179     -1    233    234 320.4  -0.3  34186  290.02 0861.57
2015 04 09 14 50 10 .36    -233    173    -69    291    300 306.6 -13.4  34118  288.87 0861.57
2015 04 09 14 50 10 .61    -230    179    -75    292    302 308.0 -14.5  34124  288.95 0861.57
2015 04 09 14 50 10 .86    -218    180    -59    283    290 309.5 -11.9  34162  289.61 0861.57
2015 04 09 14 50 11 .11    -104    137     71    173    187 322.8  23.6  34176  289.84 0861.57
2015 04 09 14 50 11 .36    -132    230    -60    266    273 330.1 -12.9  34154  289.46 0861.58
2015 04 09 14 50 11 .61    -153    185    -55    241    248 320.4 -12.9  34152  289.42 0861.58
2015 04 09 14 50 11 .86    -193    167     -9    256    257 310.9  -2.1  34144  289.29 0861.58
2015 04 09 14 50 12 .11    -231    216    -19    317    318 313.1  -3.5  34084  288.27 0861.58
2015 04 09 14 50 12 .36    -275    221    -40    354    357 308.8  -6.6  34048  287.66 0861.58
2015 04 09 14 50 12 .61    -248    198    -40    318    321 308.6  -7.2  34040  287.53 0861.58
2015 04 09 14 50 12 .87    -266    209    -27    339    341 308.1  -4.6  34048  287.67 0861.58
2015 04 09 14 50 13 .12    -296    198    -19    357    358 303.9  -3.2  34044  287.62 0861.57
2015 04 09 14 50 13 .36    -304    240    -70    388    395 308.3 -10.2  34038  287.51 0861.57
2015 04 09 14 50 13 .62    -288    251    -86    383    393 311.1 -12.7  34044  287.62 0861.57
2015 04 09 14 50 13 .87    -268    251    -60    368    374 313.2  -9.3  34070  288.06 0861.57
2015 04 09 14 50 14 .12    -238    238    -68    337    344 315.0 -11.5  34076  288.15 0861.57
2015 04 09 14 50 14 .37    -167    297    -61    341    347 330.6 -10.3  34068  288.03 0861.57
2015 04 09 14 50 14 .62    -165    242    -64    294    302 325.7 -12.4  34072  288.07 0861.57
2015 04 09 14 50 14 .87    -176    193    -64    262    270 317.7 -13.9  34054  287.78 0861.57
2015 04 09 14 50 15 .12    -139    234    -55    273    279 329.3 -11.5  34048  287.66 0861.57
2015 04 09 14 50 15 .37    -136    217    -47    257    262 327.9 -10.5  34052  287.73 0861.57
2015 04 09 14 50 15 .62    -147    206    -36    254    257 324.4  -8.2  34062  287.90 0861.57
2015 04 09 14 50 15 .88    -195    178    -67    265    274 312.4 -14.3  34066  287.97 0861.56
2015 04 09 14 50 16 .12    -111    277     -6    299    300 338.1  -1.2  34116  288.81 0861.56
2015 04 09 14 50 16 .37    -117    278    -11    302    303 337.2  -2.1  34144  289.31 0861.56
2015 04 09 14 50 16 .64    -129    301    -22    328    329 336.8  -3.9  34152  289.43 0861.56
2015 04 09 14 50 16 .89     -98    205     -8    228    229 334.4  -2.2  34182  289.96 0861.56
2015 04 09 14 50 17 .14    -146    137     47    201    207 313.3  13.2  34178  289.89 0861.56
2015 04 09 14 50 17 .38    -160    175      3    238    239 317.5   0.8  34160  289.56 0861.56
2015 04 09 14 50 17 .64    -164    142      0    218    219 310.9   0.0  34112  288.77 0861.57
2015 04 09 14 50 17 .89    -111    160      0    195    196 325.3   0.2  34104  288.62 0861.57
2015 04 09 14 50 18 .14    -120    191    -45    226    231 327.7 -11.3  34078  288.18 0861.57
2015 04 09 14 50 18 .39    -105    190    -28    218    220 331.0  -7.3  34106  288.67 0861.57
2015 04 09 14 50 18 .64     -91    303     18    317    318 343.3   3.3  34096  288.49 0861.57
2015 04 09 14 50 18 .89    -153    182      6    239    240 319.9   1.6  34112  288.75 0861.57
2015 04 09 14 50 19 .14    -104    193     31    220    223 331.7   8.0  34126  288.99 0861.57
2015 04 09 14 50 19 .39    -130    285    -26    314    316 335.5  -4.9  34068  288.00 0861.57
2015 04 09 14 50 19 .64    -131    287    -24    316    317 335.5  -4.4  34050  287.70 0861.57
2015 04 09 14 50 19 .89    -131    311    -18    338    339 337.1  -3.1  34080  288.22 0861.57
2015 04 09 14 50 20 .14    -132    281    -23    311    312 334.7  -4.4  34110  288.71 0861.57
2015 04 09 14 50 20 .39    -145    275    -61    312    319 332.1 -11.1  34082  288.24 0861.57
2015 04 09 14 50 20 .64    -160    302    -61    342    348 332.0 -10.2  34074  288.13 0861.57
2015 04 09 14 50 20 .89    -158    271    -41    314    317 329.7  -7.5  34074  288.10 0861.57
2015 04 09 14 50 21 .14    -207    273    -55    343    348 322.8  -9.1  34054  287.79 0861.57
2015 04 09 14 50 21 .39    -241    253    -68    350    357 316.3 -11.0  34050  287.71 0861.57
2015 04 09 14 50 21 .65    -200    318    -81    376    385 327.8 -12.2  34048  287.69 0861.57
2015 04 09 14 50 21 .89    -213    313    -91    379    390 325.7 -13.6  34036  287.47 0861.57
2015 04 09 14 50 22 .14    -230    296    -91    375    386 322.2 -13.7  34032  287.42 0861.57
2015 04 09 14 50 22 .40    -226    275   -100    357    370 320.6 -20.2  34038  287.51 0861.57
2015 04 09 14 50 22 .64    -195    255   -102    322    338 322.6 -17.6  34032  287.42 0861.57
2015 04 09 14 50 22 .90    -162    292    -81    334    344 331.0 -13.7  34036  287.47 0861.57
2015 04 09 14 50 23 .15    -143    316    -62    348    354 335.6 -10.1  34038  287.51 0861.57
2015 04 09 14 50 23 .40    -130    297    -50    325    329 336.4  -8.8  34040  287.55 0861.57
2015 04 09 14 50 23 .66    -133    292    -35    321    323 335.5  -6.3  34044  287.60 0861.57
2015 04 09 14 50 23 .91    -130    291    -38    319    322 335.9  -6.8  34048  287.66 0861.57
2015 04 09 14 50 24 .16    -119    272    -26    298    300 336.4  -5.1  34050  287.71 0861.57
2015 04 09 14 50 24 .41    -139    230    -59    270    277 328.8 -12.4  34040  287.53 0861.57
2015 04 09 14 50 24 .66    -147    252    -59    293    299 329.7 -11.5  34042  287.58 0861.57
2015 04 09 14 50 24 .92    -147    223    -45    268    272 326.6  -9.6  34054  287.77 0861.57
2015 04 09 14 50 25 .16    -163    203    -56    261    268 321.3 -12.2  34072  288.07 0861.57
2015 04 09 14 50 25 .41    -116    227    -51    256    262 332.9 -11.3  34066  287.99 0861.57
2015 04 09 14 50 25 .66    -111    235    -47    260    265 334.7 -10.3  34048  287.66 0861.57
2015 04 09 14 50 25 .91    -106    263    -29    284    286 338.1  -6.0  34030  287.38 0861.56
2015 04 09 14 50 26 .17    -136    260    -58    294    300 332.4 -11.3  34086  288.31 0861.56
2015 04 09 14 50 26 .42    -161    207    -70    263    273 322.2 -15.0  34096  288.48 0861.56
2015 04 09 14 50 26 .66    -164    176    -72    241    252 317.0 -16.6  34092  288.41 0861.56
2015 04 09 14 50 26 .92    -185    171    -60    253    261 312.7 -13.4  34092  288.41 0861.56
2015 04 09 14 50 27 .17    -226    205    -61    306    313 312.3 -11.3  34058  287.85 0861.56
2015 04 09 14 50 27 .42    -186    180    -32    259    262 314.0  -7.2  34078  288.19 0861.56
2015 04 09 14 50 27 .67    -213    190    -43    286    290 311.8  -8.6  34062  287.90 0861.57
2015 04 09 14 50 27 .92    -204    215    -65    297    305 316.6 -12.4  34056  287.80 0861.57
2015 04 09 14 50 28 .17    -186    198    -75    272    283 316.8 -15.5  34040  287.53 0861.57
2015 04 09 14 50 28 .42    -138    219    -54    260    266 327.7 -11.9  34084  288.29 0861.57
2015 04 09 14 50 28 .67    -193    174    -35    261    264 312.0  -7.7  34072  288.07 0861.57
2015 04 09 14 50 28 .92    -210    186    -48    281    286 311.6  -9.8  34036  287.48 0861.57
2015 04 09 14 50 29 .17    -195    162      3    254    255 309.6   0.7  34054  287.77 0861.57
2015 04 09 14 50 29 .42    -185    153    -13    241    242 309.6  -3.3  34042  287.56 0861.57
2015 04 09 14 50 29 .67    -179    132      0    223    224 306.4   0.2  34046  287.65 0861.57
2015 04 09 14 50 29 .92    -188    158    -47    246    251 310.0 -10.9  34040  287.53 0861.57
2015 04 09 14 50 30 .17    -176    145    -49    229    235 309.5 -12.2  34030  287.38 0861.57
2015 04 09 14 50 30 .43    -151    134    -60    202    211 311.6 -16.6  34038  287.50 0861.57
2015 04 09 14 50 30 .69    -137    135    -34    193    197 314.7 -10.1  34048  287.67 0861.57
2015 04 09 14 50 30 .94    -140    131    -37    192    196 313.1 -10.9  34048  287.69 0861.57
2015 04 09 14 50 31 .18    -111    117    -42    162    168 316.7 -14.5  34044  287.60 0861.57
2015 04 09 14 50 31 .43    -114    107    -52    157    166 313.1 -18.3  34036  287.47 0861.57
2015 04 09 14 50 31 .69    -127    101    -40    163    168 308.6 -13.9  34030  287.37 0861.57
2015 04 09 14 50 31 .94    -130     92    -28    160    163 305.5 -10.1  34030  287.37 0861.57
2015 04 09 14 50 32 .19    -121     85    -25    148    151 305.1  -9.8  34030  287.38 0861.57
2015 04 09 14 50 32 .44    -128    100    -15    163    164 308.2  -5.6  34060  287.87 0861.57
2015 04 09 14 50 32 .69    -177     88     -4    198    199 296.6  -1.3  34128  289.04 0861.57
2015 04 09 14 50 32 .94    -188    133     -4    231    232 305.3  -1.2  34118  288.86 0861.57
2015 04 09 14 50 33 .19    -221     92     -9    240    241 292.6  -2.2  34138  289.19 0861.57
2015 04 09 14 50 33 .44     -69     69     47     98    108 315.0  27.2  34150  289.41 0861.57
2015 04 09 14 50 33 .69    -185    130    -12    227    228 305.1  -3.2  34136  289.16 0861.57
2015 04 09 14 50 33 .94    -212    121    -40    245    249 299.8  -9.3  34044  287.61 0861.57
2015 04 09 14 50 34 .19    -193    102    -68    219    230 297.8 -17.3  34036  287.47 0861.57
2015 04 09 14 50 34 .44    -243    120    -54    272    278 296.4 -11.3  34034  287.43 0861.57
2015 04 09 14 50 34 .70    -245    111    -56    270    276 294.4 -11.9  34048  287.66 0861.57
2015 04 09 14 50 34 .94    -227    103    -44    250    254 294.4 -10.1  34040  287.53 0861.57
2015 04 09 14 50 35 .20    -242     99    -39    262    265 292.4  -8.6  34038  287.51 0861.57
2015 04 09 14 50 35 .45    -244     82    -40    258    262 288.6  -8.8  34046  287.65 0861.57
2015 04 09 14 50 35 .70    -188     26    -10    190    191 277.9  -3.3  34058  287.86 0861.57
2015 04 09 14 50 35 .95    -141     37    -15    146    147 285.0  -6.2  34056  287.81 0861.56
2015 04 09 14 50 36 .20    -203     72    -27    216    218 289.7  -7.2  34058  287.84 0861.56
2015 04 09 14 50 36 .45    -234    105    -16    257    258 294.2  -3.7  34052  287.75 0861.56
2015 04 09 14 50 36 .70    -232    110    -47    257    262 295.4 -10.5  34040  287.53 0861.56
2015 04 09 14 50 36 .95    -241     34    -51    244    250 278.1 -11.9  34040  287.53 0861.56
2015 04 09 14 50 37 .20    -233     35    -74    236    247 278.6 -22.5  34040  287.53 0861.56
2015 04 09 14 50 37 .45    -237     29    -78    239    251 277.0 -23.6  34040  287.53 0861.56
2015 04 09 14 50 37 .71    -219     12    -67    220    229 273.3 -21.8  34044  287.60 0861.56
2015 04 09 14 50 37 .96    -176      3    -53    177    185 271.0 -16.8  34080  288.21 0861.56
2015 04 09 14 50 38 .21    -242     12    -51    243    249 273.0 -11.9  34090  288.37 0861.56
2015 04 09 14 50 38 .46    -263     16    -79    264    276 273.5 -16.8  34066  287.99 0861.56
2015 04 09 14 50 38 .71    -219     25    -76    221    234 276.6 -19.1  34070  288.06 0861.56
2015 04 09 14 50 38 .96    -225     97    -80    246    258 293.3 -23.3  34082  288.24 0861.56
2015 04 09 14 50 39 .21    -244     56   -118    251    277 283.0 -31.5  34056  287.80 0861.56
2015 04 09 14 50 39 .47    -269     24   -108    271    291 275.2 -27.4  34050  287.71 0861.56
2015 04 09 14 50 39 .71    -240     73   -114    251    275 286.9 -30.6  34090  288.39 0861.56
2015 04 09 14 50 39 .97    -220     86   -119    237    265 291.3 -32.9  34094  288.44 0861.56
2015 04 09 14 50 40 .22    -172    145    -77    226    239 310.2 -18.9  34092  288.41 0861.56
2015 04 09 14 50 40 .47    -161     75    -27    178    181 295.2  -8.8  34094  288.45 0861.56
2015 04 09 14 50 40 .72    -249     94    -33    267    270 290.8  -7.2  34092  288.43 0861.56
2015 04 09 14 50 40 .97    -230     72    -48    242    247 287.5 -11.3  34092  288.41 0861.56
2015 04 09 14 50 41 .22    -237     64    -45    246    251 285.3 -10.4  34092  288.41 0861.56
2015 04 09 14 50 41 .47    -255    117    -67    281    289 294.6 -13.4  34092  288.41 0861.56
2015 04 09 14 50 41 .72    -232    128    -48    265    270 298.9 -10.3  34062  287.90 0861.56
2015 04 09 14 50 41 .97    -237     98    -71    257    267 292.4 -15.5  34072  288.09 0861.56
2015 04 09 14 50 42 .22    -205    119    -47    238    243 300.2 -11.3  34068  288.02 0861.56
2015 04 09 14 50 42 .47    -177    121    -59    215    224 304.4 -15.4  34072  288.08 0861.56
2015 04 09 14 50 42 .72    -171    120    -26    209    211 305.1  -7.3  34078  288.18 0861.56
2015 04 09 14 50 42 .97    -170     98    -23    197    199 300.0  -6.7  34076  288.14 0861.56
2015 04 09 14 50 43 .23    -174    116    -13    210    211 303.7  -3.7  34094  288.47 0861.56
2015 04 09 14 50 43 .48    -202     63    -18    212    213 287.3  -4.9  34090  288.38 0861.56
2015 04 09 14 50 43 .73    -248     63    -39    257    261 284.4  -8.8  34088  288.36 0861.56
2015 04 09 14 50 43 .98    -230     62    -61    239    247 285.1 -14.5  34096  288.49 0861.56
2015 04 09 14 50 44 .23    -170     80    -10    189    190 295.3  -3.3  34106  288.67 0861.56
2015 04 09 14 50 44 .49     -98      8    -24     99    103 274.8 -13.9  34128  289.04 0861.56
2015 04 09 14 50 44 .74     -42     -5     12     43     45 262.1  16.3  34132  289.09 0861.56
2015 04 09 14 50 44 .99     -30    -55     21     63     67 208.9  18.9  34130  289.06 0861.55
2015 04 09 14 50 45 .24    -127     -4    -25    128    131 267.9 -11.3  34100  288.55 0861.55
2015 04 09 14 50 45 .49      -3    -35     55     36     65 186.2  64.6  34126  289.01 0861.55
2015 04 09 14 50 45 .74     -16     16      0     23     24 315.0  -2.2  34136  289.18 0861.55
2015 04 09 14 50 45 .99     -30     86     15     92     94 340.8   9.5  34116  288.82 0861.55
2015 04 09 14 50 46 .24     -60    108    -38    124    129 330.6 -22.3  34114  288.80 0861.55
2015 04 09 14 50 46 .49       0     79     17     80     82   0.0  12.2  34124  288.96 0861.55
2015 04 09 14 50 46 .74     -32     92     41     98    106 340.8  23.6  34118  288.86 0861.56
2015 04 09 14 50 46 .99     -45     88     43     99    107 332.8  25.1  34122  288.94 0861.56
2015 04 09 14 50 47 .24     -43     82     30     93     98 331.9  17.9  34134  289.14 0861.56
2015 04 09 14 50 47 .49     -55     75     20     94     97 323.9  12.2  34140  289.24 0861.56
2015 04 09 14 50 47 .74     -25     63     41     68     79 338.2  34.0  34156  289.50 0861.56
2015 04 09 14 50 48 .00      -9    109     47    110    119 355.1  24.1  34160  289.58 0861.56
2015 04 09 14 50 48 .24     -31     79     37     85     92 338.6  25.1  34164  289.65 0861.56
2015 04 09 14 50 48 .49     -12    145    -36    146    151 355.1 -13.9  34104  288.62 0861.55
2015 04 09 14 50 48 .75     -38    131    -38    137    143 343.5 -15.5  34098  288.53 0861.55
2015 04 09 14 50 49 .00     -79    144    -29    165    168 331.1 -10.1  34092  288.43 0861.55
2015 04 09 14 50 49 .25     -47    144      7    152    153 341.7   2.9  34096  288.50 0861.55
2015 04 09 14 50 49 .50     -65    131     -8    147    148 333.7  -3.1  34088  288.36 0861.55
2015 04 09 14 50 49 .75     -67    185    -20    197    199 340.0  -6.0  34120  288.91 0861.55
2015 04 09 14 50 50 .00     -69    179      0    193    194 338.8  -0.3  34124  288.96 0861.55
2015 04 09 14 50 50 .25     -61    163    -20    175    177 339.5  -6.7  34134  289.13 0861.55
2015 04 09 14 50 50 .50     -61    140      7    153    154 336.4   2.9  34178  289.87 0861.55
2015 04 09 14 50 50 .75     -65    114     41    132    139 330.1  17.3  34172  289.77 0861.55
2015 04 09 14 50 51 .01     -90    140    -35    167    171 327.3 -11.9  34156  289.50 0861.55
2015 04 09 14 50 51 .25     -76    121     33    143    147 327.9  13.2  34188  290.06 0861.56
2015 04 09 14 50 51 .51     -88     76     56    117    129 310.9  27.3  34218  290.57 0861.56
2015 04 09 14 50 51 .76    -140    -41    -30    146    150 253.6 -11.9  34188  290.06 0861.56
2015 04 09 14 50 52 .02    -114     40    -24    121    124 289.5 -11.5  34208  290.38 0861.56
2015 04 09 14 50 52 .26     -28     42     25     51     56 326.6  27.3  34224  290.65 0861.56
2015 04 09 14 50 52 .51    -131     77     -6    153    154 300.6  -2.2  34208  290.38 0861.56
2015 04 09 14 50 52 .76    -150    114    -24    189    191 307.3  -7.3  34182  289.94 0861.56
2015 04 09 14 50 53 .01    -148    143      7    206    207 314.0   2.1  34128  289.04 0861.56
2015 04 09 14 50 53 .27    -186    132    -38    229    233 305.5  -9.6  34084  288.28 0861.56
2015 04 09 14 50 53 .52    -178    136    -62    225    234 307.3 -15.5  34092  288.43 0861.56
2015 04 09 14 50 53 .77    -169    122    -49    209    215 306.0 -13.3  34090  288.40 0861.56
2015 04 09 14 50 54 .01    -130    114    -44    173    179 311.3 -14.5  34098  288.52 0861.56
2015 04 09 14 50 54 .27    -136    103    -47    171    178 307.3 -15.5  34078  288.18 0861.56
2015 04 09 14 50 54 .52    -114     94    -62    148    160 309.5 -28.5  34078  288.18 0861.56
2015 04 09 14 50 54 .77    -113     86    -50    143    151 307.3 -23.3  34074  288.13 0861.56
2015 04 09 14 50 55 .02    -111     81    -41    138    143 306.0 -21.7  34078  288.20 0861.56
2015 04 09 14 50 55 .27    -111     98    -37    149    154 311.3 -13.9  34084  288.30 0861.56
2015 04 09 14 50 55 .52    -120     99    -23    156    158 309.5  -8.6  34086  288.31 0861.56
2015 04 09 14 50 55 .77    -130    105      2    168    169 309.1   0.8  34090  288.40 0861.56
2015 04 09 14 50 56 .02    -150     88    -31    175    178 300.4 -10.1  34074  288.11 0861.56
2015 04 09 14 50 56 .27    -169     92    -37    193    197 298.6 -11.1  34088  288.35 0861.56
2015 04 09 14 50 56 .52    -152     67     -6    167    168 294.0  -2.1  34084  288.30 0861.56
2015 04 09 14 50 56 .77    -189     90    -27    210    212 295.4  -7.3  34074  288.13 0861.56
2015 04 09 14 50 57 .03    -187     72    -41    201    206 291.1 -11.6  34074  288.11 0861.56
2015 04 09 14 50 57 .28    -165     71    -28    180    183 293.5  -9.0  34080  288.21 0861.56
2015 04 09 14 50 57 .53    -157     89    -13    181    182 299.5  -4.4  34090  288.40 0861.55
2015 04 09 14 50 57 .78    -150     98    -26    180    182 303.3  -8.2  34088  288.35 0861.55
2015 04 09 14 50 58 .03    -131    114    -12    174    175 311.1  -4.1  34090  288.38 0861.55
2015 04 09 14 50 58 .28    -107    169    -37    201    205 327.5 -10.5  34094  288.45 0861.55
2015 04 09 14 50 58 .54     -90    165    -45    189    195 331.3 -13.4  34090  288.40 0861.55
2015 04 09 14 50 58 .79     -78    158    -49    177    184 333.5 -15.5  34104  288.62 0861.55
2015 04 09 14 50 59 .04     -85    155    -51    177    185 331.3 -16.0  34112  288.75 0861.55
2015 04 09 14 50 59 .29    -107    145    -30    181    184 323.5  -9.6  34110  288.74 0861.55
2015 04 09 14 50 59 .54    -159    122     -7    201    202 307.5  -2.1  34152  289.45 0861.55
2015 04 09 14 50 59 .79    -122    114      4    168    169 313.1   1.6  34168  289.72 0861.55
2015 04 09 14 51 00 .04     -72    144     -8    162    163 333.3  -3.1  34146  289.33 0861.55
2015 04 09 14 51 00 .29     -65    171    -24    184    186 339.1  -7.5  34134  289.13 0861.56
2015 04 09 14 51 00 .54     -51    170     10    178    179 343.3   3.3  34150  289.41 0861.56
2015 04 09 14 51 00 .79     -53    161    -11    170    171 341.5  -3.7  34148  289.36 0861.56
2015 04 09 14 51 01 .04     -76    156    -26    174    176 333.9  -8.6  34138  289.21 0861.56
2015 04 09 14 51 01 .30     -90    156    -35    181    185 330.1 -11.1  34146  289.33 0861.56
2015 04 09 14 51 01 .54    -126    153    -45    199    205 320.4 -12.9  34140  289.24 0861.56
2015 04 09 14 51 01 .80     -46    165    -11    172    173 344.2  -3.9  34142  289.26 0861.56
2015 04 09 14 51 02 .05    -117    135    -15    179    180 319.0  -4.9  34122  288.92 0861.56
2015 04 09 14 51 02 .30    -100    169    -25    197    199 329.3  -7.5  34144  289.30 0861.56
2015 04 09 14 51 02 .55    -164    163    -12    232    233 314.7  -3.2  34182  289.94 0861.56
2015 04 09 14 51 02 .80    -182    161    -40    244    248 311.6  -9.4  34104  288.63 0861.56
2015 04 09 14 51 03 .05    -162    188    -77    249    261 319.2 -17.3  34080  288.21 0861.56
2015 04 09 14 51 03 .30     -93    153    -47    180    187 328.6 -14.7  34096  288.48 0861.56
2015 04 09 14 51 03 .55    -205    139    -22    248    250 304.1  -5.2  34106  288.65 0861.56
2015 04 09 14 51 03 .80    -192    149    -22    244    246 307.8  -5.2  34106  288.65 0861.56
2015 04 09 14 51 04 .05    -156    121    -26    198    200 307.8  -7.7  34110  288.72 0861.56
2015 04 09 14 51 04 .30    -179    130    -39    222    226 305.9 -10.1  34106  288.67 0861.56
2015 04 09 14 51 04 .55    -178    146    -63    231    240 309.3 -15.4  34100  288.54 0861.56
2015 04 09 14 51 04 .80    -185    110    -57    216    224 300.7 -15.0  34098  288.53 0861.56
2015 04 09 14 51 05 .05    -135    151    -64    203    213 318.1 -17.6  34098  288.53 0861.56
2015 04 09 14 51 05 .32    -162    137    -57    213    221 310.2 -15.2  34102  288.58 0861.56
2015 04 09 14 51 05 .56    -165    119    -45    204    210 306.0 -12.6  34098  288.53 0861.56
2015 04 09 14 51 05 .81    -159    123    -46    202    208 307.8 -12.9  34096  288.48 0861.55
2015 04 09 14 51 06 .07    -165    137    -48    215    221 309.8 -12.6  34090  288.38 0861.55
2015 04 09 14 51 06 .32    -167    113    -13    202    203 304.2  -3.9  34092  288.42 0861.55
2015 04 09 14 51 06 .57    -174    142    -25    225    227 309.3  -6.5  34072  288.09 0861.55
2015 04 09 14 51 06 .82    -206    124    -78    241    253 301.1 -23.3  34086  288.32 0861.55
2015 04 09 14 51 07 .07    -190     94    -45    213    218 296.4 -12.2  34082  288.26 0861.55
2015 04 09 14 51 07 .32    -206     98    -28    229    231 295.5  -7.2  34102  288.60 0861.55
2015 04 09 14 51 07 .57    -109    122     -9    164    165 318.3  -3.3  34130  289.08 0861.55
2015 04 09 14 51 07 .82    -225    103    -52    248    254 294.6 -11.9  34120  288.90 0861.55
2015 04 09 14 51 08 .07     -57     90      1    107    108 327.5   0.8  34134  289.13 0861.55
2015 04 09 14 51 08 .32    -143    121     -5    188    189 310.2  -1.8  34126  289.01 0861.55
2015 04 09 14 51 08 .57    -142    118    -23    185    187 309.8  -7.3  34126  289.01 0861.55
2015 04 09 14 51 08 .82    -114    134     -3    177    178 319.7  -1.3  34132  289.09 0861.55
2015 04 09 14 51 09 .07    -149    108    -21    185    187 306.0  -6.5  34118  288.86 0861.55
2015 04 09 14 51 09 .33    -182    108    -26    212    214 300.7  -7.2  34126  289.01 0861.55
2015 04 09 14 51 09 .57     -94    106     -3    142    143 318.5  -1.3  34166  289.69 0861.55
2015 04 09 14 51 09 .82    -145     76      0    164    165 297.8  -0.3  34146  289.35 0861.55
2015 04 09 14 51 10 .08    -154    128    -15    201    202 309.8  -4.4  34152  289.45 0861.55
2015 04 09 14 51 10 .33     -84     96     24    128    131 319.0  10.6  34154  289.46 0861.54
2015 04 09 14 51 10 .58    -128    120    -16    176    177 313.3  -5.4  34116  288.82 0861.54
2015 04 09 14 51 10 .83    -104    125    -12    163    164 320.3  -4.4  34132  289.09 0861.54
2015 04 09 14 51 11 .08    -120    106    -15    161    162 311.3  -5.6  34118  288.87 0861.54
2015 04 09 14 51 11 .33    -134    105     -8    171    172 308.2  -2.8  34114  288.80 0861.54
2015 04 09 14 51 11 .58    -147     81    -23    168    170 298.9  -8.0  34092  288.42 0861.54
2015 04 09 14 51 11 .83    -132     80    -16    155    156 301.1  -6.2  34110  288.72 0861.54
2015 04 09 14 51 12 .08    -155    126    -11    201    202 309.1  -3.1  34118  288.86 0861.54
2015 04 09 14 51 12 .34    -141    109    -16    179    180 307.8  -5.2  34112  288.77 0861.54
2015 04 09 14 51 12 .60    -147     81    -17    168    169 298.9  -6.0  34134  289.14 0861.54
2015 04 09 14 51 12 .84    -132    109      0    172    173 309.6  -0.3  34156  289.50 0861.54
2015 04 09 14 51 13 .09     -57     85     20    103    106 325.7  11.1  34164  289.65 0861.54
2015 04 09 14 51 13 .34     -49     83     62     97    115 329.3  35.5  34182  289.94 0861.54
2015 04 09 14 51 13 .59     -53    109     10    122    123 334.1   5.0  34172  289.77 0861.54
2015 04 09 14 51 13 .85     -60     94      5    112    113 327.5   2.9  34200  290.25 0861.54
2015 04 09 14 51 14 .09     -68     87     -4    111    112 322.2  -2.2  34194  290.14 0861.55
2015 04 09 14 51 14 .35     -46     89    -15    101    103 332.8  -8.8  34180  289.92 0861.55
2015 04 09 14 51 14 .60     -23     82    -12     86     87 344.4  -8.2  34192  290.11 0861.55
2015 04 09 14 51 14 .84     -51     92      0    106    107 331.0  -0.3  34192  290.13 0861.55
2015 04 09 14 51 15 .10     -71     74      8    103    104 316.3   4.9  34178  289.89 0861.55
2015 04 09 14 51 15 .35     -68     70     -7     98     99 315.9  -4.1  34200  290.26 0861.55
2015 04 09 14 51 15 .59     -68     83     -5    108    109 320.4  -3.1  34200  290.25 0861.55
2015 04 09 14 51 15 .85    -131     92     -6    161    162 305.1  -2.2  34154  289.46 0861.55
2015 04 09 14 51 16 .10    -124     80    -29    148    151 302.9 -11.3  34130  289.06 0861.55
2015 04 09 14 51 16 .35    -143     89    -11    169    170 302.0  -3.9  34122  288.94 0861.55
2015 04 09 14 51 16 .60    -162     51    -34    171    175 287.7 -11.3  34114  288.79 0861.55
2015 04 09 14 51 16 .85     -38     59     44     71     83 327.5  34.4  34130  289.08 0861.55
2015 04 09 14 51 17 .10     -83     83    -36    118    124 314.9 -17.0  34132  289.09 0861.55
2015 04 09 14 51 17 .35     -55     86     11    103    104 327.5   6.5  34134  289.13 0861.55
2015 04 09 14 51 17 .61    -119     56    -21    132    134 295.4  -9.4  34174  289.82 0861.54
2015 04 09 14 51 17 .85    -168     63    -28    180    183 290.8  -9.0  34186  290.02 0861.54
2015 04 09 14 51 18 .11     -94     44    -10    104    105 295.2  -5.6  34198  290.23 0861.54
2015 04 09 14 51 18 .35    -151     75      0    169    170 296.6   0.0  34178  289.89 0861.54
2015 04 09 14 51 18 .61     -79     40     -6     89     90 297.1  -4.1  34174  289.82 0861.54
2015 04 09 14 51 18 .86    -173     69    -23    187    189 291.7  -7.2  34164  289.63 0861.54
2015 04 09 14 51 19 .11    -117    178    -51    214    221 326.6 -13.4  34166  289.69 0861.54
2015 04 09 14 51 19 .37    -174     97    -39    200    204 299.1 -11.1  34186  290.02 0861.54
2015 04 09 14 51 19 .62     -78    131      3    153    154 329.3   1.2  34188  290.04 0861.54
2015 04 09 14 51 19 .87     -64    156      5    169    170 337.5   1.8  34190  290.09 0861.54
2015 04 09 14 51 20 .12     -76    159      0    177    178 334.4  -0.3  34222  290.62 0861.54
2015 04 09 14 51 20 .37     -75    206     51    220    226 340.0  13.2  34214  290.50 0861.54
2015 04 09 14 51 20 .62    -123    155      2    199    200 321.5   0.7  34140  289.23 0861.54
2015 04 09 14 51 20 .87    -160    167     21    232    233 316.3   5.2  34154  289.47 0861.54
2015 04 09 14 51 21 .12    -139    168      0    219    220 320.4   0.0  34126  288.99 0861.54
2015 04 09 14 51 21 .37    -148    150     -2    211    212 315.5  -0.7  34124  288.96 0861.54
2015 04 09 14 51 21 .62    -141    146     -1    204    205 315.9  -0.5  34124  288.96 0861.54
2015 04 09 14 51 21 .87    -169    163    -64    235    244 314.0 -15.4  34132  289.09 0861.54
2015 04 09 14 51 22 .12    -157    153    -59    220    228 314.2 -15.2  34134  289.13 0861.54
2015 04 09 14 51 22 .37    -170    139    -36    220    223 309.3  -9.3  34130  289.08 0861.54
2015 04 09 14 51 22 .62    -180    149    -29    234    236 309.6  -7.2  34098  288.51 0861.54
2015 04 09 14 51 22 .87    -139    143    -36    200    204 315.7 -10.3  34098  288.53 0861.54
2015 04 09 14 51 23 .12    -131    168    -51    214    221 322.2 -13.4  34090  288.40 0861.53
2015 04 09 14 51 23 .37    -151    168    -46    227    232 318.1 -11.5  34094  288.47 0861.53
2015 04 09 14 51 23 .62    -182    152    -41    238    242 309.8  -9.8  34066  287.99 0861.53
2015 04 09 14 51 23 .88    -182    124    -43    221    226 304.2 -11.1  34080  288.21 0861.53
2015 04 09 14 51 24 .13    -169    179    -70    247    257 316.7 -16.0  34050  287.71 0861.53
2015 04 09 14 51 24 .38    -170    206    -64    268    276 320.4 -13.4  34086  288.32 0861.53
2015 04 09 14 51 24 .63    -158    167    -19    231    232 316.6  -4.9  34084  288.30 0861.53
2015 04 09 14 51 24 .88    -162    137    -43    213    218 310.2 -11.5  34082  288.26 0861.53
2015 04 09 14 51 25 .13    -171    130     -8    215    216 307.3  -2.2  34082  288.26 0861.53
2015 04 09 14 51 25 .38    -180    137    -25    227    229 307.3  -6.5  34088  288.35 0861.53
2015 04 09 14 51 25 .63    -177    131    -61    221    230 306.4 -15.4  34046  287.65 0861.53
2015 04 09 14 51 25 .88    -174    121    -59    213    222 304.9 -15.5  34044  287.60 0861.53
2015 04 09 14 51 26 .13    -171    123    -39    211    215 305.9 -10.5  34056  287.81 0861.53
2015 04 09 14 51 26 .39    -162    129    -11    208    209 308.6  -3.1  34060  287.89 0861.53
2015 04 09 14 51 26 .64    -141    104    -43    176    182 306.4 -13.9  34028  287.33 0861.54
2015 04 09 14 51 26 .90    -133     91    -44    162    168 304.6 -15.2  34038  287.52 0861.54
2015 04 09 14 51 27 .14    -122    121    -40    172    177 314.8 -13.2  34038  287.52 0861.54
2015 04 09 14 51 27 .39    -117    118    -54    167    176 315.1 -18.1  34034  287.43 0861.54
2015 04 09 14 51 27 .64    -113    122    -38    167    172 317.0 -12.9  34028  287.33 0861.54
2015 04 09 14 51 27 .90    -111    134    -35    175    179 320.4 -11.5  34028  287.35 0861.54
2015 04 09 14 51 28 .15    -117    140    -44    183    189 319.9 -13.7  34040  287.55 0861.54
2015 04 09 14 51 28 .39    -137    129    -56    189    197 313.3 -21.2  34054  287.79 0861.54
2015 04 09 14 51 28 .65    -129    118    -49    175    181 312.4 -20.2  34052  287.76 0861.54
2015 04 09 14 51 28 .90    -139    114    -47    180    187 309.3 -14.7  34058  287.84 0861.54
2015 04 09 14 51 29 .15    -121     92    -49    153    161 307.3 -17.9  34056  287.82 0861.54
2015 04 09 14 51 29 .40    -119     76    -33    142    146 302.4 -13.3  34066  287.99 0861.54
2015 04 09 14 51 29 .65    -108     75    -25    132    135 305.1 -10.9  34062  287.92 0861.54
2015 04 09 14 51 29 .90    -108     75    -25    132    135 305.1 -10.9  34058  287.86 0861.54
2015 04 09 14 51 30 .15     -94     77     -4    122    123 309.5  -2.2  34060  287.89 0861.54
2015 04 09 14 51 30 .40    -111     80     -5    137    138 305.9  -2.2  34058  287.86 0861.54
2015 04 09 14 51 30 .65     -71     71      7    101    102 315.0   4.4  34072  288.09 0861.54
2015 04 09 14 51 30 .90     -48    102      1    113    114 334.5   0.8  34066  287.99 0861.54
2015 04 09 14 51 31 .15     -95    108    -18    145    147 318.6  -7.3  34044  287.62 0861.54
2015 04 09 14 51 31 .40    -114    117     -9    164    165 315.7  -3.3  34052  287.74 0861.54
2015 04 09 14 51 31 .66    -122    110    -11    165    166 312.2  -3.9  34040  287.55 0861.54
2015 04 09 14 51 31 .91     -88    105    -17    138    140 319.9  -7.3  34044  287.62 0861.54
2015 04 09 14 51 32 .16    -101    100      7    143    144 314.9   2.8  34046  287.65 0861.54
2015 04 09 14 51 32 .41    -105    101      7    146    147 314.0   2.9  34050  287.70 0861.54
2015 04 09 14 51 32 .66    -120    100     -6    157    158 310.0  -2.2  34062  287.92 0861.54
2015 04 09 14 51 32 .91    -116     96     -4    151    152 309.6  -1.8  34058  287.84 0861.54
2015 04 09 14 51 33 .17    -120    105     -3    160    161 311.3  -1.3  34052  287.76 0861.54
2015 04 09 14 51 33 .42    -134    104    -16    170    171 307.8  -5.6  34030  287.38 0861.54
2015 04 09 14 51 33 .67    -143    100    -28    175    178 305.1  -9.3  34028  287.35 0861.54
2015 04 09 14 51 33 .92    -129    122    -11    178    179 313.3  -3.7  34034  287.43 0861.54
2015 04 09 14 51 34 .17    -125    122    -14    175    176 314.4  -4.9  34036  287.47 0861.54
2015 04 09 14 51 34 .42    -121    100      2    158    159 309.5   0.8  34036  287.49 0861.54
2015 04 09 14 51 34 .67    -110    101      2    150    151 312.7   0.8  34042  287.59 0861.54
2015 04 09 14 51 34 .92    -124     96      0    158    159 307.8  -0.3  34044  287.62 0861.54
2015 04 09 14 51 35 .17    -114    117      5    164    165 315.9   1.8  34044  287.62 0861.54
2015 04 09 14 51 35 .42    -112    110     12    158    159 314.4   4.4  34050  287.70 0861.54
2015 04 09 14 51 35 .68    -118     99     -6    155    156 310.0  -2.2  34046  287.65 0861.54
2015 04 09 14 51 35 .93     -93    113     11    147    148 320.4   4.4  34062  287.92 0861.54
2015 04 09 14 51 36 .18     -50    122    -31    132    136 337.7 -13.4  34112  288.77 0861.54
2015 04 09 14 51 36 .43    -144     92     -7    172    173 302.6  -2.6  34126  288.99 0861.54
2015 04 09 14 51 36 .67    -185     72     -7    199    200 291.5  -2.1  34102  288.58 0861.54
2015 04 09 14 51 36 .93    -191    141    -21    238    239 306.6  -5.2  34090  288.37 0861.54
2015 04 09 14 51 37 .18    -216    181     -5    283    284 310.0  -1.2  34042  287.58 0861.54
2015 04 09 14 51 37 .43    -251    188    -51    314    319 306.9  -9.3  34026  287.29 0861.54
2015 04 09 14 51 37 .68    -235    170    -47    291    295 306.0  -9.3  34034  287.44 0861.54
2015 04 09 14 51 37 .93    -229    173    -26    288    290 307.1  -5.2  34050  287.71 0861.54
2015 04 09 14 51 38 .18    -175    178      9    250    251 315.5   2.1  34054  287.78 0861.54
2015 04 09 14 51 38 .43    -199    145     -9    247    248 306.2  -2.2  34052  287.73 0861.54
2015 04 09 14 51 38 .68    -239    167    -37    292    295 305.0  -7.3  34052  287.75 0861.54
2015 04 09 14 51 38 .93    -241    185    -32    304    306 307.5  -6.1  34064  287.93 0861.54
2015 04 09 14 51 39 .18    -239    194    -33    308    310 309.1  -6.2  34042  287.56 0861.54
2015 04 09 14 51 39 .43    -242    197    -49    313    317 309.1  -8.9  34034  287.43 0861.54
2015 04 09 14 51 39 .68    -231    192    -76    301    311 309.6 -14.3  34028  287.33 0861.54
2015 04 09 14 51 39 .94    -232    192    -83    302    314 309.6 -15.5  34032  287.41 0861.54
2015 04 09 14 51 40 .20    -202    202    -47    287    291 315.0  -9.3  34050  287.71 0861.54
2015 04 09 14 51 40 .44    -212    198    -44    291    295 313.1  -8.6  34042  287.58 0861.54
2015 04 09 14 51 40 .69    -200    200    -67    283    291 315.0 -13.4  34028  287.34 0861.54
2015 04 09 14 51 40 .95    -209    200    -63    290    297 313.8 -12.4  34038  287.51 0861.54
2015 04 09 14 51 41 .20    -183    221    -57    288    294 320.3 -11.3  34052  287.73 0861.54
2015 04 09 14 51 41 .44    -183    253    -70    313    321 324.2 -12.7  34056  287.82 0861.54
2015 04 09 14 51 41 .70    -173    201    -52    266    272 319.4 -11.1  34094  288.46 0861.54
2015 04 09 14 51 41 .95    -153    165      7    226    227 317.2   1.8  34118  288.86 0861.54
2015 04 09 14 51 42 .20    -188    167     -9    252    253 311.6  -2.2  34072  288.09 0861.54
2015 04 09 14 51 42 .45    -172    187    -47    255    260 317.5 -10.5  34058  287.83 0861.54
2015 04 09 14 51 42 .70    -179    179    -42    254    258 315.0  -9.4  34034  287.43 0861.54
2015 04 09 14 51 42 .95    -177    183    -47    255    260 315.9 -10.5  34030  287.38 0861.54
2015 04 09 14 51 43 .20    -185    153    -13    241    242 309.6  -3.3  34032  287.39 0861.54
2015 04 09 14 51 43 .45    -173    162    -21    238    239 313.2  -5.1  34030  287.38 0861.54
2015 04 09 14 51 43 .70    -183    140    -32    231    234 307.5  -8.0  34028  287.34 0861.54
2015 04 09 14 51 43 .95    -180    149    -20    235    236 309.6  -5.1  34030  287.38 0861.54
2015 04 09 14 51 44 .20    -177    154     -9    235    236 311.1  -2.3  34030  287.38 0861.54
2015 04 09 14 51 44 .45    -179    141    -29    228    230 308.2  -7.3  34024  287.28 0861.54
2015 04 09 14 51 44 .70    -168    133    -43    215    220 308.2 -11.3  34026  287.30 0861.54
2015 04 09 14 51 44 .95    -166    128    -24    210    212 307.7  -6.7  34030  287.38 0861.54
2015 04 09 14 51 45 .21    -138    115    -21    180    182 309.8  -6.9  34030  287.37 0861.54
2015 04 09 14 51 45 .46    -131    138    -12    191    192 316.6  -3.7  34036  287.49 0861.54
2015 04 09 14 51 45 .71     -91    137    -29    165    168 326.2 -10.3  34042  287.57 0861.54
2015 04 09 14 51 45 .96    -101    142    -23    175    177 324.6  -7.7  34042  287.57 0861.54
2015 04 09 14 51 46 .21    -120    135    -28    181    184 318.3  -9.0  34036  287.47 0861.54
2015 04 09 14 51 46 .46    -128    155    -38    202    206 320.4 -10.9  34044  287.60 0861.54
2015 04 09 14 51 46 .71    -128    148    -46    196    202 319.2 -13.4  34046  287.64 0861.54
2015 04 09 14 51 46 .96    -126    169    -44    212    217 323.3 -11.9  34040  287.55 0861.54
2015 04 09 14 51 47 .22    -114    198    -46    229    234 329.9 -11.5  34036  287.47 0861.54
2015 04 09 14 51 47 .47    -101    195    -44    220    225 332.6 -11.3  34032  287.42 0861.54
2015 04 09 14 51 47 .72     -88    220    -21    238    239 338.1  -5.2  34026  287.31 0861.53
2015 04 09 14 51 47 .97    -124    186    -28    224    226 326.2  -7.3  34040  287.55 0861.53
2015 04 09 14 51 48 .22    -163    172    -34    238    241 316.6  -8.2  34032  287.39 0861.53
2015 04 09 14 51 48 .47    -164    146    -26    220    222 311.6  -6.9  34032  287.40 0861.53
2015 04 09 14 51 48 .72    -147    157    -24    216    218 316.8  -6.5  34036  287.49 0861.53
2015 04 09 14 51 48 .98    -148    149    -16    211    212 315.2  -4.4  34034  287.45 0861.53
2015 04 09 14 51 49 .22    -113    175    -37    209    213 327.0 -10.3  34052  287.76 0861.53
2015 04 09 14 51 49 .47    -125    197    -50    234    240 327.7 -12.2  34042  287.56 0861.53
2015 04 09 14 51 49 .73    -140    202    -45    246    251 325.3 -10.5  34036  287.46 0861.53
2015 04 09 14 51 49 .98    -181    162    -31    244    246 311.8  -7.3  34036  287.48 0861.53
2015 04 09 14 51 50 .23    -181    179    -56    255    262 314.7 -12.4  34028  287.34 0861.53
2015 04 09 14 51 50 .48    -172    145    -37    226    230 310.2  -9.3  34036  287.47 0861.53
2015 04 09 14 51 50 .73    -162    152    -28    223    225 313.1  -7.3  34042  287.57 0861.53
2015 04 09 14 51 50 .97    -184    167    -49    249    254 312.2 -11.3  34034  287.44 0861.53
2015 04 09 14 51 51 .23    -190    160    -67    249    259 310.2 -15.2  34048  287.66 0861.53
2015 04 09 14 51 51 .48    -196    149    -58    247    254 307.3 -13.4  34058  287.85 0861.53
2015 04 09 14 51 51 .73    -176    164    -27    241    243 312.9  -6.5  34064  287.95 0861.53
2015 04 09 14 51 51 .98    -161    143    -14    216    217 311.6  -3.7  34060  287.89 0861.53
2015 04 09 14 51 52 .23    -159    139    -43    212    217 311.3 -11.5  34056  287.81 0861.53
2015 04 09 14 51 52 .48    -169    140    -49    220    226 309.6 -12.6  34024  287.28 0861.53
2015 04 09 14 51 52 .73    -163    140    -51    216    223 310.7 -13.4  34026  287.32 0861.53
2015 04 09 14 51 52 .98    -165    149    -45    223    228 312.2 -11.5  34024  287.28 0861.53
2015 04 09 14 51 53 .23    -161    141    -47    215    221 311.3 -12.4  34028  287.35 0861.53
2015 04 09 14 51 53 .48    -156    172    -46    233    238 317.7 -11.3  34028  287.33 0861.53
2015 04 09 14 51 53 .73    -158    174    -66    236    246 317.7 -15.8  34026  287.29 0861.53
2015 04 09 14 51 53 .98    -144    158    -67    214    225 317.7 -17.5  34024  287.28 0861.53
2015 04 09 14 51 54 .24    -144    129    -58    194    202 312.0 -21.7  34024  287.28 0861.53
2015 04 09 14 51 54 .49    -131    142    -62    194    203 317.5 -23.0  34030  287.38 0861.53
2015 04 09 14 51 54 .75    -143    133    -56    196    203 313.1 -21.0  34042  287.57 0861.53
2015 04 09 14 51 55 .00    -177    131    -44    221    226 306.4 -11.5  34050  287.70 0861.53
2015 04 09 14 51 55 .25    -203    143    -28    249    251 305.1  -6.5  34046  287.63 0861.53
2015 04 09 14 51 55 .50    -194    139    -51    239    245 305.7 -12.2  34044  287.60 0861.53
2015 04 09 14 51 55 .75    -186    132    -38    229    233 305.5  -9.6  34044  287.60 0861.53
2015 04 09 14 51 56 .00    -134     86    -44    160    167 302.6 -15.5  34038  287.52 0861.53
2015 04 09 14 51 56 .25     -80     68    -32    106    111 310.4 -17.0  34038  287.50 0861.53
2015 04 09 14 51 56 .50     -93     44     -4    103    104 295.3  -2.2  34044  287.62 0861.53
2015 04 09 14 51 56 .75    -153     67    -23    168    170 293.7  -8.0  34070  288.04 0861.53
2015 04 09 14 51 57 .00    -177     52    -26    185    187 286.6  -8.0  34072  288.08 0861.53
2015 04 09 14 51 57 .25     -58     89     -4    107    108 327.0  -2.2  34076  288.16 0861.53
2015 04 09 14 51 57 .50     -31     70     49     77     91 335.5  35.5  34088  288.36 0861.53
2015 04 09 14 51 57 .75     -98     53     13    112    113 298.8   6.9  34078  288.18 0861.54
2015 04 09 14 51 58 .00    -104     85    -28    135    138 309.5 -11.9  34064  287.94 0861.54
2015 04 09 14 51 58 .25     -57    107    -28    122    126 331.9 -12.9  34066  287.99 0861.54
2015 04 09 14 51 58 .51     -38    115    -29    122    126 341.7 -13.4  34068  288.01 0861.54
2015 04 09 14 51 58 .75     -30     90     33     96    102 341.3  19.4  34086  288.33 0861.54
2015 04 09 14 51 59 .01     -75     80     -4    110    111 316.8  -2.2  34082  288.26 0861.54
2015 04 09 14 51 59 .26     -79     63     14    102    104 308.6   8.0  34086  288.33 0861.54
2015 04 09 14 51 59 .51     -71     91     53    116    127 321.7  26.2  34096  288.50 0861.54
2015 04 09 14 51 59 .76     -97     73     16    122    124 306.9   7.5  34098  288.53 0861.54
2015 04 09 14 52 00 .01     -84     89     14    123    124 316.7   6.9  34092  288.43 0861.54
2015 04 09 14 52 00 .26     -41    132     17    139    141 342.6   7.1  34090  288.40 0861.54
2015 04 09 14 52 00 .51     -78    114     -7    139    140 325.7  -3.1  34086  288.31 0861.53
2015 04 09 14 52 00 .76     -69    110     -4    130    131 327.9  -1.8  34082  288.26 0861.53
2015 04 09 14 52 01 .02    -112    125    -12    169    170 318.1  -4.4  34070  288.04 0861.53
2015 04 09 14 52 01 .27    -152    114     -1    190    191 306.9  -0.5  34070  288.04 0861.53
2015 04 09 14 52 01 .52    -134    150    -24    202    204 318.3  -6.9  34074  288.13 0861.53
2015 04 09 14 52 01 .77    -106    186    -58    215    223 330.4 -15.2  34074  288.13 0861.53
2015 04 09 14 52 02 .02    -139    156    -50    210    216 318.3 -13.4  34078  288.20 0861.53
2015 04 09 14 52 02 .27    -153    143    -19    210    211 313.2  -5.4  34076  288.16 0861.53
2015 04 09 14 52 02 .53    -115    114      8    163    164 314.7   3.1  34080  288.21 0861.53
2015 04 09 14 52 02 .78     -69    161    -25    176    178 336.8  -8.2  34088  288.35 0861.53
2015 04 09 14 52 03 .03    -138    129    -24    190    192 313.1  -7.2  34078  288.20 0861.53
2015 04 09 14 52 03 .28    -109    131      5    171    172 320.4   1.8  34082  288.26 0861.53
2015 04 09 14 52 03 .53    -102    140    -21    174    176 323.7  -6.9  34092  288.43 0861.53
2015 04 09 14 52 03 .78     -94    143    -13    172    173 326.8  -4.6  34098  288.52 0861.53
2015 04 09 14 52 04 .03    -123    129    -16    179    180 316.6  -5.4  34088  288.35 0861.53
2015 04 09 14 52 04 .27    -112    149    -32    187    190 323.0  -9.8  34068  288.01 0861.53
2015 04 09 14 52 04 .53    -118    130    -20    176    178 317.7  -6.7  34088  288.36 0861.53
2015 04 09 14 52 04 .78    -127    128     -7    181    182 315.2  -2.2  34052  287.76 0861.53
2015 04 09 14 52 05 .03    -127    161    -53    206    213 321.7 -14.5  34028  287.35 0861.52
2015 04 09 14 52 05 .28    -117    152    -66    192    204 322.4 -18.9  34028  287.33 0861.52
2015 04 09 14 52 05 .53    -125    151    -68    197    209 320.3 -19.1  34022  287.25 0861.52
2015 04 09 14 52 05 .78    -131    144    -70    196    209 317.7 -19.7  34026  287.30 0861.52
2015 04 09 14 52 06 .03    -141    153    -65    209    219 317.2 -17.3  34026  287.32 0861.52
2015 04 09 14 52 06 .29    -130    154    -65    202    213 319.7 -17.9  34036  287.49 0861.52
2015 04 09 14 52 06 .53    -132    138    -45    192    198 316.3 -13.2  34072  288.08 0861.52
2015 04 09 14 52 06 .78    -139    130    -30    191    194 313.1  -9.0  34074  288.11 0861.52
2015 04 09 14 52 07 .04    -119    144    -49    187    194 320.4 -14.7  34056  287.81 0861.52
2015 04 09 14 52 07 .29    -105    113    -34    155    159 317.2 -12.4  34054  287.77 0861.52
2015 04 09 14 52 07 .54    -114    107    -10    157    158 313.1  -3.9  34078  288.18 0861.52
2015 04 09 14 52 07 .78    -118    101    -30    156    159 310.4 -10.9  34036  287.47 0861.52
2015 04 09 14 52 08 .04    -122     97    -36    157    162 308.6 -13.2  34030  287.38 0861.52
2015 04 09 14 52 08 .30    -120    100    -36    157    162 310.0 -13.2  34046  287.64 0861.52
2015 04 09 14 52 08 .55     -84    100     -2    132    133 319.9  -1.3  34086  288.31 0861.52
2015 04 09 14 52 08 .80     -82     85     -3    119    120 315.9  -1.8  34092  288.42 0861.52
2015 04 09 14 52 09 .05     -93    119    -37    152    157 322.1 -13.9  34094  288.45 0861.52
2015 04 09 14 52 09 .30     -78    132    -35    154    158 329.3 -12.9  34088  288.36 0861.52
2015 04 09 14 52 09 .55     -78    102    -30    129    133 322.6 -13.3  34098  288.53 0861.53
2015 04 09 14 52 09 .80     -82    110    -17    138    140 323.5  -7.3  34108  288.69 0861.53
2015 04 09 14 52 10 .05    -107     90     -6    141    142 310.0  -2.6  34120  288.89 0861.53
2015 04 09 14 52 10 .30     -80     82      5    115    116 315.9   2.9  34120  288.91 0861.53
2015 04 09 14 52 10 .55     -84     77     -2    115    116 312.7  -1.2  34106  288.67 0861.53
2015 04 09 14 52 10 .80     -97     91    -15    134    135 313.1  -6.7  34074  288.11 0861.53
2015 04 09 14 52 11 .05     -75    118    -27    141    144 327.4 -10.9  34058  287.86 0861.53
2015 04 09 14 52 11 .30     -81    106    -41    134    141 322.6 -17.0  34060  287.89 0861.53
2015 04 09 14 52 11 .55    -100     67     -6    121    122 304.1  -3.2  34066  287.99 0861.53
2015 04 09 14 52 11 .80     -93     76    -16    121    123 309.5  -7.7  34060  287.89 0861.53
2015 04 09 14 52 12 .06     -95     77    -10    123    124 309.1  -5.1  34064  287.96 0861.53
2015 04 09 14 52 12 .31     -75     60     -3     97     98 308.6  -2.2  34074  288.13 0861.53
2015 04 09 14 52 12 .55     -76     48     -5     91     92 302.4  -3.7  34070  288.04 0861.53
2015 04 09 14 52 12 .81     -29     45     22     54     58 327.5  22.0  34090  288.38 0861.53
2015 04 09 14 52 13 .06     -12     61      6     63     64 348.4   5.9  34134  289.14 0861.52
2015 04 09 14 52 13 .31     -36     55     32     66     73 326.6  27.3  34178  289.87 0861.52
2015 04 09 14 52 13 .56     -70     68     67     98    118 314.0  37.6  34178  289.89 0861.52
2015 04 09 14 52 13 .81     -49     69     53     85    100 324.4  35.5  34170  289.74 0861.52
2015 04 09 14 52 14 .06     -41     78     61     89    107 332.4  37.6  34172  289.79 0861.52
2015 04 09 14 52 14 .31     -47     75     61     89    107 327.5  37.6  34176  289.84 0861.52
2015 04 09 14 52 14 .56     -62     63     65     89    110 315.3  39.7  34186  290.01 0861.52
2015 04 09 14 52 14 .81     -36     45     39     58     69 321.3  36.5  34202  290.28 0861.52
2015 04 09 14 52 15 .07     -27     58     25     65     69 334.6  22.0  34198  290.21 0861.52
2015 04 09 14 52 15 .32     -27     41     19     50     53 326.6  20.0  34184  289.97 0861.52
2015 04 09 14 52 15 .57     -26     29    -18     40     43 318.6 -29.5  34164  289.63 0861.52
2015 04 09 14 52 15 .82     -66     22     -6     70     71 289.1  -5.2  34134  289.13 0861.52
2015 04 09 14 52 16 .08     -49     20     -2     54     55 292.6  -2.2  34112  288.77 0861.52
2015 04 09 14 52 16 .32     -27     32    -10     43     45 319.5 -13.4  34118  288.86 0861.52
2015 04 09 14 52 16 .58     -30     37     36     48     60 321.3  40.7  34142  289.28 0861.52
2015 04 09 14 52 16 .83     -32     32     -6     46     47 315.0  -8.2  34134  289.14 0861.52
2015 04 09 14 52 17 .07     -42     43     32     61     68 315.8  29.3  34164  289.65 0861.52
2015 04 09 14 52 17 .32     -49     53    -21     73     75 316.8 -21.7  34124  288.96 0861.52
2015 04 09 14 52 17 .58     -66     65    -20     93     96 314.4 -12.4  34114  288.79 0861.52
2015 04 09 14 52 17 .83     -58     55     10     81     82 313.3   7.5  34128  289.02 0861.52
2015 04 09 14 52 18 .08     -56     59    -11     82     83 316.3  -8.2  34134  289.13 0861.52
2015 04 09 14 52 18 .33     -70     71     14    100    102 315.3   8.0  34150  289.41 0861.52
2015 04 09 14 52 18 .58     -59     61      0     85     86 315.9  -0.3  34142  289.26 0861.52
2015 04 09 14 52 18 .83     -70     58     -3     91     92 309.6  -2.2  34148  289.36 0861.52
2015 04 09 14 52 19 .08     -60     39     -1     72     73 303.3  -1.3  34136  289.18 0861.52
2015 04 09 14 52 19 .33     -83     31    -19     89     92 290.8 -12.4  34090  288.40 0861.52
2015 04 09 14 52 19 .58     -42     13     -4     45     46 287.7  -6.2  34086  288.31 0861.52
2015 04 09 14 52 19 .84     -54     52     -9     76     77 314.1  -7.2  34134  289.14 0861.52
2015 04 09 14 52 20 .08     -88     64      5    109    110 306.0   2.8  34148  289.36 0861.52
2015 04 09 14 52 20 .33     -85     36      0     93     94 293.1  -0.3  34106  288.65 0861.52
2015 04 09 14 52 20 .59     -50     60     -3     79     80 320.4  -2.6  34170  289.74 0861.52
2015 04 09 14 52 20 .83     -26     78     -9     83     84 341.7  -6.2  34182  289.96 0861.52
2015 04 09 14 52 21 .08     -22     56     16     61     64 338.2  15.3  34192  290.11 0861.52
2015 04 09 14 52 21 .33     -57     48      3     75     76 310.4   2.9  34168  289.70 0861.51
2015 04 09 14 52 21 .58     -93     77    -11    121    122 309.6  -5.2  34120  288.91 0861.51
2015 04 09 14 52 21 .85    -112     66    -21    131    133 300.7  -9.3  34080  288.21 0861.51
2015 04 09 14 52 22 .10     -74     82      5    111    112 317.7   2.8  34098  288.52 0861.51
2015 04 09 14 52 22 .35     -89     67    -19    112    114 307.3  -9.8  34082  288.25 0861.51
2015 04 09 14 52 22 .60     -77     55    -12     95     96 305.5  -7.3  34078  288.18 0861.51
2015 04 09 14 52 22 .85     -71     62    -12     95     96 310.9  -7.3  34088  288.35 0861.51
2015 04 09 14 52 23 .10     -60     65    -24     89     93 317.2 -15.5  34094  288.45 0861.51
2015 04 09 14 52 23 .36     -51     61    -12     80     81 320.4  -8.8  34102  288.58 0861.51
2015 04 09 14 52 23 .60     -55     60    -15     82     84 317.2 -10.9  34104  288.64 0861.51
2015 04 09 14 52 23 .85     -47     74    -16     89     91 327.4 -10.3  34108  288.69 0861.51
2015 04 09 14 52 24 .10     -45     88    -13     99    100 332.8  -7.7  34116  288.82 0861.52
2015 04 09 14 52 24 .35     -61     74    -10     97     98 320.4  -6.2  34126  288.99 0861.52
2015 04 09 14 52 24 .60    -120     93    -26    152    155 307.8  -9.8  34116  288.84 0861.52
2015 04 09 14 52 24 .86    -147    113    -23    186    188 307.5  -7.3  34082  288.26 0861.52
2015 04 09 14 52 25 .11    -145    126    -38    193    197 311.1 -11.3  34116  288.84 0861.52
2015 04 09 14 52 25 .36    -132    118    -21    178    180 311.8  -6.9  34132  289.09 0861.52
2015 04 09 14 52 25 .60    -120     87    -16    149    150 306.0  -6.2  34110  288.72 0861.52
2015 04 09 14 52 25 .86    -112     91    -47    145    152 309.1 -23.8  34072  288.09 0861.51
2015 04 09 14 52 26 .11    -119     77    -55    142    152 302.9 -26.4  34112  288.77 0861.51
2015 04 09 14 52 26 .36     -63     77     -3    100    101 320.4  -2.2  34138  289.21 0861.51
2015 04 09 14 52 26 .61     -30     77      7     83     84 338.2   4.9  34148  289.38 0861.51
2015 04 09 14 52 26 .86     -89     53     -4    104    105 300.7  -2.2  34144  289.31 0861.51
2015 04 09 14 52 27 .11     -91     77      1    120    121 310.0   0.7  34146  289.33 0861.51
2015 04 09 14 52 27 .36     -84     73    -41    112    119 311.3 -25.3  34132  289.09 0861.51
2015 04 09 14 52 27 .61    -105     82    -70    134    151 307.8 -33.7  34054  287.79 0861.51
2015 04 09 14 52 27 .86    -118     59    -68    132    148 296.6 -33.7  34052  287.76 0861.51
2015 04 09 14 52 28 .11    -153     83    -23    175    177 298.4  -7.7  34048  287.69 0861.51
2015 04 09 14 52 28 .36    -137     87    -21    163    165 302.4  -7.3  34056  287.82 0861.51
2015 04 09 14 52 28 .61    -121     97    -16    156    157 308.6  -6.0  34058  287.86 0861.51
2015 04 09 14 52 28 .88    -129     76    -36    151    156 300.6 -13.7  34072  288.08 0861.51
2015 04 09 14 52 29 .12     -68     98     16    120    122 325.3   8.0  34100  288.55 0861.51
2015 04 09 14 52 29 .38     -47     91     36    103    110 332.4  19.4  34106  288.67 0861.51
2015 04 09 14 52 29 .63     -81     92     10    123    124 318.6   4.9  34098  288.53 0861.51
2015 04 09 14 52 29 .88     -82    100     11    130    131 320.8   4.9  34108  288.69 0861.51
2015 04 09 14 52 30 .12     -83    107    -21    136    138 322.2  -8.8  34092  288.42 0861.51
2015 04 09 14 52 30 .38    -112    145    -52    184    192 322.4 -15.8  34080  288.21 0861.51
2015 04 09 14 52 30 .63    -123    157    -59    200    209 321.7 -16.4  34076  288.16 0861.51
2015 04 09 14 52 30 .88    -131    131    -60    186    196 314.9 -17.9  34082  288.25 0861.51
2015 04 09 14 52 31 .13    -128    128    -57    182    191 314.9 -17.6  34080  288.21 0861.51
2015 04 09 14 52 31 .38    -137    141    -56    197    206 315.9 -16.0  34082  288.26 0861.51
2015 04 09 14 52 31 .63    -143    143    -56    203    210 315.1 -20.0  34080  288.21 0861.51
2015 04 09 14 52 31 .88    -122    155    -56    198    205 321.7 -20.4  34076  288.16 0861.51
2015 04 09 14 52 32 .13    -131    143    -50    195    202 317.5 -14.5  34074  288.13 0861.51
2015 04 09 14 52 32 .38    -116    120    -60    168    179 315.9 -19.7  34068  288.01 0861.51
2015 04 09 14 52 32 .63    -131    121    -43    179    185 312.9 -13.7  34066  287.98 0861.51
2015 04 09 14 52 32 .88    -151    112    -46    189    195 306.6 -13.9  34070  288.04 0861.51
2015 04 09 14 52 33 .13    -142    108    -54    179    187 307.3 -16.8  34076  288.14 0861.51
2015 04 09 14 52 33 .38    -114    121    -53    167    176 316.8 -17.6  34074  288.11 0861.51
2015 04 09 14 52 33 .64    -104    118    -54    158    168 318.5 -19.1  34074  288.13 0861.51
2015 04 09 14 52 33 .88    -104    118    -54    158    168 318.5 -19.1  34074  288.13 0861.51
2015 04 09 14 52 34 .13    -111    134    -61    175    186 320.4 -19.4  34072  288.08 0861.51
2015 04 09 14 52 34 .39    -138    135    -52    194    201 314.4 -15.0  34076  288.16 0861.51
2015 04 09 14 52 34 .64    -136     99    -42    169    175 306.2 -13.9  34072  288.08 0861.51
2015 04 09 14 52 34 .89    -130     92    -44    160    167 305.3 -15.5  34076  288.16 0861.51
2015 04 09 14 52 35 .14     -76    128    -13    149    150 329.3  -5.2  34100  288.55 0861.51
2015 04 09 14 52 35 .39     -58    176     -3    186    187 341.5  -1.2  34132  289.09 0861.51
2015 04 09 14 52 35 .64     -74    163    -21    180    182 335.5  -6.7  34118  288.86 0861.51
2015 04 09 14 52 35 .90     -79    158    -32    177    181 333.3 -10.5  34126  288.99 0861.51
2015 04 09 14 52 36 .15     -56    157    -14    167    168 340.2  -4.9  34132  289.11 0861.51
2015 04 09 14 52 36 .40     -50    139    -17    148    150 340.0  -6.7  34142  289.26 0861.51
2015 04 09 14 52 36 .65     -78    138    -28    159    162 330.6 -10.3  34146  289.35 0861.51
2015 04 09 14 52 36 .90     -87    153    -32    177    181 330.4 -10.5  34118  288.87 0861.51
2015 04 09 14 52 37 .15     -69    168    -19    182    184 337.5  -6.0  34104  288.64 0861.51
2015 04 09 14 52 37 .40     -85    166    -38    187    191 332.8 -11.5  34098  288.52 0861.51
2015 04 09 14 52 37 .65     -76    149    -35    168    172 332.8 -11.9  34088  288.36 0861.52
2015 04 09 14 52 37 .90     -85    136    -27    161    164 327.9  -9.6  34088  288.35 0861.52
2015 04 09 14 52 38 .16     -71    130    -37    149    154 331.1 -13.9  34090  288.40 0861.52
2015 04 09 14 52 38 .41     -79    117    -31    142    146 325.7 -12.4  34090  288.40 0861.52
2015 04 09 14 52 38 .66     -61    117    -34    133    138 332.4 -14.5  34096  288.48 0861.52
2015 04 09 14 52 38 .91     -50    118     -5    129    130 336.8  -2.2  34148  289.36 0861.52
2015 04 09 14 52 39 .16     -49    103      7    115    116 334.5   3.8  34160  289.57 0861.52
2015 04 09 14 52 39 .40     -56     97     -4    113    114 330.1  -2.2  34166  289.69 0861.52
2015 04 09 14 52 39 .66     -44     93     -5    103    104 334.6  -3.2  34178  289.87 0861.52
2015 04 09 14 52 39 .91     -54     86      5    102    103 327.5   2.8  34156  289.52 0861.52
2015 04 09 14 52 40 .16     -36     65      5     75     76 331.0   3.8  34168  289.70 0861.51
2015 04 09 14 52 40 .41     -58     55      1     81     82 313.3   1.2  34174  289.82 0861.51
2015 04 09 14 52 40 .66     -68     54     55     88    103 308.6  35.5  34176  289.85 0861.51
2015 04 09 14 52 40 .91     -45     42     -2     62     63 313.1  -2.2  34164  289.65 0861.51
2015 04 09 14 52 41 .16     -13     66      3     68     69 348.4   2.8  34152  289.43 0861.51
2015 04 09 14 52 41 .41     -25     74      3     79     80 340.8   2.3  34142  289.28 0861.51
2015 04 09 14 52 41 .66     -35     54     45     65     79 326.6  38.0  34136  289.16 0861.51
2015 04 09 14 52 41 .91     -57     65      1     87     88 318.6   1.2  34130  289.06 0861.51
2015 04 09 14 52 42 .16     -48     58      3     76     77 320.4   2.9  34122  288.94 0861.51
2015 04 09 14 52 42 .42     -46     66      5     81     82 324.8   3.8  34134  289.14 0861.51
2015 04 09 14 52 42 .68     -37     65      7     76     77 330.1   5.9  34150  289.40 0861.51
2015 04 09 14 52 42 .92     -40     64     56     76     94 327.5  40.1  34122  288.94 0861.51
2015 04 09 14 52 43 .18     -28     94     68     99    120 343.5  37.6  34108  288.69 0861.51
2015 04 09 14 52 43 .43     -43     74     59     86    104 329.7  37.6  34118  288.86 0861.51
2015 04 09 14 52 43 .68     -23     59     30     64     70 338.2  27.2  34128  289.04 0861.51
2015 04 09 14 52 43 .93     -38     59     30     71     77 327.4  23.1  34132  289.09 0861.51
2015 04 09 14 52 44 .18     -36     58      5     69     70 328.4   4.9  34150  289.40 0861.51
2015 04 09 14 52 44 .43     -40     49     -2     64     65 320.3  -2.2  34134  289.14 0861.51
2015 04 09 14 52 44 .68     -50     63     24     81     85 321.3  16.8  34134  289.13 0861.51
2015 04 09 14 52 44 .93     -72     44     91     85    124 301.5  51.6  34146  289.33 0861.51
2015 04 09 14 52 45 .18     -64     43     37     78     86 304.2  27.2  34210  290.43 0861.51
2015 04 09 14 52 45 .44     -91     72    107    117    158 308.2  47.5  34252  291.15 0861.51
2015 04 09 14 52 45 .68    -130     61    -28    144    147 295.4 -11.3  34162  289.62 0861.51
2015 04 09 14 52 45 .94    -111     51    -24    123    126 294.8 -11.3  34130  289.06 0861.51
2015 04 09 14 52 46 .18    -102     66    -20    122    124 302.9  -9.3  34128  289.04 0861.51
2015 04 09 14 52 46 .44     -86    104     16    136    137 320.4   6.9  34148  289.38 0861.51
2015 04 09 14 52 46 .69    -127    129    -14    182    183 315.5  -4.6  34140  289.23 0861.51
2015 04 09 14 52 46 .94    -164    104    -22    195    197 302.4  -6.7  34136  289.16 0861.51
2015 04 09 14 52 47 .19    -110     74    -18    133    135 304.1  -7.7  34154  289.46 0861.51
2015 04 09 14 52 47 .44     -92     74     23    119    122 308.6  11.0  34180  289.92 0861.51
2015 04 09 14 52 47 .69     -25     63    -17     68     71 338.2 -14.5  34200  290.25 0861.51
2015 04 09 14 52 47 .94     -61     36    -20     72     74 300.7 -20.7  34194  290.14 0861.51
2015 04 09 14 52 48 .19     -48     51     24     71     76 316.8  19.2  34178  289.89 0861.51
2015 04 09 14 52 48 .44     -12     45     28     47     54 344.0  34.4  34184  289.99 0861.51
2015 04 09 14 52 48 .69    -190    137    -34    235    238 305.9  -8.3  34102  288.58 0861.51
2015 04 09 14 52 48 .94    -263    115    -45    288    292 293.6  -9.0  34060  287.87 0861.51
2015 04 09 14 52 49 .20    -223     61    -66    232    241 285.3 -20.7  34086  288.32 0861.51
2015 04 09 14 52 49 .44    -217     56    -47    225    230 284.6 -11.9  34118  288.86 0861.51
2015 04 09 14 52 49 .70    -170     15    -47    171    178 275.2 -15.5  34138  289.19 0861.51
2015 04 09 14 52 49 .95    -172     35    -22    176    178 281.5  -7.3  34098  288.52 0861.51
2015 04 09 14 52 50 .21    -165     62    -58    177    187 290.6 -18.1  34100  288.57 0861.51
2015 04 09 14 52 50 .45    -157     84    -37    179    183 298.2 -11.9  34116  288.84 0861.51
2015 04 09 14 52 50 .70    -149     50    -36    158    163 288.6 -12.9  34110  288.72 0861.51
2015 04 09 14 52 50 .96    -114     12     -2    115    116 276.1  -1.3  34110  288.72 0861.51
2015 04 09 14 52 51 .21     -66    -18     18     69     72 254.9  15.3  34120  288.89 0861.51
2015 04 09 14 52 51 .45      11     36     -4     38     39  16.9  -7.3  34126  289.01 0861.51
2015 04 09 14 52 51 .71     -25    -14      9     29     31 241.1  17.3  34114  288.80 0861.51
2015 04 09 14 52 51 .96     -51     74    -13     91     92 325.3  -8.2  34104  288.62 0861.51
2015 04 09 14 52 52 .21     -27     57     32     64     71 334.7  27.3  34118  288.86 0861.51
2015 04 09 14 52 52 .46     -33     50    -15     60     62 326.6 -14.5  34122  288.94 0861.51
2015 04 09 14 52 52 .71     -38     53     -8     66     67 324.8  -7.3  34132  289.11 0861.51
2015 04 09 14 52 52 .96       3     49     -1     50     51   4.5  -1.3  34152  289.45 0861.50
2015 04 09 14 52 53 .21     -74     24    -40     78     87 288.4 -33.7  34140  289.23 0861.50
2015 04 09 14 52 53 .46    -184     37    -24    188    190 281.5  -7.3  34142  289.28 0861.50
2015 04 09 14 52 53 .71    -166     98    -24    194    196 300.7  -7.3  34136  289.18 0861.50
2015 04 09 14 52 53 .96    -169    124    -11    210    211 306.2  -3.1  34162  289.60 0861.50
2015 04 09 14 52 54 .21    -177    127    -27    219    221 305.7  -7.2  34150  289.40 0861.50
2015 04 09 14 52 54 .46    -185    100    -24    211    213 298.4  -6.7  34150  289.41 0861.50
2015 04 09 14 52 54 .72     -30     55     30     63     69 331.0  27.2  34148  289.36 0861.50
2015 04 09 14 52 54 .97     -46     39    -16     61     64 310.4 -14.5  34130  289.06 0861.50
2015 04 09 14 52 55 .22     -42     75     39     87     95 330.6  26.2  34164  289.63 0861.50
2015 04 09 14 52 55 .47     -74    117      2    139    140 327.4   1.2  34172  289.79 0861.50
2015 04 09 14 52 55 .72     -78     77     93    110    144 314.6  44.3  34166  289.69 0861.50
2015 04 09 14 52 55 .97     -37    112     28    119    123 341.5  13.2  34134  289.14 0861.50
2015 04 09 14 52 56 .22     -71    148    -21    165    167 334.5  -7.3  34198  290.21 0861.50
2015 04 09 14 52 56 .47     -37    111     39    118    125 341.3  18.4  34226  290.69 0861.50
2015 04 09 14 52 56 .73     -83    103     89    133    160 321.3  37.0  34230  290.77 0861.51
2015 04 09 14 52 56 .98     -63    106     38    124    130 329.3  17.4  34224  290.65 0861.51
2015 04 09 14 52 57 .23     -68    121     30    140    144 330.6  12.2  34166  289.67 0861.51
2015 04 09 14 52 57 .49     -98    140     -6    171    172 325.0  -2.2  34164  289.63 0861.51
2015 04 09 14 52 57 .73     -49     91      5    104    105 331.9   2.8  34204  290.33 0861.51
2015 04 09 14 52 57 .98     -78     87    100    117    153 318.1  44.8  34172  289.77 0861.51
2015 04 09 14 52 58 .23     -45    108    102    118    155 337.3  45.4  34166  289.69 0861.51
2015 04 09 14 52 58 .48     -87    105    151    137    203 320.3  52.7  34150  289.41 0861.51
2015 04 09 14 52 58 .73     -67    130     48    147    155 332.8  18.1  34178  289.89 0861.51
2015 04 09 14 52 58 .98     -42    116    -20    124    126 339.9  -9.3  34170  289.74 0861.51
2015 04 09 14 52 59 .23     -36    134     -5    139    140 344.9  -2.2  34192  290.11 0861.51
2015 04 09 14 52 59 .48     -32     58     -2     67     68 331.0  -2.2  34174  289.82 0861.51
2015 04 09 14 52 59 .74     -50     30     80     59     99 300.7  60.5  34194  290.16 0861.51
2015 04 09 14 52 59 .99     -46     86     25     98    102 331.5  14.7  34196  290.18 0861.51
2015 04 09 14 53 00 .24     -56     26     46     62     77 295.3  39.7  34190  290.09 0861.51
2015 04 09 14 53 00 .49     -74     67     89    101    134 312.2  45.8  34188  290.06 0861.51
2015 04 09 14 53 00 .74     -43     59     39     74     83 323.9  29.8  34166  289.69 0861.51
2015 04 09 14 53 00 .99     -40     66     27     78     83 328.4  19.4  34142  289.28 0861.51
2015 04 09 14 53 01 .24    -118    110      7    162    163 313.1   2.5  34110  288.72 0861.50
2015 04 09 14 53 01 .49    -117     92    -41    150    156 308.2 -15.5  34092  288.43 0861.50
2015 04 09 14 53 01 .74    -126     76    -90    148    173 301.1 -39.2  34058  287.86 0861.50
2015 04 09 14 53 01 .99    -139     76    -96    159    185 298.9 -38.6  34084  288.30 0861.50
2015 04 09 14 53 02 .24    -134     85    -71    159    174 302.5 -30.3  34034  287.43 0861.50
2015 04 09 14 53 02 .49    -128     81    -78    152    170 302.4 -33.7  34026  287.30 0861.50
2015 04 09 14 53 02 .74    -111     80    -67    138    153 305.9 -31.7  34036  287.49 0861.50
2015 04 09 14 53 02 .99    -102     81    -52    131    140 308.6 -27.4  34042  287.57 0861.51
2015 04 09 14 53 03 .24    -100     60    -36    117    122 301.1 -21.8  34040  287.54 0861.51
2015 04 09 14 53 03 .49    -106     54    -42    120    128 297.1 -19.6  34042  287.57 0861.51
2015 04 09 14 53 03 .75    -110     58    -37    125    131 298.0 -16.6  34038  287.52 0861.51
2015 04 09 14 53 04 .00    -118     51    -40    129    136 293.5 -17.5  34040  287.54 0861.51
2015 04 09 14 53 04 .25    -129     60    -19    143    145 295.2  -7.7  34034  287.43 0861.51
2015 04 09 14 53 04 .50     -97     62    -14    116    117 302.4  -7.3  34036  287.49 0861.51
2015 04 09 14 53 04 .75     -95     55    -19    110    112 300.2 -10.3  34036  287.49 0861.51
2015 04 09 14 53 05 .01     -85     49     -3     99    100 299.8  -2.2  34048  287.67 0861.51
2015 04 09 14 53 05 .26     -94     48    -20    106    108 297.1 -10.9  34034  287.43 0861.51
2015 04 09 14 53 05 .51    -107     35    -16    113    115 288.6  -8.2  34048  287.67 0861.51
2015 04 09 14 53 05 .76    -111     48    -14    122    123 293.6  -6.7  34050  287.72 0861.51
2015 04 09 14 53 06 .00    -108     52    -24    120    123 295.8 -11.5  34044  287.60 0861.51
2015 04 09 14 53 06 .26     -97     62    -23    116    119 302.4 -11.3  34036  287.47 0861.51
2015 04 09 14 53 06 .51    -101     61    -28    118    122 301.1 -13.4  34038  287.52 0861.51
2015 04 09 14 53 06 .76    -119     56    -21    132    134 295.4  -9.4  34038  287.52 0861.51
2015 04 09 14 53 07 .01    -106     63    -34    124    129 300.6 -15.5  34036  287.49 0861.51
2015 04 09 14 53 07 .27    -111     66    -31    130    134 300.7 -13.4  34046  287.65 0861.51
2015 04 09 14 53 07 .51    -118     85    -13    146    147 306.0  -5.2  34058  287.84 0861.51
2015 04 09 14 53 07 .76     -88     73     -3    115    116 309.5  -1.8  34066  287.99 0861.51
2015 04 09 14 53 08 .02     -98     98    -21    139    141 315.0  -8.8  34080  288.23 0861.51
2015 04 09 14 53 08 .27     -84     89    -29    123    127 316.7 -13.3  34072  288.09 0861.51
2015 04 09 14 53 08 .52     -93     67    -17    115    117 306.0  -8.8  34082  288.26 0861.50
2015 04 09 14 53 08 .76    -107     51    -32    119    124 295.8 -15.4  34066  287.99 0861.50
2015 04 09 14 53 09 .02     -88     73    -33    115    120 310.0 -16.0  34070  288.04 0861.50
2015 04 09 14 53 09 .27     -62     63    -34     89     95 315.3 -25.4  34102  288.58 0861.50
2015 04 09 14 53 09 .51     -60     65    -24     89     93 317.2 -15.5  34088  288.35 0861.50
2015 04 09 14 53 09 .77     -71     59    -30     93     98 310.0 -18.1  34084  288.30 0861.50
2015 04 09 14 53 10 .02     -65     52    -16     84     86 309.1 -10.9  34104  288.64 0861.50
2015 04 09 14 53 10 .26     -66     58    -21     88     91 311.3 -13.9  34114  288.79 0861.49
2015 04 09 14 53 10 .53     -50     50    -13     71     73 314.9 -10.3  34110  288.72 0861.49
2015 04 09 14 53 10 .78     -59     48    -16     77     79 309.5 -11.9  34130  289.06 0861.49
2015 04 09 14 53 11 .03     -70     29      1     76     77 292.6   0.8  34106  288.67 0861.49
2015 04 09 14 53 11 .28     -42     20     -5     47     48 296.2  -6.2  34104  288.64 0861.49
2015 04 09 14 53 11 .53     -17     55     30     58     65 342.2  30.3  34132  289.09 0861.49
2015 04 09 14 53 11 .78     -41     21     29     47     55 297.1  35.5  34170  289.75 0861.49
2015 04 09 14 53 12 .03     -26      2      6     27     28 274.3  13.2  34158  289.55 0861.49
2015 04 09 14 53 12 .28     -58     36     57     69     89 302.4  43.7  34124  288.97 0861.49
2015 04 09 14 53 12 .54     -45     55     36     72     80 320.4  28.7  34142  289.28 0861.49
2015 04 09 14 53 12 .78     -21     29    -10     36     38 323.9 -15.4  34140  289.23 0861.49
2015 04 09 14 53 13 .04     -43     54     -6     70     71 321.3  -5.2  34124  288.96 0861.49
2015 04 09 14 53 13 .29     -54     66     16     86     88 320.4  11.1  34118  288.86 0861.49
2015 04 09 14 53 13 .54     -57     60     24     83     87 316.3  16.3  34142  289.28 0861.49
2015 04 09 14 53 13 .79     -65     95     52    116    127 325.7  25.7  34128  289.04 0861.49
2015 04 09 14 53 14 .03     -47    100     74    111    133 334.6  36.5  34106  288.67 0861.49
2015 04 09 14 53 14 .29     -32     91     74     97    122 340.4  41.6  34110  288.72 0861.49
2015 04 09 14 53 14 .54     -17     55     20     58     62 342.2  19.4  34108  288.69 0861.49
2015 04 09 14 53 14 .79     -48     48     -8     68     69 315.0  -7.2  34106  288.67 0861.49
2015 04 09 14 53 15 .04     -60     33     -1     69     70 298.8  -1.3  34106  288.67 0861.49
2015 04 09 14 53 15 .29     -73     41    101     84    131 299.3  56.3  34110  288.72 0861.49
2015 04 09 14 53 15 .54     -28     59     74     66     99 334.6  53.3  34116  288.84 0861.49
2015 04 09 14 53 15 .79     -51     88    119    102    156 329.7  55.0  34170  289.74 0861.49
2015 04 09 14 53 16 .05     -32     96     98    102    141 341.5  49.0  34156  289.52 0861.49
2015 04 09 14 53 16 .29     -27     83    106     88    137 341.5  56.3  34170  289.74 0861.49
2015 04 09 14 53 16 .54     -20     62     73     66     98 341.7  52.7  34112  288.75 0861.49
2015 04 09 14 53 16 .79     -22     71     65     75     99 342.2  45.4  34078  288.18 0861.49
2015 04 09 14 53 17 .04     -20     65     54     69     87 343.1  42.2  34082  288.26 0861.49
2015 04 09 14 53 17 .30     -31     36     64     48     80 319.5  59.4  34118  288.86 0861.49
2015 04 09 14 53 17 .55     -11     29     61     32     68 338.2  70.8  34122  288.94 0861.49
2015 04 09 14 53 17 .81     -43     29     57     53     77 304.2  52.1  34154  289.46 0861.49
2015 04 09 14 53 18 .05     -36     16     56     40     68 294.4  60.6  34172  289.79 0861.49
2015 04 09 14 53 18 .30     -42     22     50     48     69 298.0  50.1  34158  289.55 0861.48
2015 04 09 14 53 18 .55     -18     49     33     53     62 339.1  35.5  34148  289.36 0861.48
2015 04 09 14 53 18 .81     -16     61      7     64     65 344.9   6.9  34114  288.79 0861.48
2015 04 09 14 53 19 .06     -30     77      7     83     84 338.2   4.9  34118  288.86 0861.48
2015 04 09 14 53 19 .31     -25     76     20     81     84 341.3  14.3  34116  288.82 0861.48
2015 04 09 14 53 19 .56     -36     55     32     66     73 326.6  27.3  34134  289.13 0861.48
2015 04 09 14 53 19 .81     -31     37     57     49     75 320.4  55.4  34138  289.19 0861.48
2015 04 09 14 53 20 .06     -29     22     43     37     56 307.8  54.3  34144  289.30 0861.48
2015 04 09 14 53 20 .31     -34     31     39     47     61 312.2  43.8  34154  289.46 0861.48
2015 04 09 14 53 20 .56     -57     36     13     68     70 302.4  11.1  34150  289.41 0861.48
2015 04 09 14 53 20 .81     -48     82     -9     96     97 329.7  -5.6  34088  288.35 0861.48
2015 04 09 14 53 21 .07     -52     97    -22    111    114 331.5 -11.3  34086  288.31 0861.48
2015 04 09 14 53 21 .31     -42    126     -8    134    135 341.3  -3.7  34092  288.42 0861.48
2015 04 09 14 53 21 .57     -54    120    -12    132    133 335.5  -5.2  34106  288.67 0861.48
2015 04 09 14 53 21 .81     -45    114     -4    123    124 338.1  -2.2  34108  288.70 0861.48
2015 04 09 14 53 22 .06     -44    102    -14    112    113 336.4  -7.3  34106  288.67 0861.48
2015 04 09 14 53 22 .32     -54     78    -14     95     97 325.3  -8.8  34108  288.69 0861.48
2015 04 09 14 53 22 .57     -24     75      8     79     80 341.7   5.9  34120  288.89 0861.48
2015 04 09 14 53 22 .82     -42     73     -3     85     86 329.7  -2.6  34126  288.99 0861.48
2015 04 09 14 53 23 .07     -42     65      2     78     79 327.4   1.8  34124  288.96 0861.48
2015 04 09 14 53 23 .32     -37     49      7     62     63 323.0   6.9  34130  289.06 0861.48
2015 04 09 14 53 23 .57     -51     45      3     69     70 311.3   2.9  34144  289.31 0861.48
2015 04 09 14 53 23 .82     -26     38     21     47     51 325.7  26.2  34148  289.36 0861.48
2015 04 09 14 53 24 .07     -36     11     25     38     45 288.2  35.6  34160  289.58 0861.48
2015 04 09 14 53 24 .32     -32     32     -7     46     47 315.0  -9.3  34144  289.30 0861.48
2015 04 09 14 53 24 .59     -31     49     26     59     64 327.5  24.1  34198  290.21 0861.48
2015 04 09 14 53 24 .83     -28      9     39     30     49 288.2  58.5  34246  291.03 0861.48
2015 04 09 14 53 25 .08     -22      8     -3     24     25 290.0  -7.3  34222  290.64 0861.48
2015 04 09 14 53 25 .33     -45     28     -3     54     55 302.4  -4.1  34186  290.02 0861.48
2015 04 09 14 53 25 .58     -36     24     15     44     47 303.3  18.9  34194  290.16 0861.48
2015 04 09 14 53 25 .83     -23     25     49     35     60 316.8  60.5  34186  290.02 0861.48
2015 04 09 14 53 26 .08     -40     63     27     75     79 327.5  20.4  34222  290.62 0861.48
2015 04 09 14 53 26 .33     -26     28     -1     39     40 316.8  -2.2  34196  290.19 0861.48
2015 04 09 14 53 26 .59     -20     36    -11     42     44 330.1 -14.5  34184  289.97 0861.48
2015 04 09 14 53 26 .84     -45     54     -1     71     72 320.4  -1.2  34194  290.16 0861.48
2015 04 09 14 53 27 .09     -14     65     32     67     74 347.5  27.1  34226  290.69 0861.48
2015 04 09 14 53 27 .34     -49     53    -21     73     75 316.8 -21.7  34274  291.50 0861.48
2015 04 09 14 53 27 .59    -101     36     -1    108    109 290.0  -0.7  34288  291.74 0861.48
2015 04 09 14 53 27 .84    -105     12      2    106    107 277.0   1.2  34292  291.83 0861.48
2015 04 09 14 53 28 .09     -46     21     51     51     72 295.4  50.1  34292  291.81 0861.48
2015 04 09 14 53 28 .34     -45     55     37     72     80 320.3  29.3  34314  292.20 0861.48
2015 04 09 14 53 28 .59     -25     22     15     34     37 311.3  25.1  34324  292.37 0861.48
2015 04 09 14 53 28 .84     -39     -3     57     40     69 265.6  61.5  34354  292.88 0861.48
2015 04 09 14 53 29 .09     -12    -16     21     21     29 216.1  50.1  34320  292.29 0861.48
2015 04 09 14 53 29 .34     -13      1      0     14     15 274.3  -2.2  34294  291.84 0861.48
2015 04 09 14 53 29 .59    -113    -21    -33    115    120 259.4 -16.0  34186  290.02 0861.48
2015 04 09 14 53 29 .84    -194     -5    -56    195    203 268.5 -16.0  34116  288.82 0861.48
2015 04 09 14 53 30 .10    -227     17    -49    228    234 274.3 -12.2  34090  288.38 0861.48
2015 04 09 14 53 30 .34    -149     55    -15    160    161 290.4  -5.6  34112  288.77 0861.48
2015 04 09 14 53 30 .59    -238     18    -34    239    242 274.4  -8.2  34066  287.99 0861.48
2015 04 09 14 53 30 .85    -233     52    -30    239    241 282.6  -7.2  34120  288.90 0861.48
2015 04 09 14 53 31 .10    -144     33     -5    148    149 283.2  -2.2  34134  289.13 0861.48
2015 04 09 14 53 31 .36     -94      0    -14     95     97 270.0  -8.8  34132  289.09 0861.48
2015 04 09 14 53 31 .61     -47     19    -10     51     53 292.6 -11.3  34136  289.18 0861.48
2015 04 09 14 53 31 .86    -210     41    -35    215    218 281.2  -9.3  34092  288.43 0861.48
2015 04 09 14 53 32 .11    -201     42    -51    206    213 281.9 -13.9  34070  288.06 0861.48
2015 04 09 14 53 32 .36    -142     56    -26    153    156 291.7  -9.8  34094  288.45 0861.48
2015 04 09 14 53 32 .61    -167     62    -49    179    186 290.6 -15.5  34158  289.55 0861.48
2015 04 09 14 53 32 .86     -69     71     13    100    101 315.9   7.5  34188  290.04 0861.48
2015 04 09 14 53 33 .11    -228     42    -60    232    240 280.6 -14.7  34068  288.02 0861.48
2015 04 09 14 53 33 .36    -228     13    -12    229    230 273.3  -3.1  34070  288.06 0861.48
2015 04 09 14 53 33 .61    -266     49    -24    271    273 280.6  -5.2  34054  287.77 0861.48
2015 04 09 14 53 33 .86    -258     17    -10    259    260 273.9  -2.2  34066  287.97 0861.48
2015 04 09 14 53 34 .12    -297     42    -40    301    304 278.1  -7.7  34050  287.71 0861.48
2015 04 09 14 53 34 .37    -258     20    -42    259    263 274.6  -9.3  34068  288.00 0861.48
2015 04 09 14 53 34 .62    -260     44    -35    264    267 279.7  -7.7  34090  288.39 0861.48
2015 04 09 14 53 34 .86    -235     41    -25    239    241 279.9  -6.0  34082  288.26 0861.47
2015 04 09 14 53 35 .12    -235     58    -69    243    253 283.9 -16.0  34064  287.93 0861.47
2015 04 09 14 53 35 .37    -159     53    -22    168    170 288.4  -7.7  34096  288.50 0861.47
2015 04 09 14 53 35 .63    -217     64    -19    227    228 286.6  -4.9  34068  288.03 0861.47
2015 04 09 14 53 35 .87    -277     55    -55    283    289 281.2 -11.1  34046  287.65 0861.47
2015 04 09 14 53 36 .12    -197     52    -17    204    205 285.1  -4.9  34064  287.96 0861.47
2015 04 09 14 53 36 .37    -223     31    -22    226    228 278.1  -5.6  34052  287.76 0861.47
2015 04 09 14 53 36 .62    -157     21    -20    159    161 277.9  -7.3  34068  288.03 0861.48
2015 04 09 14 53 36 .87    -173     12    -34    174    178 274.3 -11.3  34078  288.18 0861.48
2015 04 09 14 53 37 .12    -194      3    -47    195    201 270.9 -13.7  34058  287.86 0861.48
2015 04 09 14 53 37 .37    -269     45    -34    273    276 279.6  -7.2  34068  288.02 0861.48
2015 04 09 14 53 37 .62    -303     27    -39    305    308 275.2  -7.3  34042  287.58 0861.48
2015 04 09 14 53 37 .87    -314     55    -57    319    325 280.0 -10.3  34050  287.71 0861.48
2015 04 09 14 53 38 .12    -313     59    -54    319    324 280.8  -9.7  34058  287.85 0861.48
2015 04 09 14 53 38 .39    -298     80    -44    309    313 285.0  -8.1  34084  288.29 0861.48
2015 04 09 14 53 38 .63    -295     86    -47    308    312 286.4  -8.8  34114  288.78 0861.48
2015 04 09 14 53 38 .88    -293     49    -59    298    304 279.5 -11.3  34048  287.66 0861.48
2015 04 09 14 53 39 .13    -297     66    -68    305    313 282.6 -12.6  34040  287.53 0861.48
2015 04 09 14 53 39 .39    -162     92     -6    187    188 299.5  -2.1  34064  287.94 0861.48
2015 04 09 14 53 39 .64    -154    108    -39    189    194 305.1 -11.9  34096  288.48 0861.48
2015 04 09 14 53 39 .89    -188     97    -59    212    221 297.3 -15.5  34170  289.74 0861.48
2015 04 09 14 53 40 .13    -160     80    -16    179    180 296.6  -5.2  34096  288.50 0861.48
2015 04 09 14 53 40 .39    -209     56    -44    217    222 285.1 -11.5  34066  287.98 0861.48
2015 04 09 14 53 40 .64    -195     59    -26    204    206 287.1  -7.3  34086  288.31 0861.48
2015 04 09 14 53 40 .89    -175     69    -14    189    190 291.7  -4.4  34082  288.25 0861.48
2015 04 09 14 53 41 .14    -211     49    -20    217    219 283.2  -5.4  34076  288.16 0861.48
2015 04 09 14 53 41 .39    -227     46    -51    232    238 281.5 -12.4  34070  288.04 0861.48
2015 04 09 14 53 41 .64    -243     42    -64    247    256 279.9 -14.7  34064  287.93 0861.48
2015 04 09 14 53 41 .89    -244     11    -45    245    250 272.6 -10.4  34056  287.82 0861.48
2015 04 09 14 53 42 .17    -253     35    -67    256    265 277.9 -14.7  34064  287.95 0861.48
2015 04 09 14 53 42 .40    -222     44    -28    227    229 281.4  -7.2  34066  287.99 0861.48
2015 04 09 14 53 42 .64    -178     59    -24    188    190 288.4  -7.5  34088  288.35 0861.48
2015 04 09 14 53 42 .89    -208     48    -52    214    221 283.0 -13.7  34104  288.64 0861.48
2015 04 09 14 53 43 .15    -225     39    -16    229    230 279.9  -4.1  34120  288.91 0861.48
2015 04 09 14 53 43 .40    -329     99    -57    344    349 286.8  -9.5  34090  288.40 0861.48
2015 04 09 14 53 43 .64    -307     32    -41    309    312 276.1  -7.6  34098  288.51 0861.48
2015 04 09 14 53 43 .90    -303     61    -79    310    320 281.5 -14.3  34120  288.90 0861.48
2015 04 09 14 53 44 .15    -202     40    -26    207    209 281.4  -7.2  34152  289.45 0861.48
2015 04 09 14 53 44 .40    -262     -7    -48    263    268 268.3 -10.5  34120  288.88 0861.48
2015 04 09 14 53 44 .65    -128    -71    -49    147    154 241.1 -23.6  34156  289.50 0861.48
2015 04 09 14 53 44 .90    -114     15    -36    116    122 277.9 -17.6  34136  289.18 0861.48
2015 04 09 14 53 45 .15     -52     19     15     56     59 290.8  15.2  34126  289.01 0861.48
2015 04 09 14 53 45 .41    -233      0    -46    234    239 270.1 -11.3  34132  289.09 0861.48
2015 04 09 14 53 45 .66    -105     -4    -21    106    109 267.4 -11.5  34108  288.69 0861.48
2015 04 09 14 53 45 .91    -174     -4    -45    175    181 268.5 -14.7  34066  287.99 0861.48
2015 04 09 14 53 46 .16     -28     13      9     31     33 295.2  17.3  34086  288.31 0861.48
2015 04 09 14 53 46 .41     -67    -29    -24     74     77 246.5 -23.8  34066  287.98 0861.48
2015 04 09 14 53 46 .66     -50    -16     39     53     65 251.8  39.7  34068  288.01 0861.48
2015 04 09 14 53 46 .91    -252     -8    -27    253    255 268.1  -6.2  34048  287.68 0861.48
2015 04 09 14 53 47 .16    -276     -4    -60    277    284 269.0 -12.4  34042  287.56 0861.48
2015 04 09 14 53 47 .41    -241    -36    -50    244    250 261.4 -11.6  34044  287.61 0861.48
2015 04 09 14 53 47 .67    -266    -30    -47    268    273 263.4 -10.1  34058  287.83 0861.48
2015 04 09 14 53 47 .92    -237     -6    -31    238    241 268.5  -7.5  34112  288.75 0861.48
2015 04 09 14 53 48 .16    -268    -16    -61    269    276 266.5 -12.9  34050  287.71 0861.48
2015 04 09 14 53 48 .42    -240    -81    -43    254    258 251.2  -9.6  34122  288.92 0861.48
2015 04 09 14 53 48 .66    -234      0    -42    235    239 269.9 -10.3  34086  288.32 0861.48
2015 04 09 14 53 48 .92    -225    -29    -64    227    236 262.5 -15.8  34062  287.92 0861.48
2015 04 09 14 53 49 .17    -145    -24    -48    148    156 260.3 -17.9  34076  288.14 0861.48
2015 04 09 14 53 49 .42    -115    -17     -6    117    118 261.6  -3.1  34096  288.48 0861.48
2015 04 09 14 53 49 .67    -198     22    -48    200    206 276.6 -13.7  34036  287.49 0861.48
2015 04 09 14 53 49 .92    -215    -19    -55    216    223 264.8 -14.3  34038  287.50 0861.48
2015 04 09 14 53 50 .17    -226    -29    -56    228    235 262.5 -13.9  34036  287.48 0861.48
2015 04 09 14 53 50 .42    -234    -32    -42    237    241 262.1 -10.1  34040  287.53 0861.48
2015 04 09 14 53 50 .67    -234    -40    -48    238    244 260.3 -11.6  34042  287.56 0861.48
2015 04 09 14 53 50 .92    -232    -36    -47    235    240 261.0 -11.3  34036  287.48 0861.48
2015 04 09 14 53 51 .18    -226    -24    -46    228    233 263.9 -11.5  34042  287.57 0861.48
2015 04 09 14 53 51 .42    -207    -48    -42    213    218 256.8 -11.3  34086  288.31 0861.48
2015 04 09 14 53 51 .68    -164    -65    -22    177    179 248.3  -7.3  34160  289.58 0861.48
2015 04 09 14 53 51 .92    -172    -71    -23    187    189 247.6  -7.2  34202  290.28 0861.48
2015 04 09 14 53 52 .17    -190   -101    -19    216    217 242.0  -5.2  34150  289.41 0861.48
2015 04 09 14 53 52 .43    -206    -77    -27    221    223 249.4  -7.2  34070  288.06 0861.48
2015 04 09 14 53 52 .69    -182    -73    -33    197    200 248.2  -9.8  34076  288.14 0861.48
2015 04 09 14 53 52 .94    -173    -92    -25    196    198 242.0  -7.5  34130  289.06 0861.48
2015 04 09 14 53 53 .19    -149    -25    -27    152    155 260.3 -10.3  34154  289.46 0861.48
2015 04 09 14 53 53 .44    -133    -48    -50    142    151 250.1 -19.6  34180  289.92 0861.48
2015 04 09 14 53 53 .69     -53    -73     17     91     93 216.1  11.0  34178  289.89 0861.48
2015 04 09 14 53 53 .94     -78    -48    -25     92     96 238.5 -15.5  34172  289.79 0861.48
2015 04 09 14 53 54 .19     -43    -54     32     70     76 218.7  27.1  34168  289.70 0861.48
2015 04 09 14 53 54 .44    -114     -8    -27    115    119 265.6 -13.4  34136  289.18 0861.48
2015 04 09 14 53 54 .69     -37    -37     36     53     64 225.1  37.6  34162  289.60 0861.48
2015 04 09 14 53 54 .94     -63      3    -48     64     80 273.5 -45.1  34156  289.50 0861.48
2015 04 09 14 53 55 .19     -48      6    -15     49     51 277.9 -22.8  34170  289.74 0861.48
2015 04 09 14 53 55 .45     -70     23     -9     74     75 288.2  -7.3  34172  289.77 0861.48
2015 04 09 14 53 55 .69     -37    -18     32     42     52 244.6  42.7  34196  290.19 0861.48
2015 04 09 14 53 55 .95     -66    -54     15     86     88 230.5  10.1  34166  289.69 0861.48
2015 04 09 14 53 56 .19     -67    -32     -1     75     76 244.7  -1.2  34198  290.23 0861.48
2015 04 09 14 53 56 .45     -62     -8    -10     63     64 262.1  -9.3  34186  290.02 0861.48
2015 04 09 14 53 56 .69     -12    -49     41     51     65 194.3  43.7  34212  290.47 0861.48
2015 04 09 14 53 56 .95     -70    -93     36    117    123 217.0  17.4  34212  290.45 0861.48
2015 04 09 14 53 57 .19    -156     21      4    158    159 277.9   1.6  34164  289.65 0861.48
2015 04 09 14 53 57 .45     -15    -45     60     48     76 199.2  56.4  34136  289.16 0861.48
2015 04 09 14 53 57 .70     -75    -48    -22     90     93 237.1 -13.9  34124  288.96 0861.48
2015 04 09 14 53 57 .95     -75    -12     -9     77     78 260.3  -6.7  34134  289.14 0861.48
2015 04 09 14 53 58 .20     -15    -24     -9     29     30 212.6 -23.8  34122  288.92 0861.48
2015 04 09 14 53 58 .45     -43    -27    -39     51     64 237.5 -45.1  34104  288.64 0861.48
2015 04 09 14 53 58 .70     -97    -46    -30    108    113 244.2 -15.5  34126  288.99 0861.48
2015 04 09 14 53 58 .95     -38     -4     43     39     58 263.9  52.2  34178  289.89 0861.48
2015 04 09 14 53 59 .21      -7     21      6     23     24 341.7  15.3  34168  289.70 0861.48
2015 04 09 14 53 59 .46     -37     49      0     62     63 323.0   0.8  34176  289.84 0861.48
2015 04 09 14 53 59 .71     -89     68    -18    113    115 307.3  -9.3  34134  289.14 0861.48
2015 04 09 14 53 59 .97    -110     36     10    116    117 288.4   5.0  34126  289.01 0861.48
2015 04 09 14 54 00 .21     -56     14      7     58     59 284.2   7.1  34150  289.40 0861.48
2015 04 09 14 54 00 .46     -19      0     17     20     26 270.0  45.8  34176  289.84 0861.48
2015 04 09 14 54 00 .71     -22     22    -15     32     35 315.0 -31.6  34170  289.74 0861.48
2015 04 09 14 54 00 .96     -49     40     -5     64     65 309.5  -5.2  34130  289.06 0861.48
2015 04 09 14 54 01 .22     -30    -13     -7     33     34 246.5 -13.4  34132  289.11 0861.48
2015 04 09 14 54 01 .47      -8    -40     18     41     44 191.6  24.1  34162  289.62 0861.48
2015 04 09 14 54 01 .71     -14    -44      2     47     48 198.5   2.9  34152  289.45 0861.48
2015 04 09 14 54 01 .97     -44    -95     14    105    107 204.9   8.0  34100  288.55 0861.48
2015 04 09 14 54 02 .22     -28    -26     38     39     54 226.7  51.1  34150  289.41 0861.48
2015 04 09 14 54 02 .47     -32     68      7     76     77 334.7   5.9  34172  289.79 0861.48
2015 04 09 14 54 02 .72     -89     33     -9     95     96 290.4  -5.6  34138  289.19 0861.48
2015 04 09 14 54 02 .97      -5     24     14     25     28 348.4  31.4  34164  289.65 0861.48
2015 04 09 14 54 03 .22     -14      1     25     15     29 274.4  64.7  34178  289.89 0861.48
2015 04 09 14 54 03 .47      -4     -5     27      7     27 223.4  82.8  34184  289.97 0861.48
2015 04 09 14 54 03 .72       0     -3    -14      4     14 184.5 -85.1  34188  290.06 0861.48
2015 04 09 14 54 03 .97     -42     10     25     44     50 283.3  32.4  34202  290.28 0861.48
2015 04 09 14 54 04 .22      -2      0     23      3     23 270.0  90.0  34212  290.47 0861.48
2015 04 09 14 54 04 .47      -4      2     21      5     21 302.4  86.9  34214  290.48 0861.48
2015 04 09 14 54 04 .72     -25     20      6     33     34 309.5  11.1  34188  290.06 0861.48
2015 04 09 14 54 04 .98     -28      9     12     30     32 288.2  23.0  34208  290.38 0861.48
2015 04 09 14 54 05 .22     -49     -3     22     50     54 265.6  26.2  34216  290.53 0861.48
2015 04 09 14 54 05 .47      -1     22    -11     23     25 357.3 -31.6  34190  290.08 0861.48
2015 04 09 14 54 05 .72     -48     21      2     53     54 293.5   2.9  34152  289.45 0861.48
2015 04 09 14 54 05 .97    -122     60     -4    137    138 296.2  -1.8  34094  288.47 0861.48
2015 04 09 14 54 06 .24    -150     50    -18    159    161 288.6  -6.7  34098  288.53 0861.48
2015 04 09 14 54 06 .49    -135     44    -39    143    149 288.2 -15.5  34110  288.74 0861.48
2015 04 09 14 54 06 .74     -65    -21     -7     69     70 251.4  -6.2  34152  289.43 0861.48
2015 04 09 14 54 06 .99      -1      0      9      2      9 251.6  89.0  34162  289.60 0861.48
2015 04 09 14 54 07 .24      34    -45     -2     57     58 143.0  -2.2  34174  289.82 0861.47
2015 04 09 14 54 07 .49      29      2     23     30     37  85.6  41.7  34186  290.02 0861.47
2015 04 09 14 54 07 .74      11     34     18     36     40  18.5  29.3  34178  289.87 0861.47
2015 04 09 14 54 07 .99     -39     62    -26     74     78 327.4 -23.3  34152  289.45 0861.47
2015 04 09 14 54 08 .24     -46     99     -8    110    111 335.1  -4.6  34096  288.50 0861.47
2015 04 09 14 54 08 .49     -60     80      5    101    102 323.0   2.9  34072  288.08 0861.47
2015 04 09 14 54 08 .74     -59     77     -6     98     99 322.6  -3.7  34058  287.84 0861.47
2015 04 09 14 54 08 .99    -112    102      7    152    153 312.2   2.8  34054  287.79 0861.47
2015 04 09 14 54 09 .24    -121     77    -11    144    145 302.4  -4.6  34052  287.76 0861.47
2015 04 09 14 54 09 .49    -122     93      3    154    155 307.3   1.2  34056  287.81 0861.47
2015 04 09 14 54 09 .74    -134     85    -10    159    160 302.4  -3.9  34046  287.65 0861.47
2015 04 09 14 54 09 .99    -142     64    -18    156    158 294.4  -6.9  34048  287.69 0861.47
2015 04 09 14 54 10 .24    -137     56    -19    149    151 292.2  -7.3  34046  287.65 0861.47
2015 04 09 14 54 10 .49    -119     52    -25    130    133 293.6 -10.9  34050  287.70 0861.47
2015 04 09 14 54 10 .76    -123     63    -20    139    141 297.0  -8.2  34046  287.64 0861.47
2015 04 09 14 54 11 .00    -144     59    -21    156    158 292.6  -7.7  34050  287.70 0861.47
2015 04 09 14 54 11 .25    -124     41    -27    131    134 288.6 -11.9  34064  287.94 0861.47
2015 04 09 14 54 11 .50    -118    101      6    156    157 310.4   2.5  34056  287.81 0861.47
2015 04 09 14 54 11 .75     -98     68     -6    120    121 304.6  -3.2  34048  287.67 0861.47
2015 04 09 14 54 12 .00    -127     92     -9    158    159 306.0  -3.3  34052  287.74 0861.47
2015 04 09 14 54 12 .25    -127    101     -7    163    164 308.6  -2.8  34044  287.62 0861.47
2015 04 09 14 54 12 .50    -146    104    -23    180    182 305.3  -7.5  34042  287.57 0861.47
2015 04 09 14 54 12 .75     -97     96      6    137    138 314.9   2.9  34056  287.81 0861.46
2015 04 09 14 54 13 .00    -123    101      2    160    161 309.5   0.8  34050  287.70 0861.46
2015 04 09 14 54 13 .26    -106    106     -3    151    152 314.9  -1.3  34050  287.70 0861.46
2015 04 09 14 54 13 .51    -115     89      3    146    147 307.8   1.2  34050  287.70 0861.46
2015 04 09 14 54 13 .76    -123    101    -34    160    164 309.5 -12.2  34044  287.62 0861.46
2015 04 09 14 54 14 .01    -119     97    -48    154    162 309.1 -17.3  34050  287.70 0861.46
2015 04 09 14 54 14 .27    -116     96    -19    151    153 309.6  -7.3  34060  287.89 0861.46
2015 04 09 14 54 14 .52    -114     81      9    141    142 305.5   3.8  34058  287.84 0861.46
2015 04 09 14 54 14 .77    -129     75    -30    150    153 300.2 -11.3  34044  287.62 0861.46
2015 04 09 14 54 15 .01    -115     89     -9    146    147 307.8  -3.7  34052  287.76 0861.46
2015 04 09 14 54 15 .27    -123     78    -29    146    149 302.5 -11.3  34042  287.57 0861.46
2015 04 09 14 54 15 .51    -149     78    -51    169    177 297.5 -17.0  34046  287.65 0861.46
2015 04 09 14 54 15 .77    -134     86    -36    160    165 302.9 -12.9  34038  287.50 0861.46
2015 04 09 14 54 16 .02    -128     96    -20    160    162 306.9  -7.2  34042  287.57 0861.46
2015 04 09 14 54 16 .27    -128     96    -25    161    164 306.9  -9.0  34042  287.59 0861.46
2015 04 09 14 54 16 .52    -133     95    -47    164    171 305.7 -16.0  34038  287.50 0861.46
2015 04 09 14 54 16 .77    -124     84    -44    150    156 304.2 -21.2  34046  287.65 0861.46
2015 04 09 14 54 17 .02    -105    102    -29    147    150 314.0 -11.3  34042  287.57 0861.46
2015 04 09 14 54 17 .27     -86    119    -31    148    152 324.0 -11.9  34036  287.49 0861.46
2015 04 09 14 54 17 .52     -99     98    -45    140    148 314.9 -18.1  34042  287.57 0861.46
2015 04 09 14 54 17 .77     -94     78    -45    123    130 309.5 -25.4  34052  287.76 0861.46
2015 04 09 14 54 18 .02     -74     98    -33    123    128 323.0 -15.0  34044  287.62 0861.46
2015 04 09 14 54 18 .27     -54    102    -32    116    121 331.9 -15.5  34036  287.47 0861.46
2015 04 09 14 54 18 .52     -42     98    -29    107    112 336.8 -15.4  34038  287.52 0861.46
2015 04 09 14 54 18 .77     -43     77    -30     89     95 330.6 -18.7  34046  287.65 0861.46
2015 04 09 14 54 19 .02     -55     69    -25     89     92 321.7 -20.7  34064  287.94 0861.46
2015 04 09 14 54 19 .28     -81     59     -8    101    102 306.4  -4.6  34064  287.96 0861.46
2015 04 09 14 54 19 .53     -82     64    -12    105    106 308.2  -6.7  34098  288.53 0861.46
2015 04 09 14 54 19 .78     -62     62     19     88     91 315.0  12.2  34104  288.62 0861.46
2015 04 09 14 54 20 .04     -42     50     23     66     71 320.3  19.4  34098  288.53 0861.46
2015 04 09 14 54 20 .29     -97     62    -11    116    117 302.9  -5.6  34080  288.21 0861.46
2015 04 09 14 54 20 .54     -90     56     -5    107    108 302.0  -3.1  34070  288.04 0861.46
2015 04 09 14 54 20 .79     -80     68      5    106    107 310.4   2.8  34082  288.25 0861.46
2015 04 09 14 54 21 .04     -79     74    -14    109    110 313.1  -7.3  34080  288.23 0861.46
2015 04 09 14 54 21 .29     -92     73    -14    118    119 308.6  -7.2  34088  288.35 0861.46
2015 04 09 14 54 21 .54     -85    106    -37    137    143 321.3 -15.4  34072  288.08 0861.46
2015 04 09 14 54 21 .79     -95    114    -41    149    155 320.4 -15.4  34064  287.94 0861.46
2015 04 09 14 54 22 .04     -98     98    -21    139    141 314.9  -8.8  34068  288.03 0861.46
2015 04 09 14 54 22 .29     -88     63     -8    109    110 305.9  -4.6  34068  288.03 0861.46
2015 04 09 14 54 22 .54     -79     66    -25    104    108 310.0 -13.9  34052  287.76 0861.46
2015 04 09 14 54 22 .80     -83     64    -20    106    108 307.8 -10.9  34052  287.76 0861.46
2015 04 09 14 54 23 .04     -71     69     -1    100    101 314.4  -0.7  34066  287.98 0861.46
2015 04 09 14 54 23 .29     -81     52      3     97     98 302.5   2.3  34072  288.08 0861.46
2015 04 09 14 54 23 .55     -77     55     -6     95     96 305.5  -3.7  34072  288.09 0861.46
2015 04 09 14 54 23 .79     -49     60     10     78     79 320.4   7.5  34080  288.23 0861.46
2015 04 09 14 54 24 .05     -83     53    -12     99    100 302.4  -7.3  34072  288.08 0861.46
2015 04 09 14 54 24 .30     -62     53      9     82     83 310.4   6.5  34082  288.25 0861.46
2015 04 09 14 54 24 .55     -38     53     13     66     68 323.9  11.1  34086  288.31 0861.46
2015 04 09 14 54 24 .80     -46     46     22     66     70 315.0  18.4  34094  288.45 0861.46
2015 04 09 14 54 25 .05     -70     44    -20     83     86 302.4 -13.9  34060  287.89 0861.46
2015 04 09 14 54 25 .30     -55     60    -15     82     84 317.2 -10.9  34066  287.99 0861.46
2015 04 09 14 54 25 .55     -45     45      0     64     65 315.0   0.8  34074  288.13 0861.46
2015 04 09 14 54 25 .80     -32     57     13     66     68 330.1  11.1  34088  288.36 0861.46
2015 04 09 14 54 26 .05     -45     41    -22     62     66 312.2 -19.7  34080  288.23 0861.46
2015 04 09 14 54 26 .30     -45     48    -24     67     72 316.7 -19.6  34078  288.18 0861.46
2015 04 09 14 54 26 .56      -8     26     16     28     32 341.7  33.5  34090  288.40 0861.46
2015 04 09 14 54 26 .80     -12     30     11     33     36 338.2  19.2  34100  288.55 0861.46
2015 04 09 14 54 27 .06     -10     33     24     35     42 343.1  37.6  34102  288.58 0861.46
2015 04 09 14 54 27 .31     -30     45     15     55     58 325.7  15.3  34106  288.67 0861.46
2015 04 09 14 54 27 .56     -27     81     30     86     92 341.3  19.4  34072  288.08 0861.46
2015 04 09 14 54 27 .82     -40     95     24    104    107 336.8  13.2  34084  288.30 0861.46
2015 04 09 14 54 28 .06     -36    107     13    113    114 341.3   6.9  34084  288.30 0861.46
2015 04 09 14 54 28 .31     -33     94     15    100    102 340.4   9.0  34076  288.16 0861.45
2015 04 09 14 54 28 .57     -26     93      4     97     98 344.4   2.9  34074  288.13 0861.45
2015 04 09 14 54 28 .82     -33     81     12     88     89 337.3   8.0  34074  288.11 0861.45
2015 04 09 14 54 29 .07     -40     84      4     94     95 334.6   2.8  34062  287.92 0861.45
2015 04 09 14 54 29 .32     -18     91      4     93     94 348.4   2.9  34074  288.13 0861.45
2015 04 09 14 54 29 .57     -20     62     32     66     73 341.7  27.3  34108  288.70 0861.45
2015 04 09 14 54 29 .82     -18     65     -1     68     69 344.0  -1.3  34112  288.75 0861.45
2015 04 09 14 54 30 .07     -53     51     -9     74     75 314.1  -7.2  34122  288.92 0861.45
2015 04 09 14 54 30 .32     -87     77     -6    117    118 311.8  -3.1  34108  288.69 0861.45
2015 04 09 14 54 30 .57     -96     40    -13    105    106 292.6  -7.2  34092  288.42 0861.45
2015 04 09 14 54 30 .83     -45     42      6     62     63 313.1   5.9  34132  289.09 0861.45
2015 04 09 14 54 31 .07     -34     31     39     47     61 312.2  43.8  34154  289.46 0861.45
2015 04 09 14 54 31 .32     -43     53     13     69     71 321.3  11.1  34148  289.36 0861.45
2015 04 09 14 54 31 .57     -37     40      9     55     56 317.7  10.1  34126  289.01 0861.45
2015 04 09 14 54 31 .83     -42     50     39     66     76 319.5  34.4  34144  289.31 0861.45
2015 04 09 14 54 32 .07     -51     42     37     67     76 309.5  31.4  34140  289.23 0861.46
2015 04 09 14 54 32 .33     -48     45     12     67     69 313.1  10.1  34122  288.94 0861.46
2015 04 09 14 54 32 .57     -68     68     -3     97     98 315.0  -2.2  34110  288.74 0861.46
2015 04 09 14 54 32 .83     -90     59    -12    108    109 303.3  -6.7  34080  288.21 0861.46
2015 04 09 14 54 33 .08     -84     40    -11     94     95 295.3  -7.2  34078  288.20 0861.46
2015 04 09 14 54 33 .32     -71     11    -25     72     77 278.8 -19.1  34064  287.94 0861.46
2015 04 09 14 54 33 .58     -76      5    -24     77     81 274.3 -17.6  34068  288.01 0861.46
2015 04 09 14 54 33 .83     -94      2    -19     95     97 271.3 -11.3  34064  287.96 0861.45
2015 04 09 14 54 34 .09    -123      8    -39    124    131 273.9 -17.6  34064  287.96 0861.45
2015 04 09 14 54 34 .34    -124     17    -33    126    131 277.9 -15.0  34064  287.94 0861.45
2015 04 09 14 54 34 .59    -126     25    -41    129    135 281.4 -23.8  34062  287.91 0861.45
2015 04 09 14 54 34 .84    -109     22    -32    112    116 281.5 -21.2  34064  287.96 0861.45
2015 04 09 14 54 35 .09     -93      2    -26     94     98 271.3 -15.5  34070  288.04 0861.45
2015 04 09 14 54 35 .34     -83      8    -11     84     85 275.7  -7.7  34064  287.94 0861.45
2015 04 09 14 54 35 .59     -65     23     -3     70     71 290.0  -3.1  34070  288.04 0861.46
2015 04 09 14 54 35 .84     -60     18    -20     63     67 286.8 -17.6  34078  288.20 0861.46
2015 04 09 14 54 36 .09     -52     13     -7     54     55 284.2  -7.3  34058  287.86 0861.46
2015 04 09 14 54 36 .35     -73      5     -6     74     75 274.3  -5.2  34058  287.84 0861.46
2015 04 09 14 54 36 .59    -103     -5    -32    104    108 267.0 -22.8  34056  287.81 0861.46
2015 04 09 14 54 36 .85    -109    -12    -36    110    115 263.4 -23.8  34056  287.81 0861.46
2015 04 09 14 54 37 .09     -89     -6    -32     90     95 266.1 -23.8  34062  287.92 0861.46
2015 04 09 14 54 37 .35     -96    -17    -38     98    105 259.9 -26.9  34070  288.04 0861.46
2015 04 09 14 54 37 .60    -107    -14    -34    109    115 262.1 -17.6  34088  288.36 0861.46
2015 04 09 14 54 37 .84    -119    -26    -33    122    127 257.6 -15.4  34104  288.64 0861.46
2015 04 09 14 54 38 .10    -113     -8    -27    114    118 265.6 -13.4  34092  288.42 0861.46
2015 04 09 14 54 38 .35    -110      0    -33    111    116 270.0 -16.6  34088  288.36 0861.45
2015 04 09 14 54 38 .60    -120     33    -42    125    132 285.5 -18.7  34078  288.20 0861.45
2015 04 09 14 54 38 .85    -109     43    -37    118    124 291.7 -17.6  34076  288.16 0861.45
2015 04 09 14 54 39 .10     -97     52    -22    111    114 298.4 -11.3  34060  287.87 0861.45
2015 04 09 14 54 39 .35     -93     59    -15    111    113 302.5  -7.7  34056  287.82 0861.45
2015 04 09 14 54 39 .60     -91     59     -4    109    110 303.3  -2.6  34062  287.91 0861.45
2015 04 09 14 54 39 .85     -84     61      6    105    106 306.0   3.3  34082  288.26 0861.45
2015 04 09 14 54 40 .10     -81     54    -19     98    100 303.7 -11.3  34078  288.18 0861.45
2015 04 09 14 54 40 .35     -74     52     10     91     92 305.5   6.5  34088  288.35 0861.45
2015 04 09 14 54 40 .60     -73     48     -9     88     89 303.3  -6.2  34078  288.18 0861.45
2015 04 09 14 54 40 .85     -76     48     -5     91     92 302.4  -3.7  34080  288.21 0861.45
2015 04 09 14 54 41 .12     -78     57     -1     97     98 306.4  -1.2  34084  288.30 0861.45
2015 04 09 14 54 41 .36     -70     45     -5     84     85 302.4  -3.7  34082  288.26 0861.45
2015 04 09 14 54 41 .62     -89     53    -13    104    105 300.7  -7.2  34086  288.31 0861.45
2015 04 09 14 54 41 .87     -80     51     -3     96     97 302.5  -1.8  34096  288.48 0861.45
2015 04 09 14 54 42 .11     -62     53     -3     82     83 310.4  -2.6  34110  288.72 0861.45
2015 04 09 14 54 42 .37     -87     32     -9     93     94 290.4  -5.6  34096  288.50 0861.45
2015 04 09 14 54 42 .62     -57     36     -6     68     69 302.4  -5.2  34098  288.53 0861.45
2015 04 09 14 54 42 .87     -39     35     -6     53     54 312.2  -7.3  34102  288.60 0861.45
2015 04 09 14 54 43 .12     -53     78    -10     95     96 325.7  -6.2  34106  288.67 0861.45
2015 04 09 14 54 43 .37     -66     82      5    106    107 321.3   2.9  34104  288.64 0861.45
2015 04 09 14 54 43 .62     -94     77    -10    122    123 309.5  -5.1  34084  288.30 0861.45
2015 04 09 14 54 43 .87     -97     73    -13    122    123 306.9  -6.2  34072  288.09 0861.45
2015 04 09 14 54 44 .12    -106     72    -15    129    130 304.2  -6.7  34078  288.18 0861.45
2015 04 09 14 54 44 .37     -91     64    -14    112    113 305.1  -7.3  34078  288.18 0861.45
2015 04 09 14 54 44 .62    -108     52    -16    120    122 295.8  -7.7  34076  288.16 0861.45
2015 04 09 14 54 44 .87    -109     77    -11    134    135 305.1  -5.1  34072  288.08 0861.45
2015 04 09 14 54 45 .13    -106     72    -15    129    130 304.2  -6.7  34068  288.01 0861.45
2015 04 09 14 54 45 .38     -77     76      3    109    110 314.6   1.8  34104  288.64 0861.45
2015 04 09 14 54 45 .63     -94     41     -1    103    104 293.5  -0.7  34096  288.50 0861.45
2015 04 09 14 54 45 .88    -125     59    -22    139    141 295.4  -9.3  34098  288.53 0861.45
2015 04 09 14 54 46 .13    -139     45    -24    147    149 288.2  -9.3  34104  288.64 0861.45
2015 04 09 14 54 46 .38     -36     68      2     78     79 331.9   1.8  34120  288.91 0861.45
2015 04 09 14 54 46 .63    -111     81    -13    138    139 306.4  -5.6  34108  288.69 0861.45
2015 04 09 14 54 46 .88    -117     63    -24    133    136 298.4 -10.3  34102  288.58 0861.45
2015 04 09 14 54 47 .13    -108     60    -11    124    125 299.3  -5.2  34122  288.92 0861.45
2015 04 09 14 54 47 .38     -85     60    -29    105    109 305.5 -15.5  34128  289.04 0861.45
2015 04 09 14 54 47 .63     -83     64    -29    106    110 307.8 -15.4  34136  289.18 0861.45
2015 04 09 14 54 47 .89     -80     20    -16     83     85 284.6 -10.9  34140  289.23 0861.45
2015 04 09 14 54 48 .14     -61     36      2     71     72 300.7   1.8  34152  289.45 0861.45
2015 04 09 14 54 48 .39     -60     -3     -7     61     62 266.5  -7.2  34172  289.79 0861.46
2015 04 09 14 54 48 .64     -43    -13    -13     46     47 252.3 -20.7  34182  289.94 0861.46
2015 04 09 14 54 48 .90      -4      0      7      5      8 281.5  56.4  34192  290.11 0861.46
2015 04 09 14 54 49 .14      22     -1     36     23     42  94.4  64.7  34222  290.62 0861.46
2015 04 09 14 54 49 .40      32     -8     32     34     46 105.1  50.0  34238  290.89 0861.45
2015 04 09 14 54 49 .64      -9      9     23     14     26 315.0  64.7  34244  291.01 0861.45
2015 04 09 14 54 49 .90     -27     17      5     32     33 302.4   9.0  34238  290.89 0861.45
2015 04 09 14 54 50 .15     -85    -13      2     86     87 261.2   1.8  34210  290.41 0861.45
2015 04 09 14 54 50 .40    -203     28    -42    205    210 277.9 -11.6  34132  289.09 0861.45
2015 04 09 14 54 50 .65    -222     30    -52    225    232 277.9 -13.2  34144  289.30 0861.45
2015 04 09 14 54 50 .90    -208     13    -55    209    217 273.7 -14.7  34148  289.36 0861.45
2015 04 09 14 54 51 .15    -178     19    -25    180    182 276.4  -8.0  34150  289.41 0861.46
2015 04 09 14 54 51 .40    -163     37    -25    168    170 282.8  -8.6  34148  289.36 0861.46
2015 04 09 14 54 51 .65    -164     58    -54    175    184 289.5 -17.3  34142  289.28 0861.46
2015 04 09 14 54 51 .90    -175     58    -42    185    190 288.4 -12.9  34138  289.19 0861.46
2015 04 09 14 54 52 .15    -195     14    -43    196    201 274.4 -12.6  34164  289.63 0861.46
2015 04 09 14 54 52 .40     -62    -37     50     73     88 239.3  37.6  34172  289.77 0861.46
2015 04 09 14 54 52 .65      -7     72     -4     73     74 353.8  -3.1  34180  289.91 0861.46
2015 04 09 14 54 52 .90     -98     53    -14    112    113 298.8  -7.3  34188  290.06 0861.45
2015 04 09 14 54 53 .15     -79     36    -17     88     90 294.8 -10.9  34184  289.97 0861.45
2015 04 09 14 54 53 .41    -154     36    -23    159    161 283.3  -8.2  34150  289.40 0861.45
2015 04 09 14 54 53 .65    -197     27    -17    199    200 278.0  -5.1  34116  288.82 0861.45
2015 04 09 14 54 53 .91    -217     80    -33    232    235 290.2  -8.3  34120  288.88 0861.45
2015 04 09 14 54 54 .16    -218     70    -27    230    232 287.9  -6.7  34118  288.87 0861.45
2015 04 09 14 54 54 .41    -172    -13    -12    173    174 265.7  -4.1  34118  288.87 0861.45
2015 04 09 14 54 54 .66    -174     35    -23    178    180 281.5  -7.5  34108  288.69 0861.46
2015 04 09 14 54 54 .92    -242     54    -42    249    253 282.6  -9.8  34080  288.22 0861.46
2015 04 09 14 54 55 .17    -233     78    -48    246    251 288.6 -11.1  34096  288.49 0861.46
2015 04 09 14 54 55 .42    -215     43    -28    220    222 281.5  -7.3  34094  288.47 0861.46
2015 04 09 14 54 55 .67    -180     45    -33    186    190 284.2 -10.3  34084  288.28 0861.46
2015 04 09 14 54 55 .92    -133      1    -22    134    136 270.8  -9.4  34124  288.96 0861.46
2015 04 09 14 54 56 .17    -195     92    -35    216    219 295.3  -9.3  34122  288.92 0861.46
2015 04 09 14 54 56 .42    -123     44      4    131    132 289.9   1.8  34148  289.36 0861.46
2015 04 09 14 54 56 .67       7    -33     30     34     45 166.6  46.9  34166  289.69 0861.45
2015 04 09 14 54 56 .92    -111     44    -46    120    128 291.8 -26.4  34144  289.31 0861.45
2015 04 09 14 54 57 .17    -152     29    -37    155    160 281.0 -13.7  34148  289.38 0861.45
2015 04 09 14 54 57 .42    -123    -60    -38    138    144 243.8 -15.4  34140  289.24 0861.45
2015 04 09 14 54 57 .67     -68     41      2     80     81 301.1   1.8  34158  289.55 0861.45
2015 04 09 14 54 57 .93    -312     55    -37    317    320 280.1  -6.8  34074  288.10 0861.45
2015 04 09 14 54 58 .18    -263     57    -24    270    272 282.3  -5.2  34088  288.36 0861.45
2015 04 09 14 54 58 .43    -243     45    -27    248    250 280.5  -6.2  34064  287.93 0861.45
2015 04 09 14 54 58 .68    -228     31    -41    231    235 277.9 -10.3  34072  288.07 0861.45
2015 04 09 14 54 58 .93    -196    -54    -28    204    207 254.5  -8.0  34072  288.09 0861.45
2015 04 09 14 54 59 .18      13      5     33     15     36  68.3  73.1  34084  288.30 0861.45
2015 04 09 14 54 59 .43    -186    -44    -40    192    197 256.7 -11.9  34088  288.36 0861.45
2015 04 09 14 54 59 .68    -213     13    -11    214    215 273.7  -3.1  34064  287.94 0861.45
2015 04 09 14 54 59 .93    -333     39    -82    336    346 276.8 -13.8  34054  287.79 0861.45
2015 04 09 14 55 00 .18    -324      0    -81    325    335 270.0 -14.1  34056  287.81 0861.45
2015 04 09 14 55 00 .43    -250     -1    -81    251    264 269.6 -18.1  34062  287.90 0861.45
2015 04 09 14 55 00 .68    -195      2    -35    196    200 270.8 -10.1  34070  288.04 0861.45
2015 04 09 14 55 00 .93     -75     48     21     90     93 302.9  13.2  34092  288.43 0861.45
2015 04 09 14 55 01 .18     -30     49     39     58     69 328.4  36.5  34096  288.50 0861.46
2015 04 09 14 55 01 .43     -65      9      8     66     67 277.9   6.9  34080  288.21 0861.46
2015 04 09 14 55 01 .69     -77     12    -22     79     83 279.2 -16.0  34084  288.28 0861.46
2015 04 09 14 55 01 .95    -243    -13    -35    244    247 266.7  -8.2  34078  288.19 0861.46
2015 04 09 14 55 02 .19    -288     48    -48    293    297 279.6  -9.3  34102  288.59 0861.46
2015 04 09 14 55 02 .45    -298     57    -44    304    308 281.0  -8.4  34112  288.76 0861.46
2015 04 09 14 55 02 .70    -309     62    -26    316    318 281.5  -4.8  34114  288.78 0861.46
2015 04 09 14 55 02 .95    -353     95    -47    366    369 285.1  -7.4  34092  288.42 0861.45
2015 04 09 14 55 03 .20    -202     28    -24    204    206 277.9  -6.7  34112  288.77 0861.45
2015 04 09 14 55 03 .45    -280     56    -47    286    290 281.4  -9.3  34116  288.83 0861.45
2015 04 09 14 55 03 .70    -332    -25    -53    333    338 265.7  -9.1  34076  288.16 0861.45
2015 04 09 14 55 03 .95    -352     12    -45    353    356 272.0  -7.3  34152  289.42 0861.45
2015 04 09 14 55 04 .20    -332     21    -48    333    337 273.7  -8.2  34220  290.59 0861.45
2015 04 09 14 55 04 .45    -202    -34    -31    205    208 260.3  -8.6  34232  290.81 0861.45
2015 04 09 14 55 04 .70    -390     32   -101    392    405 274.8 -14.5  34044  287.61 0861.45
2015 04 09 14 55 04 .96    -358     43    -63    361    367 276.9  -9.9  34120  288.89 0861.45
2015 04 09 14 55 05 .20    -105    -39     35    113    119 249.6  17.4  34186  290.01 0861.45
2015 04 09 14 55 05 .45    -224     45      0    229    230 281.5   0.0  34208  290.38 0861.45
2015 04 09 14 55 05 .70    -275     52    -46    280    284 280.8  -9.3  34258  291.22 0861.45
2015 04 09 14 55 05 .95    -309     24    -77    311    321 274.6 -13.9  34048  287.68 0861.45
2015 04 09 14 55 06 .20    -281     17    -57    282    288 273.5 -11.5  34042  287.58 0861.45
2015 04 09 14 55 06 .46    -263     -4     -1    264    265 269.0  -0.3  34072  288.07 0861.45
2015 04 09 14 55 06 .71    -301    -24    -67    302    310 265.4 -12.5  34064  287.93 0861.45
2015 04 09 14 55 06 .96    -142    -38    -25    148    151 255.0  -9.8  34084  288.30 0861.45
2015 04 09 14 55 07 .21    -280   -101    -77    298    308 250.1 -14.6  34060  287.88 0861.45
2015 04 09 14 55 07 .46    -270    -75    -87    281    295 254.3 -17.3  34050  287.71 0861.45
2015 04 09 14 55 07 .71    -287    -58    -93    293    308 258.6 -17.7  34058  287.85 0861.45
2015 04 09 14 55 07 .96    -322   -108    -71    340    348 251.4 -11.9  34056  287.81 0861.45
2015 04 09 14 55 08 .21    -313   -120    -50    336    340 248.9  -8.6  34066  287.98 0861.45
2015 04 09 14 55 08 .46    -323   -182    -52    371    375 240.6  -8.0  34088  288.35 0861.45
2015 04 09 14 55 08 .71    -306   -215    -14    374    375 234.9  -2.2  34090  288.40 0861.45
2015 04 09 14 55 08 .97    -234   -219     25    321    323 226.9   4.5  34098  288.53 0861.45
2015 04 09 14 55 09 .22    -269   -171    -12    320    321 237.5  -2.2  34068  288.00 0861.46
2015 04 09 14 55 09 .47    -274   -214     14    348    349 232.0   2.4  34064  287.94 0861.46
2015 04 09 14 55 09 .72    -296   -178    -16    346    347 238.9  -2.7  34066  287.98 0861.46
2015 04 09 14 55 09 .97    -322   -201    -21    380    381 238.0  -3.2  34066  287.98 0861.46
2015 04 09 14 55 10 .22    -304   -220     -7    376    377 234.1  -1.2  34068  288.01 0861.45
2015 04 09 14 55 10 .48    -330   -216    -17    395    396 236.8  -2.5  34088  288.35 0861.45
2015 04 09 14 55 10 .73    -342   -160    -48    378    382 245.0  -7.4  34096  288.49 0861.45
2015 04 09 14 55 10 .97    -344   -122    -52    366    370 250.5  -8.1  34100  288.57 0861.45
2015 04 09 14 55 11 .23    -252   -204     13    325    326 231.1   2.4  34100  288.54 0861.45
2015 04 09 14 55 11 .48    -266   -152    -32    307    309 240.2  -6.1  34094  288.44 0861.45
2015 04 09 14 55 11 .73    -210    -16    -46    211    217 265.6 -12.4  34114  288.80 0861.45
2015 04 09 14 55 11 .98    -228     19    -32    229    232 275.0  -8.0  34128  289.02 0861.44
2015 04 09 14 55 12 .23    -170     13    -23    171    173 274.4  -7.7  34148  289.38 0861.44
2015 04 09 14 55 12 .48    -335     51    -73    339    347 278.7 -12.2  34114  288.79 0861.44
2015 04 09 14 55 12 .73    -333     76    -39    342    345 283.0  -6.6  34120  288.89 0861.44
2015 04 09 14 55 12 .98    -302     84    -40    314    317 285.7  -7.3  34122  288.92 0861.44
2015 04 09 14 55 13 .23    -284    135    -61    315    321 295.4 -11.0  34134  289.14 0861.44
2015 04 09 14 55 13 .48    -223     45    -28    228    230 281.5  -7.2  34124  288.97 0861.44
2015 04 09 14 55 13 .73    -294     62    -54    301    306 281.9 -10.3  34132  289.09 0861.44
2015 04 09 14 55 13 .98    -315     76    -41    325    328 283.7  -7.2  34132  289.09 0861.44
2015 04 09 14 55 14 .23    -240     60    -27    248    250 284.2  -6.2  34136  289.17 0861.44
2015 04 09 14 55 14 .48    -237     78    -27    250    252 288.2  -6.2  34122  288.92 0861.44
2015 04 09 14 55 14 .73    -289    127    -64    316    323 293.7 -11.6  34140  289.24 0861.44
2015 04 09 14 55 14 .98    -241    123    -43    271    275 297.0  -9.0  34140  289.22 0861.44
2015 04 09 14 55 15 .23    -174     55      7    183    184 287.7   2.3  34120  288.89 0861.44
2015 04 09 14 55 15 .49    -163     42      2    169    170 284.4   1.0  34150  289.40 0861.44
2015 04 09 14 55 15 .75    -204    112    -25    233    235 298.9  -6.2  34160  289.56 0861.44
2015 04 09 14 55 16 .00    -209    119    -61    241    249 299.8 -14.4  34178  289.86 0861.44
2015 04 09 14 55 16 .25    -184     95    -21    208    210 297.3  -6.0  34202  290.30 0861.44
2015 04 09 14 55 16 .50     -67     28     21     73     77 292.6  16.3  34234  290.82 0861.44
2015 04 09 14 55 16 .75     -39    -16     15     43     46 247.4  19.2  34244  290.99 0861.44
2015 04 09 14 55 17 .00     -65   -117    -15    134    135 209.0  -6.7  34164  289.65 0861.44
2015 04 09 14 55 17 .25     -23     86    120     90    150 344.9  59.4  34220  290.60 0861.44
2015 04 09 14 55 17 .50     -51    -12     36     53     64 255.8  37.6  34212  290.47 0861.44
2015 04 09 14 55 17 .75    -163    -52    -60    172    183 252.1 -19.4  34174  289.82 0861.44
2015 04 09 14 55 18 .00     -90    -47    -28    102    106 242.0 -15.4  34172  289.77 0861.44
2015 04 09 14 55 18 .25      -9    -29     43     31     53 198.5  60.5  34150  289.41 0861.43
2015 04 09 14 55 18 .50    -147     95    -16    176    177 302.9  -5.4  34126  288.99 0861.43
2015 04 09 14 55 18 .75    -309     23    -65    310    317 274.4 -12.0  34042  287.56 0861.43
2015 04 09 14 55 19 .00    -333     29    -78    335    344 275.1 -13.1  34036  287.49 0861.43
2015 04 09 14 55 19 .25    -319      8    -74    320    329 271.5 -13.2  34046  287.63 0861.43
2015 04 09 14 55 19 .50    -322     24    -76    323    332 274.3 -13.3  34036  287.49 0861.43
2015 04 09 14 55 19 .75    -310     23    -80    311    322 274.3 -14.5  34036  287.48 0861.43
2015 04 09 14 55 20 .01    -291      8    -59    292    299 271.7 -11.6  34038  287.51 0861.43
2015 04 09 14 55 20 .26    -288     -9    -79    289    300 268.1 -15.4  34084  288.27 0861.43
2015 04 09 14 55 20 .51    -248    -48    -50    253    259 259.0 -11.3  34082  288.26 0861.43
2015 04 09 14 55 20 .76    -176      8    -25    177    179 272.8  -8.2  34126  288.99 0861.43
2015 04 09 14 55 21 .01    -144     12    -18    145    147 274.8  -7.3  34140  289.24 0861.43
2015 04 09 14 55 21 .26    -181     36    -23    185    187 281.4  -7.3  34126  289.01 0861.43
2015 04 09 14 55 21 .51    -250     63    -52    258    264 284.2 -11.6  34102  288.59 0861.43
2015 04 09 14 55 21 .76    -219     52    -29    226    228 283.5  -7.3  34100  288.55 0861.43
2015 04 09 14 55 22 .01    -197     64    -34    208    211 287.9  -9.4  34096  288.48 0861.43
2015 04 09 14 55 22 .26    -165     32    -21    169    171 281.0  -7.3  34100  288.57 0861.43
2015 04 09 14 55 22 .51    -191     37    -20    195    197 281.2  -6.0  34104  288.64 0861.43
2015 04 09 14 55 22 .77    -207      4    -26    208    210 271.3  -7.3  34142  289.26 0861.43
2015 04 09 14 55 23 .02    -215     18    -24    216    218 275.0  -6.5  34148  289.36 0861.43
2015 04 09 14 55 23 .27    -210     36     -7    214    215 279.7  -2.1  34086  288.31 0861.43
2015 04 09 14 55 23 .52    -235     55    -53    242    248 283.3 -12.4  34052  287.75 0861.43
2015 04 09 14 55 23 .78    -220     41    -38    224    228 280.6  -9.8  34068  288.03 0861.44
2015 04 09 14 55 24 .02    -187     36    -16    191    192 281.0  -4.9  34080  288.21 0861.44
2015 04 09 14 55 24 .28    -211     24    -35    213    216 276.6  -9.3  34066  287.98 0861.44
2015 04 09 14 55 24 .53    -166    -13    -15    167    168 265.2  -5.2  34080  288.23 0861.44
2015 04 09 14 55 24 .78    -214     57    -20    222    224 285.1  -5.4  34126  289.01 0861.44
2015 04 09 14 55 25 .02    -195     86     -8    214    215 293.7  -2.3  34132  289.09 0861.44
2015 04 09 14 55 25 .28    -202     72    -35    215    218 289.7  -9.3  34118  288.87 0861.44
2015 04 09 14 55 25 .53    -182     70    -35    196    200 291.1 -10.1  34140  289.23 0861.44
2015 04 09 14 55 25 .77    -179     48    -23    186    188 285.1  -7.2  34118  288.87 0861.44
2015 04 09 14 55 26 .03    -196     51    -45    203    209 284.8 -12.6  34068  288.01 0861.44
2015 04 09 14 55 26 .28    -126     51     -2    137    138 292.2  -1.2  34138  289.19 0861.44
2015 04 09 14 55 26 .53    -131     -1    -20    132    134 269.2  -8.8  34128  289.04 0861.44
2015 04 09 14 55 26 .78     -66     43     21     80     83 303.3  15.3  34140  289.24 0861.44
2015 04 09 14 55 27 .04    -145    -51    -54    154    164 250.5 -19.4  34124  288.96 0861.44
2015 04 09 14 55 27 .28     -30     53      0     62     63 330.1   0.8  34144  289.31 0861.44
2015 04 09 14 55 27 .53    -120    -38    -24    126    129 252.3 -10.9  34112  288.75 0861.44
2015 04 09 14 55 27 .79    -142     56    -26    153    156 291.7  -9.8  34096  288.50 0861.44
2015 04 09 14 55 28 .03    -145     76     -6    164    165 297.8  -2.2  34100  288.55 0861.44
2015 04 09 14 55 28 .28    -223     48    -37    229    233 282.2  -9.3  34092  288.43 0861.43
2015 04 09 14 55 28 .53    -252    112    -37    276    279 294.0  -7.7  34088  288.34 0861.43
2015 04 09 14 55 28 .79    -266    150    -46    306    310 299.5  -8.6  34076  288.15 0861.43
2015 04 09 14 55 29 .04    -294    158    -55    334    339 298.3  -9.5  34110  288.72 0861.43
2015 04 09 14 55 29 .29    -262    135    -26    295    297 297.3  -5.2  34118  288.85 0861.43
2015 04 09 14 55 29 .54    -268    164    -48    315    319 301.5  -8.8  34110  288.71 0861.43
2015 04 09 14 55 29 .80    -231    190    -17    300    301 309.5  -3.3  34116  288.83 0861.43
2015 04 09 14 55 30 .05    -227    144    -30    269    271 302.4  -6.5  34112  288.76 0861.43
2015 04 09 14 55 30 .30    -178    200    -34    269    272 318.3  -7.2  34146  289.34 0861.43
2015 04 09 14 55 30 .55     -89    131    -11    159    160 325.7  -4.1  34148  289.36 0861.43
2015 04 09 14 55 30 .80    -165    143    -44    219    224 310.9 -11.5  34158  289.53 0861.43
2015 04 09 14 55 31 .05    -163     87    -37    186    190 298.2 -11.5  34128  289.04 0861.43
2015 04 09 14 55 31 .30     -99    122    -55    158    167 320.8 -23.8  34136  289.16 0861.43
2015 04 09 14 55 31 .55     -83     64    -29    106    110 307.8 -15.4  34126  289.01 0861.43
2015 04 09 14 55 31 .80     -94     77     10    122    123 309.5   4.9  34120  288.91 0861.43
2015 04 09 14 55 32 .05    -123     75    -46    145    153 301.5 -17.6  34116  288.84 0861.43
2015 04 09 14 55 32 .30     -57     47    -36     74     82 309.5 -32.2  34110  288.72 0861.43
2015 04 09 14 55 32 .55     -37     38     -2     54     55 315.8  -2.2  34124  288.96 0861.43
2015 04 09 14 55 32 .81    -120     88     -8    150    151 306.4  -3.1  34124  288.96 0861.43
2015 04 09 14 55 33 .06    -198     53    -43    206    211 285.1 -11.9  34110  288.74 0861.43
2015 04 09 14 55 33 .31    -149     55    -15    160    161 290.4  -5.6  34120  288.89 0861.43
2015 04 09 14 55 33 .56    -161     42     -6    167    168 284.8  -2.1  34122  288.94 0861.43
2015 04 09 14 55 33 .81    -176     13    -15    177    178 274.4  -4.9  34124  288.96 0861.43
2015 04 09 14 55 34 .06    -146     67    -15    161    162 294.8  -5.4  34120  288.91 0861.43
2015 04 09 14 55 34 .31    -149     32      4    153    154 282.4   1.8  34120  288.91 0861.43
2015 04 09 14 55 34 .56     -91     49      5    104    105 298.4   2.9  34124  288.96 0861.43
2015 04 09 14 55 34 .81    -168     40     -6    173    174 283.7  -2.2  34096  288.50 0861.42
2015 04 09 14 55 35 .06    -119     70     17    139    141 300.6   7.1  34090  288.40 0861.42
2015 04 09 14 55 35 .31    -171     45    -16    177    178 284.8  -5.4  34070  288.06 0861.42
2015 04 09 14 55 35 .56    -181     63    -14    192    193 289.3  -4.4  34076  288.16 0861.42
2015 04 09 14 55 35 .81    -149     54    -12    159    160 289.9  -4.4  34078  288.18 0861.42
2015 04 09 14 55 36 .06     -88     50    -19    102    104 299.8 -10.9  34074  288.13 0861.42
2015 04 09 14 55 36 .31     -90     -8    -31     91     97 264.8 -18.7  34088  288.36 0861.42
2015 04 09 14 55 36 .57    -115     68    -19    134    136 300.6  -8.2  34094  288.45 0861.42
2015 04 09 14 55 36 .83    -225    165    -15    280    281 306.2  -3.1  34100  288.54 0861.42
2015 04 09 14 55 37 .07    -207    176    -15    273    274 310.4  -3.2  34098  288.51 0861.42
2015 04 09 14 55 37 .33    -229    174     -5    288    289 307.3  -1.2  34118  288.87 0861.42
2015 04 09 14 55 37 .58    -220    174    -10    281    282 308.4  -2.2  34124  288.97 0861.42
2015 04 09 14 55 37 .83    -246     99    -23    266    268 292.0  -5.1  34126  288.98 0861.42
2015 04 09 14 55 38 .08    -219    135    -32    258    261 301.6  -7.2  34118  288.87 0861.42
2015 04 09 14 55 38 .33    -195    138     -2    239    240 305.3  -0.7  34128  289.03 0861.42
2015 04 09 14 55 38 .58    -211    175    -13    275    276 309.6  -2.8  34134  289.14 0861.42
2015 04 09 14 55 38 .83    -228    113    -70    255    265 296.4 -15.4  34080  288.22 0861.42
2015 04 09 14 55 39 .08    -213    121    -68    246    256 299.7 -15.5  34078  288.17 0861.42
2015 04 09 14 55 39 .33    -216     98    -52    238    244 294.4 -12.4  34100  288.54 0861.42
2015 04 09 14 55 39 .58    -229    109    -51    254    260 295.5 -11.3  34108  288.68 0861.42
2015 04 09 14 55 39 .83    -212     83    -38    228    232 291.5  -9.6  34116  288.82 0861.42
2015 04 09 14 55 40 .08    -208     18    -55    209    217 275.0 -14.7  34128  289.04 0861.42
2015 04 09 14 55 40 .33    -210     64    -24    220    222 286.9  -6.2  34132  289.09 0861.42
2015 04 09 14 55 40 .58    -215     68    -25    226    228 287.5  -6.5  34136  289.16 0861.42
2015 04 09 14 55 40 .83    -169     54    -18    178    179 287.9  -6.0  34142  289.26 0861.42
2015 04 09 14 55 41 .08    -245     41    -35    249    252 279.6  -8.0  34126  289.00 0861.42
2015 04 09 14 55 41 .34    -256     75    -61    267    274 286.4 -12.9  34082  288.24 0861.42
2015 04 09 14 55 41 .59    -230     73    -27    242    244 287.7  -6.5  34090  288.37 0861.42
2015 04 09 14 55 41 .84    -232     77    -23    245    247 288.4  -5.4  34098  288.51 0861.42
2015 04 09 14 55 42 .09    -179     71    -23    193    195 291.8  -6.9  34128  289.04 0861.42
2015 04 09 14 55 42 .33    -190     71    -40    203    208 290.6 -11.3  34088  288.36 0861.42
2015 04 09 14 55 42 .59    -155     95    -21    182    184 301.5  -6.7  34092  288.43 0861.42
2015 04 09 14 55 42 .84    -178     99    -13    204    205 299.1  -3.7  34088  288.35 0861.41
2015 04 09 14 55 43 .09    -185     65    -28    197    200 289.5  -8.2  34060  287.89 0861.41
2015 04 09 14 55 43 .34    -157     21     -7    159    160 277.9  -2.8  34076  288.16 0861.41
2015 04 09 14 55 43 .60    -122     40      6    129    130 288.2   2.9  34088  288.36 0861.41
2015 04 09 14 55 43 .85    -123     59     -9    137    138 295.8  -4.1  34084  288.30 0861.41
2015 04 09 14 55 44 .10     -71     23     -4     75     76 288.2  -3.1  34088  288.35 0861.41
2015 04 09 14 55 44 .35    -161     29    -27    164    167 280.4  -9.3  34068  288.03 0861.41
2015 04 09 14 55 44 .60    -200     65    -31    211    214 288.2  -8.6  34064  287.94 0861.41
2015 04 09 14 55 44 .85    -148     72    -30    165    168 296.0 -10.5  34074  288.13 0861.41
2015 04 09 14 55 45 .10    -159     43    -22    165    167 285.3  -7.7  34070  288.06 0861.41
2015 04 09 14 55 45 .35    -185     44    -29    191    194 283.5  -8.8  34066  287.99 0861.41
2015 04 09 14 55 45 .61    -130     33     -5    135    136 284.2  -2.2  34080  288.21 0861.41
2015 04 09 14 55 45 .86     -71     21      5     75     76 286.8   3.8  34090  288.38 0861.41
2015 04 09 14 55 46 .10       4    -12     21     13     24 161.7  64.7  34106  288.65 0861.41
2015 04 09 14 55 46 .35     -19    -14      0     24     25 234.0  -2.2  34118  288.86 0861.41
2015 04 09 14 55 46 .61    -108    -22    -29    111    115 258.6 -15.0  34162  289.60 0861.41
2015 04 09 14 55 46 .86     -32     21     16     39     42 304.2  23.0  34150  289.41 0861.41
2015 04 09 14 55 47 .11       3     11     -1     12     13  18.7  -7.3  34148  289.36 0861.41
2015 04 09 14 55 47 .36      -1     26     -1     27     28 357.3  -3.1  34144  289.30 0861.41
2015 04 09 14 55 47 .61     -50     19    -16     54     56 290.8 -22.8  34152  289.43 0861.41
2015 04 09 14 55 47 .86      -1      8     39      9     40 348.4  88.0  34168  289.72 0861.41
2015 04 09 14 55 48 .11      29    -14     31     33     45 115.2  49.0  34188  290.06 0861.41
2015 04 09 14 55 48 .36     -22    -47     18     53     57 205.4  19.2  34206  290.35 0861.41
2015 04 09 14 55 48 .61     -29    -29     25     42     48 225.0  34.4  34204  290.33 0861.41
2015 04 09 14 55 48 .86     -53    -34     79     64    101 237.5  56.4  34240  290.92 0861.41
2015 04 09 14 55 49 .11     -25     22     27     34     43 311.3  42.7  34258  291.23 0861.41
2015 04 09 14 55 49 .36     -31     37     57     49     75 320.4  55.4  34272  291.47 0861.41
2015 04 09 14 55 49 .61    -138     28    -39    141    147 281.5 -15.4  34240  290.94 0861.41
2015 04 09 14 55 49 .86    -215     38    -23    219    221 280.1  -6.2  34226  290.70 0861.41
2015 04 09 14 55 50 .12    -115    -73     11    137    138 237.5   5.0  34236  290.87 0861.41
2015 04 09 14 55 50 .36     -59    -63    -14     87     89 222.8  -9.3  34208  290.38 0861.41
2015 04 09 14 55 50 .62    -226    -17    -54    227    234 265.7 -13.4  34158  289.53 0861.41
2015 04 09 14 55 50 .87    -222    -12    -25    223    225 266.7  -6.5  34126  288.99 0861.41
2015 04 09 14 55 51 .13    -155     -2    -18    156    158 269.1  -6.9  34132  289.11 0861.41
2015 04 09 14 55 51 .37     -34     30     18     46     49 311.3  22.0  34136  289.18 0861.41
2015 04 09 14 55 51 .63    -236    -25    -43    238    242 263.9 -10.3  34116  288.81 0861.41
2015 04 09 14 55 51 .88    -243     42    -50    247    253 279.9 -11.6  34080  288.22 0861.41
2015 04 09 14 55 52 .13    -238      2    -52    239    245 270.6 -12.4  34090  288.39 0861.41
2015 04 09 14 55 52 .38    -249     31    -32    251    254 277.2  -7.3  34078  288.17 0861.41
2015 04 09 14 55 52 .63    -304     55    -62    310    317 280.4 -11.3  34064  287.93 0861.41
2015 04 09 14 55 52 .88    -307     43    -65    311    318 278.0 -11.9  34090  288.37 0861.41
2015 04 09 14 55 53 .13    -257      3    -46    258    263 270.8 -10.1  34076  288.14 0861.41
2015 04 09 14 55 53 .38    -160     16    -38    161    166 275.9 -13.4  34100  288.57 0861.41
2015 04 09 14 55 53 .63      -8    -36     43     38     57 193.4  53.3  34112  288.77 0861.41
2015 04 09 14 55 53 .88    -201   -104    -46    227    232 242.7 -11.6  34130  289.08 0861.40
2015 04 09 14 55 54 .13    -243    -61    -43    251    255 255.9  -9.8  34150  289.41 0861.40
2015 04 09 14 55 54 .38    -199     15    -21    200    202 274.4  -6.2  34164  289.65 0861.40
2015 04 09 14 55 54 .64    -197    -22    -15    199    200 263.6  -4.6  34156  289.50 0861.40
2015 04 09 14 55 54 .89    -158     -8    -50    159    167 267.0 -17.6  34158  289.55 0861.40
2015 04 09 14 55 55 .14    -110      5    -14    111    112 272.6  -7.3  34174  289.80 0861.40
2015 04 09 14 55 55 .39     -13    -27     10     31     33 205.5  18.9  34176  289.84 0861.40
2015 04 09 14 55 55 .64    -126    -60      7    140    141 244.6   2.9  34192  290.11 0861.40
2015 04 09 14 55 55 .89    -246   -178    -48    304    308 234.0  -9.0  34094  288.46 0861.40
2015 04 09 14 55 56 .14    -230   -203     -8    307    308 228.6  -1.6  34250  291.10 0861.40
2015 04 09 14 55 56 .39    -225   -137    -27    264    266 238.7  -6.0  34164  289.64 0861.40
2015 04 09 14 55 56 .64    -305   -150    -54    341    346 243.8  -9.0  34070  288.05 0861.40
2015 04 09 14 55 56 .89    -189    -40    -42    194    199 257.8 -12.4  34104  288.62 0861.40
2015 04 09 14 55 57 .14    -186    -25    -29    188    191 262.3  -9.0  34108  288.70 0861.40
2015 04 09 14 55 57 .39    -217    -53    -54    224    231 256.1 -13.7  34102  288.60 0861.40
2015 04 09 14 55 57 .65    -277    -46    -40    281    284 260.5  -8.2  34092  288.43 0861.40
2015 04 09 14 55 57 .90    -339    -85    -70    350    357 255.8 -11.3  34054  287.79 0861.40
2015 04 09 14 55 58 .16    -322    -74    -74    331    340 257.0 -12.7  34064  287.96 0861.40
2015 04 09 14 55 58 .40    -311    -95    -49    326    330 252.9  -8.6  34048  287.66 0861.40
2015 04 09 14 55 58 .65    -287    -82    -55    299    305 254.0 -10.5  34046  287.65 0861.40
2015 04 09 14 55 58 .90    -263    -68    -62    272    280 255.4 -12.9  34048  287.66 0861.40
2015 04 09 14 55 59 .15    -259    -73    -54    270    276 254.1 -11.3  34050  287.70 0861.40
2015 04 09 14 55 59 .40    -238    -77    -45    251    256 252.1 -10.3  34060  287.88 0861.40
2015 04 09 14 55 59 .66    -224    -90    -44    242    247 248.0 -10.4  34072  288.09 0861.40
2015 04 09 14 55 59 .90    -230   -105    -41    253    257 245.4  -9.3  34144  289.29 0861.40
2015 04 09 14 56 00 .15    -237   -117    -34    265    268 243.8  -7.3  34128  289.03 0861.40
2015 04 09 14 56 00 .41    -249   -114    -42    274    278 245.4  -8.8  34064  287.93 0861.40
2015 04 09 14 56 00 .66    -238   -139    -38    276    279 239.6  -8.0  34068  288.00 0861.40
2015 04 09 14 56 00 .91    -245   -115    -36    271    274 244.7  -7.7  34094  288.46 0861.40
2015 04 09 14 56 01 .16    -230   -108    -34    255    258 244.9  -7.7  34066  287.99 0861.40
2015 04 09 14 56 01 .41    -216   -106    -42    241    245 243.8 -10.1  34072  288.07 0861.40
2015 04 09 14 56 01 .66    -220   -118    -29    250    252 241.8  -6.7  34108  288.70 0861.40
2015 04 09 14 56 01 .91    -215   -126    -31    250    252 239.6  -7.2  34094  288.46 0861.40
2015 04 09 14 56 02 .16    -223   -111    -44    250    254 243.6 -10.1  34084  288.27 0861.40
2015 04 09 14 56 02 .41    -179   -110    -24    211    213 238.5  -6.7  34078  288.18 0861.40
2015 04 09 14 56 02 .66    -185   -122    -10    222    223 236.5  -2.6  34078  288.18 0861.40
2015 04 09 14 56 02 .92    -197   -133     -9    238    239 236.0  -2.2  34112  288.76 0861.40
2015 04 09 14 56 03 .16    -214   -134     -9    253    254 238.0  -2.1  34110  288.71 0861.40
2015 04 09 14 56 03 .41    -231   -123    -33    262    265 242.0  -7.3  34064  287.95 0861.40
2015 04 09 14 56 03 .66    -210   -115    -32    240    243 241.1  -7.7  34070  288.05 0861.40
2015 04 09 14 56 03 .91    -237   -141    -31    276    278 239.3  -6.5  34054  287.77 0861.39
2015 04 09 14 56 04 .16    -238   -142    -33    278    281 239.3  -6.9  34046  287.63 0861.39
2015 04 09 14 56 04 .42    -238   -131    -38    272    275 241.2  -8.0  34046  287.65 0861.39
2015 04 09 14 56 04 .68    -217   -131    -16    254    255 238.7  -3.7  34046  287.63 0861.39
2015 04 09 14 56 04 .93    -213   -135    -13    253    254 237.6  -3.1  34050  287.71 0861.39
2015 04 09 14 56 05 .18    -204   -158    -12    259    260 232.2  -2.8  34050  287.70 0861.39
2015 04 09 14 56 05 .43    -198   -157     -2    253    254 231.6  -0.5  34048  287.66 0861.39
2015 04 09 14 56 05 .68    -196   -164      5    256    257 230.0   1.2  34058  287.85 0861.39
2015 04 09 14 56 05 .93    -228   -150    -15    274    275 236.7  -3.2  34048  287.66 0861.39
2015 04 09 14 56 06 .18    -269   -152    -36    310    313 240.5  -6.7  34070  288.05 0861.39
2015 04 09 14 56 06 .43    -293   -138    -47    324    328 244.8  -8.4  34054  287.78 0861.39
2015 04 09 14 56 06 .68    -274   -147    -57    312    318 241.8 -10.5  34050  287.71 0861.39
2015 04 09 14 56 06 .93    -275   -148    -44    313    317 241.8  -8.0  34058  287.83 0861.39
2015 04 09 14 56 07 .18    -256   -167    -26    306    308 236.9  -4.9  34052  287.75 0861.39
2015 04 09 14 56 07 .43    -247   -178    -11    305    306 234.1  -2.2  34064  287.95 0861.39
2015 04 09 14 56 07 .68    -257   -158    -21    302    303 238.4  -4.1  34054  287.78 0861.39
2015 04 09 14 56 07 .93    -247   -147    -26    288    290 239.1  -5.2  34050  287.71 0861.39
2015 04 09 14 56 08 .19    -236   -155    -15    283    284 236.7  -3.2  34054  287.77 0861.39
2015 04 09 14 56 08 .44    -227   -176    -11    288    289 232.3  -2.2  34072  288.07 0861.39
2015 04 09 14 56 08 .68    -226   -159     -5    277    278 234.9  -1.1  34074  288.10 0861.39
2015 04 09 14 56 08 .93    -241   -169    -11    295    296 234.9  -2.3  34044  287.61 0861.39
2015 04 09 14 56 09 .19    -245   -156    -26    291    293 237.5  -5.2  34048  287.66 0861.39
2015 04 09 14 56 09 .44    -255   -140    -52    291    296 241.2 -10.3  34054  287.77 0861.39
2015 04 09 14 56 09 .69    -230   -141    -34    270    273 238.5  -7.3  34058  287.85 0861.39
2015 04 09 14 56 09 .94    -215   -136    -42    255    259 237.5  -9.3  34044  287.61 0861.39
2015 04 09 14 56 10 .19    -189   -120    -62    225    234 237.5 -15.4  34046  287.65 0861.39
2015 04 09 14 56 10 .44    -169    -94    -61    194    204 240.9 -17.6  34048  287.67 0861.39
2015 04 09 14 56 10 .69    -186   -104    -31    214    217 240.7  -8.2  34044  287.62 0861.39
2015 04 09 14 56 10 .94    -176   -119    -15    213    214 236.0  -4.1  34044  287.60 0861.39
2015 04 09 14 56 11 .19    -160   -125    -11    204    205 232.0  -3.1  34042  287.57 0861.39
2015 04 09 14 56 11 .45    -166   -121    -13    206    207 233.8  -3.7  34040  287.55 0861.39
2015 04 09 14 56 11 .70    -154   -112    -24    191    193 233.8  -7.3  34042  287.59 0861.39
2015 04 09 14 56 11 .95    -143   -102    -27    176    179 234.5  -9.0  34044  287.60 0861.38
2015 04 09 14 56 12 .20    -138   -112    -18    178    179 230.9  -6.0  34044  287.60 0861.38
2015 04 09 14 56 12 .45    -127   -115     -9    172    173 228.0  -3.3  34048  287.69 0861.38
2015 04 09 14 56 12 .70    -131   -110    -21    172    174 229.8  -7.2  34044  287.62 0861.38
2015 04 09 14 56 12 .95    -134   -111    -11    175    176 230.4  -3.7  34046  287.64 0861.38
2015 04 09 14 56 13 .20    -116   -109    -18    160    162 226.8  -6.7  34044  287.62 0861.38
2015 04 09 14 56 13 .46    -127    -98    -20    161    163 232.2  -7.2  34044  287.62 0861.38
2015 04 09 14 56 13 .71    -135   -107    -22    173    175 231.4  -7.3  34044  287.60 0861.38
2015 04 09 14 56 13 .96    -134   -115    -15    177    178 229.3  -4.9  34042  287.57 0861.38
2015 04 09 14 56 14 .21    -125   -107    -28    165    168 229.3  -9.6  34042  287.59 0861.38
2015 04 09 14 56 14 .46    -120   -100    -27    157    160 230.0  -9.8  34044  287.60 0861.38
2015 04 09 14 56 14 .71    -119    -98    -22    155    157 230.5  -8.2  34042  287.59 0861.38
2015 04 09 14 56 14 .96    -128    -97    -29    161    164 232.7 -10.3  34044  287.62 0861.38
2015 04 09 14 56 15 .21    -119    -94    -19    152    154 231.8  -7.2  34044  287.62 0861.38
2015 04 09 14 56 15 .46    -124   -102    -15    161    162 230.5  -5.6  34048  287.69 0861.38
2015 04 09 14 56 15 .72    -120   -107    -14    161    162 228.2  -5.2  34108  288.70 0861.38
2015 04 09 14 56 15 .96    -129   -111     -6    171    172 229.1  -2.2  34096  288.48 0861.38
2015 04 09 14 56 16 .22    -103   -122      3    160    161 220.1   1.2  34132  289.11 0861.38
2015 04 09 14 56 16 .47    -108   -115     19    159    161 223.2   6.9  34178  289.87 0861.38
2015 04 09 14 56 16 .71    -103   -118     37    157    162 221.0  13.2  34208  290.38 0861.38
2015 04 09 14 56 16 .96     -94   -136     38    166    171 214.7  12.9  34190  290.09 0861.38
2015 04 09 14 56 17 .21     -94   -110     64    146    159 220.5  25.3  34190  290.09 0861.38
2015 04 09 14 56 17 .46    -135   -134     17    191    192 225.1   5.2  34054  287.79 0861.38
2015 04 09 14 56 17 .72    -142   -119      5    186    187 230.0   1.8  34052  287.76 0861.38
2015 04 09 14 56 17 .97    -149   -101      3    181    182 235.8   1.0  34070  288.06 0861.38
2015 04 09 14 56 18 .22    -132    -96    -33    164    168 234.1 -11.6  34066  287.98 0861.38
2015 04 09 14 56 18 .48    -136   -100     -3    170    171 233.6  -1.1  34060  287.89 0861.38
2015 04 09 14 56 18 .73    -148   -122      6    193    194 230.5   1.8  34056  287.81 0861.38
2015 04 09 14 56 18 .99    -150   -135    -18    203    204 228.0  -5.2  34078  288.20 0861.38
2015 04 09 14 56 19 .23    -158   -169     17    232    233 223.2   4.2  34102  288.58 0861.39
2015 04 09 14 56 19 .48    -187   -175     -5    257    258 226.9  -1.1  34066  287.99 0861.39
2015 04 09 14 56 19 .73    -169   -191     17    256    257 221.5   3.8  34126  289.00 0861.39
2015 04 09 14 56 19 .98    -166   -193     35    255    258 220.8   8.0  34118  288.87 0861.39
2015 04 09 14 56 20 .23    -184   -125    -39    223    227 235.6 -10.1  34084  288.30 0861.39
2015 04 09 14 56 20 .48    -169   -159     -9    233    234 226.8  -2.2  34074  288.10 0861.39
2015 04 09 14 56 20 .73    -213   -137    -13    254    255 237.1  -3.1  34090  288.39 0861.39
2015 04 09 14 56 20 .98    -259    -98    -42    278    282 249.2  -8.6  34072  288.09 0861.38
2015 04 09 14 56 21 .24    -233    -87    -31    249    251 249.4  -7.2  34120  288.90 0861.38
2015 04 09 14 56 21 .49    -208   -126     -6    244    245 238.9  -1.6  34106  288.66 0861.38
2015 04 09 14 56 21 .74    -212   -174      4    275    276 230.7   1.0  34134  289.12 0861.38
2015 04 09 14 56 21 .98    -203   -155     10    256    257 232.7   2.3  34126  288.98 0861.38
2015 04 09 14 56 22 .23    -188   -146      2    239    240 232.2   0.7  34110  288.73 0861.38
2015 04 09 14 56 22 .49    -199   -137     -4    242    243 235.4  -1.1  34090  288.39 0861.38
2015 04 09 14 56 22 .74    -213   -137     -9    254    255 237.1  -2.1  34104  288.63 0861.38
2015 04 09 14 56 22 .99    -232    -86    -31    248    250 249.6  -7.2  34094  288.46 0861.38
2015 04 09 14 56 23 .24    -222    -65    -50    232    238 253.6 -12.2  34104  288.63 0861.38
2015 04 09 14 56 23 .49    -190    -69    -40    203    208 250.0 -11.3  34112  288.75 0861.38
2015 04 09 14 56 23 .74    -213    -58    -27    221    223 254.7  -7.2  34104  288.64 0861.38
2015 04 09 14 56 23 .99    -231    -82    -40    246    250 250.3  -9.3  34120  288.90 0861.38
2015 04 09 14 56 24 .25    -245    -49    -41    250    254 258.5  -9.3  34152  289.44 0861.38
2015 04 09 14 56 24 .50    -269    -20    -59    270    277 265.6 -12.4  34160  289.56 0861.38
2015 04 09 14 56 24 .74    -277    -19    -56    278    284 265.9 -11.6  34186  290.00 0861.38
2015 04 09 14 56 24 .99    -213    -52    -36    220    223 256.1  -9.3  34172  289.77 0861.38
2015 04 09 14 56 25 .26    -280     -9    -62    281    288 268.1 -12.6  34182  289.95 0861.38
2015 04 09 14 56 25 .51    -119    -11      3    120    121 264.3   1.8  34220  290.60 0861.38
2015 04 09 14 56 25 .76     -40     54    -17     68     71 323.9 -14.5  34240  290.94 0861.38
2015 04 09 14 56 26 .00     -84      8     -3     85     86 275.7  -2.2  34252  291.15 0861.38
2015 04 09 14 56 26 .26     -59    -28    -33     66     73 244.7 -31.7  34244  290.99 0861.38
2015 04 09 14 56 26 .50    -221      3    -70    222    233 270.9 -17.5  34090  288.40 0861.38
2015 04 09 14 56 26 .76    -297      0    -32    298    300 270.0  -6.2  34076  288.14 0861.38
2015 04 09 14 56 27 .01    -269    -16    -54    270    276 266.5 -11.3  34064  287.95 0861.38
2015 04 09 14 56 27 .26    -270    -17    -34    271    274 266.3  -7.2  34056  287.80 0861.38
2015 04 09 14 56 27 .51    -277    -21    -61    278    285 265.6 -12.4  34050  287.71 0861.38
2015 04 09 14 56 27 .76    -279    -35    -75    282    292 262.8 -15.0  34052  287.75 0861.38
2015 04 09 14 56 28 .01    -263    -56    -58    270    277 257.8 -12.2  34058  287.83 0861.38
2015 04 09 14 56 28 .26    -247    -52    -68    253    263 258.1 -15.2  34046  287.63 0861.38
2015 04 09 14 56 28 .51    -240    -60    -58    248    255 255.9 -13.2  34052  287.75 0861.38
2015 04 09 14 56 28 .76    -230    -55    -44    237    242 256.5 -10.5  34054  287.77 0861.38
2015 04 09 14 56 29 .01    -233    -40    -48    237    243 260.1 -11.6  34056  287.82 0861.38
2015 04 09 14 56 29 .26    -236    -29    -52    238    244 262.8 -12.4  34056  287.80 0861.38
2015 04 09 14 56 29 .51    -235    -47    -42    240    244 258.5 -10.1  34058  287.85 0861.38
2015 04 09 14 56 29 .76    -226    -38    -48    230    236 260.4 -11.9  34054  287.77 0861.38
2015 04 09 14 56 30 .01    -228    -24    -60    230    238 263.8 -14.7  34054  287.77 0861.38
2015 04 09 14 56 30 .26    -200     -9    -52    201    208 267.4 -14.5  34058  287.84 0861.38
2015 04 09 14 56 30 .52    -184     -5    -39    185    190 268.3 -11.9  34060  287.89 0861.38
2015 04 09 14 56 30 .77    -167    -12    -34    168    172 265.7 -11.6  34060  287.89 0861.38
2015 04 09 14 56 31 .02    -143     13     -8    144    145 275.2  -3.2  34070  288.04 0861.38
2015 04 09 14 56 31 .27    -125     29     11    129    130 283.3   4.9  34080  288.21 0861.39
2015 04 09 14 56 31 .52    -140     28    -23    143    145 281.5  -9.3  34082  288.26 0861.39
2015 04 09 14 56 31 .77    -151     52     -5    160    161 289.1  -2.1  34088  288.36 0861.39
2015 04 09 14 56 32 .02    -141     91     -9    168    169 302.9  -3.1  34104  288.64 0861.39
2015 04 09 14 56 32 .28    -117     33     10    122    123 285.9   4.9  34118  288.86 0861.39
2015 04 09 14 56 32 .53    -143     44    -36    150    155 287.3 -13.7  34122  288.92 0861.39
2015 04 09 14 56 32 .78    -100     21     -6    103    104 281.9  -3.7  34132  289.11 0861.39
2015 04 09 14 56 33 .03    -106     26     -7    110    111 283.7  -3.7  34136  289.18 0861.39
2015 04 09 14 56 33 .29     -65     36      3     75     76 298.9   2.9  34138  289.19 0861.39
2015 04 09 14 56 33 .53     -45     54    -13     71     73 320.4 -10.3  34172  289.79 0861.39
2015 04 09 14 56 33 .78     -51     17     64     54     83 288.4  54.8  34196  290.19 0861.39
2015 04 09 14 56 34 .03     -55     39     18     68     71 306.0  15.2  34164  289.65 0861.39
2015 04 09 14 56 34 .28    -104     21    -30    107    112 281.4 -16.0  34104  288.64 0861.39
2015 04 09 14 56 34 .53     -97     32    -13    103    104 288.2  -7.3  34096  288.48 0861.39
2015 04 09 14 56 34 .78    -119     39    -21    126    128 288.2  -9.8  34060  287.89 0861.39
2015 04 09 14 56 35 .04    -100     77    -21    127    129 307.8  -9.8  34066  287.99 0861.39
2015 04 09 14 56 35 .29    -101     77    -13    128    129 307.3  -6.2  34070  288.06 0861.39
2015 04 09 14 56 35 .54    -133     43    -18    140    142 288.2  -7.7  34062  287.91 0861.39
2015 04 09 14 56 35 .79    -142     46    -25    150    153 288.2  -9.8  34066  287.98 0861.38
2015 04 09 14 56 36 .04     -92     26     13     96     97 285.9   8.0  34078  288.20 0861.38
2015 04 09 14 56 36 .29    -136     12     -9    137    138 275.2  -4.1  34080  288.23 0861.38
2015 04 09 14 56 36 .54    -104     -8      1    105    106 265.2   0.8  34092  288.43 0861.38
2015 04 09 14 56 36 .79    -106     23    -22    109    112 282.4 -11.3  34104  288.62 0861.38
2015 04 09 14 56 37 .04     -94    -22      4     97     98 256.7   2.9  34112  288.75 0861.38
2015 04 09 14 56 37 .29     -54    -18     21     58     61 251.4  20.0  34090  288.40 0861.38
2015 04 09 14 56 37 .54    -124     16    -20    126    128 277.5  -9.3  34084  288.28 0861.38
2015 04 09 14 56 37 .79    -173     47    -40    180    185 285.3 -12.6  34076  288.16 0861.38
2015 04 09 14 56 38 .04    -179     20    -12    181    182 276.6  -3.9  34112  288.77 0861.38
2015 04 09 14 56 38 .29    -227     -3    -50    228    234 269.0 -12.4  34120  288.89 0861.38
2015 04 09 14 56 38 .55    -218     42    -36    223    227 281.0  -9.3  34134  289.14 0861.38
2015 04 09 14 56 38 .80    -176     13    -15    177    178 274.4  -4.9  34146  289.33 0861.38
2015 04 09 14 56 39 .05       9     26      4     28     29  20.0   9.0  34148  289.38 0861.38
2015 04 09 14 56 39 .31     -12      4     -5     13     13 288.2 -23.3  34170  289.74 0861.38
2015 04 09 14 56 39 .56    -321    -51    -55    326    331 260.9  -9.6  34154  289.47 0861.38
2015 04 09 14 56 39 .81    -338   -106    -68    355    362 252.5 -10.9  34056  287.81 0861.38
2015 04 09 14 56 40 .06    -320    -72    -51    329    333 257.2  -8.8  34060  287.88 0861.38
2015 04 09 14 56 40 .31    -317    -72    -66    326    333 257.1 -11.6  34038  287.52 0861.38
2015 04 09 14 56 40 .55    -299    -57    -75    305    315 259.2 -13.9  34040  287.53 0861.38
2015 04 09 14 56 40 .81    -300    -41    -74    303    312 262.1 -13.8  34040  287.55 0861.38
2015 04 09 14 56 41 .06    -300    -22    -75    301    311 265.6 -14.1  34040  287.55 0861.38
2015 04 09 14 56 41 .31    -275    -29    -68    277    286 263.9 -13.9  34040  287.53 0861.38
2015 04 09 14 56 41 .56    -273    -36    -67    276    285 262.3 -13.7  34036  287.48 0861.38
2015 04 09 14 56 41 .81    -264    -36    -66    267    276 262.1 -13.9  34040  287.55 0861.38
2015 04 09 14 56 42 .06    -247    -38    -59    250    258 261.2 -13.4  34042  287.56 0861.38
2015 04 09 14 56 42 .31    -234    -38    -66    238    247 260.8 -15.5  34042  287.58 0861.38
2015 04 09 14 56 42 .56    -227    -39    -60    231    239 260.1 -14.7  34044  287.61 0861.38
2015 04 09 14 56 42 .81    -227    -39    -60    231    239 260.1 -14.7  34044  287.61 0861.38
2015 04 09 14 56 43 .06    -217    -30    -57    220    228 262.0 -14.5  34046  287.64 0861.38
2015 04 09 14 56 43 .31    -207    -41    -54    212    219 258.8 -14.5  34044  287.60 0861.38
2015 04 09 14 56 43 .56    -199    -33    -51    202    209 260.5 -14.3  34042  287.57 0861.38
2015 04 09 14 56 43 .81    -189    -38    -45    193    199 258.6 -13.2  34042  287.57 0861.38
2015 04 09 14 56 44 .06    -195    -23    -46    197    203 263.0 -13.2  34042  287.57 0861.38
2015 04 09 14 56 44 .32    -199    -21    -41    201    206 263.9 -11.5  34042  287.57 0861.38
2015 04 09 14 56 44 .57    -192    -14    -31    193    196 265.7  -9.3  34044  287.62 0861.38
2015 04 09 14 56 44 .82    -186    -21    -39    188    193 263.4 -11.9  34044  287.62 0861.38
2015 04 09 14 56 45 .07    -165      0    -36    166    171 270.0 -12.4  34070  288.06 0861.38
2015 04 09 14 56 45 .32    -151     -9    -13    152    153 266.5  -5.1  34066  287.98 0861.38
2015 04 09 14 56 45 .57    -143    -15    -35    144    149 263.8 -13.9  34062  287.92 0861.38
2015 04 09 14 56 45 .82    -150    -11    -19    151    153 265.6  -7.3  34056  287.81 0861.39
2015 04 09 14 56 46 .07    -176    -17    -45    177    183 264.3 -14.3  34054  287.77 0861.39
2015 04 09 14 56 46 .33    -142    -53    -27    152    155 249.2 -10.3  34066  287.99 0861.39
2015 04 09 14 56 46 .58    -175    -29    -24    178    180 260.5  -7.7  34052  287.74 0861.39
2015 04 09 14 56 46 .83    -179    -53    -38    187    191 253.4 -11.5  34050  287.70 0861.39
2015 04 09 14 56 47 .08    -195    -33    -25    198    200 260.3  -7.3  34048  287.69 0861.39
2015 04 09 14 56 47 .34    -198    -57    -40    207    212 253.8 -11.1  34046  287.65 0861.39
2015 04 09 14 56 47 .58    -196    -44    -34    201    205 257.2  -9.8  34050  287.72 0861.39
2015 04 09 14 56 47 .83    -190    -53    -25    198    200 254.3  -7.3  34054  287.79 0861.39
2015 04 09 14 56 48 .09    -185    -37    -26    189    191 258.6  -8.0  34050  287.70 0861.39
2015 04 09 14 56 48 .34    -176    -48    -36    183    187 254.7 -11.1  34054  287.79 0861.39
2015 04 09 14 56 48 .59    -180    -46     -8    186    187 255.4  -2.6  34054  287.77 0861.39
2015 04 09 14 56 48 .83    -180    -43    -43    186    192 256.3 -13.2  34050  287.70 0861.39
2015 04 09 14 56 49 .09    -172    -52    -49    180    187 253.2 -15.4  34046  287.65 0861.39
2015 04 09 14 56 49 .34    -160    -56    -30    170    173 250.7 -10.3  34058  287.84 0861.39
2015 04 09 14 56 49 .59    -155    -77    -22    174    176 243.6  -7.3  34068  288.03 0861.39
2015 04 09 14 56 49 .84    -151    -77    -23    170    172 242.9  -8.0  34066  287.99 0861.39
2015 04 09 14 56 50 .09    -155    -77    -22    174    176 243.6  -7.3  34068  288.03 0861.39
2015 04 09 14 56 50 .34    -144    -82    -18    166    168 240.2  -6.2  34068  288.03 0861.39
2015 04 09 14 56 50 .59    -146    -79    -11    167    168 241.6  -3.9  34068  288.03 0861.39
2015 04 09 14 56 50 .84    -136    -87     -9    162    163 237.5  -3.3  34066  287.99 0861.39
2015 04 09 14 56 51 .09    -167    -66    -27    180    183 248.3  -8.6  34062  287.92 0861.39
2015 04 09 14 56 51 .34    -167    -60    -37    178    182 250.0 -11.9  34060  287.87 0861.39
2015 04 09 14 56 51 .59    -158    -81    -39    178    183 242.7 -12.6  34060  287.89 0861.39
2015 04 09 14 56 51 .84    -154    -65    -42    168    174 246.9 -14.3  34060  287.87 0861.39
2015 04 09 14 56 52 .09    -159    -71    -37    175    180 245.8 -12.2  34062  287.92 0861.38
2015 04 09 14 56 52 .34    -162    -56    -16    172    173 250.7  -5.4  34058  287.84 0861.38
2015 04 09 14 56 52 .60    -166    -68     -7    180    181 247.8  -2.2  34062  287.92 0861.38
2015 04 09 14 56 52 .84    -145    -92     -3    172    173 237.6  -1.1  34066  287.98 0861.38
2015 04 09 14 56 53 .11    -126   -110      0    168    169 228.9  -0.3  34074  288.11 0861.38
2015 04 09 14 56 53 .36    -133   -114      5    176    177 229.3   1.8  34094  288.45 0861.38
2015 04 09 14 56 53 .61    -125   -110     13    167    168 228.7   4.6  34096  288.48 0861.38
2015 04 09 14 56 53 .85    -106   -106     29    150    153 225.0  11.0  34110  288.74 0861.38
2015 04 09 14 56 54 .11    -121   -110      4    164    165 227.8   1.6  34080  288.21 0861.38
2015 04 09 14 56 54 .36    -117   -102      8    156    157 229.1   3.1  34082  288.26 0861.38
2015 04 09 14 56 54 .61     -95   -120     23    154    156 218.3   8.8  34076  288.16 0861.38
2015 04 09 14 56 54 .86     -97   -111     17    148    150 221.0   6.9  34066  287.98 0861.38
2015 04 09 14 56 55 .11    -109   -105     18    152    154 226.0   6.9  34066  287.98 0861.38
2015 04 09 14 56 55 .36    -111   -101     13    151    152 227.8   5.0  34066  287.99 0861.38
2015 04 09 14 56 55 .61    -108    -88      5    140    141 230.9   2.3  34082  288.26 0861.38
2015 04 09 14 56 55 .86    -108    -76     -6    133    134 234.9  -2.6  34088  288.35 0861.38
2015 04 09 14 56 56 .11    -138    -65    -19    153    155 244.8  -7.2  34086  288.31 0861.38
2015 04 09 14 56 56 .37    -132    -58    -23    145    147 246.4  -9.3  34076  288.16 0861.38
2015 04 09 14 56 56 .62    -123    -41    -16    130    132 251.6  -7.3  34076  288.14 0861.37
2015 04 09 14 56 56 .87     -88    -66     -6    111    112 233.1  -3.2  34092  288.43 0861.37
2015 04 09 14 56 57 .12    -114    -40     -4    121    122 250.5  -2.2  34088  288.35 0861.37
2015 04 09 14 56 57 .37    -133    -79    -12    155    156 239.3  -4.6  34084  288.28 0861.37
2015 04 09 14 56 57 .61    -126    -60    -20    140    142 244.6  -8.2  34074  288.13 0861.37
2015 04 09 14 56 57 .86    -130    -74    -23    150    152 240.2  -8.8  34066  287.99 0861.37
2015 04 09 14 56 58 .12    -127    -69    -29    145    148 241.2 -11.3  34066  287.99 0861.37
2015 04 09 14 56 58 .37    -126    -60    -12    140    141 244.6  -5.2  34072  288.09 0861.37
2015 04 09 14 56 58 .62    -129    -56    -19    141    143 246.5  -7.7  34066  287.98 0861.37
2015 04 09 14 56 58 .87    -136    -53    -18    146    148 248.7  -7.2  34106  288.67 0861.37
2015 04 09 14 56 59 .12    -121    -32    -25    126    129 254.9 -11.5  34122  288.92 0861.37
2015 04 09 14 56 59 .37    -101     36    -36    108    113 290.0 -23.6  34128  289.04 0861.37
2015 04 09 14 56 59 .62     -18    -13      8     23     25 234.0  19.2  34148  289.36 0861.37
2015 04 09 14 56 59 .87       9    -32     43     34     54 163.1  57.5  34160  289.57 0861.37
2015 04 09 14 57 00 .13     -21    -23    -21     32     38 221.4 -40.0  34158  289.55 0861.37
2015 04 09 14 57 00 .38    -171     -1    -36    172    176 269.6 -11.9  34098  288.52 0861.37
2015 04 09 14 57 00 .64    -130      1    -11    131    132 270.8  -5.1  34104  288.62 0861.37
2015 04 09 14 57 00 .89    -184    -16    -18    185    186 265.0  -5.6  34106  288.67 0861.37
2015 04 09 14 57 01 .14    -176      6    -47    177    184 272.1 -15.0  34152  289.43 0861.37
2015 04 09 14 57 01 .39    -168     16    -33    169    173 275.5 -11.3  34168  289.72 0861.37
2015 04 09 14 57 01 .64    -190     13    -34    191    195 274.1 -10.3  34168  289.70 0861.37
2015 04 09 14 57 01 .89    -109      8     -7    110    111 274.4  -3.7  34186  290.02 0861.37
2015 04 09 14 57 02 .14    -116     46    -36    125    130 291.7 -21.2  34200  290.26 0861.37
2015 04 09 14 57 02 .39     -98    -68    -18    120    122 234.9  -8.8  34180  289.92 0861.37
2015 04 09 14 57 02 .64    -157    -32    -57    161    171 258.3 -19.6  34094  288.45 0861.37
2015 04 09 14 57 02 .89     -76     13      2     78     79 279.7   1.8  34142  289.28 0861.37
2015 04 09 14 57 03 .14     -35     11      1     37     38 288.2   2.9  34142  289.28 0861.37
2015 04 09 14 57 03 .39     -17     -9     -4     20     21 241.1 -11.3  34126  289.01 0861.37
2015 04 09 14 57 03 .64       5    -24     11     25     27 168.4  25.1  34112  288.77 0861.37
2015 04 09 14 57 03 .89     -59     -4      5     60     61 265.6   4.9  34102  288.60 0861.37
2015 04 09 14 57 04 .14    -152    -69    -29    167    170 245.6 -10.1  34082  288.26 0861.37
2015 04 09 14 57 04 .39    -166    -45    -22    173    175 254.7  -7.3  34088  288.35 0861.37
2015 04 09 14 57 04 .64    -144    -44    -39    151    157 252.7 -14.7  34108  288.69 0861.37
2015 04 09 14 57 04 .90    -173    -40    -29    178    181 256.7  -9.3  34104  288.64 0861.37
2015 04 09 14 57 05 .14    -182    -21    -34    184    188 263.4 -10.5  34098  288.53 0861.37
2015 04 09 14 57 05 .39    -185    -24    -50    187    194 262.5 -15.2  34092  288.43 0861.37
2015 04 09 14 57 05 .65    -193    -53    -38    201    205 254.5 -10.9  34084  288.28 0861.37
2015 04 09 14 57 05 .89    -172    -50    -29    180    183 253.6  -9.3  34094  288.47 0861.37
2015 04 09 14 57 06 .15    -164    -25    -46    166    173 261.2 -15.5  34072  288.08 0861.37
2015 04 09 14 57 06 .40    -166    -43    -49    172    180 255.2 -16.0  34080  288.21 0861.37
2015 04 09 14 57 06 .65    -157    -49    -44    165    171 252.7 -15.0  34092  288.43 0861.37
2015 04 09 14 57 06 .89    -173    -48    -37    180    184 254.3 -11.9  34072  288.08 0861.37
2015 04 09 14 57 07 .16    -171    -56    -34    181    185 251.8 -10.9  34074  288.11 0861.37
2015 04 09 14 57 07 .41    -164    -56    -34    174    178 250.9 -11.3  34074  288.11 0861.37
2015 04 09 14 57 07 .66    -160    -33    -33    164    168 258.3 -11.6  34066  287.99 0861.37
2015 04 09 14 57 07 .91    -162    -13    -36    163    168 265.4 -12.6  34068  288.03 0861.37
2015 04 09 14 57 08 .16    -159     -2    -21    160    162 269.1  -7.5  34072  288.08 0861.37
2015 04 09 14 57 08 .41    -145     -6    -29    146    149 267.4 -11.5  34072  288.08 0861.37
2015 04 09 14 57 08 .66    -160    -16    -20    161    163 264.1  -7.3  34074  288.13 0861.37
2015 04 09 14 57 08 .91    -174    -15    -34    175    179 265.0 -11.1  34070  288.06 0861.37
2015 04 09 14 57 09 .16    -173     -9    -42    174    180 266.7 -13.7  34072  288.08 0861.37
2015 04 09 14 57 09 .43    -165    -20    -28    167    170 263.0  -9.6  34070  288.06 0861.37
2015 04 09 14 57 09 .66    -151    -36    -21    156    158 256.3  -7.7  34068  288.03 0861.37
2015 04 09 14 57 09 .92    -170    -33    -45    174    180 258.8 -14.5  34104  288.64 0861.37
2015 04 09 14 57 10 .16    -163    -53    -24    172    174 251.8  -8.0  34130  289.08 0861.37
2015 04 09 14 57 10 .42    -169    -44    -35    175    179 255.2 -11.3  34122  288.92 0861.37
2015 04 09 14 57 10 .67    -141    -60    -27    154    157 246.9 -10.1  34122  288.92 0861.37
2015 04 09 14 57 10 .92    -175    -74    -24    191    193 246.9  -7.3  34096  288.48 0861.37
2015 04 09 14 57 11 .17    -187    -74    -25    202    204 248.3  -7.2  34088  288.36 0861.38
2015 04 09 14 57 11 .42    -186    -33    -29    189    192 259.9  -8.8  34088  288.36 0861.38
2015 04 09 14 57 11 .67    -163    -60    -32    174    177 249.6 -10.5  34090  288.40 0861.38
2015 04 09 14 57 11 .92    -168    -41    -24    174    176 256.1  -8.0  34086  288.31 0861.38
2015 04 09 14 57 12 .17    -175    -25    -27    177    180 261.6  -8.8  34080  288.23 0861.38
2015 04 09 14 57 12 .42    -169    -30    -27    172    175 259.6  -9.0  34084  288.28 0861.38
2015 04 09 14 57 12 .67    -144    -36    -32    149    153 255.8 -12.2  34106  288.67 0861.38
2015 04 09 14 57 12 .93    -144    -47    -22    152    154 251.8  -8.2  34162  289.60 0861.38
2015 04 09 14 57 13 .17    -169     -4    -28    170    173 268.5  -9.3  34126  288.99 0861.38
2015 04 09 14 57 13 .42    -167     -5    -21    168    170 268.1  -7.3  34148  289.36 0861.38
2015 04 09 14 57 13 .67    -109      6    -10    110    111 273.5  -5.6  34160  289.57 0861.38
2015 04 09 14 57 13 .94     -92     24     -2     96     97 285.1  -1.3  34166  289.69 0861.38
2015 04 09 14 57 14 .19    -131      8    -31    132    136 273.5 -13.4  34174  289.80 0861.38
2015 04 09 14 57 14 .44    -133     14    -32    134    138 276.1 -13.4  34184  289.97 0861.38
2015 04 09 14 57 14 .69     -98     12     12     99    100 277.5   7.1  34194  290.14 0861.39
2015 04 09 14 57 14 .94      -2     -7     37      8     37 198.7  89.0  34212  290.47 0861.39
2015 04 09 14 57 15 .18    -138     19    -30    140    144 278.0 -12.4  34170  289.74 0861.39
2015 04 09 14 57 15 .44    -130     17    -36    132    137 277.5 -15.5  34184  289.97 0861.39
2015 04 09 14 57 15 .68    -154     25    -12    157    158 279.2  -4.4  34136  289.16 0861.38
2015 04 09 14 57 15 .94    -153     40    -49    159    167 284.6 -17.3  34088  288.36 0861.38
2015 04 09 14 57 16 .19    -205     21    -26    207    209 275.9  -7.3  34128  289.04 0861.38
2015 04 09 14 57 16 .44    -197     52    -26    204    206 285.1  -7.3  34126  289.01 0861.38
2015 04 09 14 57 16 .69    -137     96     -6    168    169 304.9  -2.2  34142  289.26 0861.38
2015 04 09 14 57 16 .94    -144     79    -39    165    170 298.6 -13.4  34096  288.48 0861.38
2015 04 09 14 57 17 .19    -100     72    -16    124    126 305.9  -7.7  34104  288.64 0861.38
2015 04 09 14 57 17 .44    -120    100    -28    157    160 310.0 -10.3  34118  288.86 0861.38
2015 04 09 14 57 17 .69    -143    135    -17    197    198 313.3  -5.2  34104  288.62 0861.38
2015 04 09 14 57 17 .94    -162    107    -44    195    201 303.5 -12.9  34052  287.76 0861.38
2015 04 09 14 57 18 .19    -156     99    -37    185    189 302.4 -11.3  34052  287.76 0861.38
2015 04 09 14 57 18 .44    -144     98    -45    175    181 304.4 -14.7  34048  287.67 0861.39
2015 04 09 14 57 18 .69    -142     93    -34    171    175 303.3 -11.3  34050  287.72 0861.39
2015 04 09 14 57 18 .95    -128    111    -15    170    171 310.9  -5.4  34052  287.76 0861.39
2015 04 09 14 57 19 .19    -121     92    -19    153    155 307.3  -7.2  34048  287.67 0861.39
2015 04 09 14 57 19 .45    -120     88    -16    150    151 306.4  -6.2  34056  287.81 0861.39
2015 04 09 14 57 19 .70    -127    109    -16    168    169 310.7  -5.6  34062  287.92 0861.39
2015 04 09 14 57 19 .95    -140     91    -16    168    169 303.1  -5.6  34074  288.13 0861.39
2015 04 09 14 57 20 .20    -158    121    -10    200    201 307.5  -3.1  34078  288.20 0861.39
2015 04 09 14 57 20 .45    -167    116    -33    204    207 304.9  -9.3  34062  287.92 0861.39
2015 04 09 14 57 20 .70    -160    112    -33    196    199 304.9  -9.6  34056  287.82 0861.39
2015 04 09 14 57 20 .96    -149    105    -38    183    188 305.1 -11.9  34060  287.87 0861.39
2015 04 09 14 57 21 .21    -117    113     -5    164    165 314.0  -1.8  34080  288.21 0861.39
2015 04 09 14 57 21 .46     -64     91     32    112    117 324.8  16.3  34114  288.79 0861.39
2015 04 09 14 57 21 .71     -92    101     16    137    138 317.7   6.9  34114  288.79 0861.39
2015 04 09 14 57 21 .96    -148    112    -17    186    187 307.1  -5.4  34068  288.03 0861.39
2015 04 09 14 57 22 .21    -142     96    -12    172    173 304.0  -4.1  34072  288.08 0861.39
2015 04 09 14 57 22 .47    -136    101    -11    170    171 306.6  -3.9  34082  288.25 0861.39
2015 04 09 14 57 22 .72    -141    101     -5    174    175 305.5  -1.8  34090  288.40 0861.39
2015 04 09 14 57 22 .97    -131     96     -6    163    164 306.4  -2.1  34092  288.42 0861.39
2015 04 09 14 57 23 .22    -143    105     -5    178    179 306.4  -1.8  34082  288.26 0861.39
2015 04 09 14 57 23 .46    -148     98    -33    178    182 303.5 -10.5  34060  287.89 0861.39
2015 04 09 14 57 23 .71    -171     84    -63    191    202 296.4 -18.3  34056  287.82 0861.39
2015 04 09 14 57 23 .96    -158     81    -57    178    188 297.3 -17.9  34052  287.76 0861.39
2015 04 09 14 57 24 .22    -157     77    -62    175    186 296.2 -19.7  34056  287.82 0861.39
2015 04 09 14 57 24 .46    -153     78    -58    172    182 297.1 -18.9  34060  287.87 0861.39
2015 04 09 14 57 24 .72    -144     85    -48    168    174 300.7 -21.2  34058  287.84 0861.39
2015 04 09 14 57 24 .97    -134     86    -53    160    169 302.6 -18.3  34056  287.81 0861.39
2015 04 09 14 57 25 .22    -130     91    -52    159    168 305.1 -18.3  34062  287.91 0861.39
2015 04 09 14 57 25 .47    -145    117    -46    187    193 309.1 -13.9  34066  287.99 0861.38
2015 04 09 14 57 25 .72    -154    110    -52    190    198 305.5 -15.4  34090  288.38 0861.38
2015 04 09 14 57 25 .97    -156    121    -26    198    200 307.8  -7.7  34084  288.30 0861.38
2015 04 09 14 57 26 .22    -138    116      2    181    182 310.2   0.8  34084  288.30 0861.38
2015 04 09 14 57 26 .47    -152    114     -1    190    191 306.9  -0.5  34082  288.25 0861.38
2015 04 09 14 57 26 .72    -176    113    -42    210    215 302.9 -11.5  34072  288.08 0861.38
2015 04 09 14 57 26 .97    -163    125    -43    206    211 307.5 -11.9  34066  287.98 0861.38
2015 04 09 14 57 27 .22    -169    120    -34    208    211 305.5  -9.4  34064  287.94 0861.38
2015 04 09 14 57 27 .48    -156    121    -26    198    200 307.8  -7.7  34074  288.13 0861.38
2015 04 09 14 57 27 .72    -160    120    -41    201    206 306.9 -11.5  34072  288.09 0861.38
2015 04 09 14 57 27 .98    -157    129    -36    204    208 309.5 -10.1  34072  288.09 0861.38
2015 04 09 14 57 28 .24    -135    112     -3    176    177 309.8  -1.3  34084  288.30 0861.39
2015 04 09 14 57 28 .49    -147    113    -10    186    187 307.5  -3.1  34088  288.36 0861.39
2015 04 09 14 57 28 .74    -150    124     -7    195    196 309.6  -2.2  34088  288.36 0861.39
2015 04 09 14 57 28 .99     -88     95     10    130    131 317.2   4.4  34096  288.48 0861.39
2015 04 09 14 57 29 .24    -140     88    -35    166    170 302.2 -11.9  34104  288.64 0861.39
2015 04 09 14 57 29 .49    -141     79    -25    162    165 299.3  -9.0  34096  288.50 0861.39
2015 04 09 14 57 29 .74    -125    107     -6    165    166 310.7  -2.2  34090  288.38 0861.39
2015 04 09 14 57 29 .99    -119     81     12    145    146 304.2   4.9  34088  288.35 0861.38
2015 04 09 14 57 30 .24    -165     60     -6    176    177 290.0  -2.1  34096  288.48 0861.38
2015 04 09 14 57 30 .49    -145     95     -6    174    175 303.5  -2.1  34098  288.52 0861.38
2015 04 09 14 57 30 .74    -170     94    -26    195    197 299.1  -7.7  34092  288.43 0861.38
2015 04 09 14 57 31 .00    -147     96    -23    176    178 303.1  -7.7  34098  288.53 0861.38
2015 04 09 14 57 31 .24    -170     49     -5    178    179 286.2  -1.8  34086  288.31 0861.38
2015 04 09 14 57 31 .50    -175     30    -46    178    184 279.9 -14.5  34070  288.04 0861.38
2015 04 09 14 57 31 .75    -174     35    -42    178    183 281.5 -13.4  34084  288.30 0861.38
2015 04 09 14 57 32 .00    -111     -6    -19    112    114 266.5  -9.8  34090  288.38 0861.38
2015 04 09 14 57 32 .25      37     12     16     39     42  71.8  23.0  34116  288.82 0861.38
2015 04 09 14 57 32 .50     -23     59     30     64     70 338.2  27.2  34134  289.14 0861.38
2015 04 09 14 57 32 .75     -75     91     93    119    151 320.4  42.2  34154  289.46 0861.38
2015 04 09 14 57 33 .00     -32    108     22    113    116 343.5  11.1  34162  289.60 0861.38
2015 04 09 14 57 33 .24     -18    107      5    109    110 350.2   2.8  34154  289.46 0861.38
2015 04 09 14 57 33 .50     -61    103     43    120    127 329.3  20.0  34118  288.87 0861.38
2015 04 09 14 57 33 .75     -70     73     86    102    133 315.9  44.3  34124  288.96 0861.38
2015 04 09 14 57 34 .00     -30     78     36     84     91 338.6  24.6  34140  289.23 0861.38
2015 04 09 14 57 34 .25     -41     69     41     81     90 329.3  28.7  34118  288.86 0861.38
2015 04 09 14 57 34 .50    -122     37    -16    128    130 286.9  -7.3  34118  288.86 0861.38
2015 04 09 14 57 34 .75    -159    -32    -21    163    165 258.3  -7.3  34112  288.77 0861.38
2015 04 09 14 57 35 .01    -157     10    -20    158    160 273.9  -7.2  34098  288.53 0861.38
2015 04 09 14 57 35 .27    -192     -2    -46    193    199 269.2 -13.4  34100  288.55 0861.38
2015 04 09 14 57 35 .51    -217     -9    -43    218    223 267.5 -11.3  34138  289.19 0861.38
2015 04 09 14 57 35 .76    -224      0    -57    225    233 270.0 -14.3  34114  288.80 0861.38
2015 04 09 14 57 36 .02    -257     -7    -46    258    263 268.3 -10.1  34132  289.10 0861.38
2015 04 09 14 57 36 .27    -222     17    -30    223    226 274.4  -7.7  34140  289.23 0861.38
2015 04 09 14 57 36 .52    -221      3    -48    222    228 270.8 -12.4  34132  289.09 0861.38
2015 04 09 14 57 36 .77    -161     25     -9    164    165 279.0  -3.1  34168  289.72 0861.38
2015 04 09 14 57 37 .02    -228     45    -17    233    234 281.4  -4.4  34154  289.47 0861.38
2015 04 09 14 57 37 .27    -215     14    -18    216    217 273.7  -4.9  34160  289.57 0861.38
2015 04 09 14 57 37 .52    -208     77    -32    223    226 290.4  -8.2  34152  289.45 0861.38
2015 04 09 14 57 37 .77    -113    -56    -45    127    135 243.4 -19.7  34172  289.77 0861.38
2015 04 09 14 57 38 .02     -64    -17    -21     67     70 254.9 -23.8  34158  289.55 0861.38
2015 04 09 14 57 38 .27    -102     57    -59    117    131 299.3 -33.1  34160  289.57 0861.38
2015 04 09 14 57 38 .52     -41     34    -27     54     60 309.5 -32.6  34176  289.84 0861.38
2015 04 09 14 57 38 .77     -81     20     -3     84     85 284.2  -2.2  34168  289.72 0861.38
2015 04 09 14 57 39 .02     -61    -46    -17     77     80 233.1 -12.9  34174  289.82 0861.38
2015 04 09 14 57 39 .27     -82    -68    -26    107    111 230.5 -13.9  34204  290.33 0861.37
2015 04 09 14 57 39 .52     -61    -26     43     67     79 246.5  36.0  34214  290.50 0861.37
2015 04 09 14 57 39 .77    -159      0    -32    160    164 270.1 -11.3  34158  289.53 0861.37
2015 04 09 14 57 40 .03    -210    -53    -44    217    222 255.6 -11.5  34100  288.57 0861.37
2015 04 09 14 57 40 .27    -213    -43    -42    218    223 258.5 -11.1  34118  288.86 0861.37
2015 04 09 14 57 40 .53    -197    -48    -53    203    210 256.3 -14.7  34110  288.72 0861.37
2015 04 09 14 57 40 .78     -80     -6     -1     81     82 265.6  -0.7  34154  289.46 0861.37
2015 04 09 14 57 41 .02    -149     36    -11    154    155 283.7  -4.1  34096  288.50 0861.37
2015 04 09 14 57 41 .28    -194    -43    -71    199    212 257.4 -19.7  34064  287.94 0861.37
2015 04 09 14 57 41 .53    -185    -58    -38    195    199 252.5 -11.1  34072  288.08 0861.37
2015 04 09 14 57 41 .79    -208     12    -41    209    214 273.5 -11.1  34086  288.31 0861.37
2015 04 09 14 57 42 .04    -209      0    -42    210    215 270.0 -11.5  34078  288.18 0861.37
2015 04 09 14 57 42 .29    -169    -56    -23    179    181 251.6  -7.5  34088  288.36 0861.37
2015 04 09 14 57 42 .54    -173    -61    -20    184    186 250.3  -6.5  34102  288.58 0861.37
2015 04 09 14 57 42 .79    -174   -130      3    218    219 233.4   0.8  34118  288.87 0861.37
2015 04 09 14 57 43 .04    -214   -136     -9    254    255 237.6  -2.2  34074  288.12 0861.37
2015 04 09 14 57 43 .30    -194   -150      3    246    247 232.2   0.8  34096  288.48 0861.37
2015 04 09 14 57 43 .54    -205   -176     13    271    272 229.3   2.8  34104  288.61 0861.37
2015 04 09 14 57 43 .79    -169   -182     16    249    250 223.0   3.8  34110  288.73 0861.37
2015 04 09 14 57 44 .04    -164   -163     13    232    233 225.3   3.3  34082  288.25 0861.37
2015 04 09 14 57 44 .29    -157   -178     15    238    239 221.4   3.8  34088  288.34 0861.37
2015 04 09 14 57 44 .54    -152   -177     19    234    235 220.8   4.9  34074  288.12 0861.37
2015 04 09 14 57 44 .79    -173   -109    -33    205    208 237.8  -9.3  34064  287.96 0861.37
2015 04 09 14 57 45 .04    -190    -95    -27    213    215 243.4  -7.3  34062  287.92 0861.37
2015 04 09 14 57 45 .30    -202    -64    -30    213    216 252.3  -8.0  34066  287.98 0861.37
2015 04 09 14 57 45 .55    -201    -59    -38    210    214 253.6 -10.3  34126  288.99 0861.37
2015 04 09 14 57 45 .80    -196    -37    -43    200    205 259.2 -12.2  34116  288.82 0861.37
2015 04 09 14 57 46 .05    -203    -33    -35    206    210 260.8  -9.8  34152  289.45 0861.37
2015 04 09 14 57 46 .30    -188    -26    -43    190    195 262.1 -12.9  34112  288.77 0861.37
2015 04 09 14 57 46 .55    -179    -32    -11    182    183 259.6  -3.7  34094  288.45 0861.37
2015 04 09 14 57 46 .80    -182    -49    -33    189    192 254.9 -10.1  34100  288.55 0861.37
2015 04 09 14 57 47 .05    -160    -66    -23    174    176 247.4  -7.7  34114  288.80 0861.37
2015 04 09 14 57 47 .30    -201    -59    -38    210    214 253.6 -10.3  34094  288.45 0861.37
2015 04 09 14 57 47 .56    -201    -59    -38    210    214 253.6 -10.3  34090  288.40 0861.37
2015 04 09 14 57 47 .80    -171    -17    -43    172    178 264.3 -14.3  34136  289.16 0861.37
2015 04 09 14 57 48 .05    -138    -41     -5    145    146 253.2  -2.2  34146  289.33 0861.37
2015 04 09 14 57 48 .30    -160    -16    -21    161    163 264.1  -7.7  34150  289.41 0861.37
2015 04 09 14 57 48 .55    -143    -53    -28    153    156 249.6 -10.5  34154  289.48 0861.37
2015 04 09 14 57 48 .81    -166     17    -33    167    171 275.9 -11.3  34136  289.16 0861.37
2015 04 09 14 57 49 .08    -126    -21      6    128    129 260.4   2.9  34138  289.19 0861.37
2015 04 09 14 57 49 .32    -184      0    -26    185    187 270.0  -8.2  34100  288.55 0861.37
2015 04 09 14 57 49 .56    -126     42     24    134    137 288.6  10.1  34150  289.41 0861.37
2015 04 09 14 57 49 .82    -122     20     -2    124    125 279.7  -1.3  34120  288.91 0861.37
2015 04 09 14 57 50 .07     -54    -10     14     55     57 259.4  14.3  34126  289.01 0861.37
2015 04 09 14 57 50 .32    -146      6    -51    147    156 272.6 -19.4  34106  288.67 0861.37
2015 04 09 14 57 50 .57     -26     23     21     35     40 311.3  34.4  34112  288.77 0861.37
2015 04 09 14 57 50 .82    -102     34    -44    108    116 288.4 -27.4  34102  288.60 0861.37
2015 04 09 14 57 51 .07     -87     12      0     88     89 278.4  -0.3  34132  289.09 0861.37
2015 04 09 14 57 51 .32     -26     52     12     59     61 333.7  12.2  34118  288.86 0861.37
2015 04 09 14 57 51 .57     -10     32     23     34     41 341.3  37.6  34110  288.74 0861.37
2015 04 09 14 57 51 .82     -65     17    -37     68     77 285.0 -35.7  34100  288.55 0861.37
2015 04 09 14 57 52 .07     -14     48     -9     51     52 343.1 -10.3  34102  288.58 0861.37
2015 04 09 14 57 52 .32     -56    -18    -33     59     67 251.8 -35.8  34110  288.74 0861.37
2015 04 09 14 57 52 .57     -85     -1    -12     86     87 268.7  -8.2  34132  289.09 0861.37
2015 04 09 14 57 52 .82     -17     27     11     33     35 327.4  19.4  34126  289.01 0861.37
2015 04 09 14 57 53 .08     -21    -63      9     67     68 198.7   8.0  34126  288.99 0861.37
2015 04 09 14 57 53 .33       8    -24     50     26     56 161.7  70.8  34150  289.40 0861.37
2015 04 09 14 57 53 .57      -5    -49     57     50     75 186.2  54.3  34138  289.19 0861.37
2015 04 09 14 57 53 .83     -32    -52     12     62     64 211.6  11.1  34140  289.23 0861.37
2015 04 09 14 57 54 .08     -74   -101     19    126    128 216.1   8.9  34192  290.11 0861.37
2015 04 09 14 57 54 .33     -83   -135     31    159    163 211.6  11.1  34246  291.03 0861.37
2015 04 09 14 57 54 .58     -36    -52     35     64     72 215.2  31.3  34284  291.67 0861.38
2015 04 09 14 57 54 .83    -122    -62    -45    138    145 242.9 -23.8  34280  291.62 0861.38
2015 04 09 14 57 55 .08    -144    -33    -57    148    158 256.7 -26.4  34234  290.84 0861.38
2015 04 09 14 57 55 .33    -123      1     -1    124    125 270.8  -0.7  34204  290.33 0861.38
2015 04 09 14 57 55 .58    -184    -42    -62    189    200 257.0 -18.3  34154  289.46 0861.38
2015 04 09 14 57 55 .84    -108     36    -17    114    116 288.6  -8.8  34158  289.53 0861.38
2015 04 09 14 57 56 .09    -175    -44    -51    181    189 255.8 -15.8  34126  288.99 0861.38
2015 04 09 14 57 56 .34    -181    -37    -44    185    191 258.3 -13.4  34124  288.97 0861.38
2015 04 09 14 57 56 .59    -160    -36    -23    165    167 257.2  -8.0  34142  289.28 0861.38
2015 04 09 14 57 56 .84    -205     35    -20    209    211 279.9  -5.6  34112  288.75 0861.38
2015 04 09 14 57 57 .09    -131      5     30    132    136 272.6  13.1  34122  288.92 0861.38
2015 04 09 14 57 57 .35    -232    -10    -55    233    240 267.5 -13.4  34080  288.22 0861.38
2015 04 09 14 57 57 .60    -229    -30    -62    231    240 262.5 -15.2  34090  288.39 0861.38
2015 04 09 14 57 57 .84    -205    -55    -13    213    214 254.9  -3.7  34122  288.92 0861.38
2015 04 09 14 57 58 .10    -233    -31    -69    236    247 262.3 -16.4  34058  287.83 0861.38
2015 04 09 14 57 58 .34    -228    -25    -32    230    233 263.6  -8.0  34066  287.99 0861.38
2015 04 09 14 57 58 .60    -255    -18    -60    256    263 265.9 -13.3  34076  288.15 0861.38
2015 04 09 14 57 58 .85    -241    -33    -47    244    249 262.1 -11.1  34080  288.22 0861.38
2015 04 09 14 57 59 .10    -232    -17    -55    233    240 265.7 -13.4  34084  288.27 0861.38
2015 04 09 14 57 59 .35    -151    -11    -19    152    154 265.6  -7.3  34096  288.48 0861.38
2015 04 09 14 57 59 .60    -191    -43    -46    196    202 257.2 -13.3  34092  288.43 0861.38
2015 04 09 14 57 59 .85    -205      8    -45    206    211 272.5 -12.4  34102  288.58 0861.38
2015 04 09 14 58 00 .10    -186    -57    -54    195    203 252.7 -15.5  34102  288.60 0861.37
2015 04 09 14 58 00 .35    -162      8    -22    163    165 273.0  -8.0  34120  288.91 0861.37
2015 04 09 14 58 00 .60    -138    -22     21    140    142 260.8   8.9  34124  288.96 0861.37
2015 04 09 14 58 00 .85    -225    -40    -66    229    239 259.9 -16.0  34106  288.65 0861.37
2015 04 09 14 58 01 .10    -187     25    -12    189    190 277.7  -3.9  34110  288.72 0861.37
2015 04 09 14 58 01 .35    -199    -40    -56    204    212 258.6 -15.5  34110  288.72 0861.37
2015 04 09 14 58 01 .60    -128     21     -7    130    131 279.6  -3.1  34126  289.01 0861.37
2015 04 09 14 58 01 .85    -205    -28    -45    208    213 262.0 -12.4  34114  288.80 0861.37
2015 04 09 14 58 02 .10    -212     -2    -19    213    214 269.4  -5.2  34094  288.47 0861.37
2015 04 09 14 58 02 .36    -224    -45    -63    229    238 258.6 -15.5  34080  288.21 0861.37
2015 04 09 14 58 02 .61    -215    -42    -44    220    225 258.8 -11.3  34088  288.35 0861.37
2015 04 09 14 58 02 .86    -239    -25    -52    241    247 263.9 -12.4  34082  288.24 0861.37
2015 04 09 14 58 03 .12    -226      3    -38    227    231 270.9  -9.6  34082  288.25 0861.37
2015 04 09 14 58 03 .37    -196    -26    -47    198    204 262.3 -13.4  34076  288.16 0861.37
2015 04 09 14 58 03 .62    -185    -40    -31    190    193 257.8  -9.4  34076  288.16 0861.37
2015 04 09 14 58 03 .87    -188    -39    -35    193    197 258.3 -10.3  34080  288.21 0861.37
2015 04 09 14 58 04 .12    -205    -44    -38    210    214 257.8 -10.5  34084  288.30 0861.37
2015 04 09 14 58 04 .37    -206    -41    -48    211    217 258.6 -12.9  34084  288.30 0861.37
2015 04 09 14 58 04 .62    -179    -24    -40    181    186 262.1 -12.6  34086  288.31 0861.37
2015 04 09 14 58 04 .87    -173    -20    -33    175    179 263.2 -10.9  34094  288.45 0861.37
2015 04 09 14 58 05 .12    -154     11    -10    155    156 274.4  -3.9  34096  288.50 0861.37
2015 04 09 14 58 05 .37    -146    -11    -29    147    150 265.6 -11.5  34088  288.35 0861.37
2015 04 09 14 58 05 .62    -148    -25    -33    151    155 260.3 -12.6  34086  288.31 0861.37
2015 04 09 14 58 05 .87    -134     -9    -46    135    143 266.1 -19.1  34088  288.35 0861.37
2015 04 09 14 58 06 .12    -127    -11    -45    128    136 264.8 -19.7  34084  288.28 0861.37
2015 04 09 14 58 06 .37    -134    -15    -32    135    139 263.4 -13.4  34078  288.20 0861.37
2015 04 09 14 58 06 .62    -135    -31    -47    139    147 256.8 -18.7  34078  288.18 0861.37
2015 04 09 14 58 06 .87    -185    -40    -31    190    193 257.8  -9.3  34082  288.26 0861.37
2015 04 09 14 58 07 .12    -171    -20    -47    173    180 263.2 -15.4  34074  288.13 0861.37
2015 04 09 14 58 07 .37    -174    -21    -50    176    184 263.0 -16.0  34072  288.08 0861.37
2015 04 09 14 58 07 .63    -175    -15    -54    176    185 264.8 -17.0  34082  288.26 0861.37
2015 04 09 14 58 07 .88    -154    -11    -32    155    159 265.6 -11.9  34110  288.74 0861.37
2015 04 09 14 58 08 .13    -146      8     -5    147    148 273.5  -2.2  34104  288.64 0861.37
2015 04 09 14 58 08 .38    -172    -44    -40    178    183 255.4 -12.9  34092  288.43 0861.37
2015 04 09 14 58 08 .63    -186      0    -39    187    192 270.0 -11.9  34092  288.43 0861.37
2015 04 09 14 58 08 .88    -164      8    -29    165    168 273.0 -10.1  34090  288.38 0861.37
2015 04 09 14 58 09 .13    -144     11    -29    145    148 274.4 -11.3  34086  288.31 0861.37
2015 04 09 14 58 09 .38    -149      7    -36    150    155 273.0 -13.7  34078  288.20 0861.37
2015 04 09 14 58 09 .64    -162    -12    -22    163    165 265.6  -8.0  34098  288.53 0861.37
2015 04 09 14 58 09 .89    -146    -15    -18    147    149 263.8  -7.3  34090  288.40 0861.37
2015 04 09 14 58 10 .14    -164     -6    -36    165    169 267.9 -12.4  34082  288.25 0861.36
2015 04 09 14 58 10 .40    -151     10    -48    152    160 273.9 -17.6  34080  288.21 0861.36
2015 04 09 14 58 10 .64    -140     12    -23    141    143 275.2  -9.4  34082  288.26 0861.36
2015 04 09 14 58 10 .89    -159     16    -31    160    164 276.1 -11.1  34082  288.25 0861.36
2015 04 09 14 58 11 .15    -148     11    -34    149    153 274.4 -12.9  34096  288.48 0861.36
2015 04 09 14 58 11 .40    -120    -12    -31    121    125 263.9 -14.5  34134  289.13 0861.36
2015 04 09 14 58 11 .65     -52     -8     -2     53     54 260.3  -2.2  34122  288.94 0861.36
2015 04 09 14 58 11 .90      -5      0      7      6      9 274.4  48.2  34144  289.31 0861.36
2015 04 09 14 58 12 .15    -101     13     -5    102    103 277.5  -3.1  34164  289.63 0861.36
2015 04 09 14 58 12 .40    -125     33    -14    130    131 285.0  -6.2  34174  289.82 0861.36
2015 04 09 14 58 12 .65     -70    -38     15     80     82 241.2  10.6  34208  290.38 0861.36
2015 04 09 14 58 12 .89    -180    -86    -19    200    201 244.2  -5.6  34218  290.57 0861.36
2015 04 09 14 58 13 .15    -196    -95    -12    219    220 244.0  -3.1  34168  289.70 0861.36
2015 04 09 14 58 13 .40    -122   -125     18    176    178 224.3   6.1  34166  289.67 0861.36
2015 04 09 14 58 13 .65    -114   -118     72    165    180 223.9  25.1  34168  289.72 0861.37
2015 04 09 14 58 13 .90    -143    -66     -4    158    159 245.2  -1.8  34186  290.01 0861.37
2015 04 09 14 58 14 .15     -62    -58     -3     85     86 226.9  -2.2  34226  290.70 0861.37
2015 04 09 14 58 14 .41     -36    -36     17     51     54 225.1  18.4  34250  291.09 0861.37
2015 04 09 14 58 14 .65    -107      1    -28    108    112 270.8 -14.5  34228  290.74 0861.37
2015 04 09 14 58 14 .91    -169    -42    -23    175    177 256.1  -7.7  34210  290.41 0861.37
2015 04 09 14 58 15 .15    -244    -55    -60    251    259 257.2 -13.4  34198  290.22 0861.37
2015 04 09 14 58 15 .41    -201     -9    -16    202    203 267.4  -4.6  34178  289.89 0861.37
2015 04 09 14 58 15 .66    -268    -33    -28    271    273 262.9  -6.0  34176  289.83 0861.37
2015 04 09 14 58 15 .90    -241   -102    -41    262    266 246.9  -9.0  34266  291.38 0861.37
2015 04 09 14 58 16 .16    -270   -121    -27    296    298 245.8  -5.4  34316  292.23 0861.37
2015 04 09 14 58 16 .41    -231    -77    -26    244    246 251.4  -6.2  34298  291.92 0861.36
2015 04 09 14 58 16 .67    -223      3    -41    224    228 270.8 -10.5  34238  290.91 0861.36
2015 04 09 14 58 16 .92    -114    -30    -10    119    120 255.0  -5.2  34230  290.77 0861.36
2015 04 09 14 58 17 .17     -72    -30     10     79     80 247.4   7.5  34246  291.03 0861.36
2015 04 09 14 58 17 .42     -69    -14     -2     71     72 258.6  -2.2  34170  289.74 0861.36
2015 04 09 14 58 17 .67    -111     12    -59    112    126 276.6 -34.2  34132  289.09 0861.36
2015 04 09 14 58 17 .92     -36     37    -53     52     74 315.8 -53.5  34136  289.18 0861.36
2015 04 09 14 58 18 .17    -267    103    -47    287    291 291.1  -9.3  34158  289.54 0861.36
2015 04 09 14 58 18 .42     -52     21      3     57     58 292.6   3.8  34186  290.01 0861.36
2015 04 09 14 58 18 .67    -150    -16      7    151    152 263.8   2.9  34182  289.96 0861.36
2015 04 09 14 58 18 .92    -250    -10    -22    251    253 267.6  -5.1  34178  289.88 0861.36
2015 04 09 14 58 19 .17    -266     -4    -53    267    273 269.0 -11.3  34172  289.76 0861.36
2015 04 09 14 58 19 .43    -142      8    -24    143    146 273.5  -9.8  34178  289.89 0861.36
2015 04 09 14 58 19 .68    -161      2      2    162    163 270.8   0.8  34186  290.01 0861.36
2015 04 09 14 58 19 .93    -182   -100      4    208    209 241.1   1.2  34182  289.96 0861.36
2015 04 09 14 58 20 .18     -53     16     28     56     62 286.8  28.2  34196  290.19 0861.36
2015 04 09 14 58 20 .43    -188     52    -70    196    208 285.5 -24.8  34190  290.08 0861.36
2015 04 09 14 58 20 .68    -106     15    -34    108    114 278.4 -17.6  34198  290.23 0861.36
2015 04 09 14 58 20 .93    -135     19    -46    137    145 278.0 -18.7  34162  289.62 0861.36
2015 04 09 14 58 21 .18    -241     47    -57    246    253 281.2 -13.2  34138  289.20 0861.36
2015 04 09 14 58 21 .43    -358     16    -68    359    366 272.7 -10.8  34132  289.10 0861.36
2015 04 09 14 58 21 .68    -271    -37    -45    274    278 262.1  -9.3  34134  289.14 0861.36
2015 04 09 14 58 21 .93    -295     62    -44    302    306 281.9  -8.3  34142  289.27 0861.36
2015 04 09 14 58 22 .18    -294      0    -54    295    300 270.0 -10.5  34132  289.09 0861.36
2015 04 09 14 58 22 .43    -379     47    -49    382    386 277.1  -7.4  34118  288.86 0861.36
2015 04 09 14 58 22 .68    -360    122    -54    381    385 288.7  -8.1  34116  288.82 0861.36
2015 04 09 14 58 22 .93    -354     83    -82    364    374 283.3 -12.7  34108  288.69 0861.36
2015 04 09 14 58 23 .19    -326    114    -96    346    360 289.4 -15.5  34090  288.40 0861.36
2015 04 09 14 58 23 .43    -327    100   -118    343    363 287.1 -19.1  34112  288.77 0861.36
2015 04 09 14 58 23 .69    -257    -20    -42    258    262 265.4  -9.4  34116  288.81 0861.36
2015 04 09 14 58 23 .95    -313    -77    -72    323    332 256.2 -12.6  34112  288.75 0861.36
2015 04 09 14 58 24 .20    -282     43    -57    286    292 278.8 -11.3  34126  289.00 0861.36
2015 04 09 14 58 24 .45    -324    -10    -58    325    331 268.2 -10.2  34196  290.19 0861.36
2015 04 09 14 58 24 .70    -357     23    -72    358    366 273.8 -11.5  34200  290.25 0861.36
2015 04 09 14 58 24 .94    -344    -41    -96    347    361 263.1 -15.5  34148  289.37 0861.36
2015 04 09 14 58 25 .20    -122    -81     28    147    150 236.3  11.1  34164  289.65 0861.36
2015 04 09 14 58 25 .45    -194      5    -12    195    196 271.5  -3.7  34126  288.99 0861.36
2015 04 09 14 58 25 .70    -337    -27    -87    339    351 265.3 -14.5  34104  288.64 0861.36
2015 04 09 14 58 25 .95    -169    -68    -37    183    187 248.0 -11.5  34128  289.04 0861.36
2015 04 09 14 58 26 .20    -214     -1    -30    215    218 269.6  -8.0  34124  288.97 0861.36
2015 04 09 14 58 26 .45    -249    -51    -60    255    263 258.3 -13.4  34172  289.76 0861.36
2015 04 09 14 58 26 .70    -232    -47    -34    237    240 258.5  -8.3  34144  289.31 0861.36
2015 04 09 14 58 26 .95    -203    -47    -42    209    214 256.7 -11.6  34166  289.69 0861.36
2015 04 09 14 58 27 .20    -130    -37    -18    136    138 254.1  -7.7  34172  289.77 0861.35
2015 04 09 14 58 27 .46     -89    -39     25     98    102 246.5  14.3  34240  290.92 0861.35
2015 04 09 14 58 27 .71    -273     -4    -81    274    286 269.0 -16.6  34116  288.81 0861.35
2015 04 09 14 58 27 .95    -258     35    -72    261    271 277.9 -15.5  34110  288.71 0861.35
2015 04 09 14 58 28 .21    -254      0    -30    255    257 270.0  -6.9  34104  288.63 0861.35
2015 04 09 14 58 28 .46    -267     -3    -62    268    276 269.2 -13.2  34086  288.31 0861.35
2015 04 09 14 58 28 .71    -314     34    -55    316    321 276.2  -9.9  34090  288.39 0861.35
2015 04 09 14 58 28 .96    -254    -68    -33    264    267 254.9  -7.2  34100  288.56 0861.35
2015 04 09 14 58 29 .21    -274    -16    -35    275    278 266.5  -7.3  34096  288.49 0861.35
2015 04 09 14 58 29 .46    -140     -9    -17    141    143 266.1  -7.2  34096  288.50 0861.35
2015 04 09 14 58 29 .71     -41    -74    -10     85     86 209.4  -6.7  34106  288.65 0861.35
2015 04 09 14 58 29 .96    -237     -1    -74    238    250 269.6 -17.3  34082  288.26 0861.35
2015 04 09 14 58 30 .21    -166    -34    -34    170    174 258.3 -11.3  34094  288.47 0861.35
2015 04 09 14 58 30 .47    -114    -12    -16    115    117 263.9  -8.2  34108  288.69 0861.35
2015 04 09 14 58 30 .72     -96    -32     -2    102    103 251.6  -1.3  34108  288.69 0861.35
2015 04 09 14 58 30 .97     -98   -104    -12    144    145 223.2  -5.1  34116  288.82 0861.36
2015 04 09 14 58 31 .22     -67    -37    -27     77     81 241.2 -24.4  34120  288.89 0861.36
2015 04 09 14 58 31 .47    -116     13    -43    117    124 276.6 -25.3  34126  289.01 0861.36
2015 04 09 14 58 31 .72      -1     13     27     14     30 353.8  70.8  34124  288.96 0861.36
2015 04 09 14 58 31 .97     -73    -17     -4     76     77 256.7  -3.2  34120  288.89 0861.36
2015 04 09 14 58 32 .23    -110     65    -13    128    129 300.6  -6.2  34104  288.64 0861.36
2015 04 09 14 58 32 .48     -63    -25     23     68     72 248.3  18.9  34102  288.58 0861.36
2015 04 09 14 58 32 .73    -114      3      5    115    116 271.7   2.8  34104  288.64 0861.36
2015 04 09 14 58 32 .98     -91      7    -26     92     95 274.4 -20.7  34126  288.99 0861.36
2015 04 09 14 58 33 .23    -102     89    -26    136    139 311.3 -10.9  34160  289.58 0861.36
2015 04 09 14 58 33 .48     -56     23      9     61     62 292.6   9.0  34168  289.72 0861.36
2015 04 09 14 58 33 .73     -16     30     16     35     38 331.0  25.1  34176  289.84 0861.36
2015 04 09 14 58 33 .98     -80      1    -23     81     84 270.8 -21.2  34176  289.85 0861.36
2015 04 09 14 58 34 .23     -72     36     -5     81     82 296.6  -4.1  34164  289.65 0861.36
2015 04 09 14 58 34 .48     -40     25      3     48     49 302.4   3.8  34172  289.77 0861.36
2015 04 09 14 58 34 .73     -51     -3    -23     52     56 265.6 -29.5  34164  289.63 0861.36
2015 04 09 14 58 34 .98     -59      0    -23     60     64 269.2 -25.4  34160  289.58 0861.36
2015 04 09 14 58 35 .23     -38      0     -1     39     40 269.2  -2.2  34164  289.65 0861.36
2015 04 09 14 58 35 .48    -124     48    -14    134    135 291.3  -6.2  34120  288.91 0861.36
2015 04 09 14 58 35 .73    -113     45      5    122    123 291.7   2.8  34110  288.74 0861.36
2015 04 09 14 58 35 .98    -140      2    -19    141    143 270.8  -7.7  34106  288.65 0861.36
2015 04 09 14 58 36 .24    -116     16    -10    118    119 278.0  -5.2  34100  288.55 0861.36
2015 04 09 14 58 36 .49    -113     40     -5    120    121 289.5  -2.6  34134  289.14 0861.36
2015 04 09 14 58 36 .73    -135     27    -25    138    141 281.5 -10.3  34150  289.41 0861.36
2015 04 09 14 58 36 .98    -113      8    -17    114    116 274.3  -8.8  34164  289.65 0861.36
2015 04 09 14 58 37 .24    -103     -1    -13    104    105 269.2  -7.2  34136  289.18 0861.36
2015 04 09 14 58 37 .50     -39     21     28     45     53 298.9  35.5  34178  289.87 0861.36
2015 04 09 14 58 37 .75     -89      8    -28     90     95 275.2 -17.6  34170  289.74 0861.36
2015 04 09 14 58 37 .99     -48      0     18     49     52 270.0  20.0  34190  290.09 0861.36
2015 04 09 14 58 38 .25      11    -12      6     17     19 136.8  19.2  34188  290.04 0861.36
2015 04 09 14 58 38 .50      10    -29     -1     31     32 160.0  -2.2  34188  290.06 0861.36
2015 04 09 14 58 38 .75    -183     26    -52    185    193 278.4 -15.8  34240  290.92 0861.36
2015 04 09 14 58 39 .00     -66     74     35    100    107 318.6  19.4  34236  290.87 0861.36
2015 04 09 14 58 39 .25     -53     63     12     83     84 319.5   8.5  34232  290.79 0861.37
2015 04 09 14 58 39 .50     -53    -69     43     88     97 217.4  27.3  34250  291.09 0861.37
2015 04 09 14 58 39 .75     -85   -110    -39    140    146 217.8 -15.5  34240  290.92 0861.37
2015 04 09 14 58 40 .00      -7    -21    103     23    105 200.0  88.0  34236  290.86 0861.37
2015 04 09 14 58 40 .25     -21    -17     93     28     97 230.5  82.3  34220  290.60 0861.37
2015 04 09 14 58 40 .50       9    -17     31     20     36 151.0  64.7  34210  290.43 0861.37
2015 04 09 14 58 40 .75      29    -41     48     51     70 144.8  48.0  34216  290.53 0861.37
2015 04 09 14 58 41 .00     -82     13    -52     84     98 279.2 -39.4  34196  290.19 0861.37
2015 04 09 14 58 41 .25     -66     53    -16     85     87 308.6 -10.9  34184  289.97 0861.37
2015 04 09 14 58 41 .51     -50    108     15    120    122 335.1   7.5  34200  290.25 0861.37
2015 04 09 14 58 41 .76     -61    140      7    153    154 336.4   2.9  34206  290.36 0861.37
2015 04 09 14 58 42 .01     -67     92     57    114    127 323.9  28.2  34204  290.33 0861.36
2015 04 09 14 58 42 .26     -84    132      0    157    158 327.4   0.2  34180  289.92 0861.36
2015 04 09 14 58 42 .51     -56    114     44    128    136 333.7  18.9  34182  289.96 0861.36
2015 04 09 14 58 42 .76    -164    164    -29    233    235 315.0  -7.2  34150  289.41 0861.36
2015 04 09 14 58 43 .01    -140    126     -6    189    190 312.2  -2.1  34164  289.65 0861.36
2015 04 09 14 58 43 .26    -197    170    -57    261    268 310.9 -12.4  34142  289.27 0861.36
2015 04 09 14 58 43 .51    -139    140    -88    198    216 315.1 -29.7  34128  289.02 0861.36
2015 04 09 14 58 43 .76    -132    138    -92    192    212 316.3 -31.7  34114  288.80 0861.36
2015 04 09 14 58 44 .01    -125    111    -52    168    175 311.6 -22.8  34130  289.08 0861.36
2015 04 09 14 58 44 .26     -81     89    -43    121    128 317.7 -24.8  34120  288.91 0861.36
2015 04 09 14 58 44 .53     -71     62     -6     95     96 310.9  -3.7  34202  290.30 0861.36
2015 04 09 14 58 44 .77     -68    136     55    153    162 333.3  20.4  34238  290.91 0861.36
2015 04 09 14 58 45 .02     -97    232    -22    252    254 337.3  -5.1  34118  288.87 0861.36
2015 04 09 14 58 45 .28     -78    215    -12    229    230 340.0  -3.1  34128  289.04 0861.36
2015 04 09 14 58 45 .52    -101    209      2    233    234 334.1   0.7  34144  289.29 0861.36
2015 04 09 14 58 45 .77    -102    226    -17    248    249 335.7  -4.1  34120  288.90 0861.36
2015 04 09 14 58 46 .03    -104    238    -30    260    262 336.4  -6.7  34130  289.07 0861.36
2015 04 09 14 58 46 .27    -101    251    -12    271    272 338.1  -2.6  34146  289.34 0861.36
2015 04 09 14 58 46 .53    -150    236    -50    281    286 327.5 -10.1  34138  289.19 0861.36
2015 04 09 14 58 46 .78    -118    193    -49    227    233 328.6 -12.4  34148  289.36 0861.36
2015 04 09 14 58 47 .03    -127    223    -42    257    261 330.4  -9.3  34136  289.17 0861.36
2015 04 09 14 58 47 .28    -103    217    -44    241    246 334.5 -10.5  34136  289.15 0861.36
2015 04 09 14 58 47 .53    -127    208    -49    244    249 328.6 -11.5  34132  289.10 0861.36
2015 04 09 14 58 47 .78     -97    209    -21    231    233 335.1  -5.4  34134  289.13 0861.36
2015 04 09 14 58 48 .03    -111    235    -30    260    262 334.7  -6.7  34094  288.46 0861.36
2015 04 09 14 58 48 .28    -138    223    -51    263    269 328.3 -11.1  34088  288.36 0861.36
2015 04 09 14 58 48 .53    -129    152    -41    200    205 319.7 -11.6  34098  288.53 0861.36
2015 04 09 14 58 48 .78    -167    147    -25    223    225 311.3  -6.5  34126  288.99 0861.36
2015 04 09 14 58 49 .03    -166    159    -29    230    232 313.8  -7.3  34122  288.94 0861.36
2015 04 09 14 58 49 .28    -121    129     10    178    179 316.8   3.3  34126  288.99 0861.36
2015 04 09 14 58 49 .53    -169    163    -39    235    239 314.0  -9.6  34098  288.51 0861.36
2015 04 09 14 58 49 .79     -97    206    -28    228    230 334.7  -7.2  34116  288.84 0861.36
2015 04 09 14 58 50 .03    -116    123     10    170    171 316.8   3.6  34144  289.30 0861.37
2015 04 09 14 58 50 .29     -75    129     26    150    153 329.7   9.9  34150  289.40 0861.37
2015 04 09 14 58 50 .54     -95    190    -18    213    214 333.3  -5.1  34148  289.36 0861.37
2015 04 09 14 58 50 .79    -100    250     -5    270    271 338.1  -1.3  34152  289.42 0861.37
2015 04 09 14 58 51 .04    -117    247    -29    274    276 334.6  -6.2  34126  289.00 0861.37
2015 04 09 14 58 51 .30    -118    231    -30    260    262 332.8  -6.7  34130  289.05 0861.37
2015 04 09 14 58 51 .55    -114    213    -46    242    247 331.7 -10.9  34132  289.10 0861.37
2015 04 09 14 58 51 .80     -94    221     -9    241    242 336.8  -2.3  34162  289.61 0861.37
2015 04 09 14 58 52 .05    -106    208     26    234    236 333.0   6.5  34204  290.32 0861.37
2015 04 09 14 58 52 .30    -129    185     18    226    227 325.0   4.6  34184  289.97 0861.37
2015 04 09 14 58 52 .55     -91    185     -8    207    208 333.7  -2.2  34188  290.06 0861.37
2015 04 09 14 58 52 .80    -146    146      1    207    208 315.0   0.5  34198  290.23 0861.37
2015 04 09 14 58 53 .05    -107    211    -23    237    239 333.0  -5.6  34202  290.29 0861.37
2015 04 09 14 58 53 .30     -98    173     73    200    212 330.4  20.7  34212  290.47 0861.37
2015 04 09 14 58 53 .55    -157    128     98    203    225 309.3  27.3  34234  290.82 0861.37
2015 04 09 14 58 53 .80    -147    138     -2    202    203 313.1  -0.7  34280  291.60 0861.37
2015 04 09 14 58 54 .05    -261    149    -38    301    304 299.8  -7.3  34226  290.70 0861.37
2015 04 09 14 58 54 .31    -149    148    -42    211    216 314.7 -11.3  34226  290.69 0861.37
2015 04 09 14 58 54 .55    -173    166    -20    240    241 313.8  -4.9  34190  290.09 0861.37
2015 04 09 14 58 54 .81    -281     97    -65    298    306 289.1 -12.4  34154  289.46 0861.37
2015 04 09 14 58 55 .05    -214    171    -37    275    278 308.6  -7.7  34156  289.49 0861.37
2015 04 09 14 58 55 .31    -321    151    -56    355    360 295.2  -9.0  34146  289.32 0861.37
2015 04 09 14 58 55 .56    -180    200     -5    270    271 318.1  -1.1  34194  290.15 0861.37
2015 04 09 14 58 55 .81    -246    178    -44    304    308 305.9  -8.2  34170  289.73 0861.37
2015 04 09 14 58 56 .06    -222    179     -5    286    287 308.9  -1.2  34138  289.19 0861.37
2015 04 09 14 58 56 .31    -244    160    -59    292    298 303.3 -11.5  34106  288.66 0861.37
2015 04 09 14 58 56 .56    -244    155    -47    290    294 302.4  -9.3  34108  288.68 0861.37
2015 04 09 14 58 56 .81    -239    138    -56    276    282 300.0 -11.5  34102  288.58 0861.37
2015 04 09 14 58 57 .06    -225    143    -84    267    281 302.4 -17.5  34102  288.58 0861.37
2015 04 09 14 58 57 .31    -191    171    -82    257    269 311.8 -22.9  34108  288.70 0861.37
2015 04 09 14 58 57 .56    -237    185    -27    302    304 308.0  -5.2  34136  289.15 0861.37
2015 04 09 14 58 57 .81    -255    143    -68    293    301 299.3 -13.2  34136  289.17 0861.37
2015 04 09 14 58 58 .06    -104    104     43    148    155 315.0  16.3  34144  289.30 0861.37
2015 04 09 14 58 58 .32    -283    104    -32    302    304 290.2  -6.2  34136  289.17 0861.36
2015 04 09 14 58 58 .57    -333     83    -82    344    354 284.1 -13.4  34110  288.72 0861.36
2015 04 09 14 58 58 .83    -338     -5    -47    339    343 269.1  -7.9  34142  289.28 0861.36
2015 04 09 14 58 59 .08    -160     41    -23    166    168 284.4  -8.0  34146  289.33 0861.36
2015 04 09 14 58 59 .33    -342    125    -74    365    373 290.1 -11.5  34094  288.44 0861.36
2015 04 09 14 58 59 .58    -354    128    -88    377    388 290.0 -13.2  34132  289.10 0861.36
2015 04 09 14 58 59 .82    -402    122    -73    421    428 287.0  -9.9  34116  288.82 0861.36
2015 04 09 14 59 00 .08    -288     83    -47    300    304 286.2  -9.0  34142  289.27 0861.36
2015 04 09 14 59 00 .33    -225     53    -57    232    239 283.3 -13.9  34150  289.41 0861.36
2015 04 09 14 59 00 .58    -212    130     37    249    252 301.5   8.5  34154  289.46 0861.36
2015 04 09 14 59 00 .83    -335    185    -76    383    391 298.9 -11.2  34112  288.76 0861.36
2015 04 09 14 59 01 .08    -333    211    -53    395    399 302.4  -7.7  34110  288.71 0861.37
2015 04 09 14 59 01 .33    -300    203    -72    363    371 304.1 -11.3  34100  288.57 0861.37
2015 04 09 14 59 01 .58    -326    140    -44    355    358 293.3  -7.2  34102  288.60 0861.37
2015 04 09 14 59 01 .83    -286    142    -38    320    323 296.4  -6.9  34118  288.85 0861.37
2015 04 09 14 59 02 .08    -302    176    -67    350    357 300.2 -10.9  34120  288.88 0861.37
2015 04 09 14 59 02 .33    -326    196    -63    381    387 301.0  -9.4  34120  288.91 0861.37
2015 04 09 14 59 02 .58    -373    193    -80    421    429 297.4 -10.8  34106  288.67 0861.37
2015 04 09 14 59 02 .83    -364    179    -86    406    416 296.3 -12.0  34106  288.67 0861.37
2015 04 09 14 59 03 .09    -353    213    -55    413    417 301.2  -7.6  34110  288.72 0861.37
2015 04 09 14 59 03 .33    -331    209    -36    392    394 302.2  -5.4  34122  288.93 0861.37
2015 04 09 14 59 03 .59    -341    177    -65    385    391 297.5  -9.7  34106  288.66 0861.37
2015 04 09 14 59 03 .84    -317    218    -65    385    391 304.5  -9.7  34120  288.91 0861.37
2015 04 09 14 59 04 .09    -302    176    -85    350    361 300.3 -13.7  34114  288.79 0861.37
2015 04 09 14 59 04 .34    -282    179    -51    335    339 302.4  -8.7  34128  289.04 0861.37
2015 04 09 14 59 04 .59    -262    189    -24    324    325 305.9  -4.4  34126  288.98 0861.36
2015 04 09 14 59 04 .84    -161    151     -4    222    223 313.2  -1.1  34130  289.08 0861.36
2015 04 09 14 59 05 .09    -175     96    -40    200    204 298.9 -11.3  34166  289.67 0861.36
2015 04 09 14 59 05 .35    -232     79    -33    246    249 289.0  -7.7  34154  289.47 0861.36
2015 04 09 14 59 05 .60    -241    100    -33    262    265 292.6  -7.3  34138  289.19 0861.36
2015 04 09 14 59 05 .85    -164     96    -24    191    193 300.4  -7.2  34182  289.96 0861.36
2015 04 09 14 59 06 .10    -202     85    -15    220    221 292.8  -4.1  34166  289.67 0861.36
2015 04 09 14 59 06 .35    -176    168    -26    244    246 313.6  -6.1  34170  289.75 0861.36
2015 04 09 14 59 06 .60    -262     95    -48    279    284 290.0  -9.8  34154  289.46 0861.37
2015 04 09 14 59 06 .85    -218    136    -40    258    262 302.0  -8.8  34148  289.37 0861.37
2015 04 09 14 59 07 .10    -278    194    -37    340    343 304.9  -6.2  34178  289.86 0861.37
2015 04 09 14 59 07 .36    -185    108    -24    215    217 300.4  -6.5  34194  290.16 0861.37
2015 04 09 14 59 07 .60    -299    136    -38    329    332 294.4  -6.7  34164  289.65 0861.37
2015 04 09 14 59 07 .85    -368    161    -73    402    409 293.7 -10.4  34118  288.85 0861.37
2015 04 09 14 59 08 .11    -370    216   -111    429    444 300.3 -14.5  34148  289.38 0861.37
2015 04 09 14 59 08 .36    -360    199    -62    412    417 298.9  -8.6  34140  289.24 0861.37
2015 04 09 14 59 08 .61    -337    214    -43    400    403 302.5  -6.2  34128  289.04 0861.37
2015 04 09 14 59 08 .86    -270    294    -30    400    402 317.4  -4.4  34134  289.13 0861.37
2015 04 09 14 59 09 .11    -192    249      1    315    316 322.4   0.2  34148  289.37 0861.37
2015 04 09 14 59 09 .36    -279    234    -20    365    366 309.9  -3.2  34080  288.23 0861.37
2015 04 09 14 59 09 .61    -303    260    -26    400    401 310.6  -3.7  34100  288.55 0861.37
2015 04 09 14 59 09 .86    -323    253    -11    411    412 308.0  -1.6  34116  288.82 0861.37
2015 04 09 14 59 10 .11    -253    287    -48    383    387 318.6  -7.2  34126  288.99 0861.37
2015 04 09 14 59 10 .36    -320    263    -25    415    416 309.5  -3.5  34108  288.68 0861.37
2015 04 09 14 59 10 .61    -318    269    -50    417    421 310.2  -6.9  34120  288.90 0861.37
2015 04 09 14 59 10 .86    -273    256    -20    375    376 313.2  -3.2  34148  289.38 0861.37
2015 04 09 14 59 11 .11    -275    225      4    356    357 309.3   0.7  34132  289.10 0861.37
2015 04 09 14 59 11 .36    -242    224    -31    330    332 312.8  -5.4  34142  289.26 0861.37
2015 04 09 14 59 11 .61    -199    220     -6    297    298 317.9  -1.2  34146  289.34 0861.37
2015 04 09 14 59 11 .86    -183    198     18    270    271 317.2   3.9  34144  289.31 0861.37
2015 04 09 14 59 12 .11    -152    232    -18    278    279 326.6  -3.9  34144  289.31 0861.37
2015 04 09 14 59 12 .38    -250    248    -13    353    354 314.8  -2.2  34096  288.50 0861.37
2015 04 09 14 59 12 .63    -256    240     -3    352    353 313.2  -0.6  34090  288.40 0861.37
2015 04 09 14 59 12 .88    -210    280    -51    351    355 323.2  -8.4  34086  288.32 0861.37
2015 04 09 14 59 13 .13    -190    276    -77    336    345 325.4 -12.9  34070  288.06 0861.37
2015 04 09 14 59 13 .38    -228    272    -84    356    366 320.0 -13.3  34068  288.03 0861.37
2015 04 09 14 59 13 .63    -199    259    -71    327    335 322.4 -12.4  34072  288.08 0861.37
2015 04 09 14 59 13 .88    -175    328    -77    372    381 331.9 -11.8  34084  288.28 0861.37
2015 04 09 14 59 14 .13    -201    246    -42    318    321 320.8  -7.6  34098  288.51 0861.37
2015 04 09 14 59 14 .38    -254    244    -36    353    355 313.9  -5.9  34094  288.45 0861.37
2015 04 09 14 59 14 .63    -272    244    -34    366    368 311.9  -5.3  34096  288.49 0861.36
2015 04 09 14 59 14 .88    -259    252    -89    362    373 314.3 -13.9  34066  287.98 0861.36
2015 04 09 14 59 15 .13    -244    233    -59    338    344 313.6  -9.9  34068  288.00 0861.36
2015 04 09 14 59 15 .38    -190    230    -32    299    301 320.4  -6.2  34086  288.31 0861.36
2015 04 09 14 59 15 .63    -206    281    -71    349    357 323.8 -11.6  34084  288.30 0861.36
2015 04 09 14 59 15 .88    -221    239    -76    326    335 317.2 -13.2  34080  288.22 0861.36
2015 04 09 14 59 16 .13    -212    232    -64    315    322 317.7 -11.6  34086  288.31 0861.36
2015 04 09 14 59 16 .38    -179    273    -69    327    335 326.6 -12.0  34084  288.27 0861.36
2015 04 09 14 59 16 .64    -172    270    -78    321    331 327.4 -13.8  34074  288.12 0861.36
2015 04 09 14 59 16 .88    -225    258    -72    343    351 319.0 -11.9  34074  288.13 0861.36
2015 04 09 14 59 17 .14    -195    272    -68    335    343 324.3 -11.6  34080  288.22 0861.36
2015 04 09 14 59 17 .39    -209    252    -63    328    335 320.3 -11.0  34084  288.27 0861.37
2015 04 09 14 59 17 .64    -168    273    -61    321    327 328.3 -10.8  34094  288.44 0861.37
2015 04 09 14 59 17 .89    -137    342    -11    369    370 338.2  -1.7  34094  288.44 0861.37
2015 04 09 14 59 18 .14    -126    335    -19    359    360 339.3  -3.2  34094  288.45 0861.37
2015 04 09 14 59 18 .39    -108    319     -2    337    338 341.3  -0.4  34094  288.45 0861.37
2015 04 09 14 59 18 .64    -120    317     -8    340    341 339.2  -1.4  34102  288.59 0861.37
2015 04 09 14 59 18 .89    -121    319    -31    342    344 339.2  -5.2  34106  288.67 0861.37
2015 04 09 14 59 19 .15    -106    308    -35    326    328 340.9  -6.2  34112  288.76 0861.38
2015 04 09 14 59 19 .40     -67    261     -5    270    271 345.5  -1.3  34104  288.63 0861.38
2015 04 09 14 59 19 .65     -50    202     41    209    214 346.0  11.1  34128  289.04 0861.38
2015 04 09 14 59 19 .90    -119    215    -31    247    249 331.0  -7.2  34142  289.27 0861.38
2015 04 09 14 59 20 .15    -119    170    -34    208    211 325.0  -9.3  34138  289.19 0861.38
2015 04 09 14 59 20 .40    -105    190    -19    218    219 331.0  -5.2  34162  289.62 0861.38
2015 04 09 14 59 20 .65    -197    150     -6    248    249 307.3  -1.6  34138  289.20 0861.38
2015 04 09 14 59 20 .91     -76    149     30    168    171 333.0  10.1  34146  289.35 0861.38
2015 04 09 14 59 21 .16    -174    144     28    226    228 309.6   7.1  34136  289.16 0861.38
2015 04 09 14 59 21 .41    -223    186    -48    291    295 309.8  -9.4  34116  288.81 0861.38
2015 04 09 14 59 21 .65    -339    176    -89    383    394 297.5 -13.1  34120  288.89 0861.38
2015 04 09 14 59 21 .91    -299    188    -49    354    358 302.2  -7.9  34150  289.40 0861.38
2015 04 09 14 59 22 .16    -317    176    -51    363    367 299.0  -8.1  34162  289.59 0861.38
2015 04 09 14 59 22 .41    -293    196    -55    353    358 303.9  -8.9  34166  289.67 0861.38
2015 04 09 14 59 22 .66    -274    202    -40    341    344 306.4  -6.7  34162  289.60 0861.38
2015 04 09 14 59 22 .91    -216    196    -10    292    293 312.2  -2.1  34162  289.61 0861.38
2015 04 09 14 59 23 .16    -133    183     19    227    228 323.9   4.9  34174  289.80 0861.38
2015 04 09 14 59 23 .41    -227    211    -39    310    313 312.9  -7.2  34136  289.17 0861.38
2015 04 09 14 59 23 .66    -153    185     24    241    243 320.4   5.9  34132  289.10 0861.38
2015 04 09 14 59 23 .92    -135    171     41    218    222 321.7  10.8  34160  289.58 0861.38
2015 04 09 14 59 24 .16     -97    187     75    211    224 332.6  19.6  34194  290.16 0861.38
2015 04 09 14 59 24 .41    -227    213     12    312    313 313.1   2.3  34164  289.64 0861.38
2015 04 09 14 59 24 .66    -291    200    -20    354    355 304.5  -3.3  34122  288.94 0861.38
2015 04 09 14 59 24 .92    -312    186    -64    364    370 300.8 -10.1  34100  288.54 0861.38
2015 04 09 14 59 25 .17    -244    273    -63    367    373 318.2  -9.8  34104  288.62 0861.38
2015 04 09 14 59 25 .42    -225    271    -79    353    362 320.4 -12.7  34104  288.62 0861.38
2015 04 09 14 59 25 .67    -229    177    -16    290    291 307.8  -3.2  34110  288.73 0861.38
2015 04 09 14 59 25 .92    -265    257    -66    370    377 314.1 -10.2  34118  288.86 0861.38
2015 04 09 14 59 26 .18    -215    298    -61    368    374 324.1  -9.5  34130  289.08 0861.38
2015 04 09 14 59 26 .43    -265    202    -13    334    335 307.3  -2.2  34118  288.86 0861.38
2015 04 09 14 59 26 .68    -264    193    -57    328    333 306.2  -9.9  34104  288.64 0861.38
2015 04 09 14 59 26 .93     -94    241     13    259    260 338.6   2.9  34146  289.32 0861.38
2015 04 09 14 59 27 .18    -204    198     24    285    287 314.2   4.9  34118  288.85 0861.38
2015 04 09 14 59 27 .43    -235    217    -33    321    323 312.7  -5.9  34114  288.80 0861.38
2015 04 09 14 59 27 .68    -232    203     30    309    311 311.1   5.7  34124  288.97 0861.38
2015 04 09 14 59 27 .93    -170    187     26    253    255 317.7   5.9  34128  289.03 0861.38
2015 04 09 14 59 28 .18    -276    215    -19    350    351 307.9  -3.1  34118  288.86 0861.38
2015 04 09 14 59 28 .43    -259    243    -37    356    358 313.1  -6.0  34120  288.88 0861.38
2015 04 09 14 59 28 .69    -139    208     12    251    252 326.2   2.9  34152  289.42 0861.38
2015 04 09 14 59 28 .93    -314    246    -38    400    402 308.1  -5.5  34090  288.40 0861.38
2015 04 09 14 59 29 .19    -293    263   -118    395    413 311.9 -16.6  34068  288.01 0861.38
2015 04 09 14 59 29 .43    -288    271   -102    396    410 313.2 -14.5  34098  288.53 0861.38
2015 04 09 14 59 29 .68    -260    244   -127    357    380 313.1 -19.7  34076  288.15 0861.38
2015 04 09 14 59 29 .94    -248    279    -90    374    385 318.3 -13.6  34094  288.45 0861.38
2015 04 09 14 59 30 .19    -218    232    -68    319    327 316.7 -12.0  34078  288.17 0861.38
2015 04 09 14 59 30 .44    -200    226    -69    302    310 318.5 -12.9  34070  288.05 0861.38
2015 04 09 14 59 30 .69    -224    211    -66    309    317 313.3 -12.2  34084  288.29 0861.38
2015 04 09 14 59 30 .94    -229    189    -49    298    303 309.5  -9.4  34100  288.54 0861.38
2015 04 09 14 59 31 .19    -227    228    -49    322    326 315.1  -8.8  34102  288.59 0861.38
2015 04 09 14 59 31 .44    -166    239    -52    292    297 325.3 -10.1  34108  288.68 0861.38
2015 04 09 14 59 31 .69    -146    212    -57    258    265 325.5 -12.6  34108  288.70 0861.38
2015 04 09 14 59 31 .94    -146    139      9    202    203 313.6   2.8  34110  288.74 0861.37
2015 04 09 14 59 32 .19    -102    203    -19    228    229 333.3  -4.9  34110  288.72 0861.37
2015 04 09 14 59 32 .44    -136    287    -41    318    321 334.5  -7.5  34122  288.93 0861.37
2015 04 09 14 59 32 .69     -89    281    -21    295    296 342.4  -4.1  34124  288.97 0861.37
2015 04 09 14 59 32 .94     -94    336    -40    350    353 344.3  -6.6  34130  289.08 0861.37
2015 04 09 14 59 33 .20    -142    331    -85    361    371 336.7 -13.3  34132  289.10 0861.37
2015 04 09 14 59 33 .45    -112    308    -38    329    332 339.9  -6.7  34136  289.18 0861.37
2015 04 09 14 59 33 .70     -66    337     14    344    345 348.8   2.4  34164  289.64 0861.37
2015 04 09 14 59 33 .95    -100    383     14    396    397 345.3   2.1  34136  289.18 0861.37
2015 04 09 14 59 34 .20     -73    309    -21    318    319 346.7  -3.8  34136  289.15 0861.37
2015 04 09 14 59 34 .46     -62    310     44    317    320 348.7   7.9  34140  289.22 0861.37
2015 04 09 14 59 34 .71     -68    299      4    307    308 347.1   0.8  34138  289.19 0861.37
2015 04 09 14 59 34 .96    -151    379    -48    409    412 338.2  -6.8  34142  289.27 0861.37
2015 04 09 14 59 35 .21    -201    353    -73    407    414 330.3 -10.3  34142  289.26 0861.37
2015 04 09 14 59 35 .46    -188    380    -53    425    429 333.6  -7.2  34128  289.02 0861.37
2015 04 09 14 59 35 .71    -191    412    -58    455    459 335.1  -7.3  34118  288.85 0861.38
2015 04 09 14 59 35 .96    -237    396    -94    462    472 329.1 -11.6  34146  289.32 0861.38
2015 04 09 14 59 36 .21    -281    312    -81    420    428 318.0 -11.0  34124  288.95 0861.38
2015 04 09 14 59 36 .46    -248    287    -90    380    391 319.1 -13.4  34090  288.40 0861.38
2015 04 09 14 59 36 .71    -232    232   -100    329    344 315.0 -16.9  34058  287.86 0861.38
2015 04 09 14 59 36 .97    -222    184    -90    289    303 309.6 -17.3  34070  288.05 0861.38
2015 04 09 14 59 37 .21    -232    168    -67    287    295 305.9 -13.3  34084  288.29 0861.38
2015 04 09 14 59 37 .46    -200    208      1    289    290 316.1   0.2  34160  289.56 0861.38
2015 04 09 14 59 37 .71    -188    202     26    277    279 317.0   5.4  34178  289.86 0861.38
2015 04 09 14 59 37 .97    -187    199      2    274    275 316.7   0.5  34182  289.93 0861.38
2015 04 09 14 59 38 .22    -200    182     -1    271    272 312.3  -0.3  34206  290.36 0861.38
2015 04 09 14 59 38 .47    -229    175      3    289    290 307.5   0.7  34200  290.26 0861.38
2015 04 09 14 59 38 .72    -224    162    -10    277    278 305.9  -2.2  34194  290.14 0861.38
2015 04 09 14 59 38 .96    -182    199      8    270    271 317.6   1.7  34162  289.61 0861.38
2015 04 09 14 59 39 .21    -271    212    -52    345    349 308.1  -8.6  34064  287.93 0861.38
2015 04 09 14 59 39 .47    -231    192    -54    301    306 309.8 -10.3  34052  287.75 0861.38
2015 04 09 14 59 39 .71    -216    190    -66    288    296 311.3 -12.9  34056  287.80 0861.38
2015 04 09 14 59 39 .98    -224    164    -60    278    285 306.2 -12.2  34062  287.90 0861.38
2015 04 09 14 59 40 .24    -222    151    -45    269    273 304.2  -9.6  34108  288.70 0861.38
2015 04 09 14 59 40 .48    -247    163    -38    297    300 303.5  -7.3  34134  289.14 0861.38
2015 04 09 14 59 40 .73    -215    143    -30    259    261 303.7  -6.7  34170  289.75 0861.38
2015 04 09 14 59 40 .98    -183    181    -10    258    259 314.7  -2.2  34200  290.24 0861.38
2015 04 09 14 59 41 .23    -245    177    -43    303    307 305.9  -8.2  34122  288.92 0861.38
2015 04 09 14 59 41 .48    -205    180    -19    274    275 311.3  -4.1  34110  288.73 0861.38
2015 04 09 14 59 41 .73    -118    163     36    202    206 324.2  10.3  34100  288.57 0861.38
2015 04 09 14 59 41 .98    -214    208    -28    299    301 314.2  -5.4  34080  288.22 0861.39
2015 04 09 14 59 42 .23    -151    231    -45    277    281 326.8  -9.3  34090  288.39 0861.39
2015 04 09 14 59 42 .48    -176    226    -52    287    292 322.2 -10.4  34066  287.99 0861.39
2015 04 09 14 59 42 .74    -189    204    -56    279    285 317.2 -11.3  34074  288.12 0861.39
2015 04 09 14 59 42 .98    -140    192     -1    238    239 323.9  -0.3  34088  288.36 0861.38
2015 04 09 14 59 43 .24    -162    172    -25    237    239 316.6  -6.2  34072  288.07 0861.38
2015 04 09 14 59 43 .49    -174    196    -31    263    265 318.3  -6.9  34064  287.93 0861.38
2015 04 09 14 59 43 .74    -156    201    -35    255    258 322.2  -8.0  34062  287.90 0861.38
2015 04 09 14 59 43 .99    -203    183    -39    274    277 312.0  -8.3  34054  287.77 0861.38
2015 04 09 14 59 44 .24    -176    213    -63    277    285 320.4 -12.9  34048  287.66 0861.38
2015 04 09 14 59 44 .49    -179    217    -75    282    292 320.4 -15.0  34048  287.66 0861.38
2015 04 09 14 59 44 .74    -183    191    -76    265    276 316.3 -16.0  34054  287.78 0861.38
2015 04 09 14 59 44 .99    -160    170    -65    234    242 316.8 -20.2  34062  287.90 0861.38
2015 04 09 14 59 45 .24    -119    182    -68    218    229 326.6 -17.5  34070  288.04 0861.38
2015 04 09 14 59 45 .49    -138    136    -58    194    203 314.6 -16.6  34070  288.06 0861.38
2015 04 09 14 59 45 .74    -155    120    -35    197    201 307.8 -10.3  34082  288.26 0861.38
2015 04 09 14 59 45 .99    -183    133    -34    227    230 306.0  -8.6  34076  288.14 0861.38
2015 04 09 14 59 46 .24    -174    157     -2    235    236 312.2  -0.5  34068  288.00 0861.38
2015 04 09 14 59 46 .49     -58    118     22    132    134 333.7   9.5  34080  288.21 0861.38
2015 04 09 14 59 46 .75    -103    155    -20    187    189 326.4  -6.2  34076  288.16 0861.38
2015 04 09 14 59 47 .00    -109    231    -18    256    257 334.7  -4.1  34064  287.93 0861.38
2015 04 09 14 59 47 .26     -87    233      3    249    250 339.5   0.7  34072  288.07 0861.38
2015 04 09 14 59 47 .50     -70    236      3    247    248 343.3   0.8  34078  288.19 0861.39
2015 04 09 14 59 47 .76     -69    209    -20    221    222 341.5  -5.2  34092  288.43 0861.39
2015 04 09 14 59 48 .01     -80    195     -4    211    212 337.7  -1.3  34100  288.55 0861.39
2015 04 09 14 59 48 .26     -91    192     -4    213    214 334.6  -1.1  34096  288.48 0861.39
2015 04 09 14 59 48 .51     -49    234     56    240    247 348.2  13.1  34092  288.41 0861.39
2015 04 09 14 59 48 .76     -90    294    -16    308    309 343.0  -3.1  34082  288.26 0861.39
2015 04 09 14 59 49 .00    -104    273    -16    293    294 339.1  -3.2  34062  287.92 0861.39
2015 04 09 14 59 49 .26     -83    246      3    260    261 341.3   0.8  34060  287.88 0861.39
2015 04 09 14 59 49 .51     -84    228     -9    244    245 339.7  -2.2  34078  288.19 0861.39
2015 04 09 14 59 49 .76     -98    245    -10    264    265 338.2  -2.2  34092  288.41 0861.39
2015 04 09 14 59 50 .01     -90    233     -4    250    251 338.8  -1.1  34094  288.44 0861.39
2015 04 09 14 59 50 .26     -83    227     11    242    243 339.9   2.8  34094  288.44 0861.39
2015 04 09 14 59 50 .53    -119    236    -22    265    267 333.3  -4.9  34074  288.12 0861.39
2015 04 09 14 59 50 .76    -123    240    -34    270    273 332.8  -7.3  34072  288.09 0861.39
2015 04 09 14 59 51 .01    -122    228    -39    259    262 331.9  -8.6  34066  287.99 0861.39
2015 04 09 14 59 51 .26     -88    261     -2    276    277 341.3  -0.5  34072  288.09 0861.39
2015 04 09 14 59 51 .51     -70    253     17    263    264 344.4   3.9  34070  288.04 0861.39
2015 04 09 14 59 51 .76     -72    253     22    264    266 344.0   4.9  34066  287.99 0861.39
2015 04 09 14 59 52 .01     -62    255     32    263    266 346.2   7.1  34064  287.93 0861.39
2015 04 09 14 59 52 .26     -50    247     12    253    254 348.4   2.8  34062  287.90 0861.39
2015 04 09 14 59 52 .51     -77    229     -5    242    243 341.3  -1.3  34056  287.82 0861.39
2015 04 09 14 59 52 .76     -76    227    -13    240    241 341.3  -3.1  34050  287.71 0861.39
2015 04 09 14 59 53 .02     -76    227    -13    240    241 341.3  -3.1  34050  287.71 0861.38
2015 04 09 14 59 53 .27     -77    216    -22    230    232 340.2  -5.6  34052  287.76 0861.38
2015 04 09 14 59 53 .52     -79    213    -35    228    231 339.5  -8.8  34062  287.92 0861.38
2015 04 09 14 59 53 .77     -79    197    -50    213    219 338.2 -13.3  34052  287.76 0861.38
2015 04 09 14 59 54 .03     -78    185    -38    201    205 337.1 -10.9  34058  287.86 0861.38
2015 04 09 14 59 54 .28     -68    166    -51    180    188 337.7 -15.8  34064  287.94 0861.38
2015 04 09 14 59 54 .53     -63    152    -45    165    172 337.3 -15.5  34064  287.94 0861.38
2015 04 09 14 59 54 .78     -56    147    -22    158    160 339.1  -8.0  34066  287.98 0861.38
2015 04 09 14 59 55 .03     -51    163    -23    172    174 342.4  -7.7  34066  287.99 0861.38
2015 04 09 14 59 55 .28     -64    187     -9    198    199 341.1  -2.6  34080  288.21 0861.38
2015 04 09 14 59 55 .54     -67    193    -20    205    207 340.8  -5.6  34070  288.04 0861.38
2015 04 09 14 59 55 .78     -58    159     -9    170    171 339.7  -3.1  34082  288.26 0861.38
2015 04 09 14 59 56 .03     -88    128    -49    156    164 325.3 -17.6  34096  288.50 0861.38
2015 04 09 14 59 56 .29     -56    151     -7    162    163 339.5  -2.8  34108  288.70 0861.38
2015 04 09 14 59 56 .53     -99    140    -28    172    175 324.8  -9.3  34102  288.58 0861.38
2015 04 09 14 59 56 .78    -112    160    -36    196    200 325.0 -10.5  34090  288.38 0861.38
2015 04 09 14 59 57 .04    -131    158    -42    206    211 320.4 -11.5  34088  288.36 0861.38
2015 04 09 14 59 57 .29    -106    152    -37    186    190 325.0 -11.5  34084  288.30 0861.38
2015 04 09 14 59 57 .54     -84    111    -44    140    147 323.0 -17.5  34088  288.35 0861.38
2015 04 09 14 59 57 .79    -101     85    -21    133    135 310.0  -9.3  34094  288.47 0861.38
2015 04 09 14 59 58 .04     -65    125    -39    142    148 332.4 -15.5  34094  288.47 0861.38
2015 04 09 14 59 58 .29     -99    105    -41    145    150 316.8 -20.2  34094  288.45 0861.38
2015 04 09 14 59 58 .54     -92    111    -39    145    151 320.3 -15.0  34104  288.62 0861.38
2015 04 09 14 59 58 .79     -67    121    -37    139    144 331.0 -15.0  34112  288.77 0861.38
2015 04 09 14 59 59 .04     -42    128    -24    135    138 341.7 -10.3  34136  289.16 0861.38
2015 04 09 14 59 59 .29     -36    115     -8    121    122 342.6  -4.1  34156  289.52 0861.38
2015 04 09 14 59 59 .55     -23     91      0     94     95 345.7   0.2  34164  289.63 0861.38
2015 04 09 14 59 59 .79     -64    119     -6    136    137 331.9  -2.6  34188  290.06 0861.38
2015 04 09 15 00 00 .04     -65    143      0    158    159 335.5  -0.3  34218  290.57 0861.38
2015 04 09 15 00 00 .29     -46    113     19    123    125 337.7   8.9  34220  290.60 0861.38
2015 04 09 15 00 00 .54     -59    178    -10    188    189 341.5  -3.1  34206  290.35 0861.38
2015 04 09 15 00 00 .79     -47    189     16    195    196 346.0   4.9  34196  290.18 0861.38
2015 04 09 15 00 01 .06     -41    113     23    121    124 339.9  11.0  34204  290.33 0861.37
2015 04 09 15 00 01 .31     -36    173     -3    177    178 348.0  -1.3  34218  290.55 0861.37
2015 04 09 15 00 01 .56     -86    108     93    139    167 321.3  37.0  34210  290.43 0861.37
2015 04 09 15 00 01 .81     -72     77     -1    106    107 316.7  -0.7  34192  290.11 0861.37
2015 04 09 15 00 02 .06    -196     39    -43    200    205 281.5 -12.2  34110  288.72 0861.37
2015 04 09 15 00 02 .31    -153     31    -13    157    158 281.5  -4.9  34130  289.08 0861.37
2015 04 09 15 00 02 .56    -145     59     -1    157    158 292.2  -0.5  34130  289.06 0861.37
2015 04 09 15 00 02 .81    -233     35    -30    236    238 278.6  -7.3  34110  288.73 0861.37
2015 04 09 15 00 03 .06    -173     15    -38    174    179 275.2 -12.4  34124  288.96 0861.37
2015 04 09 15 00 03 .31     -76      5    -20     77     80 274.4 -15.0  34142  289.28 0861.37
2015 04 09 15 00 03 .56     -48     25    -12     55     57 297.1 -12.4  34142  289.26 0861.37
2015 04 09 15 00 03 .81      38    -36     10     53     55 133.1  11.0  34142  289.26 0861.36
2015 04 09 15 00 04 .06     -77     99    -58    126    138 322.2 -31.5  34142  289.26 0861.36
2015 04 09 15 00 04 .31     -49     -2     39     50     63 267.4  42.7  34148  289.36 0861.36
2015 04 09 15 00 04 .57    -209      4    -59    210    219 271.3 -15.8  34128  289.02 0861.36
2015 04 09 15 00 04 .82    -177     36    -20    181    183 281.5  -6.5  34126  289.01 0861.36
2015 04 09 15 00 05 .07    -202     60    -28    211    213 286.8  -7.7  34130  289.06 0861.36
2015 04 09 15 00 05 .32    -144     29    -18    147    149 281.4  -7.3  34170  289.74 0861.36
2015 04 09 15 00 05 .57    -173     63    -32    185    188 290.2 -10.1  34172  289.79 0861.36
2015 04 09 15 00 05 .82    -172     50    -21    180    182 286.4  -6.7  34146  289.33 0861.36
2015 04 09 15 00 06 .07    -225     67    -18    235    236 286.8  -4.6  34136  289.17 0861.36
2015 04 09 15 00 06 .32    -222     93    -54    241    248 292.8 -12.6  34132  289.10 0861.36
2015 04 09 15 00 06 .57    -201     79    -43    217    222 291.5 -11.3  34158  289.55 0861.36
2015 04 09 15 00 06 .82    -177     86    -38    198    202 296.0 -10.9  34154  289.46 0861.36
2015 04 09 15 00 07 .07    -179     88    -24    200    202 296.4  -6.9  34158  289.53 0861.36
2015 04 09 15 00 07 .32    -214     70    -29    226    228 288.2  -7.3  34108  288.69 0861.36
2015 04 09 15 00 07 .57    -215     23    -34    217    220 276.2  -9.0  34098  288.52 0861.36
2015 04 09 15 00 07 .83    -205     69    -21    217    219 288.6  -5.6  34104  288.64 0861.36
2015 04 09 15 00 08 .08    -216     57    -33    224    227 285.0  -8.6  34110  288.72 0861.36
2015 04 09 15 00 08 .34    -199     34    -37    202    206 279.7 -10.5  34120  288.89 0861.36
2015 04 09 15 00 08 .58    -195     65    -26    206    208 288.4  -7.2  34124  288.97 0861.36
2015 04 09 15 00 08 .84    -219     67    -63    230    239 287.1 -15.5  34132  289.10 0861.36
2015 04 09 15 00 09 .09    -198     52    -37    205    209 284.8 -10.3  34132  289.09 0861.36
2015 04 09 15 00 09 .34    -151     89    -29    176    179 300.7  -9.6  34170  289.75 0861.36
2015 04 09 15 00 09 .58    -151     94    -58    179    189 302.0 -17.9  34176  289.85 0861.36
2015 04 09 15 00 09 .84    -150     30    -29    154    157 281.5 -10.9  34136  289.18 0861.36
2015 04 09 15 00 10 .09     -95     12     -9     96     97 277.5  -5.6  34148  289.36 0861.36
2015 04 09 15 00 10 .34    -160     21    -13    162    163 277.7  -4.9  34158  289.53 0861.36
2015 04 09 15 00 10 .59    -162    -12    -51    163    172 265.6 -17.6  34162  289.62 0861.36
2015 04 09 15 00 10 .84    -177     15    -46    178    184 275.0 -14.5  34156  289.50 0861.36
2015 04 09 15 00 11 .09    -208     21    -42    210    215 275.9 -11.3  34162  289.60 0861.36
2015 04 09 15 00 11 .34    -175     13    -34    176    180 274.3 -11.1  34172  289.77 0861.36
2015 04 09 15 00 11 .59    -201     54    -24    209    211 285.0  -6.7  34166  289.69 0861.36
2015 04 09 15 00 11 .84    -140     66     11    156    157 295.4   4.2  34166  289.69 0861.36
2015 04 09 15 00 12 .09    -129    -36    -26    135    138 254.1 -10.9  34176  289.84 0861.35
2015 04 09 15 00 12 .34     -71    -45     -3     85     86 237.6  -2.2  34164  289.65 0861.35
2015 04 09 15 00 12 .60     -83    -44    -28     95     99 242.0 -21.2  34170  289.74 0861.35
2015 04 09 15 00 12 .84     -47      2     28     48     55 272.6  34.4  34202  290.30 0861.35
2015 04 09 15 00 13 .09      21     17     41     28     49  50.5  62.6  34222  290.64 0861.35
2015 04 09 15 00 13 .34     -53     13     -7     55     56 284.2  -7.3  34214  290.50 0861.35
2015 04 09 15 00 13 .60     -80     35     -3     88     89 294.0  -2.2  34240  290.94 0861.35
2015 04 09 15 00 13 .84     -73     24      3     77     78 288.2   2.9  34218  290.57 0861.35
2015 04 09 15 00 14 .10    -184     13    -18    185    186 274.1  -5.6  34116  288.84 0861.34
2015 04 09 15 00 14 .35    -173     48    -40    180    185 285.5 -12.6  34098  288.53 0861.34
2015 04 09 15 00 14 .60    -157     12     -3    158    159 274.4  -1.1  34116  288.82 0861.34
2015 04 09 15 00 14 .86    -163     32     -9    167    168 281.2  -3.1  34096  288.48 0861.34
2015 04 09 15 00 15 .11    -196     32    -28    199    202 279.5  -8.0  34088  288.35 0861.34
2015 04 09 15 00 15 .36    -155      0    -32    156    160 270.4 -11.6  34088  288.36 0861.34
2015 04 09 15 00 15 .61    -132     24     -4    135    136 280.6  -1.8  34096  288.48 0861.34
2015 04 09 15 00 15 .86    -174     35    -42    178    183 281.5 -13.4  34100  288.55 0861.35
2015 04 09 15 00 16 .11    -190      3    -28    191    194 271.0  -8.6  34082  288.25 0861.35
2015 04 09 15 00 16 .36    -139     30    -39    143    149 282.4 -15.5  34080  288.23 0861.35
2015 04 09 15 00 16 .61     -77      5     10     78     79 274.3   7.5  34106  288.65 0861.35
2015 04 09 15 00 16 .86       7      2     34      8     34  71.4  89.0  34112  288.77 0861.35
2015 04 09 15 00 17 .11      16    -20     16     26     30 140.4  35.5  34118  288.87 0861.35
2015 04 09 15 00 17 .36     -76    -29    -39     82     90 249.2 -31.6  34092  288.43 0861.35
2015 04 09 15 00 17 .61     -21    -32     32     39     50 212.6  43.7  34098  288.53 0861.34
2015 04 09 15 00 17 .86       0    -24     34     25     42 180.9  59.4  34106  288.65 0861.34
2015 04 09 15 00 18 .11     -45     13    -37     47     59 286.8 -47.1  34096  288.50 0861.34
2015 04 09 15 00 18 .38     -59     -1    -24     60     64 268.3 -27.4  34102  288.60 0861.34
2015 04 09 15 00 18 .62     -18     40    -16     45     48 335.5 -19.7  34104  288.64 0861.34
2015 04 09 15 00 18 .87     -95     -4    -31     96    102 267.4 -18.1  34092  288.42 0861.34
2015 04 09 15 00 19 .12     -88      7     -8     89     90 274.8  -5.6  34096  288.50 0861.34
2015 04 09 15 00 19 .37    -206      3    -26    207    209 271.0  -7.3  34072  288.08 0861.34
2015 04 09 15 00 19 .62    -182      1    -54    183    192 270.4 -16.6  34070  288.06 0861.34
2015 04 09 15 00 19 .86    -180      0    -57    181    189 270.1 -23.0  34054  287.77 0861.34
2015 04 09 15 00 20 .12    -184      0    -60    185    194 270.1 -23.6  34052  287.74 0861.34
2015 04 09 15 00 20 .37    -169     24    -54    171    180 278.1 -17.6  34060  287.89 0861.34
2015 04 09 15 00 20 .62    -163     12    -48    164    170 274.4 -21.2  34058  287.84 0861.34
2015 04 09 15 00 20 .87    -145      0    -50    146    155 270.4 -19.1  34046  287.65 0861.34
2015 04 09 15 00 21 .12    -146      7    -45    147    153 273.0 -22.3  34050  287.70 0861.34
2015 04 09 15 00 21 .37    -155     16    -48    156    163 276.1 -22.3  34054  287.79 0861.34
2015 04 09 15 00 21 .62    -150     20    -45    152    159 277.9 -16.8  34062  287.92 0861.34
2015 04 09 15 00 21 .88    -153     22    -41    155    161 278.4 -15.0  34056  287.81 0861.34
2015 04 09 15 00 22 .13    -151     28    -38    154    159 280.6 -13.9  34060  287.89 0861.35
2015 04 09 15 00 22 .38    -164     23    -49    166    174 278.1 -16.4  34064  287.94 0861.35
2015 04 09 15 00 22 .63    -197     32    -34    200    204 279.5  -9.8  34060  287.89 0861.35
2015 04 09 15 00 22 .88    -167     20    -44    169    175 277.0 -14.7  34058  287.84 0861.35
2015 04 09 15 00 23 .14    -176     23    -63    178    190 277.7 -19.7  34052  287.74 0861.35
2015 04 09 15 00 23 .38    -172     30    -49    175    181 279.9 -20.2  34052  287.76 0861.35
2015 04 09 15 00 23 .63    -153     40    -42    159    165 284.6 -15.0  34056  287.81 0861.35
2015 04 09 15 00 23 .89    -146     29    -32    149    153 281.4 -12.4  34058  287.84 0861.34
2015 04 09 15 00 24 .14    -141      2    -33    142    146 270.8 -13.3  34050  287.72 0861.34
2015 04 09 15 00 24 .39    -141     -2    -16    142    143 269.2  -6.7  34062  287.91 0861.34
2015 04 09 15 00 24 .64    -146      5    -33    147    151 272.1 -12.9  34048  287.69 0861.34
2015 04 09 15 00 24 .89    -123     16     -6    125    126 277.5  -3.1  34064  287.94 0861.34
2015 04 09 15 00 25 .14    -142    -10    -39    143    149 265.6 -15.4  34058  287.84 0861.34
2015 04 09 15 00 25 .39    -113    -23    -23    116    119 258.1 -11.3  34060  287.87 0861.34
2015 04 09 15 00 25 .65    -112    -30     -6    116    117 255.0  -3.1  34068  288.03 0861.34
2015 04 09 15 00 25 .89    -118     -1    -32    119    124 269.2 -15.4  34050  287.72 0861.34
2015 04 09 15 00 26 .14    -129     -4    -37    130    136 267.9 -16.0  34050  287.72 0861.34
2015 04 09 15 00 26 .39    -119      8    -21    120    122 274.3 -10.3  34058  287.84 0861.34
2015 04 09 15 00 26 .64     -98     -6      7     99    100 266.5   4.4  34072  288.08 0861.35
2015 04 09 15 00 26 .89    -128     -5    -30    129    133 267.5 -13.3  34046  287.65 0861.35
2015 04 09 15 00 27 .14    -140     -4    -33    141    145 268.3 -13.4  34044  287.62 0861.35
2015 04 09 15 00 27 .39    -126     -1    -43    127    135 269.1 -18.7  34066  287.99 0861.35
2015 04 09 15 00 27 .64    -127      0    -45    128    136 270.0 -19.6  34064  287.96 0861.35
2015 04 09 15 00 27 .89    -143      9    -41    144    149 273.9 -20.7  34064  287.96 0861.35
2015 04 09 15 00 28 .14    -126     -1    -43    127    135 269.2 -18.7  34064  287.94 0861.35
2015 04 09 15 00 28 .40    -125     -5    -33    126    131 267.4 -15.0  34060  287.89 0861.35
2015 04 09 15 00 28 .66    -117     -6    -30    118    122 267.0 -14.5  34066  287.98 0861.35
2015 04 09 15 00 28 .90    -121     12    -23    122    125 276.1 -10.9  34072  288.08 0861.35
2015 04 09 15 00 29 .16    -120      9    -21    121    123 274.4 -10.3  34070  288.06 0861.35
2015 04 09 15 00 29 .41    -121      0    -16    122    124 269.6  -7.7  34066  287.99 0861.35
2015 04 09 15 00 29 .66    -129    -12    -10    130    131 264.3  -4.6  34068  288.03 0861.35
2015 04 09 15 00 29 .91    -143     -2    -28    144    147 269.1 -11.3  34070  288.04 0861.35
2015 04 09 15 00 30 .16     -92     54     -4    107    108 300.7  -2.2  34084  288.30 0861.35
2015 04 09 15 00 30 .41    -110     48    -19    121    123 293.6  -9.3  34084  288.30 0861.35
2015 04 09 15 00 30 .66     -95     30     -9    100    101 287.7  -5.2  34088  288.35 0861.35
2015 04 09 15 00 30 .92     -98    -16    -22    100    103 260.8 -12.4  34086  288.31 0861.35
2015 04 09 15 00 31 .16     -15     -1      9     16     18 265.7  31.4  34098  288.53 0861.34
2015 04 09 15 00 31 .42    -119     24    -21    122    124 281.4  -9.8  34076  288.16 0861.34
2015 04 09 15 00 31 .67    -146    -12    -43    147    154 265.2 -16.4  34072  288.09 0861.34
2015 04 09 15 00 31 .92     -91      0     -3     92     93 269.6  -2.2  34088  288.35 0861.34
2015 04 09 15 00 32 .17    -124      1    -20    125    127 270.8  -9.3  34072  288.08 0861.34
2015 04 09 15 00 32 .42    -151    -30    -37    155    160 258.5 -13.7  34058  287.84 0861.34
2015 04 09 15 00 32 .67    -138    -23    -44    141    148 260.3 -17.6  34108  288.70 0861.34
2015 04 09 15 00 32 .92    -123     24    -20    126    128 281.4  -9.3  34128  289.04 0861.34
2015 04 09 15 00 33 .17    -160     -2    -20    161    163 269.2  -7.3  34106  288.65 0861.34
2015 04 09 15 00 33 .41    -213     19    -43    214    219 275.2 -11.5  34066  287.99 0861.34
2015 04 09 15 00 33 .67    -208      3    -53    209    216 271.0 -14.3  34074  288.13 0861.34
2015 04 09 15 00 33 .92    -195     -8    -32    196    199 267.4  -9.3  34062  287.91 0861.34
2015 04 09 15 00 34 .17    -189     27    -27    192    195 278.4  -8.2  34114  288.79 0861.34
2015 04 09 15 00 34 .43    -173     29    -48    176    183 279.5 -15.5  34086  288.31 0861.34
2015 04 09 15 00 34 .68    -171      7    -39    172    177 272.6 -12.9  34060  287.89 0861.34
2015 04 09 15 00 34 .92    -162     13    -26    163    166 274.6  -9.3  34094  288.45 0861.34
2015 04 09 15 00 35 .18    -129     25    -36    132    138 281.0 -15.5  34132  289.11 0861.34
2015 04 09 15 00 35 .42    -138    -37    -29    143    146 254.9 -11.5  34108  288.69 0861.34
2015 04 09 15 00 35 .69    -145     -6    -50    146    155 267.5 -19.1  34084  288.30 0861.34
2015 04 09 15 00 35 .94    -145      7    -29    146    149 273.0 -11.5  34072  288.08 0861.34
2015 04 09 15 00 36 .19    -139    -29    -39    143    149 258.1 -15.5  34118  288.87 0861.34
2015 04 09 15 00 36 .44    -102     -7     22    103    106 265.6  12.2  34120  288.91 0861.34
2015 04 09 15 00 36 .69    -151    -21    -20    153    155 262.1  -7.7  34104  288.62 0861.34
2015 04 09 15 00 36 .94    -142      8    -24    143    146 273.5  -9.8  34140  289.24 0861.34
2015 04 09 15 00 37 .18    -125     21    -21    127    129 279.6  -9.8  34116  288.84 0861.34
2015 04 09 15 00 37 .44     -85     44      5     96     97 297.5   3.3  34124  288.96 0861.34
2015 04 09 15 00 37 .69     -50     16    -12     53     55 288.4 -13.4  34126  288.99 0861.34
2015 04 09 15 00 37 .94     -29     20     11     36     38 304.2  17.3  34120  288.91 0861.34
2015 04 09 15 00 38 .19    -134     27    -32    137    141 281.5 -13.4  34082  288.26 0861.34
2015 04 09 15 00 38 .44    -133     -5    -22    134    136 267.5  -9.4  34082  288.26 0861.34
2015 04 09 15 00 38 .69    -139     -1    -50    140    149 269.2 -19.7  34072  288.08 0861.34
2015 04 09 15 00 38 .94     -98     20    -37    101    107 281.9 -24.8  34106  288.67 0861.34
2015 04 09 15 00 39 .19     -28    -13     10     31     33 244.6  19.2  34126  288.99 0861.34
2015 04 09 15 00 39 .44     -94    -22    -27     97    101 256.7 -15.5  34090  288.38 0861.34
2015 04 09 15 00 39 .69    -116    -16    -19    118    120 262.0  -9.3  34074  288.13 0861.34
2015 04 09 15 00 39 .95    -142      2    -35    143    148 270.9 -13.9  34062  287.91 0861.34
2015 04 09 15 00 40 .20    -112    -12    -14    113    114 263.4  -7.2  34076  288.16 0861.34
2015 04 09 15 00 40 .45     -69      5    -19     70     73 274.3 -15.5  34076  288.14 0861.34
2015 04 09 15 00 40 .70    -113      5    -27    114    118 272.6 -13.4  34064  287.94 0861.34
2015 04 09 15 00 40 .95    -110     -5    -14    111    112 267.4  -7.2  34066  287.99 0861.34
2015 04 09 15 00 41 .20    -114     -1    -27    115    119 269.2 -13.4  34048  287.67 0861.33
2015 04 09 15 00 41 .45    -134     -5    -35    135    140 267.5 -14.5  34046  287.64 0861.33
2015 04 09 15 00 41 .70    -137      0    -31    138    142 269.6 -12.9  34050  287.70 0861.33
2015 04 09 15 00 41 .95    -134     10    -35    135    140 274.3 -14.5  34046  287.65 0861.33
2015 04 09 15 00 42 .20    -137     -9    -31    138    142 266.1 -12.9  34052  287.76 0861.33
2015 04 09 15 00 42 .45    -134     -5    -35    135    140 267.5 -14.5  34046  287.64 0861.33
2015 04 09 15 00 42 .71    -129      1    -30    130    134 270.8 -13.3  34046  287.64 0861.33
2015 04 09 15 00 42 .96    -134     10    -35    135    140 274.3 -14.5  34046  287.65 0861.32
2015 04 09 15 00 43 .21    -150      2    -29    151    154 270.8 -11.1  34052  287.74 0861.32
2015 04 09 15 00 43 .46    -144    -24    -18    147    149 260.3  -7.3  34046  287.65 0861.32
2015 04 09 15 00 43 .71    -132    -27    -29    135    139 258.1 -12.4  34046  287.65 0861.32
2015 04 09 15 00 43 .97    -115      5    -26    116    119 272.6 -12.9  34070  288.06 0861.32
2015 04 09 15 00 44 .21    -118      0    -21    119    121 270.4 -10.3  34064  287.94 0861.32
2015 04 09 15 00 44 .47    -120      0     -6    121    122 270.4  -3.2  34072  288.09 0861.32
2015 04 09 15 00 44 .72    -142    -24    -37    145    150 260.3 -14.5  34050  287.70 0861.32
2015 04 09 15 00 44 .97    -147     -6    -22    148    150 267.5  -8.8  34064  287.94 0861.32
2015 04 09 15 00 45 .22    -105    -34    -30    111    116 251.8 -15.4  34078  288.18 0861.32
2015 04 09 15 00 45 .47     -45     -1     -3     46     47 268.3  -4.1  34088  288.36 0861.32
2015 04 09 15 00 45 .72     -54     18    -16     58     61 288.6 -15.5  34086  288.33 0861.32
2015 04 09 15 00 45 .97      -1    -14     17     15     22 184.5  52.2  34106  288.65 0861.32
2015 04 09 15 00 46 .22     -83    -33     -8     90     91 248.3  -5.6  34102  288.60 0861.32
2015 04 09 15 00 46 .47     -77    -51    -21     93     96 236.7 -12.9  34108  288.69 0861.32
2015 04 09 15 00 46 .72     -81    -17     -3     83     84 258.1  -2.2  34118  288.86 0861.32
2015 04 09 15 00 46 .97     -98    -38     -5    106    107 248.7  -3.1  34066  287.98 0861.32
2015 04 09 15 00 47 .22    -123    -41    -25    130    133 251.6 -10.9  34078  288.18 0861.32
2015 04 09 15 00 47 .47     -53    -53     -9     75     76 225.0  -7.3  34080  288.23 0861.32
2015 04 09 15 00 47 .72    -150    -71    -43    167    173 244.6 -14.5  34050  287.70 0861.32
2015 04 09 15 00 47 .98    -129    -45    -41    137    143 250.5 -21.7  34058  287.86 0861.32
2015 04 09 15 00 48 .22    -105    -12    -21    106    109 263.4 -11.5  34066  287.99 0861.32
2015 04 09 15 00 48 .48     -59    -38      3     71     72 237.6   2.8  34070  288.04 0861.32
2015 04 09 15 00 48 .72     -90      4    -11     91     92 272.6  -7.3  34060  287.89 0861.32
2015 04 09 15 00 48 .98    -111    -91    -18    144    146 230.5  -7.3  34058  287.84 0861.32
2015 04 09 15 00 49 .23     -98    -76      2    125    126 232.2   1.2  34068  288.03 0861.32
2015 04 09 15 00 49 .49     -93    -93     -1    132    133 225.0  -0.7  34068  288.03 0861.32
2015 04 09 15 00 49 .74     -75    -86      4    115    116 221.0   2.3  34072  288.08 0861.32
2015 04 09 15 00 49 .99     -90   -142      0    169    170 212.5   0.2  34072  288.08 0861.32
2015 04 09 15 00 50 .24    -120    -99     -1    156    157 230.5  -0.5  34074  288.11 0861.32
2015 04 09 15 00 50 .49     -93   -117      4    150    151 218.7   1.8  34070  288.06 0861.32
2015 04 09 15 00 50 .74    -172    -60    -26    183    185 250.7  -8.2  34052  287.76 0861.32
2015 04 09 15 00 50 .99    -171    -77    -36    188    192 245.8 -11.1  34054  287.79 0861.32
2015 04 09 15 00 51 .24    -180    -86    -25    200    202 244.2  -7.3  34054  287.79 0861.32
2015 04 09 15 00 51 .49    -154    -82    -35    175    179 241.8 -11.3  34050  287.72 0861.32
2015 04 09 15 00 51 .74    -185    -65    -25    197    199 250.5  -7.3  34048  287.67 0861.32
2015 04 09 15 00 51 .99    -180    -59    -45    190    196 251.8 -13.4  34052  287.74 0861.32
2015 04 09 15 00 52 .24    -160    -48    -41    168    174 253.2 -13.9  34054  287.77 0861.32
2015 04 09 15 00 52 .49    -162    -33    -48    166    172 258.3 -21.2  34054  287.79 0861.32
2015 04 09 15 00 52 .74    -160    -28    -45    163    169 259.9 -20.2  34052  287.76 0861.32
2015 04 09 15 00 52 .99    -151    -16    -31    152    156 263.9 -11.6  34052  287.76 0861.32
2015 04 09 15 00 53 .24    -161      0    -38    162    167 270.1 -13.2  34056  287.81 0861.32
2015 04 09 15 00 53 .50    -156    -10    -38    157    162 266.1 -13.7  34052  287.76 0861.32
2015 04 09 15 00 53 .75    -165    -29    -42    168    174 259.9 -14.3  34056  287.81 0861.32
2015 04 09 15 00 53 .99    -143    -15    -35    144    149 263.8 -13.9  34052  287.76 0861.32
2015 04 09 15 00 54 .25    -151    -21    -49    153    161 262.1 -17.9  34050  287.72 0861.32
2015 04 09 15 00 54 .50    -170    -15    -58    171    181 264.8 -18.7  34062  287.91 0861.32
2015 04 09 15 00 54 .75    -174    -17    -53    175    184 264.3 -17.0  34058  287.84 0861.32
2015 04 09 15 00 55 .00    -162     -2    -45    163    170 269.2 -15.5  34058  287.86 0861.32
2015 04 09 15 00 55 .25    -156     19    -56    158    168 277.2 -19.6  34062  287.92 0861.32
2015 04 09 15 00 55 .50    -156     31    -54    160    169 281.5 -18.7  34060  287.89 0861.32
2015 04 09 15 00 55 .75    -151     41    -41    157    163 285.3 -14.7  34064  287.96 0861.32
2015 04 09 15 00 56 .00    -133     39    -49    139    148 286.4 -19.7  34074  288.13 0861.32
2015 04 09 15 00 56 .25    -127     52    -43    138    144 292.2 -22.8  34076  288.16 0861.32
2015 04 09 15 00 56 .51    -148     34    -53    152    162 283.2 -19.4  34066  287.99 0861.32
2015 04 09 15 00 56 .76    -146     41    -45    152    158 285.9 -21.2  34062  287.91 0861.32
2015 04 09 15 00 57 .01    -135     49    -42    144    150 290.0 -21.7  34070  288.04 0861.32
2015 04 09 15 00 57 .26    -125     41    -39    132    138 288.2 -16.6  34066  287.98 0861.32
2015 04 09 15 00 57 .51    -133     47    -43    142    149 289.5 -17.0  34064  287.94 0861.32
2015 04 09 15 00 57 .76    -121     35    -45    127    135 286.4 -19.7  34062  287.91 0861.32
2015 04 09 15 00 58 .01    -120     32    -42    125    132 285.0 -18.7  34060  287.89 0861.32
2015 04 09 15 00 58 .27    -127     28    -36    131    136 282.4 -15.4  34062  287.91 0861.32
2015 04 09 15 00 58 .51    -135     46    -42    143    150 289.1 -16.6  34060  287.89 0861.32
2015 04 09 15 00 58 .77    -123     41    -46    130    139 288.6 -19.6  34058  287.86 0861.32
2015 04 09 15 00 59 .01    -124     44    -39    132    137 289.9 -21.2  34058  287.84 0861.32
2015 04 09 15 00 59 .26    -130     42    -39    137    142 288.2 -20.7  34050  287.72 0861.32
2015 04 09 15 00 59 .52    -110     49    -34    121    125 294.0 -20.2  34058  287.84 0861.32
2015 04 09 15 00 59 .77    -106     50    -43    118    125 295.2 -24.8  34060  287.89 0861.32
2015 04 09 15 01 00 .02    -104     45    -41    114    121 293.5 -25.3  34056  287.81 0861.32
2015 04 09 15 01 00 .27     -92     49    -30    105    109 298.4 -20.7  34060  287.89 0861.32
2015 04 09 15 01 00 .52     -92     49    -30    105    109 298.4 -20.7  34060  287.89 0861.32
2015 04 09 15 01 00 .77     -90     44    -47    101    111 296.2 -31.5  34064  287.94 0861.32
2015 04 09 15 01 01 .02     -79     32    -30     86     91 292.2 -23.8  34060  287.89 0861.32
2015 04 09 15 01 01 .27     -82     22    -32     85     90 285.1 -25.9  34060  287.87 0861.32
2015 04 09 15 01 01 .52     -72     28    -23     78     81 291.7 -21.2  34058  287.86 0861.32
2015 04 09 15 01 01 .77     -65     23    -23     70     73 290.0 -23.8  34056  287.81 0861.32
2015 04 09 15 01 02 .02     -74     24    -15     78     80 288.2 -11.3  34054  287.79 0861.32
2015 04 09 15 01 02 .27     -72     31    -15     79     81 293.5 -10.9  34060  287.89 0861.32
2015 04 09 15 01 02 .52     -69     32    -27     77     81 295.3 -24.4  34066  287.98 0861.32
2015 04 09 15 01 02 .78     -44     56    -19     72     75 322.2 -15.4  34068  288.03 0861.32
2015 04 09 15 01 03 .03     -44     56    -19     72     75 322.2 -15.4  34062  287.91 0861.32
2015 04 09 15 01 03 .27     -50     60    -28     79     84 320.3 -19.7  34064  287.94 0861.32
2015 04 09 15 01 03 .53     -30     49    -21     58     61 328.4 -24.4  34066  287.99 0861.32
2015 04 09 15 01 03 .79     -41     42    -18     59     62 315.8 -17.6  34066  287.98 0861.32
2015 04 09 15 01 04 .04     -42     28    -13     51     53 304.2 -14.5  34068  288.03 0861.32
2015 04 09 15 01 04 .29     -33     29    -10     44     46 311.3 -13.4  34080  288.21 0861.32
2015 04 09 15 01 04 .54     -31     26     14     41     44 309.5  19.2  34086  288.31 0861.32
2015 04 09 15 01 04 .79     -57     27      0     64     65 295.4   0.8  34072  288.08 0861.32
2015 04 09 15 01 05 .04     -54     32     -2     63     64 300.7  -2.2  34070  288.06 0861.32
2015 04 09 15 01 05 .29     -27     17     -1     32     33 302.4  -3.1  34078  288.18 0861.32
2015 04 09 15 01 05 .54     -33     25     -5     42     43 306.9  -7.3  34080  288.23 0861.32
2015 04 09 15 01 05 .79     -36     10     -4     38     39 286.8  -7.3  34070  288.04 0861.32
2015 04 09 15 01 06 .04     -39      1    -10     40     42 271.7 -14.5  34074  288.11 0861.32
2015 04 09 15 01 06 .29     -49      0    -13     50     52 270.0 -14.5  34066  287.98 0861.33
2015 04 09 15 01 06 .54     -59      0    -18     60     63 269.1 -16.6  34062  287.92 0861.33
2015 04 09 15 01 06 .79     -84      0    -13     85     86 269.6  -8.8  34062  287.92 0861.33
2015 04 09 15 01 07 .04     -76      1    -25     77     80 270.8 -23.3  34070  288.04 0861.33
2015 04 09 15 01 07 .30     -53     -4    -17     54     57 265.6 -17.6  34066  287.98 0861.33
2015 04 09 15 01 07 .54     -69     -5    -11     70     71 265.6  -9.3  34064  287.94 0861.33
2015 04 09 15 01 07 .80     -90      2    -20     91     94 271.3 -12.9  34064  287.94 0861.33
2015 04 09 15 01 08 .05     -85     13    -26     86     90 278.8 -17.0  34066  287.99 0861.33
2015 04 09 15 01 08 .30     -87      4    -24     88     91 273.0 -20.2  34072  288.08 0861.33
2015 04 09 15 01 08 .55     -90      7    -20     91     94 274.8 -12.9  34070  288.04 0861.33
2015 04 09 15 01 08 .80    -107     32    -26    112    116 286.8 -13.3  34072  288.09 0861.33
2015 04 09 15 01 09 .05     -99      0    -34    100    105 270.4 -23.3  34068  288.01 0861.33
2015 04 09 15 01 09 .30    -112    -22    -11    115    116 258.6  -5.6  34066  287.99 0861.33
2015 04 09 15 01 09 .55    -110     -6    -39    111    118 266.5 -19.7  34094  288.45 0861.33
2015 04 09 15 01 09 .80    -103    -17    -13    105    106 260.3  -7.2  34086  288.31 0861.33
2015 04 09 15 01 10 .05    -111     -8      5    112    113 265.7   2.8  34078  288.18 0861.33
2015 04 09 15 01 10 .30    -115      0     -7    116    117 269.6  -3.7  34092  288.43 0861.33
2015 04 09 15 01 10 .56     -96      5    -32     97    102 273.0 -23.8  34100  288.57 0861.33
2015 04 09 15 01 10 .81     -88     17    -14     90     92 281.0  -9.3  34098  288.52 0861.33
2015 04 09 15 01 11 .06     -90      0    -11     91     92 269.6  -7.3  34096  288.48 0861.33
2015 04 09 15 01 11 .31     -82    -12    -18     83     86 261.2 -12.4  34098  288.52 0861.33
2015 04 09 15 01 11 .57    -147    -20    -17    149    151 262.1  -6.7  34082  288.25 0861.33
2015 04 09 15 01 11 .82    -159     -1    -42    160    166 269.6 -15.0  34082  288.25 0861.33
2015 04 09 15 01 12 .07    -162      0    -44    163    169 270.0 -15.2  34082  288.26 0861.33
2015 04 09 15 01 12 .32    -159      4    -42    160    166 271.7 -15.0  34084  288.30 0861.33
2015 04 09 15 01 12 .57    -172      4    -29    173    176 271.5  -9.8  34090  288.38 0861.33
2015 04 09 15 01 12 .82    -159     12    -42    160    166 274.6 -15.0  34082  288.25 0861.34
2015 04 09 15 01 13 .07    -132     17    -39    134    139 277.5 -21.2  34102  288.58 0861.34
2015 04 09 15 01 13 .32    -146     -6    -50    147    156 267.5 -18.9  34086  288.33 0861.34
2015 04 09 15 01 13 .57    -160    -28    -52    163    171 259.9 -23.0  34092  288.43 0861.34
2015 04 09 15 01 13 .82    -130    -43    -17    138    140 251.4  -7.3  34092  288.43 0861.34
2015 04 09 15 01 14 .07    -138    -46    -29    146    149 251.4 -11.3  34092  288.43 0861.34
2015 04 09 15 01 14 .32    -162    -25    -27    165    168 261.0  -9.3  34094  288.45 0861.34
2015 04 09 15 01 14 .57    -157    -16    -48    158    166 264.1 -17.0  34102  288.58 0861.33
2015 04 09 15 01 14 .83    -110    -36    -22    116    119 251.8 -10.9  34110  288.74 0861.33
2015 04 09 15 01 15 .08    -183     21    -23    185    187 276.6  -7.3  34118  288.86 0861.33
2015 04 09 15 01 15 .33    -170    -13    -14    171    172 265.6  -4.9  34130  289.06 0861.33
2015 04 09 15 01 15 .58    -167    -54    -31    176    179 251.8 -10.3  34128  289.02 0861.33
2015 04 09 15 01 15 .82    -166    -49    -39    174    179 253.6 -12.9  34136  289.16 0861.33
2015 04 09 15 01 16 .08    -181    -45    -24    187    189 255.8  -7.3  34118  288.87 0861.33
2015 04 09 15 01 16 .32    -157    -27    -39    160    165 260.1 -13.9  34108  288.69 0861.33
2015 04 09 15 01 16 .58    -160      0    -23    161    163 270.0  -8.2  34104  288.64 0861.33
2015 04 09 15 01 16 .83    -130     60    -14    144    145 294.8  -5.6  34118  288.86 0861.33
2015 04 09 15 01 17 .08     -83     53     -5     99    100 302.4  -3.2  34124  288.96 0861.33
2015 04 09 15 01 17 .34    -128     30      6    132    133 283.3   2.8  34114  288.80 0861.33
2015 04 09 15 01 17 .59    -195     12    -46    196    202 273.7 -13.2  34106  288.65 0861.33
2015 04 09 15 01 17 .84    -173    -15    -49    174    181 264.8 -15.8  34108  288.69 0861.33
2015 04 09 15 01 18 .09     -68    -56     68     89    112 230.5  41.7  34126  289.01 0861.33
2015 04 09 15 01 18 .34     -73     39      4     84     85 298.4   2.9  34148  289.36 0861.33
2015 04 09 15 01 18 .59    -114     72     -9    136    137 302.4  -4.1  34150  289.41 0861.33
2015 04 09 15 01 18 .85    -143     68    -17    159    160 295.4  -6.2  34172  289.79 0861.33
2015 04 09 15 01 19 .09    -158     84    -51    179    187 298.0 -16.0  34118  288.86 0861.33
2015 04 09 15 01 19 .34    -146     71    -32    163    167 296.2 -11.1  34122  288.94 0861.33
2015 04 09 15 01 19 .59    -154     75    -24    172    174 296.2  -8.0  34128  289.02 0861.33
2015 04 09 15 01 19 .84    -170     86    -26    191    193 296.9  -8.0  34126  288.99 0861.33
2015 04 09 15 01 20 .09    -187     80    -41    204    209 293.3 -11.5  34116  288.84 0861.33
2015 04 09 15 01 20 .34    -164     65    -54    177    186 291.8 -17.0  34118  288.86 0861.33
2015 04 09 15 01 20 .59    -165     34    -46    169    176 281.7 -15.2  34116  288.82 0861.33
2015 04 09 15 01 20 .85    -147     29    -51    150    159 281.5 -19.1  34118  288.87 0861.32
2015 04 09 15 01 21 .10     -92     41    -30    101    105 294.0 -21.7  34136  289.18 0861.32
2015 04 09 15 01 21 .35     -82     52    -46     98    108 302.5 -31.5  34148  289.36 0861.32
2015 04 09 15 01 21 .60    -132     78    -55    154    163 300.6 -24.6  34148  289.36 0861.32
2015 04 09 15 01 21 .85    -182     21    -17    184    185 276.6  -5.6  34152  289.43 0861.32
2015 04 09 15 01 22 .10    -194     16    -30    195    198 274.8  -9.0  34150  289.40 0861.32
2015 04 09 15 01 22 .36    -188     38    -60    192    202 281.5 -17.5  34168  289.70 0861.32
2015 04 09 15 01 22 .60    -145     15    -39    146    152 276.1 -15.2  34200  290.25 0861.32
2015 04 09 15 01 22 .85     -65     37      3     75     76 299.8   2.9  34202  290.28 0861.32
2015 04 09 15 01 23 .10    -147     71    -32    164    168 296.0 -11.1  34204  290.33 0861.32
2015 04 09 15 01 23 .35    -145     68    -12    161    162 295.3  -4.6  34200  290.26 0861.32
2015 04 09 15 01 23 .60    -142     34    -35    147    152 283.7 -13.4  34128  289.04 0861.32
2015 04 09 15 01 23 .85     -98     44    -22    108    111 294.4 -11.5  34130  289.08 0861.32
2015 04 09 15 01 24 .11    -118     85    -13    146    147 306.0  -5.2  34134  289.13 0861.32
2015 04 09 15 01 24 .37    -143     91    -15    170    171 302.6  -5.2  34138  289.19 0861.32
2015 04 09 15 01 24 .62    -156     80    -21    176    178 297.1  -6.9  34130  289.08 0861.32
2015 04 09 15 01 24 .87    -156    122    -20    199    201 308.0  -6.0  34134  289.13 0861.32
2015 04 09 15 01 25 .12    -127    118      4    174    175 312.9   1.6  34142  289.28 0861.32
2015 04 09 15 01 25 .37    -142    101    -32    175    178 305.3 -10.5  34142  289.26 0861.32
2015 04 09 15 01 25 .63    -145     75    -29    164    167 297.5 -10.1  34130  289.08 0861.32
2015 04 09 15 01 25 .87    -135     75    -26    155    158 299.3  -9.6  34154  289.46 0861.32
2015 04 09 15 01 26 .12    -141     71    -27    159    162 296.9  -9.6  34154  289.46 0861.32
2015 04 09 15 01 26 .37    -145     81     -9    167    168 299.1  -3.1  34134  289.13 0861.32
2015 04 09 15 01 26 .62     -94     44      5    104    105 295.2   2.8  34142  289.26 0861.32
2015 04 09 15 01 26 .87     -36     57    -13     68     70 327.4 -11.3  34154  289.46 0861.32
2015 04 09 15 01 27 .12     -80     75    -14    110    111 313.2  -7.3  34164  289.63 0861.32
2015 04 09 15 01 27 .37     -67     76     11    102    103 318.6   6.5  34168  289.72 0861.32
2015 04 09 15 01 27 .62     -55     60     11     82     83 317.2   8.0  34164  289.65 0861.32
2015 04 09 15 01 27 .87     -28     73     -3     79     80 339.1  -2.6  34166  289.69 0861.32
2015 04 09 15 01 28 .12     -53     80     25     97    101 326.2  14.7  34180  289.91 0861.32
2015 04 09 15 01 28 .38     -69     83      0    109    110 320.3   0.2  34152  289.45 0861.32
2015 04 09 15 01 28 .62    -105     82    -24    134    137 307.8 -10.3  34142  289.28 0861.32
2015 04 09 15 01 28 .88     -75     71     -4    104    105 313.1  -2.2  34164  289.63 0861.32
2015 04 09 15 01 29 .13     -99     72     -5    123    124 306.4  -2.6  34158  289.53 0861.32
2015 04 09 15 01 29 .38    -138     96    -21    169    171 304.9  -7.3  34164  289.63 0861.32
2015 04 09 15 01 29 .63    -122     77     -4    145    146 302.4  -1.8  34172  289.77 0861.32
2015 04 09 15 01 29 .88     -55     69     -3     89     90 321.3  -2.2  34172  289.77 0861.32
2015 04 09 15 01 30 .13     -41     55     34     69     76 323.0  27.3  34170  289.74 0861.32
2015 04 09 15 01 30 .38     -63     76      9     99    100 320.4   5.4  34160  289.58 0861.32
2015 04 09 15 01 30 .63     -22     59     43     64     77 339.1  35.6  34164  289.63 0861.32
2015 04 09 15 01 30 .88     -26     65      2     71     72 338.1   1.8  34162  289.60 0861.32
2015 04 09 15 01 31 .13     -29     76     28     82     87 338.6  19.4  34172  289.79 0861.32
2015 04 09 15 01 31 .39     -44     53     30     70     76 320.3  24.1  34182  289.96 0861.32
2015 04 09 15 01 31 .64     -60     33     27     69     74 298.9  22.0  34174  289.80 0861.32
2015 04 09 15 01 31 .89     -60     62     43     87     97 316.3  27.8  34172  289.79 0861.32
2015 04 09 15 01 32 .14     -37     49     -1     62     63 323.0  -1.3  34202  290.28 0861.32
2015 04 09 15 01 32 .40     -69     49     16     85     87 305.5  11.1  34196  290.19 0861.32
2015 04 09 15 01 32 .65     -57     55    -10     80     81 314.1  -7.7  34196  290.19 0861.32
2015 04 09 15 01 32 .89     -35     54     -3     65     66 326.6  -3.1  34198  290.23 0861.32
2015 04 09 15 01 33 .14     -32     50     27     60     65 327.4  26.2  34200  290.25 0861.32
2015 04 09 15 01 33 .40     -71     58    -17     92     94 309.1 -10.9  34172  289.79 0861.32
2015 04 09 15 01 33 .65     -41     70     24     82     86 329.7  16.3  34192  290.11 0861.31
2015 04 09 15 01 33 .89     -49    111      1    122    123 335.9   0.7  34216  290.52 0861.31
2015 04 09 15 01 34 .15     -39    126      5    133    134 342.6   2.3  34182  289.96 0861.31
2015 04 09 15 01 34 .40     -76     76     23    108    111 315.0  12.2  34198  290.21 0861.31
2015 04 09 15 01 34 .65     -85     91      7    125    126 316.8   3.3  34186  290.01 0861.31
2015 04 09 15 01 34 .90     -71     84     21    111    114 319.9  11.1  34194  290.14 0861.31
2015 04 09 15 01 35 .15     -68     83     -1    108    109 320.3  -0.7  34210  290.43 0861.31
2015 04 09 15 01 35 .40    -100     91    -19    136    138 312.2  -8.2  34210  290.43 0861.31
2015 04 09 15 01 35 .65    -142     89    -20    168    170 302.0  -6.9  34188  290.04 0861.31
2015 04 09 15 01 35 .90     -97     85    -45    130    137 311.3 -23.3  34134  289.14 0861.31
2015 04 09 15 01 36 .16     -99    100    -36    142    147 315.3 -14.5  34172  289.79 0861.31
2015 04 09 15 01 36 .41    -109     84     11    138    139 307.8   4.9  34184  289.99 0861.31
2015 04 09 15 01 36 .65    -112     88    -19    143    145 308.2  -7.7  34148  289.36 0861.31
2015 04 09 15 01 36 .91     -94     86    -16    128    130 312.7  -7.3  34158  289.55 0861.31
2015 04 09 15 01 37 .16     -78     73    -30    108    113 313.1 -15.5  34166  289.69 0861.31
2015 04 09 15 01 37 .41     -47     51    -10     70     71 316.8  -8.2  34156  289.52 0861.31
2015 04 09 15 01 37 .66     -65    130     28    146    149 333.3  11.1  34154  289.46 0861.31
2015 04 09 15 01 37 .91     -60     84     31    104    109 324.4  16.8  34162  289.60 0861.31
2015 04 09 15 01 38 .17     -57     91     29    108    113 327.9  15.3  34160  289.58 0861.31
2015 04 09 15 01 38 .42     -51     92     26    106    110 331.0  13.7  34168  289.72 0861.31
2015 04 09 15 01 38 .67     -40    101     59    109    123 338.2  31.3  34170  289.75 0861.31
2015 04 09 15 01 38 .92     -49     92     41    105    112 331.9  22.5  34162  289.62 0861.31
2015 04 09 15 01 39 .17     -74    129    -16    149    150 330.1  -6.2  34136  289.16 0861.31
2015 04 09 15 01 39 .42     -51     98     -2    111    112 332.4  -1.2  34134  289.14 0861.31
2015 04 09 15 01 39 .67     -91     85    -34    125    130 313.1 -15.5  34116  288.82 0861.31
2015 04 09 15 01 39 .92    -148     92    -19    175    177 301.8  -6.5  34124  288.97 0861.30
2015 04 09 15 01 40 .17    -144     63    -11    158    159 293.6  -4.1  34126  288.99 0861.30
2015 04 09 15 01 40 .42    -127     70    -35    146    151 298.9 -13.4  34136  289.18 0861.30
2015 04 09 15 01 40 .67    -121     88    -23    150    152 306.0  -8.8  34150  289.40 0861.30
2015 04 09 15 01 40 .92    -109     86    -18    140    142 308.2  -7.3  34142  289.28 0861.30
2015 04 09 15 01 41 .18     -86     86     -2    123    124 315.0  -1.2  34160  289.58 0861.30
2015 04 09 15 01 41 .42     -80     90     -2    121    122 318.6  -1.2  34150  289.41 0861.30
2015 04 09 15 01 41 .68    -102     90      1    137    138 311.4   0.8  34160  289.58 0861.30
2015 04 09 15 01 41 .93    -115     82    -11    142    143 305.5  -4.6  34180  289.91 0861.30
2015 04 09 15 01 42 .18     -94     77    -10    122    123 309.5  -5.1  34214  290.48 0861.30
2015 04 09 15 01 42 .43     -42     75     32     87     92 330.6  20.4  34216  290.52 0861.30
2015 04 09 15 01 42 .67     -74     89     16    116    118 320.4   8.0  34180  289.92 0861.30
2015 04 09 15 01 42 .93    -151    109    -26    187    189 305.9  -8.0  34132  289.09 0861.30
2015 04 09 15 01 43 .18     -37     99     13    106    107 339.5   7.5  34170  289.74 0861.30
2015 04 09 15 01 43 .43     -68    152    -12    167    168 335.7  -4.1  34138  289.19 0861.30
2015 04 09 15 01 43 .68     -77    134    -25    155    158 330.1  -9.4  34142  289.26 0861.30
2015 04 09 15 01 43 .93     -77    141    -27    161    164 331.1  -9.6  34138  289.21 0861.30
2015 04 09 15 01 44 .18     -56    140    -37    151    156 338.2 -13.9  34138  289.19 0861.30
2015 04 09 15 01 44 .44     -85    127    -31    154    158 326.2 -11.5  34154  289.48 0861.30
2015 04 09 15 01 44 .68    -130     88    -26    158    161 304.2  -9.6  34188  290.06 0861.30
2015 04 09 15 01 44 .93     -33    124      4    129    130 344.9   1.8  34192  290.11 0861.30
2015 04 09 15 01 45 .19     -45    118    -16    127    129 339.1  -7.3  34186  290.01 0861.30
2015 04 09 15 01 45 .44     -75     90    -27    118    122 319.9 -12.9  34186  290.01 0861.30
2015 04 09 15 01 45 .70     -79     81    -31    114    119 315.5 -15.5  34186  290.01 0861.30
2015 04 09 15 01 45 .95    -106     90    -17    140    142 310.4  -7.2  34214  290.50 0861.30
2015 04 09 15 01 46 .20     -79     75     26    110    114 313.6  13.2  34222  290.64 0861.29
2015 04 09 15 01 46 .45    -124    110    -26    166    169 311.6  -9.0  34224  290.65 0861.29
2015 04 09 15 01 46 .70     -72    141    -21    159    161 332.8  -7.7  34234  290.82 0861.29
2015 04 09 15 01 46 .95     -54    161      8    170    171 341.3   2.9  34216  290.52 0861.29
2015 04 09 15 01 47 .20     -42    154     21    160    162 344.4   7.5  34192  290.13 0861.29
2015 04 09 15 01 47 .45     -25    149     19    152    154 350.3   7.1  34190  290.09 0861.29
2015 04 09 15 01 47 .70     -26    136    -10    139    140 348.9  -4.1  34204  290.33 0861.29
2015 04 09 15 01 47 .95      -1    111     13    112    113 359.1   6.9  34202  290.28 0861.29
2015 04 09 15 01 48 .20      31    110     13    115    116  16.0   6.9  34224  290.65 0861.29
2015 04 09 15 01 48 .45      35    104      8    110    111  18.7   4.4  34220  290.60 0861.29
2015 04 09 15 01 48 .70      20    101      5    104    105  11.6   2.8  34236  290.87 0861.29
2015 04 09 15 01 48 .95      14     90     12     92     93   9.3   8.0  34244  291.01 0861.29
2015 04 09 15 01 49 .20      15     90     41     92    100   9.8  25.7  34238  290.89 0861.29
2015 04 09 15 01 49 .45      17    103     13    105    106   9.8   7.1  34256  291.20 0861.29
2015 04 09 15 01 49 .71       6    128     33    129    134   2.7  14.3  34260  291.28 0861.29
2015 04 09 15 01 49 .95      17    121     72    123    142   8.0  32.9  34374  293.21 0861.29
2015 04 09 15 01 50 .21      -8    155     74    156    172 356.9  27.2  34298  291.93 0861.29
2015 04 09 15 01 50 .45       3    157     70    158    172   1.1  25.3  34230  290.77 0861.29
2015 04 09 15 01 50 .71      14    193     37    194    198   4.2  11.0  34236  290.87 0861.29
2015 04 09 15 01 50 .95      -9    295     35    296    299 358.2   6.9  34190  290.07 0861.29
2015 04 09 15 01 51 .21     -56    344     -3    349    350 350.7  -0.6  34206  290.35 0861.29
2015 04 09 15 01 51 .46     -73    358    -32    366    368 348.4  -5.1  34182  289.96 0861.29
2015 04 09 15 01 51 .71     -89    275    -82    290    301 342.1 -20.7  34204  290.31 0861.29
2015 04 09 15 01 51 .96    -107    246    -90    269    284 336.4 -18.6  34164  289.64 0861.29
2015 04 09 15 01 52 .22    -133    214    -29    253    255 328.1  -6.7  34194  290.14 0861.29
2015 04 09 15 01 52 .47    -104    264     18    284    285 338.4   3.6  34206  290.34 0861.29
2015 04 09 15 01 52 .72    -121    235    -25    265    267 332.8  -5.6  34184  289.97 0861.30
2015 04 09 15 01 52 .97     -67    214    -43    225    230 342.6 -10.9  34184  289.97 0861.30
2015 04 09 15 01 53 .22    -201    201    -18    285    286 314.9  -3.7  34192  290.12 0861.30
2015 04 09 15 01 53 .47    -178    184    -66    257    266 315.9 -14.5  34192  290.10 0861.30
2015 04 09 15 01 53 .72    -174    247    -84    303    315 324.9 -15.5  34190  290.07 0861.30
2015 04 09 15 01 53 .97    -120    273    -55    299    305 336.3 -10.5  34188  290.05 0861.30
2015 04 09 15 01 54 .22    -139    251    -62    288    295 331.0 -12.2  34188  290.05 0861.30
2015 04 09 15 01 54 .48     -97    261    -22    279    280 339.5  -4.6  34218  290.54 0861.30
2015 04 09 15 01 54 .73    -122    295     -1    320    321 337.5  -0.3  34234  290.82 0861.30
2015 04 09 15 01 54 .98     -91    323     38    336    339 344.2   6.6  34232  290.81 0861.30
2015 04 09 15 01 55 .23    -100    370     -8    384    385 344.9  -1.3  34248  291.05 0861.31
2015 04 09 15 01 55 .48    -143    289    -35    323    325 333.7  -6.2  34236  290.87 0861.31
2015 04 09 15 01 55 .73    -106    391      5    406    407 344.9   0.8  34200  290.24 0861.31
2015 04 09 15 01 55 .98     -55    388     40    393    396 351.9   5.9  34242  290.96 0861.31
2015 04 09 15 01 56 .23     -79    413     42    421    424 349.1   5.8  34130  289.05 0861.31
2015 04 09 15 01 56 .48     -87    372     19    383    384 346.8   2.9  34120  288.91 0861.31
2015 04 09 15 01 56 .73     -85    362    -20    372    373 346.8  -3.2  34142  289.28 0861.31
2015 04 09 15 01 56 .98     -77    342    -28    351    353 347.3  -4.6  34118  288.86 0861.31
2015 04 09 15 01 57 .23     -62    312    -22    319    320 348.7  -4.0  34116  288.81 0861.31
2015 04 09 15 01 57 .48    -100    289    -37    307    310 340.8  -6.9  34066  287.97 0861.31
2015 04 09 15 01 57 .73     -88    273    -26    287    289 342.1  -5.4  34052  287.75 0861.31
2015 04 09 15 01 57 .98     -85    270    -16    284    285 342.4  -3.3  34050  287.70 0861.31
2015 04 09 15 01 58 .23    -103    261    -23    281    283 338.4  -4.9  34062  287.90 0861.31
2015 04 09 15 01 58 .49    -100    266    -36    285    288 339.3  -7.3  34070  288.04 0861.31
2015 04 09 15 01 58 .74     -75    279    -23    290    291 344.9  -4.6  34080  288.22 0861.31
2015 04 09 15 01 58 .99     -75    269     -1    280    281 344.4  -0.3  34072  288.09 0861.31
2015 04 09 15 01 59 .24     -79    333     14    343    344 346.6   2.4  34084  288.28 0861.31
2015 04 09 15 01 59 .50     -67    337      4    344    345 348.7   0.8  34070  288.05 0861.31
2015 04 09 15 01 59 .77     -73    288     15    298    299 345.7   2.9  34072  288.07 0861.31
2015 04 09 15 02 00 .00     -73    359     17    367    368 348.5   2.8  34110  288.74 0861.31
2015 04 09 15 02 00 .25     -50    349     28    353    355 351.8   4.6  34136  289.15 0861.31
2015 04 09 15 02 00 .50     -46    378     34    381    383 353.0   5.2  34118  288.86 0861.31
2015 04 09 15 02 00 .75     -44    393     41    396    399 353.5   6.0  34090  288.40 0861.31
2015 04 09 15 02 01 .00     -48    386     47    390    393 352.8   6.9  34122  288.94 0861.31
2015 04 09 15 02 01 .25     -43    407     28    410    411 353.9   4.0  34074  288.12 0861.31
2015 04 09 15 02 01 .50      -5    386    -21    387    388 359.2  -3.1  34084  288.27 0861.31
2015 04 09 15 02 01 .75       6    315    -15    316    317   1.2  -2.8  34086  288.31 0861.31
2015 04 09 15 02 02 .00      35    361    -73    363    371   5.6 -11.5  34090  288.38 0861.31
2015 04 09 15 02 02 .25       4    266    -25    267    269   0.9  -5.4  34082  288.26 0861.31
2015 04 09 15 02 02 .50      21    354     -7    355    356   3.5  -1.2  34088  288.35 0861.31
2015 04 09 15 02 02 .76     -12    310     35    311    314 357.8   6.5  34086  288.32 0861.31
2015 04 09 15 02 03 .00       0    261     36    262    265   0.0   8.0  34122  288.92 0861.31
2015 04 09 15 02 03 .26      -5    317     59    318    324 359.0  10.6  34136  289.17 0861.31
2015 04 09 15 02 03 .50     -17    293     69    294    302 356.5  13.2  34170  289.75 0861.31
2015 04 09 15 02 03 .75      -9    343     52    344    348 358.4   8.7  34102  288.59 0861.31
2015 04 09 15 02 04 .01      15    336     88    337    349   2.6  14.7  34172  289.79 0861.31
2015 04 09 15 02 04 .26     -65    379     88    385    395 350.2  12.9  34132  289.10 0861.31
2015 04 09 15 02 04 .51     -66    407     12    413    414 350.7   1.7  34136  289.16 0861.31
2015 04 09 15 02 04 .76    -117    347    -10    367    368 341.3  -1.6  34124  288.96 0861.31
2015 04 09 15 02 05 .01    -111    310      2    330    331 340.2   0.4  34126  289.01 0861.31
2015 04 09 15 02 05 .26    -156    262    -65    305    313 329.2 -12.2  34126  289.00 0861.31
2015 04 09 15 02 05 .51    -205    265   -106    336    353 322.3 -17.6  34120  288.89 0861.31
2015 04 09 15 02 05 .76    -109    303    -85    323    335 340.2 -14.8  34110  288.74 0861.31
2015 04 09 15 02 06 .02     -85    279    -26    292    294 343.1  -5.2  34112  288.75 0861.31
2015 04 09 15 02 06 .27     -68    324    -12    332    333 348.1  -2.1  34110  288.72 0861.31
2015 04 09 15 02 06 .53     -76    318     17    328    329 346.5   3.0  34126  288.98 0861.31
2015 04 09 15 02 06 .78     -53    342     28    347    349 351.2   4.7  34162  289.59 0861.31
2015 04 09 15 02 07 .25     -67    331     35    339    341 348.4   5.9  34198  290.23 0861.31
2015 04 09 15 02 07 .27    -107    271      1    292    293 338.4   0.2  34184  289.98 0861.31
2015 04 09 15 02 07 .53    -117    172     -8    209    210 325.7  -2.2  34222  290.64 0861.31
2015 04 09 15 02 07 .78    -144    204     -9    250    251 324.8  -2.2  34216  290.51 0861.31
2015 04 09 15 02 08 .02    -136    288    -21    319    320 334.6  -3.9  34152  289.42 0861.31
2015 04 09 15 02 08 .28    -143    313    -19    345    346 335.5  -3.2  34180  289.91 0861.31
2015 04 09 15 02 08 .53    -138    346    -10    373    374 338.2  -1.6  34196  290.18 0861.31
2015 04 09 15 02 08 .78    -168    352    -20    391    392 334.5  -3.0  34188  290.04 0861.31
2015 04 09 15 02 09 .03    -163    408    -47    440    443 338.2  -6.2  34204  290.33 0861.31
2015 04 09 15 02 09 .28    -128    331     14    356    357 338.8   2.3  34196  290.18 0861.30
2015 04 09 15 02 09 .53     -74    254     62    265    273 343.7  13.2  34210  290.41 0861.30
2015 04 09 15 02 09 .78     -64    425    101    430    442 351.4  13.2  34252  291.14 0861.30
2015 04 09 15 02 10 .03    -123    564    124    578    592 347.6  12.2  34170  289.73 0861.30
2015 04 09 15 02 10 .28    -131    534     18    550    551 346.2   1.9  34226  290.69 0861.30
2015 04 09 15 02 10 .53    -164    449    -34    479    481 340.0  -4.1  34206  290.34 0861.30
2015 04 09 15 02 10 .78    -115    537    -18    550    551 347.9  -1.9  34130  289.06 0861.30
2015 04 09 15 02 11 .03     -84    539    -20    546    547 351.1  -2.1  34134  289.14 0861.30
2015 04 09 15 02 11 .29    -135    505    -41    523    525 345.0  -4.6  34132  289.09 0861.30
2015 04 09 15 02 11 .53    -103    487    -22    498    499 348.0  -2.6  34132  289.10 0861.30
2015 04 09 15 02 11 .79      -4    460    -62    461    466 359.4  -7.7  34134  289.12 0861.30
2015 04 09 15 02 12 .04     -47    390     16    393    394 353.1   2.4  34128  289.04 0861.30
2015 04 09 15 02 12 .29     -60    421    -12    426    427 351.9  -1.7  34148  289.36 0861.30
2015 04 09 15 02 12 .54     -54    427     14    431    432 352.8   1.9  34174  289.80 0861.30
2015 04 09 15 02 12 .79     -75    389      1    397    398 349.0   0.2  34174  289.81 0861.30
2015 04 09 15 02 13 .05    -116    399     -4    416    417 343.7  -0.6  34232  290.78 0861.30
2015 04 09 15 02 13 .30    -146    439    -50    463    466 341.6  -6.3  34170  289.73 0861.30
2015 04 09 15 02 13 .55    -156    387    -45    418    421 338.1  -6.2  34182  289.95 0861.30
2015 04 09 15 02 13 .80    -140    349    -25    377    378 338.2  -3.9  34208  290.38 0861.30
2015 04 09 15 02 14 .05    -103    311      5    328    329 341.6   0.9  34214  290.49 0861.30
2015 04 09 15 02 14 .30     -74    317     57    326    332 346.8  10.0  34232  290.79 0861.30
2015 04 09 15 02 14 .55     -59    302     31    308    310 348.9   5.8  34252  291.14 0861.30
2015 04 09 15 02 14 .80     -48    239     38    244    248 348.5   8.9  34262  291.29 0861.30
2015 04 09 15 02 15 .05     -46    244     83    249    263 349.3  18.6  34278  291.56 0861.30
2015 04 09 15 02 15 .31     -58    335     33    341    343 350.1   5.7  34302  292.00 0861.30
2015 04 09 15 02 15 .56     -10    329     -1    330    331 358.2  -0.3  34284  291.69 0861.30
2015 04 09 15 02 15 .80     -31    364     44    366    369 355.0   6.9  34346  292.73 0861.30
2015 04 09 15 02 16 .06     -26    340     -1    342    343 355.5  -0.2  34208  290.37 0861.30
2015 04 09 15 02 16 .31     -35    341      0    343    344 354.0   0.0  34222  290.64 0861.30
2015 04 09 15 02 16 .55     -29    380     34    382    384 355.5   5.2  34234  290.84 0861.30
2015 04 09 15 02 16 .81     -71    354     30    362    364 348.6   4.9  34218  290.57 0861.30
2015 04 09 15 02 17 .06     -94    346      5    359    360 344.7   0.8  34198  290.21 0861.30
2015 04 09 15 02 17 .31     -56    333     47    338    342 350.3   8.0  34238  290.91 0861.30
2015 04 09 15 02 17 .56     -20    337     30    338    340 356.5   5.2  34166  289.67 0861.30
2015 04 09 15 02 17 .81      -4    318     44    319    323 359.1   7.9  34206  290.34 0861.30
2015 04 09 15 02 18 .06     -22    299     42    300    304 355.6   8.0  34180  289.90 0861.30
2015 04 09 15 02 18 .31     -51    303     24    308    310 350.4   4.6  34258  291.24 0861.30
2015 04 09 15 02 18 .56     -15    300     41    301    304 357.1   7.8  34230  290.76 0861.30
2015 04 09 15 02 18 .81     -37    275     34    278    281 352.2   7.1  34266  291.38 0861.30
2015 04 09 15 02 19 .06     -13    294      6    295    296 357.3   1.2  34188  290.03 0861.30
2015 04 09 15 02 19 .31     -13    263     26    264    266 357.1   5.7  34248  291.07 0861.30
2015 04 09 15 02 19 .57      -4    287    -19    288    289 359.1  -3.9  34228  290.73 0861.30
2015 04 09 15 02 19 .81     -13    263      4    264    265 357.1   1.0  34242  290.95 0861.30
2015 04 09 15 02 20 .07     -40    291     26    294    296 352.0   5.2  34228  290.71 0861.30
2015 04 09 15 02 20 .33     -71    300     30    309    311 346.6   5.7  34252  291.12 0861.30
2015 04 09 15 02 20 .58     -72    316     36    325    328 347.1   6.5  34260  291.27 0861.30
2015 04 09 15 02 20 .82     -72    373     45    380    383 349.0   6.9  34278  291.56 0861.30
2015 04 09 15 02 21 .07    -120    433     40    450    452 344.4   5.2  34152  289.43 0861.30
2015 04 09 15 02 21 .33    -136    491    -27    510    511 344.4  -3.1  34068  288.03 0861.30
2015 04 09 15 02 21 .58    -131    499     -3    517    518 345.2  -0.4  34090  288.39 0861.30
2015 04 09 15 02 21 .83     -76    510    -38    516    518 351.5  -4.2  34114  288.79 0861.30
2015 04 09 15 02 22 .07     -91    509    -37    518    520 349.8  -4.1  34072  288.08 0861.30
2015 04 09 15 02 22 .33     -78    500    -36    507    509 351.1  -4.1  34078  288.18 0861.30
2015 04 09 15 02 22 .58     -71    459    -58    465    469 351.1  -7.2  34100  288.57 0861.30
2015 04 09 15 02 22 .83     -82    458    -26    466    467 349.8  -3.3  34102  288.59 0861.30
2015 04 09 15 02 23 .08     -88    441    -57    450    454 348.7  -7.3  34074  288.12 0861.30
2015 04 09 15 02 23 .33     -82    432    -28    440    441 349.2  -3.7  34086  288.31 0861.30
2015 04 09 15 02 23 .59    -129    496      7    513    514 345.4   0.8  34142  289.25 0861.30
2015 04 09 15 02 23 .83    -158    519    -30    543    544 343.1  -3.2  34098  288.53 0861.31
2015 04 09 15 02 24 .08    -113    526    -28    539    540 347.9  -3.0  34094  288.45 0861.31
2015 04 09 15 02 24 .33    -152    490      8    514    515 342.7   0.9  34086  288.32 0861.31
2015 04 09 15 02 24 .58    -171    581     -2    606    607 343.6  -0.2  34098  288.51 0861.31
2015 04 09 15 02 24 .83    -152    592     18    612    613 345.6   1.7  34110  288.71 0861.31
2015 04 09 15 02 25 .09    -126    590    -51    604    607 347.9  -4.9  34094  288.44 0861.31
2015 04 09 15 02 25 .33    -121    552     -2    566    567 347.6  -0.3  34134  289.14 0861.31
2015 04 09 15 02 25 .59    -127    548    -12    563    564 346.9  -1.3  34090  288.40 0861.31
2015 04 09 15 02 25 .84    -136    503    -41    522    524 344.9  -4.6  34090  288.40 0861.31
2015 04 09 15 02 26 .09    -108    467    -19    480    481 346.9  -2.3  34102  288.59 0861.31
2015 04 09 15 02 26 .34    -142    491    -47    512    515 343.9  -5.3  34088  288.35 0861.31
2015 04 09 15 02 26 .59    -123    507    -51    522    525 346.3  -5.6  34084  288.30 0861.31
2015 04 09 15 02 26 .84    -155    425     -9    453    454 340.0  -1.3  34070  288.06 0861.31
2015 04 09 15 02 27 .10    -155    414    -10    443    444 339.4  -1.4  34090  288.38 0861.31
2015 04 09 15 02 27 .35    -147    471      2    494    495 342.6   0.3  34134  289.13 0861.31
2015 04 09 15 02 27 .60    -151    481     -7    505    506 342.6  -0.9  34104  288.64 0861.32
2015 04 09 15 02 27 .85    -111    486     14    499    500 347.1   1.7  34110  288.71 0861.32
2015 04 09 15 02 28 .10     -85    521     30    529    530 350.7   3.3  34118  288.87 0861.32
2015 04 09 15 02 28 .35     -95    535     22    544    545 349.9   2.3  34098  288.52 0861.32
2015 04 09 15 02 28 .60    -108    508     16    520    521 348.0   1.8  34114  288.79 0861.32
2015 04 09 15 02 28 .86     -90    511     51    520    523 350.0   5.7  34124  288.96 0861.32
2015 04 09 15 02 29 .11    -108    532     85    543    550 348.5   8.9  34174  289.80 0861.32
2015 04 09 15 02 29 .36    -166    455    -19    485    486 340.0  -2.3  34248  291.07 0861.32
2015 04 09 15 02 29 .60    -169    429     22    462    463 338.4   2.8  34260  291.28 0861.32
2015 04 09 15 02 29 .85    -187    383    -78    427    435 333.9 -10.4  34284  291.69 0861.32
2015 04 09 15 02 30 .11    -203    423    -66    470    475 334.3  -8.1  34124  288.95 0861.32
2015 04 09 15 02 30 .35    -185    407    -53    448    452 335.6  -6.8  34088  288.34 0861.31
2015 04 09 15 02 30 .61    -188    430    -51    470    473 336.4  -6.2  34084  288.27 0861.31
2015 04 09 15 02 30 .86    -126    389    -27    410    411 342.0  -3.9  34082  288.26 0861.31
2015 04 09 15 02 31 .11    -125    421      0    440    441 343.5   0.0  34120  288.90 0861.32
2015 04 09 15 02 31 .36    -113    418      5    434    435 344.9   0.7  34190  290.09 0861.32
2015 04 09 15 02 31 .61     -99    491     71    501    507 348.6   8.1  34142  289.27 0861.32
2015 04 09 15 02 31 .86    -123    448     37    465    467 344.6   4.6  34214  290.49 0861.32
2015 04 09 15 02 32 .11    -129    517     45    533    536 346.0   4.9  34114  288.80 0861.32
2015 04 09 15 02 32 .36    -155    450    -32    477    479 341.0  -3.9  34098  288.51 0861.32
2015 04 09 15 02 32 .61    -187    447    -35    485    487 337.3  -4.2  34120  288.91 0861.32
2015 04 09 15 02 32 .86    -189    420    -44    461    464 335.7  -5.5  34092  288.41 0861.31
2015 04 09 15 02 33 .11    -206    437    -75    484    490 334.8  -8.8  34080  288.22 0861.31
2015 04 09 15 02 33 .36    -164    434    -42    465    467 339.3  -5.2  34072  288.08 0861.31
2015 04 09 15 02 33 .61    -171    470    -42    501    503 340.0  -4.9  34060  287.88 0861.31
2015 04 09 15 02 33 .88    -154    460    -56    486    490 341.4  -6.6  34074  288.10 0861.31
2015 04 09 15 02 34 .13    -172    462    -27    494    495 339.6  -3.2  34076  288.15 0861.31
2015 04 09 15 02 34 .38    -209    460    -60    506    510 335.6  -6.8  34068  288.03 0861.31
2015 04 09 15 02 34 .62    -173    427    -28    461    462 337.9  -3.5  34080  288.21 0861.31
2015 04 09 15 02 34 .88    -180    413    -43    451    454 336.4  -5.5  34074  288.11 0861.31
2015 04 09 15 02 35 .13    -193    415    -57    458    462 335.1  -7.2  34070  288.06 0861.31
2015 04 09 15 02 35 .38    -190    416    -57    458    462 335.4  -7.2  34068  288.01 0861.31
2015 04 09 15 02 35 .63    -172    426    -44    460    463 337.9  -5.5  34070  288.04 0861.31
2015 04 09 15 02 35 .88    -185    422    -33    462    464 336.3  -4.1  34092  288.43 0861.31
2015 04 09 15 02 36 .13    -183    419    -39    458    460 336.4  -4.9  34066  287.99 0861.31
2015 04 09 15 02 36 .38    -192    397    -62    442    447 334.1  -8.0  34052  287.75 0861.31
2015 04 09 15 02 36 .63    -175    378    -60    417    422 335.2  -8.2  34052  287.73 0861.31
2015 04 09 15 02 36 .88    -171    390    -50    427    430 336.3  -6.7  34064  287.94 0861.31
2015 04 09 15 02 37 .13    -171    390    -50    427    430 336.3  -6.7  34066  287.99 0861.31
2015 04 09 15 02 37 .38    -168    418    -24    451    452 338.1  -3.1  34080  288.21 0861.31
2015 04 09 15 02 37 .63    -168    410    -30    444    445 337.7  -3.9  34062  287.90 0861.31
2015 04 09 15 02 37 .88    -138    380    -19    405    406 340.0  -2.8  34068  288.01 0861.31
2015 04 09 15 02 38 .13    -148    398    -11    426    427 339.5  -1.6  34066  287.97 0861.31
2015 04 09 15 02 38 .38    -144    426    -21    450    451 341.3  -2.8  34056  287.80 0861.31
2015 04 09 15 02 38 .64    -117    431     22    447    448 344.7   2.9  34062  287.90 0861.31
2015 04 09 15 02 38 .89    -136    408    -16    431    432 341.5  -2.2  34070  288.04 0861.31
2015 04 09 15 02 39 .13    -119    412      5    429    430 343.9   0.7  34064  287.94 0861.31
2015 04 09 15 02 39 .39    -137    416    -24    439    440 341.7  -3.2  34052  287.75 0861.31
2015 04 09 15 02 39 .63    -118    428    -17    445    446 344.5  -2.2  34050  287.70 0861.31
2015 04 09 15 02 39 .89    -116    428    -17    444    445 344.8  -2.2  34050  287.72 0861.31
2015 04 09 15 02 40 .14    -112    424     -2    439    440 345.1  -0.4  34052  287.75 0861.31
2015 04 09 15 02 40 .39    -116    403     -6    420    421 344.0  -0.9  34054  287.79 0861.31
2015 04 09 15 02 40 .64    -108    399      2    414    415 344.9   0.4  34052  287.75 0861.31
2015 04 09 15 02 40 .90    -107    392    -15    407    408 344.7  -2.2  34050  287.72 0861.31
2015 04 09 15 02 41 .15    -110    378      1    394    395 343.7   0.2  34052  287.76 0861.31
2015 04 09 15 02 41 .40    -120    379    -15    398    399 342.4  -2.2  34048  287.69 0861.31
2015 04 09 15 02 41 .65    -116    387     -4    405    406 343.3  -0.6  34054  287.77 0861.31
2015 04 09 15 02 41 .90    -112    393    -15    409    410 344.0  -2.2  34062  287.90 0861.31
2015 04 09 15 02 42 .15    -101    388     -2    402    403 345.3  -0.4  34064  287.93 0861.31
2015 04 09 15 02 42 .40    -107    408     -6    422    423 345.2  -0.9  34052  287.73 0861.31
2015 04 09 15 02 42 .65    -104    408    -16    422    423 345.7  -2.2  34048  287.67 0861.31
2015 04 09 15 02 42 .90    -116    403     -6    420    421 344.0  -0.9  34044  287.62 0861.31
2015 04 09 15 02 43 .15    -118    398    -16    416    417 343.5  -2.2  34048  287.67 0861.31
2015 04 09 15 02 43 .40    -120    398     -8    416    417 343.2  -1.1  34052  287.75 0861.31
2015 04 09 15 02 43 .66    -118    367    -15    386    387 342.2  -2.2  34048  287.66 0861.31
2015 04 09 15 02 43 .91    -138    370    -15    396    397 339.5  -2.2  34054  287.78 0861.31
2015 04 09 15 02 44 .16    -121    378     -1    397    398 342.2  -0.3  34058  287.84 0861.31
2015 04 09 15 02 44 .41    -124    368    -21    389    390 341.3  -3.2  34054  287.79 0861.31
2015 04 09 15 02 44 .66    -165    361    -47    398    401 335.4  -6.9  34060  287.88 0861.32
2015 04 09 15 02 44 .91    -163    373    -44    408    411 336.4  -6.3  34068  288.01 0861.32
2015 04 09 15 02 45 .16    -164    375    -32    410    412 336.3  -4.6  34070  288.06 0861.32
2015 04 09 15 02 45 .41    -135    385    -25    409    410 340.6  -3.5  34070  288.06 0861.32
2015 04 09 15 02 45 .66    -130    404    -12    425    426 342.1  -1.7  34068  288.01 0861.32
2015 04 09 15 02 45 .91    -111    379      2    395    396 343.6   0.4  34064  287.93 0861.32
2015 04 09 15 02 46 .16    -134    398     11    421    422 341.4   1.6  34066  287.99 0861.32
2015 04 09 15 02 46 .42    -136    417    -17    439    440 341.9  -2.3  34076  288.16 0861.32
2015 04 09 15 02 46 .67    -110    451     14    465    466 346.2   1.8  34098  288.52 0861.31
2015 04 09 15 02 46 .91    -136    423     32    445    447 342.2   4.2  34112  288.77 0861.31
2015 04 09 15 02 47 .17    -142    405    -12    430    431 340.6  -1.7  34106  288.65 0861.31
2015 04 09 15 02 47 .42    -118    448     23    464    465 345.2   2.9  34120  288.90 0861.31
2015 04 09 15 02 47 .66    -119    441     64    457    462 344.8   8.0  34128  289.02 0861.31
2015 04 09 15 02 47 .93    -163    490    -44    517    520 341.5  -4.9  34048  287.66 0861.31
2015 04 09 15 02 48 .18    -186    462    -59    499    503 338.1  -6.8  34048  287.66 0861.31
2015 04 09 15 02 48 .43    -143    427    -75    451    458 341.4  -9.5  34054  287.77 0861.31
2015 04 09 15 02 48 .68    -106    453    -18    466    467 346.8  -2.2  34050  287.71 0861.31
2015 04 09 15 02 48 .93    -115    537    -18    550    551 347.9  -1.9  34106  288.65 0861.31
2015 04 09 15 02 49 .18    -108    492    -15    504    505 347.6  -1.8  34104  288.62 0861.31
2015 04 09 15 02 49 .43     -96    516     26    525    526 349.4   2.9  34144  289.31 0861.31
2015 04 09 15 02 49 .68     -85    514     16    522    523 350.6   1.8  34104  288.62 0861.31
